<?xml version="1.0" encoding="UTF-8" standalone="no" ?>
<gpx xmlns="http://www.topografix.com/GPX/1/1" xmlns:xsi="http://www.w3.org/2001/XMLSchema-instance" xsi:schemaLocation="http://www.topografix.com/GPX/1/1 http://www.topografix.com/GPX/1/1/gpx.xsd" version="1.1" creator="VisuGPX - https://www.visugpx.com">
  <metadata>
    <name>2018-09-11 Bike ride-Amberieux en Dombes O via Toussieux v42k</name>
    <desc><![CDATA[2018-09-11 Bike ride-Amberieux en Dombes O via Toussieux v42k]]></desc>
  </metadata>
  <wpt lat="45.92457" lon="4.7371">
    <ele>174</ele>
    <name><![CDATA[2018-09-11 10:24 (Start)]]></name>
  </wpt>
  <wpt lat="45.92462" lon="4.73709">
    <ele>174</ele>
    <name><![CDATA[2018-09-11 10:24 (End)]]></name>
  </wpt>
  <trk>
    <name><![CDATA[2018-09-11 10:24]]></name>
    <trkseg>
      <trkpt lat="45.92457" lon="4.7371">
        <ele>174</ele>
        <time>2018-09-11T08:24:45.56Z</time>
      </trkpt>
      <trkpt lat="45.92464" lon="4.73702">
        <ele>174</ele>
        <time>2018-09-11T08:25:06Z</time>
      </trkpt>
      <trkpt lat="45.92464" lon="4.737">
        <ele>174</ele>
        <time>2018-09-11T08:25:07Z</time>
      </trkpt>
      <trkpt lat="45.92466" lon="4.7369">
        <ele>174</ele>
        <time>2018-09-11T08:25:10Z</time>
      </trkpt>
      <trkpt lat="45.92466" lon="4.73686">
        <ele>174</ele>
        <time>2018-09-11T08:25:11Z</time>
      </trkpt>
      <trkpt lat="45.92467" lon="4.73677">
        <ele>174</ele>
        <time>2018-09-11T08:25:13Z</time>
      </trkpt>
      <trkpt lat="45.92468" lon="4.73673">
        <ele>174</ele>
        <time>2018-09-11T08:25:14Z</time>
      </trkpt>
      <trkpt lat="45.9247" lon="4.73662">
        <ele>174</ele>
        <time>2018-09-11T08:25:15Z</time>
      </trkpt>
      <trkpt lat="45.9247" lon="4.73659">
        <ele>174</ele>
        <time>2018-09-11T08:25:16Z</time>
      </trkpt>
      <trkpt lat="45.92472" lon="4.73653">
        <ele>174</ele>
        <time>2018-09-11T08:25:18Z</time>
      </trkpt>
      <trkpt lat="45.92476" lon="4.73644">
        <ele>174</ele>
        <time>2018-09-11T08:25:19Z</time>
      </trkpt>
      <trkpt lat="45.9248" lon="4.73642">
        <ele>174</ele>
        <time>2018-09-11T08:25:21Z</time>
      </trkpt>
      <trkpt lat="45.92487" lon="4.73641">
        <ele>174</ele>
        <time>2018-09-11T08:25:22Z</time>
      </trkpt>
      <trkpt lat="45.92495" lon="4.73642">
        <ele>174</ele>
        <time>2018-09-11T08:25:24Z</time>
      </trkpt>
      <trkpt lat="45.92499" lon="4.73643">
        <ele>174</ele>
        <time>2018-09-11T08:25:25Z</time>
      </trkpt>
      <trkpt lat="45.92503" lon="4.73644">
        <ele>174</ele>
        <time>2018-09-11T08:25:26Z</time>
      </trkpt>
      <trkpt lat="45.92508" lon="4.73645">
        <ele>174</ele>
        <time>2018-09-11T08:25:27Z</time>
      </trkpt>
      <trkpt lat="45.92515" lon="4.73646">
        <ele>174</ele>
        <time>2018-09-11T08:25:28Z</time>
      </trkpt>
      <trkpt lat="45.9252" lon="4.73646">
        <ele>174</ele>
        <time>2018-09-11T08:25:29Z</time>
      </trkpt>
      <trkpt lat="45.92525" lon="4.73644">
        <ele>173</ele>
        <time>2018-09-11T08:25:30Z</time>
      </trkpt>
      <trkpt lat="45.92531" lon="4.73644">
        <ele>173</ele>
        <time>2018-09-11T08:25:31Z</time>
      </trkpt>
      <trkpt lat="45.92539" lon="4.7364">
        <ele>173</ele>
        <time>2018-09-11T08:25:33Z</time>
      </trkpt>
      <trkpt lat="45.92544" lon="4.73639">
        <ele>173</ele>
        <time>2018-09-11T08:25:34Z</time>
      </trkpt>
      <trkpt lat="45.92549" lon="4.73638">
        <ele>173</ele>
        <time>2018-09-11T08:25:35.964Z</time>
      </trkpt>
      <trkpt lat="45.92554" lon="4.73636">
        <ele>173</ele>
        <time>2018-09-11T08:25:36Z</time>
      </trkpt>
      <trkpt lat="45.92559" lon="4.73634">
        <ele>173</ele>
        <time>2018-09-11T08:25:37Z</time>
      </trkpt>
      <trkpt lat="45.92564" lon="4.73633">
        <ele>173</ele>
        <time>2018-09-11T08:25:38Z</time>
      </trkpt>
      <trkpt lat="45.9257" lon="4.73629">
        <ele>173</ele>
        <time>2018-09-11T08:25:39Z</time>
      </trkpt>
      <trkpt lat="45.92573" lon="4.73629">
        <ele>173</ele>
        <time>2018-09-11T08:25:40Z</time>
      </trkpt>
      <trkpt lat="45.92581" lon="4.73628">
        <ele>173</ele>
        <time>2018-09-11T08:25:42Z</time>
      </trkpt>
      <trkpt lat="45.92587" lon="4.73628">
        <ele>172</ele>
        <time>2018-09-11T08:25:43Z</time>
      </trkpt>
      <trkpt lat="45.92596" lon="4.73629">
        <ele>172</ele>
        <time>2018-09-11T08:25:45Z</time>
      </trkpt>
      <trkpt lat="45.92601" lon="4.7363">
        <ele>172</ele>
        <time>2018-09-11T08:25:46Z</time>
      </trkpt>
      <trkpt lat="45.92604" lon="4.73627">
        <ele>173</ele>
        <time>2018-09-11T08:25:47Z</time>
      </trkpt>
      <trkpt lat="45.9261" lon="4.73627">
        <ele>173</ele>
        <time>2018-09-11T08:25:48Z</time>
      </trkpt>
      <trkpt lat="45.92615" lon="4.73632">
        <ele>173</ele>
        <time>2018-09-11T08:25:49Z</time>
      </trkpt>
      <trkpt lat="45.92621" lon="4.73638">
        <ele>173</ele>
        <time>2018-09-11T08:25:50Z</time>
      </trkpt>
      <trkpt lat="45.92625" lon="4.73648">
        <ele>173</ele>
        <time>2018-09-11T08:25:52Z</time>
      </trkpt>
      <trkpt lat="45.92628" lon="4.73654">
        <ele>173</ele>
        <time>2018-09-11T08:25:53Z</time>
      </trkpt>
      <trkpt lat="45.9263" lon="4.73661">
        <ele>173</ele>
        <time>2018-09-11T08:25:54Z</time>
      </trkpt>
      <trkpt lat="45.92635" lon="4.73668">
        <ele>173</ele>
        <time>2018-09-11T08:25:55Z</time>
      </trkpt>
      <trkpt lat="45.92639" lon="4.73676">
        <ele>173</ele>
        <time>2018-09-11T08:25:56Z</time>
      </trkpt>
      <trkpt lat="45.92643" lon="4.73681">
        <ele>173</ele>
        <time>2018-09-11T08:25:57Z</time>
      </trkpt>
      <trkpt lat="45.92647" lon="4.73687">
        <ele>173</ele>
        <time>2018-09-11T08:25:58Z</time>
      </trkpt>
      <trkpt lat="45.92652" lon="4.73691">
        <ele>173</ele>
        <time>2018-09-11T08:25:59Z</time>
      </trkpt>
      <trkpt lat="45.92657" lon="4.73696">
        <ele>173</ele>
        <time>2018-09-11T08:26:00Z</time>
      </trkpt>
      <trkpt lat="45.92661" lon="4.73699">
        <ele>173</ele>
        <time>2018-09-11T08:26:01Z</time>
      </trkpt>
      <trkpt lat="45.92666" lon="4.73702">
        <ele>173</ele>
        <time>2018-09-11T08:26:02Z</time>
      </trkpt>
      <trkpt lat="45.92671" lon="4.73706">
        <ele>174</ele>
        <time>2018-09-11T08:26:03Z</time>
      </trkpt>
      <trkpt lat="45.92676" lon="4.73709">
        <ele>173</ele>
        <time>2018-09-11T08:26:04Z</time>
      </trkpt>
      <trkpt lat="45.9268" lon="4.7371">
        <ele>173</ele>
        <time>2018-09-11T08:26:05Z</time>
      </trkpt>
      <trkpt lat="45.92684" lon="4.73712">
        <ele>173</ele>
        <time>2018-09-11T08:26:06Z</time>
      </trkpt>
      <trkpt lat="45.92689" lon="4.73714">
        <ele>173</ele>
        <time>2018-09-11T08:26:07Z</time>
      </trkpt>
      <trkpt lat="45.92694" lon="4.73716">
        <ele>173</ele>
        <time>2018-09-11T08:26:08Z</time>
      </trkpt>
      <trkpt lat="45.927" lon="4.73717">
        <ele>173</ele>
        <time>2018-09-11T08:26:09Z</time>
      </trkpt>
      <trkpt lat="45.92705" lon="4.73718">
        <ele>173</ele>
        <time>2018-09-11T08:26:10Z</time>
      </trkpt>
      <trkpt lat="45.9271" lon="4.73719">
        <ele>173</ele>
        <time>2018-09-11T08:26:11Z</time>
      </trkpt>
      <trkpt lat="45.92715" lon="4.73719">
        <ele>173</ele>
        <time>2018-09-11T08:26:12Z</time>
      </trkpt>
      <trkpt lat="45.9272" lon="4.7372">
        <ele>173</ele>
        <time>2018-09-11T08:26:13Z</time>
      </trkpt>
      <trkpt lat="45.92725" lon="4.73722">
        <ele>173</ele>
        <time>2018-09-11T08:26:14Z</time>
      </trkpt>
      <trkpt lat="45.92729" lon="4.73725">
        <ele>173</ele>
        <time>2018-09-11T08:26:15Z</time>
      </trkpt>
      <trkpt lat="45.92734" lon="4.73727">
        <ele>173</ele>
        <time>2018-09-11T08:26:16Z</time>
      </trkpt>
      <trkpt lat="45.92739" lon="4.73728">
        <ele>173</ele>
        <time>2018-09-11T08:26:17Z</time>
      </trkpt>
      <trkpt lat="45.92747" lon="4.73729">
        <ele>173</ele>
        <time>2018-09-11T08:26:19Z</time>
      </trkpt>
      <trkpt lat="45.92752" lon="4.7373">
        <ele>172</ele>
        <time>2018-09-11T08:26:20Z</time>
      </trkpt>
      <trkpt lat="45.9276" lon="4.73732">
        <ele>172</ele>
        <time>2018-09-11T08:26:22Z</time>
      </trkpt>
      <trkpt lat="45.92765" lon="4.73734">
        <ele>172</ele>
        <time>2018-09-11T08:26:23Z</time>
      </trkpt>
      <trkpt lat="45.92773" lon="4.73739">
        <ele>172</ele>
        <time>2018-09-11T08:26:26Z</time>
      </trkpt>
      <trkpt lat="45.92777" lon="4.73745">
        <ele>172</ele>
        <time>2018-09-11T08:26:27Z</time>
      </trkpt>
      <trkpt lat="45.92781" lon="4.73753">
        <ele>173</ele>
        <time>2018-09-11T08:26:31Z</time>
      </trkpt>
      <trkpt lat="45.92789" lon="4.73759">
        <ele>173</ele>
        <time>2018-09-11T08:26:32Z</time>
      </trkpt>
      <trkpt lat="45.92796" lon="4.73763">
        <ele>173</ele>
        <time>2018-09-11T08:26:34Z</time>
      </trkpt>
      <trkpt lat="45.928" lon="4.73765">
        <ele>173</ele>
        <time>2018-09-11T08:26:35Z</time>
      </trkpt>
      <trkpt lat="45.92805" lon="4.73769">
        <ele>173</ele>
        <time>2018-09-11T08:26:36Z</time>
      </trkpt>
      <trkpt lat="45.9281" lon="4.73772">
        <ele>173</ele>
        <time>2018-09-11T08:26:37Z</time>
      </trkpt>
      <trkpt lat="45.92815" lon="4.73775">
        <ele>173</ele>
        <time>2018-09-11T08:26:38Z</time>
      </trkpt>
      <trkpt lat="45.9282" lon="4.73778">
        <ele>173</ele>
        <time>2018-09-11T08:26:39Z</time>
      </trkpt>
      <trkpt lat="45.92825" lon="4.73781">
        <ele>173</ele>
        <time>2018-09-11T08:26:40Z</time>
      </trkpt>
      <trkpt lat="45.92831" lon="4.73785">
        <ele>173</ele>
        <time>2018-09-11T08:26:41Z</time>
      </trkpt>
      <trkpt lat="45.92835" lon="4.73789">
        <ele>173</ele>
        <time>2018-09-11T08:26:42Z</time>
      </trkpt>
      <trkpt lat="45.9284" lon="4.73792">
        <ele>173</ele>
        <time>2018-09-11T08:26:43Z</time>
      </trkpt>
      <trkpt lat="45.92844" lon="4.73796">
        <ele>173</ele>
        <time>2018-09-11T08:26:44Z</time>
      </trkpt>
      <trkpt lat="45.92848" lon="4.73801">
        <ele>173</ele>
        <time>2018-09-11T08:26:45Z</time>
      </trkpt>
      <trkpt lat="45.92853" lon="4.7381">
        <ele>173</ele>
        <time>2018-09-11T08:26:47Z</time>
      </trkpt>
      <trkpt lat="45.92855" lon="4.73817">
        <ele>173</ele>
        <time>2018-09-11T08:26:48Z</time>
      </trkpt>
      <trkpt lat="45.92857" lon="4.73822">
        <ele>173</ele>
        <time>2018-09-11T08:26:49Z</time>
      </trkpt>
      <trkpt lat="45.9286" lon="4.73829">
        <ele>173</ele>
        <time>2018-09-11T08:26:50Z</time>
      </trkpt>
      <trkpt lat="45.92861" lon="4.73837">
        <ele>173</ele>
        <time>2018-09-11T08:26:51Z</time>
      </trkpt>
      <trkpt lat="45.92864" lon="4.73843">
        <ele>173</ele>
        <time>2018-09-11T08:26:52Z</time>
      </trkpt>
      <trkpt lat="45.92865" lon="4.7385">
        <ele>173</ele>
        <time>2018-09-11T08:26:53Z</time>
      </trkpt>
      <trkpt lat="45.92868" lon="4.73858">
        <ele>173</ele>
        <time>2018-09-11T08:26:54Z</time>
      </trkpt>
      <trkpt lat="45.9287" lon="4.73865">
        <ele>173</ele>
        <time>2018-09-11T08:26:55Z</time>
      </trkpt>
      <trkpt lat="45.92874" lon="4.73889">
        <ele>173</ele>
        <time>2018-09-11T08:26:58Z</time>
      </trkpt>
      <trkpt lat="45.92879" lon="4.739">
        <ele>173</ele>
        <time>2018-09-11T08:26:59Z</time>
      </trkpt>
      <trkpt lat="45.9288" lon="4.73909">
        <ele>173</ele>
        <time>2018-09-11T08:27:00Z</time>
      </trkpt>
      <trkpt lat="45.9288" lon="4.73915">
        <ele>173</ele>
        <time>2018-09-11T08:27:01Z</time>
      </trkpt>
      <trkpt lat="45.92882" lon="4.73924">
        <ele>172</ele>
        <time>2018-09-11T08:27:02Z</time>
      </trkpt>
      <trkpt lat="45.92883" lon="4.73933">
        <ele>172</ele>
        <time>2018-09-11T08:27:03Z</time>
      </trkpt>
      <trkpt lat="45.92884" lon="4.73941">
        <ele>172</ele>
        <time>2018-09-11T08:27:04Z</time>
      </trkpt>
      <trkpt lat="45.92883" lon="4.73948">
        <ele>172</ele>
        <time>2018-09-11T08:27:05Z</time>
      </trkpt>
      <trkpt lat="45.92883" lon="4.73955">
        <ele>172</ele>
        <time>2018-09-11T08:27:06Z</time>
      </trkpt>
      <trkpt lat="45.92884" lon="4.73965">
        <ele>172</ele>
        <time>2018-09-11T08:27:08Z</time>
      </trkpt>
      <trkpt lat="45.92885" lon="4.73973">
        <ele>172</ele>
        <time>2018-09-11T08:27:09Z</time>
      </trkpt>
      <trkpt lat="45.92885" lon="4.73985">
        <ele>172</ele>
        <time>2018-09-11T08:27:11Z</time>
      </trkpt>
      <trkpt lat="45.92883" lon="4.73991">
        <ele>172</ele>
        <time>2018-09-11T08:27:12Z</time>
      </trkpt>
      <trkpt lat="45.92882" lon="4.74002">
        <ele>172</ele>
        <time>2018-09-11T08:27:14Z</time>
      </trkpt>
      <trkpt lat="45.92881" lon="4.74008">
        <ele>172</ele>
        <time>2018-09-11T08:27:15Z</time>
      </trkpt>
      <trkpt lat="45.9288" lon="4.74015">
        <ele>172</ele>
        <time>2018-09-11T08:27:16Z</time>
      </trkpt>
      <trkpt lat="45.92878" lon="4.74022">
        <ele>172</ele>
        <time>2018-09-11T08:27:17Z</time>
      </trkpt>
      <trkpt lat="45.92876" lon="4.74028">
        <ele>172</ele>
        <time>2018-09-11T08:27:18Z</time>
      </trkpt>
      <trkpt lat="45.92874" lon="4.74036">
        <ele>172</ele>
        <time>2018-09-11T08:27:19Z</time>
      </trkpt>
      <trkpt lat="45.92873" lon="4.74042">
        <ele>172</ele>
        <time>2018-09-11T08:27:20Z</time>
      </trkpt>
      <trkpt lat="45.92869" lon="4.74048">
        <ele>172</ele>
        <time>2018-09-11T08:27:21Z</time>
      </trkpt>
      <trkpt lat="45.92864" lon="4.74052">
        <ele>172</ele>
        <time>2018-09-11T08:27:22Z</time>
      </trkpt>
      <trkpt lat="45.92858" lon="4.74056">
        <ele>172</ele>
        <time>2018-09-11T08:27:23Z</time>
      </trkpt>
      <trkpt lat="45.92855" lon="4.74063">
        <ele>172</ele>
        <time>2018-09-11T08:27:24Z</time>
      </trkpt>
      <trkpt lat="45.9285" lon="4.74067">
        <ele>172</ele>
        <time>2018-09-11T08:27:25Z</time>
      </trkpt>
      <trkpt lat="45.92845" lon="4.74071">
        <ele>172</ele>
        <time>2018-09-11T08:27:26Z</time>
      </trkpt>
      <trkpt lat="45.92842" lon="4.74076">
        <ele>171</ele>
        <time>2018-09-11T08:27:27Z</time>
      </trkpt>
      <trkpt lat="45.92838" lon="4.74082">
        <ele>171</ele>
        <time>2018-09-11T08:27:28Z</time>
      </trkpt>
      <trkpt lat="45.92835" lon="4.74087">
        <ele>171</ele>
        <time>2018-09-11T08:27:29Z</time>
      </trkpt>
      <trkpt lat="45.92831" lon="4.74091">
        <ele>171</ele>
        <time>2018-09-11T08:27:30Z</time>
      </trkpt>
      <trkpt lat="45.92827" lon="4.74095">
        <ele>171</ele>
        <time>2018-09-11T08:27:31Z</time>
      </trkpt>
      <trkpt lat="45.92823" lon="4.74099">
        <ele>171</ele>
        <time>2018-09-11T08:27:32Z</time>
      </trkpt>
      <trkpt lat="45.92819" lon="4.74105">
        <ele>171</ele>
        <time>2018-09-11T08:27:33Z</time>
      </trkpt>
      <trkpt lat="45.92815" lon="4.74109">
        <ele>172</ele>
        <time>2018-09-11T08:27:34Z</time>
      </trkpt>
      <trkpt lat="45.92811" lon="4.74113">
        <ele>172</ele>
        <time>2018-09-11T08:27:35Z</time>
      </trkpt>
      <trkpt lat="45.92807" lon="4.74118">
        <ele>172</ele>
        <time>2018-09-11T08:27:36Z</time>
      </trkpt>
      <trkpt lat="45.92801" lon="4.74122">
        <ele>172</ele>
        <time>2018-09-11T08:27:37Z</time>
      </trkpt>
      <trkpt lat="45.92796" lon="4.74125">
        <ele>172</ele>
        <time>2018-09-11T08:27:38Z</time>
      </trkpt>
      <trkpt lat="45.92792" lon="4.7413">
        <ele>172</ele>
        <time>2018-09-11T08:27:39Z</time>
      </trkpt>
      <trkpt lat="45.92786" lon="4.74134">
        <ele>172</ele>
        <time>2018-09-11T08:27:40Z</time>
      </trkpt>
      <trkpt lat="45.92782" lon="4.74138">
        <ele>172</ele>
        <time>2018-09-11T08:27:41Z</time>
      </trkpt>
      <trkpt lat="45.92778" lon="4.74142">
        <ele>172</ele>
        <time>2018-09-11T08:27:42Z</time>
      </trkpt>
      <trkpt lat="45.92773" lon="4.74146">
        <ele>172</ele>
        <time>2018-09-11T08:27:43Z</time>
      </trkpt>
      <trkpt lat="45.92769" lon="4.7415">
        <ele>172</ele>
        <time>2018-09-11T08:27:44Z</time>
      </trkpt>
      <trkpt lat="45.92763" lon="4.74154">
        <ele>172</ele>
        <time>2018-09-11T08:27:45Z</time>
      </trkpt>
      <trkpt lat="45.9276" lon="4.7416">
        <ele>172</ele>
        <time>2018-09-11T08:27:46Z</time>
      </trkpt>
      <trkpt lat="45.92755" lon="4.74165">
        <ele>172</ele>
        <time>2018-09-11T08:27:47Z</time>
      </trkpt>
      <trkpt lat="45.92753" lon="4.74175">
        <ele>172</ele>
        <time>2018-09-11T08:27:48Z</time>
      </trkpt>
      <trkpt lat="45.92749" lon="4.74177">
        <ele>172</ele>
        <time>2018-09-11T08:27:49Z</time>
      </trkpt>
      <trkpt lat="45.92744" lon="4.74181">
        <ele>172</ele>
        <time>2018-09-11T08:27:50Z</time>
      </trkpt>
      <trkpt lat="45.9274" lon="4.74186">
        <ele>172</ele>
        <time>2018-09-11T08:27:51Z</time>
      </trkpt>
      <trkpt lat="45.92736" lon="4.7419">
        <ele>171</ele>
        <time>2018-09-11T08:27:52Z</time>
      </trkpt>
      <trkpt lat="45.92732" lon="4.74195">
        <ele>171</ele>
        <time>2018-09-11T08:27:53Z</time>
      </trkpt>
      <trkpt lat="45.92727" lon="4.74201">
        <ele>171</ele>
        <time>2018-09-11T08:27:54Z</time>
      </trkpt>
      <trkpt lat="45.92723" lon="4.74206">
        <ele>171</ele>
        <time>2018-09-11T08:27:55Z</time>
      </trkpt>
      <trkpt lat="45.92719" lon="4.74212">
        <ele>171</ele>
        <time>2018-09-11T08:27:56Z</time>
      </trkpt>
      <trkpt lat="45.92717" lon="4.74218">
        <ele>171</ele>
        <time>2018-09-11T08:27:57Z</time>
      </trkpt>
      <trkpt lat="45.92713" lon="4.74224">
        <ele>171</ele>
        <time>2018-09-11T08:27:58Z</time>
      </trkpt>
      <trkpt lat="45.92708" lon="4.74229">
        <ele>171</ele>
        <time>2018-09-11T08:27:59Z</time>
      </trkpt>
      <trkpt lat="45.92701" lon="4.74236">
        <ele>171</ele>
        <time>2018-09-11T08:28:01Z</time>
      </trkpt>
      <trkpt lat="45.92698" lon="4.74241">
        <ele>171</ele>
        <time>2018-09-11T08:28:02Z</time>
      </trkpt>
      <trkpt lat="45.92692" lon="4.7425">
        <ele>171</ele>
        <time>2018-09-11T08:28:04Z</time>
      </trkpt>
      <trkpt lat="45.92689" lon="4.74256">
        <ele>171</ele>
        <time>2018-09-11T08:28:05Z</time>
      </trkpt>
      <trkpt lat="45.92686" lon="4.74262">
        <ele>171</ele>
        <time>2018-09-11T08:28:06Z</time>
      </trkpt>
      <trkpt lat="45.92682" lon="4.74269">
        <ele>171</ele>
        <time>2018-09-11T08:28:07Z</time>
      </trkpt>
      <trkpt lat="45.92679" lon="4.74276">
        <ele>171</ele>
        <time>2018-09-11T08:28:08Z</time>
      </trkpt>
      <trkpt lat="45.92677" lon="4.74286">
        <ele>171</ele>
        <time>2018-09-11T08:28:09Z</time>
      </trkpt>
      <trkpt lat="45.92672" lon="4.74288">
        <ele>171</ele>
        <time>2018-09-11T08:28:10Z</time>
      </trkpt>
      <trkpt lat="45.92669" lon="4.74297">
        <ele>171</ele>
        <time>2018-09-11T08:28:11Z</time>
      </trkpt>
      <trkpt lat="45.92664" lon="4.74303">
        <ele>171</ele>
        <time>2018-09-11T08:28:12Z</time>
      </trkpt>
      <trkpt lat="45.92661" lon="4.74312">
        <ele>171</ele>
        <time>2018-09-11T08:28:13Z</time>
      </trkpt>
      <trkpt lat="45.92657" lon="4.7432">
        <ele>171</ele>
        <time>2018-09-11T08:28:14Z</time>
      </trkpt>
      <trkpt lat="45.92654" lon="4.74329">
        <ele>171</ele>
        <time>2018-09-11T08:28:15Z</time>
      </trkpt>
      <trkpt lat="45.9265" lon="4.74334">
        <ele>171</ele>
        <time>2018-09-11T08:28:16Z</time>
      </trkpt>
      <trkpt lat="45.92647" lon="4.7434">
        <ele>171</ele>
        <time>2018-09-11T08:28:17Z</time>
      </trkpt>
      <trkpt lat="45.92644" lon="4.74346">
        <ele>171</ele>
        <time>2018-09-11T08:28:18Z</time>
      </trkpt>
      <trkpt lat="45.92639" lon="4.74348">
        <ele>171</ele>
        <time>2018-09-11T08:28:19Z</time>
      </trkpt>
      <trkpt lat="45.92634" lon="4.74358">
        <ele>171</ele>
        <time>2018-09-11T08:28:21Z</time>
      </trkpt>
      <trkpt lat="45.92632" lon="4.74366">
        <ele>171</ele>
        <time>2018-09-11T08:28:22Z</time>
      </trkpt>
      <trkpt lat="45.92629" lon="4.74372">
        <ele>171</ele>
        <time>2018-09-11T08:28:23Z</time>
      </trkpt>
      <trkpt lat="45.92626" lon="4.74379">
        <ele>170</ele>
        <time>2018-09-11T08:28:24Z</time>
      </trkpt>
      <trkpt lat="45.92622" lon="4.74385">
        <ele>170</ele>
        <time>2018-09-11T08:28:25Z</time>
      </trkpt>
      <trkpt lat="45.92619" lon="4.74392">
        <ele>170</ele>
        <time>2018-09-11T08:28:26Z</time>
      </trkpt>
      <trkpt lat="45.92615" lon="4.74399">
        <ele>170</ele>
        <time>2018-09-11T08:28:27Z</time>
      </trkpt>
      <trkpt lat="45.92611" lon="4.74406">
        <ele>170</ele>
        <time>2018-09-11T08:28:28Z</time>
      </trkpt>
      <trkpt lat="45.92607" lon="4.74413">
        <ele>170</ele>
        <time>2018-09-11T08:28:29Z</time>
      </trkpt>
      <trkpt lat="45.92604" lon="4.74419">
        <ele>170</ele>
        <time>2018-09-11T08:28:30Z</time>
      </trkpt>
      <trkpt lat="45.926" lon="4.74425">
        <ele>170</ele>
        <time>2018-09-11T08:28:31Z</time>
      </trkpt>
      <trkpt lat="45.92595" lon="4.74432">
        <ele>170</ele>
        <time>2018-09-11T08:28:32Z</time>
      </trkpt>
      <trkpt lat="45.92591" lon="4.74439">
        <ele>170</ele>
        <time>2018-09-11T08:28:33Z</time>
      </trkpt>
      <trkpt lat="45.92588" lon="4.74446">
        <ele>170</ele>
        <time>2018-09-11T08:28:34Z</time>
      </trkpt>
      <trkpt lat="45.92584" lon="4.74453">
        <ele>170</ele>
        <time>2018-09-11T08:28:35Z</time>
      </trkpt>
      <trkpt lat="45.9258" lon="4.74459">
        <ele>170</ele>
        <time>2018-09-11T08:28:36Z</time>
      </trkpt>
      <trkpt lat="45.92576" lon="4.74465">
        <ele>170</ele>
        <time>2018-09-11T08:28:37Z</time>
      </trkpt>
      <trkpt lat="45.92572" lon="4.74472">
        <ele>170</ele>
        <time>2018-09-11T08:28:38Z</time>
      </trkpt>
      <trkpt lat="45.92568" lon="4.74478">
        <ele>170</ele>
        <time>2018-09-11T08:28:39Z</time>
      </trkpt>
      <trkpt lat="45.92565" lon="4.74486">
        <ele>170</ele>
        <time>2018-09-11T08:28:40Z</time>
      </trkpt>
      <trkpt lat="45.92562" lon="4.74495">
        <ele>170</ele>
        <time>2018-09-11T08:28:41Z</time>
      </trkpt>
      <trkpt lat="45.92558" lon="4.74501">
        <ele>170</ele>
        <time>2018-09-11T08:28:42Z</time>
      </trkpt>
      <trkpt lat="45.92554" lon="4.74508">
        <ele>170</ele>
        <time>2018-09-11T08:28:43Z</time>
      </trkpt>
      <trkpt lat="45.9255" lon="4.74513">
        <ele>170</ele>
        <time>2018-09-11T08:28:44Z</time>
      </trkpt>
      <trkpt lat="45.92547" lon="4.74522">
        <ele>170</ele>
        <time>2018-09-11T08:28:45Z</time>
      </trkpt>
      <trkpt lat="45.92542" lon="4.74527">
        <ele>170</ele>
        <time>2018-09-11T08:28:46Z</time>
      </trkpt>
      <trkpt lat="45.92538" lon="4.74532">
        <ele>171</ele>
        <time>2018-09-11T08:28:47Z</time>
      </trkpt>
      <trkpt lat="45.92535" lon="4.74539">
        <ele>171</ele>
        <time>2018-09-11T08:28:48Z</time>
      </trkpt>
      <trkpt lat="45.92531" lon="4.74545">
        <ele>171</ele>
        <time>2018-09-11T08:28:49Z</time>
      </trkpt>
      <trkpt lat="45.92524" lon="4.7455">
        <ele>171</ele>
        <time>2018-09-11T08:28:50Z</time>
      </trkpt>
      <trkpt lat="45.9252" lon="4.74555">
        <ele>171</ele>
        <time>2018-09-11T08:28:51Z</time>
      </trkpt>
      <trkpt lat="45.92517" lon="4.74561">
        <ele>171</ele>
        <time>2018-09-11T08:28:52Z</time>
      </trkpt>
      <trkpt lat="45.92513" lon="4.74566">
        <ele>171</ele>
        <time>2018-09-11T08:28:53Z</time>
      </trkpt>
      <trkpt lat="45.9251" lon="4.74574">
        <ele>171</ele>
        <time>2018-09-11T08:28:54Z</time>
      </trkpt>
      <trkpt lat="45.92505" lon="4.7458">
        <ele>171</ele>
        <time>2018-09-11T08:28:55Z</time>
      </trkpt>
      <trkpt lat="45.92501" lon="4.74585">
        <ele>171</ele>
        <time>2018-09-11T08:28:56Z</time>
      </trkpt>
      <trkpt lat="45.92495" lon="4.7459">
        <ele>171</ele>
        <time>2018-09-11T08:28:57Z</time>
      </trkpt>
      <trkpt lat="45.92491" lon="4.74594">
        <ele>171</ele>
        <time>2018-09-11T08:28:58Z</time>
      </trkpt>
      <trkpt lat="45.92486" lon="4.74598">
        <ele>171</ele>
        <time>2018-09-11T08:28:59Z</time>
      </trkpt>
      <trkpt lat="45.92485" lon="4.74608">
        <ele>171</ele>
        <time>2018-09-11T08:29:00Z</time>
      </trkpt>
      <trkpt lat="45.9248" lon="4.74613">
        <ele>171</ele>
        <time>2018-09-11T08:29:01Z</time>
      </trkpt>
      <trkpt lat="45.92476" lon="4.74619">
        <ele>171</ele>
        <time>2018-09-11T08:29:02Z</time>
      </trkpt>
      <trkpt lat="45.92471" lon="4.74621">
        <ele>171</ele>
        <time>2018-09-11T08:29:03Z</time>
      </trkpt>
      <trkpt lat="45.92467" lon="4.74626">
        <ele>171</ele>
        <time>2018-09-11T08:29:04Z</time>
      </trkpt>
      <trkpt lat="45.92463" lon="4.74632">
        <ele>171</ele>
        <time>2018-09-11T08:29:05Z</time>
      </trkpt>
      <trkpt lat="45.92462" lon="4.74642">
        <ele>171</ele>
        <time>2018-09-11T08:29:06Z</time>
      </trkpt>
      <trkpt lat="45.92459" lon="4.74648">
        <ele>171</ele>
        <time>2018-09-11T08:29:07Z</time>
      </trkpt>
      <trkpt lat="45.92456" lon="4.74653">
        <ele>171</ele>
        <time>2018-09-11T08:29:08Z</time>
      </trkpt>
      <trkpt lat="45.92452" lon="4.74658">
        <ele>171</ele>
        <time>2018-09-11T08:29:09Z</time>
      </trkpt>
      <trkpt lat="45.92447" lon="4.74666">
        <ele>171</ele>
        <time>2018-09-11T08:29:10Z</time>
      </trkpt>
      <trkpt lat="45.92446" lon="4.74671">
        <ele>171</ele>
        <time>2018-09-11T08:29:11Z</time>
      </trkpt>
      <trkpt lat="45.92443" lon="4.74678">
        <ele>171</ele>
        <time>2018-09-11T08:29:12Z</time>
      </trkpt>
      <trkpt lat="45.92441" lon="4.74687">
        <ele>171</ele>
        <time>2018-09-11T08:29:13Z</time>
      </trkpt>
      <trkpt lat="45.92438" lon="4.74695">
        <ele>171</ele>
        <time>2018-09-11T08:29:14Z</time>
      </trkpt>
      <trkpt lat="45.92436" lon="4.74703">
        <ele>171</ele>
        <time>2018-09-11T08:29:15Z</time>
      </trkpt>
      <trkpt lat="45.92433" lon="4.7471">
        <ele>171</ele>
        <time>2018-09-11T08:29:16Z</time>
      </trkpt>
      <trkpt lat="45.92429" lon="4.74716">
        <ele>171</ele>
        <time>2018-09-11T08:29:17Z</time>
      </trkpt>
      <trkpt lat="45.92427" lon="4.74725">
        <ele>171</ele>
        <time>2018-09-11T08:29:18Z</time>
      </trkpt>
      <trkpt lat="45.92425" lon="4.74733">
        <ele>171</ele>
        <time>2018-09-11T08:29:19Z</time>
      </trkpt>
      <trkpt lat="45.92423" lon="4.7474">
        <ele>172</ele>
        <time>2018-09-11T08:29:20Z</time>
      </trkpt>
      <trkpt lat="45.9242" lon="4.74747">
        <ele>172</ele>
        <time>2018-09-11T08:29:21Z</time>
      </trkpt>
      <trkpt lat="45.92419" lon="4.74754">
        <ele>172</ele>
        <time>2018-09-11T08:29:22Z</time>
      </trkpt>
      <trkpt lat="45.92417" lon="4.74762">
        <ele>171</ele>
        <time>2018-09-11T08:29:23Z</time>
      </trkpt>
      <trkpt lat="45.92415" lon="4.74769">
        <ele>172</ele>
        <time>2018-09-11T08:29:24Z</time>
      </trkpt>
      <trkpt lat="45.92413" lon="4.74777">
        <ele>171</ele>
        <time>2018-09-11T08:29:25Z</time>
      </trkpt>
      <trkpt lat="45.9241" lon="4.74783">
        <ele>171</ele>
        <time>2018-09-11T08:29:26Z</time>
      </trkpt>
      <trkpt lat="45.92409" lon="4.7479">
        <ele>171</ele>
        <time>2018-09-11T08:29:27Z</time>
      </trkpt>
      <trkpt lat="45.92406" lon="4.74798">
        <ele>171</ele>
        <time>2018-09-11T08:29:28Z</time>
      </trkpt>
      <trkpt lat="45.92404" lon="4.74806">
        <ele>171</ele>
        <time>2018-09-11T08:29:29Z</time>
      </trkpt>
      <trkpt lat="45.92402" lon="4.74814">
        <ele>171</ele>
        <time>2018-09-11T08:29:30Z</time>
      </trkpt>
      <trkpt lat="45.92399" lon="4.74821">
        <ele>171</ele>
        <time>2018-09-11T08:29:31Z</time>
      </trkpt>
      <trkpt lat="45.92397" lon="4.74829">
        <ele>171</ele>
        <time>2018-09-11T08:29:32Z</time>
      </trkpt>
      <trkpt lat="45.92392" lon="4.74835">
        <ele>171</ele>
        <time>2018-09-11T08:29:33Z</time>
      </trkpt>
      <trkpt lat="45.92389" lon="4.74842">
        <ele>171</ele>
        <time>2018-09-11T08:29:34Z</time>
      </trkpt>
      <trkpt lat="45.9239" lon="4.74851">
        <ele>171</ele>
        <time>2018-09-11T08:29:35Z</time>
      </trkpt>
      <trkpt lat="45.92386" lon="4.74857">
        <ele>171</ele>
        <time>2018-09-11T08:29:36Z</time>
      </trkpt>
      <trkpt lat="45.92381" lon="4.74863">
        <ele>171</ele>
        <time>2018-09-11T08:29:37Z</time>
      </trkpt>
      <trkpt lat="45.92379" lon="4.74871">
        <ele>171</ele>
        <time>2018-09-11T08:29:38Z</time>
      </trkpt>
      <trkpt lat="45.92377" lon="4.74879">
        <ele>171</ele>
        <time>2018-09-11T08:29:39Z</time>
      </trkpt>
      <trkpt lat="45.92375" lon="4.74889">
        <ele>171</ele>
        <time>2018-09-11T08:29:40Z</time>
      </trkpt>
      <trkpt lat="45.92374" lon="4.74896">
        <ele>171</ele>
        <time>2018-09-11T08:29:41Z</time>
      </trkpt>
      <trkpt lat="45.92372" lon="4.74908">
        <ele>171</ele>
        <time>2018-09-11T08:29:42Z</time>
      </trkpt>
      <trkpt lat="45.92371" lon="4.74917">
        <ele>170</ele>
        <time>2018-09-11T08:29:43Z</time>
      </trkpt>
      <trkpt lat="45.92368" lon="4.74923">
        <ele>170</ele>
        <time>2018-09-11T08:29:44Z</time>
      </trkpt>
      <trkpt lat="45.92366" lon="4.74929">
        <ele>170</ele>
        <time>2018-09-11T08:29:45Z</time>
      </trkpt>
      <trkpt lat="45.92363" lon="4.74935">
        <ele>170</ele>
        <time>2018-09-11T08:29:46Z</time>
      </trkpt>
      <trkpt lat="45.9236" lon="4.74941">
        <ele>170</ele>
        <time>2018-09-11T08:29:47Z</time>
      </trkpt>
      <trkpt lat="45.92357" lon="4.74948">
        <ele>170</ele>
        <time>2018-09-11T08:29:48Z</time>
      </trkpt>
      <trkpt lat="45.92354" lon="4.74955">
        <ele>170</ele>
        <time>2018-09-11T08:29:49Z</time>
      </trkpt>
      <trkpt lat="45.92352" lon="4.74961">
        <ele>170</ele>
        <time>2018-09-11T08:29:50Z</time>
      </trkpt>
      <trkpt lat="45.92349" lon="4.74967">
        <ele>170</ele>
        <time>2018-09-11T08:29:51Z</time>
      </trkpt>
      <trkpt lat="45.92345" lon="4.74973">
        <ele>170</ele>
        <time>2018-09-11T08:29:52Z</time>
      </trkpt>
      <trkpt lat="45.92343" lon="4.74978">
        <ele>170</ele>
        <time>2018-09-11T08:29:53Z</time>
      </trkpt>
      <trkpt lat="45.92341" lon="4.74986">
        <ele>170</ele>
        <time>2018-09-11T08:29:54Z</time>
      </trkpt>
      <trkpt lat="45.92339" lon="4.74995">
        <ele>170</ele>
        <time>2018-09-11T08:29:55Z</time>
      </trkpt>
      <trkpt lat="45.92336" lon="4.75">
        <ele>170</ele>
        <time>2018-09-11T08:29:56Z</time>
      </trkpt>
      <trkpt lat="45.92333" lon="4.75006">
        <ele>170</ele>
        <time>2018-09-11T08:29:57Z</time>
      </trkpt>
      <trkpt lat="45.92331" lon="4.75014">
        <ele>171</ele>
        <time>2018-09-11T08:29:58Z</time>
      </trkpt>
      <trkpt lat="45.92329" lon="4.75019">
        <ele>171</ele>
        <time>2018-09-11T08:29:59Z</time>
      </trkpt>
      <trkpt lat="45.92325" lon="4.75026">
        <ele>171</ele>
        <time>2018-09-11T08:30:00Z</time>
      </trkpt>
      <trkpt lat="45.92321" lon="4.75031">
        <ele>171</ele>
        <time>2018-09-11T08:30:01Z</time>
      </trkpt>
      <trkpt lat="45.92317" lon="4.75038">
        <ele>171</ele>
        <time>2018-09-11T08:30:02Z</time>
      </trkpt>
      <trkpt lat="45.92313" lon="4.75045">
        <ele>172</ele>
        <time>2018-09-11T08:30:03Z</time>
      </trkpt>
      <trkpt lat="45.9231" lon="4.75052">
        <ele>172</ele>
        <time>2018-09-11T08:30:04Z</time>
      </trkpt>
      <trkpt lat="45.92305" lon="4.75058">
        <ele>172</ele>
        <time>2018-09-11T08:30:05Z</time>
      </trkpt>
      <trkpt lat="45.92301" lon="4.75063">
        <ele>172</ele>
        <time>2018-09-11T08:30:06Z</time>
      </trkpt>
      <trkpt lat="45.92297" lon="4.75069">
        <ele>172</ele>
        <time>2018-09-11T08:30:07Z</time>
      </trkpt>
      <trkpt lat="45.92293" lon="4.75069">
        <ele>172</ele>
        <time>2018-09-11T08:30:08Z</time>
      </trkpt>
      <trkpt lat="45.92288" lon="4.75077">
        <ele>172</ele>
        <time>2018-09-11T08:30:09Z</time>
      </trkpt>
      <trkpt lat="45.92283" lon="4.75081">
        <ele>172</ele>
        <time>2018-09-11T08:30:10Z</time>
      </trkpt>
      <trkpt lat="45.92277" lon="4.75084">
        <ele>173</ele>
        <time>2018-09-11T08:30:11Z</time>
      </trkpt>
      <trkpt lat="45.92273" lon="4.75088">
        <ele>173</ele>
        <time>2018-09-11T08:30:12Z</time>
      </trkpt>
      <trkpt lat="45.9227" lon="4.75093">
        <ele>173</ele>
        <time>2018-09-11T08:30:13Z</time>
      </trkpt>
      <trkpt lat="45.92263" lon="4.75096">
        <ele>173</ele>
        <time>2018-09-11T08:30:14Z</time>
      </trkpt>
      <trkpt lat="45.92255" lon="4.75101">
        <ele>173</ele>
        <time>2018-09-11T08:30:16Z</time>
      </trkpt>
      <trkpt lat="45.92251" lon="4.75108">
        <ele>174</ele>
        <time>2018-09-11T08:30:17Z</time>
      </trkpt>
      <trkpt lat="45.92248" lon="4.75116">
        <ele>174</ele>
        <time>2018-09-11T08:30:18Z</time>
      </trkpt>
      <trkpt lat="45.92243" lon="4.7512">
        <ele>174</ele>
        <time>2018-09-11T08:30:19Z</time>
      </trkpt>
      <trkpt lat="45.9224" lon="4.75125">
        <ele>174</ele>
        <time>2018-09-11T08:30:20Z</time>
      </trkpt>
      <trkpt lat="45.92238" lon="4.75138">
        <ele>174</ele>
        <time>2018-09-11T08:30:21Z</time>
      </trkpt>
      <trkpt lat="45.92234" lon="4.75143">
        <ele>174</ele>
        <time>2018-09-11T08:30:22Z</time>
      </trkpt>
      <trkpt lat="45.9223" lon="4.75148">
        <ele>174</ele>
        <time>2018-09-11T08:30:23Z</time>
      </trkpt>
      <trkpt lat="45.92227" lon="4.75152">
        <ele>174</ele>
        <time>2018-09-11T08:30:24Z</time>
      </trkpt>
      <trkpt lat="45.92224" lon="4.75159">
        <ele>174</ele>
        <time>2018-09-11T08:30:25Z</time>
      </trkpt>
      <trkpt lat="45.92221" lon="4.75165">
        <ele>174</ele>
        <time>2018-09-11T08:30:26Z</time>
      </trkpt>
      <trkpt lat="45.9222" lon="4.75172">
        <ele>175</ele>
        <time>2018-09-11T08:30:27Z</time>
      </trkpt>
      <trkpt lat="45.92218" lon="4.75178">
        <ele>175</ele>
        <time>2018-09-11T08:30:28Z</time>
      </trkpt>
      <trkpt lat="45.92215" lon="4.75186">
        <ele>175</ele>
        <time>2018-09-11T08:30:29Z</time>
      </trkpt>
      <trkpt lat="45.92214" lon="4.75192">
        <ele>175</ele>
        <time>2018-09-11T08:30:30Z</time>
      </trkpt>
      <trkpt lat="45.92213" lon="4.75199">
        <ele>175</ele>
        <time>2018-09-11T08:30:31Z</time>
      </trkpt>
      <trkpt lat="45.92213" lon="4.75206">
        <ele>175</ele>
        <time>2018-09-11T08:30:32Z</time>
      </trkpt>
      <trkpt lat="45.92212" lon="4.75213">
        <ele>175</ele>
        <time>2018-09-11T08:30:33Z</time>
      </trkpt>
      <trkpt lat="45.92211" lon="4.75224">
        <ele>175</ele>
        <time>2018-09-11T08:30:35Z</time>
      </trkpt>
      <trkpt lat="45.92211" lon="4.75231">
        <ele>175</ele>
        <time>2018-09-11T08:30:36Z</time>
      </trkpt>
      <trkpt lat="45.92211" lon="4.75239">
        <ele>175</ele>
        <time>2018-09-11T08:30:37Z</time>
      </trkpt>
      <trkpt lat="45.92211" lon="4.75246">
        <ele>175</ele>
        <time>2018-09-11T08:30:38Z</time>
      </trkpt>
      <trkpt lat="45.9221" lon="4.75254">
        <ele>175</ele>
        <time>2018-09-11T08:30:39Z</time>
      </trkpt>
      <trkpt lat="45.92211" lon="4.75262">
        <ele>176</ele>
        <time>2018-09-11T08:30:40Z</time>
      </trkpt>
      <trkpt lat="45.92211" lon="4.75269">
        <ele>176</ele>
        <time>2018-09-11T08:30:41Z</time>
      </trkpt>
      <trkpt lat="45.92211" lon="4.75278">
        <ele>176</ele>
        <time>2018-09-11T08:30:42Z</time>
      </trkpt>
      <trkpt lat="45.92211" lon="4.75285">
        <ele>176</ele>
        <time>2018-09-11T08:30:43Z</time>
      </trkpt>
      <trkpt lat="45.92211" lon="4.75292">
        <ele>176</ele>
        <time>2018-09-11T08:30:44Z</time>
      </trkpt>
      <trkpt lat="45.92211" lon="4.75299">
        <ele>176</ele>
        <time>2018-09-11T08:30:45Z</time>
      </trkpt>
      <trkpt lat="45.9221" lon="4.75305">
        <ele>176</ele>
        <time>2018-09-11T08:30:46Z</time>
      </trkpt>
      <trkpt lat="45.92207" lon="4.75317">
        <ele>176</ele>
        <time>2018-09-11T08:30:48Z</time>
      </trkpt>
      <trkpt lat="45.92207" lon="4.75322">
        <ele>176</ele>
        <time>2018-09-11T08:30:49Z</time>
      </trkpt>
      <trkpt lat="45.92202" lon="4.75332">
        <ele>176</ele>
        <time>2018-09-11T08:30:51Z</time>
      </trkpt>
      <trkpt lat="45.92201" lon="4.75341">
        <ele>177</ele>
        <time>2018-09-11T08:30:52Z</time>
      </trkpt>
      <trkpt lat="45.92199" lon="4.75347">
        <ele>177</ele>
        <time>2018-09-11T08:30:53Z</time>
      </trkpt>
      <trkpt lat="45.92198" lon="4.75355">
        <ele>177</ele>
        <time>2018-09-11T08:30:54Z</time>
      </trkpt>
      <trkpt lat="45.92196" lon="4.75364">
        <ele>177</ele>
        <time>2018-09-11T08:30:55Z</time>
      </trkpt>
      <trkpt lat="45.92194" lon="4.75371">
        <ele>177</ele>
        <time>2018-09-11T08:30:56Z</time>
      </trkpt>
      <trkpt lat="45.92193" lon="4.75374">
        <ele>177</ele>
        <time>2018-09-11T08:30:57Z</time>
      </trkpt>
      <trkpt lat="45.92188" lon="4.75384">
        <ele>177</ele>
        <time>2018-09-11T08:30:58Z</time>
      </trkpt>
      <trkpt lat="45.92187" lon="4.75394">
        <ele>177</ele>
        <time>2018-09-11T08:30:59Z</time>
      </trkpt>
      <trkpt lat="45.92185" lon="4.75401">
        <ele>177</ele>
        <time>2018-09-11T08:31:00Z</time>
      </trkpt>
      <trkpt lat="45.92181" lon="4.75406">
        <ele>177</ele>
        <time>2018-09-11T08:31:01Z</time>
      </trkpt>
      <trkpt lat="45.92179" lon="4.75413">
        <ele>177</ele>
        <time>2018-09-11T08:31:02Z</time>
      </trkpt>
      <trkpt lat="45.92175" lon="4.75419">
        <ele>177</ele>
        <time>2018-09-11T08:31:03Z</time>
      </trkpt>
      <trkpt lat="45.92174" lon="4.75425">
        <ele>177</ele>
        <time>2018-09-11T08:31:04Z</time>
      </trkpt>
      <trkpt lat="45.92172" lon="4.75432">
        <ele>177</ele>
        <time>2018-09-11T08:31:05Z</time>
      </trkpt>
      <trkpt lat="45.9217" lon="4.75439">
        <ele>177</ele>
        <time>2018-09-11T08:31:06Z</time>
      </trkpt>
      <trkpt lat="45.92167" lon="4.75445">
        <ele>176</ele>
        <time>2018-09-11T08:31:07Z</time>
      </trkpt>
      <trkpt lat="45.92164" lon="4.75451">
        <ele>176</ele>
        <time>2018-09-11T08:31:08Z</time>
      </trkpt>
      <trkpt lat="45.92161" lon="4.75457">
        <ele>176</ele>
        <time>2018-09-11T08:31:09Z</time>
      </trkpt>
      <trkpt lat="45.92159" lon="4.75465">
        <ele>176</ele>
        <time>2018-09-11T08:31:10Z</time>
      </trkpt>
      <trkpt lat="45.92155" lon="4.7547">
        <ele>176</ele>
        <time>2018-09-11T08:31:11Z</time>
      </trkpt>
      <trkpt lat="45.92152" lon="4.75478">
        <ele>176</ele>
        <time>2018-09-11T08:31:12Z</time>
      </trkpt>
      <trkpt lat="45.92149" lon="4.75485">
        <ele>176</ele>
        <time>2018-09-11T08:31:13Z</time>
      </trkpt>
      <trkpt lat="45.92145" lon="4.7549">
        <ele>176</ele>
        <time>2018-09-11T08:31:14Z</time>
      </trkpt>
      <trkpt lat="45.92142" lon="4.75496">
        <ele>176</ele>
        <time>2018-09-11T08:31:15Z</time>
      </trkpt>
      <trkpt lat="45.92139" lon="4.75503">
        <ele>174</ele>
        <time>2018-09-11T08:31:16Z</time>
      </trkpt>
      <trkpt lat="45.92138" lon="4.75511">
        <ele>174</ele>
        <time>2018-09-11T08:31:17Z</time>
      </trkpt>
      <trkpt lat="45.92134" lon="4.75518">
        <ele>174</ele>
        <time>2018-09-11T08:31:18Z</time>
      </trkpt>
      <trkpt lat="45.92131" lon="4.75524">
        <ele>174</ele>
        <time>2018-09-11T08:31:19Z</time>
      </trkpt>
      <trkpt lat="45.92128" lon="4.7553">
        <ele>174</ele>
        <time>2018-09-11T08:31:20Z</time>
      </trkpt>
      <trkpt lat="45.92126" lon="4.75538">
        <ele>174</ele>
        <time>2018-09-11T08:31:21Z</time>
      </trkpt>
      <trkpt lat="45.92123" lon="4.75545">
        <ele>174</ele>
        <time>2018-09-11T08:31:22Z</time>
      </trkpt>
      <trkpt lat="45.9212" lon="4.75552">
        <ele>174</ele>
        <time>2018-09-11T08:31:23Z</time>
      </trkpt>
      <trkpt lat="45.92116" lon="4.75558">
        <ele>174</ele>
        <time>2018-09-11T08:31:24Z</time>
      </trkpt>
      <trkpt lat="45.92114" lon="4.75565">
        <ele>174</ele>
        <time>2018-09-11T08:31:25Z</time>
      </trkpt>
      <trkpt lat="45.92113" lon="4.75571">
        <ele>174</ele>
        <time>2018-09-11T08:31:26Z</time>
      </trkpt>
      <trkpt lat="45.92114" lon="4.75584">
        <ele>174</ele>
        <time>2018-09-11T08:31:28Z</time>
      </trkpt>
      <trkpt lat="45.92119" lon="4.7559">
        <ele>174</ele>
        <time>2018-09-11T08:31:29Z</time>
      </trkpt>
      <trkpt lat="45.92124" lon="4.75593">
        <ele>174</ele>
        <time>2018-09-11T08:31:30Z</time>
      </trkpt>
      <trkpt lat="45.92127" lon="4.75599">
        <ele>174</ele>
        <time>2018-09-11T08:31:31Z</time>
      </trkpt>
      <trkpt lat="45.92131" lon="4.75603">
        <ele>174</ele>
        <time>2018-09-11T08:31:32Z</time>
      </trkpt>
      <trkpt lat="45.92136" lon="4.75608">
        <ele>174</ele>
        <time>2018-09-11T08:31:33Z</time>
      </trkpt>
      <trkpt lat="45.92141" lon="4.75612">
        <ele>174</ele>
        <time>2018-09-11T08:31:34Z</time>
      </trkpt>
      <trkpt lat="45.92145" lon="4.75617">
        <ele>174</ele>
        <time>2018-09-11T08:31:35Z</time>
      </trkpt>
      <trkpt lat="45.92151" lon="4.75623">
        <ele>174</ele>
        <time>2018-09-11T08:31:36Z</time>
      </trkpt>
      <trkpt lat="45.92155" lon="4.75627">
        <ele>174</ele>
        <time>2018-09-11T08:31:37Z</time>
      </trkpt>
      <trkpt lat="45.9216" lon="4.75633">
        <ele>174</ele>
        <time>2018-09-11T08:31:38Z</time>
      </trkpt>
      <trkpt lat="45.92164" lon="4.75636">
        <ele>174</ele>
        <time>2018-09-11T08:31:39Z</time>
      </trkpt>
      <trkpt lat="45.92167" lon="4.75641">
        <ele>174</ele>
        <time>2018-09-11T08:31:40Z</time>
      </trkpt>
      <trkpt lat="45.92172" lon="4.75645">
        <ele>174</ele>
        <time>2018-09-11T08:31:41Z</time>
      </trkpt>
      <trkpt lat="45.92177" lon="4.75649">
        <ele>174</ele>
        <time>2018-09-11T08:31:42Z</time>
      </trkpt>
      <trkpt lat="45.92181" lon="4.75654">
        <ele>174</ele>
        <time>2018-09-11T08:31:43Z</time>
      </trkpt>
      <trkpt lat="45.92186" lon="4.7566">
        <ele>174</ele>
        <time>2018-09-11T08:31:44Z</time>
      </trkpt>
      <trkpt lat="45.9219" lon="4.75666">
        <ele>174</ele>
        <time>2018-09-11T08:31:45Z</time>
      </trkpt>
      <trkpt lat="45.92194" lon="4.75673">
        <ele>174</ele>
        <time>2018-09-11T08:31:46Z</time>
      </trkpt>
      <trkpt lat="45.92198" lon="4.75677">
        <ele>174</ele>
        <time>2018-09-11T08:31:47Z</time>
      </trkpt>
      <trkpt lat="45.92205" lon="4.75681">
        <ele>174</ele>
        <time>2018-09-11T08:31:48Z</time>
      </trkpt>
      <trkpt lat="45.92209" lon="4.75687">
        <ele>174</ele>
        <time>2018-09-11T08:31:49Z</time>
      </trkpt>
      <trkpt lat="45.92214" lon="4.75693">
        <ele>174</ele>
        <time>2018-09-11T08:31:50Z</time>
      </trkpt>
      <trkpt lat="45.92219" lon="4.75697">
        <ele>174</ele>
        <time>2018-09-11T08:31:51Z</time>
      </trkpt>
      <trkpt lat="45.92225" lon="4.75701">
        <ele>174</ele>
        <time>2018-09-11T08:31:52Z</time>
      </trkpt>
      <trkpt lat="45.92229" lon="4.75704">
        <ele>174</ele>
        <time>2018-09-11T08:31:53Z</time>
      </trkpt>
      <trkpt lat="45.92234" lon="4.75711">
        <ele>174</ele>
        <time>2018-09-11T08:31:55Z</time>
      </trkpt>
      <trkpt lat="45.92238" lon="4.75716">
        <ele>174</ele>
        <time>2018-09-11T08:31:56Z</time>
      </trkpt>
      <trkpt lat="45.9224" lon="4.75722">
        <ele>174</ele>
        <time>2018-09-11T08:31:57Z</time>
      </trkpt>
      <trkpt lat="45.92242" lon="4.75728">
        <ele>174</ele>
        <time>2018-09-11T08:31:58Z</time>
      </trkpt>
      <trkpt lat="45.92246" lon="4.75739">
        <ele>174</ele>
        <time>2018-09-11T08:32:00Z</time>
      </trkpt>
      <trkpt lat="45.92248" lon="4.75747">
        <ele>174</ele>
        <time>2018-09-11T08:32:01Z</time>
      </trkpt>
      <trkpt lat="45.92249" lon="4.75753">
        <ele>174</ele>
        <time>2018-09-11T08:32:02Z</time>
      </trkpt>
      <trkpt lat="45.9225" lon="4.7576">
        <ele>174</ele>
        <time>2018-09-11T08:32:03Z</time>
      </trkpt>
      <trkpt lat="45.92251" lon="4.75767">
        <ele>174</ele>
        <time>2018-09-11T08:32:04Z</time>
      </trkpt>
      <trkpt lat="45.92251" lon="4.75774">
        <ele>174</ele>
        <time>2018-09-11T08:32:05Z</time>
      </trkpt>
      <trkpt lat="45.92253" lon="4.7578">
        <ele>174</ele>
        <time>2018-09-11T08:32:06Z</time>
      </trkpt>
      <trkpt lat="45.92255" lon="4.75786">
        <ele>174</ele>
        <time>2018-09-11T08:32:07Z</time>
      </trkpt>
      <trkpt lat="45.92256" lon="4.75794">
        <ele>174</ele>
        <time>2018-09-11T08:32:08Z</time>
      </trkpt>
      <trkpt lat="45.92256" lon="4.75801">
        <ele>174</ele>
        <time>2018-09-11T08:32:09Z</time>
      </trkpt>
      <trkpt lat="45.92258" lon="4.75807">
        <ele>174</ele>
        <time>2018-09-11T08:32:10Z</time>
      </trkpt>
      <trkpt lat="45.92261" lon="4.75815">
        <ele>174</ele>
        <time>2018-09-11T08:32:11Z</time>
      </trkpt>
      <trkpt lat="45.92264" lon="4.75821">
        <ele>174</ele>
        <time>2018-09-11T08:32:12Z</time>
      </trkpt>
      <trkpt lat="45.92269" lon="4.75827">
        <ele>174</ele>
        <time>2018-09-11T08:32:13Z</time>
      </trkpt>
      <trkpt lat="45.92273" lon="4.75832">
        <ele>174</ele>
        <time>2018-09-11T08:32:14Z</time>
      </trkpt>
      <trkpt lat="45.92278" lon="4.75837">
        <ele>173</ele>
        <time>2018-09-11T08:32:15Z</time>
      </trkpt>
      <trkpt lat="45.92282" lon="4.75842">
        <ele>173</ele>
        <time>2018-09-11T08:32:16Z</time>
      </trkpt>
      <trkpt lat="45.92287" lon="4.75846">
        <ele>173</ele>
        <time>2018-09-11T08:32:17Z</time>
      </trkpt>
      <trkpt lat="45.92292" lon="4.7585">
        <ele>173</ele>
        <time>2018-09-11T08:32:18Z</time>
      </trkpt>
      <trkpt lat="45.92299" lon="4.75848">
        <ele>173</ele>
        <time>2018-09-11T08:32:19Z</time>
      </trkpt>
      <trkpt lat="45.92304" lon="4.75847">
        <ele>173</ele>
        <time>2018-09-11T08:32:20Z</time>
      </trkpt>
      <trkpt lat="45.9231" lon="4.75851">
        <ele>173</ele>
        <time>2018-09-11T08:32:21Z</time>
      </trkpt>
      <trkpt lat="45.92316" lon="4.75849">
        <ele>174</ele>
        <time>2018-09-11T08:32:22Z</time>
      </trkpt>
      <trkpt lat="45.92321" lon="4.75853">
        <ele>174</ele>
        <time>2018-09-11T08:32:23Z</time>
      </trkpt>
      <trkpt lat="45.92326" lon="4.75856">
        <ele>174</ele>
        <time>2018-09-11T08:32:24Z</time>
      </trkpt>
      <trkpt lat="45.92332" lon="4.75859">
        <ele>173</ele>
        <time>2018-09-11T08:32:25Z</time>
      </trkpt>
      <trkpt lat="45.92337" lon="4.75862">
        <ele>173</ele>
        <time>2018-09-11T08:32:26Z</time>
      </trkpt>
      <trkpt lat="45.92342" lon="4.75862">
        <ele>173</ele>
        <time>2018-09-11T08:32:27Z</time>
      </trkpt>
      <trkpt lat="45.92347" lon="4.75865">
        <ele>173</ele>
        <time>2018-09-11T08:32:28Z</time>
      </trkpt>
      <trkpt lat="45.92352" lon="4.75868">
        <ele>173</ele>
        <time>2018-09-11T08:32:29Z</time>
      </trkpt>
      <trkpt lat="45.92357" lon="4.75871">
        <ele>173</ele>
        <time>2018-09-11T08:32:30Z</time>
      </trkpt>
      <trkpt lat="45.92363" lon="4.75871">
        <ele>173</ele>
        <time>2018-09-11T08:32:31Z</time>
      </trkpt>
      <trkpt lat="45.92368" lon="4.75875">
        <ele>173</ele>
        <time>2018-09-11T08:32:32Z</time>
      </trkpt>
      <trkpt lat="45.92373" lon="4.75879">
        <ele>173</ele>
        <time>2018-09-11T08:32:33Z</time>
      </trkpt>
      <trkpt lat="45.92379" lon="4.75884">
        <ele>173</ele>
        <time>2018-09-11T08:32:34Z</time>
      </trkpt>
      <trkpt lat="45.92385" lon="4.75887">
        <ele>173</ele>
        <time>2018-09-11T08:32:35Z</time>
      </trkpt>
      <trkpt lat="45.92392" lon="4.75887">
        <ele>173</ele>
        <time>2018-09-11T08:32:36Z</time>
      </trkpt>
      <trkpt lat="45.92398" lon="4.7589">
        <ele>173</ele>
        <time>2018-09-11T08:32:37Z</time>
      </trkpt>
      <trkpt lat="45.92403" lon="4.75893">
        <ele>173</ele>
        <time>2018-09-11T08:32:38Z</time>
      </trkpt>
      <trkpt lat="45.92409" lon="4.75897">
        <ele>173</ele>
        <time>2018-09-11T08:32:39Z</time>
      </trkpt>
      <trkpt lat="45.92414" lon="4.75901">
        <ele>172</ele>
        <time>2018-09-11T08:32:40Z</time>
      </trkpt>
      <trkpt lat="45.92418" lon="4.7591">
        <ele>172</ele>
        <time>2018-09-11T08:32:41Z</time>
      </trkpt>
      <trkpt lat="45.92423" lon="4.75916">
        <ele>172</ele>
        <time>2018-09-11T08:32:42Z</time>
      </trkpt>
      <trkpt lat="45.92427" lon="4.75921">
        <ele>172</ele>
        <time>2018-09-11T08:32:43Z</time>
      </trkpt>
      <trkpt lat="45.92432" lon="4.75926">
        <ele>172</ele>
        <time>2018-09-11T08:32:44Z</time>
      </trkpt>
      <trkpt lat="45.92436" lon="4.75931">
        <ele>172</ele>
        <time>2018-09-11T08:32:45Z</time>
      </trkpt>
      <trkpt lat="45.92441" lon="4.75936">
        <ele>172</ele>
        <time>2018-09-11T08:32:46Z</time>
      </trkpt>
      <trkpt lat="45.92445" lon="4.7594">
        <ele>172</ele>
        <time>2018-09-11T08:32:47Z</time>
      </trkpt>
      <trkpt lat="45.92449" lon="4.75945">
        <ele>172</ele>
        <time>2018-09-11T08:32:48Z</time>
      </trkpt>
      <trkpt lat="45.92453" lon="4.75947">
        <ele>172</ele>
        <time>2018-09-11T08:32:49Z</time>
      </trkpt>
      <trkpt lat="45.92458" lon="4.75952">
        <ele>172</ele>
        <time>2018-09-11T08:32:50Z</time>
      </trkpt>
      <trkpt lat="45.92463" lon="4.75956">
        <ele>172</ele>
        <time>2018-09-11T08:32:51Z</time>
      </trkpt>
      <trkpt lat="45.9247" lon="4.75962">
        <ele>172</ele>
        <time>2018-09-11T08:32:53Z</time>
      </trkpt>
      <trkpt lat="45.92474" lon="4.75965">
        <ele>172</ele>
        <time>2018-09-11T08:32:54Z</time>
      </trkpt>
      <trkpt lat="45.92478" lon="4.75968">
        <ele>172</ele>
        <time>2018-09-11T08:32:55Z</time>
      </trkpt>
      <trkpt lat="45.92482" lon="4.75973">
        <ele>172</ele>
        <time>2018-09-11T08:32:56Z</time>
      </trkpt>
      <trkpt lat="45.92488" lon="4.75976">
        <ele>172</ele>
        <time>2018-09-11T08:32:57Z</time>
      </trkpt>
      <trkpt lat="45.92493" lon="4.7598">
        <ele>172</ele>
        <time>2018-09-11T08:32:58Z</time>
      </trkpt>
      <trkpt lat="45.92497" lon="4.75983">
        <ele>172</ele>
        <time>2018-09-11T08:32:59Z</time>
      </trkpt>
      <trkpt lat="45.92502" lon="4.75987">
        <ele>172</ele>
        <time>2018-09-11T08:33:00Z</time>
      </trkpt>
      <trkpt lat="45.9251" lon="4.75992">
        <ele>172</ele>
        <time>2018-09-11T08:33:02Z</time>
      </trkpt>
      <trkpt lat="45.92513" lon="4.75995">
        <ele>172</ele>
        <time>2018-09-11T08:33:03Z</time>
      </trkpt>
      <trkpt lat="45.9252" lon="4.76001">
        <ele>172</ele>
        <time>2018-09-11T08:33:05Z</time>
      </trkpt>
      <trkpt lat="45.92523" lon="4.76007">
        <ele>172</ele>
        <time>2018-09-11T08:33:06Z</time>
      </trkpt>
      <trkpt lat="45.9253" lon="4.76009">
        <ele>172</ele>
        <time>2018-09-11T08:33:08Z</time>
      </trkpt>
      <trkpt lat="45.92534" lon="4.76011">
        <ele>172</ele>
        <time>2018-09-11T08:33:09Z</time>
      </trkpt>
      <trkpt lat="45.92539" lon="4.76015">
        <ele>172</ele>
        <time>2018-09-11T08:33:10Z</time>
      </trkpt>
      <trkpt lat="45.92544" lon="4.76018">
        <ele>172</ele>
        <time>2018-09-11T08:33:11Z</time>
      </trkpt>
      <trkpt lat="45.92549" lon="4.76021">
        <ele>172</ele>
        <time>2018-09-11T08:33:12Z</time>
      </trkpt>
      <trkpt lat="45.92554" lon="4.76025">
        <ele>172</ele>
        <time>2018-09-11T08:33:13Z</time>
      </trkpt>
      <trkpt lat="45.92558" lon="4.76028">
        <ele>172</ele>
        <time>2018-09-11T08:33:14Z</time>
      </trkpt>
      <trkpt lat="45.92562" lon="4.76031">
        <ele>172</ele>
        <time>2018-09-11T08:33:15Z</time>
      </trkpt>
      <trkpt lat="45.9257" lon="4.76036">
        <ele>172</ele>
        <time>2018-09-11T08:33:17Z</time>
      </trkpt>
      <trkpt lat="45.92574" lon="4.76039">
        <ele>172</ele>
        <time>2018-09-11T08:33:18Z</time>
      </trkpt>
      <trkpt lat="45.9258" lon="4.7604">
        <ele>172</ele>
        <time>2018-09-11T08:33:19Z</time>
      </trkpt>
      <trkpt lat="45.92584" lon="4.76043">
        <ele>171</ele>
        <time>2018-09-11T08:33:20Z</time>
      </trkpt>
      <trkpt lat="45.92587" lon="4.76047">
        <ele>171</ele>
        <time>2018-09-11T08:33:21Z</time>
      </trkpt>
      <trkpt lat="45.92591" lon="4.76051">
        <ele>171</ele>
        <time>2018-09-11T08:33:22Z</time>
      </trkpt>
      <trkpt lat="45.92597" lon="4.76052">
        <ele>171</ele>
        <time>2018-09-11T08:33:23Z</time>
      </trkpt>
      <trkpt lat="45.92602" lon="4.76055">
        <ele>171</ele>
        <time>2018-09-11T08:33:24Z</time>
      </trkpt>
      <trkpt lat="45.92606" lon="4.76059">
        <ele>171</ele>
        <time>2018-09-11T08:33:25Z</time>
      </trkpt>
      <trkpt lat="45.92611" lon="4.76062">
        <ele>171</ele>
        <time>2018-09-11T08:33:26Z</time>
      </trkpt>
      <trkpt lat="45.92615" lon="4.76065">
        <ele>171</ele>
        <time>2018-09-11T08:33:27Z</time>
      </trkpt>
      <trkpt lat="45.9262" lon="4.76069">
        <ele>171</ele>
        <time>2018-09-11T08:33:28Z</time>
      </trkpt>
      <trkpt lat="45.92625" lon="4.76073">
        <ele>171</ele>
        <time>2018-09-11T08:33:29Z</time>
      </trkpt>
      <trkpt lat="45.92629" lon="4.76077">
        <ele>170</ele>
        <time>2018-09-11T08:33:30Z</time>
      </trkpt>
      <trkpt lat="45.92635" lon="4.76081">
        <ele>170</ele>
        <time>2018-09-11T08:33:31Z</time>
      </trkpt>
      <trkpt lat="45.92641" lon="4.76085">
        <ele>170</ele>
        <time>2018-09-11T08:33:32Z</time>
      </trkpt>
      <trkpt lat="45.92646" lon="4.76089">
        <ele>170</ele>
        <time>2018-09-11T08:33:33Z</time>
      </trkpt>
      <trkpt lat="45.92651" lon="4.76091">
        <ele>170</ele>
        <time>2018-09-11T08:33:34Z</time>
      </trkpt>
      <trkpt lat="45.92657" lon="4.76095">
        <ele>170</ele>
        <time>2018-09-11T08:33:35Z</time>
      </trkpt>
      <trkpt lat="45.92663" lon="4.76099">
        <ele>170</ele>
        <time>2018-09-11T08:33:36Z</time>
      </trkpt>
      <trkpt lat="45.92668" lon="4.76102">
        <ele>169</ele>
        <time>2018-09-11T08:33:37Z</time>
      </trkpt>
      <trkpt lat="45.92675" lon="4.76107">
        <ele>169</ele>
        <time>2018-09-11T08:33:38Z</time>
      </trkpt>
      <trkpt lat="45.92681" lon="4.76111">
        <ele>169</ele>
        <time>2018-09-11T08:33:39Z</time>
      </trkpt>
      <trkpt lat="45.92688" lon="4.76115">
        <ele>169</ele>
        <time>2018-09-11T08:33:40Z</time>
      </trkpt>
      <trkpt lat="45.92694" lon="4.7612">
        <ele>169</ele>
        <time>2018-09-11T08:33:41Z</time>
      </trkpt>
      <trkpt lat="45.927" lon="4.76122">
        <ele>169</ele>
        <time>2018-09-11T08:33:42Z</time>
      </trkpt>
      <trkpt lat="45.92708" lon="4.76128">
        <ele>169</ele>
        <time>2018-09-11T08:33:43Z</time>
      </trkpt>
      <trkpt lat="45.92714" lon="4.76132">
        <ele>168</ele>
        <time>2018-09-11T08:33:44Z</time>
      </trkpt>
      <trkpt lat="45.9272" lon="4.76138">
        <ele>168</ele>
        <time>2018-09-11T08:33:45Z</time>
      </trkpt>
      <trkpt lat="45.92727" lon="4.76142">
        <ele>168</ele>
        <time>2018-09-11T08:33:46Z</time>
      </trkpt>
      <trkpt lat="45.92733" lon="4.76147">
        <ele>168</ele>
        <time>2018-09-11T08:33:47Z</time>
      </trkpt>
      <trkpt lat="45.92739" lon="4.76152">
        <ele>168</ele>
        <time>2018-09-11T08:33:48Z</time>
      </trkpt>
      <trkpt lat="45.92745" lon="4.76154">
        <ele>168</ele>
        <time>2018-09-11T08:33:49Z</time>
      </trkpt>
      <trkpt lat="45.92751" lon="4.76162">
        <ele>167</ele>
        <time>2018-09-11T08:33:50Z</time>
      </trkpt>
      <trkpt lat="45.92757" lon="4.76164">
        <ele>167</ele>
        <time>2018-09-11T08:33:51Z</time>
      </trkpt>
      <trkpt lat="45.92763" lon="4.76168">
        <ele>167</ele>
        <time>2018-09-11T08:33:52Z</time>
      </trkpt>
      <trkpt lat="45.92767" lon="4.76175">
        <ele>167</ele>
        <time>2018-09-11T08:33:53Z</time>
      </trkpt>
      <trkpt lat="45.92773" lon="4.7618">
        <ele>167</ele>
        <time>2018-09-11T08:33:54Z</time>
      </trkpt>
      <trkpt lat="45.92779" lon="4.76186">
        <ele>168</ele>
        <time>2018-09-11T08:33:55Z</time>
      </trkpt>
      <trkpt lat="45.92783" lon="4.76192">
        <ele>168</ele>
        <time>2018-09-11T08:33:56Z</time>
      </trkpt>
      <trkpt lat="45.92787" lon="4.76197">
        <ele>168</ele>
        <time>2018-09-11T08:33:57Z</time>
      </trkpt>
      <trkpt lat="45.92793" lon="4.76204">
        <ele>168</ele>
        <time>2018-09-11T08:33:58Z</time>
      </trkpt>
      <trkpt lat="45.92798" lon="4.76208">
        <ele>168</ele>
        <time>2018-09-11T08:33:59Z</time>
      </trkpt>
      <trkpt lat="45.92803" lon="4.76213">
        <ele>168</ele>
        <time>2018-09-11T08:34:00Z</time>
      </trkpt>
      <trkpt lat="45.92807" lon="4.76218">
        <ele>168</ele>
        <time>2018-09-11T08:34:01Z</time>
      </trkpt>
      <trkpt lat="45.92812" lon="4.76222">
        <ele>168</ele>
        <time>2018-09-11T08:34:02Z</time>
      </trkpt>
      <trkpt lat="45.92817" lon="4.76226">
        <ele>168</ele>
        <time>2018-09-11T08:34:03Z</time>
      </trkpt>
      <trkpt lat="45.92822" lon="4.76228">
        <ele>168</ele>
        <time>2018-09-11T08:34:04Z</time>
      </trkpt>
      <trkpt lat="45.92827" lon="4.76231">
        <ele>168</ele>
        <time>2018-09-11T08:34:05Z</time>
      </trkpt>
      <trkpt lat="45.92831" lon="4.76238">
        <ele>168</ele>
        <time>2018-09-11T08:34:06Z</time>
      </trkpt>
      <trkpt lat="45.92836" lon="4.76241">
        <ele>169</ele>
        <time>2018-09-11T08:34:07Z</time>
      </trkpt>
      <trkpt lat="45.92841" lon="4.76247">
        <ele>169</ele>
        <time>2018-09-11T08:34:08Z</time>
      </trkpt>
      <trkpt lat="45.92847" lon="4.76256">
        <ele>169</ele>
        <time>2018-09-11T08:34:10Z</time>
      </trkpt>
      <trkpt lat="45.92851" lon="4.76261">
        <ele>169</ele>
        <time>2018-09-11T08:34:11Z</time>
      </trkpt>
      <trkpt lat="45.92858" lon="4.76267">
        <ele>169</ele>
        <time>2018-09-11T08:34:12Z</time>
      </trkpt>
      <trkpt lat="45.92864" lon="4.76273">
        <ele>169</ele>
        <time>2018-09-11T08:34:13Z</time>
      </trkpt>
      <trkpt lat="45.92869" lon="4.76279">
        <ele>169</ele>
        <time>2018-09-11T08:34:14Z</time>
      </trkpt>
      <trkpt lat="45.92874" lon="4.76286">
        <ele>169</ele>
        <time>2018-09-11T08:34:15Z</time>
      </trkpt>
      <trkpt lat="45.92879" lon="4.76288">
        <ele>169</ele>
        <time>2018-09-11T08:34:16Z</time>
      </trkpt>
      <trkpt lat="45.92882" lon="4.76294">
        <ele>169</ele>
        <time>2018-09-11T08:34:17Z</time>
      </trkpt>
      <trkpt lat="45.92887" lon="4.76298">
        <ele>169</ele>
        <time>2018-09-11T08:34:18Z</time>
      </trkpt>
      <trkpt lat="45.92892" lon="4.76304">
        <ele>169</ele>
        <time>2018-09-11T08:34:19Z</time>
      </trkpt>
      <trkpt lat="45.92898" lon="4.76307">
        <ele>169</ele>
        <time>2018-09-11T08:34:20Z</time>
      </trkpt>
      <trkpt lat="45.92903" lon="4.76312">
        <ele>169</ele>
        <time>2018-09-11T08:34:21Z</time>
      </trkpt>
      <trkpt lat="45.92908" lon="4.76318">
        <ele>169</ele>
        <time>2018-09-11T08:34:22Z</time>
      </trkpt>
      <trkpt lat="45.92911" lon="4.76321">
        <ele>169</ele>
        <time>2018-09-11T08:34:23Z</time>
      </trkpt>
      <trkpt lat="45.92916" lon="4.76327">
        <ele>169</ele>
        <time>2018-09-11T08:34:24Z</time>
      </trkpt>
      <trkpt lat="45.92921" lon="4.76332">
        <ele>169</ele>
        <time>2018-09-11T08:34:25Z</time>
      </trkpt>
      <trkpt lat="45.92924" lon="4.76333">
        <ele>169</ele>
        <time>2018-09-11T08:34:26Z</time>
      </trkpt>
      <trkpt lat="45.92928" lon="4.76339">
        <ele>169</ele>
        <time>2018-09-11T08:34:27Z</time>
      </trkpt>
      <trkpt lat="45.92933" lon="4.76342">
        <ele>169</ele>
        <time>2018-09-11T08:34:28Z</time>
      </trkpt>
      <trkpt lat="45.92938" lon="4.76346">
        <ele>169</ele>
        <time>2018-09-11T08:34:29Z</time>
      </trkpt>
      <trkpt lat="45.92943" lon="4.76351">
        <ele>169</ele>
        <time>2018-09-11T08:34:30Z</time>
      </trkpt>
      <trkpt lat="45.92948" lon="4.76354">
        <ele>169</ele>
        <time>2018-09-11T08:34:31Z</time>
      </trkpt>
      <trkpt lat="45.92952" lon="4.76359">
        <ele>169</ele>
        <time>2018-09-11T08:34:32Z</time>
      </trkpt>
      <trkpt lat="45.92957" lon="4.76363">
        <ele>169</ele>
        <time>2018-09-11T08:34:33Z</time>
      </trkpt>
      <trkpt lat="45.92964" lon="4.7637">
        <ele>169</ele>
        <time>2018-09-11T08:34:34Z</time>
      </trkpt>
      <trkpt lat="45.92969" lon="4.76375">
        <ele>169</ele>
        <time>2018-09-11T08:34:35Z</time>
      </trkpt>
      <trkpt lat="45.92974" lon="4.76381">
        <ele>169</ele>
        <time>2018-09-11T08:34:36Z</time>
      </trkpt>
      <trkpt lat="45.9298" lon="4.76385">
        <ele>169</ele>
        <time>2018-09-11T08:34:37Z</time>
      </trkpt>
      <trkpt lat="45.92986" lon="4.76389">
        <ele>169</ele>
        <time>2018-09-11T08:34:38Z</time>
      </trkpt>
      <trkpt lat="45.92991" lon="4.76393">
        <ele>169</ele>
        <time>2018-09-11T08:34:39Z</time>
      </trkpt>
      <trkpt lat="45.92996" lon="4.76398">
        <ele>169</ele>
        <time>2018-09-11T08:34:40Z</time>
      </trkpt>
      <trkpt lat="45.92999" lon="4.76403">
        <ele>169</ele>
        <time>2018-09-11T08:34:41Z</time>
      </trkpt>
      <trkpt lat="45.93004" lon="4.76405">
        <ele>169</ele>
        <time>2018-09-11T08:34:42Z</time>
      </trkpt>
      <trkpt lat="45.93009" lon="4.7641">
        <ele>169</ele>
        <time>2018-09-11T08:34:43Z</time>
      </trkpt>
      <trkpt lat="45.93014" lon="4.76416">
        <ele>169</ele>
        <time>2018-09-11T08:34:44Z</time>
      </trkpt>
      <trkpt lat="45.93019" lon="4.76421">
        <ele>169</ele>
        <time>2018-09-11T08:34:45Z</time>
      </trkpt>
      <trkpt lat="45.93023" lon="4.76428">
        <ele>169</ele>
        <time>2018-09-11T08:34:46Z</time>
      </trkpt>
      <trkpt lat="45.93026" lon="4.76431">
        <ele>169</ele>
        <time>2018-09-11T08:34:47Z</time>
      </trkpt>
      <trkpt lat="45.93032" lon="4.76439">
        <ele>169</ele>
        <time>2018-09-11T08:34:48Z</time>
      </trkpt>
      <trkpt lat="45.93037" lon="4.76443">
        <ele>169</ele>
        <time>2018-09-11T08:34:49Z</time>
      </trkpt>
      <trkpt lat="45.93041" lon="4.76448">
        <ele>169</ele>
        <time>2018-09-11T08:34:50Z</time>
      </trkpt>
      <trkpt lat="45.93046" lon="4.76452">
        <ele>169</ele>
        <time>2018-09-11T08:34:51Z</time>
      </trkpt>
      <trkpt lat="45.93051" lon="4.76457">
        <ele>169</ele>
        <time>2018-09-11T08:34:52Z</time>
      </trkpt>
      <trkpt lat="45.93055" lon="4.76458">
        <ele>169</ele>
        <time>2018-09-11T08:34:53Z</time>
      </trkpt>
      <trkpt lat="45.9306" lon="4.76464">
        <ele>169</ele>
        <time>2018-09-11T08:34:54Z</time>
      </trkpt>
      <trkpt lat="45.93065" lon="4.76467">
        <ele>169</ele>
        <time>2018-09-11T08:34:55Z</time>
      </trkpt>
      <trkpt lat="45.93069" lon="4.76474">
        <ele>169</ele>
        <time>2018-09-11T08:34:56Z</time>
      </trkpt>
      <trkpt lat="45.93072" lon="4.76479">
        <ele>169</ele>
        <time>2018-09-11T08:34:57Z</time>
      </trkpt>
      <trkpt lat="45.93076" lon="4.76482">
        <ele>169</ele>
        <time>2018-09-11T08:34:58Z</time>
      </trkpt>
      <trkpt lat="45.93081" lon="4.76488">
        <ele>170</ele>
        <time>2018-09-11T08:34:59Z</time>
      </trkpt>
      <trkpt lat="45.93086" lon="4.76492">
        <ele>170</ele>
        <time>2018-09-11T08:35:00Z</time>
      </trkpt>
      <trkpt lat="45.93088" lon="4.76495">
        <ele>170</ele>
        <time>2018-09-11T08:35:01Z</time>
      </trkpt>
      <trkpt lat="45.93092" lon="4.765">
        <ele>170</ele>
        <time>2018-09-11T08:35:02Z</time>
      </trkpt>
      <trkpt lat="45.93097" lon="4.76504">
        <ele>170</ele>
        <time>2018-09-11T08:35:03Z</time>
      </trkpt>
      <trkpt lat="45.93101" lon="4.76506">
        <ele>170</ele>
        <time>2018-09-11T08:35:04Z</time>
      </trkpt>
      <trkpt lat="45.93105" lon="4.76513">
        <ele>170</ele>
        <time>2018-09-11T08:35:05Z</time>
      </trkpt>
      <trkpt lat="45.93109" lon="4.76515">
        <ele>170</ele>
        <time>2018-09-11T08:35:06Z</time>
      </trkpt>
      <trkpt lat="45.93113" lon="4.76518">
        <ele>170</ele>
        <time>2018-09-11T08:35:07Z</time>
      </trkpt>
      <trkpt lat="45.93119" lon="4.76522">
        <ele>170</ele>
        <time>2018-09-11T08:35:08Z</time>
      </trkpt>
      <trkpt lat="45.93123" lon="4.76523">
        <ele>170</ele>
        <time>2018-09-11T08:35:09Z</time>
      </trkpt>
      <trkpt lat="45.93127" lon="4.76528">
        <ele>170</ele>
        <time>2018-09-11T08:35:10Z</time>
      </trkpt>
      <trkpt lat="45.9313" lon="4.76534">
        <ele>170</ele>
        <time>2018-09-11T08:35:11Z</time>
      </trkpt>
      <trkpt lat="45.93131" lon="4.76536">
        <ele>170</ele>
        <time>2018-09-11T08:35:12Z</time>
      </trkpt>
      <trkpt lat="45.93137" lon="4.76543">
        <ele>170</ele>
        <time>2018-09-11T08:35:13Z</time>
      </trkpt>
      <trkpt lat="45.9314" lon="4.7655">
        <ele>170</ele>
        <time>2018-09-11T08:35:14Z</time>
      </trkpt>
      <trkpt lat="45.93143" lon="4.76556">
        <ele>170</ele>
        <time>2018-09-11T08:35:15Z</time>
      </trkpt>
      <trkpt lat="45.93152" lon="4.76562">
        <ele>170</ele>
        <time>2018-09-11T08:35:16Z</time>
      </trkpt>
      <trkpt lat="45.93159" lon="4.76569">
        <ele>170</ele>
        <time>2018-09-11T08:35:18Z</time>
      </trkpt>
      <trkpt lat="45.93165" lon="4.76576">
        <ele>171</ele>
        <time>2018-09-11T08:35:19Z</time>
      </trkpt>
      <trkpt lat="45.93171" lon="4.76583">
        <ele>171</ele>
        <time>2018-09-11T08:35:20Z</time>
      </trkpt>
      <trkpt lat="45.93176" lon="4.76587">
        <ele>171</ele>
        <time>2018-09-11T08:35:21Z</time>
      </trkpt>
      <trkpt lat="45.93181" lon="4.76593">
        <ele>171</ele>
        <time>2018-09-11T08:35:22Z</time>
      </trkpt>
      <trkpt lat="45.93184" lon="4.76595">
        <ele>171</ele>
        <time>2018-09-11T08:35:23Z</time>
      </trkpt>
      <trkpt lat="45.93187" lon="4.76599">
        <ele>171</ele>
        <time>2018-09-11T08:35:24Z</time>
      </trkpt>
      <trkpt lat="45.93191" lon="4.76603">
        <ele>170</ele>
        <time>2018-09-11T08:35:25Z</time>
      </trkpt>
      <trkpt lat="45.93194" lon="4.76606">
        <ele>170</ele>
        <time>2018-09-11T08:35:26Z</time>
      </trkpt>
      <trkpt lat="45.93198" lon="4.76611">
        <ele>170</ele>
        <time>2018-09-11T08:35:27Z</time>
      </trkpt>
      <trkpt lat="45.93202" lon="4.76615">
        <ele>170</ele>
        <time>2018-09-11T08:35:28Z</time>
      </trkpt>
      <trkpt lat="45.93206" lon="4.76618">
        <ele>170</ele>
        <time>2018-09-11T08:35:29Z</time>
      </trkpt>
      <trkpt lat="45.93209" lon="4.76621">
        <ele>170</ele>
        <time>2018-09-11T08:35:30Z</time>
      </trkpt>
      <trkpt lat="45.93214" lon="4.76626">
        <ele>170</ele>
        <time>2018-09-11T08:35:31Z</time>
      </trkpt>
      <trkpt lat="45.93218" lon="4.7663">
        <ele>170</ele>
        <time>2018-09-11T08:35:32Z</time>
      </trkpt>
      <trkpt lat="45.93221" lon="4.76634">
        <ele>171</ele>
        <time>2018-09-11T08:35:33Z</time>
      </trkpt>
      <trkpt lat="45.93226" lon="4.76638">
        <ele>171</ele>
        <time>2018-09-11T08:35:34Z</time>
      </trkpt>
      <trkpt lat="45.93229" lon="4.76642">
        <ele>171</ele>
        <time>2018-09-11T08:35:35Z</time>
      </trkpt>
      <trkpt lat="45.93234" lon="4.76646">
        <ele>171</ele>
        <time>2018-09-11T08:35:36Z</time>
      </trkpt>
      <trkpt lat="45.93237" lon="4.76649">
        <ele>171</ele>
        <time>2018-09-11T08:35:37Z</time>
      </trkpt>
      <trkpt lat="45.93244" lon="4.76656">
        <ele>171</ele>
        <time>2018-09-11T08:35:39Z</time>
      </trkpt>
      <trkpt lat="45.93248" lon="4.76659">
        <ele>172</ele>
        <time>2018-09-11T08:35:40Z</time>
      </trkpt>
      <trkpt lat="45.93253" lon="4.76663">
        <ele>172</ele>
        <time>2018-09-11T08:35:41Z</time>
      </trkpt>
      <trkpt lat="45.93257" lon="4.76667">
        <ele>172</ele>
        <time>2018-09-11T08:35:42Z</time>
      </trkpt>
      <trkpt lat="45.93262" lon="4.76673">
        <ele>172</ele>
        <time>2018-09-11T08:35:43Z</time>
      </trkpt>
      <trkpt lat="45.93266" lon="4.76677">
        <ele>172</ele>
        <time>2018-09-11T08:35:44Z</time>
      </trkpt>
      <trkpt lat="45.93272" lon="4.76681">
        <ele>172</ele>
        <time>2018-09-11T08:35:45Z</time>
      </trkpt>
      <trkpt lat="45.93276" lon="4.76687">
        <ele>172</ele>
        <time>2018-09-11T08:35:46Z</time>
      </trkpt>
      <trkpt lat="45.93281" lon="4.76692">
        <ele>172</ele>
        <time>2018-09-11T08:35:47Z</time>
      </trkpt>
      <trkpt lat="45.93286" lon="4.76696">
        <ele>172</ele>
        <time>2018-09-11T08:35:48Z</time>
      </trkpt>
      <trkpt lat="45.9329" lon="4.76701">
        <ele>172</ele>
        <time>2018-09-11T08:35:49Z</time>
      </trkpt>
      <trkpt lat="45.93293" lon="4.76705">
        <ele>172</ele>
        <time>2018-09-11T08:35:50Z</time>
      </trkpt>
      <trkpt lat="45.93299" lon="4.7671">
        <ele>172</ele>
        <time>2018-09-11T08:35:51Z</time>
      </trkpt>
      <trkpt lat="45.93303" lon="4.76716">
        <ele>172</ele>
        <time>2018-09-11T08:35:52Z</time>
      </trkpt>
      <trkpt lat="45.93309" lon="4.76723">
        <ele>172</ele>
        <time>2018-09-11T08:35:54Z</time>
      </trkpt>
      <trkpt lat="45.93314" lon="4.76726">
        <ele>172</ele>
        <time>2018-09-11T08:35:55Z</time>
      </trkpt>
      <trkpt lat="45.93319" lon="4.76731">
        <ele>172</ele>
        <time>2018-09-11T08:35:56Z</time>
      </trkpt>
      <trkpt lat="45.93324" lon="4.76736">
        <ele>172</ele>
        <time>2018-09-11T08:35:57Z</time>
      </trkpt>
      <trkpt lat="45.9333" lon="4.76741">
        <ele>173</ele>
        <time>2018-09-11T08:35:58Z</time>
      </trkpt>
      <trkpt lat="45.93335" lon="4.76744">
        <ele>173</ele>
        <time>2018-09-11T08:35:59Z</time>
      </trkpt>
      <trkpt lat="45.9334" lon="4.76747">
        <ele>173</ele>
        <time>2018-09-11T08:36:00Z</time>
      </trkpt>
      <trkpt lat="45.93345" lon="4.76752">
        <ele>172</ele>
        <time>2018-09-11T08:36:01Z</time>
      </trkpt>
      <trkpt lat="45.9335" lon="4.76758">
        <ele>172</ele>
        <time>2018-09-11T08:36:02Z</time>
      </trkpt>
      <trkpt lat="45.93354" lon="4.76762">
        <ele>172</ele>
        <time>2018-09-11T08:36:03Z</time>
      </trkpt>
      <trkpt lat="45.93359" lon="4.76766">
        <ele>172</ele>
        <time>2018-09-11T08:36:04Z</time>
      </trkpt>
      <trkpt lat="45.93364" lon="4.76771">
        <ele>172</ele>
        <time>2018-09-11T08:36:05Z</time>
      </trkpt>
      <trkpt lat="45.93369" lon="4.76776">
        <ele>172</ele>
        <time>2018-09-11T08:36:06Z</time>
      </trkpt>
      <trkpt lat="45.93375" lon="4.76783">
        <ele>172</ele>
        <time>2018-09-11T08:36:07Z</time>
      </trkpt>
      <trkpt lat="45.93379" lon="4.76788">
        <ele>172</ele>
        <time>2018-09-11T08:36:08Z</time>
      </trkpt>
      <trkpt lat="45.93384" lon="4.76793">
        <ele>172</ele>
        <time>2018-09-11T08:36:09Z</time>
      </trkpt>
      <trkpt lat="45.93389" lon="4.76798">
        <ele>172</ele>
        <time>2018-09-11T08:36:10Z</time>
      </trkpt>
      <trkpt lat="45.93394" lon="4.76803">
        <ele>172</ele>
        <time>2018-09-11T08:36:11Z</time>
      </trkpt>
      <trkpt lat="45.93398" lon="4.76808">
        <ele>172</ele>
        <time>2018-09-11T08:36:12Z</time>
      </trkpt>
      <trkpt lat="45.93401" lon="4.76813">
        <ele>172</ele>
        <time>2018-09-11T08:36:13Z</time>
      </trkpt>
      <trkpt lat="45.93405" lon="4.76818">
        <ele>172</ele>
        <time>2018-09-11T08:36:14Z</time>
      </trkpt>
      <trkpt lat="45.93409" lon="4.76823">
        <ele>172</ele>
        <time>2018-09-11T08:36:15Z</time>
      </trkpt>
      <trkpt lat="45.93412" lon="4.76828">
        <ele>172</ele>
        <time>2018-09-11T08:36:16Z</time>
      </trkpt>
      <trkpt lat="45.93415" lon="4.76835">
        <ele>172</ele>
        <time>2018-09-11T08:36:17Z</time>
      </trkpt>
      <trkpt lat="45.93418" lon="4.76841">
        <ele>172</ele>
        <time>2018-09-11T08:36:18Z</time>
      </trkpt>
      <trkpt lat="45.93421" lon="4.76847">
        <ele>171</ele>
        <time>2018-09-11T08:36:19Z</time>
      </trkpt>
      <trkpt lat="45.93425" lon="4.76853">
        <ele>171</ele>
        <time>2018-09-11T08:36:20Z</time>
      </trkpt>
      <trkpt lat="45.93428" lon="4.7686">
        <ele>171</ele>
        <time>2018-09-11T08:36:21Z</time>
      </trkpt>
      <trkpt lat="45.93431" lon="4.76867">
        <ele>171</ele>
        <time>2018-09-11T08:36:22Z</time>
      </trkpt>
      <trkpt lat="45.93434" lon="4.76875">
        <ele>171</ele>
        <time>2018-09-11T08:36:23Z</time>
      </trkpt>
      <trkpt lat="45.93437" lon="4.76882">
        <ele>171</ele>
        <time>2018-09-11T08:36:24Z</time>
      </trkpt>
      <trkpt lat="45.93439" lon="4.7689">
        <ele>170</ele>
        <time>2018-09-11T08:36:25Z</time>
      </trkpt>
      <trkpt lat="45.93441" lon="4.76898">
        <ele>170</ele>
        <time>2018-09-11T08:36:26Z</time>
      </trkpt>
      <trkpt lat="45.93443" lon="4.76906">
        <ele>170</ele>
        <time>2018-09-11T08:36:27Z</time>
      </trkpt>
      <trkpt lat="45.93444" lon="4.76914">
        <ele>170</ele>
        <time>2018-09-11T08:36:28Z</time>
      </trkpt>
      <trkpt lat="45.93446" lon="4.76922">
        <ele>170</ele>
        <time>2018-09-11T08:36:29Z</time>
      </trkpt>
      <trkpt lat="45.9345" lon="4.76928">
        <ele>170</ele>
        <time>2018-09-11T08:36:30Z</time>
      </trkpt>
      <trkpt lat="45.93451" lon="4.76936">
        <ele>170</ele>
        <time>2018-09-11T08:36:31Z</time>
      </trkpt>
      <trkpt lat="45.93452" lon="4.76945">
        <ele>170</ele>
        <time>2018-09-11T08:36:32Z</time>
      </trkpt>
      <trkpt lat="45.93452" lon="4.76951">
        <ele>170</ele>
        <time>2018-09-11T08:36:33Z</time>
      </trkpt>
      <trkpt lat="45.93454" lon="4.76958">
        <ele>170</ele>
        <time>2018-09-11T08:36:34Z</time>
      </trkpt>
      <trkpt lat="45.93453" lon="4.76965">
        <ele>170</ele>
        <time>2018-09-11T08:36:35Z</time>
      </trkpt>
      <trkpt lat="45.93455" lon="4.76973">
        <ele>170</ele>
        <time>2018-09-11T08:36:36Z</time>
      </trkpt>
      <trkpt lat="45.93456" lon="4.76981">
        <ele>170</ele>
        <time>2018-09-11T08:36:37Z</time>
      </trkpt>
      <trkpt lat="45.93458" lon="4.7699">
        <ele>170</ele>
        <time>2018-09-11T08:36:38Z</time>
      </trkpt>
      <trkpt lat="45.93459" lon="4.76998">
        <ele>170</ele>
        <time>2018-09-11T08:36:39Z</time>
      </trkpt>
      <trkpt lat="45.93462" lon="4.77008">
        <ele>170</ele>
        <time>2018-09-11T08:36:40Z</time>
      </trkpt>
      <trkpt lat="45.93463" lon="4.77016">
        <ele>170</ele>
        <time>2018-09-11T08:36:41Z</time>
      </trkpt>
      <trkpt lat="45.93463" lon="4.77024">
        <ele>170</ele>
        <time>2018-09-11T08:36:42Z</time>
      </trkpt>
      <trkpt lat="45.93464" lon="4.77033">
        <ele>170</ele>
        <time>2018-09-11T08:36:43Z</time>
      </trkpt>
      <trkpt lat="45.93468" lon="4.77038">
        <ele>170</ele>
        <time>2018-09-11T08:36:44Z</time>
      </trkpt>
      <trkpt lat="45.93469" lon="4.77045">
        <ele>170</ele>
        <time>2018-09-11T08:36:45Z</time>
      </trkpt>
      <trkpt lat="45.93471" lon="4.77055">
        <ele>170</ele>
        <time>2018-09-11T08:36:46Z</time>
      </trkpt>
      <trkpt lat="45.93473" lon="4.77064">
        <ele>170</ele>
        <time>2018-09-11T08:36:47Z</time>
      </trkpt>
      <trkpt lat="45.93473" lon="4.77071">
        <ele>170</ele>
        <time>2018-09-11T08:36:48Z</time>
      </trkpt>
      <trkpt lat="45.93474" lon="4.77077">
        <ele>170</ele>
        <time>2018-09-11T08:36:49Z</time>
      </trkpt>
      <trkpt lat="45.93475" lon="4.77084">
        <ele>169</ele>
        <time>2018-09-11T08:36:50Z</time>
      </trkpt>
      <trkpt lat="45.93476" lon="4.77091">
        <ele>169</ele>
        <time>2018-09-11T08:36:51Z</time>
      </trkpt>
      <trkpt lat="45.93477" lon="4.77102">
        <ele>169</ele>
        <time>2018-09-11T08:36:53Z</time>
      </trkpt>
      <trkpt lat="45.93478" lon="4.77109">
        <ele>169</ele>
        <time>2018-09-11T08:36:54Z</time>
      </trkpt>
      <trkpt lat="45.93479" lon="4.77115">
        <ele>169</ele>
        <time>2018-09-11T08:36:55Z</time>
      </trkpt>
      <trkpt lat="45.93481" lon="4.77124">
        <ele>169</ele>
        <time>2018-09-11T08:36:56Z</time>
      </trkpt>
      <trkpt lat="45.93482" lon="4.77131">
        <ele>169</ele>
        <time>2018-09-11T08:36:57Z</time>
      </trkpt>
      <trkpt lat="45.93483" lon="4.77138">
        <ele>169</ele>
        <time>2018-09-11T08:36:58Z</time>
      </trkpt>
      <trkpt lat="45.93484" lon="4.77145">
        <ele>169</ele>
        <time>2018-09-11T08:36:59Z</time>
      </trkpt>
      <trkpt lat="45.93485" lon="4.77152">
        <ele>169</ele>
        <time>2018-09-11T08:37:00Z</time>
      </trkpt>
      <trkpt lat="45.93486" lon="4.7716">
        <ele>169</ele>
        <time>2018-09-11T08:37:01Z</time>
      </trkpt>
      <trkpt lat="45.93488" lon="4.77168">
        <ele>169</ele>
        <time>2018-09-11T08:37:02Z</time>
      </trkpt>
      <trkpt lat="45.93489" lon="4.77175">
        <ele>169</ele>
        <time>2018-09-11T08:37:03Z</time>
      </trkpt>
      <trkpt lat="45.93489" lon="4.77182">
        <ele>169</ele>
        <time>2018-09-11T08:37:04Z</time>
      </trkpt>
      <trkpt lat="45.9349" lon="4.77189">
        <ele>169</ele>
        <time>2018-09-11T08:37:05Z</time>
      </trkpt>
      <trkpt lat="45.93492" lon="4.77196">
        <ele>169</ele>
        <time>2018-09-11T08:37:06Z</time>
      </trkpt>
      <trkpt lat="45.93494" lon="4.77202">
        <ele>169</ele>
        <time>2018-09-11T08:37:07Z</time>
      </trkpt>
      <trkpt lat="45.93496" lon="4.77212">
        <ele>169</ele>
        <time>2018-09-11T08:37:08Z</time>
      </trkpt>
      <trkpt lat="45.93497" lon="4.7722">
        <ele>169</ele>
        <time>2018-09-11T08:37:09Z</time>
      </trkpt>
      <trkpt lat="45.935" lon="4.77227">
        <ele>169</ele>
        <time>2018-09-11T08:37:10Z</time>
      </trkpt>
      <trkpt lat="45.93502" lon="4.77237">
        <ele>169</ele>
        <time>2018-09-11T08:37:11Z</time>
      </trkpt>
      <trkpt lat="45.93504" lon="4.77243">
        <ele>170</ele>
        <time>2018-09-11T08:37:12Z</time>
      </trkpt>
      <trkpt lat="45.93506" lon="4.7725">
        <ele>170</ele>
        <time>2018-09-11T08:37:13Z</time>
      </trkpt>
      <trkpt lat="45.93508" lon="4.77257">
        <ele>170</ele>
        <time>2018-09-11T08:37:14Z</time>
      </trkpt>
      <trkpt lat="45.93511" lon="4.77267">
        <ele>170</ele>
        <time>2018-09-11T08:37:15Z</time>
      </trkpt>
      <trkpt lat="45.93512" lon="4.77274">
        <ele>170</ele>
        <time>2018-09-11T08:37:16Z</time>
      </trkpt>
      <trkpt lat="45.93516" lon="4.77286">
        <ele>170</ele>
        <time>2018-09-11T08:37:18Z</time>
      </trkpt>
      <trkpt lat="45.93517" lon="4.77292">
        <ele>170</ele>
        <time>2018-09-11T08:37:19Z</time>
      </trkpt>
      <trkpt lat="45.9352" lon="4.77301">
        <ele>170</ele>
        <time>2018-09-11T08:37:20Z</time>
      </trkpt>
      <trkpt lat="45.93522" lon="4.77308">
        <ele>170</ele>
        <time>2018-09-11T08:37:21Z</time>
      </trkpt>
      <trkpt lat="45.93525" lon="4.77313">
        <ele>170</ele>
        <time>2018-09-11T08:37:22Z</time>
      </trkpt>
      <trkpt lat="45.93526" lon="4.7732">
        <ele>170</ele>
        <time>2018-09-11T08:37:23Z</time>
      </trkpt>
      <trkpt lat="45.93527" lon="4.77328">
        <ele>170</ele>
        <time>2018-09-11T08:37:24Z</time>
      </trkpt>
      <trkpt lat="45.93528" lon="4.77335">
        <ele>170</ele>
        <time>2018-09-11T08:37:25Z</time>
      </trkpt>
      <trkpt lat="45.93529" lon="4.7734">
        <ele>170</ele>
        <time>2018-09-11T08:37:26Z</time>
      </trkpt>
      <trkpt lat="45.93531" lon="4.77347">
        <ele>170</ele>
        <time>2018-09-11T08:37:27Z</time>
      </trkpt>
      <trkpt lat="45.93532" lon="4.77355">
        <ele>170</ele>
        <time>2018-09-11T08:37:28Z</time>
      </trkpt>
      <trkpt lat="45.93533" lon="4.77362">
        <ele>170</ele>
        <time>2018-09-11T08:37:29Z</time>
      </trkpt>
      <trkpt lat="45.93536" lon="4.77373">
        <ele>170</ele>
        <time>2018-09-11T08:37:31Z</time>
      </trkpt>
      <trkpt lat="45.93538" lon="4.7738">
        <ele>170</ele>
        <time>2018-09-11T08:37:32Z</time>
      </trkpt>
      <trkpt lat="45.93539" lon="4.77388">
        <ele>170</ele>
        <time>2018-09-11T08:37:33Z</time>
      </trkpt>
      <trkpt lat="45.9354" lon="4.77395">
        <ele>170</ele>
        <time>2018-09-11T08:37:34Z</time>
      </trkpt>
      <trkpt lat="45.93542" lon="4.77401">
        <ele>170</ele>
        <time>2018-09-11T08:37:35Z</time>
      </trkpt>
      <trkpt lat="45.93544" lon="4.7741">
        <ele>170</ele>
        <time>2018-09-11T08:37:36Z</time>
      </trkpt>
      <trkpt lat="45.93545" lon="4.77418">
        <ele>170</ele>
        <time>2018-09-11T08:37:37Z</time>
      </trkpt>
      <trkpt lat="45.93547" lon="4.77426">
        <ele>170</ele>
        <time>2018-09-11T08:37:38Z</time>
      </trkpt>
      <trkpt lat="45.93549" lon="4.77433">
        <ele>169</ele>
        <time>2018-09-11T08:37:39Z</time>
      </trkpt>
      <trkpt lat="45.93551" lon="4.77439">
        <ele>169</ele>
        <time>2018-09-11T08:37:40Z</time>
      </trkpt>
      <trkpt lat="45.93555" lon="4.77448">
        <ele>169</ele>
        <time>2018-09-11T08:37:42Z</time>
      </trkpt>
      <trkpt lat="45.93556" lon="4.77454">
        <ele>169</ele>
        <time>2018-09-11T08:37:43Z</time>
      </trkpt>
      <trkpt lat="45.93557" lon="4.77466">
        <ele>169</ele>
        <time>2018-09-11T08:37:45Z</time>
      </trkpt>
      <trkpt lat="45.93559" lon="4.77474">
        <ele>169</ele>
        <time>2018-09-11T08:37:46Z</time>
      </trkpt>
      <trkpt lat="45.93561" lon="4.77482">
        <ele>169</ele>
        <time>2018-09-11T08:37:47Z</time>
      </trkpt>
      <trkpt lat="45.93562" lon="4.7749">
        <ele>169</ele>
        <time>2018-09-11T08:37:48Z</time>
      </trkpt>
      <trkpt lat="45.93564" lon="4.77498">
        <ele>169</ele>
        <time>2018-09-11T08:37:49Z</time>
      </trkpt>
      <trkpt lat="45.93567" lon="4.77506">
        <ele>169</ele>
        <time>2018-09-11T08:37:50Z</time>
      </trkpt>
      <trkpt lat="45.93568" lon="4.77514">
        <ele>169</ele>
        <time>2018-09-11T08:37:51Z</time>
      </trkpt>
      <trkpt lat="45.93569" lon="4.7752">
        <ele>169</ele>
        <time>2018-09-11T08:37:52Z</time>
      </trkpt>
      <trkpt lat="45.93572" lon="4.77528">
        <ele>169</ele>
        <time>2018-09-11T08:37:53Z</time>
      </trkpt>
      <trkpt lat="45.93574" lon="4.77536">
        <ele>169</ele>
        <time>2018-09-11T08:37:54Z</time>
      </trkpt>
      <trkpt lat="45.93574" lon="4.77544">
        <ele>169</ele>
        <time>2018-09-11T08:37:55Z</time>
      </trkpt>
      <trkpt lat="45.93576" lon="4.77551">
        <ele>169</ele>
        <time>2018-09-11T08:37:56Z</time>
      </trkpt>
      <trkpt lat="45.93577" lon="4.77558">
        <ele>169</ele>
        <time>2018-09-11T08:37:57Z</time>
      </trkpt>
      <trkpt lat="45.93579" lon="4.77564">
        <ele>169</ele>
        <time>2018-09-11T08:37:58Z</time>
      </trkpt>
      <trkpt lat="45.93581" lon="4.77571">
        <ele>170</ele>
        <time>2018-09-11T08:37:59Z</time>
      </trkpt>
      <trkpt lat="45.93581" lon="4.77578">
        <ele>170</ele>
        <time>2018-09-11T08:38:00Z</time>
      </trkpt>
      <trkpt lat="45.93583" lon="4.77585">
        <ele>170</ele>
        <time>2018-09-11T08:38:01Z</time>
      </trkpt>
      <trkpt lat="45.93585" lon="4.77592">
        <ele>170</ele>
        <time>2018-09-11T08:38:02Z</time>
      </trkpt>
      <trkpt lat="45.93588" lon="4.776">
        <ele>170</ele>
        <time>2018-09-11T08:38:03Z</time>
      </trkpt>
      <trkpt lat="45.93591" lon="4.77607">
        <ele>170</ele>
        <time>2018-09-11T08:38:04Z</time>
      </trkpt>
      <trkpt lat="45.93593" lon="4.77615">
        <ele>170</ele>
        <time>2018-09-11T08:38:05Z</time>
      </trkpt>
      <trkpt lat="45.93596" lon="4.77622">
        <ele>170</ele>
        <time>2018-09-11T08:38:06Z</time>
      </trkpt>
      <trkpt lat="45.93599" lon="4.7763">
        <ele>169</ele>
        <time>2018-09-11T08:38:07Z</time>
      </trkpt>
      <trkpt lat="45.93601" lon="4.77636">
        <ele>169</ele>
        <time>2018-09-11T08:38:08Z</time>
      </trkpt>
      <trkpt lat="45.93604" lon="4.77642">
        <ele>169</ele>
        <time>2018-09-11T08:38:09Z</time>
      </trkpt>
      <trkpt lat="45.93607" lon="4.77648">
        <ele>169</ele>
        <time>2018-09-11T08:38:10Z</time>
      </trkpt>
      <trkpt lat="45.93609" lon="4.77654">
        <ele>169</ele>
        <time>2018-09-11T08:38:11Z</time>
      </trkpt>
      <trkpt lat="45.93612" lon="4.77661">
        <ele>169</ele>
        <time>2018-09-11T08:38:12Z</time>
      </trkpt>
      <trkpt lat="45.93615" lon="4.77667">
        <ele>169</ele>
        <time>2018-09-11T08:38:13Z</time>
      </trkpt>
      <trkpt lat="45.93618" lon="4.77673">
        <ele>169</ele>
        <time>2018-09-11T08:38:14Z</time>
      </trkpt>
      <trkpt lat="45.9362" lon="4.77679">
        <ele>169</ele>
        <time>2018-09-11T08:38:15Z</time>
      </trkpt>
      <trkpt lat="45.93623" lon="4.77685">
        <ele>169</ele>
        <time>2018-09-11T08:38:16Z</time>
      </trkpt>
      <trkpt lat="45.93625" lon="4.77691">
        <ele>169</ele>
        <time>2018-09-11T08:38:17Z</time>
      </trkpt>
      <trkpt lat="45.93628" lon="4.77697">
        <ele>169</ele>
        <time>2018-09-11T08:38:18Z</time>
      </trkpt>
      <trkpt lat="45.9363" lon="4.77703">
        <ele>169</ele>
        <time>2018-09-11T08:38:19Z</time>
      </trkpt>
      <trkpt lat="45.93635" lon="4.77709">
        <ele>170</ele>
        <time>2018-09-11T08:38:20Z</time>
      </trkpt>
      <trkpt lat="45.9364" lon="4.77718">
        <ele>170</ele>
        <time>2018-09-11T08:38:22Z</time>
      </trkpt>
      <trkpt lat="45.93642" lon="4.77722">
        <ele>170</ele>
        <time>2018-09-11T08:38:23Z</time>
      </trkpt>
      <trkpt lat="45.93646" lon="4.77732">
        <ele>170</ele>
        <time>2018-09-11T08:38:26Z</time>
      </trkpt>
      <trkpt lat="45.93648" lon="4.77735">
        <ele>170</ele>
        <time>2018-09-11T08:38:27Z</time>
      </trkpt>
      <trkpt lat="45.93653" lon="4.7774">
        <ele>170</ele>
        <time>2018-09-11T08:38:29Z</time>
      </trkpt>
      <trkpt lat="45.93655" lon="4.77744">
        <ele>170</ele>
        <time>2018-09-11T08:38:30Z</time>
      </trkpt>
      <trkpt lat="45.93663" lon="4.77753">
        <ele>171</ele>
        <time>2018-09-11T08:38:31Z</time>
      </trkpt>
      <trkpt lat="45.93669" lon="4.77761">
        <ele>170</ele>
        <time>2018-09-11T08:38:33Z</time>
      </trkpt>
      <trkpt lat="45.93672" lon="4.77765">
        <ele>170</ele>
        <time>2018-09-11T08:38:34Z</time>
      </trkpt>
      <trkpt lat="45.93678" lon="4.77774">
        <ele>170</ele>
        <time>2018-09-11T08:38:36Z</time>
      </trkpt>
      <trkpt lat="45.93681" lon="4.77778">
        <ele>170</ele>
        <time>2018-09-11T08:38:37Z</time>
      </trkpt>
      <trkpt lat="45.93687" lon="4.77787">
        <ele>170</ele>
        <time>2018-09-11T08:38:39Z</time>
      </trkpt>
      <trkpt lat="45.9369" lon="4.77791">
        <ele>170</ele>
        <time>2018-09-11T08:38:40Z</time>
      </trkpt>
      <trkpt lat="45.93696" lon="4.77798">
        <ele>169</ele>
        <time>2018-09-11T08:38:42Z</time>
      </trkpt>
      <trkpt lat="45.93699" lon="4.77802">
        <ele>169</ele>
        <time>2018-09-11T08:38:43Z</time>
      </trkpt>
      <trkpt lat="45.93702" lon="4.77806">
        <ele>169</ele>
        <time>2018-09-11T08:38:44Z</time>
      </trkpt>
      <trkpt lat="45.93705" lon="4.77811">
        <ele>169</ele>
        <time>2018-09-11T08:38:45Z</time>
      </trkpt>
      <trkpt lat="45.93712" lon="4.77819">
        <ele>169</ele>
        <time>2018-09-11T08:38:47Z</time>
      </trkpt>
      <trkpt lat="45.93715" lon="4.77823">
        <ele>169</ele>
        <time>2018-09-11T08:38:48Z</time>
      </trkpt>
      <trkpt lat="45.93718" lon="4.7783">
        <ele>168</ele>
        <time>2018-09-11T08:38:49Z</time>
      </trkpt>
      <trkpt lat="45.93722" lon="4.77834">
        <ele>167</ele>
        <time>2018-09-11T08:38:50Z</time>
      </trkpt>
      <trkpt lat="45.93727" lon="4.77842">
        <ele>167</ele>
        <time>2018-09-11T08:38:52Z</time>
      </trkpt>
      <trkpt lat="45.9373" lon="4.77846">
        <ele>167</ele>
        <time>2018-09-11T08:38:53Z</time>
      </trkpt>
      <trkpt lat="45.93736" lon="4.77855">
        <ele>167</ele>
        <time>2018-09-11T08:38:55Z</time>
      </trkpt>
      <trkpt lat="45.93739" lon="4.77859">
        <ele>167</ele>
        <time>2018-09-11T08:38:56Z</time>
      </trkpt>
      <trkpt lat="45.93745" lon="4.77868">
        <ele>167</ele>
        <time>2018-09-11T08:38:58Z</time>
      </trkpt>
      <trkpt lat="45.93748" lon="4.77873">
        <ele>167</ele>
        <time>2018-09-11T08:38:59Z</time>
      </trkpt>
      <trkpt lat="45.93752" lon="4.77878">
        <ele>166</ele>
        <time>2018-09-11T08:39:00Z</time>
      </trkpt>
      <trkpt lat="45.93755" lon="4.77882">
        <ele>166</ele>
        <time>2018-09-11T08:39:01Z</time>
      </trkpt>
      <trkpt lat="45.93759" lon="4.77887">
        <ele>166</ele>
        <time>2018-09-11T08:39:02Z</time>
      </trkpt>
      <trkpt lat="45.93762" lon="4.77891">
        <ele>166</ele>
        <time>2018-09-11T08:39:03Z</time>
      </trkpt>
      <trkpt lat="45.93766" lon="4.77898">
        <ele>166</ele>
        <time>2018-09-11T08:39:05Z</time>
      </trkpt>
      <trkpt lat="45.93768" lon="4.77902">
        <ele>166</ele>
        <time>2018-09-11T08:39:06Z</time>
      </trkpt>
      <trkpt lat="45.93772" lon="4.77906">
        <ele>166</ele>
        <time>2018-09-11T08:39:07Z</time>
      </trkpt>
      <trkpt lat="45.93775" lon="4.77911">
        <ele>166</ele>
        <time>2018-09-11T08:39:08Z</time>
      </trkpt>
      <trkpt lat="45.93779" lon="4.77916">
        <ele>166</ele>
        <time>2018-09-11T08:39:09Z</time>
      </trkpt>
      <trkpt lat="45.93782" lon="4.77921">
        <ele>168</ele>
        <time>2018-09-11T08:39:10Z</time>
      </trkpt>
      <trkpt lat="45.93786" lon="4.77925">
        <ele>168</ele>
        <time>2018-09-11T08:39:11Z</time>
      </trkpt>
      <trkpt lat="45.9379" lon="4.7793">
        <ele>168</ele>
        <time>2018-09-11T08:39:12Z</time>
      </trkpt>
      <trkpt lat="45.93793" lon="4.77933">
        <ele>168</ele>
        <time>2018-09-11T08:39:13Z</time>
      </trkpt>
      <trkpt lat="45.93797" lon="4.77937">
        <ele>169</ele>
        <time>2018-09-11T08:39:14Z</time>
      </trkpt>
      <trkpt lat="45.93804" lon="4.77944">
        <ele>169</ele>
        <time>2018-09-11T08:39:16Z</time>
      </trkpt>
      <trkpt lat="45.93808" lon="4.77949">
        <ele>169</ele>
        <time>2018-09-11T08:39:17Z</time>
      </trkpt>
      <trkpt lat="45.93812" lon="4.77955">
        <ele>170</ele>
        <time>2018-09-11T08:39:18Z</time>
      </trkpt>
      <trkpt lat="45.93817" lon="4.77962">
        <ele>170</ele>
        <time>2018-09-11T08:39:19Z</time>
      </trkpt>
      <trkpt lat="45.93824" lon="4.77967">
        <ele>171</ele>
        <time>2018-09-11T08:39:20Z</time>
      </trkpt>
      <trkpt lat="45.93828" lon="4.77973">
        <ele>172</ele>
        <time>2018-09-11T08:39:21Z</time>
      </trkpt>
      <trkpt lat="45.93832" lon="4.77979">
        <ele>173</ele>
        <time>2018-09-11T08:39:22Z</time>
      </trkpt>
      <trkpt lat="45.93837" lon="4.77985">
        <ele>178</ele>
        <time>2018-09-11T08:39:23Z</time>
      </trkpt>
      <trkpt lat="45.93841" lon="4.77992">
        <ele>179</ele>
        <time>2018-09-11T08:39:24Z</time>
      </trkpt>
      <trkpt lat="45.93843" lon="4.77999">
        <ele>179</ele>
        <time>2018-09-11T08:39:25Z</time>
      </trkpt>
      <trkpt lat="45.93845" lon="4.78007">
        <ele>181</ele>
        <time>2018-09-11T08:39:26Z</time>
      </trkpt>
      <trkpt lat="45.93846" lon="4.78017">
        <ele>182</ele>
        <time>2018-09-11T08:39:27Z</time>
      </trkpt>
      <trkpt lat="45.93849" lon="4.78024">
        <ele>182</ele>
        <time>2018-09-11T08:39:28Z</time>
      </trkpt>
      <trkpt lat="45.93853" lon="4.78031">
        <ele>182</ele>
        <time>2018-09-11T08:39:29Z</time>
      </trkpt>
      <trkpt lat="45.93862" lon="4.78033">
        <ele>183</ele>
        <time>2018-09-11T08:39:31Z</time>
      </trkpt>
      <trkpt lat="45.93866" lon="4.78033">
        <ele>183</ele>
        <time>2018-09-11T08:39:32Z</time>
      </trkpt>
      <trkpt lat="45.93869" lon="4.7803">
        <ele>183</ele>
        <time>2018-09-11T08:39:33Z</time>
      </trkpt>
      <trkpt lat="45.93875" lon="4.78029">
        <ele>184</ele>
        <time>2018-09-11T08:39:34Z</time>
      </trkpt>
      <trkpt lat="45.93883" lon="4.78027">
        <ele>184</ele>
        <time>2018-09-11T08:39:37Z</time>
      </trkpt>
      <trkpt lat="45.93885" lon="4.78026">
        <ele>184</ele>
        <time>2018-09-11T08:39:38Z</time>
      </trkpt>
      <trkpt lat="45.9389" lon="4.78019">
        <ele>184</ele>
        <time>2018-09-11T08:39:41Z</time>
      </trkpt>
      <trkpt lat="45.93892" lon="4.78017">
        <ele>184</ele>
        <time>2018-09-11T08:39:42Z</time>
      </trkpt>
      <trkpt lat="45.93899" lon="4.78011">
        <ele>185</ele>
        <time>2018-09-11T08:39:45Z</time>
      </trkpt>
      <trkpt lat="45.93901" lon="4.78009">
        <ele>185</ele>
        <time>2018-09-11T08:39:46Z</time>
      </trkpt>
      <trkpt lat="45.93908" lon="4.78002">
        <ele>185</ele>
        <time>2018-09-11T08:39:50Z</time>
      </trkpt>
      <trkpt lat="45.93909" lon="4.78">
        <ele>184</ele>
        <time>2018-09-11T08:39:51Z</time>
      </trkpt>
      <trkpt lat="45.93916" lon="4.77992">
        <ele>184</ele>
        <time>2018-09-11T08:39:55Z</time>
      </trkpt>
      <trkpt lat="45.93918" lon="4.7799">
        <ele>187</ele>
        <time>2018-09-11T08:39:56Z</time>
      </trkpt>
      <trkpt lat="45.93924" lon="4.77984">
        <ele>188</ele>
        <time>2018-09-11T08:40:00Z</time>
      </trkpt>
      <trkpt lat="45.93926" lon="4.77983">
        <ele>188</ele>
        <time>2018-09-11T08:40:01Z</time>
      </trkpt>
      <trkpt lat="45.93932" lon="4.77977">
        <ele>189</ele>
        <time>2018-09-11T08:40:04Z</time>
      </trkpt>
      <trkpt lat="45.93934" lon="4.77976">
        <ele>189</ele>
        <time>2018-09-11T08:40:05Z</time>
      </trkpt>
      <trkpt lat="45.93941" lon="4.77971">
        <ele>189</ele>
        <time>2018-09-11T08:40:08Z</time>
      </trkpt>
      <trkpt lat="45.93943" lon="4.7797">
        <ele>189</ele>
        <time>2018-09-11T08:40:09Z</time>
      </trkpt>
      <trkpt lat="45.93949" lon="4.77965">
        <ele>190</ele>
        <time>2018-09-11T08:40:12Z</time>
      </trkpt>
      <trkpt lat="45.93951" lon="4.77964">
        <ele>190</ele>
        <time>2018-09-11T08:40:13Z</time>
      </trkpt>
      <trkpt lat="45.93957" lon="4.77959">
        <ele>190</ele>
        <time>2018-09-11T08:40:16Z</time>
      </trkpt>
      <trkpt lat="45.93959" lon="4.77958">
        <ele>190</ele>
        <time>2018-09-11T08:40:17Z</time>
      </trkpt>
      <trkpt lat="45.93966" lon="4.77951">
        <ele>190</ele>
        <time>2018-09-11T08:40:21Z</time>
      </trkpt>
      <trkpt lat="45.93968" lon="4.7795">
        <ele>190</ele>
        <time>2018-09-11T08:40:22Z</time>
      </trkpt>
      <trkpt lat="45.93976" lon="4.77945">
        <ele>191</ele>
        <time>2018-09-11T08:40:26Z</time>
      </trkpt>
      <trkpt lat="45.93978" lon="4.77944">
        <ele>191</ele>
        <time>2018-09-11T08:40:27Z</time>
      </trkpt>
      <trkpt lat="45.93985" lon="4.7794">
        <ele>191</ele>
        <time>2018-09-11T08:40:31Z</time>
      </trkpt>
      <trkpt lat="45.93987" lon="4.77939">
        <ele>192</ele>
        <time>2018-09-11T08:40:32Z</time>
      </trkpt>
      <trkpt lat="45.93996" lon="4.77935">
        <ele>192</ele>
        <time>2018-09-11T08:40:36Z</time>
      </trkpt>
      <trkpt lat="45.93997" lon="4.77934">
        <ele>192</ele>
        <time>2018-09-11T08:40:37Z</time>
      </trkpt>
      <trkpt lat="45.94005" lon="4.77932">
        <ele>197</ele>
        <time>2018-09-11T08:40:41Z</time>
      </trkpt>
      <trkpt lat="45.94007" lon="4.77931">
        <ele>197</ele>
        <time>2018-09-11T08:40:42Z</time>
      </trkpt>
      <trkpt lat="45.94014" lon="4.77937">
        <ele>199</ele>
        <time>2018-09-11T08:40:47Z</time>
      </trkpt>
      <trkpt lat="45.94015" lon="4.77939">
        <ele>199</ele>
        <time>2018-09-11T08:40:48Z</time>
      </trkpt>
      <trkpt lat="45.94019" lon="4.77948">
        <ele>200</ele>
        <time>2018-09-11T08:40:52Z</time>
      </trkpt>
      <trkpt lat="45.9402" lon="4.7795">
        <ele>200</ele>
        <time>2018-09-11T08:40:53Z</time>
      </trkpt>
      <trkpt lat="45.9402" lon="4.77963">
        <ele>200</ele>
        <time>2018-09-11T08:40:57Z</time>
      </trkpt>
      <trkpt lat="45.94019" lon="4.77966">
        <ele>200</ele>
        <time>2018-09-11T08:40:58Z</time>
      </trkpt>
      <trkpt lat="45.94017" lon="4.77977">
        <ele>200</ele>
        <time>2018-09-11T08:41:01Z</time>
      </trkpt>
      <trkpt lat="45.94017" lon="4.77981">
        <ele>199</ele>
        <time>2018-09-11T08:41:02Z</time>
      </trkpt>
      <trkpt lat="45.94015" lon="4.77992">
        <ele>199</ele>
        <time>2018-09-11T08:41:05Z</time>
      </trkpt>
      <trkpt lat="45.94014" lon="4.77996">
        <ele>199</ele>
        <time>2018-09-11T08:41:06Z</time>
      </trkpt>
      <trkpt lat="45.94013" lon="4.78004">
        <ele>199</ele>
        <time>2018-09-11T08:41:08Z</time>
      </trkpt>
      <trkpt lat="45.94012" lon="4.78009">
        <ele>199</ele>
        <time>2018-09-11T08:41:09Z</time>
      </trkpt>
      <trkpt lat="45.94011" lon="4.78017">
        <ele>200</ele>
        <time>2018-09-11T08:41:11Z</time>
      </trkpt>
      <trkpt lat="45.9401" lon="4.78022">
        <ele>200</ele>
        <time>2018-09-11T08:41:12Z</time>
      </trkpt>
      <trkpt lat="45.94009" lon="4.78031">
        <ele>201</ele>
        <time>2018-09-11T08:41:14Z</time>
      </trkpt>
      <trkpt lat="45.94008" lon="4.78035">
        <ele>201</ele>
        <time>2018-09-11T08:41:15Z</time>
      </trkpt>
      <trkpt lat="45.94006" lon="4.78043">
        <ele>201</ele>
        <time>2018-09-11T08:41:17Z</time>
      </trkpt>
      <trkpt lat="45.94005" lon="4.78047">
        <ele>201</ele>
        <time>2018-09-11T08:41:18Z</time>
      </trkpt>
      <trkpt lat="45.94003" lon="4.78057">
        <ele>201</ele>
        <time>2018-09-11T08:41:20Z</time>
      </trkpt>
      <trkpt lat="45.94002" lon="4.78072">
        <ele>200</ele>
        <time>2018-09-11T08:41:21Z</time>
      </trkpt>
      <trkpt lat="45.94001" lon="4.78082">
        <ele>199</ele>
        <time>2018-09-11T08:41:24Z</time>
      </trkpt>
      <trkpt lat="45.94" lon="4.78086">
        <ele>200</ele>
        <time>2018-09-11T08:41:25Z</time>
      </trkpt>
      <trkpt lat="45.93999" lon="4.78097">
        <ele>198</ele>
        <time>2018-09-11T08:41:28Z</time>
      </trkpt>
      <trkpt lat="45.93998" lon="4.78101">
        <ele>198</ele>
        <time>2018-09-11T08:41:29Z</time>
      </trkpt>
      <trkpt lat="45.93997" lon="4.78111">
        <ele>197</ele>
        <time>2018-09-11T08:41:31Z</time>
      </trkpt>
      <trkpt lat="45.93996" lon="4.78115">
        <ele>197</ele>
        <time>2018-09-11T08:41:32Z</time>
      </trkpt>
      <trkpt lat="45.93993" lon="4.78123">
        <ele>197</ele>
        <time>2018-09-11T08:41:34Z</time>
      </trkpt>
      <trkpt lat="45.93992" lon="4.78128">
        <ele>197</ele>
        <time>2018-09-11T08:41:35Z</time>
      </trkpt>
      <trkpt lat="45.9399" lon="4.78137">
        <ele>197</ele>
        <time>2018-09-11T08:41:37Z</time>
      </trkpt>
      <trkpt lat="45.93989" lon="4.78141">
        <ele>198</ele>
        <time>2018-09-11T08:41:38Z</time>
      </trkpt>
      <trkpt lat="45.93986" lon="4.78153">
        <ele>198</ele>
        <time>2018-09-11T08:41:41Z</time>
      </trkpt>
      <trkpt lat="45.93986" lon="4.78164">
        <ele>199</ele>
        <time>2018-09-11T08:41:42Z</time>
      </trkpt>
      <trkpt lat="45.93994" lon="4.7817">
        <ele>200</ele>
        <time>2018-09-11T08:41:46Z</time>
      </trkpt>
      <trkpt lat="45.93996" lon="4.78172">
        <ele>200</ele>
        <time>2018-09-11T08:41:47Z</time>
      </trkpt>
      <trkpt lat="45.94002" lon="4.78177">
        <ele>202</ele>
        <time>2018-09-11T08:41:50Z</time>
      </trkpt>
      <trkpt lat="45.94004" lon="4.78178">
        <ele>202</ele>
        <time>2018-09-11T08:41:51Z</time>
      </trkpt>
      <trkpt lat="45.94011" lon="4.78182">
        <ele>203</ele>
        <time>2018-09-11T08:41:54Z</time>
      </trkpt>
      <trkpt lat="45.94013" lon="4.78181">
        <ele>203</ele>
        <time>2018-09-11T08:41:55Z</time>
      </trkpt>
      <trkpt lat="45.94021" lon="4.78179">
        <ele>204</ele>
        <time>2018-09-11T08:41:59Z</time>
      </trkpt>
      <trkpt lat="45.94024" lon="4.7818">
        <ele>204</ele>
        <time>2018-09-11T08:42:00Z</time>
      </trkpt>
      <trkpt lat="45.94031" lon="4.78185">
        <ele>204</ele>
        <time>2018-09-11T08:42:03Z</time>
      </trkpt>
      <trkpt lat="45.94033" lon="4.78187">
        <ele>204</ele>
        <time>2018-09-11T08:42:04Z</time>
      </trkpt>
      <trkpt lat="45.9404" lon="4.78193">
        <ele>205</ele>
        <time>2018-09-11T08:42:07Z</time>
      </trkpt>
      <trkpt lat="45.94042" lon="4.78195">
        <ele>205</ele>
        <time>2018-09-11T08:42:08Z</time>
      </trkpt>
      <trkpt lat="45.9405" lon="4.78201">
        <ele>205</ele>
        <time>2018-09-11T08:42:11Z</time>
      </trkpt>
      <trkpt lat="45.94052" lon="4.78203">
        <ele>205</ele>
        <time>2018-09-11T08:42:12Z</time>
      </trkpt>
      <trkpt lat="45.94058" lon="4.78209">
        <ele>206</ele>
        <time>2018-09-11T08:42:15Z</time>
      </trkpt>
      <trkpt lat="45.9406" lon="4.78211">
        <ele>206</ele>
        <time>2018-09-11T08:42:16Z</time>
      </trkpt>
      <trkpt lat="45.94066" lon="4.78217">
        <ele>206</ele>
        <time>2018-09-11T08:42:19Z</time>
      </trkpt>
      <trkpt lat="45.94068" lon="4.78219">
        <ele>206</ele>
        <time>2018-09-11T08:42:20Z</time>
      </trkpt>
      <trkpt lat="45.94076" lon="4.78224">
        <ele>206</ele>
        <time>2018-09-11T08:42:24Z</time>
      </trkpt>
      <trkpt lat="45.94078" lon="4.78226">
        <ele>206</ele>
        <time>2018-09-11T08:42:25Z</time>
      </trkpt>
      <trkpt lat="45.94086" lon="4.7823">
        <ele>212</ele>
        <time>2018-09-11T08:42:29Z</time>
      </trkpt>
      <trkpt lat="45.94088" lon="4.78231">
        <ele>212</ele>
        <time>2018-09-11T08:42:30Z</time>
      </trkpt>
      <trkpt lat="45.94096" lon="4.78235">
        <ele>212</ele>
        <time>2018-09-11T08:42:33Z</time>
      </trkpt>
      <trkpt lat="45.94098" lon="4.78237">
        <ele>212</ele>
        <time>2018-09-11T08:42:34Z</time>
      </trkpt>
      <trkpt lat="45.94105" lon="4.78242">
        <ele>213</ele>
        <time>2018-09-11T08:42:37Z</time>
      </trkpt>
      <trkpt lat="45.94107" lon="4.78244">
        <ele>213</ele>
        <time>2018-09-11T08:42:38Z</time>
      </trkpt>
      <trkpt lat="45.94114" lon="4.78249">
        <ele>214</ele>
        <time>2018-09-11T08:42:41Z</time>
      </trkpt>
      <trkpt lat="45.94116" lon="4.78251">
        <ele>213</ele>
        <time>2018-09-11T08:42:42Z</time>
      </trkpt>
      <trkpt lat="45.94122" lon="4.78256">
        <ele>213</ele>
        <time>2018-09-11T08:42:45Z</time>
      </trkpt>
      <trkpt lat="45.94124" lon="4.78257">
        <ele>214</ele>
        <time>2018-09-11T08:42:46Z</time>
      </trkpt>
      <trkpt lat="45.94131" lon="4.78261">
        <ele>214</ele>
        <time>2018-09-11T08:42:49Z</time>
      </trkpt>
      <trkpt lat="45.94133" lon="4.78263">
        <ele>214</ele>
        <time>2018-09-11T08:42:50Z</time>
      </trkpt>
      <trkpt lat="45.9414" lon="4.78266">
        <ele>215</ele>
        <time>2018-09-11T08:42:53Z</time>
      </trkpt>
      <trkpt lat="45.94142" lon="4.78268">
        <ele>215</ele>
        <time>2018-09-11T08:42:54Z</time>
      </trkpt>
      <trkpt lat="45.94149" lon="4.78273">
        <ele>215</ele>
        <time>2018-09-11T08:42:57Z</time>
      </trkpt>
      <trkpt lat="45.94152" lon="4.78274">
        <ele>215</ele>
        <time>2018-09-11T08:42:58Z</time>
      </trkpt>
      <trkpt lat="45.9416" lon="4.78277">
        <ele>216</ele>
        <time>2018-09-11T08:43:03Z</time>
      </trkpt>
      <trkpt lat="45.94161" lon="4.78277">
        <ele>216</ele>
        <time>2018-09-11T08:43:04Z</time>
      </trkpt>
      <trkpt lat="45.9417" lon="4.78279">
        <ele>220</ele>
        <time>2018-09-11T08:43:07Z</time>
      </trkpt>
      <trkpt lat="45.94173" lon="4.7828">
        <ele>221</ele>
        <time>2018-09-11T08:43:08Z</time>
      </trkpt>
      <trkpt lat="45.94179" lon="4.78284">
        <ele>221</ele>
        <time>2018-09-11T08:43:10Z</time>
      </trkpt>
      <trkpt lat="45.94182" lon="4.78285">
        <ele>221</ele>
        <time>2018-09-11T08:43:11Z</time>
      </trkpt>
      <trkpt lat="45.9419" lon="4.78288">
        <ele>221</ele>
        <time>2018-09-11T08:43:14Z</time>
      </trkpt>
      <trkpt lat="45.94192" lon="4.78289">
        <ele>221</ele>
        <time>2018-09-11T08:43:15Z</time>
      </trkpt>
      <trkpt lat="45.94201" lon="4.78291">
        <ele>221</ele>
        <time>2018-09-11T08:43:18Z</time>
      </trkpt>
      <trkpt lat="45.94203" lon="4.78292">
        <ele>221</ele>
        <time>2018-09-11T08:43:19Z</time>
      </trkpt>
      <trkpt lat="45.94212" lon="4.78292">
        <ele>222</ele>
        <time>2018-09-11T08:43:22Z</time>
      </trkpt>
      <trkpt lat="45.94214" lon="4.78293">
        <ele>222</ele>
        <time>2018-09-11T08:43:23Z</time>
      </trkpt>
      <trkpt lat="45.94223" lon="4.78293">
        <ele>222</ele>
        <time>2018-09-11T08:43:26Z</time>
      </trkpt>
      <trkpt lat="45.94224" lon="4.78293">
        <ele>222</ele>
        <time>2018-09-11T08:43:27Z</time>
      </trkpt>
      <trkpt lat="45.94235" lon="4.78294">
        <ele>222</ele>
        <time>2018-09-11T08:43:28Z</time>
      </trkpt>
      <trkpt lat="45.94242" lon="4.78297">
        <ele>222</ele>
        <time>2018-09-11T08:43:32Z</time>
      </trkpt>
      <trkpt lat="45.94244" lon="4.78298">
        <ele>222</ele>
        <time>2018-09-11T08:43:33Z</time>
      </trkpt>
      <trkpt lat="45.94251" lon="4.78302">
        <ele>227</ele>
        <time>2018-09-11T08:43:36Z</time>
      </trkpt>
      <trkpt lat="45.94253" lon="4.78303">
        <ele>227</ele>
        <time>2018-09-11T08:43:37Z</time>
      </trkpt>
      <trkpt lat="45.9426" lon="4.78308">
        <ele>227</ele>
        <time>2018-09-11T08:43:40Z</time>
      </trkpt>
      <trkpt lat="45.94262" lon="4.7831">
        <ele>227</ele>
        <time>2018-09-11T08:43:41Z</time>
      </trkpt>
      <trkpt lat="45.94268" lon="4.78317">
        <ele>227</ele>
        <time>2018-09-11T08:43:44Z</time>
      </trkpt>
      <trkpt lat="45.9427" lon="4.78319">
        <ele>227</ele>
        <time>2018-09-11T08:43:45Z</time>
      </trkpt>
      <trkpt lat="45.94277" lon="4.78327">
        <ele>227</ele>
        <time>2018-09-11T08:43:48Z</time>
      </trkpt>
      <trkpt lat="45.94279" lon="4.78329">
        <ele>227</ele>
        <time>2018-09-11T08:43:49Z</time>
      </trkpt>
      <trkpt lat="45.94286" lon="4.78337">
        <ele>227</ele>
        <time>2018-09-11T08:43:52Z</time>
      </trkpt>
      <trkpt lat="45.94288" lon="4.78339">
        <ele>228</ele>
        <time>2018-09-11T08:43:53Z</time>
      </trkpt>
      <trkpt lat="45.94294" lon="4.78347">
        <ele>228</ele>
        <time>2018-09-11T08:43:56Z</time>
      </trkpt>
      <trkpt lat="45.94295" lon="4.78349">
        <ele>228</ele>
        <time>2018-09-11T08:43:57Z</time>
      </trkpt>
      <trkpt lat="45.943" lon="4.78359">
        <ele>229</ele>
        <time>2018-09-11T08:44:00Z</time>
      </trkpt>
      <trkpt lat="45.94302" lon="4.78362">
        <ele>229</ele>
        <time>2018-09-11T08:44:01Z</time>
      </trkpt>
      <trkpt lat="45.94307" lon="4.78372">
        <ele>229</ele>
        <time>2018-09-11T08:44:03Z</time>
      </trkpt>
      <trkpt lat="45.94308" lon="4.78373">
        <ele>229</ele>
        <time>2018-09-11T08:44:04Z</time>
      </trkpt>
      <trkpt lat="45.94313" lon="4.78382">
        <ele>230</ele>
        <time>2018-09-11T08:44:08Z</time>
      </trkpt>
      <trkpt lat="45.94314" lon="4.78384">
        <ele>230</ele>
        <time>2018-09-11T08:44:09Z</time>
      </trkpt>
      <trkpt lat="45.94318" lon="4.78393">
        <ele>230</ele>
        <time>2018-09-11T08:44:12Z</time>
      </trkpt>
      <trkpt lat="45.9432" lon="4.78396">
        <ele>230</ele>
        <time>2018-09-11T08:44:13Z</time>
      </trkpt>
      <trkpt lat="45.94324" lon="4.78406">
        <ele>230</ele>
        <time>2018-09-11T08:44:16Z</time>
      </trkpt>
      <trkpt lat="45.94325" lon="4.78408">
        <ele>229</ele>
        <time>2018-09-11T08:44:17Z</time>
      </trkpt>
      <trkpt lat="45.9433" lon="4.78417">
        <ele>229</ele>
        <time>2018-09-11T08:44:20Z</time>
      </trkpt>
      <trkpt lat="45.94332" lon="4.78419">
        <ele>230</ele>
        <time>2018-09-11T08:44:21Z</time>
      </trkpt>
      <trkpt lat="45.94337" lon="4.78425">
        <ele>231</ele>
        <time>2018-09-11T08:44:24Z</time>
      </trkpt>
      <trkpt lat="45.94339" lon="4.78428">
        <ele>232</ele>
        <time>2018-09-11T08:44:25Z</time>
      </trkpt>
      <trkpt lat="45.94344" lon="4.78436">
        <ele>233</ele>
        <time>2018-09-11T08:44:28Z</time>
      </trkpt>
      <trkpt lat="45.94346" lon="4.78439">
        <ele>234</ele>
        <time>2018-09-11T08:44:29Z</time>
      </trkpt>
      <trkpt lat="45.9435" lon="4.78447">
        <ele>235</ele>
        <time>2018-09-11T08:44:32Z</time>
      </trkpt>
      <trkpt lat="45.94352" lon="4.7845">
        <ele>235</ele>
        <time>2018-09-11T08:44:33Z</time>
      </trkpt>
      <trkpt lat="45.94357" lon="4.78458">
        <ele>235</ele>
        <time>2018-09-11T08:44:36Z</time>
      </trkpt>
      <trkpt lat="45.94359" lon="4.78461">
        <ele>236</ele>
        <time>2018-09-11T08:44:37Z</time>
      </trkpt>
      <trkpt lat="45.94364" lon="4.78468">
        <ele>236</ele>
        <time>2018-09-11T08:44:40Z</time>
      </trkpt>
      <trkpt lat="45.94366" lon="4.78471">
        <ele>236</ele>
        <time>2018-09-11T08:44:41Z</time>
      </trkpt>
      <trkpt lat="45.94371" lon="4.78478">
        <ele>236</ele>
        <time>2018-09-11T08:44:44Z</time>
      </trkpt>
      <trkpt lat="45.94373" lon="4.7848">
        <ele>236</ele>
        <time>2018-09-11T08:44:45Z</time>
      </trkpt>
      <trkpt lat="45.94379" lon="4.78489">
        <ele>236</ele>
        <time>2018-09-11T08:44:49Z</time>
      </trkpt>
      <trkpt lat="45.94381" lon="4.78491">
        <ele>236</ele>
        <time>2018-09-11T08:44:50Z</time>
      </trkpt>
      <trkpt lat="45.94386" lon="4.78497">
        <ele>235</ele>
        <time>2018-09-11T08:44:53Z</time>
      </trkpt>
      <trkpt lat="45.94388" lon="4.785">
        <ele>235</ele>
        <time>2018-09-11T08:44:54Z</time>
      </trkpt>
      <trkpt lat="45.94394" lon="4.78506">
        <ele>237</ele>
        <time>2018-09-11T08:44:57Z</time>
      </trkpt>
      <trkpt lat="45.94396" lon="4.78507">
        <ele>237</ele>
        <time>2018-09-11T08:44:58Z</time>
      </trkpt>
      <trkpt lat="45.94402" lon="4.78514">
        <ele>237</ele>
        <time>2018-09-11T08:45:01Z</time>
      </trkpt>
      <trkpt lat="45.94404" lon="4.78516">
        <ele>237</ele>
        <time>2018-09-11T08:45:02Z</time>
      </trkpt>
      <trkpt lat="45.94409" lon="4.78523">
        <ele>237</ele>
        <time>2018-09-11T08:45:05Z</time>
      </trkpt>
      <trkpt lat="45.94411" lon="4.78526">
        <ele>237</ele>
        <time>2018-09-11T08:45:06Z</time>
      </trkpt>
      <trkpt lat="45.94416" lon="4.78533">
        <ele>237</ele>
        <time>2018-09-11T08:45:09Z</time>
      </trkpt>
      <trkpt lat="45.94417" lon="4.78536">
        <ele>238</ele>
        <time>2018-09-11T08:45:10Z</time>
      </trkpt>
      <trkpt lat="45.94421" lon="4.78544">
        <ele>238</ele>
        <time>2018-09-11T08:45:13Z</time>
      </trkpt>
      <trkpt lat="45.94423" lon="4.78547">
        <ele>238</ele>
        <time>2018-09-11T08:45:14Z</time>
      </trkpt>
      <trkpt lat="45.94428" lon="4.78555">
        <ele>238</ele>
        <time>2018-09-11T08:45:17Z</time>
      </trkpt>
      <trkpt lat="45.9443" lon="4.78558">
        <ele>238</ele>
        <time>2018-09-11T08:45:18Z</time>
      </trkpt>
      <trkpt lat="45.94435" lon="4.78565">
        <ele>239</ele>
        <time>2018-09-11T08:45:21Z</time>
      </trkpt>
      <trkpt lat="45.94437" lon="4.78568">
        <ele>239</ele>
        <time>2018-09-11T08:45:22Z</time>
      </trkpt>
      <trkpt lat="45.94443" lon="4.78576">
        <ele>239</ele>
        <time>2018-09-11T08:45:25Z</time>
      </trkpt>
      <trkpt lat="45.94444" lon="4.78579">
        <ele>239</ele>
        <time>2018-09-11T08:45:26Z</time>
      </trkpt>
      <trkpt lat="45.94449" lon="4.7859">
        <ele>240</ele>
        <time>2018-09-11T08:45:30Z</time>
      </trkpt>
      <trkpt lat="45.9445" lon="4.78592">
        <ele>240</ele>
        <time>2018-09-11T08:45:31Z</time>
      </trkpt>
      <trkpt lat="45.94454" lon="4.786">
        <ele>240</ele>
        <time>2018-09-11T08:45:34Z</time>
      </trkpt>
      <trkpt lat="45.94456" lon="4.78603">
        <ele>240</ele>
        <time>2018-09-11T08:45:35Z</time>
      </trkpt>
      <trkpt lat="45.94459" lon="4.78613">
        <ele>241</ele>
        <time>2018-09-11T08:45:38Z</time>
      </trkpt>
      <trkpt lat="45.9446" lon="4.78617">
        <ele>241</ele>
        <time>2018-09-11T08:45:39Z</time>
      </trkpt>
      <trkpt lat="45.94462" lon="4.78626">
        <ele>241</ele>
        <time>2018-09-11T08:45:42Z</time>
      </trkpt>
      <trkpt lat="45.94463" lon="4.78629">
        <ele>241</ele>
        <time>2018-09-11T08:45:43Z</time>
      </trkpt>
      <trkpt lat="45.94466" lon="4.7864">
        <ele>241</ele>
        <time>2018-09-11T08:45:47Z</time>
      </trkpt>
      <trkpt lat="45.94466" lon="4.78643">
        <ele>241</ele>
        <time>2018-09-11T08:45:48Z</time>
      </trkpt>
      <trkpt lat="45.94468" lon="4.78656">
        <ele>241</ele>
        <time>2018-09-11T08:45:52Z</time>
      </trkpt>
      <trkpt lat="45.94468" lon="4.78659">
        <ele>241</ele>
        <time>2018-09-11T08:45:53Z</time>
      </trkpt>
      <trkpt lat="45.94469" lon="4.78669">
        <ele>244</ele>
        <time>2018-09-11T08:45:56Z</time>
      </trkpt>
      <trkpt lat="45.9447" lon="4.78672">
        <ele>244</ele>
        <time>2018-09-11T08:45:57Z</time>
      </trkpt>
      <trkpt lat="45.94471" lon="4.78679">
        <ele>244</ele>
        <time>2018-09-11T08:45:59Z</time>
      </trkpt>
      <trkpt lat="45.94474" lon="4.78692">
        <ele>244</ele>
        <time>2018-09-11T08:46:00Z</time>
      </trkpt>
      <trkpt lat="45.94477" lon="4.78702">
        <ele>245</ele>
        <time>2018-09-11T08:46:04Z</time>
      </trkpt>
      <trkpt lat="45.94477" lon="4.78704">
        <ele>245</ele>
        <time>2018-09-11T08:46:05Z</time>
      </trkpt>
      <trkpt lat="45.94478" lon="4.78717">
        <ele>245</ele>
        <time>2018-09-11T08:46:10Z</time>
      </trkpt>
      <trkpt lat="45.94478" lon="4.78719">
        <ele>245</ele>
        <time>2018-09-11T08:46:11Z</time>
      </trkpt>
      <trkpt lat="45.94479" lon="4.78731">
        <ele>246</ele>
        <time>2018-09-11T08:46:16Z</time>
      </trkpt>
      <trkpt lat="45.94479" lon="4.78734">
        <ele>246</ele>
        <time>2018-09-11T08:46:17Z</time>
      </trkpt>
      <trkpt lat="45.9448" lon="4.78746">
        <ele>246</ele>
        <time>2018-09-11T08:46:21Z</time>
      </trkpt>
      <trkpt lat="45.94479" lon="4.78749">
        <ele>246</ele>
        <time>2018-09-11T08:46:22Z</time>
      </trkpt>
      <trkpt lat="45.94477" lon="4.78761">
        <ele>249</ele>
        <time>2018-09-11T08:46:26Z</time>
      </trkpt>
      <trkpt lat="45.94477" lon="4.78764">
        <ele>249</ele>
        <time>2018-09-11T08:46:27Z</time>
      </trkpt>
      <trkpt lat="45.94474" lon="4.78775">
        <ele>250</ele>
        <time>2018-09-11T08:46:31Z</time>
      </trkpt>
      <trkpt lat="45.94473" lon="4.78778">
        <ele>250</ele>
        <time>2018-09-11T08:46:32Z</time>
      </trkpt>
      <trkpt lat="45.94471" lon="4.7879">
        <ele>250</ele>
        <time>2018-09-11T08:46:36Z</time>
      </trkpt>
      <trkpt lat="45.9447" lon="4.78793">
        <ele>250</ele>
        <time>2018-09-11T08:46:37Z</time>
      </trkpt>
      <trkpt lat="45.94468" lon="4.78804">
        <ele>251</ele>
        <time>2018-09-11T08:46:41Z</time>
      </trkpt>
      <trkpt lat="45.94467" lon="4.78806">
        <ele>251</ele>
        <time>2018-09-11T08:46:42Z</time>
      </trkpt>
      <trkpt lat="45.94465" lon="4.78817">
        <ele>251</ele>
        <time>2018-09-11T08:46:46Z</time>
      </trkpt>
      <trkpt lat="45.94464" lon="4.7882">
        <ele>251</ele>
        <time>2018-09-11T08:46:47Z</time>
      </trkpt>
      <trkpt lat="45.94462" lon="4.78831">
        <ele>251</ele>
        <time>2018-09-11T08:46:51Z</time>
      </trkpt>
      <trkpt lat="45.94462" lon="4.78834">
        <ele>253</ele>
        <time>2018-09-11T08:46:52Z</time>
      </trkpt>
      <trkpt lat="45.94459" lon="4.78845">
        <ele>253</ele>
        <time>2018-09-11T08:46:56Z</time>
      </trkpt>
      <trkpt lat="45.94458" lon="4.78848">
        <ele>253</ele>
        <time>2018-09-11T08:46:57Z</time>
      </trkpt>
      <trkpt lat="45.94454" lon="4.78859">
        <ele>253</ele>
        <time>2018-09-11T08:47:02Z</time>
      </trkpt>
      <trkpt lat="45.94453" lon="4.78861">
        <ele>253</ele>
        <time>2018-09-11T08:47:03Z</time>
      </trkpt>
      <trkpt lat="45.9445" lon="4.78871">
        <ele>253</ele>
        <time>2018-09-11T08:47:08Z</time>
      </trkpt>
      <trkpt lat="45.9445" lon="4.78874">
        <ele>253</ele>
        <time>2018-09-11T08:47:09Z</time>
      </trkpt>
      <trkpt lat="45.9445" lon="4.78886">
        <ele>253</ele>
        <time>2018-09-11T08:47:14Z</time>
      </trkpt>
      <trkpt lat="45.9445" lon="4.78888">
        <ele>253</ele>
        <time>2018-09-11T08:47:15Z</time>
      </trkpt>
      <trkpt lat="45.9445" lon="4.789">
        <ele>253</ele>
        <time>2018-09-11T08:47:20Z</time>
      </trkpt>
      <trkpt lat="45.9445" lon="4.78904">
        <ele>253</ele>
        <time>2018-09-11T08:47:21Z</time>
      </trkpt>
      <trkpt lat="45.94453" lon="4.78914">
        <ele>253</ele>
        <time>2018-09-11T08:47:24Z</time>
      </trkpt>
      <trkpt lat="45.94454" lon="4.78918">
        <ele>254</ele>
        <time>2018-09-11T08:47:25Z</time>
      </trkpt>
      <trkpt lat="45.94457" lon="4.78927">
        <ele>254</ele>
        <time>2018-09-11T08:47:28Z</time>
      </trkpt>
      <trkpt lat="45.94459" lon="4.7893">
        <ele>254</ele>
        <time>2018-09-11T08:47:29Z</time>
      </trkpt>
      <trkpt lat="45.94462" lon="4.78939">
        <ele>254</ele>
        <time>2018-09-11T08:47:32Z</time>
      </trkpt>
      <trkpt lat="45.94463" lon="4.78942">
        <ele>254</ele>
        <time>2018-09-11T08:47:33Z</time>
      </trkpt>
      <trkpt lat="45.94467" lon="4.78951">
        <ele>254</ele>
        <time>2018-09-11T08:47:36Z</time>
      </trkpt>
      <trkpt lat="45.94469" lon="4.78954">
        <ele>254</ele>
        <time>2018-09-11T08:47:37Z</time>
      </trkpt>
      <trkpt lat="45.94472" lon="4.78963">
        <ele>254</ele>
        <time>2018-09-11T08:47:40Z</time>
      </trkpt>
      <trkpt lat="45.94473" lon="4.78967">
        <ele>254</ele>
        <time>2018-09-11T08:47:41Z</time>
      </trkpt>
      <trkpt lat="45.94477" lon="4.78975">
        <ele>254</ele>
        <time>2018-09-11T08:47:44Z</time>
      </trkpt>
      <trkpt lat="45.94479" lon="4.78978">
        <ele>254</ele>
        <time>2018-09-11T08:47:45Z</time>
      </trkpt>
      <trkpt lat="45.94483" lon="4.78989">
        <ele>254</ele>
        <time>2018-09-11T08:47:49Z</time>
      </trkpt>
      <trkpt lat="45.94484" lon="4.78992">
        <ele>254</ele>
        <time>2018-09-11T08:47:50Z</time>
      </trkpt>
      <trkpt lat="45.9449" lon="4.79001">
        <ele>254</ele>
        <time>2018-09-11T08:47:54Z</time>
      </trkpt>
      <trkpt lat="45.94491" lon="4.79003">
        <ele>254</ele>
        <time>2018-09-11T08:47:55Z</time>
      </trkpt>
      <trkpt lat="45.94497" lon="4.79011">
        <ele>254</ele>
        <time>2018-09-11T08:47:58Z</time>
      </trkpt>
      <trkpt lat="45.94498" lon="4.79014">
        <ele>254</ele>
        <time>2018-09-11T08:47:59Z</time>
      </trkpt>
      <trkpt lat="45.94502" lon="4.79022">
        <ele>255</ele>
        <time>2018-09-11T08:48:01Z</time>
      </trkpt>
      <trkpt lat="45.94504" lon="4.79026">
        <ele>255</ele>
        <time>2018-09-11T08:48:02Z</time>
      </trkpt>
      <trkpt lat="45.94509" lon="4.79036">
        <ele>255</ele>
        <time>2018-09-11T08:48:05Z</time>
      </trkpt>
      <trkpt lat="45.94511" lon="4.79039">
        <ele>255</ele>
        <time>2018-09-11T08:48:06Z</time>
      </trkpt>
      <trkpt lat="45.94515" lon="4.79049">
        <ele>255</ele>
        <time>2018-09-11T08:48:09Z</time>
      </trkpt>
      <trkpt lat="45.94517" lon="4.79052">
        <ele>255</ele>
        <time>2018-09-11T08:48:10Z</time>
      </trkpt>
      <trkpt lat="45.94522" lon="4.79061">
        <ele>255</ele>
        <time>2018-09-11T08:48:11Z</time>
      </trkpt>
      <trkpt lat="45.94523" lon="4.79063">
        <ele>255</ele>
        <time>2018-09-11T08:48:12Z</time>
      </trkpt>
      <trkpt lat="45.94527" lon="4.79071">
        <ele>255</ele>
        <time>2018-09-11T08:48:15Z</time>
      </trkpt>
      <trkpt lat="45.94529" lon="4.79074">
        <ele>255</ele>
        <time>2018-09-11T08:48:16Z</time>
      </trkpt>
      <trkpt lat="45.94534" lon="4.79085">
        <ele>256</ele>
        <time>2018-09-11T08:48:17Z</time>
      </trkpt>
      <trkpt lat="45.94536" lon="4.79089">
        <ele>256</ele>
        <time>2018-09-11T08:48:18Z</time>
      </trkpt>
      <trkpt lat="45.94541" lon="4.79098">
        <ele>256</ele>
        <time>2018-09-11T08:48:20Z</time>
      </trkpt>
      <trkpt lat="45.94544" lon="4.79103">
        <ele>256</ele>
        <time>2018-09-11T08:48:21Z</time>
      </trkpt>
      <trkpt lat="45.94545" lon="4.79106">
        <ele>256</ele>
        <time>2018-09-11T08:48:22Z</time>
      </trkpt>
      <trkpt lat="45.94549" lon="4.79115">
        <ele>256</ele>
        <time>2018-09-11T08:48:23Z</time>
      </trkpt>
      <trkpt lat="45.94553" lon="4.79124">
        <ele>257</ele>
        <time>2018-09-11T08:48:25Z</time>
      </trkpt>
      <trkpt lat="45.94555" lon="4.79131">
        <ele>257</ele>
        <time>2018-09-11T08:48:26Z</time>
      </trkpt>
      <trkpt lat="45.94558" lon="4.79136">
        <ele>257</ele>
        <time>2018-09-11T08:48:27Z</time>
      </trkpt>
      <trkpt lat="45.94562" lon="4.79141">
        <ele>257</ele>
        <time>2018-09-11T08:48:28Z</time>
      </trkpt>
      <trkpt lat="45.94565" lon="4.79147">
        <ele>257</ele>
        <time>2018-09-11T08:48:29Z</time>
      </trkpt>
      <trkpt lat="45.94568" lon="4.79151">
        <ele>257</ele>
        <time>2018-09-11T08:48:30Z</time>
      </trkpt>
      <trkpt lat="45.94572" lon="4.7916">
        <ele>258</ele>
        <time>2018-09-11T08:48:32Z</time>
      </trkpt>
      <trkpt lat="45.94576" lon="4.79165">
        <ele>258</ele>
        <time>2018-09-11T08:48:33Z</time>
      </trkpt>
      <trkpt lat="45.9458" lon="4.79176">
        <ele>258</ele>
        <time>2018-09-11T08:48:35Z</time>
      </trkpt>
      <trkpt lat="45.94583" lon="4.7918">
        <ele>257</ele>
        <time>2018-09-11T08:48:36Z</time>
      </trkpt>
      <trkpt lat="45.94586" lon="4.7919">
        <ele>258</ele>
        <time>2018-09-11T08:48:38Z</time>
      </trkpt>
      <trkpt lat="45.94588" lon="4.79197">
        <ele>257</ele>
        <time>2018-09-11T08:48:39Z</time>
      </trkpt>
      <trkpt lat="45.94594" lon="4.79206">
        <ele>257</ele>
        <time>2018-09-11T08:48:41Z</time>
      </trkpt>
      <trkpt lat="45.94596" lon="4.7921">
        <ele>257</ele>
        <time>2018-09-11T08:48:42Z</time>
      </trkpt>
      <trkpt lat="45.94601" lon="4.79217">
        <ele>257</ele>
        <time>2018-09-11T08:48:44Z</time>
      </trkpt>
      <trkpt lat="45.94603" lon="4.79222">
        <ele>256</ele>
        <time>2018-09-11T08:48:45Z</time>
      </trkpt>
      <trkpt lat="45.94609" lon="4.7923">
        <ele>256</ele>
        <time>2018-09-11T08:48:47Z</time>
      </trkpt>
      <trkpt lat="45.94611" lon="4.79235">
        <ele>256</ele>
        <time>2018-09-11T08:48:48Z</time>
      </trkpt>
      <trkpt lat="45.94616" lon="4.79243">
        <ele>256</ele>
        <time>2018-09-11T08:48:50Z</time>
      </trkpt>
      <trkpt lat="45.94616" lon="4.79246">
        <ele>256</ele>
        <time>2018-09-11T08:48:51Z</time>
      </trkpt>
      <trkpt lat="45.94617" lon="4.79249">
        <ele>256</ele>
        <time>2018-09-11T08:48:52Z</time>
      </trkpt>
      <trkpt lat="45.94621" lon="4.79258">
        <ele>255</ele>
        <time>2018-09-11T08:48:53Z</time>
      </trkpt>
      <trkpt lat="45.94625" lon="4.79265">
        <ele>255</ele>
        <time>2018-09-11T08:48:54Z</time>
      </trkpt>
      <trkpt lat="45.94627" lon="4.7927">
        <ele>254</ele>
        <time>2018-09-11T08:48:55Z</time>
      </trkpt>
      <trkpt lat="45.9463" lon="4.79276">
        <ele>254</ele>
        <time>2018-09-11T08:48:56Z</time>
      </trkpt>
      <trkpt lat="45.94633" lon="4.79281">
        <ele>254</ele>
        <time>2018-09-11T08:48:57Z</time>
      </trkpt>
      <trkpt lat="45.94636" lon="4.79288">
        <ele>254</ele>
        <time>2018-09-11T08:48:59Z</time>
      </trkpt>
      <trkpt lat="45.94639" lon="4.79294">
        <ele>254</ele>
        <time>2018-09-11T08:49:00Z</time>
      </trkpt>
      <trkpt lat="45.94642" lon="4.79303">
        <ele>254</ele>
        <time>2018-09-11T08:49:03Z</time>
      </trkpt>
      <trkpt lat="45.94644" lon="4.79307">
        <ele>254</ele>
        <time>2018-09-11T08:49:04Z</time>
      </trkpt>
      <trkpt lat="45.94648" lon="4.79316">
        <ele>254</ele>
        <time>2018-09-11T08:49:05Z</time>
      </trkpt>
      <trkpt lat="45.94649" lon="4.79319">
        <ele>254</ele>
        <time>2018-09-11T08:49:06Z</time>
      </trkpt>
      <trkpt lat="45.9465" lon="4.79322">
        <ele>254</ele>
        <time>2018-09-11T08:49:07Z</time>
      </trkpt>
      <trkpt lat="45.94655" lon="4.79331">
        <ele>254</ele>
        <time>2018-09-11T08:49:08Z</time>
      </trkpt>
      <trkpt lat="45.94658" lon="4.79336">
        <ele>254</ele>
        <time>2018-09-11T08:49:09Z</time>
      </trkpt>
      <trkpt lat="45.94661" lon="4.79341">
        <ele>254</ele>
        <time>2018-09-11T08:49:10Z</time>
      </trkpt>
      <trkpt lat="45.94663" lon="4.79346">
        <ele>254</ele>
        <time>2018-09-11T08:49:11Z</time>
      </trkpt>
      <trkpt lat="45.94666" lon="4.79352">
        <ele>254</ele>
        <time>2018-09-11T08:49:12Z</time>
      </trkpt>
      <trkpt lat="45.94668" lon="4.79357">
        <ele>253</ele>
        <time>2018-09-11T08:49:13Z</time>
      </trkpt>
      <trkpt lat="45.9467" lon="4.79363">
        <ele>253</ele>
        <time>2018-09-11T08:49:14Z</time>
      </trkpt>
      <trkpt lat="45.94675" lon="4.79371">
        <ele>253</ele>
        <time>2018-09-11T08:49:16Z</time>
      </trkpt>
      <trkpt lat="45.94677" lon="4.79376">
        <ele>253</ele>
        <time>2018-09-11T08:49:17Z</time>
      </trkpt>
      <trkpt lat="45.94682" lon="4.79385">
        <ele>253</ele>
        <time>2018-09-11T08:49:19Z</time>
      </trkpt>
      <trkpt lat="45.94684" lon="4.7939">
        <ele>253</ele>
        <time>2018-09-11T08:49:20Z</time>
      </trkpt>
      <trkpt lat="45.94689" lon="4.794">
        <ele>253</ele>
        <time>2018-09-11T08:49:22Z</time>
      </trkpt>
      <trkpt lat="45.94691" lon="4.79405">
        <ele>253</ele>
        <time>2018-09-11T08:49:23Z</time>
      </trkpt>
      <trkpt lat="45.94695" lon="4.79415">
        <ele>253</ele>
        <time>2018-09-11T08:49:25Z</time>
      </trkpt>
      <trkpt lat="45.94697" lon="4.7942">
        <ele>253</ele>
        <time>2018-09-11T08:49:26Z</time>
      </trkpt>
      <trkpt lat="45.94702" lon="4.7943">
        <ele>253</ele>
        <time>2018-09-11T08:49:28Z</time>
      </trkpt>
      <trkpt lat="45.94704" lon="4.79435">
        <ele>253</ele>
        <time>2018-09-11T08:49:29Z</time>
      </trkpt>
      <trkpt lat="45.94707" lon="4.79441">
        <ele>253</ele>
        <time>2018-09-11T08:49:30Z</time>
      </trkpt>
      <trkpt lat="45.9471" lon="4.79446">
        <ele>253</ele>
        <time>2018-09-11T08:49:31Z</time>
      </trkpt>
      <trkpt lat="45.94716" lon="4.79456">
        <ele>253</ele>
        <time>2018-09-11T08:49:33Z</time>
      </trkpt>
      <trkpt lat="45.94719" lon="4.79462">
        <ele>253</ele>
        <time>2018-09-11T08:49:34Z</time>
      </trkpt>
      <trkpt lat="45.94721" lon="4.79468">
        <ele>253</ele>
        <time>2018-09-11T08:49:35Z</time>
      </trkpt>
      <trkpt lat="45.94724" lon="4.79473">
        <ele>253</ele>
        <time>2018-09-11T08:49:36Z</time>
      </trkpt>
      <trkpt lat="45.94727" lon="4.79481">
        <ele>253</ele>
        <time>2018-09-11T08:49:37Z</time>
      </trkpt>
      <trkpt lat="45.94731" lon="4.79485">
        <ele>253</ele>
        <time>2018-09-11T08:49:38Z</time>
      </trkpt>
      <trkpt lat="45.94734" lon="4.79492">
        <ele>253</ele>
        <time>2018-09-11T08:49:39Z</time>
      </trkpt>
      <trkpt lat="45.94737" lon="4.79499">
        <ele>252</ele>
        <time>2018-09-11T08:49:40Z</time>
      </trkpt>
      <trkpt lat="45.94741" lon="4.79501">
        <ele>252</ele>
        <time>2018-09-11T08:49:41Z</time>
      </trkpt>
      <trkpt lat="45.94745" lon="4.79507">
        <ele>252</ele>
        <time>2018-09-11T08:49:42Z</time>
      </trkpt>
      <trkpt lat="45.94745" lon="4.79516">
        <ele>252</ele>
        <time>2018-09-11T08:49:43Z</time>
      </trkpt>
      <trkpt lat="45.94747" lon="4.79522">
        <ele>253</ele>
        <time>2018-09-11T08:49:44Z</time>
      </trkpt>
      <trkpt lat="45.94751" lon="4.79531">
        <ele>252</ele>
        <time>2018-09-11T08:49:46Z</time>
      </trkpt>
      <trkpt lat="45.94753" lon="4.79537">
        <ele>252</ele>
        <time>2018-09-11T08:49:47Z</time>
      </trkpt>
      <trkpt lat="45.94756" lon="4.79544">
        <ele>252</ele>
        <time>2018-09-11T08:49:48Z</time>
      </trkpt>
      <trkpt lat="45.94758" lon="4.79549">
        <ele>252</ele>
        <time>2018-09-11T08:49:49Z</time>
      </trkpt>
      <trkpt lat="45.94761" lon="4.79561">
        <ele>252</ele>
        <time>2018-09-11T08:49:51Z</time>
      </trkpt>
      <trkpt lat="45.94761" lon="4.79567">
        <ele>252</ele>
        <time>2018-09-11T08:49:52Z</time>
      </trkpt>
      <trkpt lat="45.94761" lon="4.79575">
        <ele>252</ele>
        <time>2018-09-11T08:49:53Z</time>
      </trkpt>
      <trkpt lat="45.9476" lon="4.79581">
        <ele>252</ele>
        <time>2018-09-11T08:49:54Z</time>
      </trkpt>
      <trkpt lat="45.9476" lon="4.79591">
        <ele>253</ele>
        <time>2018-09-11T08:49:55Z</time>
      </trkpt>
      <trkpt lat="45.94761" lon="4.79597">
        <ele>253</ele>
        <time>2018-09-11T08:49:56Z</time>
      </trkpt>
      <trkpt lat="45.94763" lon="4.79604">
        <ele>253</ele>
        <time>2018-09-11T08:49:57Z</time>
      </trkpt>
      <trkpt lat="45.94764" lon="4.79611">
        <ele>253</ele>
        <time>2018-09-11T08:49:58Z</time>
      </trkpt>
      <trkpt lat="45.94766" lon="4.79619">
        <ele>253</ele>
        <time>2018-09-11T08:49:59Z</time>
      </trkpt>
      <trkpt lat="45.94768" lon="4.79625">
        <ele>253</ele>
        <time>2018-09-11T08:50:00Z</time>
      </trkpt>
      <trkpt lat="45.94768" lon="4.79631">
        <ele>253</ele>
        <time>2018-09-11T08:50:02Z</time>
      </trkpt>
      <trkpt lat="45.94771" lon="4.7964">
        <ele>254</ele>
        <time>2018-09-11T08:50:03Z</time>
      </trkpt>
      <trkpt lat="45.94774" lon="4.7965">
        <ele>254</ele>
        <time>2018-09-11T08:50:05Z</time>
      </trkpt>
      <trkpt lat="45.94776" lon="4.79658">
        <ele>254</ele>
        <time>2018-09-11T08:50:06Z</time>
      </trkpt>
      <trkpt lat="45.94777" lon="4.79665">
        <ele>254</ele>
        <time>2018-09-11T08:50:07Z</time>
      </trkpt>
      <trkpt lat="45.9478" lon="4.7967">
        <ele>254</ele>
        <time>2018-09-11T08:50:08Z</time>
      </trkpt>
      <trkpt lat="45.94782" lon="4.79681">
        <ele>254</ele>
        <time>2018-09-11T08:50:10Z</time>
      </trkpt>
      <trkpt lat="45.94783" lon="4.79686">
        <ele>254</ele>
        <time>2018-09-11T08:50:11Z</time>
      </trkpt>
      <trkpt lat="45.94786" lon="4.79692">
        <ele>254</ele>
        <time>2018-09-11T08:50:12Z</time>
      </trkpt>
      <trkpt lat="45.94788" lon="4.79697">
        <ele>254</ele>
        <time>2018-09-11T08:50:13Z</time>
      </trkpt>
      <trkpt lat="45.94791" lon="4.79708">
        <ele>254</ele>
        <time>2018-09-11T08:50:15Z</time>
      </trkpt>
      <trkpt lat="45.94791" lon="4.79714">
        <ele>254</ele>
        <time>2018-09-11T08:50:16Z</time>
      </trkpt>
      <trkpt lat="45.94796" lon="4.79723">
        <ele>254</ele>
        <time>2018-09-11T08:50:17Z</time>
      </trkpt>
      <trkpt lat="45.94798" lon="4.7973">
        <ele>254</ele>
        <time>2018-09-11T08:50:18Z</time>
      </trkpt>
      <trkpt lat="45.948" lon="4.79743">
        <ele>254</ele>
        <time>2018-09-11T08:50:20Z</time>
      </trkpt>
      <trkpt lat="45.94801" lon="4.7975">
        <ele>254</ele>
        <time>2018-09-11T08:50:21Z</time>
      </trkpt>
      <trkpt lat="45.94804" lon="4.79758">
        <ele>254</ele>
        <time>2018-09-11T08:50:22Z</time>
      </trkpt>
      <trkpt lat="45.94803" lon="4.79764">
        <ele>254</ele>
        <time>2018-09-11T08:50:23Z</time>
      </trkpt>
      <trkpt lat="45.94803" lon="4.79771">
        <ele>254</ele>
        <time>2018-09-11T08:50:24Z</time>
      </trkpt>
      <trkpt lat="45.94806" lon="4.79776">
        <ele>254</ele>
        <time>2018-09-11T08:50:25Z</time>
      </trkpt>
      <trkpt lat="45.94809" lon="4.79783">
        <ele>254</ele>
        <time>2018-09-11T08:50:26Z</time>
      </trkpt>
      <trkpt lat="45.94811" lon="4.79794">
        <ele>254</ele>
        <time>2018-09-11T08:50:27Z</time>
      </trkpt>
      <trkpt lat="45.94813" lon="4.79799">
        <ele>254</ele>
        <time>2018-09-11T08:50:28Z</time>
      </trkpt>
      <trkpt lat="45.94816" lon="4.79806">
        <ele>254</ele>
        <time>2018-09-11T08:50:29Z</time>
      </trkpt>
      <trkpt lat="45.94818" lon="4.79815">
        <ele>254</ele>
        <time>2018-09-11T08:50:30Z</time>
      </trkpt>
      <trkpt lat="45.94821" lon="4.79821">
        <ele>254</ele>
        <time>2018-09-11T08:50:31Z</time>
      </trkpt>
      <trkpt lat="45.94823" lon="4.79828">
        <ele>254</ele>
        <time>2018-09-11T08:50:32Z</time>
      </trkpt>
      <trkpt lat="45.94824" lon="4.79834">
        <ele>254</ele>
        <time>2018-09-11T08:50:33Z</time>
      </trkpt>
      <trkpt lat="45.94827" lon="4.79845">
        <ele>254</ele>
        <time>2018-09-11T08:50:35Z</time>
      </trkpt>
      <trkpt lat="45.94829" lon="4.7985">
        <ele>254</ele>
        <time>2018-09-11T08:50:36Z</time>
      </trkpt>
      <trkpt lat="45.94832" lon="4.79861">
        <ele>255</ele>
        <time>2018-09-11T08:50:38Z</time>
      </trkpt>
      <trkpt lat="45.94833" lon="4.79867">
        <ele>255</ele>
        <time>2018-09-11T08:50:39Z</time>
      </trkpt>
      <trkpt lat="45.94837" lon="4.79879">
        <ele>255</ele>
        <time>2018-09-11T08:50:41Z</time>
      </trkpt>
      <trkpt lat="45.94841" lon="4.79887">
        <ele>255</ele>
        <time>2018-09-11T08:50:42Z</time>
      </trkpt>
      <trkpt lat="45.94843" lon="4.79895">
        <ele>255</ele>
        <time>2018-09-11T08:50:43Z</time>
      </trkpt>
      <trkpt lat="45.94845" lon="4.79901">
        <ele>255</ele>
        <time>2018-09-11T08:50:44Z</time>
      </trkpt>
      <trkpt lat="45.94847" lon="4.79906">
        <ele>256</ele>
        <time>2018-09-11T08:50:45Z</time>
      </trkpt>
      <trkpt lat="45.94849" lon="4.79912">
        <ele>256</ele>
        <time>2018-09-11T08:50:46Z</time>
      </trkpt>
      <trkpt lat="45.94852" lon="4.79918">
        <ele>256</ele>
        <time>2018-09-11T08:50:47Z</time>
      </trkpt>
      <trkpt lat="45.94854" lon="4.79923">
        <ele>256</ele>
        <time>2018-09-11T08:50:48Z</time>
      </trkpt>
      <trkpt lat="45.94858" lon="4.7993">
        <ele>256</ele>
        <time>2018-09-11T08:50:50Z</time>
      </trkpt>
      <trkpt lat="45.94859" lon="4.79934">
        <ele>256</ele>
        <time>2018-09-11T08:50:51Z</time>
      </trkpt>
      <trkpt lat="45.94862" lon="4.79942">
        <ele>256</ele>
        <time>2018-09-11T08:50:53Z</time>
      </trkpt>
      <trkpt lat="45.94864" lon="4.79947">
        <ele>256</ele>
        <time>2018-09-11T08:50:54Z</time>
      </trkpt>
      <trkpt lat="45.94867" lon="4.79952">
        <ele>256</ele>
        <time>2018-09-11T08:50:55Z</time>
      </trkpt>
      <trkpt lat="45.94869" lon="4.79958">
        <ele>256</ele>
        <time>2018-09-11T08:50:56Z</time>
      </trkpt>
      <trkpt lat="45.94873" lon="4.79965">
        <ele>256</ele>
        <time>2018-09-11T08:50:57Z</time>
      </trkpt>
      <trkpt lat="45.94875" lon="4.79972">
        <ele>256</ele>
        <time>2018-09-11T08:50:58Z</time>
      </trkpt>
      <trkpt lat="45.94877" lon="4.79981">
        <ele>256</ele>
        <time>2018-09-11T08:51:00Z</time>
      </trkpt>
      <trkpt lat="45.94879" lon="4.79991">
        <ele>256</ele>
        <time>2018-09-11T08:51:01Z</time>
      </trkpt>
      <trkpt lat="45.94885" lon="4.80001">
        <ele>256</ele>
        <time>2018-09-11T08:51:03Z</time>
      </trkpt>
      <trkpt lat="45.94885" lon="4.80007">
        <ele>256</ele>
        <time>2018-09-11T08:51:04Z</time>
      </trkpt>
      <trkpt lat="45.94887" lon="4.80012">
        <ele>256</ele>
        <time>2018-09-11T08:51:05Z</time>
      </trkpt>
      <trkpt lat="45.9489" lon="4.80018">
        <ele>256</ele>
        <time>2018-09-11T08:51:06Z</time>
      </trkpt>
      <trkpt lat="45.94893" lon="4.80027">
        <ele>256</ele>
        <time>2018-09-11T08:51:08Z</time>
      </trkpt>
      <trkpt lat="45.94895" lon="4.80033">
        <ele>256</ele>
        <time>2018-09-11T08:51:09Z</time>
      </trkpt>
      <trkpt lat="45.94899" lon="4.80041">
        <ele>256</ele>
        <time>2018-09-11T08:51:10Z</time>
      </trkpt>
      <trkpt lat="45.94901" lon="4.80048">
        <ele>256</ele>
        <time>2018-09-11T08:51:11Z</time>
      </trkpt>
      <trkpt lat="45.94904" lon="4.8006">
        <ele>256</ele>
        <time>2018-09-11T08:51:13Z</time>
      </trkpt>
      <trkpt lat="45.94904" lon="4.80065">
        <ele>256</ele>
        <time>2018-09-11T08:51:14Z</time>
      </trkpt>
      <trkpt lat="45.94906" lon="4.80071">
        <ele>256</ele>
        <time>2018-09-11T08:51:15Z</time>
      </trkpt>
      <trkpt lat="45.94907" lon="4.80079">
        <ele>257</ele>
        <time>2018-09-11T08:51:16Z</time>
      </trkpt>
      <trkpt lat="45.94908" lon="4.80087">
        <ele>257</ele>
        <time>2018-09-11T08:51:17Z</time>
      </trkpt>
      <trkpt lat="45.9491" lon="4.80095">
        <ele>257</ele>
        <time>2018-09-11T08:51:18Z</time>
      </trkpt>
      <trkpt lat="45.94913" lon="4.80104">
        <ele>256</ele>
        <time>2018-09-11T08:51:19Z</time>
      </trkpt>
      <trkpt lat="45.94913" lon="4.80111">
        <ele>256</ele>
        <time>2018-09-11T08:51:20Z</time>
      </trkpt>
      <trkpt lat="45.94914" lon="4.80118">
        <ele>256</ele>
        <time>2018-09-11T08:51:21Z</time>
      </trkpt>
      <trkpt lat="45.94913" lon="4.80124">
        <ele>256</ele>
        <time>2018-09-11T08:51:22Z</time>
      </trkpt>
      <trkpt lat="45.94916" lon="4.80132">
        <ele>256</ele>
        <time>2018-09-11T08:51:23Z</time>
      </trkpt>
      <trkpt lat="45.94919" lon="4.80139">
        <ele>256</ele>
        <time>2018-09-11T08:51:24Z</time>
      </trkpt>
      <trkpt lat="45.94921" lon="4.80151">
        <ele>255</ele>
        <time>2018-09-11T08:51:26Z</time>
      </trkpt>
      <trkpt lat="45.94922" lon="4.80157">
        <ele>255</ele>
        <time>2018-09-11T08:51:27Z</time>
      </trkpt>
      <trkpt lat="45.94924" lon="4.80163">
        <ele>255</ele>
        <time>2018-09-11T08:51:28Z</time>
      </trkpt>
      <trkpt lat="45.94925" lon="4.80173">
        <ele>255</ele>
        <time>2018-09-11T08:51:29Z</time>
      </trkpt>
      <trkpt lat="45.94927" lon="4.80179">
        <ele>256</ele>
        <time>2018-09-11T08:51:30Z</time>
      </trkpt>
      <trkpt lat="45.9493" lon="4.80186">
        <ele>256</ele>
        <time>2018-09-11T08:51:31Z</time>
      </trkpt>
      <trkpt lat="45.9493" lon="4.80193">
        <ele>256</ele>
        <time>2018-09-11T08:51:32Z</time>
      </trkpt>
      <trkpt lat="45.94929" lon="4.802">
        <ele>256</ele>
        <time>2018-09-11T08:51:33Z</time>
      </trkpt>
      <trkpt lat="45.94931" lon="4.80207">
        <ele>256</ele>
        <time>2018-09-11T08:51:34Z</time>
      </trkpt>
      <trkpt lat="45.94933" lon="4.80214">
        <ele>256</ele>
        <time>2018-09-11T08:51:35Z</time>
      </trkpt>
      <trkpt lat="45.94934" lon="4.80221">
        <ele>256</ele>
        <time>2018-09-11T08:51:36Z</time>
      </trkpt>
      <trkpt lat="45.94935" lon="4.80227">
        <ele>256</ele>
        <time>2018-09-11T08:51:37Z</time>
      </trkpt>
      <trkpt lat="45.94936" lon="4.80234">
        <ele>256</ele>
        <time>2018-09-11T08:51:38Z</time>
      </trkpt>
      <trkpt lat="45.94937" lon="4.8024">
        <ele>256</ele>
        <time>2018-09-11T08:51:39Z</time>
      </trkpt>
      <trkpt lat="45.94938" lon="4.80247">
        <ele>256</ele>
        <time>2018-09-11T08:51:40Z</time>
      </trkpt>
      <trkpt lat="45.94938" lon="4.80254">
        <ele>257</ele>
        <time>2018-09-11T08:51:41Z</time>
      </trkpt>
      <trkpt lat="45.94939" lon="4.80265">
        <ele>257</ele>
        <time>2018-09-11T08:51:43Z</time>
      </trkpt>
      <trkpt lat="45.94938" lon="4.80271">
        <ele>257</ele>
        <time>2018-09-11T08:51:44Z</time>
      </trkpt>
      <trkpt lat="45.94938" lon="4.80278">
        <ele>257</ele>
        <time>2018-09-11T08:51:45Z</time>
      </trkpt>
      <trkpt lat="45.94937" lon="4.80284">
        <ele>257</ele>
        <time>2018-09-11T08:51:46Z</time>
      </trkpt>
      <trkpt lat="45.94937" lon="4.80292">
        <ele>257</ele>
        <time>2018-09-11T08:51:49Z</time>
      </trkpt>
      <trkpt lat="45.94937" lon="4.80303">
        <ele>257</ele>
        <time>2018-09-11T08:51:50Z</time>
      </trkpt>
      <trkpt lat="45.94937" lon="4.80315">
        <ele>257</ele>
        <time>2018-09-11T08:51:52Z</time>
      </trkpt>
      <trkpt lat="45.94937" lon="4.80321">
        <ele>257</ele>
        <time>2018-09-11T08:51:53Z</time>
      </trkpt>
      <trkpt lat="45.94938" lon="4.80334">
        <ele>258</ele>
        <time>2018-09-11T08:51:55Z</time>
      </trkpt>
      <trkpt lat="45.94937" lon="4.80338">
        <ele>258</ele>
        <time>2018-09-11T08:51:56Z</time>
      </trkpt>
      <trkpt lat="45.94938" lon="4.8035">
        <ele>258</ele>
        <time>2018-09-11T08:51:59Z</time>
      </trkpt>
      <trkpt lat="45.94937" lon="4.80352">
        <ele>258</ele>
        <time>2018-09-11T08:52:00Z</time>
      </trkpt>
      <trkpt lat="45.94937" lon="4.80361">
        <ele>258</ele>
        <time>2018-09-11T08:52:01Z</time>
      </trkpt>
      <trkpt lat="45.94938" lon="4.80368">
        <ele>258</ele>
        <time>2018-09-11T08:52:02Z</time>
      </trkpt>
      <trkpt lat="45.94938" lon="4.80373">
        <ele>258</ele>
        <time>2018-09-11T08:52:03Z</time>
      </trkpt>
      <trkpt lat="45.94938" lon="4.80381">
        <ele>258</ele>
        <time>2018-09-11T08:52:04Z</time>
      </trkpt>
      <trkpt lat="45.94938" lon="4.80387">
        <ele>258</ele>
        <time>2018-09-11T08:52:05Z</time>
      </trkpt>
      <trkpt lat="45.94939" lon="4.80394">
        <ele>258</ele>
        <time>2018-09-11T08:52:06Z</time>
      </trkpt>
      <trkpt lat="45.94939" lon="4.80407">
        <ele>259</ele>
        <time>2018-09-11T08:52:08Z</time>
      </trkpt>
      <trkpt lat="45.9494" lon="4.80413">
        <ele>259</ele>
        <time>2018-09-11T08:52:09Z</time>
      </trkpt>
      <trkpt lat="45.94942" lon="4.80424">
        <ele>259</ele>
        <time>2018-09-11T08:52:11Z</time>
      </trkpt>
      <trkpt lat="45.94943" lon="4.8043">
        <ele>259</ele>
        <time>2018-09-11T08:52:12Z</time>
      </trkpt>
      <trkpt lat="45.94942" lon="4.80435">
        <ele>259</ele>
        <time>2018-09-11T08:52:13Z</time>
      </trkpt>
      <trkpt lat="45.94944" lon="4.80443">
        <ele>259</ele>
        <time>2018-09-11T08:52:14Z</time>
      </trkpt>
      <trkpt lat="45.94945" lon="4.80451">
        <ele>259</ele>
        <time>2018-09-11T08:52:15Z</time>
      </trkpt>
      <trkpt lat="45.94944" lon="4.80458">
        <ele>258</ele>
        <time>2018-09-11T08:52:16Z</time>
      </trkpt>
      <trkpt lat="45.94943" lon="4.80466">
        <ele>258</ele>
        <time>2018-09-11T08:52:17Z</time>
      </trkpt>
      <trkpt lat="45.94944" lon="4.80476">
        <ele>258</ele>
        <time>2018-09-11T08:52:18Z</time>
      </trkpt>
      <trkpt lat="45.94945" lon="4.8048">
        <ele>258</ele>
        <time>2018-09-11T08:52:19Z</time>
      </trkpt>
      <trkpt lat="45.94945" lon="4.80489">
        <ele>258</ele>
        <time>2018-09-11T08:52:20Z</time>
      </trkpt>
      <trkpt lat="45.94945" lon="4.80501">
        <ele>258</ele>
        <time>2018-09-11T08:52:22Z</time>
      </trkpt>
      <trkpt lat="45.94946" lon="4.80507">
        <ele>258</ele>
        <time>2018-09-11T08:52:23Z</time>
      </trkpt>
      <trkpt lat="45.94946" lon="4.80518">
        <ele>258</ele>
        <time>2018-09-11T08:52:25Z</time>
      </trkpt>
      <trkpt lat="45.94946" lon="4.80524">
        <ele>258</ele>
        <time>2018-09-11T08:52:26Z</time>
      </trkpt>
      <trkpt lat="45.94948" lon="4.80535">
        <ele>258</ele>
        <time>2018-09-11T08:52:28Z</time>
      </trkpt>
      <trkpt lat="45.94949" lon="4.80541">
        <ele>258</ele>
        <time>2018-09-11T08:52:29Z</time>
      </trkpt>
      <trkpt lat="45.94949" lon="4.80553">
        <ele>258</ele>
        <time>2018-09-11T08:52:31Z</time>
      </trkpt>
      <trkpt lat="45.94949" lon="4.80559">
        <ele>257</ele>
        <time>2018-09-11T08:52:32Z</time>
      </trkpt>
      <trkpt lat="45.94949" lon="4.80565">
        <ele>257</ele>
        <time>2018-09-11T08:52:33Z</time>
      </trkpt>
      <trkpt lat="45.94949" lon="4.80572">
        <ele>257</ele>
        <time>2018-09-11T08:52:34Z</time>
      </trkpt>
      <trkpt lat="45.9495" lon="4.80584">
        <ele>258</ele>
        <time>2018-09-11T08:52:36Z</time>
      </trkpt>
      <trkpt lat="45.9495" lon="4.80591">
        <ele>258</ele>
        <time>2018-09-11T08:52:37Z</time>
      </trkpt>
      <trkpt lat="45.94951" lon="4.80602">
        <ele>258</ele>
        <time>2018-09-11T08:52:39Z</time>
      </trkpt>
      <trkpt lat="45.9495" lon="4.8061">
        <ele>258</ele>
        <time>2018-09-11T08:52:40Z</time>
      </trkpt>
      <trkpt lat="45.94951" lon="4.80619">
        <ele>258</ele>
        <time>2018-09-11T08:52:41Z</time>
      </trkpt>
      <trkpt lat="45.94951" lon="4.80627">
        <ele>258</ele>
        <time>2018-09-11T08:52:42Z</time>
      </trkpt>
      <trkpt lat="45.94951" lon="4.80635">
        <ele>258</ele>
        <time>2018-09-11T08:52:43Z</time>
      </trkpt>
      <trkpt lat="45.94951" lon="4.80642">
        <ele>258</ele>
        <time>2018-09-11T08:52:44Z</time>
      </trkpt>
      <trkpt lat="45.94951" lon="4.80654">
        <ele>259</ele>
        <time>2018-09-11T08:52:46Z</time>
      </trkpt>
      <trkpt lat="45.9495" lon="4.8066">
        <ele>259</ele>
        <time>2018-09-11T08:52:47Z</time>
      </trkpt>
      <trkpt lat="45.9495" lon="4.80665">
        <ele>259</ele>
        <time>2018-09-11T08:52:48Z</time>
      </trkpt>
      <trkpt lat="45.9495" lon="4.80673">
        <ele>259</ele>
        <time>2018-09-11T08:52:49Z</time>
      </trkpt>
      <trkpt lat="45.9495" lon="4.80682">
        <ele>259</ele>
        <time>2018-09-11T08:52:51Z</time>
      </trkpt>
      <trkpt lat="45.9495" lon="4.80687">
        <ele>259</ele>
        <time>2018-09-11T08:52:52Z</time>
      </trkpt>
      <trkpt lat="45.94949" lon="4.807">
        <ele>259</ele>
        <time>2018-09-11T08:52:54Z</time>
      </trkpt>
      <trkpt lat="45.94949" lon="4.80707">
        <ele>259</ele>
        <time>2018-09-11T08:52:55Z</time>
      </trkpt>
      <trkpt lat="45.94949" lon="4.80714">
        <ele>259</ele>
        <time>2018-09-11T08:52:56Z</time>
      </trkpt>
      <trkpt lat="45.9495" lon="4.8072">
        <ele>259</ele>
        <time>2018-09-11T08:52:57Z</time>
      </trkpt>
      <trkpt lat="45.94949" lon="4.80731">
        <ele>259</ele>
        <time>2018-09-11T08:52:59Z</time>
      </trkpt>
      <trkpt lat="45.9495" lon="4.80739">
        <ele>259</ele>
        <time>2018-09-11T08:53:00Z</time>
      </trkpt>
      <trkpt lat="45.94948" lon="4.80751">
        <ele>259</ele>
        <time>2018-09-11T08:53:02Z</time>
      </trkpt>
      <trkpt lat="45.94948" lon="4.80756">
        <ele>259</ele>
        <time>2018-09-11T08:53:03Z</time>
      </trkpt>
      <trkpt lat="45.94949" lon="4.80763">
        <ele>259</ele>
        <time>2018-09-11T08:53:04Z</time>
      </trkpt>
      <trkpt lat="45.94948" lon="4.80769">
        <ele>259</ele>
        <time>2018-09-11T08:53:05Z</time>
      </trkpt>
      <trkpt lat="45.94945" lon="4.80779">
        <ele>259</ele>
        <time>2018-09-11T08:53:08Z</time>
      </trkpt>
      <trkpt lat="45.94944" lon="4.80782">
        <ele>259</ele>
        <time>2018-09-11T08:53:09Z</time>
      </trkpt>
      <trkpt lat="45.94944" lon="4.8079">
        <ele>259</ele>
        <time>2018-09-11T08:53:11Z</time>
      </trkpt>
      <trkpt lat="45.94946" lon="4.80801">
        <ele>259</ele>
        <time>2018-09-11T08:53:12Z</time>
      </trkpt>
      <trkpt lat="45.94948" lon="4.80806">
        <ele>259</ele>
        <time>2018-09-11T08:53:13Z</time>
      </trkpt>
      <trkpt lat="45.94951" lon="4.80813">
        <ele>258</ele>
        <time>2018-09-11T08:53:14Z</time>
      </trkpt>
      <trkpt lat="45.94954" lon="4.80819">
        <ele>258</ele>
        <time>2018-09-11T08:53:15Z</time>
      </trkpt>
      <trkpt lat="45.94957" lon="4.80826">
        <ele>258</ele>
        <time>2018-09-11T08:53:16Z</time>
      </trkpt>
      <trkpt lat="45.94959" lon="4.80834">
        <ele>259</ele>
        <time>2018-09-11T08:53:17Z</time>
      </trkpt>
      <trkpt lat="45.94962" lon="4.80839">
        <ele>259</ele>
        <time>2018-09-11T08:53:18Z</time>
      </trkpt>
      <trkpt lat="45.94963" lon="4.80846">
        <ele>259</ele>
        <time>2018-09-11T08:53:19Z</time>
      </trkpt>
      <trkpt lat="45.94965" lon="4.80853">
        <ele>259</ele>
        <time>2018-09-11T08:53:20Z</time>
      </trkpt>
      <trkpt lat="45.94967" lon="4.80865">
        <ele>259</ele>
        <time>2018-09-11T08:53:22Z</time>
      </trkpt>
      <trkpt lat="45.94968" lon="4.80872">
        <ele>259</ele>
        <time>2018-09-11T08:53:23Z</time>
      </trkpt>
      <trkpt lat="45.94969" lon="4.80878">
        <ele>258</ele>
        <time>2018-09-11T08:53:24Z</time>
      </trkpt>
      <trkpt lat="45.94968" lon="4.80885">
        <ele>258</ele>
        <time>2018-09-11T08:53:25Z</time>
      </trkpt>
      <trkpt lat="45.9497" lon="4.80892">
        <ele>258</ele>
        <time>2018-09-11T08:53:26Z</time>
      </trkpt>
      <trkpt lat="45.94971" lon="4.809">
        <ele>258</ele>
        <time>2018-09-11T08:53:27Z</time>
      </trkpt>
      <trkpt lat="45.94973" lon="4.80907">
        <ele>258</ele>
        <time>2018-09-11T08:53:28Z</time>
      </trkpt>
      <trkpt lat="45.94974" lon="4.80914">
        <ele>258</ele>
        <time>2018-09-11T08:53:29Z</time>
      </trkpt>
      <trkpt lat="45.94976" lon="4.80922">
        <ele>258</ele>
        <time>2018-09-11T08:53:30Z</time>
      </trkpt>
      <trkpt lat="45.94978" lon="4.80928">
        <ele>258</ele>
        <time>2018-09-11T08:53:31Z</time>
      </trkpt>
      <trkpt lat="45.94979" lon="4.80936">
        <ele>258</ele>
        <time>2018-09-11T08:53:32Z</time>
      </trkpt>
      <trkpt lat="45.9498" lon="4.80943">
        <ele>258</ele>
        <time>2018-09-11T08:53:33Z</time>
      </trkpt>
      <trkpt lat="45.94982" lon="4.80953">
        <ele>258</ele>
        <time>2018-09-11T08:53:35Z</time>
      </trkpt>
      <trkpt lat="45.94983" lon="4.80959">
        <ele>258</ele>
        <time>2018-09-11T08:53:36Z</time>
      </trkpt>
      <trkpt lat="45.94983" lon="4.80967">
        <ele>258</ele>
        <time>2018-09-11T08:53:37Z</time>
      </trkpt>
      <trkpt lat="45.94984" lon="4.80974">
        <ele>258</ele>
        <time>2018-09-11T08:53:38Z</time>
      </trkpt>
      <trkpt lat="45.94985" lon="4.80983">
        <ele>258</ele>
        <time>2018-09-11T08:53:39Z</time>
      </trkpt>
      <trkpt lat="45.94986" lon="4.80991">
        <ele>257</ele>
        <time>2018-09-11T08:53:40Z</time>
      </trkpt>
      <trkpt lat="45.94987" lon="4.80998">
        <ele>257</ele>
        <time>2018-09-11T08:53:41Z</time>
      </trkpt>
      <trkpt lat="45.94988" lon="4.81006">
        <ele>257</ele>
        <time>2018-09-11T08:53:42Z</time>
      </trkpt>
      <trkpt lat="45.94988" lon="4.81014">
        <ele>257</ele>
        <time>2018-09-11T08:53:43Z</time>
      </trkpt>
      <trkpt lat="45.94988" lon="4.81022">
        <ele>257</ele>
        <time>2018-09-11T08:53:44Z</time>
      </trkpt>
      <trkpt lat="45.94989" lon="4.81032">
        <ele>257</ele>
        <time>2018-09-11T08:53:45Z</time>
      </trkpt>
      <trkpt lat="45.94989" lon="4.81039">
        <ele>257</ele>
        <time>2018-09-11T08:53:46Z</time>
      </trkpt>
      <trkpt lat="45.9499" lon="4.81048">
        <ele>257</ele>
        <time>2018-09-11T08:53:47Z</time>
      </trkpt>
      <trkpt lat="45.9499" lon="4.81056">
        <ele>257</ele>
        <time>2018-09-11T08:53:48Z</time>
      </trkpt>
      <trkpt lat="45.94989" lon="4.81064">
        <ele>257</ele>
        <time>2018-09-11T08:53:49Z</time>
      </trkpt>
      <trkpt lat="45.94989" lon="4.81072">
        <ele>257</ele>
        <time>2018-09-11T08:53:50Z</time>
      </trkpt>
      <trkpt lat="45.9499" lon="4.81082">
        <ele>257</ele>
        <time>2018-09-11T08:53:51Z</time>
      </trkpt>
      <trkpt lat="45.9499" lon="4.81091">
        <ele>257</ele>
        <time>2018-09-11T08:53:52Z</time>
      </trkpt>
      <trkpt lat="45.94991" lon="4.81097">
        <ele>257</ele>
        <time>2018-09-11T08:53:53Z</time>
      </trkpt>
      <trkpt lat="45.94993" lon="4.81103">
        <ele>257</ele>
        <time>2018-09-11T08:53:54Z</time>
      </trkpt>
      <trkpt lat="45.94994" lon="4.81109">
        <ele>257</ele>
        <time>2018-09-11T08:53:55Z</time>
      </trkpt>
      <trkpt lat="45.94995" lon="4.81118">
        <ele>257</ele>
        <time>2018-09-11T08:53:56Z</time>
      </trkpt>
      <trkpt lat="45.94997" lon="4.81128">
        <ele>256</ele>
        <time>2018-09-11T08:53:57Z</time>
      </trkpt>
      <trkpt lat="45.94997" lon="4.81136">
        <ele>256</ele>
        <time>2018-09-11T08:53:58Z</time>
      </trkpt>
      <trkpt lat="45.94999" lon="4.81143">
        <ele>256</ele>
        <time>2018-09-11T08:53:59Z</time>
      </trkpt>
      <trkpt lat="45.95" lon="4.81152">
        <ele>256</ele>
        <time>2018-09-11T08:54:00Z</time>
      </trkpt>
      <trkpt lat="45.95001" lon="4.8116">
        <ele>256</ele>
        <time>2018-09-11T08:54:01Z</time>
      </trkpt>
      <trkpt lat="45.95001" lon="4.81165">
        <ele>256</ele>
        <time>2018-09-11T08:54:02Z</time>
      </trkpt>
      <trkpt lat="45.95001" lon="4.81174">
        <ele>256</ele>
        <time>2018-09-11T08:54:03Z</time>
      </trkpt>
      <trkpt lat="45.95002" lon="4.81182">
        <ele>256</ele>
        <time>2018-09-11T08:54:04Z</time>
      </trkpt>
      <trkpt lat="45.95003" lon="4.81192">
        <ele>256</ele>
        <time>2018-09-11T08:54:05Z</time>
      </trkpt>
      <trkpt lat="45.95004" lon="4.81201">
        <ele>256</ele>
        <time>2018-09-11T08:54:06Z</time>
      </trkpt>
      <trkpt lat="45.95005" lon="4.81209">
        <ele>256</ele>
        <time>2018-09-11T08:54:07Z</time>
      </trkpt>
      <trkpt lat="45.95006" lon="4.81218">
        <ele>256</ele>
        <time>2018-09-11T08:54:08Z</time>
      </trkpt>
      <trkpt lat="45.95007" lon="4.81225">
        <ele>256</ele>
        <time>2018-09-11T08:54:09Z</time>
      </trkpt>
      <trkpt lat="45.95008" lon="4.81235">
        <ele>256</ele>
        <time>2018-09-11T08:54:10Z</time>
      </trkpt>
      <trkpt lat="45.9501" lon="4.81243">
        <ele>256</ele>
        <time>2018-09-11T08:54:11Z</time>
      </trkpt>
      <trkpt lat="45.95011" lon="4.81252">
        <ele>256</ele>
        <time>2018-09-11T08:54:12Z</time>
      </trkpt>
      <trkpt lat="45.95012" lon="4.81259">
        <ele>256</ele>
        <time>2018-09-11T08:54:13Z</time>
      </trkpt>
      <trkpt lat="45.95014" lon="4.81268">
        <ele>255</ele>
        <time>2018-09-11T08:54:14Z</time>
      </trkpt>
      <trkpt lat="45.95014" lon="4.81277">
        <ele>255</ele>
        <time>2018-09-11T08:54:15Z</time>
      </trkpt>
      <trkpt lat="45.95015" lon="4.81284">
        <ele>255</ele>
        <time>2018-09-11T08:54:16Z</time>
      </trkpt>
      <trkpt lat="45.95017" lon="4.81291">
        <ele>255</ele>
        <time>2018-09-11T08:54:17Z</time>
      </trkpt>
      <trkpt lat="45.95019" lon="4.813">
        <ele>255</ele>
        <time>2018-09-11T08:54:18Z</time>
      </trkpt>
      <trkpt lat="45.95022" lon="4.81308">
        <ele>255</ele>
        <time>2018-09-11T08:54:19Z</time>
      </trkpt>
      <trkpt lat="45.95024" lon="4.81317">
        <ele>255</ele>
        <time>2018-09-11T08:54:20Z</time>
      </trkpt>
      <trkpt lat="45.95026" lon="4.81325">
        <ele>255</ele>
        <time>2018-09-11T08:54:21Z</time>
      </trkpt>
      <trkpt lat="45.95029" lon="4.81334">
        <ele>254</ele>
        <time>2018-09-11T08:54:22Z</time>
      </trkpt>
      <trkpt lat="45.95031" lon="4.81343">
        <ele>254</ele>
        <time>2018-09-11T08:54:23Z</time>
      </trkpt>
      <trkpt lat="45.95034" lon="4.81352">
        <ele>254</ele>
        <time>2018-09-11T08:54:24Z</time>
      </trkpt>
      <trkpt lat="45.95037" lon="4.8136">
        <ele>254</ele>
        <time>2018-09-11T08:54:25Z</time>
      </trkpt>
      <trkpt lat="45.9504" lon="4.81368">
        <ele>254</ele>
        <time>2018-09-11T08:54:26Z</time>
      </trkpt>
      <trkpt lat="45.95046" lon="4.81378">
        <ele>254</ele>
        <time>2018-09-11T08:54:27Z</time>
      </trkpt>
      <trkpt lat="45.95048" lon="4.81387">
        <ele>253</ele>
        <time>2018-09-11T08:54:28Z</time>
      </trkpt>
      <trkpt lat="45.95052" lon="4.81397">
        <ele>253</ele>
        <time>2018-09-11T08:54:29Z</time>
      </trkpt>
      <trkpt lat="45.95054" lon="4.81406">
        <ele>253</ele>
        <time>2018-09-11T08:54:30Z</time>
      </trkpt>
      <trkpt lat="45.95059" lon="4.81413">
        <ele>253</ele>
        <time>2018-09-11T08:54:31Z</time>
      </trkpt>
      <trkpt lat="45.95064" lon="4.81422">
        <ele>252</ele>
        <time>2018-09-11T08:54:32Z</time>
      </trkpt>
      <trkpt lat="45.95067" lon="4.81431">
        <ele>252</ele>
        <time>2018-09-11T08:54:33Z</time>
      </trkpt>
      <trkpt lat="45.95071" lon="4.8144">
        <ele>252</ele>
        <time>2018-09-11T08:54:34Z</time>
      </trkpt>
      <trkpt lat="45.95074" lon="4.81449">
        <ele>253</ele>
        <time>2018-09-11T08:54:35Z</time>
      </trkpt>
      <trkpt lat="45.95077" lon="4.81458">
        <ele>253</ele>
        <time>2018-09-11T08:54:36Z</time>
      </trkpt>
      <trkpt lat="45.9508" lon="4.81469">
        <ele>253</ele>
        <time>2018-09-11T08:54:37Z</time>
      </trkpt>
      <trkpt lat="45.95084" lon="4.8148">
        <ele>251</ele>
        <time>2018-09-11T08:54:38Z</time>
      </trkpt>
      <trkpt lat="45.95086" lon="4.81489">
        <ele>251</ele>
        <time>2018-09-11T08:54:39Z</time>
      </trkpt>
      <trkpt lat="45.9509" lon="4.81498">
        <ele>252</ele>
        <time>2018-09-11T08:54:40Z</time>
      </trkpt>
      <trkpt lat="45.95093" lon="4.81509">
        <ele>252</ele>
        <time>2018-09-11T08:54:41Z</time>
      </trkpt>
      <trkpt lat="45.95096" lon="4.81519">
        <ele>251</ele>
        <time>2018-09-11T08:54:42Z</time>
      </trkpt>
      <trkpt lat="45.951" lon="4.81529">
        <ele>251</ele>
        <time>2018-09-11T08:54:43Z</time>
      </trkpt>
      <trkpt lat="45.95102" lon="4.81539">
        <ele>251</ele>
        <time>2018-09-11T08:54:44Z</time>
      </trkpt>
      <trkpt lat="45.95104" lon="4.81548">
        <ele>251</ele>
        <time>2018-09-11T08:54:45Z</time>
      </trkpt>
      <trkpt lat="45.95108" lon="4.81559">
        <ele>251</ele>
        <time>2018-09-11T08:54:46Z</time>
      </trkpt>
      <trkpt lat="45.95113" lon="4.81571">
        <ele>251</ele>
        <time>2018-09-11T08:54:47Z</time>
      </trkpt>
      <trkpt lat="45.95115" lon="4.8158">
        <ele>251</ele>
        <time>2018-09-11T08:54:48Z</time>
      </trkpt>
      <trkpt lat="45.95118" lon="4.81587">
        <ele>252</ele>
        <time>2018-09-11T08:54:49Z</time>
      </trkpt>
      <trkpt lat="45.95121" lon="4.81596">
        <ele>252</ele>
        <time>2018-09-11T08:54:50Z</time>
      </trkpt>
      <trkpt lat="45.95124" lon="4.81604">
        <ele>252</ele>
        <time>2018-09-11T08:54:51Z</time>
      </trkpt>
      <trkpt lat="45.95126" lon="4.81611">
        <ele>252</ele>
        <time>2018-09-11T08:54:52Z</time>
      </trkpt>
      <trkpt lat="45.95128" lon="4.81619">
        <ele>252</ele>
        <time>2018-09-11T08:54:53Z</time>
      </trkpt>
      <trkpt lat="45.95129" lon="4.81626">
        <ele>253</ele>
        <time>2018-09-11T08:54:54Z</time>
      </trkpt>
      <trkpt lat="45.95131" lon="4.81633">
        <ele>253</ele>
        <time>2018-09-11T08:54:55Z</time>
      </trkpt>
      <trkpt lat="45.95133" lon="4.81639">
        <ele>253</ele>
        <time>2018-09-11T08:54:56Z</time>
      </trkpt>
      <trkpt lat="45.95134" lon="4.81645">
        <ele>253</ele>
        <time>2018-09-11T08:54:57Z</time>
      </trkpt>
      <trkpt lat="45.95136" lon="4.81651">
        <ele>253</ele>
        <time>2018-09-11T08:54:58Z</time>
      </trkpt>
      <trkpt lat="45.95138" lon="4.81658">
        <ele>253</ele>
        <time>2018-09-11T08:54:59Z</time>
      </trkpt>
      <trkpt lat="45.95142" lon="4.81669">
        <ele>255</ele>
        <time>2018-09-11T08:55:01Z</time>
      </trkpt>
      <trkpt lat="45.95144" lon="4.81672">
        <ele>255</ele>
        <time>2018-09-11T08:55:02Z</time>
      </trkpt>
      <trkpt lat="45.95148" lon="4.81681">
        <ele>255</ele>
        <time>2018-09-11T08:55:05Z</time>
      </trkpt>
      <trkpt lat="45.95149" lon="4.81684">
        <ele>255</ele>
        <time>2018-09-11T08:55:06Z</time>
      </trkpt>
      <trkpt lat="45.9515" lon="4.81688">
        <ele>255</ele>
        <time>2018-09-11T08:55:07Z</time>
      </trkpt>
      <trkpt lat="45.95154" lon="4.817">
        <ele>255</ele>
        <time>2018-09-11T08:55:08Z</time>
      </trkpt>
      <trkpt lat="45.95158" lon="4.8171">
        <ele>256</ele>
        <time>2018-09-11T08:55:12Z</time>
      </trkpt>
      <trkpt lat="45.95159" lon="4.81713">
        <ele>256</ele>
        <time>2018-09-11T08:55:13Z</time>
      </trkpt>
      <trkpt lat="45.95161" lon="4.81721">
        <ele>256</ele>
        <time>2018-09-11T08:55:15Z</time>
      </trkpt>
      <trkpt lat="45.95163" lon="4.81725">
        <ele>256</ele>
        <time>2018-09-11T08:55:16Z</time>
      </trkpt>
      <trkpt lat="45.95166" lon="4.81733">
        <ele>257</ele>
        <time>2018-09-11T08:55:18Z</time>
      </trkpt>
      <trkpt lat="45.95172" lon="4.81744">
        <ele>258</ele>
        <time>2018-09-11T08:55:19Z</time>
      </trkpt>
      <trkpt lat="45.95177" lon="4.81752">
        <ele>258</ele>
        <time>2018-09-11T08:55:22Z</time>
      </trkpt>
      <trkpt lat="45.95179" lon="4.81754">
        <ele>258</ele>
        <time>2018-09-11T08:55:23Z</time>
      </trkpt>
      <trkpt lat="45.95181" lon="4.81757">
        <ele>258</ele>
        <time>2018-09-11T08:55:24Z</time>
      </trkpt>
      <trkpt lat="45.95188" lon="4.81766">
        <ele>258</ele>
        <time>2018-09-11T08:55:25Z</time>
      </trkpt>
      <trkpt lat="45.95193" lon="4.81774">
        <ele>258</ele>
        <time>2018-09-11T08:55:27Z</time>
      </trkpt>
      <trkpt lat="45.95196" lon="4.81778">
        <ele>258</ele>
        <time>2018-09-11T08:55:28Z</time>
      </trkpt>
      <trkpt lat="45.952" lon="4.81785">
        <ele>258</ele>
        <time>2018-09-11T08:55:30Z</time>
      </trkpt>
      <trkpt lat="45.95204" lon="4.81791">
        <ele>259</ele>
        <time>2018-09-11T08:55:31Z</time>
      </trkpt>
      <trkpt lat="45.9521" lon="4.818">
        <ele>259</ele>
        <time>2018-09-11T08:55:34Z</time>
      </trkpt>
      <trkpt lat="45.95215" lon="4.81806">
        <ele>259</ele>
        <time>2018-09-11T08:55:35Z</time>
      </trkpt>
      <trkpt lat="45.9522" lon="4.81812">
        <ele>259</ele>
        <time>2018-09-11T08:55:37Z</time>
      </trkpt>
      <trkpt lat="45.95223" lon="4.81816">
        <ele>259</ele>
        <time>2018-09-11T08:55:38Z</time>
      </trkpt>
      <trkpt lat="45.95229" lon="4.81825">
        <ele>259</ele>
        <time>2018-09-11T08:55:40Z</time>
      </trkpt>
      <trkpt lat="45.95231" lon="4.81829">
        <ele>259</ele>
        <time>2018-09-11T08:55:41Z</time>
      </trkpt>
      <trkpt lat="45.95237" lon="4.81838">
        <ele>260</ele>
        <time>2018-09-11T08:55:43Z</time>
      </trkpt>
      <trkpt lat="45.9524" lon="4.81842">
        <ele>260</ele>
        <time>2018-09-11T08:55:44Z</time>
      </trkpt>
      <trkpt lat="45.95246" lon="4.81851">
        <ele>260</ele>
        <time>2018-09-11T08:55:46Z</time>
      </trkpt>
      <trkpt lat="45.95248" lon="4.81855">
        <ele>260</ele>
        <time>2018-09-11T08:55:47Z</time>
      </trkpt>
      <trkpt lat="45.95251" lon="4.8186">
        <ele>260</ele>
        <time>2018-09-11T08:55:49Z</time>
      </trkpt>
      <trkpt lat="45.95256" lon="4.81867">
        <ele>260</ele>
        <time>2018-09-11T08:55:50Z</time>
      </trkpt>
      <trkpt lat="45.95261" lon="4.81875">
        <ele>260</ele>
        <time>2018-09-11T08:55:52Z</time>
      </trkpt>
      <trkpt lat="45.95264" lon="4.81879">
        <ele>260</ele>
        <time>2018-09-11T08:55:53Z</time>
      </trkpt>
      <trkpt lat="45.95267" lon="4.81886">
        <ele>260</ele>
        <time>2018-09-11T08:55:54Z</time>
      </trkpt>
      <trkpt lat="45.9527" lon="4.81891">
        <ele>260</ele>
        <time>2018-09-11T08:55:55Z</time>
      </trkpt>
      <trkpt lat="45.95276" lon="4.81899">
        <ele>260</ele>
        <time>2018-09-11T08:55:57Z</time>
      </trkpt>
      <trkpt lat="45.9528" lon="4.81903">
        <ele>260</ele>
        <time>2018-09-11T08:55:58Z</time>
      </trkpt>
      <trkpt lat="45.95286" lon="4.81911">
        <ele>260</ele>
        <time>2018-09-11T08:56:00Z</time>
      </trkpt>
      <trkpt lat="45.95289" lon="4.81915">
        <ele>260</ele>
        <time>2018-09-11T08:56:01Z</time>
      </trkpt>
      <trkpt lat="45.95295" lon="4.81924">
        <ele>261</ele>
        <time>2018-09-11T08:56:03Z</time>
      </trkpt>
      <trkpt lat="45.95297" lon="4.81928">
        <ele>261</ele>
        <time>2018-09-11T08:56:04Z</time>
      </trkpt>
      <trkpt lat="45.95301" lon="4.81934">
        <ele>261</ele>
        <time>2018-09-11T08:56:06Z</time>
      </trkpt>
      <trkpt lat="45.95305" lon="4.81939">
        <ele>261</ele>
        <time>2018-09-11T08:56:07Z</time>
      </trkpt>
      <trkpt lat="45.95311" lon="4.81947">
        <ele>261</ele>
        <time>2018-09-11T08:56:09Z</time>
      </trkpt>
      <trkpt lat="45.95314" lon="4.8195">
        <ele>262</ele>
        <time>2018-09-11T08:56:10Z</time>
      </trkpt>
      <trkpt lat="45.95322" lon="4.81955">
        <ele>262</ele>
        <time>2018-09-11T08:56:12Z</time>
      </trkpt>
      <trkpt lat="45.95326" lon="4.81959">
        <ele>262</ele>
        <time>2018-09-11T08:56:13Z</time>
      </trkpt>
      <trkpt lat="45.95329" lon="4.81963">
        <ele>262</ele>
        <time>2018-09-11T08:56:14Z</time>
      </trkpt>
      <trkpt lat="45.95333" lon="4.81968">
        <ele>262</ele>
        <time>2018-09-11T08:56:15Z</time>
      </trkpt>
      <trkpt lat="45.95337" lon="4.81972">
        <ele>262</ele>
        <time>2018-09-11T08:56:16Z</time>
      </trkpt>
      <trkpt lat="45.9534" lon="4.81976">
        <ele>262</ele>
        <time>2018-09-11T08:56:17Z</time>
      </trkpt>
      <trkpt lat="45.95347" lon="4.81983">
        <ele>262</ele>
        <time>2018-09-11T08:56:19Z</time>
      </trkpt>
      <trkpt lat="45.95351" lon="4.81986">
        <ele>262</ele>
        <time>2018-09-11T08:56:20Z</time>
      </trkpt>
      <trkpt lat="45.95354" lon="4.81991">
        <ele>262</ele>
        <time>2018-09-11T08:56:21Z</time>
      </trkpt>
      <trkpt lat="45.95358" lon="4.81995">
        <ele>262</ele>
        <time>2018-09-11T08:56:22Z</time>
      </trkpt>
      <trkpt lat="45.95365" lon="4.82003">
        <ele>262</ele>
        <time>2018-09-11T08:56:24Z</time>
      </trkpt>
      <trkpt lat="45.95369" lon="4.82007">
        <ele>262</ele>
        <time>2018-09-11T08:56:25Z</time>
      </trkpt>
      <trkpt lat="45.95373" lon="4.82013">
        <ele>262</ele>
        <time>2018-09-11T08:56:26Z</time>
      </trkpt>
      <trkpt lat="45.95378" lon="4.82016">
        <ele>262</ele>
        <time>2018-09-11T08:56:27Z</time>
      </trkpt>
      <trkpt lat="45.95382" lon="4.82021">
        <ele>262</ele>
        <time>2018-09-11T08:56:28Z</time>
      </trkpt>
      <trkpt lat="45.95386" lon="4.82024">
        <ele>261</ele>
        <time>2018-09-11T08:56:29Z</time>
      </trkpt>
      <trkpt lat="45.95391" lon="4.8203">
        <ele>261</ele>
        <time>2018-09-11T08:56:30Z</time>
      </trkpt>
      <trkpt lat="45.95395" lon="4.82034">
        <ele>261</ele>
        <time>2018-09-11T08:56:31Z</time>
      </trkpt>
      <trkpt lat="45.95402" lon="4.82041">
        <ele>261</ele>
        <time>2018-09-11T08:56:33Z</time>
      </trkpt>
      <trkpt lat="45.95406" lon="4.82046">
        <ele>261</ele>
        <time>2018-09-11T08:56:34Z</time>
      </trkpt>
      <trkpt lat="45.95411" lon="4.82049">
        <ele>261</ele>
        <time>2018-09-11T08:56:35Z</time>
      </trkpt>
      <trkpt lat="45.95416" lon="4.82054">
        <ele>261</ele>
        <time>2018-09-11T08:56:36Z</time>
      </trkpt>
      <trkpt lat="45.95421" lon="4.82058">
        <ele>260</ele>
        <time>2018-09-11T08:56:37Z</time>
      </trkpt>
      <trkpt lat="45.95425" lon="4.82063">
        <ele>260</ele>
        <time>2018-09-11T08:56:38Z</time>
      </trkpt>
      <trkpt lat="45.9543" lon="4.82068">
        <ele>260</ele>
        <time>2018-09-11T08:56:39Z</time>
      </trkpt>
      <trkpt lat="45.95434" lon="4.82073">
        <ele>260</ele>
        <time>2018-09-11T08:56:40Z</time>
      </trkpt>
      <trkpt lat="45.95439" lon="4.82077">
        <ele>260</ele>
        <time>2018-09-11T08:56:41Z</time>
      </trkpt>
      <trkpt lat="45.95444" lon="4.82079">
        <ele>260</ele>
        <time>2018-09-11T08:56:42Z</time>
      </trkpt>
      <trkpt lat="45.95448" lon="4.8208">
        <ele>260</ele>
        <time>2018-09-11T08:56:43Z</time>
      </trkpt>
      <trkpt lat="45.95452" lon="4.82084">
        <ele>260</ele>
        <time>2018-09-11T08:56:44Z</time>
      </trkpt>
      <trkpt lat="45.9546" lon="4.82089">
        <ele>260</ele>
        <time>2018-09-11T08:56:46Z</time>
      </trkpt>
      <trkpt lat="45.95464" lon="4.82094">
        <ele>260</ele>
        <time>2018-09-11T08:56:47Z</time>
      </trkpt>
      <trkpt lat="45.95467" lon="4.82098">
        <ele>260</ele>
        <time>2018-09-11T08:56:48Z</time>
      </trkpt>
      <trkpt lat="45.9547" lon="4.82103">
        <ele>260</ele>
        <time>2018-09-11T08:56:49Z</time>
      </trkpt>
      <trkpt lat="45.95474" lon="4.82107">
        <ele>260</ele>
        <time>2018-09-11T08:56:50Z</time>
      </trkpt>
      <trkpt lat="45.95478" lon="4.82112">
        <ele>260</ele>
        <time>2018-09-11T08:56:51Z</time>
      </trkpt>
      <trkpt lat="45.95482" lon="4.82117">
        <ele>260</ele>
        <time>2018-09-11T08:56:52Z</time>
      </trkpt>
      <trkpt lat="45.95486" lon="4.82123">
        <ele>260</ele>
        <time>2018-09-11T08:56:53Z</time>
      </trkpt>
      <trkpt lat="45.95491" lon="4.82128">
        <ele>260</ele>
        <time>2018-09-11T08:56:54Z</time>
      </trkpt>
      <trkpt lat="45.95496" lon="4.82135">
        <ele>260</ele>
        <time>2018-09-11T08:56:55Z</time>
      </trkpt>
      <trkpt lat="45.95501" lon="4.8214">
        <ele>259</ele>
        <time>2018-09-11T08:56:56Z</time>
      </trkpt>
      <trkpt lat="45.95504" lon="4.82146">
        <ele>259</ele>
        <time>2018-09-11T08:56:57Z</time>
      </trkpt>
      <trkpt lat="45.95509" lon="4.8215">
        <ele>259</ele>
        <time>2018-09-11T08:56:58Z</time>
      </trkpt>
      <trkpt lat="45.95514" lon="4.82155">
        <ele>259</ele>
        <time>2018-09-11T08:56:59Z</time>
      </trkpt>
      <trkpt lat="45.95519" lon="4.8216">
        <ele>259</ele>
        <time>2018-09-11T08:57:00Z</time>
      </trkpt>
      <trkpt lat="45.95524" lon="4.82164">
        <ele>259</ele>
        <time>2018-09-11T08:57:01Z</time>
      </trkpt>
      <trkpt lat="45.95529" lon="4.8217">
        <ele>259</ele>
        <time>2018-09-11T08:57:02Z</time>
      </trkpt>
      <trkpt lat="45.95534" lon="4.82174">
        <ele>259</ele>
        <time>2018-09-11T08:57:03Z</time>
      </trkpt>
      <trkpt lat="45.95539" lon="4.82178">
        <ele>259</ele>
        <time>2018-09-11T08:57:04Z</time>
      </trkpt>
      <trkpt lat="45.95545" lon="4.82181">
        <ele>259</ele>
        <time>2018-09-11T08:57:05Z</time>
      </trkpt>
      <trkpt lat="45.9555" lon="4.82185">
        <ele>259</ele>
        <time>2018-09-11T08:57:06Z</time>
      </trkpt>
      <trkpt lat="45.95556" lon="4.82189">
        <ele>259</ele>
        <time>2018-09-11T08:57:07Z</time>
      </trkpt>
      <trkpt lat="45.95561" lon="4.82194">
        <ele>259</ele>
        <time>2018-09-11T08:57:08Z</time>
      </trkpt>
      <trkpt lat="45.95565" lon="4.82198">
        <ele>258</ele>
        <time>2018-09-11T08:57:09Z</time>
      </trkpt>
      <trkpt lat="45.9557" lon="4.82202">
        <ele>258</ele>
        <time>2018-09-11T08:57:10Z</time>
      </trkpt>
      <trkpt lat="45.95575" lon="4.82207">
        <ele>258</ele>
        <time>2018-09-11T08:57:11Z</time>
      </trkpt>
      <trkpt lat="45.9558" lon="4.82211">
        <ele>258</ele>
        <time>2018-09-11T08:57:12Z</time>
      </trkpt>
      <trkpt lat="45.95585" lon="4.82216">
        <ele>257</ele>
        <time>2018-09-11T08:57:13Z</time>
      </trkpt>
      <trkpt lat="45.9559" lon="4.82221">
        <ele>257</ele>
        <time>2018-09-11T08:57:14Z</time>
      </trkpt>
      <trkpt lat="45.95597" lon="4.82223">
        <ele>257</ele>
        <time>2018-09-11T08:57:15Z</time>
      </trkpt>
      <trkpt lat="45.95603" lon="4.82225">
        <ele>257</ele>
        <time>2018-09-11T08:57:16Z</time>
      </trkpt>
      <trkpt lat="45.9561" lon="4.82225">
        <ele>257</ele>
        <time>2018-09-11T08:57:17Z</time>
      </trkpt>
      <trkpt lat="45.95616" lon="4.82225">
        <ele>257</ele>
        <time>2018-09-11T08:57:18Z</time>
      </trkpt>
      <trkpt lat="45.95622" lon="4.82224">
        <ele>257</ele>
        <time>2018-09-11T08:57:19Z</time>
      </trkpt>
      <trkpt lat="45.95628" lon="4.82225">
        <ele>257</ele>
        <time>2018-09-11T08:57:20Z</time>
      </trkpt>
      <trkpt lat="45.95634" lon="4.82226">
        <ele>257</ele>
        <time>2018-09-11T08:57:21Z</time>
      </trkpt>
      <trkpt lat="45.9564" lon="4.82225">
        <ele>257</ele>
        <time>2018-09-11T08:57:22Z</time>
      </trkpt>
      <trkpt lat="45.95646" lon="4.82226">
        <ele>257</ele>
        <time>2018-09-11T08:57:23Z</time>
      </trkpt>
      <trkpt lat="45.95652" lon="4.82224">
        <ele>257</ele>
        <time>2018-09-11T08:57:24Z</time>
      </trkpt>
      <trkpt lat="45.95658" lon="4.82227">
        <ele>257</ele>
        <time>2018-09-11T08:57:25Z</time>
      </trkpt>
      <trkpt lat="45.95663" lon="4.82229">
        <ele>257</ele>
        <time>2018-09-11T08:57:26Z</time>
      </trkpt>
      <trkpt lat="45.95672" lon="4.82226">
        <ele>255</ele>
        <time>2018-09-11T08:57:27Z</time>
      </trkpt>
      <trkpt lat="45.95677" lon="4.82232">
        <ele>255</ele>
        <time>2018-09-11T08:57:28Z</time>
      </trkpt>
      <trkpt lat="45.95684" lon="4.82236">
        <ele>255</ele>
        <time>2018-09-11T08:57:29Z</time>
      </trkpt>
      <trkpt lat="45.95691" lon="4.8224">
        <ele>255</ele>
        <time>2018-09-11T08:57:30Z</time>
      </trkpt>
      <trkpt lat="45.95696" lon="4.82244">
        <ele>254</ele>
        <time>2018-09-11T08:57:31Z</time>
      </trkpt>
      <trkpt lat="45.95701" lon="4.82254">
        <ele>255</ele>
        <time>2018-09-11T08:57:32Z</time>
      </trkpt>
      <trkpt lat="45.95705" lon="4.82259">
        <ele>255</ele>
        <time>2018-09-11T08:57:33Z</time>
      </trkpt>
      <trkpt lat="45.9571" lon="4.82263">
        <ele>255</ele>
        <time>2018-09-11T08:57:34Z</time>
      </trkpt>
      <trkpt lat="45.95714" lon="4.8227">
        <ele>255</ele>
        <time>2018-09-11T08:57:35Z</time>
      </trkpt>
      <trkpt lat="45.95718" lon="4.82274">
        <ele>255</ele>
        <time>2018-09-11T08:57:36Z</time>
      </trkpt>
      <trkpt lat="45.95724" lon="4.8228">
        <ele>255</ele>
        <time>2018-09-11T08:57:37Z</time>
      </trkpt>
      <trkpt lat="45.95728" lon="4.82284">
        <ele>255</ele>
        <time>2018-09-11T08:57:38Z</time>
      </trkpt>
      <trkpt lat="45.95733" lon="4.8229">
        <ele>255</ele>
        <time>2018-09-11T08:57:39Z</time>
      </trkpt>
      <trkpt lat="45.95737" lon="4.82295">
        <ele>255</ele>
        <time>2018-09-11T08:57:40Z</time>
      </trkpt>
      <trkpt lat="45.95742" lon="4.82301">
        <ele>255</ele>
        <time>2018-09-11T08:57:41Z</time>
      </trkpt>
      <trkpt lat="45.95747" lon="4.82308">
        <ele>255</ele>
        <time>2018-09-11T08:57:42Z</time>
      </trkpt>
      <trkpt lat="45.95752" lon="4.82315">
        <ele>253</ele>
        <time>2018-09-11T08:57:43Z</time>
      </trkpt>
      <trkpt lat="45.95757" lon="4.82319">
        <ele>253</ele>
        <time>2018-09-11T08:57:44Z</time>
      </trkpt>
      <trkpt lat="45.95762" lon="4.82325">
        <ele>253</ele>
        <time>2018-09-11T08:57:45Z</time>
      </trkpt>
      <trkpt lat="45.95768" lon="4.8233">
        <ele>253</ele>
        <time>2018-09-11T08:57:46Z</time>
      </trkpt>
      <trkpt lat="45.95774" lon="4.82336">
        <ele>254</ele>
        <time>2018-09-11T08:57:47Z</time>
      </trkpt>
      <trkpt lat="45.95779" lon="4.82341">
        <ele>253</ele>
        <time>2018-09-11T08:57:48Z</time>
      </trkpt>
      <trkpt lat="45.95785" lon="4.82345">
        <ele>253</ele>
        <time>2018-09-11T08:57:49Z</time>
      </trkpt>
      <trkpt lat="45.9579" lon="4.8235">
        <ele>253</ele>
        <time>2018-09-11T08:57:50Z</time>
      </trkpt>
      <trkpt lat="45.95795" lon="4.82355">
        <ele>252</ele>
        <time>2018-09-11T08:57:51Z</time>
      </trkpt>
      <trkpt lat="45.95802" lon="4.82357">
        <ele>252</ele>
        <time>2018-09-11T08:57:52Z</time>
      </trkpt>
      <trkpt lat="45.95808" lon="4.82365">
        <ele>252</ele>
        <time>2018-09-11T08:57:53Z</time>
      </trkpt>
      <trkpt lat="45.95816" lon="4.82367">
        <ele>252</ele>
        <time>2018-09-11T08:57:54Z</time>
      </trkpt>
      <trkpt lat="45.95823" lon="4.8237">
        <ele>252</ele>
        <time>2018-09-11T08:57:55Z</time>
      </trkpt>
      <trkpt lat="45.95831" lon="4.82372">
        <ele>251</ele>
        <time>2018-09-11T08:57:56Z</time>
      </trkpt>
      <trkpt lat="45.95843" lon="4.82371">
        <ele>246</ele>
        <time>2018-09-11T08:57:57Z</time>
      </trkpt>
      <trkpt lat="45.95851" lon="4.82379">
        <ele>246</ele>
        <time>2018-09-11T08:57:58Z</time>
      </trkpt>
      <trkpt lat="45.95862" lon="4.82377">
        <ele>245</ele>
        <time>2018-09-11T08:57:59Z</time>
      </trkpt>
      <trkpt lat="45.95872" lon="4.82377">
        <ele>244</ele>
        <time>2018-09-11T08:58:00Z</time>
      </trkpt>
      <trkpt lat="45.95883" lon="4.82376">
        <ele>244</ele>
        <time>2018-09-11T08:58:01Z</time>
      </trkpt>
      <trkpt lat="45.95893" lon="4.82376">
        <ele>243</ele>
        <time>2018-09-11T08:58:02Z</time>
      </trkpt>
      <trkpt lat="45.95904" lon="4.82375">
        <ele>243</ele>
        <time>2018-09-11T08:58:03Z</time>
      </trkpt>
      <trkpt lat="45.95912" lon="4.82372">
        <ele>242</ele>
        <time>2018-09-11T08:58:04Z</time>
      </trkpt>
      <trkpt lat="45.95923" lon="4.82369">
        <ele>238</ele>
        <time>2018-09-11T08:58:05Z</time>
      </trkpt>
      <trkpt lat="45.95935" lon="4.82366">
        <ele>238</ele>
        <time>2018-09-11T08:58:06Z</time>
      </trkpt>
      <trkpt lat="45.95947" lon="4.82361">
        <ele>237</ele>
        <time>2018-09-11T08:58:07Z</time>
      </trkpt>
      <trkpt lat="45.95959" lon="4.82353">
        <ele>237</ele>
        <time>2018-09-11T08:58:08Z</time>
      </trkpt>
      <trkpt lat="45.9597" lon="4.82352">
        <ele>237</ele>
        <time>2018-09-11T08:58:09Z</time>
      </trkpt>
      <trkpt lat="45.95979" lon="4.82351">
        <ele>236</ele>
        <time>2018-09-11T08:58:10Z</time>
      </trkpt>
      <trkpt lat="45.95988" lon="4.82351">
        <ele>236</ele>
        <time>2018-09-11T08:58:11Z</time>
      </trkpt>
      <trkpt lat="45.95996" lon="4.82351">
        <ele>236</ele>
        <time>2018-09-11T08:58:12Z</time>
      </trkpt>
      <trkpt lat="45.96003" lon="4.82351">
        <ele>235</ele>
        <time>2018-09-11T08:58:13Z</time>
      </trkpt>
      <trkpt lat="45.96009" lon="4.82355">
        <ele>235</ele>
        <time>2018-09-11T08:58:14Z</time>
      </trkpt>
      <trkpt lat="45.96016" lon="4.82357">
        <ele>235</ele>
        <time>2018-09-11T08:58:15Z</time>
      </trkpt>
      <trkpt lat="45.9602" lon="4.82365">
        <ele>235</ele>
        <time>2018-09-11T08:58:16Z</time>
      </trkpt>
      <trkpt lat="45.96021" lon="4.82375">
        <ele>235</ele>
        <time>2018-09-11T08:58:17Z</time>
      </trkpt>
      <trkpt lat="45.96022" lon="4.82385">
        <ele>235</ele>
        <time>2018-09-11T08:58:18Z</time>
      </trkpt>
      <trkpt lat="45.96019" lon="4.82392">
        <ele>235</ele>
        <time>2018-09-11T08:58:19Z</time>
      </trkpt>
      <trkpt lat="45.96018" lon="4.82399">
        <ele>235</ele>
        <time>2018-09-11T08:58:20Z</time>
      </trkpt>
      <trkpt lat="45.96018" lon="4.82408">
        <ele>235</ele>
        <time>2018-09-11T08:58:21Z</time>
      </trkpt>
      <trkpt lat="45.96017" lon="4.82417">
        <ele>235</ele>
        <time>2018-09-11T08:58:22Z</time>
      </trkpt>
      <trkpt lat="45.96016" lon="4.82424">
        <ele>235</ele>
        <time>2018-09-11T08:58:23Z</time>
      </trkpt>
      <trkpt lat="45.96015" lon="4.82432">
        <ele>235</ele>
        <time>2018-09-11T08:58:24Z</time>
      </trkpt>
      <trkpt lat="45.96015" lon="4.8244">
        <ele>235</ele>
        <time>2018-09-11T08:58:25Z</time>
      </trkpt>
      <trkpt lat="45.96014" lon="4.82447">
        <ele>235</ele>
        <time>2018-09-11T08:58:26Z</time>
      </trkpt>
      <trkpt lat="45.96012" lon="4.82454">
        <ele>235</ele>
        <time>2018-09-11T08:58:27Z</time>
      </trkpt>
      <trkpt lat="45.9601" lon="4.82467">
        <ele>235</ele>
        <time>2018-09-11T08:58:29Z</time>
      </trkpt>
      <trkpt lat="45.96009" lon="4.82474">
        <ele>235</ele>
        <time>2018-09-11T08:58:30Z</time>
      </trkpt>
      <trkpt lat="45.96009" lon="4.82482">
        <ele>235</ele>
        <time>2018-09-11T08:58:31Z</time>
      </trkpt>
      <trkpt lat="45.96009" lon="4.82492">
        <ele>235</ele>
        <time>2018-09-11T08:58:32Z</time>
      </trkpt>
      <trkpt lat="45.96009" lon="4.825">
        <ele>235</ele>
        <time>2018-09-11T08:58:33Z</time>
      </trkpt>
      <trkpt lat="45.96009" lon="4.82507">
        <ele>235</ele>
        <time>2018-09-11T08:58:34Z</time>
      </trkpt>
      <trkpt lat="45.96008" lon="4.82514">
        <ele>235</ele>
        <time>2018-09-11T08:58:35Z</time>
      </trkpt>
      <trkpt lat="45.96007" lon="4.82521">
        <ele>235</ele>
        <time>2018-09-11T08:58:36Z</time>
      </trkpt>
      <trkpt lat="45.96006" lon="4.82533">
        <ele>235</ele>
        <time>2018-09-11T08:58:38Z</time>
      </trkpt>
      <trkpt lat="45.96006" lon="4.82539">
        <ele>235</ele>
        <time>2018-09-11T08:58:39Z</time>
      </trkpt>
      <trkpt lat="45.96007" lon="4.82545">
        <ele>235</ele>
        <time>2018-09-11T08:58:40Z</time>
      </trkpt>
      <trkpt lat="45.96007" lon="4.82552">
        <ele>235</ele>
        <time>2018-09-11T08:58:41Z</time>
      </trkpt>
      <trkpt lat="45.96009" lon="4.82562">
        <ele>235</ele>
        <time>2018-09-11T08:58:43Z</time>
      </trkpt>
      <trkpt lat="45.9601" lon="4.82567">
        <ele>234</ele>
        <time>2018-09-11T08:58:44Z</time>
      </trkpt>
      <trkpt lat="45.96011" lon="4.82574">
        <ele>234</ele>
        <time>2018-09-11T08:58:45Z</time>
      </trkpt>
      <trkpt lat="45.96013" lon="4.82581">
        <ele>234</ele>
        <time>2018-09-11T08:58:46Z</time>
      </trkpt>
      <trkpt lat="45.96015" lon="4.82588">
        <ele>235</ele>
        <time>2018-09-11T08:58:47Z</time>
      </trkpt>
      <trkpt lat="45.96017" lon="4.82593">
        <ele>235</ele>
        <time>2018-09-11T08:58:48Z</time>
      </trkpt>
      <trkpt lat="45.96019" lon="4.82599">
        <ele>235</ele>
        <time>2018-09-11T08:58:49Z</time>
      </trkpt>
      <trkpt lat="45.96023" lon="4.82606">
        <ele>235</ele>
        <time>2018-09-11T08:58:50Z</time>
      </trkpt>
      <trkpt lat="45.96023" lon="4.82612">
        <ele>235</ele>
        <time>2018-09-11T08:58:51Z</time>
      </trkpt>
      <trkpt lat="45.96027" lon="4.82619">
        <ele>235</ele>
        <time>2018-09-11T08:58:52Z</time>
      </trkpt>
      <trkpt lat="45.96032" lon="4.82623">
        <ele>235</ele>
        <time>2018-09-11T08:58:53Z</time>
      </trkpt>
      <trkpt lat="45.96032" lon="4.82633">
        <ele>235</ele>
        <time>2018-09-11T08:58:54Z</time>
      </trkpt>
      <trkpt lat="45.96034" lon="4.82639">
        <ele>235</ele>
        <time>2018-09-11T08:58:55Z</time>
      </trkpt>
      <trkpt lat="45.96038" lon="4.82648">
        <ele>235</ele>
        <time>2018-09-11T08:58:56Z</time>
      </trkpt>
      <trkpt lat="45.9604" lon="4.82655">
        <ele>235</ele>
        <time>2018-09-11T08:58:57Z</time>
      </trkpt>
      <trkpt lat="45.96042" lon="4.8266">
        <ele>235</ele>
        <time>2018-09-11T08:58:58Z</time>
      </trkpt>
      <trkpt lat="45.96045" lon="4.82666">
        <ele>235</ele>
        <time>2018-09-11T08:58:59Z</time>
      </trkpt>
      <trkpt lat="45.96048" lon="4.82674">
        <ele>236</ele>
        <time>2018-09-11T08:59:00Z</time>
      </trkpt>
      <trkpt lat="45.9605" lon="4.82685">
        <ele>236</ele>
        <time>2018-09-11T08:59:02Z</time>
      </trkpt>
      <trkpt lat="45.96052" lon="4.8269">
        <ele>236</ele>
        <time>2018-09-11T08:59:03Z</time>
      </trkpt>
      <trkpt lat="45.96054" lon="4.82694">
        <ele>237</ele>
        <time>2018-09-11T08:59:04Z</time>
      </trkpt>
      <trkpt lat="45.96057" lon="4.82702">
        <ele>237</ele>
        <time>2018-09-11T08:59:05Z</time>
      </trkpt>
      <trkpt lat="45.9606" lon="4.82708">
        <ele>237</ele>
        <time>2018-09-11T08:59:06Z</time>
      </trkpt>
      <trkpt lat="45.96062" lon="4.82713">
        <ele>237</ele>
        <time>2018-09-11T08:59:07Z</time>
      </trkpt>
      <trkpt lat="45.96067" lon="4.82723">
        <ele>237</ele>
        <time>2018-09-11T08:59:09Z</time>
      </trkpt>
      <trkpt lat="45.96069" lon="4.8273">
        <ele>237</ele>
        <time>2018-09-11T08:59:10Z</time>
      </trkpt>
      <trkpt lat="45.96071" lon="4.82735">
        <ele>237</ele>
        <time>2018-09-11T08:59:11Z</time>
      </trkpt>
      <trkpt lat="45.96074" lon="4.82741">
        <ele>237</ele>
        <time>2018-09-11T08:59:12Z</time>
      </trkpt>
      <trkpt lat="45.96078" lon="4.82752">
        <ele>237</ele>
        <time>2018-09-11T08:59:14Z</time>
      </trkpt>
      <trkpt lat="45.96079" lon="4.82757">
        <ele>237</ele>
        <time>2018-09-11T08:59:15Z</time>
      </trkpt>
      <trkpt lat="45.96082" lon="4.82769">
        <ele>238</ele>
        <time>2018-09-11T08:59:17Z</time>
      </trkpt>
      <trkpt lat="45.96084" lon="4.82771">
        <ele>237</ele>
        <time>2018-09-11T08:59:18Z</time>
      </trkpt>
      <trkpt lat="45.96087" lon="4.82782">
        <ele>237</ele>
        <time>2018-09-11T08:59:20Z</time>
      </trkpt>
      <trkpt lat="45.96088" lon="4.82789">
        <ele>237</ele>
        <time>2018-09-11T08:59:21Z</time>
      </trkpt>
      <trkpt lat="45.9609" lon="4.82795">
        <ele>237</ele>
        <time>2018-09-11T08:59:22Z</time>
      </trkpt>
      <trkpt lat="45.96089" lon="4.82804">
        <ele>237</ele>
        <time>2018-09-11T08:59:23Z</time>
      </trkpt>
      <trkpt lat="45.9609" lon="4.82811">
        <ele>237</ele>
        <time>2018-09-11T08:59:24Z</time>
      </trkpt>
      <trkpt lat="45.96092" lon="4.82818">
        <ele>237</ele>
        <time>2018-09-11T08:59:25Z</time>
      </trkpt>
      <trkpt lat="45.96093" lon="4.82829">
        <ele>237</ele>
        <time>2018-09-11T08:59:27Z</time>
      </trkpt>
      <trkpt lat="45.96094" lon="4.82836">
        <ele>237</ele>
        <time>2018-09-11T08:59:28Z</time>
      </trkpt>
      <trkpt lat="45.96097" lon="4.82841">
        <ele>237</ele>
        <time>2018-09-11T08:59:29Z</time>
      </trkpt>
      <trkpt lat="45.96098" lon="4.82847">
        <ele>237</ele>
        <time>2018-09-11T08:59:30Z</time>
      </trkpt>
      <trkpt lat="45.96098" lon="4.82858">
        <ele>237</ele>
        <time>2018-09-11T08:59:31Z</time>
      </trkpt>
      <trkpt lat="45.96099" lon="4.82865">
        <ele>237</ele>
        <time>2018-09-11T08:59:32Z</time>
      </trkpt>
      <trkpt lat="45.96097" lon="4.82875">
        <ele>237</ele>
        <time>2018-09-11T08:59:34Z</time>
      </trkpt>
      <trkpt lat="45.96095" lon="4.8288">
        <ele>237</ele>
        <time>2018-09-11T08:59:35Z</time>
      </trkpt>
      <trkpt lat="45.96092" lon="4.82891">
        <ele>237</ele>
        <time>2018-09-11T08:59:37Z</time>
      </trkpt>
      <trkpt lat="45.96092" lon="4.82899">
        <ele>238</ele>
        <time>2018-09-11T08:59:38Z</time>
      </trkpt>
      <trkpt lat="45.9609" lon="4.82911">
        <ele>238</ele>
        <time>2018-09-11T08:59:40Z</time>
      </trkpt>
      <trkpt lat="45.96089" lon="4.82918">
        <ele>238</ele>
        <time>2018-09-11T08:59:41Z</time>
      </trkpt>
      <trkpt lat="45.96086" lon="4.82925">
        <ele>238</ele>
        <time>2018-09-11T08:59:42Z</time>
      </trkpt>
      <trkpt lat="45.96084" lon="4.82932">
        <ele>238</ele>
        <time>2018-09-11T08:59:43Z</time>
      </trkpt>
      <trkpt lat="45.96085" lon="4.82945">
        <ele>238</ele>
        <time>2018-09-11T08:59:44Z</time>
      </trkpt>
      <trkpt lat="45.96081" lon="4.82956">
        <ele>241</ele>
        <time>2018-09-11T08:59:46Z</time>
      </trkpt>
      <trkpt lat="45.96079" lon="4.82962">
        <ele>241</ele>
        <time>2018-09-11T08:59:47Z</time>
      </trkpt>
      <trkpt lat="45.96075" lon="4.82972">
        <ele>241</ele>
        <time>2018-09-11T08:59:49Z</time>
      </trkpt>
      <trkpt lat="45.96074" lon="4.82978">
        <ele>241</ele>
        <time>2018-09-11T08:59:50Z</time>
      </trkpt>
      <trkpt lat="45.96073" lon="4.82985">
        <ele>241</ele>
        <time>2018-09-11T08:59:51Z</time>
      </trkpt>
      <trkpt lat="45.96071" lon="4.82991">
        <ele>241</ele>
        <time>2018-09-11T08:59:52Z</time>
      </trkpt>
      <trkpt lat="45.96069" lon="4.83003">
        <ele>241</ele>
        <time>2018-09-11T08:59:54Z</time>
      </trkpt>
      <trkpt lat="45.9607" lon="4.83009">
        <ele>241</ele>
        <time>2018-09-11T08:59:55Z</time>
      </trkpt>
      <trkpt lat="45.9607" lon="4.83017">
        <ele>242</ele>
        <time>2018-09-11T08:59:56Z</time>
      </trkpt>
      <trkpt lat="45.96071" lon="4.83023">
        <ele>242</ele>
        <time>2018-09-11T08:59:57Z</time>
      </trkpt>
      <trkpt lat="45.9607" lon="4.83035">
        <ele>243</ele>
        <time>2018-09-11T08:59:59Z</time>
      </trkpt>
      <trkpt lat="45.96071" lon="4.8304">
        <ele>243</ele>
        <time>2018-09-11T09:00:00Z</time>
      </trkpt>
      <trkpt lat="45.96072" lon="4.83046">
        <ele>243</ele>
        <time>2018-09-11T09:00:01Z</time>
      </trkpt>
      <trkpt lat="45.96073" lon="4.83053">
        <ele>243</ele>
        <time>2018-09-11T09:00:02Z</time>
      </trkpt>
      <trkpt lat="45.96075" lon="4.83061">
        <ele>242</ele>
        <time>2018-09-11T09:00:03Z</time>
      </trkpt>
      <trkpt lat="45.96076" lon="4.83068">
        <ele>242</ele>
        <time>2018-09-11T09:00:04Z</time>
      </trkpt>
      <trkpt lat="45.9608" lon="4.83079">
        <ele>241</ele>
        <time>2018-09-11T09:00:06Z</time>
      </trkpt>
      <trkpt lat="45.96082" lon="4.83087">
        <ele>241</ele>
        <time>2018-09-11T09:00:07Z</time>
      </trkpt>
      <trkpt lat="45.96083" lon="4.83093">
        <ele>240</ele>
        <time>2018-09-11T09:00:08Z</time>
      </trkpt>
      <trkpt lat="45.96084" lon="4.83102">
        <ele>240</ele>
        <time>2018-09-11T09:00:09Z</time>
      </trkpt>
      <trkpt lat="45.96086" lon="4.83109">
        <ele>240</ele>
        <time>2018-09-11T09:00:10Z</time>
      </trkpt>
      <trkpt lat="45.96086" lon="4.83117">
        <ele>240</ele>
        <time>2018-09-11T09:00:11Z</time>
      </trkpt>
      <trkpt lat="45.96085" lon="4.83124">
        <ele>240</ele>
        <time>2018-09-11T09:00:12Z</time>
      </trkpt>
      <trkpt lat="45.96086" lon="4.83132">
        <ele>240</ele>
        <time>2018-09-11T09:00:13Z</time>
      </trkpt>
      <trkpt lat="45.96087" lon="4.8314">
        <ele>240</ele>
        <time>2018-09-11T09:00:14Z</time>
      </trkpt>
      <trkpt lat="45.96088" lon="4.83147">
        <ele>240</ele>
        <time>2018-09-11T09:00:15Z</time>
      </trkpt>
      <trkpt lat="45.96089" lon="4.83155">
        <ele>240</ele>
        <time>2018-09-11T09:00:16Z</time>
      </trkpt>
      <trkpt lat="45.9609" lon="4.83162">
        <ele>240</ele>
        <time>2018-09-11T09:00:17Z</time>
      </trkpt>
      <trkpt lat="45.9609" lon="4.83171">
        <ele>240</ele>
        <time>2018-09-11T09:00:18Z</time>
      </trkpt>
      <trkpt lat="45.9609" lon="4.83177">
        <ele>240</ele>
        <time>2018-09-11T09:00:19Z</time>
      </trkpt>
      <trkpt lat="45.96091" lon="4.83186">
        <ele>240</ele>
        <time>2018-09-11T09:00:20Z</time>
      </trkpt>
      <trkpt lat="45.96091" lon="4.83193">
        <ele>240</ele>
        <time>2018-09-11T09:00:21Z</time>
      </trkpt>
      <trkpt lat="45.9609" lon="4.832">
        <ele>240</ele>
        <time>2018-09-11T09:00:22Z</time>
      </trkpt>
      <trkpt lat="45.96089" lon="4.83205">
        <ele>240</ele>
        <time>2018-09-11T09:00:23Z</time>
      </trkpt>
      <trkpt lat="45.9609" lon="4.83213">
        <ele>240</ele>
        <time>2018-09-11T09:00:24Z</time>
      </trkpt>
      <trkpt lat="45.9609" lon="4.83221">
        <ele>240</ele>
        <time>2018-09-11T09:00:25Z</time>
      </trkpt>
      <trkpt lat="45.9609" lon="4.83228">
        <ele>240</ele>
        <time>2018-09-11T09:00:26Z</time>
      </trkpt>
      <trkpt lat="45.96091" lon="4.83237">
        <ele>240</ele>
        <time>2018-09-11T09:00:27Z</time>
      </trkpt>
      <trkpt lat="45.9609" lon="4.83245">
        <ele>240</ele>
        <time>2018-09-11T09:00:28Z</time>
      </trkpt>
      <trkpt lat="45.9609" lon="4.83253">
        <ele>240</ele>
        <time>2018-09-11T09:00:29Z</time>
      </trkpt>
      <trkpt lat="45.9609" lon="4.83261">
        <ele>241</ele>
        <time>2018-09-11T09:00:30Z</time>
      </trkpt>
      <trkpt lat="45.9609" lon="4.83269">
        <ele>241</ele>
        <time>2018-09-11T09:00:31Z</time>
      </trkpt>
      <trkpt lat="45.96091" lon="4.83276">
        <ele>241</ele>
        <time>2018-09-11T09:00:32Z</time>
      </trkpt>
      <trkpt lat="45.96091" lon="4.83283">
        <ele>241</ele>
        <time>2018-09-11T09:00:33Z</time>
      </trkpt>
      <trkpt lat="45.96093" lon="4.83296">
        <ele>241</ele>
        <time>2018-09-11T09:00:35Z</time>
      </trkpt>
      <trkpt lat="45.96094" lon="4.83303">
        <ele>241</ele>
        <time>2018-09-11T09:00:36Z</time>
      </trkpt>
      <trkpt lat="45.96095" lon="4.83311">
        <ele>241</ele>
        <time>2018-09-11T09:00:37Z</time>
      </trkpt>
      <trkpt lat="45.96096" lon="4.83319">
        <ele>241</ele>
        <time>2018-09-11T09:00:38Z</time>
      </trkpt>
      <trkpt lat="45.96098" lon="4.83327">
        <ele>241</ele>
        <time>2018-09-11T09:00:39Z</time>
      </trkpt>
      <trkpt lat="45.961" lon="4.83332">
        <ele>241</ele>
        <time>2018-09-11T09:00:40Z</time>
      </trkpt>
      <trkpt lat="45.96102" lon="4.83339">
        <ele>242</ele>
        <time>2018-09-11T09:00:41Z</time>
      </trkpt>
      <trkpt lat="45.96103" lon="4.83347">
        <ele>242</ele>
        <time>2018-09-11T09:00:42Z</time>
      </trkpt>
      <trkpt lat="45.96105" lon="4.83355">
        <ele>242</ele>
        <time>2018-09-11T09:00:43Z</time>
      </trkpt>
      <trkpt lat="45.96106" lon="4.83362">
        <ele>242</ele>
        <time>2018-09-11T09:00:44Z</time>
      </trkpt>
      <trkpt lat="45.96108" lon="4.83368">
        <ele>242</ele>
        <time>2018-09-11T09:00:45Z</time>
      </trkpt>
      <trkpt lat="45.9611" lon="4.83374">
        <ele>242</ele>
        <time>2018-09-11T09:00:46Z</time>
      </trkpt>
      <trkpt lat="45.96112" lon="4.83386">
        <ele>243</ele>
        <time>2018-09-11T09:00:48Z</time>
      </trkpt>
      <trkpt lat="45.96113" lon="4.83391">
        <ele>243</ele>
        <time>2018-09-11T09:00:49Z</time>
      </trkpt>
      <trkpt lat="45.96114" lon="4.83399">
        <ele>243</ele>
        <time>2018-09-11T09:00:50Z</time>
      </trkpt>
      <trkpt lat="45.96116" lon="4.83405">
        <ele>243</ele>
        <time>2018-09-11T09:00:51Z</time>
      </trkpt>
      <trkpt lat="45.96116" lon="4.83411">
        <ele>243</ele>
        <time>2018-09-11T09:00:52Z</time>
      </trkpt>
      <trkpt lat="45.96117" lon="4.83418">
        <ele>243</ele>
        <time>2018-09-11T09:00:53Z</time>
      </trkpt>
      <trkpt lat="45.96118" lon="4.83424">
        <ele>243</ele>
        <time>2018-09-11T09:00:54Z</time>
      </trkpt>
      <trkpt lat="45.96119" lon="4.83431">
        <ele>242</ele>
        <time>2018-09-11T09:00:55Z</time>
      </trkpt>
      <trkpt lat="45.96121" lon="4.83441">
        <ele>242</ele>
        <time>2018-09-11T09:00:57Z</time>
      </trkpt>
      <trkpt lat="45.96122" lon="4.83448">
        <ele>242</ele>
        <time>2018-09-11T09:00:58Z</time>
      </trkpt>
      <trkpt lat="45.96123" lon="4.83459">
        <ele>242</ele>
        <time>2018-09-11T09:01:00Z</time>
      </trkpt>
      <trkpt lat="45.96124" lon="4.83464">
        <ele>242</ele>
        <time>2018-09-11T09:01:01Z</time>
      </trkpt>
      <trkpt lat="45.96125" lon="4.83468">
        <ele>242</ele>
        <time>2018-09-11T09:01:02Z</time>
      </trkpt>
      <trkpt lat="45.96127" lon="4.83479">
        <ele>242</ele>
        <time>2018-09-11T09:01:03Z</time>
      </trkpt>
      <trkpt lat="45.96129" lon="4.83489">
        <ele>242</ele>
        <time>2018-09-11T09:01:05Z</time>
      </trkpt>
      <trkpt lat="45.96131" lon="4.83493">
        <ele>242</ele>
        <time>2018-09-11T09:01:06Z</time>
      </trkpt>
      <trkpt lat="45.96134" lon="4.83503">
        <ele>242</ele>
        <time>2018-09-11T09:01:08Z</time>
      </trkpt>
      <trkpt lat="45.96134" lon="4.83508">
        <ele>242</ele>
        <time>2018-09-11T09:01:09Z</time>
      </trkpt>
      <trkpt lat="45.96136" lon="4.83517">
        <ele>242</ele>
        <time>2018-09-11T09:01:11Z</time>
      </trkpt>
      <trkpt lat="45.96138" lon="4.83524">
        <ele>242</ele>
        <time>2018-09-11T09:01:12Z</time>
      </trkpt>
      <trkpt lat="45.96141" lon="4.83534">
        <ele>242</ele>
        <time>2018-09-11T09:01:14Z</time>
      </trkpt>
      <trkpt lat="45.96141" lon="4.83537">
        <ele>242</ele>
        <time>2018-09-11T09:01:15Z</time>
      </trkpt>
      <trkpt lat="45.96142" lon="4.83544">
        <ele>242</ele>
        <time>2018-09-11T09:01:16Z</time>
      </trkpt>
      <trkpt lat="45.96143" lon="4.8355">
        <ele>242</ele>
        <time>2018-09-11T09:01:17Z</time>
      </trkpt>
      <trkpt lat="45.96145" lon="4.83557">
        <ele>242</ele>
        <time>2018-09-11T09:01:18Z</time>
      </trkpt>
      <trkpt lat="45.96146" lon="4.83563">
        <ele>241</ele>
        <time>2018-09-11T09:01:19Z</time>
      </trkpt>
      <trkpt lat="45.96149" lon="4.83575">
        <ele>241</ele>
        <time>2018-09-11T09:01:21Z</time>
      </trkpt>
      <trkpt lat="45.96151" lon="4.83582">
        <ele>241</ele>
        <time>2018-09-11T09:01:22Z</time>
      </trkpt>
      <trkpt lat="45.96152" lon="4.83588">
        <ele>242</ele>
        <time>2018-09-11T09:01:23Z</time>
      </trkpt>
      <trkpt lat="45.96154" lon="4.83595">
        <ele>242</ele>
        <time>2018-09-11T09:01:24Z</time>
      </trkpt>
      <trkpt lat="45.96156" lon="4.83601">
        <ele>242</ele>
        <time>2018-09-11T09:01:25Z</time>
      </trkpt>
      <trkpt lat="45.96158" lon="4.83607">
        <ele>242</ele>
        <time>2018-09-11T09:01:26Z</time>
      </trkpt>
      <trkpt lat="45.96161" lon="4.83619">
        <ele>242</ele>
        <time>2018-09-11T09:01:28Z</time>
      </trkpt>
      <trkpt lat="45.96162" lon="4.83625">
        <ele>242</ele>
        <time>2018-09-11T09:01:29Z</time>
      </trkpt>
      <trkpt lat="45.96166" lon="4.83635">
        <ele>243</ele>
        <time>2018-09-11T09:01:31Z</time>
      </trkpt>
      <trkpt lat="45.96168" lon="4.83641">
        <ele>242</ele>
        <time>2018-09-11T09:01:32Z</time>
      </trkpt>
      <trkpt lat="45.96172" lon="4.83647">
        <ele>242</ele>
        <time>2018-09-11T09:01:33Z</time>
      </trkpt>
      <trkpt lat="45.96175" lon="4.83652">
        <ele>242</ele>
        <time>2018-09-11T09:01:34Z</time>
      </trkpt>
      <trkpt lat="45.96178" lon="4.83657">
        <ele>242</ele>
        <time>2018-09-11T09:01:35Z</time>
      </trkpt>
      <trkpt lat="45.96181" lon="4.83662">
        <ele>242</ele>
        <time>2018-09-11T09:01:36Z</time>
      </trkpt>
      <trkpt lat="45.96188" lon="4.8367">
        <ele>243</ele>
        <time>2018-09-11T09:01:38Z</time>
      </trkpt>
      <trkpt lat="45.96191" lon="4.83673">
        <ele>243</ele>
        <time>2018-09-11T09:01:39Z</time>
      </trkpt>
      <trkpt lat="45.96194" lon="4.83677">
        <ele>243</ele>
        <time>2018-09-11T09:01:40Z</time>
      </trkpt>
      <trkpt lat="45.96198" lon="4.83682">
        <ele>243</ele>
        <time>2018-09-11T09:01:41Z</time>
      </trkpt>
      <trkpt lat="45.96205" lon="4.83688">
        <ele>243</ele>
        <time>2018-09-11T09:01:43Z</time>
      </trkpt>
      <trkpt lat="45.96209" lon="4.8369">
        <ele>243</ele>
        <time>2018-09-11T09:01:44Z</time>
      </trkpt>
      <trkpt lat="45.96213" lon="4.83695">
        <ele>243</ele>
        <time>2018-09-11T09:01:45Z</time>
      </trkpt>
      <trkpt lat="45.96217" lon="4.83697">
        <ele>244</ele>
        <time>2018-09-11T09:01:46Z</time>
      </trkpt>
      <trkpt lat="45.96222" lon="4.837">
        <ele>244</ele>
        <time>2018-09-11T09:01:47Z</time>
      </trkpt>
      <trkpt lat="45.96227" lon="4.83705">
        <ele>244</ele>
        <time>2018-09-11T09:01:48Z</time>
      </trkpt>
      <trkpt lat="45.96233" lon="4.83714">
        <ele>244</ele>
        <time>2018-09-11T09:01:50Z</time>
      </trkpt>
      <trkpt lat="45.96237" lon="4.83718">
        <ele>244</ele>
        <time>2018-09-11T09:01:51Z</time>
      </trkpt>
      <trkpt lat="45.96243" lon="4.83723">
        <ele>244</ele>
        <time>2018-09-11T09:01:53Z</time>
      </trkpt>
      <trkpt lat="45.96247" lon="4.83729">
        <ele>244</ele>
        <time>2018-09-11T09:01:54Z</time>
      </trkpt>
      <trkpt lat="45.96251" lon="4.83734">
        <ele>245</ele>
        <time>2018-09-11T09:01:55Z</time>
      </trkpt>
      <trkpt lat="45.96254" lon="4.83739">
        <ele>245</ele>
        <time>2018-09-11T09:01:56Z</time>
      </trkpt>
      <trkpt lat="45.9626" lon="4.83747">
        <ele>245</ele>
        <time>2018-09-11T09:01:58Z</time>
      </trkpt>
      <trkpt lat="45.96264" lon="4.8375">
        <ele>245</ele>
        <time>2018-09-11T09:01:59Z</time>
      </trkpt>
      <trkpt lat="45.96269" lon="4.83755">
        <ele>245</ele>
        <time>2018-09-11T09:02:00Z</time>
      </trkpt>
      <trkpt lat="45.96272" lon="4.83758">
        <ele>245</ele>
        <time>2018-09-11T09:02:01Z</time>
      </trkpt>
      <trkpt lat="45.96278" lon="4.83766">
        <ele>245</ele>
        <time>2018-09-11T09:02:03Z</time>
      </trkpt>
      <trkpt lat="45.96282" lon="4.83769">
        <ele>245</ele>
        <time>2018-09-11T09:02:04Z</time>
      </trkpt>
      <trkpt lat="45.96286" lon="4.83773">
        <ele>245</ele>
        <time>2018-09-11T09:02:05Z</time>
      </trkpt>
      <trkpt lat="45.9629" lon="4.83777">
        <ele>245</ele>
        <time>2018-09-11T09:02:06Z</time>
      </trkpt>
      <trkpt lat="45.96294" lon="4.8378">
        <ele>245</ele>
        <time>2018-09-11T09:02:07Z</time>
      </trkpt>
      <trkpt lat="45.96299" lon="4.83779">
        <ele>245</ele>
        <time>2018-09-11T09:02:08Z</time>
      </trkpt>
      <trkpt lat="45.96306" lon="4.83786">
        <ele>245</ele>
        <time>2018-09-11T09:02:10Z</time>
      </trkpt>
      <trkpt lat="45.9631" lon="4.83786">
        <ele>245</ele>
        <time>2018-09-11T09:02:11Z</time>
      </trkpt>
      <trkpt lat="45.96316" lon="4.83789">
        <ele>245</ele>
        <time>2018-09-11T09:02:12Z</time>
      </trkpt>
      <trkpt lat="45.9632" lon="4.83791">
        <ele>245</ele>
        <time>2018-09-11T09:02:13Z</time>
      </trkpt>
      <trkpt lat="45.96325" lon="4.83794">
        <ele>245</ele>
        <time>2018-09-11T09:02:14Z</time>
      </trkpt>
      <trkpt lat="45.96329" lon="4.83798">
        <ele>245</ele>
        <time>2018-09-11T09:02:15Z</time>
      </trkpt>
      <trkpt lat="45.96333" lon="4.83802">
        <ele>246</ele>
        <time>2018-09-11T09:02:16Z</time>
      </trkpt>
      <trkpt lat="45.96337" lon="4.83806">
        <ele>246</ele>
        <time>2018-09-11T09:02:17Z</time>
      </trkpt>
      <trkpt lat="45.9634" lon="4.8381">
        <ele>246</ele>
        <time>2018-09-11T09:02:18Z</time>
      </trkpt>
      <trkpt lat="45.96344" lon="4.83815">
        <ele>246</ele>
        <time>2018-09-11T09:02:19Z</time>
      </trkpt>
      <trkpt lat="45.96351" lon="4.83823">
        <ele>246</ele>
        <time>2018-09-11T09:02:21Z</time>
      </trkpt>
      <trkpt lat="45.96353" lon="4.83828">
        <ele>246</ele>
        <time>2018-09-11T09:02:22Z</time>
      </trkpt>
      <trkpt lat="45.96356" lon="4.83834">
        <ele>246</ele>
        <time>2018-09-11T09:02:23Z</time>
      </trkpt>
      <trkpt lat="45.96358" lon="4.83839">
        <ele>246</ele>
        <time>2018-09-11T09:02:24Z</time>
      </trkpt>
      <trkpt lat="45.96361" lon="4.83845">
        <ele>246</ele>
        <time>2018-09-11T09:02:25Z</time>
      </trkpt>
      <trkpt lat="45.96363" lon="4.8385">
        <ele>246</ele>
        <time>2018-09-11T09:02:26Z</time>
      </trkpt>
      <trkpt lat="45.96368" lon="4.83859">
        <ele>247</ele>
        <time>2018-09-11T09:02:28Z</time>
      </trkpt>
      <trkpt lat="45.96371" lon="4.83864">
        <ele>247</ele>
        <time>2018-09-11T09:02:29Z</time>
      </trkpt>
      <trkpt lat="45.96372" lon="4.83871">
        <ele>247</ele>
        <time>2018-09-11T09:02:30Z</time>
      </trkpt>
      <trkpt lat="45.96375" lon="4.83877">
        <ele>247</ele>
        <time>2018-09-11T09:02:31Z</time>
      </trkpt>
      <trkpt lat="45.96379" lon="4.83888">
        <ele>248</ele>
        <time>2018-09-11T09:02:34Z</time>
      </trkpt>
      <trkpt lat="45.96381" lon="4.83891">
        <ele>248</ele>
        <time>2018-09-11T09:02:35Z</time>
      </trkpt>
      <trkpt lat="45.96385" lon="4.83899">
        <ele>248</ele>
        <time>2018-09-11T09:02:38Z</time>
      </trkpt>
      <trkpt lat="45.96387" lon="4.83903">
        <ele>248</ele>
        <time>2018-09-11T09:02:39Z</time>
      </trkpt>
      <trkpt lat="45.9639" lon="4.83909">
        <ele>248</ele>
        <time>2018-09-11T09:02:41Z</time>
      </trkpt>
      <trkpt lat="45.96395" lon="4.83921">
        <ele>251</ele>
        <time>2018-09-11T09:02:42Z</time>
      </trkpt>
      <trkpt lat="45.96398" lon="4.8393">
        <ele>251</ele>
        <time>2018-09-11T09:02:44Z</time>
      </trkpt>
      <trkpt lat="45.96399" lon="4.83932">
        <ele>251</ele>
        <time>2018-09-11T09:02:45Z</time>
      </trkpt>
      <trkpt lat="45.96401" lon="4.83944">
        <ele>251</ele>
        <time>2018-09-11T09:02:47Z</time>
      </trkpt>
      <trkpt lat="45.96404" lon="4.83951">
        <ele>252</ele>
        <time>2018-09-11T09:02:48Z</time>
      </trkpt>
      <trkpt lat="45.96408" lon="4.83958">
        <ele>252</ele>
        <time>2018-09-11T09:02:51Z</time>
      </trkpt>
      <trkpt lat="45.96411" lon="4.83968">
        <ele>253</ele>
        <time>2018-09-11T09:02:52Z</time>
      </trkpt>
      <trkpt lat="45.96414" lon="4.83974">
        <ele>253</ele>
        <time>2018-09-11T09:02:55Z</time>
      </trkpt>
      <trkpt lat="45.96417" lon="4.83982">
        <ele>251</ele>
        <time>2018-09-11T09:02:56Z</time>
      </trkpt>
      <trkpt lat="45.96421" lon="4.83993">
        <ele>252</ele>
        <time>2018-09-11T09:03:00Z</time>
      </trkpt>
      <trkpt lat="45.96422" lon="4.83996">
        <ele>252</ele>
        <time>2018-09-11T09:03:01Z</time>
      </trkpt>
      <trkpt lat="45.96426" lon="4.84003">
        <ele>252</ele>
        <time>2018-09-11T09:03:03Z</time>
      </trkpt>
      <trkpt lat="45.96428" lon="4.84007">
        <ele>252</ele>
        <time>2018-09-11T09:03:04Z</time>
      </trkpt>
      <trkpt lat="45.96432" lon="4.84015">
        <ele>252</ele>
        <time>2018-09-11T09:03:06Z</time>
      </trkpt>
      <trkpt lat="45.96434" lon="4.84019">
        <ele>251</ele>
        <time>2018-09-11T09:03:07Z</time>
      </trkpt>
      <trkpt lat="45.96437" lon="4.84027">
        <ele>251</ele>
        <time>2018-09-11T09:03:09Z</time>
      </trkpt>
      <trkpt lat="45.96439" lon="4.84032">
        <ele>251</ele>
        <time>2018-09-11T09:03:10Z</time>
      </trkpt>
      <trkpt lat="45.9644" lon="4.84037">
        <ele>251</ele>
        <time>2018-09-11T09:03:11Z</time>
      </trkpt>
      <trkpt lat="45.96445" lon="4.84051">
        <ele>251</ele>
        <time>2018-09-11T09:03:12Z</time>
      </trkpt>
      <trkpt lat="45.96449" lon="4.84062">
        <ele>251</ele>
        <time>2018-09-11T09:03:14Z</time>
      </trkpt>
      <trkpt lat="45.9645" lon="4.84068">
        <ele>251</ele>
        <time>2018-09-11T09:03:15Z</time>
      </trkpt>
      <trkpt lat="45.96454" lon="4.84079">
        <ele>251</ele>
        <time>2018-09-11T09:03:17Z</time>
      </trkpt>
      <trkpt lat="45.96456" lon="4.84084">
        <ele>252</ele>
        <time>2018-09-11T09:03:18Z</time>
      </trkpt>
      <trkpt lat="45.96459" lon="4.84095">
        <ele>252</ele>
        <time>2018-09-11T09:03:20Z</time>
      </trkpt>
      <trkpt lat="45.96461" lon="4.841">
        <ele>252</ele>
        <time>2018-09-11T09:03:21Z</time>
      </trkpt>
      <trkpt lat="45.96465" lon="4.8411">
        <ele>251</ele>
        <time>2018-09-11T09:03:23Z</time>
      </trkpt>
      <trkpt lat="45.96467" lon="4.84115">
        <ele>251</ele>
        <time>2018-09-11T09:03:24Z</time>
      </trkpt>
      <trkpt lat="45.96471" lon="4.84125">
        <ele>251</ele>
        <time>2018-09-11T09:03:26Z</time>
      </trkpt>
      <trkpt lat="45.96472" lon="4.8413">
        <ele>251</ele>
        <time>2018-09-11T09:03:27Z</time>
      </trkpt>
      <trkpt lat="45.96475" lon="4.8414">
        <ele>251</ele>
        <time>2018-09-11T09:03:29Z</time>
      </trkpt>
      <trkpt lat="45.96477" lon="4.84146">
        <ele>251</ele>
        <time>2018-09-11T09:03:30Z</time>
      </trkpt>
      <trkpt lat="45.96481" lon="4.84156">
        <ele>251</ele>
        <time>2018-09-11T09:03:32Z</time>
      </trkpt>
      <trkpt lat="45.96481" lon="4.84158">
        <ele>251</ele>
        <time>2018-09-11T09:03:33Z</time>
      </trkpt>
      <trkpt lat="45.96484" lon="4.84169">
        <ele>251</ele>
        <time>2018-09-11T09:03:35Z</time>
      </trkpt>
      <trkpt lat="45.96487" lon="4.84172">
        <ele>250</ele>
        <time>2018-09-11T09:03:36Z</time>
      </trkpt>
      <trkpt lat="45.96489" lon="4.84182">
        <ele>251</ele>
        <time>2018-09-11T09:03:38Z</time>
      </trkpt>
      <trkpt lat="45.9649" lon="4.84189">
        <ele>251</ele>
        <time>2018-09-11T09:03:39Z</time>
      </trkpt>
      <trkpt lat="45.96492" lon="4.84194">
        <ele>251</ele>
        <time>2018-09-11T09:03:40Z</time>
      </trkpt>
      <trkpt lat="45.96494" lon="4.84201">
        <ele>251</ele>
        <time>2018-09-11T09:03:41Z</time>
      </trkpt>
      <trkpt lat="45.96495" lon="4.84208">
        <ele>251</ele>
        <time>2018-09-11T09:03:42Z</time>
      </trkpt>
      <trkpt lat="45.96496" lon="4.84216">
        <ele>252</ele>
        <time>2018-09-11T09:03:43Z</time>
      </trkpt>
      <trkpt lat="45.96498" lon="4.84222">
        <ele>252</ele>
        <time>2018-09-11T09:03:44Z</time>
      </trkpt>
      <trkpt lat="45.96499" lon="4.84229">
        <ele>251</ele>
        <time>2018-09-11T09:03:45Z</time>
      </trkpt>
      <trkpt lat="45.96501" lon="4.84236">
        <ele>250</ele>
        <time>2018-09-11T09:03:46Z</time>
      </trkpt>
      <trkpt lat="45.96502" lon="4.84244">
        <ele>250</ele>
        <time>2018-09-11T09:03:47Z</time>
      </trkpt>
      <trkpt lat="45.96503" lon="4.8425">
        <ele>251</ele>
        <time>2018-09-11T09:03:48Z</time>
      </trkpt>
      <trkpt lat="45.96505" lon="4.84257">
        <ele>251</ele>
        <time>2018-09-11T09:03:49Z</time>
      </trkpt>
      <trkpt lat="45.96507" lon="4.84264">
        <ele>251</ele>
        <time>2018-09-11T09:03:50Z</time>
      </trkpt>
      <trkpt lat="45.96508" lon="4.84272">
        <ele>250</ele>
        <time>2018-09-11T09:03:51Z</time>
      </trkpt>
      <trkpt lat="45.9651" lon="4.8428">
        <ele>250</ele>
        <time>2018-09-11T09:03:52Z</time>
      </trkpt>
      <trkpt lat="45.96509" lon="4.84291">
        <ele>250</ele>
        <time>2018-09-11T09:03:53Z</time>
      </trkpt>
      <trkpt lat="45.96508" lon="4.843">
        <ele>250</ele>
        <time>2018-09-11T09:03:54Z</time>
      </trkpt>
      <trkpt lat="45.96509" lon="4.84307">
        <ele>250</ele>
        <time>2018-09-11T09:03:55Z</time>
      </trkpt>
      <trkpt lat="45.96511" lon="4.84314">
        <ele>250</ele>
        <time>2018-09-11T09:03:56Z</time>
      </trkpt>
      <trkpt lat="45.96514" lon="4.84323">
        <ele>251</ele>
        <time>2018-09-11T09:03:57Z</time>
      </trkpt>
      <trkpt lat="45.96516" lon="4.8433">
        <ele>251</ele>
        <time>2018-09-11T09:03:58Z</time>
      </trkpt>
      <trkpt lat="45.96518" lon="4.84338">
        <ele>251</ele>
        <time>2018-09-11T09:03:59Z</time>
      </trkpt>
      <trkpt lat="45.9652" lon="4.84348">
        <ele>251</ele>
        <time>2018-09-11T09:04:00Z</time>
      </trkpt>
      <trkpt lat="45.96522" lon="4.84355">
        <ele>251</ele>
        <time>2018-09-11T09:04:01Z</time>
      </trkpt>
      <trkpt lat="45.96524" lon="4.84363">
        <ele>251</ele>
        <time>2018-09-11T09:04:02Z</time>
      </trkpt>
      <trkpt lat="45.96526" lon="4.84374">
        <ele>251</ele>
        <time>2018-09-11T09:04:03Z</time>
      </trkpt>
      <trkpt lat="45.96527" lon="4.84379">
        <ele>251</ele>
        <time>2018-09-11T09:04:04Z</time>
      </trkpt>
      <trkpt lat="45.96528" lon="4.84387">
        <ele>251</ele>
        <time>2018-09-11T09:04:05Z</time>
      </trkpt>
      <trkpt lat="45.96528" lon="4.84394">
        <ele>252</ele>
        <time>2018-09-11T09:04:06Z</time>
      </trkpt>
      <trkpt lat="45.96528" lon="4.844">
        <ele>252</ele>
        <time>2018-09-11T09:04:07Z</time>
      </trkpt>
      <trkpt lat="45.96528" lon="4.84413">
        <ele>252</ele>
        <time>2018-09-11T09:04:09Z</time>
      </trkpt>
      <trkpt lat="45.96527" lon="4.84418">
        <ele>253</ele>
        <time>2018-09-11T09:04:10Z</time>
      </trkpt>
      <trkpt lat="45.96527" lon="4.84425">
        <ele>253</ele>
        <time>2018-09-11T09:04:11Z</time>
      </trkpt>
      <trkpt lat="45.96527" lon="4.84433">
        <ele>253</ele>
        <time>2018-09-11T09:04:12Z</time>
      </trkpt>
      <trkpt lat="45.96526" lon="4.8444">
        <ele>253</ele>
        <time>2018-09-11T09:04:13Z</time>
      </trkpt>
      <trkpt lat="45.96526" lon="4.84448">
        <ele>253</ele>
        <time>2018-09-11T09:04:14Z</time>
      </trkpt>
      <trkpt lat="45.96528" lon="4.84454">
        <ele>253</ele>
        <time>2018-09-11T09:04:15Z</time>
      </trkpt>
      <trkpt lat="45.96528" lon="4.84461">
        <ele>253</ele>
        <time>2018-09-11T09:04:16Z</time>
      </trkpt>
      <trkpt lat="45.96531" lon="4.84472">
        <ele>253</ele>
        <time>2018-09-11T09:04:18Z</time>
      </trkpt>
      <trkpt lat="45.9653" lon="4.84479">
        <ele>253</ele>
        <time>2018-09-11T09:04:19Z</time>
      </trkpt>
      <trkpt lat="45.9653" lon="4.84492">
        <ele>253</ele>
        <time>2018-09-11T09:04:21Z</time>
      </trkpt>
      <trkpt lat="45.96529" lon="4.84498">
        <ele>253</ele>
        <time>2018-09-11T09:04:22Z</time>
      </trkpt>
      <trkpt lat="45.96528" lon="4.84505">
        <ele>253</ele>
        <time>2018-09-11T09:04:23Z</time>
      </trkpt>
      <trkpt lat="45.96528" lon="4.84513">
        <ele>253</ele>
        <time>2018-09-11T09:04:24Z</time>
      </trkpt>
      <trkpt lat="45.96527" lon="4.8452">
        <ele>253</ele>
        <time>2018-09-11T09:04:25Z</time>
      </trkpt>
      <trkpt lat="45.96526" lon="4.84527">
        <ele>253</ele>
        <time>2018-09-11T09:04:26Z</time>
      </trkpt>
      <trkpt lat="45.96526" lon="4.84539">
        <ele>253</ele>
        <time>2018-09-11T09:04:28Z</time>
      </trkpt>
      <trkpt lat="45.96525" lon="4.84547">
        <ele>253</ele>
        <time>2018-09-11T09:04:29Z</time>
      </trkpt>
      <trkpt lat="45.96527" lon="4.84556">
        <ele>253</ele>
        <time>2018-09-11T09:04:31Z</time>
      </trkpt>
      <trkpt lat="45.96527" lon="4.84562">
        <ele>253</ele>
        <time>2018-09-11T09:04:32Z</time>
      </trkpt>
      <trkpt lat="45.96526" lon="4.84568">
        <ele>253</ele>
        <time>2018-09-11T09:04:33Z</time>
      </trkpt>
      <trkpt lat="45.96525" lon="4.84576">
        <ele>253</ele>
        <time>2018-09-11T09:04:34Z</time>
      </trkpt>
      <trkpt lat="45.96525" lon="4.84583">
        <ele>253</ele>
        <time>2018-09-11T09:04:35Z</time>
      </trkpt>
      <trkpt lat="45.96523" lon="4.84589">
        <ele>252</ele>
        <time>2018-09-11T09:04:36Z</time>
      </trkpt>
      <trkpt lat="45.96522" lon="4.84595">
        <ele>252</ele>
        <time>2018-09-11T09:04:37Z</time>
      </trkpt>
      <trkpt lat="45.96522" lon="4.84603">
        <ele>252</ele>
        <time>2018-09-11T09:04:38Z</time>
      </trkpt>
      <trkpt lat="45.96523" lon="4.84612">
        <ele>252</ele>
        <time>2018-09-11T09:04:39Z</time>
      </trkpt>
      <trkpt lat="45.96523" lon="4.84619">
        <ele>252</ele>
        <time>2018-09-11T09:04:40Z</time>
      </trkpt>
      <trkpt lat="45.96524" lon="4.84631">
        <ele>252</ele>
        <time>2018-09-11T09:04:42Z</time>
      </trkpt>
      <trkpt lat="45.96524" lon="4.84639">
        <ele>252</ele>
        <time>2018-09-11T09:04:43Z</time>
      </trkpt>
      <trkpt lat="45.96523" lon="4.84651">
        <ele>252</ele>
        <time>2018-09-11T09:04:45Z</time>
      </trkpt>
      <trkpt lat="45.96523" lon="4.84657">
        <ele>252</ele>
        <time>2018-09-11T09:04:46Z</time>
      </trkpt>
      <trkpt lat="45.96524" lon="4.84669">
        <ele>252</ele>
        <time>2018-09-11T09:04:48Z</time>
      </trkpt>
      <trkpt lat="45.96524" lon="4.84675">
        <ele>252</ele>
        <time>2018-09-11T09:04:49Z</time>
      </trkpt>
      <trkpt lat="45.96528" lon="4.84685">
        <ele>253</ele>
        <time>2018-09-11T09:04:51Z</time>
      </trkpt>
      <trkpt lat="45.96529" lon="4.84691">
        <ele>253</ele>
        <time>2018-09-11T09:04:52Z</time>
      </trkpt>
      <trkpt lat="45.96532" lon="4.84701">
        <ele>253</ele>
        <time>2018-09-11T09:04:54Z</time>
      </trkpt>
      <trkpt lat="45.96532" lon="4.84707">
        <ele>253</ele>
        <time>2018-09-11T09:04:55Z</time>
      </trkpt>
      <trkpt lat="45.96532" lon="4.84714">
        <ele>253</ele>
        <time>2018-09-11T09:04:56Z</time>
      </trkpt>
      <trkpt lat="45.96533" lon="4.84722">
        <ele>253</ele>
        <time>2018-09-11T09:04:57Z</time>
      </trkpt>
      <trkpt lat="45.96532" lon="4.84734">
        <ele>253</ele>
        <time>2018-09-11T09:04:59Z</time>
      </trkpt>
      <trkpt lat="45.96531" lon="4.8474">
        <ele>253</ele>
        <time>2018-09-11T09:05:00Z</time>
      </trkpt>
      <trkpt lat="45.9653" lon="4.84749">
        <ele>253</ele>
        <time>2018-09-11T09:05:02Z</time>
      </trkpt>
      <trkpt lat="45.96528" lon="4.84755">
        <ele>253</ele>
        <time>2018-09-11T09:05:03Z</time>
      </trkpt>
      <trkpt lat="45.96525" lon="4.84767">
        <ele>254</ele>
        <time>2018-09-11T09:05:05Z</time>
      </trkpt>
      <trkpt lat="45.96523" lon="4.84773">
        <ele>254</ele>
        <time>2018-09-11T09:05:06Z</time>
      </trkpt>
      <trkpt lat="45.9652" lon="4.84784">
        <ele>254</ele>
        <time>2018-09-11T09:05:08Z</time>
      </trkpt>
      <trkpt lat="45.96519" lon="4.84789">
        <ele>254</ele>
        <time>2018-09-11T09:05:09Z</time>
      </trkpt>
      <trkpt lat="45.96515" lon="4.848">
        <ele>254</ele>
        <time>2018-09-11T09:05:11Z</time>
      </trkpt>
      <trkpt lat="45.96514" lon="4.84805">
        <ele>254</ele>
        <time>2018-09-11T09:05:12Z</time>
      </trkpt>
      <trkpt lat="45.96511" lon="4.84814">
        <ele>254</ele>
        <time>2018-09-11T09:05:15Z</time>
      </trkpt>
      <trkpt lat="45.9651" lon="4.84818">
        <ele>254</ele>
        <time>2018-09-11T09:05:16Z</time>
      </trkpt>
      <trkpt lat="45.96508" lon="4.84829">
        <ele>253</ele>
        <time>2018-09-11T09:05:19Z</time>
      </trkpt>
      <trkpt lat="45.96507" lon="4.84833">
        <ele>253</ele>
        <time>2018-09-11T09:05:20Z</time>
      </trkpt>
      <trkpt lat="45.96504" lon="4.84845">
        <ele>255</ele>
        <time>2018-09-11T09:05:23Z</time>
      </trkpt>
      <trkpt lat="45.96503" lon="4.84849">
        <ele>256</ele>
        <time>2018-09-11T09:05:24Z</time>
      </trkpt>
      <trkpt lat="45.96501" lon="4.84858">
        <ele>256</ele>
        <time>2018-09-11T09:05:26Z</time>
      </trkpt>
      <trkpt lat="45.965" lon="4.84862">
        <ele>257</ele>
        <time>2018-09-11T09:05:27Z</time>
      </trkpt>
      <trkpt lat="45.96498" lon="4.8487">
        <ele>255</ele>
        <time>2018-09-11T09:05:29Z</time>
      </trkpt>
      <trkpt lat="45.96497" lon="4.84874">
        <ele>255</ele>
        <time>2018-09-11T09:05:30Z</time>
      </trkpt>
      <trkpt lat="45.96495" lon="4.84882">
        <ele>255</ele>
        <time>2018-09-11T09:05:32Z</time>
      </trkpt>
      <trkpt lat="45.96493" lon="4.84887">
        <ele>255</ele>
        <time>2018-09-11T09:05:33Z</time>
      </trkpt>
      <trkpt lat="45.96491" lon="4.84895">
        <ele>256</ele>
        <time>2018-09-11T09:05:35Z</time>
      </trkpt>
      <trkpt lat="45.9649" lon="4.84899">
        <ele>256</ele>
        <time>2018-09-11T09:05:36Z</time>
      </trkpt>
      <trkpt lat="45.96488" lon="4.84908">
        <ele>256</ele>
        <time>2018-09-11T09:05:38Z</time>
      </trkpt>
      <trkpt lat="45.96487" lon="4.84913">
        <ele>256</ele>
        <time>2018-09-11T09:05:39Z</time>
      </trkpt>
      <trkpt lat="45.96485" lon="4.84922">
        <ele>259</ele>
        <time>2018-09-11T09:05:41Z</time>
      </trkpt>
      <trkpt lat="45.96485" lon="4.84927">
        <ele>259</ele>
        <time>2018-09-11T09:05:42Z</time>
      </trkpt>
      <trkpt lat="45.96483" lon="4.84935">
        <ele>260</ele>
        <time>2018-09-11T09:05:44Z</time>
      </trkpt>
      <trkpt lat="45.96483" lon="4.8494">
        <ele>260</ele>
        <time>2018-09-11T09:05:45Z</time>
      </trkpt>
      <trkpt lat="45.9648" lon="4.84951">
        <ele>261</ele>
        <time>2018-09-11T09:05:48Z</time>
      </trkpt>
      <trkpt lat="45.9648" lon="4.84955">
        <ele>261</ele>
        <time>2018-09-11T09:05:49Z</time>
      </trkpt>
      <trkpt lat="45.96478" lon="4.84965">
        <ele>261</ele>
        <time>2018-09-11T09:05:52Z</time>
      </trkpt>
      <trkpt lat="45.96477" lon="4.84968">
        <ele>262</ele>
        <time>2018-09-11T09:05:53Z</time>
      </trkpt>
      <trkpt lat="45.96475" lon="4.84981">
        <ele>262</ele>
        <time>2018-09-11T09:05:57Z</time>
      </trkpt>
      <trkpt lat="45.96475" lon="4.84984">
        <ele>262</ele>
        <time>2018-09-11T09:05:58Z</time>
      </trkpt>
      <trkpt lat="45.96473" lon="4.84994">
        <ele>263</ele>
        <time>2018-09-11T09:06:01Z</time>
      </trkpt>
      <trkpt lat="45.96473" lon="4.84998">
        <ele>263</ele>
        <time>2018-09-11T09:06:02Z</time>
      </trkpt>
      <trkpt lat="45.96471" lon="4.85009">
        <ele>266</ele>
        <time>2018-09-11T09:06:05Z</time>
      </trkpt>
      <trkpt lat="45.96471" lon="4.85012">
        <ele>266</ele>
        <time>2018-09-11T09:06:06Z</time>
      </trkpt>
      <trkpt lat="45.96469" lon="4.85022">
        <ele>266</ele>
        <time>2018-09-11T09:06:09Z</time>
      </trkpt>
      <trkpt lat="45.96469" lon="4.85026">
        <ele>266</ele>
        <time>2018-09-11T09:06:10Z</time>
      </trkpt>
      <trkpt lat="45.9647" lon="4.85037">
        <ele>266</ele>
        <time>2018-09-11T09:06:13Z</time>
      </trkpt>
      <trkpt lat="45.9647" lon="4.85041">
        <ele>266</ele>
        <time>2018-09-11T09:06:14Z</time>
      </trkpt>
      <trkpt lat="45.9647" lon="4.85053">
        <ele>266</ele>
        <time>2018-09-11T09:06:17Z</time>
      </trkpt>
      <trkpt lat="45.9647" lon="4.85057">
        <ele>266</ele>
        <time>2018-09-11T09:06:18Z</time>
      </trkpt>
      <trkpt lat="45.96471" lon="4.85068">
        <ele>266</ele>
        <time>2018-09-11T09:06:21Z</time>
      </trkpt>
      <trkpt lat="45.96471" lon="4.85072">
        <ele>267</ele>
        <time>2018-09-11T09:06:22Z</time>
      </trkpt>
      <trkpt lat="45.9647" lon="4.85084">
        <ele>268</ele>
        <time>2018-09-11T09:06:25Z</time>
      </trkpt>
      <trkpt lat="45.9647" lon="4.85088">
        <ele>268</ele>
        <time>2018-09-11T09:06:26Z</time>
      </trkpt>
      <trkpt lat="45.96469" lon="4.85101">
        <ele>268</ele>
        <time>2018-09-11T09:06:29Z</time>
      </trkpt>
      <trkpt lat="45.96468" lon="4.85114">
        <ele>268</ele>
        <time>2018-09-11T09:06:30Z</time>
      </trkpt>
      <trkpt lat="45.96466" lon="4.85123">
        <ele>268</ele>
        <time>2018-09-11T09:06:34Z</time>
      </trkpt>
      <trkpt lat="45.96466" lon="4.85127">
        <ele>268</ele>
        <time>2018-09-11T09:06:35Z</time>
      </trkpt>
      <trkpt lat="45.96464" lon="4.85137">
        <ele>268</ele>
        <time>2018-09-11T09:06:38Z</time>
      </trkpt>
      <trkpt lat="45.96463" lon="4.85141">
        <ele>268</ele>
        <time>2018-09-11T09:06:39Z</time>
      </trkpt>
      <trkpt lat="45.96461" lon="4.85153">
        <ele>268</ele>
        <time>2018-09-11T09:06:42Z</time>
      </trkpt>
      <trkpt lat="45.96461" lon="4.85156">
        <ele>268</ele>
        <time>2018-09-11T09:06:43Z</time>
      </trkpt>
      <trkpt lat="45.96458" lon="4.85168">
        <ele>269</ele>
        <time>2018-09-11T09:06:46Z</time>
      </trkpt>
      <trkpt lat="45.96457" lon="4.85173">
        <ele>269</ele>
        <time>2018-09-11T09:06:47Z</time>
      </trkpt>
      <trkpt lat="45.96456" lon="4.85181">
        <ele>269</ele>
        <time>2018-09-11T09:06:49Z</time>
      </trkpt>
      <trkpt lat="45.96455" lon="4.85186">
        <ele>269</ele>
        <time>2018-09-11T09:06:50Z</time>
      </trkpt>
      <trkpt lat="45.96455" lon="4.852">
        <ele>269</ele>
        <time>2018-09-11T09:06:51Z</time>
      </trkpt>
      <trkpt lat="45.96455" lon="4.8521">
        <ele>269</ele>
        <time>2018-09-11T09:06:54Z</time>
      </trkpt>
      <trkpt lat="45.96455" lon="4.85214">
        <ele>269</ele>
        <time>2018-09-11T09:06:55Z</time>
      </trkpt>
      <trkpt lat="45.96455" lon="4.85227">
        <ele>269</ele>
        <time>2018-09-11T09:06:58Z</time>
      </trkpt>
      <trkpt lat="45.96455" lon="4.85231">
        <ele>269</ele>
        <time>2018-09-11T09:06:59Z</time>
      </trkpt>
      <trkpt lat="45.96454" lon="4.85244">
        <ele>269</ele>
        <time>2018-09-11T09:07:02Z</time>
      </trkpt>
      <trkpt lat="45.96454" lon="4.85248">
        <ele>269</ele>
        <time>2018-09-11T09:07:03Z</time>
      </trkpt>
      <trkpt lat="45.96455" lon="4.85257">
        <ele>270</ele>
        <time>2018-09-11T09:07:05Z</time>
      </trkpt>
      <trkpt lat="45.96456" lon="4.85269">
        <ele>270</ele>
        <time>2018-09-11T09:07:06Z</time>
      </trkpt>
      <trkpt lat="45.96456" lon="4.85281">
        <ele>270</ele>
        <time>2018-09-11T09:07:09Z</time>
      </trkpt>
      <trkpt lat="45.96456" lon="4.85291">
        <ele>270</ele>
        <time>2018-09-11T09:07:10Z</time>
      </trkpt>
      <trkpt lat="45.96456" lon="4.85301">
        <ele>271</ele>
        <time>2018-09-11T09:07:13Z</time>
      </trkpt>
      <trkpt lat="45.96457" lon="4.85312">
        <ele>271</ele>
        <time>2018-09-11T09:07:14Z</time>
      </trkpt>
      <trkpt lat="45.96457" lon="4.85323">
        <ele>271</ele>
        <time>2018-09-11T09:07:16Z</time>
      </trkpt>
      <trkpt lat="45.96457" lon="4.85329">
        <ele>271</ele>
        <time>2018-09-11T09:07:17Z</time>
      </trkpt>
      <trkpt lat="45.96458" lon="4.8534">
        <ele>272</ele>
        <time>2018-09-11T09:07:19Z</time>
      </trkpt>
      <trkpt lat="45.96459" lon="4.85345">
        <ele>272</ele>
        <time>2018-09-11T09:07:20Z</time>
      </trkpt>
      <trkpt lat="45.96459" lon="4.85351">
        <ele>272</ele>
        <time>2018-09-11T09:07:22Z</time>
      </trkpt>
      <trkpt lat="45.9646" lon="4.8536">
        <ele>272</ele>
        <time>2018-09-11T09:07:23Z</time>
      </trkpt>
      <trkpt lat="45.96462" lon="4.85371">
        <ele>272</ele>
        <time>2018-09-11T09:07:25Z</time>
      </trkpt>
      <trkpt lat="45.96462" lon="4.85377">
        <ele>272</ele>
        <time>2018-09-11T09:07:26Z</time>
      </trkpt>
      <trkpt lat="45.96463" lon="4.85388">
        <ele>272</ele>
        <time>2018-09-11T09:07:28Z</time>
      </trkpt>
      <trkpt lat="45.96464" lon="4.85393">
        <ele>272</ele>
        <time>2018-09-11T09:07:29Z</time>
      </trkpt>
      <trkpt lat="45.96465" lon="4.85403">
        <ele>272</ele>
        <time>2018-09-11T09:07:31Z</time>
      </trkpt>
      <trkpt lat="45.96465" lon="4.85408">
        <ele>272</ele>
        <time>2018-09-11T09:07:32Z</time>
      </trkpt>
      <trkpt lat="45.96465" lon="4.85418">
        <ele>272</ele>
        <time>2018-09-11T09:07:34Z</time>
      </trkpt>
      <trkpt lat="45.96465" lon="4.85424">
        <ele>272</ele>
        <time>2018-09-11T09:07:35Z</time>
      </trkpt>
      <trkpt lat="45.96466" lon="4.85433">
        <ele>272</ele>
        <time>2018-09-11T09:07:37Z</time>
      </trkpt>
      <trkpt lat="45.96466" lon="4.8544">
        <ele>272</ele>
        <time>2018-09-11T09:07:38Z</time>
      </trkpt>
      <trkpt lat="45.96466" lon="4.85448">
        <ele>272</ele>
        <time>2018-09-11T09:07:39Z</time>
      </trkpt>
      <trkpt lat="45.96466" lon="4.85455">
        <ele>272</ele>
        <time>2018-09-11T09:07:40Z</time>
      </trkpt>
      <trkpt lat="45.96465" lon="4.85462">
        <ele>272</ele>
        <time>2018-09-11T09:07:41Z</time>
      </trkpt>
      <trkpt lat="45.96465" lon="4.85469">
        <ele>272</ele>
        <time>2018-09-11T09:07:42Z</time>
      </trkpt>
      <trkpt lat="45.96464" lon="4.85476">
        <ele>272</ele>
        <time>2018-09-11T09:07:43Z</time>
      </trkpt>
      <trkpt lat="45.96464" lon="4.85484">
        <ele>272</ele>
        <time>2018-09-11T09:07:44Z</time>
      </trkpt>
      <trkpt lat="45.96467" lon="4.85495">
        <ele>272</ele>
        <time>2018-09-11T09:07:46Z</time>
      </trkpt>
      <trkpt lat="45.96467" lon="4.85505">
        <ele>272</ele>
        <time>2018-09-11T09:07:47Z</time>
      </trkpt>
      <trkpt lat="45.96468" lon="4.85516">
        <ele>272</ele>
        <time>2018-09-11T09:07:49Z</time>
      </trkpt>
      <trkpt lat="45.96468" lon="4.85526">
        <ele>272</ele>
        <time>2018-09-11T09:07:50Z</time>
      </trkpt>
      <trkpt lat="45.96465" lon="4.85534">
        <ele>272</ele>
        <time>2018-09-11T09:07:52Z</time>
      </trkpt>
      <trkpt lat="45.96467" lon="4.85541">
        <ele>272</ele>
        <time>2018-09-11T09:07:53Z</time>
      </trkpt>
      <trkpt lat="45.96466" lon="4.85549">
        <ele>272</ele>
        <time>2018-09-11T09:07:54Z</time>
      </trkpt>
      <trkpt lat="45.96467" lon="4.85557">
        <ele>272</ele>
        <time>2018-09-11T09:07:55Z</time>
      </trkpt>
      <trkpt lat="45.96467" lon="4.85566">
        <ele>272</ele>
        <time>2018-09-11T09:07:57Z</time>
      </trkpt>
      <trkpt lat="45.96468" lon="4.85573">
        <ele>272</ele>
        <time>2018-09-11T09:07:58Z</time>
      </trkpt>
      <trkpt lat="45.96471" lon="4.85585">
        <ele>271</ele>
        <time>2018-09-11T09:08:01Z</time>
      </trkpt>
      <trkpt lat="45.96471" lon="4.85588">
        <ele>271</ele>
        <time>2018-09-11T09:08:02Z</time>
      </trkpt>
      <trkpt lat="45.96472" lon="4.85599">
        <ele>271</ele>
        <time>2018-09-11T09:08:03Z</time>
      </trkpt>
      <trkpt lat="45.96473" lon="4.85605">
        <ele>271</ele>
        <time>2018-09-11T09:08:04Z</time>
      </trkpt>
      <trkpt lat="45.96474" lon="4.85618">
        <ele>271</ele>
        <time>2018-09-11T09:08:06Z</time>
      </trkpt>
      <trkpt lat="45.96474" lon="4.85623">
        <ele>271</ele>
        <time>2018-09-11T09:08:07Z</time>
      </trkpt>
      <trkpt lat="45.96475" lon="4.8563">
        <ele>271</ele>
        <time>2018-09-11T09:08:08Z</time>
      </trkpt>
      <trkpt lat="45.96477" lon="4.85638">
        <ele>271</ele>
        <time>2018-09-11T09:08:09Z</time>
      </trkpt>
      <trkpt lat="45.96478" lon="4.85646">
        <ele>271</ele>
        <time>2018-09-11T09:08:10Z</time>
      </trkpt>
      <trkpt lat="45.96479" lon="4.85653">
        <ele>271</ele>
        <time>2018-09-11T09:08:11Z</time>
      </trkpt>
      <trkpt lat="45.96478" lon="4.8566">
        <ele>271</ele>
        <time>2018-09-11T09:08:13Z</time>
      </trkpt>
      <trkpt lat="45.96478" lon="4.85669">
        <ele>272</ele>
        <time>2018-09-11T09:08:14Z</time>
      </trkpt>
      <trkpt lat="45.96479" lon="4.8568">
        <ele>272</ele>
        <time>2018-09-11T09:08:16Z</time>
      </trkpt>
      <trkpt lat="45.96482" lon="4.85684">
        <ele>272</ele>
        <time>2018-09-11T09:08:17Z</time>
      </trkpt>
      <trkpt lat="45.96484" lon="4.85695">
        <ele>272</ele>
        <time>2018-09-11T09:08:19Z</time>
      </trkpt>
      <trkpt lat="45.96485" lon="4.85699">
        <ele>272</ele>
        <time>2018-09-11T09:08:20Z</time>
      </trkpt>
      <trkpt lat="45.96486" lon="4.85705">
        <ele>272</ele>
        <time>2018-09-11T09:08:21Z</time>
      </trkpt>
      <trkpt lat="45.96488" lon="4.85712">
        <ele>272</ele>
        <time>2018-09-11T09:08:22Z</time>
      </trkpt>
      <trkpt lat="45.96489" lon="4.85723">
        <ele>273</ele>
        <time>2018-09-11T09:08:24Z</time>
      </trkpt>
      <trkpt lat="45.9649" lon="4.85729">
        <ele>273</ele>
        <time>2018-09-11T09:08:25Z</time>
      </trkpt>
      <trkpt lat="45.96491" lon="4.85734">
        <ele>273</ele>
        <time>2018-09-11T09:08:26Z</time>
      </trkpt>
      <trkpt lat="45.96492" lon="4.85741">
        <ele>273</ele>
        <time>2018-09-11T09:08:27Z</time>
      </trkpt>
      <trkpt lat="45.96493" lon="4.8575">
        <ele>274</ele>
        <time>2018-09-11T09:08:28Z</time>
      </trkpt>
      <trkpt lat="45.96494" lon="4.85755">
        <ele>274</ele>
        <time>2018-09-11T09:08:29Z</time>
      </trkpt>
      <trkpt lat="45.96495" lon="4.85764">
        <ele>274</ele>
        <time>2018-09-11T09:08:30Z</time>
      </trkpt>
      <trkpt lat="45.96495" lon="4.85771">
        <ele>274</ele>
        <time>2018-09-11T09:08:31Z</time>
      </trkpt>
      <trkpt lat="45.96498" lon="4.85782">
        <ele>274</ele>
        <time>2018-09-11T09:08:33Z</time>
      </trkpt>
      <trkpt lat="45.96499" lon="4.85787">
        <ele>274</ele>
        <time>2018-09-11T09:08:34Z</time>
      </trkpt>
      <trkpt lat="45.965" lon="4.85797">
        <ele>276</ele>
        <time>2018-09-11T09:08:37Z</time>
      </trkpt>
      <trkpt lat="45.96501" lon="4.858">
        <ele>276</ele>
        <time>2018-09-11T09:08:38Z</time>
      </trkpt>
      <trkpt lat="45.96503" lon="4.8581">
        <ele>276</ele>
        <time>2018-09-11T09:08:41Z</time>
      </trkpt>
      <trkpt lat="45.96503" lon="4.85814">
        <ele>276</ele>
        <time>2018-09-11T09:08:42Z</time>
      </trkpt>
      <trkpt lat="45.96504" lon="4.85826">
        <ele>275</ele>
        <time>2018-09-11T09:08:43Z</time>
      </trkpt>
      <trkpt lat="45.96505" lon="4.85839">
        <ele>275</ele>
        <time>2018-09-11T09:08:45Z</time>
      </trkpt>
      <trkpt lat="45.96506" lon="4.85845">
        <ele>275</ele>
        <time>2018-09-11T09:08:46Z</time>
      </trkpt>
      <trkpt lat="45.96508" lon="4.8585">
        <ele>275</ele>
        <time>2018-09-11T09:08:47Z</time>
      </trkpt>
      <trkpt lat="45.96508" lon="4.85858">
        <ele>275</ele>
        <time>2018-09-11T09:08:48Z</time>
      </trkpt>
      <trkpt lat="45.96509" lon="4.85865">
        <ele>275</ele>
        <time>2018-09-11T09:08:49Z</time>
      </trkpt>
      <trkpt lat="45.9651" lon="4.85871">
        <ele>275</ele>
        <time>2018-09-11T09:08:50Z</time>
      </trkpt>
      <trkpt lat="45.9651" lon="4.85881">
        <ele>275</ele>
        <time>2018-09-11T09:08:51Z</time>
      </trkpt>
      <trkpt lat="45.96511" lon="4.85887">
        <ele>275</ele>
        <time>2018-09-11T09:08:52Z</time>
      </trkpt>
      <trkpt lat="45.96513" lon="4.85899">
        <ele>275</ele>
        <time>2018-09-11T09:08:54Z</time>
      </trkpt>
      <trkpt lat="45.96513" lon="4.85904">
        <ele>275</ele>
        <time>2018-09-11T09:08:55Z</time>
      </trkpt>
      <trkpt lat="45.96515" lon="4.85914">
        <ele>275</ele>
        <time>2018-09-11T09:08:57Z</time>
      </trkpt>
      <trkpt lat="45.96518" lon="4.85919">
        <ele>275</ele>
        <time>2018-09-11T09:08:58Z</time>
      </trkpt>
      <trkpt lat="45.96523" lon="4.85929">
        <ele>275</ele>
        <time>2018-09-11T09:09:00Z</time>
      </trkpt>
      <trkpt lat="45.96526" lon="4.85935">
        <ele>275</ele>
        <time>2018-09-11T09:09:01Z</time>
      </trkpt>
      <trkpt lat="45.96529" lon="4.85946">
        <ele>275</ele>
        <time>2018-09-11T09:09:03Z</time>
      </trkpt>
      <trkpt lat="45.96531" lon="4.85952">
        <ele>275</ele>
        <time>2018-09-11T09:09:04Z</time>
      </trkpt>
      <trkpt lat="45.96535" lon="4.85962">
        <ele>275</ele>
        <time>2018-09-11T09:09:06Z</time>
      </trkpt>
      <trkpt lat="45.96537" lon="4.85967">
        <ele>275</ele>
        <time>2018-09-11T09:09:07Z</time>
      </trkpt>
      <trkpt lat="45.9654" lon="4.85972">
        <ele>275</ele>
        <time>2018-09-11T09:09:08Z</time>
      </trkpt>
      <trkpt lat="45.96542" lon="4.85978">
        <ele>275</ele>
        <time>2018-09-11T09:09:09Z</time>
      </trkpt>
      <trkpt lat="45.96547" lon="4.85987">
        <ele>275</ele>
        <time>2018-09-11T09:09:11Z</time>
      </trkpt>
      <trkpt lat="45.96549" lon="4.85992">
        <ele>276</ele>
        <time>2018-09-11T09:09:12Z</time>
      </trkpt>
      <trkpt lat="45.96554" lon="4.85999">
        <ele>276</ele>
        <time>2018-09-11T09:09:14Z</time>
      </trkpt>
      <trkpt lat="45.96556" lon="4.86005">
        <ele>276</ele>
        <time>2018-09-11T09:09:15Z</time>
      </trkpt>
      <trkpt lat="45.96562" lon="4.86015">
        <ele>276</ele>
        <time>2018-09-11T09:09:17Z</time>
      </trkpt>
      <trkpt lat="45.96564" lon="4.86018">
        <ele>276</ele>
        <time>2018-09-11T09:09:18Z</time>
      </trkpt>
      <trkpt lat="45.96569" lon="4.86028">
        <ele>276</ele>
        <time>2018-09-11T09:09:22Z</time>
      </trkpt>
      <trkpt lat="45.9657" lon="4.86031">
        <ele>276</ele>
        <time>2018-09-11T09:09:23Z</time>
      </trkpt>
      <trkpt lat="45.96572" lon="4.86038">
        <ele>276</ele>
        <time>2018-09-11T09:09:25Z</time>
      </trkpt>
      <trkpt lat="45.96574" lon="4.86042">
        <ele>276</ele>
        <time>2018-09-11T09:09:26Z</time>
      </trkpt>
      <trkpt lat="45.96578" lon="4.8605">
        <ele>276</ele>
        <time>2018-09-11T09:09:28Z</time>
      </trkpt>
      <trkpt lat="45.9658" lon="4.86054">
        <ele>277</ele>
        <time>2018-09-11T09:09:29Z</time>
      </trkpt>
      <trkpt lat="45.96584" lon="4.86062">
        <ele>280</ele>
        <time>2018-09-11T09:09:31Z</time>
      </trkpt>
      <trkpt lat="45.96585" lon="4.86065">
        <ele>279</ele>
        <time>2018-09-11T09:09:32Z</time>
      </trkpt>
      <trkpt lat="45.96589" lon="4.86074">
        <ele>279</ele>
        <time>2018-09-11T09:09:34Z</time>
      </trkpt>
      <trkpt lat="45.96593" lon="4.86086">
        <ele>279</ele>
        <time>2018-09-11T09:09:35Z</time>
      </trkpt>
      <trkpt lat="45.96596" lon="4.86097">
        <ele>280</ele>
        <time>2018-09-11T09:09:38Z</time>
      </trkpt>
      <trkpt lat="45.96596" lon="4.86101">
        <ele>280</ele>
        <time>2018-09-11T09:09:39Z</time>
      </trkpt>
      <trkpt lat="45.96596" lon="4.86112">
        <ele>281</ele>
        <time>2018-09-11T09:09:41Z</time>
      </trkpt>
      <trkpt lat="45.96596" lon="4.8612">
        <ele>281</ele>
        <time>2018-09-11T09:09:42Z</time>
      </trkpt>
      <trkpt lat="45.96595" lon="4.86131">
        <ele>281</ele>
        <time>2018-09-11T09:09:44Z</time>
      </trkpt>
      <trkpt lat="45.96595" lon="4.86136">
        <ele>281</ele>
        <time>2018-09-11T09:09:45Z</time>
      </trkpt>
      <trkpt lat="45.96594" lon="4.86145">
        <ele>281</ele>
        <time>2018-09-11T09:09:48Z</time>
      </trkpt>
      <trkpt lat="45.96594" lon="4.86149">
        <ele>281</ele>
        <time>2018-09-11T09:09:49Z</time>
      </trkpt>
      <trkpt lat="45.96592" lon="4.86161">
        <ele>281</ele>
        <time>2018-09-11T09:09:52Z</time>
      </trkpt>
      <trkpt lat="45.96591" lon="4.86165">
        <ele>281</ele>
        <time>2018-09-11T09:09:53Z</time>
      </trkpt>
      <trkpt lat="45.9659" lon="4.86174">
        <ele>281</ele>
        <time>2018-09-11T09:09:55Z</time>
      </trkpt>
      <trkpt lat="45.96589" lon="4.86179">
        <ele>281</ele>
        <time>2018-09-11T09:09:56Z</time>
      </trkpt>
      <trkpt lat="45.96588" lon="4.86191">
        <ele>282</ele>
        <time>2018-09-11T09:09:59Z</time>
      </trkpt>
      <trkpt lat="45.96588" lon="4.86195">
        <ele>282</ele>
        <time>2018-09-11T09:10:00Z</time>
      </trkpt>
      <trkpt lat="45.96586" lon="4.86207">
        <ele>282</ele>
        <time>2018-09-11T09:10:03Z</time>
      </trkpt>
      <trkpt lat="45.96586" lon="4.86211">
        <ele>282</ele>
        <time>2018-09-11T09:10:04Z</time>
      </trkpt>
      <trkpt lat="45.96584" lon="4.86223">
        <ele>282</ele>
        <time>2018-09-11T09:10:07Z</time>
      </trkpt>
      <trkpt lat="45.96584" lon="4.86227">
        <ele>282</ele>
        <time>2018-09-11T09:10:08Z</time>
      </trkpt>
      <trkpt lat="45.96583" lon="4.86239">
        <ele>280</ele>
        <time>2018-09-11T09:10:11Z</time>
      </trkpt>
      <trkpt lat="45.96583" lon="4.86243">
        <ele>281</ele>
        <time>2018-09-11T09:10:12Z</time>
      </trkpt>
      <trkpt lat="45.96582" lon="4.86254">
        <ele>281</ele>
        <time>2018-09-11T09:10:15Z</time>
      </trkpt>
      <trkpt lat="45.96582" lon="4.86258">
        <ele>281</ele>
        <time>2018-09-11T09:10:16Z</time>
      </trkpt>
      <trkpt lat="45.96582" lon="4.8627">
        <ele>282</ele>
        <time>2018-09-11T09:10:19Z</time>
      </trkpt>
      <trkpt lat="45.96582" lon="4.86274">
        <ele>282</ele>
        <time>2018-09-11T09:10:20Z</time>
      </trkpt>
      <trkpt lat="45.96581" lon="4.86286">
        <ele>282</ele>
        <time>2018-09-11T09:10:23Z</time>
      </trkpt>
      <trkpt lat="45.96581" lon="4.8629">
        <ele>282</ele>
        <time>2018-09-11T09:10:24Z</time>
      </trkpt>
      <trkpt lat="45.9658" lon="4.86299">
        <ele>282</ele>
        <time>2018-09-11T09:10:26Z</time>
      </trkpt>
      <trkpt lat="45.9658" lon="4.86304">
        <ele>283</ele>
        <time>2018-09-11T09:10:27Z</time>
      </trkpt>
      <trkpt lat="45.96579" lon="4.86312">
        <ele>283</ele>
        <time>2018-09-11T09:10:29Z</time>
      </trkpt>
      <trkpt lat="45.96579" lon="4.86317">
        <ele>283</ele>
        <time>2018-09-11T09:10:30Z</time>
      </trkpt>
      <trkpt lat="45.96578" lon="4.86326">
        <ele>284</ele>
        <time>2018-09-11T09:10:32Z</time>
      </trkpt>
      <trkpt lat="45.96578" lon="4.8633">
        <ele>284</ele>
        <time>2018-09-11T09:10:33Z</time>
      </trkpt>
      <trkpt lat="45.96578" lon="4.86339">
        <ele>285</ele>
        <time>2018-09-11T09:10:35Z</time>
      </trkpt>
      <trkpt lat="45.96577" lon="4.86343">
        <ele>285</ele>
        <time>2018-09-11T09:10:36Z</time>
      </trkpt>
      <trkpt lat="45.96577" lon="4.86356">
        <ele>285</ele>
        <time>2018-09-11T09:10:37Z</time>
      </trkpt>
      <trkpt lat="45.96577" lon="4.86368">
        <ele>286</ele>
        <time>2018-09-11T09:10:41Z</time>
      </trkpt>
      <trkpt lat="45.96577" lon="4.86371">
        <ele>286</ele>
        <time>2018-09-11T09:10:42Z</time>
      </trkpt>
      <trkpt lat="45.96578" lon="4.86379">
        <ele>286</ele>
        <time>2018-09-11T09:10:44Z</time>
      </trkpt>
      <trkpt lat="45.96578" lon="4.86392">
        <ele>287</ele>
        <time>2018-09-11T09:10:45Z</time>
      </trkpt>
      <trkpt lat="45.96579" lon="4.86403">
        <ele>288</ele>
        <time>2018-09-11T09:10:48Z</time>
      </trkpt>
      <trkpt lat="45.96579" lon="4.86407">
        <ele>288</ele>
        <time>2018-09-11T09:10:49Z</time>
      </trkpt>
      <trkpt lat="45.9658" lon="4.86416">
        <ele>289</ele>
        <time>2018-09-11T09:10:52Z</time>
      </trkpt>
      <trkpt lat="45.9658" lon="4.8642">
        <ele>290</ele>
        <time>2018-09-11T09:10:53Z</time>
      </trkpt>
      <trkpt lat="45.9658" lon="4.86431">
        <ele>289</ele>
        <time>2018-09-11T09:10:56Z</time>
      </trkpt>
      <trkpt lat="45.9658" lon="4.86435">
        <ele>289</ele>
        <time>2018-09-11T09:10:57Z</time>
      </trkpt>
      <trkpt lat="45.96581" lon="4.86447">
        <ele>289</ele>
        <time>2018-09-11T09:11:00Z</time>
      </trkpt>
      <trkpt lat="45.96581" lon="4.86452">
        <ele>289</ele>
        <time>2018-09-11T09:11:01Z</time>
      </trkpt>
      <trkpt lat="45.96581" lon="4.86461">
        <ele>289</ele>
        <time>2018-09-11T09:11:03Z</time>
      </trkpt>
      <trkpt lat="45.96582" lon="4.86474">
        <ele>290</ele>
        <time>2018-09-11T09:11:04Z</time>
      </trkpt>
      <trkpt lat="45.96584" lon="4.86485">
        <ele>292</ele>
        <time>2018-09-11T09:11:09Z</time>
      </trkpt>
      <trkpt lat="45.96584" lon="4.86487">
        <ele>292</ele>
        <time>2018-09-11T09:11:10Z</time>
      </trkpt>
      <trkpt lat="45.96588" lon="4.86495">
        <ele>292</ele>
        <time>2018-09-11T09:11:13Z</time>
      </trkpt>
      <trkpt lat="45.9659" lon="4.86498">
        <ele>292</ele>
        <time>2018-09-11T09:11:14Z</time>
      </trkpt>
      <trkpt lat="45.96594" lon="4.86504">
        <ele>292</ele>
        <time>2018-09-11T09:11:16Z</time>
      </trkpt>
      <trkpt lat="45.96597" lon="4.86507">
        <ele>291</ele>
        <time>2018-09-11T09:11:17Z</time>
      </trkpt>
      <trkpt lat="45.96599" lon="4.8651">
        <ele>291</ele>
        <time>2018-09-11T09:11:18Z</time>
      </trkpt>
      <trkpt lat="45.96606" lon="4.86519">
        <ele>291</ele>
        <time>2018-09-11T09:11:19Z</time>
      </trkpt>
      <trkpt lat="45.96613" lon="4.86527">
        <ele>291</ele>
        <time>2018-09-11T09:11:23Z</time>
      </trkpt>
      <trkpt lat="45.96615" lon="4.86529">
        <ele>291</ele>
        <time>2018-09-11T09:11:24Z</time>
      </trkpt>
      <trkpt lat="45.9662" lon="4.86534">
        <ele>291</ele>
        <time>2018-09-11T09:11:26Z</time>
      </trkpt>
      <trkpt lat="45.96627" lon="4.86542">
        <ele>291</ele>
        <time>2018-09-11T09:11:27Z</time>
      </trkpt>
      <trkpt lat="45.96635" lon="4.86548">
        <ele>291</ele>
        <time>2018-09-11T09:11:29Z</time>
      </trkpt>
      <trkpt lat="45.96638" lon="4.86551">
        <ele>291</ele>
        <time>2018-09-11T09:11:30Z</time>
      </trkpt>
      <trkpt lat="45.96642" lon="4.86554">
        <ele>291</ele>
        <time>2018-09-11T09:11:31Z</time>
      </trkpt>
      <trkpt lat="45.96646" lon="4.86559">
        <ele>291</ele>
        <time>2018-09-11T09:11:32Z</time>
      </trkpt>
      <trkpt lat="45.96653" lon="4.86564">
        <ele>290</ele>
        <time>2018-09-11T09:11:34Z</time>
      </trkpt>
      <trkpt lat="45.96656" lon="4.86567">
        <ele>290</ele>
        <time>2018-09-11T09:11:35Z</time>
      </trkpt>
      <trkpt lat="45.96663" lon="4.86573">
        <ele>290</ele>
        <time>2018-09-11T09:11:37Z</time>
      </trkpt>
      <trkpt lat="45.96666" lon="4.86576">
        <ele>290</ele>
        <time>2018-09-11T09:11:38Z</time>
      </trkpt>
      <trkpt lat="45.96672" lon="4.86584">
        <ele>290</ele>
        <time>2018-09-11T09:11:40Z</time>
      </trkpt>
      <trkpt lat="45.96675" lon="4.86587">
        <ele>290</ele>
        <time>2018-09-11T09:11:41Z</time>
      </trkpt>
      <trkpt lat="45.96681" lon="4.86594">
        <ele>290</ele>
        <time>2018-09-11T09:11:43Z</time>
      </trkpt>
      <trkpt lat="45.96685" lon="4.86598">
        <ele>290</ele>
        <time>2018-09-11T09:11:44Z</time>
      </trkpt>
      <trkpt lat="45.96692" lon="4.86604">
        <ele>290</ele>
        <time>2018-09-11T09:11:46Z</time>
      </trkpt>
      <trkpt lat="45.96696" lon="4.86607">
        <ele>290</ele>
        <time>2018-09-11T09:11:47Z</time>
      </trkpt>
      <trkpt lat="45.96703" lon="4.86613">
        <ele>290</ele>
        <time>2018-09-11T09:11:49Z</time>
      </trkpt>
      <trkpt lat="45.96707" lon="4.86616">
        <ele>290</ele>
        <time>2018-09-11T09:11:50Z</time>
      </trkpt>
      <trkpt lat="45.96715" lon="4.8662">
        <ele>290</ele>
        <time>2018-09-11T09:11:52Z</time>
      </trkpt>
      <trkpt lat="45.96719" lon="4.86621">
        <ele>290</ele>
        <time>2018-09-11T09:11:53Z</time>
      </trkpt>
      <trkpt lat="45.96727" lon="4.86625">
        <ele>290</ele>
        <time>2018-09-11T09:11:55Z</time>
      </trkpt>
      <trkpt lat="45.96731" lon="4.86627">
        <ele>290</ele>
        <time>2018-09-11T09:11:56Z</time>
      </trkpt>
      <trkpt lat="45.96739" lon="4.86632">
        <ele>290</ele>
        <time>2018-09-11T09:11:58Z</time>
      </trkpt>
      <trkpt lat="45.96742" lon="4.86636">
        <ele>290</ele>
        <time>2018-09-11T09:11:59Z</time>
      </trkpt>
      <trkpt lat="45.96743" lon="4.86648">
        <ele>290</ele>
        <time>2018-09-11T09:12:01Z</time>
      </trkpt>
      <trkpt lat="45.96742" lon="4.86653">
        <ele>290</ele>
        <time>2018-09-11T09:12:02Z</time>
      </trkpt>
      <trkpt lat="45.96739" lon="4.86658">
        <ele>290</ele>
        <time>2018-09-11T09:12:03Z</time>
      </trkpt>
      <trkpt lat="45.96737" lon="4.86664">
        <ele>290</ele>
        <time>2018-09-11T09:12:04Z</time>
      </trkpt>
      <trkpt lat="45.96733" lon="4.8667">
        <ele>290</ele>
        <time>2018-09-11T09:12:05Z</time>
      </trkpt>
      <trkpt lat="45.9673" lon="4.86676">
        <ele>290</ele>
        <time>2018-09-11T09:12:06Z</time>
      </trkpt>
      <trkpt lat="45.96727" lon="4.86681">
        <ele>289</ele>
        <time>2018-09-11T09:12:07Z</time>
      </trkpt>
      <trkpt lat="45.96723" lon="4.86688">
        <ele>289</ele>
        <time>2018-09-11T09:12:08Z</time>
      </trkpt>
      <trkpt lat="45.96719" lon="4.86692">
        <ele>289</ele>
        <time>2018-09-11T09:12:09Z</time>
      </trkpt>
      <trkpt lat="45.96716" lon="4.86699">
        <ele>289</ele>
        <time>2018-09-11T09:12:10Z</time>
      </trkpt>
      <trkpt lat="45.96713" lon="4.86705">
        <ele>289</ele>
        <time>2018-09-11T09:12:11Z</time>
      </trkpt>
      <trkpt lat="45.96709" lon="4.86712">
        <ele>289</ele>
        <time>2018-09-11T09:12:12Z</time>
      </trkpt>
      <trkpt lat="45.96706" lon="4.86718">
        <ele>289</ele>
        <time>2018-09-11T09:12:13Z</time>
      </trkpt>
      <trkpt lat="45.96702" lon="4.86724">
        <ele>289</ele>
        <time>2018-09-11T09:12:14Z</time>
      </trkpt>
      <trkpt lat="45.96699" lon="4.8673">
        <ele>289</ele>
        <time>2018-09-11T09:12:15Z</time>
      </trkpt>
      <trkpt lat="45.96695" lon="4.86736">
        <ele>289</ele>
        <time>2018-09-11T09:12:16Z</time>
      </trkpt>
      <trkpt lat="45.96693" lon="4.86743">
        <ele>289</ele>
        <time>2018-09-11T09:12:17Z</time>
      </trkpt>
      <trkpt lat="45.96689" lon="4.86748">
        <ele>289</ele>
        <time>2018-09-11T09:12:18Z</time>
      </trkpt>
      <trkpt lat="45.96681" lon="4.86752">
        <ele>289</ele>
        <time>2018-09-11T09:12:19Z</time>
      </trkpt>
      <trkpt lat="45.96677" lon="4.86758">
        <ele>289</ele>
        <time>2018-09-11T09:12:20Z</time>
      </trkpt>
      <trkpt lat="45.96674" lon="4.86764">
        <ele>289</ele>
        <time>2018-09-11T09:12:21Z</time>
      </trkpt>
      <trkpt lat="45.9667" lon="4.86768">
        <ele>289</ele>
        <time>2018-09-11T09:12:22Z</time>
      </trkpt>
      <trkpt lat="45.96669" lon="4.86775">
        <ele>289</ele>
        <time>2018-09-11T09:12:23Z</time>
      </trkpt>
      <trkpt lat="45.96666" lon="4.86781">
        <ele>288</ele>
        <time>2018-09-11T09:12:24Z</time>
      </trkpt>
      <trkpt lat="45.96662" lon="4.86786">
        <ele>288</ele>
        <time>2018-09-11T09:12:25Z</time>
      </trkpt>
      <trkpt lat="45.96659" lon="4.86792">
        <ele>288</ele>
        <time>2018-09-11T09:12:26Z</time>
      </trkpt>
      <trkpt lat="45.96656" lon="4.86799">
        <ele>288</ele>
        <time>2018-09-11T09:12:27Z</time>
      </trkpt>
      <trkpt lat="45.96654" lon="4.86806">
        <ele>288</ele>
        <time>2018-09-11T09:12:28Z</time>
      </trkpt>
      <trkpt lat="45.96651" lon="4.86813">
        <ele>288</ele>
        <time>2018-09-11T09:12:29Z</time>
      </trkpt>
      <trkpt lat="45.96647" lon="4.86819">
        <ele>288</ele>
        <time>2018-09-11T09:12:30Z</time>
      </trkpt>
      <trkpt lat="45.96644" lon="4.86826">
        <ele>288</ele>
        <time>2018-09-11T09:12:31Z</time>
      </trkpt>
      <trkpt lat="45.96641" lon="4.86832">
        <ele>288</ele>
        <time>2018-09-11T09:12:32Z</time>
      </trkpt>
      <trkpt lat="45.96636" lon="4.86836">
        <ele>287</ele>
        <time>2018-09-11T09:12:33Z</time>
      </trkpt>
      <trkpt lat="45.96633" lon="4.86842">
        <ele>287</ele>
        <time>2018-09-11T09:12:34Z</time>
      </trkpt>
      <trkpt lat="45.96627" lon="4.86848">
        <ele>287</ele>
        <time>2018-09-11T09:12:35Z</time>
      </trkpt>
      <trkpt lat="45.96624" lon="4.86854">
        <ele>287</ele>
        <time>2018-09-11T09:12:36Z</time>
      </trkpt>
      <trkpt lat="45.96621" lon="4.8686">
        <ele>287</ele>
        <time>2018-09-11T09:12:37Z</time>
      </trkpt>
      <trkpt lat="45.96618" lon="4.86865">
        <ele>287</ele>
        <time>2018-09-11T09:12:38Z</time>
      </trkpt>
      <trkpt lat="45.96615" lon="4.8687">
        <ele>287</ele>
        <time>2018-09-11T09:12:39Z</time>
      </trkpt>
      <trkpt lat="45.96611" lon="4.86876">
        <ele>287</ele>
        <time>2018-09-11T09:12:40Z</time>
      </trkpt>
      <trkpt lat="45.96606" lon="4.86881">
        <ele>287</ele>
        <time>2018-09-11T09:12:41Z</time>
      </trkpt>
      <trkpt lat="45.96602" lon="4.86887">
        <ele>287</ele>
        <time>2018-09-11T09:12:42Z</time>
      </trkpt>
      <trkpt lat="45.966" lon="4.86895">
        <ele>286</ele>
        <time>2018-09-11T09:12:43Z</time>
      </trkpt>
      <trkpt lat="45.96596" lon="4.86901">
        <ele>286</ele>
        <time>2018-09-11T09:12:44Z</time>
      </trkpt>
      <trkpt lat="45.96592" lon="4.86907">
        <ele>286</ele>
        <time>2018-09-11T09:12:45Z</time>
      </trkpt>
      <trkpt lat="45.96587" lon="4.86914">
        <ele>285</ele>
        <time>2018-09-11T09:12:46Z</time>
      </trkpt>
      <trkpt lat="45.96583" lon="4.86919">
        <ele>285</ele>
        <time>2018-09-11T09:12:47Z</time>
      </trkpt>
      <trkpt lat="45.96581" lon="4.86926">
        <ele>284</ele>
        <time>2018-09-11T09:12:48Z</time>
      </trkpt>
      <trkpt lat="45.96577" lon="4.8693">
        <ele>284</ele>
        <time>2018-09-11T09:12:49Z</time>
      </trkpt>
      <trkpt lat="45.96572" lon="4.86937">
        <ele>284</ele>
        <time>2018-09-11T09:12:50Z</time>
      </trkpt>
      <trkpt lat="45.9657" lon="4.86945">
        <ele>284</ele>
        <time>2018-09-11T09:12:51Z</time>
      </trkpt>
      <trkpt lat="45.96566" lon="4.8695">
        <ele>284</ele>
        <time>2018-09-11T09:12:52Z</time>
      </trkpt>
      <trkpt lat="45.96562" lon="4.86957">
        <ele>283</ele>
        <time>2018-09-11T09:12:53Z</time>
      </trkpt>
      <trkpt lat="45.9656" lon="4.86967">
        <ele>283</ele>
        <time>2018-09-11T09:12:54Z</time>
      </trkpt>
      <trkpt lat="45.96557" lon="4.86972">
        <ele>283</ele>
        <time>2018-09-11T09:12:55Z</time>
      </trkpt>
      <trkpt lat="45.96553" lon="4.86976">
        <ele>283</ele>
        <time>2018-09-11T09:12:56Z</time>
      </trkpt>
      <trkpt lat="45.96548" lon="4.86976">
        <ele>283</ele>
        <time>2018-09-11T09:12:57Z</time>
      </trkpt>
      <trkpt lat="45.96544" lon="4.86975">
        <ele>283</ele>
        <time>2018-09-11T09:12:58Z</time>
      </trkpt>
      <trkpt lat="45.96543" lon="4.86981">
        <ele>283</ele>
        <time>2018-09-11T09:13:00Z</time>
      </trkpt>
      <trkpt lat="45.96541" lon="4.86989">
        <ele>283</ele>
        <time>2018-09-11T09:13:01Z</time>
      </trkpt>
      <trkpt lat="45.96541" lon="4.87">
        <ele>283</ele>
        <time>2018-09-11T09:13:04Z</time>
      </trkpt>
      <trkpt lat="45.96541" lon="4.87002">
        <ele>283</ele>
        <time>2018-09-11T09:13:05Z</time>
      </trkpt>
      <trkpt lat="45.96542" lon="4.87012">
        <ele>283</ele>
        <time>2018-09-11T09:13:08Z</time>
      </trkpt>
      <trkpt lat="45.96543" lon="4.87016">
        <ele>283</ele>
        <time>2018-09-11T09:13:09Z</time>
      </trkpt>
      <trkpt lat="45.96548" lon="4.87024">
        <ele>283</ele>
        <time>2018-09-11T09:13:12Z</time>
      </trkpt>
      <trkpt lat="45.9655" lon="4.87025">
        <ele>283</ele>
        <time>2018-09-11T09:13:13Z</time>
      </trkpt>
      <trkpt lat="45.96558" lon="4.87028">
        <ele>283</ele>
        <time>2018-09-11T09:13:17Z</time>
      </trkpt>
      <trkpt lat="45.9656" lon="4.87031">
        <ele>283</ele>
        <time>2018-09-11T09:13:18Z</time>
      </trkpt>
      <trkpt lat="45.96564" lon="4.87041">
        <ele>283</ele>
        <time>2018-09-11T09:13:19Z</time>
      </trkpt>
      <trkpt lat="45.96564" lon="4.87044">
        <ele>283</ele>
        <time>2018-09-11T09:13:20Z</time>
      </trkpt>
      <trkpt lat="45.96563" lon="4.87055">
        <ele>283</ele>
        <time>2018-09-11T09:13:23Z</time>
      </trkpt>
      <trkpt lat="45.96563" lon="4.87059">
        <ele>283</ele>
        <time>2018-09-11T09:13:24Z</time>
      </trkpt>
      <trkpt lat="45.96562" lon="4.87069">
        <ele>283</ele>
        <time>2018-09-11T09:13:27Z</time>
      </trkpt>
      <trkpt lat="45.96561" lon="4.87071">
        <ele>283</ele>
        <time>2018-09-11T09:13:28Z</time>
      </trkpt>
      <trkpt lat="45.96553" lon="4.87076">
        <ele>283</ele>
        <time>2018-09-11T09:13:32Z</time>
      </trkpt>
      <trkpt lat="45.96551" lon="4.87076">
        <ele>283</ele>
        <time>2018-09-11T09:13:33Z</time>
      </trkpt>
      <trkpt lat="45.96546" lon="4.87066">
        <ele>283</ele>
        <time>2018-09-11T09:13:37Z</time>
      </trkpt>
      <trkpt lat="45.96545" lon="4.87062">
        <ele>283</ele>
        <time>2018-09-11T09:13:38Z</time>
      </trkpt>
      <trkpt lat="45.96545" lon="4.87051">
        <ele>283</ele>
        <time>2018-09-11T09:13:40Z</time>
      </trkpt>
      <trkpt lat="45.96545" lon="4.87046">
        <ele>283</ele>
        <time>2018-09-11T09:13:41Z</time>
      </trkpt>
      <trkpt lat="45.96543" lon="4.87033">
        <ele>283</ele>
        <time>2018-09-11T09:13:44Z</time>
      </trkpt>
      <trkpt lat="45.96542" lon="4.8703">
        <ele>283</ele>
        <time>2018-09-11T09:13:45Z</time>
      </trkpt>
      <trkpt lat="45.96534" lon="4.87025">
        <ele>283</ele>
        <time>2018-09-11T09:13:59Z</time>
      </trkpt>
      <trkpt lat="45.96534" lon="4.87025">
        <ele>283</ele>
        <time>2018-09-11T09:14:00Z</time>
      </trkpt>
      <trkpt lat="45.96527" lon="4.87024">
        <ele>283</ele>
        <time>2018-09-11T09:18:11.205Z</time>
      </trkpt>
      <trkpt lat="45.96522" lon="4.87021">
        <ele>282</ele>
        <time>2018-09-11T09:18:12.205Z</time>
      </trkpt>
      <trkpt lat="45.96528" lon="4.8703">
        <ele>283</ele>
        <time>2018-09-11T09:19:27Z</time>
      </trkpt>
      <trkpt lat="45.96528" lon="4.8703">
        <ele>283</ele>
        <time>2018-09-11T09:19:28Z</time>
      </trkpt>
      <trkpt lat="45.96535" lon="4.87022">
        <ele>283</ele>
        <time>2018-09-11T09:22:18Z</time>
      </trkpt>
      <trkpt lat="45.96535" lon="4.87019">
        <ele>283</ele>
        <time>2018-09-11T09:22:19Z</time>
      </trkpt>
      <trkpt lat="45.96536" lon="4.87008">
        <ele>283</ele>
        <time>2018-09-11T09:22:22Z</time>
      </trkpt>
      <trkpt lat="45.96537" lon="4.87004">
        <ele>283</ele>
        <time>2018-09-11T09:22:23Z</time>
      </trkpt>
      <trkpt lat="45.96539" lon="4.86999">
        <ele>283</ele>
        <time>2018-09-11T09:22:25Z</time>
      </trkpt>
      <trkpt lat="45.96547" lon="4.86991">
        <ele>283</ele>
        <time>2018-09-11T09:22:26Z</time>
      </trkpt>
      <trkpt lat="45.96555" lon="4.86992">
        <ele>283</ele>
        <time>2018-09-11T09:22:29Z</time>
      </trkpt>
      <trkpt lat="45.96558" lon="4.86993">
        <ele>284</ele>
        <time>2018-09-11T09:22:30Z</time>
      </trkpt>
      <trkpt lat="45.96565" lon="4.86993">
        <ele>284</ele>
        <time>2018-09-11T09:22:32Z</time>
      </trkpt>
      <trkpt lat="45.96568" lon="4.86993">
        <ele>284</ele>
        <time>2018-09-11T09:22:33Z</time>
      </trkpt>
      <trkpt lat="45.96574" lon="4.86994">
        <ele>284</ele>
        <time>2018-09-11T09:22:35Z</time>
      </trkpt>
      <trkpt lat="45.96577" lon="4.86995">
        <ele>284</ele>
        <time>2018-09-11T09:22:36Z</time>
      </trkpt>
      <trkpt lat="45.96583" lon="4.86995">
        <ele>285</ele>
        <time>2018-09-11T09:22:38Z</time>
      </trkpt>
      <trkpt lat="45.96586" lon="4.86995">
        <ele>285</ele>
        <time>2018-09-11T09:22:39Z</time>
      </trkpt>
      <trkpt lat="45.96593" lon="4.86995">
        <ele>285</ele>
        <time>2018-09-11T09:22:41Z</time>
      </trkpt>
      <trkpt lat="45.96602" lon="4.86996">
        <ele>286</ele>
        <time>2018-09-11T09:22:45Z</time>
      </trkpt>
      <trkpt lat="45.96608" lon="4.86994">
        <ele>286</ele>
        <time>2018-09-11T09:22:46Z</time>
      </trkpt>
      <trkpt lat="45.96612" lon="4.86992">
        <ele>286</ele>
        <time>2018-09-11T09:22:47Z</time>
      </trkpt>
      <trkpt lat="45.96618" lon="4.8699">
        <ele>286</ele>
        <time>2018-09-11T09:22:48Z</time>
      </trkpt>
      <trkpt lat="45.96622" lon="4.86989">
        <ele>286</ele>
        <time>2018-09-11T09:22:49Z</time>
      </trkpt>
      <trkpt lat="45.96629" lon="4.86987">
        <ele>286</ele>
        <time>2018-09-11T09:22:51Z</time>
      </trkpt>
      <trkpt lat="45.96633" lon="4.86985">
        <ele>286</ele>
        <time>2018-09-11T09:22:52Z</time>
      </trkpt>
      <trkpt lat="45.96636" lon="4.86984">
        <ele>286</ele>
        <time>2018-09-11T09:22:53Z</time>
      </trkpt>
      <trkpt lat="45.96647" lon="4.86983">
        <ele>287</ele>
        <time>2018-09-11T09:22:54Z</time>
      </trkpt>
      <trkpt lat="45.96653" lon="4.86989">
        <ele>287</ele>
        <time>2018-09-11T09:22:57Z</time>
      </trkpt>
      <trkpt lat="45.96655" lon="4.86992">
        <ele>287</ele>
        <time>2018-09-11T09:22:58Z</time>
      </trkpt>
      <trkpt lat="45.96657" lon="4.86995">
        <ele>287</ele>
        <time>2018-09-11T09:22:59Z</time>
      </trkpt>
      <trkpt lat="45.96662" lon="4.87005">
        <ele>287</ele>
        <time>2018-09-11T09:23:00Z</time>
      </trkpt>
      <trkpt lat="45.96666" lon="4.87014">
        <ele>286</ele>
        <time>2018-09-11T09:23:03Z</time>
      </trkpt>
      <trkpt lat="45.96667" lon="4.87017">
        <ele>287</ele>
        <time>2018-09-11T09:23:04Z</time>
      </trkpt>
      <trkpt lat="45.96672" lon="4.87026">
        <ele>287</ele>
        <time>2018-09-11T09:23:05Z</time>
      </trkpt>
      <trkpt lat="45.96676" lon="4.8703">
        <ele>287</ele>
        <time>2018-09-11T09:23:06Z</time>
      </trkpt>
      <trkpt lat="45.96684" lon="4.87035">
        <ele>287</ele>
        <time>2018-09-11T09:23:08Z</time>
      </trkpt>
      <trkpt lat="45.96687" lon="4.87039">
        <ele>287</ele>
        <time>2018-09-11T09:23:09Z</time>
      </trkpt>
      <trkpt lat="45.96694" lon="4.87044">
        <ele>287</ele>
        <time>2018-09-11T09:23:11Z</time>
      </trkpt>
      <trkpt lat="45.96698" lon="4.87047">
        <ele>287</ele>
        <time>2018-09-11T09:23:12Z</time>
      </trkpt>
      <trkpt lat="45.96706" lon="4.87051">
        <ele>287</ele>
        <time>2018-09-11T09:23:14Z</time>
      </trkpt>
      <trkpt lat="45.96709" lon="4.87054">
        <ele>287</ele>
        <time>2018-09-11T09:23:15Z</time>
      </trkpt>
      <trkpt lat="45.96714" lon="4.87058">
        <ele>287</ele>
        <time>2018-09-11T09:23:17Z</time>
      </trkpt>
      <trkpt lat="45.96719" lon="4.87061">
        <ele>287</ele>
        <time>2018-09-11T09:23:18Z</time>
      </trkpt>
      <trkpt lat="45.96728" lon="4.87064">
        <ele>287</ele>
        <time>2018-09-11T09:23:20Z</time>
      </trkpt>
      <trkpt lat="45.96732" lon="4.87067">
        <ele>287</ele>
        <time>2018-09-11T09:23:21Z</time>
      </trkpt>
      <trkpt lat="45.96737" lon="4.87069">
        <ele>287</ele>
        <time>2018-09-11T09:23:22Z</time>
      </trkpt>
      <trkpt lat="45.96741" lon="4.87072">
        <ele>287</ele>
        <time>2018-09-11T09:23:23Z</time>
      </trkpt>
      <trkpt lat="45.96745" lon="4.87075">
        <ele>287</ele>
        <time>2018-09-11T09:23:24Z</time>
      </trkpt>
      <trkpt lat="45.96749" lon="4.87079">
        <ele>287</ele>
        <time>2018-09-11T09:23:25Z</time>
      </trkpt>
      <trkpt lat="45.96755" lon="4.87087">
        <ele>287</ele>
        <time>2018-09-11T09:23:27Z</time>
      </trkpt>
      <trkpt lat="45.96757" lon="4.87088">
        <ele>287</ele>
        <time>2018-09-11T09:23:28Z</time>
      </trkpt>
      <trkpt lat="45.96762" lon="4.87095">
        <ele>287</ele>
        <time>2018-09-11T09:23:30Z</time>
      </trkpt>
      <trkpt lat="45.96766" lon="4.87101">
        <ele>287</ele>
        <time>2018-09-11T09:23:31Z</time>
      </trkpt>
      <trkpt lat="45.96772" lon="4.87108">
        <ele>286</ele>
        <time>2018-09-11T09:23:33Z</time>
      </trkpt>
      <trkpt lat="45.96773" lon="4.8711">
        <ele>286</ele>
        <time>2018-09-11T09:23:34Z</time>
      </trkpt>
      <trkpt lat="45.96774" lon="4.87112">
        <ele>286</ele>
        <time>2018-09-11T09:23:35Z</time>
      </trkpt>
      <trkpt lat="45.96779" lon="4.8712">
        <ele>286</ele>
        <time>2018-09-11T09:23:36Z</time>
      </trkpt>
      <trkpt lat="45.96781" lon="4.87125">
        <ele>286</ele>
        <time>2018-09-11T09:23:37Z</time>
      </trkpt>
      <trkpt lat="45.96784" lon="4.87131">
        <ele>286</ele>
        <time>2018-09-11T09:23:38Z</time>
      </trkpt>
      <trkpt lat="45.96789" lon="4.8714">
        <ele>286</ele>
        <time>2018-09-11T09:23:40Z</time>
      </trkpt>
      <trkpt lat="45.96793" lon="4.87144">
        <ele>286</ele>
        <time>2018-09-11T09:23:41Z</time>
      </trkpt>
      <trkpt lat="45.96801" lon="4.87143">
        <ele>286</ele>
        <time>2018-09-11T09:23:43Z</time>
      </trkpt>
      <trkpt lat="45.96804" lon="4.87141">
        <ele>286</ele>
        <time>2018-09-11T09:23:44Z</time>
      </trkpt>
      <trkpt lat="45.96808" lon="4.8713">
        <ele>286</ele>
        <time>2018-09-11T09:23:46Z</time>
      </trkpt>
      <trkpt lat="45.96809" lon="4.87125">
        <ele>286</ele>
        <time>2018-09-11T09:23:47Z</time>
      </trkpt>
      <trkpt lat="45.96812" lon="4.87114">
        <ele>286</ele>
        <time>2018-09-11T09:23:49Z</time>
      </trkpt>
      <trkpt lat="45.96812" lon="4.87108">
        <ele>286</ele>
        <time>2018-09-11T09:23:50Z</time>
      </trkpt>
      <trkpt lat="45.96814" lon="4.87098">
        <ele>287</ele>
        <time>2018-09-11T09:23:52Z</time>
      </trkpt>
      <trkpt lat="45.96816" lon="4.87093">
        <ele>287</ele>
        <time>2018-09-11T09:23:53Z</time>
      </trkpt>
      <trkpt lat="45.96818" lon="4.87086">
        <ele>287</ele>
        <time>2018-09-11T09:23:55Z</time>
      </trkpt>
      <trkpt lat="45.96821" lon="4.87078">
        <ele>287</ele>
        <time>2018-09-11T09:23:56Z</time>
      </trkpt>
      <trkpt lat="45.96824" lon="4.87072">
        <ele>287</ele>
        <time>2018-09-11T09:23:57Z</time>
      </trkpt>
      <trkpt lat="45.96826" lon="4.87065">
        <ele>287</ele>
        <time>2018-09-11T09:23:58Z</time>
      </trkpt>
      <trkpt lat="45.96829" lon="4.87056">
        <ele>287</ele>
        <time>2018-09-11T09:24:00Z</time>
      </trkpt>
      <trkpt lat="45.9683" lon="4.87053">
        <ele>287</ele>
        <time>2018-09-11T09:24:01Z</time>
      </trkpt>
      <trkpt lat="45.96831" lon="4.87043">
        <ele>287</ele>
        <time>2018-09-11T09:24:04Z</time>
      </trkpt>
      <trkpt lat="45.96832" lon="4.8704">
        <ele>288</ele>
        <time>2018-09-11T09:24:05Z</time>
      </trkpt>
      <trkpt lat="45.96834" lon="4.87027">
        <ele>287</ele>
        <time>2018-09-11T09:24:09Z</time>
      </trkpt>
      <trkpt lat="45.96835" lon="4.87024">
        <ele>287</ele>
        <time>2018-09-11T09:24:10Z</time>
      </trkpt>
      <trkpt lat="45.96836" lon="4.8702">
        <ele>287</ele>
        <time>2018-09-11T09:24:11Z</time>
      </trkpt>
      <trkpt lat="45.9684" lon="4.87007">
        <ele>288</ele>
        <time>2018-09-11T09:24:12Z</time>
      </trkpt>
      <trkpt lat="45.96844" lon="4.86997">
        <ele>288</ele>
        <time>2018-09-11T09:24:14Z</time>
      </trkpt>
      <trkpt lat="45.96847" lon="4.86991">
        <ele>288</ele>
        <time>2018-09-11T09:24:15Z</time>
      </trkpt>
      <trkpt lat="45.96851" lon="4.8698">
        <ele>288</ele>
        <time>2018-09-11T09:24:17Z</time>
      </trkpt>
      <trkpt lat="45.96852" lon="4.86975">
        <ele>288</ele>
        <time>2018-09-11T09:24:18Z</time>
      </trkpt>
      <trkpt lat="45.96857" lon="4.86965">
        <ele>288</ele>
        <time>2018-09-11T09:24:20Z</time>
      </trkpt>
      <trkpt lat="45.96859" lon="4.86958">
        <ele>288</ele>
        <time>2018-09-11T09:24:21Z</time>
      </trkpt>
      <trkpt lat="45.96862" lon="4.86951">
        <ele>288</ele>
        <time>2018-09-11T09:24:22Z</time>
      </trkpt>
      <trkpt lat="45.96864" lon="4.86945">
        <ele>288</ele>
        <time>2018-09-11T09:24:23Z</time>
      </trkpt>
      <trkpt lat="45.96867" lon="4.86938">
        <ele>288</ele>
        <time>2018-09-11T09:24:24Z</time>
      </trkpt>
      <trkpt lat="45.96869" lon="4.86931">
        <ele>288</ele>
        <time>2018-09-11T09:24:25Z</time>
      </trkpt>
      <trkpt lat="45.96872" lon="4.86925">
        <ele>288</ele>
        <time>2018-09-11T09:24:26Z</time>
      </trkpt>
      <trkpt lat="45.96874" lon="4.86918">
        <ele>288</ele>
        <time>2018-09-11T09:24:27Z</time>
      </trkpt>
      <trkpt lat="45.96879" lon="4.86908">
        <ele>289</ele>
        <time>2018-09-11T09:24:29Z</time>
      </trkpt>
      <trkpt lat="45.9688" lon="4.86902">
        <ele>289</ele>
        <time>2018-09-11T09:24:30Z</time>
      </trkpt>
      <trkpt lat="45.96884" lon="4.86892">
        <ele>289</ele>
        <time>2018-09-11T09:24:32Z</time>
      </trkpt>
      <trkpt lat="45.96884" lon="4.86886">
        <ele>289</ele>
        <time>2018-09-11T09:24:33Z</time>
      </trkpt>
      <trkpt lat="45.96885" lon="4.86879">
        <ele>289</ele>
        <time>2018-09-11T09:24:34Z</time>
      </trkpt>
      <trkpt lat="45.96887" lon="4.86873">
        <ele>289</ele>
        <time>2018-09-11T09:24:35Z</time>
      </trkpt>
      <trkpt lat="45.96891" lon="4.86862">
        <ele>289</ele>
        <time>2018-09-11T09:24:37Z</time>
      </trkpt>
      <trkpt lat="45.96895" lon="4.86857">
        <ele>289</ele>
        <time>2018-09-11T09:24:38Z</time>
      </trkpt>
      <trkpt lat="45.96895" lon="4.86848">
        <ele>289</ele>
        <time>2018-09-11T09:24:39Z</time>
      </trkpt>
      <trkpt lat="45.96896" lon="4.86841">
        <ele>288</ele>
        <time>2018-09-11T09:24:40Z</time>
      </trkpt>
      <trkpt lat="45.96899" lon="4.86829">
        <ele>288</ele>
        <time>2018-09-11T09:24:42Z</time>
      </trkpt>
      <trkpt lat="45.96901" lon="4.86823">
        <ele>288</ele>
        <time>2018-09-11T09:24:43Z</time>
      </trkpt>
      <trkpt lat="45.96906" lon="4.86814">
        <ele>288</ele>
        <time>2018-09-11T09:24:46Z</time>
      </trkpt>
      <trkpt lat="45.96907" lon="4.86812">
        <ele>288</ele>
        <time>2018-09-11T09:24:47Z</time>
      </trkpt>
      <trkpt lat="45.96914" lon="4.8681">
        <ele>288</ele>
        <time>2018-09-11T09:24:48Z</time>
      </trkpt>
      <trkpt lat="45.96918" lon="4.86812">
        <ele>287</ele>
        <time>2018-09-11T09:24:49Z</time>
      </trkpt>
      <trkpt lat="45.96923" lon="4.86815">
        <ele>287</ele>
        <time>2018-09-11T09:24:50Z</time>
      </trkpt>
      <trkpt lat="45.96928" lon="4.86818">
        <ele>287</ele>
        <time>2018-09-11T09:24:51Z</time>
      </trkpt>
      <trkpt lat="45.96934" lon="4.86821">
        <ele>287</ele>
        <time>2018-09-11T09:24:52Z</time>
      </trkpt>
      <trkpt lat="45.96939" lon="4.86825">
        <ele>287</ele>
        <time>2018-09-11T09:24:53Z</time>
      </trkpt>
      <trkpt lat="45.96944" lon="4.86827">
        <ele>287</ele>
        <time>2018-09-11T09:24:54Z</time>
      </trkpt>
      <trkpt lat="45.96949" lon="4.86831">
        <ele>287</ele>
        <time>2018-09-11T09:24:55Z</time>
      </trkpt>
      <trkpt lat="45.96954" lon="4.86834">
        <ele>287</ele>
        <time>2018-09-11T09:24:56Z</time>
      </trkpt>
      <trkpt lat="45.9696" lon="4.86837">
        <ele>287</ele>
        <time>2018-09-11T09:24:57Z</time>
      </trkpt>
      <trkpt lat="45.96964" lon="4.86839">
        <ele>287</ele>
        <time>2018-09-11T09:24:58Z</time>
      </trkpt>
      <trkpt lat="45.96971" lon="4.86842">
        <ele>286</ele>
        <time>2018-09-11T09:24:59Z</time>
      </trkpt>
      <trkpt lat="45.96976" lon="4.86844">
        <ele>286</ele>
        <time>2018-09-11T09:25:00Z</time>
      </trkpt>
      <trkpt lat="45.96982" lon="4.86845">
        <ele>286</ele>
        <time>2018-09-11T09:25:01Z</time>
      </trkpt>
      <trkpt lat="45.96988" lon="4.86847">
        <ele>286</ele>
        <time>2018-09-11T09:25:02Z</time>
      </trkpt>
      <trkpt lat="45.96993" lon="4.86848">
        <ele>286</ele>
        <time>2018-09-11T09:25:03Z</time>
      </trkpt>
      <trkpt lat="45.96998" lon="4.86849">
        <ele>286</ele>
        <time>2018-09-11T09:25:04Z</time>
      </trkpt>
      <trkpt lat="45.97004" lon="4.8685">
        <ele>285</ele>
        <time>2018-09-11T09:25:05Z</time>
      </trkpt>
      <trkpt lat="45.9701" lon="4.8685">
        <ele>285</ele>
        <time>2018-09-11T09:25:06Z</time>
      </trkpt>
      <trkpt lat="45.97016" lon="4.8685">
        <ele>285</ele>
        <time>2018-09-11T09:25:07Z</time>
      </trkpt>
      <trkpt lat="45.97022" lon="4.86849">
        <ele>285</ele>
        <time>2018-09-11T09:25:08Z</time>
      </trkpt>
      <trkpt lat="45.97028" lon="4.86848">
        <ele>285</ele>
        <time>2018-09-11T09:25:09Z</time>
      </trkpt>
      <trkpt lat="45.97035" lon="4.86846">
        <ele>285</ele>
        <time>2018-09-11T09:25:10Z</time>
      </trkpt>
      <trkpt lat="45.97041" lon="4.86844">
        <ele>285</ele>
        <time>2018-09-11T09:25:11Z</time>
      </trkpt>
      <trkpt lat="45.97046" lon="4.86842">
        <ele>285</ele>
        <time>2018-09-11T09:25:12Z</time>
      </trkpt>
      <trkpt lat="45.97051" lon="4.86839">
        <ele>285</ele>
        <time>2018-09-11T09:25:13Z</time>
      </trkpt>
      <trkpt lat="45.97058" lon="4.86838">
        <ele>284</ele>
        <time>2018-09-11T09:25:14Z</time>
      </trkpt>
      <trkpt lat="45.97064" lon="4.86837">
        <ele>284</ele>
        <time>2018-09-11T09:25:15Z</time>
      </trkpt>
      <trkpt lat="45.97071" lon="4.86836">
        <ele>284</ele>
        <time>2018-09-11T09:25:16Z</time>
      </trkpt>
      <trkpt lat="45.97078" lon="4.86834">
        <ele>284</ele>
        <time>2018-09-11T09:25:17Z</time>
      </trkpt>
      <trkpt lat="45.97084" lon="4.86833">
        <ele>284</ele>
        <time>2018-09-11T09:25:18Z</time>
      </trkpt>
      <trkpt lat="45.97091" lon="4.86831">
        <ele>284</ele>
        <time>2018-09-11T09:25:19Z</time>
      </trkpt>
      <trkpt lat="45.97096" lon="4.8683">
        <ele>284</ele>
        <time>2018-09-11T09:25:20Z</time>
      </trkpt>
      <trkpt lat="45.97102" lon="4.86831">
        <ele>284</ele>
        <time>2018-09-11T09:25:21Z</time>
      </trkpt>
      <trkpt lat="45.97108" lon="4.8683">
        <ele>284</ele>
        <time>2018-09-11T09:25:22Z</time>
      </trkpt>
      <trkpt lat="45.97113" lon="4.86827">
        <ele>283</ele>
        <time>2018-09-11T09:25:23Z</time>
      </trkpt>
      <trkpt lat="45.97119" lon="4.86825">
        <ele>283</ele>
        <time>2018-09-11T09:25:24Z</time>
      </trkpt>
      <trkpt lat="45.97124" lon="4.86824">
        <ele>283</ele>
        <time>2018-09-11T09:25:25Z</time>
      </trkpt>
      <trkpt lat="45.9713" lon="4.86821">
        <ele>283</ele>
        <time>2018-09-11T09:25:26Z</time>
      </trkpt>
      <trkpt lat="45.97135" lon="4.8682">
        <ele>283</ele>
        <time>2018-09-11T09:25:27Z</time>
      </trkpt>
      <trkpt lat="45.97141" lon="4.86819">
        <ele>283</ele>
        <time>2018-09-11T09:25:28Z</time>
      </trkpt>
      <trkpt lat="45.97147" lon="4.86818">
        <ele>283</ele>
        <time>2018-09-11T09:25:29Z</time>
      </trkpt>
      <trkpt lat="45.97153" lon="4.86816">
        <ele>283</ele>
        <time>2018-09-11T09:25:30Z</time>
      </trkpt>
      <trkpt lat="45.97158" lon="4.86813">
        <ele>283</ele>
        <time>2018-09-11T09:25:31Z</time>
      </trkpt>
      <trkpt lat="45.97164" lon="4.86811">
        <ele>283</ele>
        <time>2018-09-11T09:25:32Z</time>
      </trkpt>
      <trkpt lat="45.9717" lon="4.86808">
        <ele>283</ele>
        <time>2018-09-11T09:25:33Z</time>
      </trkpt>
      <trkpt lat="45.97176" lon="4.86805">
        <ele>283</ele>
        <time>2018-09-11T09:25:34Z</time>
      </trkpt>
      <trkpt lat="45.97182" lon="4.86803">
        <ele>284</ele>
        <time>2018-09-11T09:25:35Z</time>
      </trkpt>
      <trkpt lat="45.97187" lon="4.868">
        <ele>284</ele>
        <time>2018-09-11T09:25:36Z</time>
      </trkpt>
      <trkpt lat="45.97192" lon="4.86798">
        <ele>284</ele>
        <time>2018-09-11T09:25:37Z</time>
      </trkpt>
      <trkpt lat="45.97197" lon="4.86797">
        <ele>284</ele>
        <time>2018-09-11T09:25:38Z</time>
      </trkpt>
      <trkpt lat="45.97201" lon="4.86796">
        <ele>284</ele>
        <time>2018-09-11T09:25:39Z</time>
      </trkpt>
      <trkpt lat="45.97205" lon="4.86795">
        <ele>284</ele>
        <time>2018-09-11T09:25:40Z</time>
      </trkpt>
      <trkpt lat="45.97211" lon="4.86793">
        <ele>284</ele>
        <time>2018-09-11T09:25:41Z</time>
      </trkpt>
      <trkpt lat="45.97217" lon="4.86794">
        <ele>284</ele>
        <time>2018-09-11T09:25:42Z</time>
      </trkpt>
      <trkpt lat="45.97223" lon="4.86794">
        <ele>284</ele>
        <time>2018-09-11T09:25:43Z</time>
      </trkpt>
      <trkpt lat="45.9723" lon="4.86793">
        <ele>284</ele>
        <time>2018-09-11T09:25:44Z</time>
      </trkpt>
      <trkpt lat="45.97236" lon="4.86796">
        <ele>284</ele>
        <time>2018-09-11T09:25:45Z</time>
      </trkpt>
      <trkpt lat="45.97242" lon="4.86799">
        <ele>284</ele>
        <time>2018-09-11T09:25:46Z</time>
      </trkpt>
      <trkpt lat="45.97249" lon="4.86804">
        <ele>284</ele>
        <time>2018-09-11T09:25:47Z</time>
      </trkpt>
      <trkpt lat="45.97252" lon="4.86808">
        <ele>285</ele>
        <time>2018-09-11T09:25:48Z</time>
      </trkpt>
      <trkpt lat="45.97258" lon="4.86814">
        <ele>285</ele>
        <time>2018-09-11T09:25:49Z</time>
      </trkpt>
      <trkpt lat="45.97262" lon="4.86821">
        <ele>285</ele>
        <time>2018-09-11T09:25:50Z</time>
      </trkpt>
      <trkpt lat="45.97266" lon="4.86829">
        <ele>285</ele>
        <time>2018-09-11T09:25:51Z</time>
      </trkpt>
      <trkpt lat="45.9727" lon="4.86836">
        <ele>285</ele>
        <time>2018-09-11T09:25:52Z</time>
      </trkpt>
      <trkpt lat="45.97273" lon="4.86842">
        <ele>285</ele>
        <time>2018-09-11T09:25:53Z</time>
      </trkpt>
      <trkpt lat="45.97277" lon="4.86848">
        <ele>285</ele>
        <time>2018-09-11T09:25:54Z</time>
      </trkpt>
      <trkpt lat="45.97279" lon="4.86853">
        <ele>285</ele>
        <time>2018-09-11T09:25:55Z</time>
      </trkpt>
      <trkpt lat="45.97284" lon="4.86861">
        <ele>285</ele>
        <time>2018-09-11T09:25:56Z</time>
      </trkpt>
      <trkpt lat="45.97287" lon="4.86866">
        <ele>285</ele>
        <time>2018-09-11T09:25:57Z</time>
      </trkpt>
      <trkpt lat="45.97291" lon="4.86873">
        <ele>285</ele>
        <time>2018-09-11T09:25:58Z</time>
      </trkpt>
      <trkpt lat="45.97295" lon="4.86878">
        <ele>284</ele>
        <time>2018-09-11T09:25:59Z</time>
      </trkpt>
      <trkpt lat="45.97299" lon="4.86884">
        <ele>284</ele>
        <time>2018-09-11T09:26:00Z</time>
      </trkpt>
      <trkpt lat="45.97304" lon="4.86889">
        <ele>284</ele>
        <time>2018-09-11T09:26:01Z</time>
      </trkpt>
      <trkpt lat="45.97309" lon="4.86894">
        <ele>284</ele>
        <time>2018-09-11T09:26:02Z</time>
      </trkpt>
      <trkpt lat="45.97314" lon="4.86899">
        <ele>284</ele>
        <time>2018-09-11T09:26:03Z</time>
      </trkpt>
      <trkpt lat="45.97319" lon="4.86905">
        <ele>284</ele>
        <time>2018-09-11T09:26:04Z</time>
      </trkpt>
      <trkpt lat="45.97323" lon="4.86911">
        <ele>284</ele>
        <time>2018-09-11T09:26:05Z</time>
      </trkpt>
      <trkpt lat="45.97329" lon="4.86915">
        <ele>284</ele>
        <time>2018-09-11T09:26:06Z</time>
      </trkpt>
      <trkpt lat="45.97333" lon="4.8692">
        <ele>284</ele>
        <time>2018-09-11T09:26:07Z</time>
      </trkpt>
      <trkpt lat="45.97338" lon="4.86926">
        <ele>284</ele>
        <time>2018-09-11T09:26:08Z</time>
      </trkpt>
      <trkpt lat="45.97342" lon="4.86932">
        <ele>284</ele>
        <time>2018-09-11T09:26:09Z</time>
      </trkpt>
      <trkpt lat="45.97346" lon="4.8694">
        <ele>284</ele>
        <time>2018-09-11T09:26:10Z</time>
      </trkpt>
      <trkpt lat="45.9735" lon="4.86946">
        <ele>284</ele>
        <time>2018-09-11T09:26:11Z</time>
      </trkpt>
      <trkpt lat="45.97354" lon="4.86952">
        <ele>284</ele>
        <time>2018-09-11T09:26:12Z</time>
      </trkpt>
      <trkpt lat="45.97358" lon="4.86958">
        <ele>285</ele>
        <time>2018-09-11T09:26:13Z</time>
      </trkpt>
      <trkpt lat="45.97363" lon="4.86964">
        <ele>285</ele>
        <time>2018-09-11T09:26:14Z</time>
      </trkpt>
      <trkpt lat="45.97368" lon="4.86968">
        <ele>285</ele>
        <time>2018-09-11T09:26:15Z</time>
      </trkpt>
      <trkpt lat="45.97374" lon="4.86973">
        <ele>285</ele>
        <time>2018-09-11T09:26:16Z</time>
      </trkpt>
      <trkpt lat="45.97379" lon="4.86977">
        <ele>285</ele>
        <time>2018-09-11T09:26:17Z</time>
      </trkpt>
      <trkpt lat="45.97384" lon="4.86983">
        <ele>285</ele>
        <time>2018-09-11T09:26:18Z</time>
      </trkpt>
      <trkpt lat="45.97388" lon="4.86988">
        <ele>285</ele>
        <time>2018-09-11T09:26:19Z</time>
      </trkpt>
      <trkpt lat="45.97393" lon="4.86992">
        <ele>285</ele>
        <time>2018-09-11T09:26:20Z</time>
      </trkpt>
      <trkpt lat="45.97396" lon="4.86996">
        <ele>285</ele>
        <time>2018-09-11T09:26:21Z</time>
      </trkpt>
      <trkpt lat="45.97399" lon="4.87">
        <ele>285</ele>
        <time>2018-09-11T09:26:22Z</time>
      </trkpt>
      <trkpt lat="45.97403" lon="4.87005">
        <ele>285</ele>
        <time>2018-09-11T09:26:23Z</time>
      </trkpt>
      <trkpt lat="45.97408" lon="4.87008">
        <ele>285</ele>
        <time>2018-09-11T09:26:24Z</time>
      </trkpt>
      <trkpt lat="45.97412" lon="4.87012">
        <ele>285</ele>
        <time>2018-09-11T09:26:25Z</time>
      </trkpt>
      <trkpt lat="45.97416" lon="4.87016">
        <ele>285</ele>
        <time>2018-09-11T09:26:26Z</time>
      </trkpt>
      <trkpt lat="45.9742" lon="4.8702">
        <ele>284</ele>
        <time>2018-09-11T09:26:27Z</time>
      </trkpt>
      <trkpt lat="45.97426" lon="4.87025">
        <ele>284</ele>
        <time>2018-09-11T09:26:28Z</time>
      </trkpt>
      <trkpt lat="45.97431" lon="4.87031">
        <ele>284</ele>
        <time>2018-09-11T09:26:29Z</time>
      </trkpt>
      <trkpt lat="45.97435" lon="4.87036">
        <ele>284</ele>
        <time>2018-09-11T09:26:30Z</time>
      </trkpt>
      <trkpt lat="45.97441" lon="4.87042">
        <ele>284</ele>
        <time>2018-09-11T09:26:31Z</time>
      </trkpt>
      <trkpt lat="45.97446" lon="4.87048">
        <ele>284</ele>
        <time>2018-09-11T09:26:32Z</time>
      </trkpt>
      <trkpt lat="45.9745" lon="4.87053">
        <ele>284</ele>
        <time>2018-09-11T09:26:33Z</time>
      </trkpt>
      <trkpt lat="45.97455" lon="4.87058">
        <ele>284</ele>
        <time>2018-09-11T09:26:34Z</time>
      </trkpt>
      <trkpt lat="45.97458" lon="4.87063">
        <ele>284</ele>
        <time>2018-09-11T09:26:35Z</time>
      </trkpt>
      <trkpt lat="45.97465" lon="4.8707">
        <ele>284</ele>
        <time>2018-09-11T09:26:37Z</time>
      </trkpt>
      <trkpt lat="45.97469" lon="4.87074">
        <ele>284</ele>
        <time>2018-09-11T09:26:38Z</time>
      </trkpt>
      <trkpt lat="45.97477" lon="4.8708">
        <ele>284</ele>
        <time>2018-09-11T09:26:40Z</time>
      </trkpt>
      <trkpt lat="45.97481" lon="4.87084">
        <ele>283</ele>
        <time>2018-09-11T09:26:41Z</time>
      </trkpt>
      <trkpt lat="45.97485" lon="4.87091">
        <ele>283</ele>
        <time>2018-09-11T09:26:43Z</time>
      </trkpt>
      <trkpt lat="45.97493" lon="4.87096">
        <ele>283</ele>
        <time>2018-09-11T09:26:44Z</time>
      </trkpt>
      <trkpt lat="45.97498" lon="4.87098">
        <ele>283</ele>
        <time>2018-09-11T09:26:45Z</time>
      </trkpt>
      <trkpt lat="45.97503" lon="4.87103">
        <ele>283</ele>
        <time>2018-09-11T09:26:46Z</time>
      </trkpt>
      <trkpt lat="45.97506" lon="4.87108">
        <ele>283</ele>
        <time>2018-09-11T09:26:47Z</time>
      </trkpt>
      <trkpt lat="45.97511" lon="4.87115">
        <ele>283</ele>
        <time>2018-09-11T09:26:48Z</time>
      </trkpt>
      <trkpt lat="45.97514" lon="4.8712">
        <ele>283</ele>
        <time>2018-09-11T09:26:49Z</time>
      </trkpt>
      <trkpt lat="45.97518" lon="4.87125">
        <ele>283</ele>
        <time>2018-09-11T09:26:50Z</time>
      </trkpt>
      <trkpt lat="45.97523" lon="4.87131">
        <ele>283</ele>
        <time>2018-09-11T09:26:51Z</time>
      </trkpt>
      <trkpt lat="45.97528" lon="4.87136">
        <ele>283</ele>
        <time>2018-09-11T09:26:52Z</time>
      </trkpt>
      <trkpt lat="45.97532" lon="4.87139">
        <ele>283</ele>
        <time>2018-09-11T09:26:53Z</time>
      </trkpt>
      <trkpt lat="45.97536" lon="4.87143">
        <ele>283</ele>
        <time>2018-09-11T09:26:54Z</time>
      </trkpt>
      <trkpt lat="45.9754" lon="4.87147">
        <ele>283</ele>
        <time>2018-09-11T09:26:55Z</time>
      </trkpt>
      <trkpt lat="45.97544" lon="4.87152">
        <ele>283</ele>
        <time>2018-09-11T09:26:56Z</time>
      </trkpt>
      <trkpt lat="45.97547" lon="4.87156">
        <ele>283</ele>
        <time>2018-09-11T09:26:57Z</time>
      </trkpt>
      <trkpt lat="45.97551" lon="4.8716">
        <ele>283</ele>
        <time>2018-09-11T09:26:58Z</time>
      </trkpt>
      <trkpt lat="45.97556" lon="4.87164">
        <ele>283</ele>
        <time>2018-09-11T09:26:59Z</time>
      </trkpt>
      <trkpt lat="45.97561" lon="4.87167">
        <ele>283</ele>
        <time>2018-09-11T09:27:00Z</time>
      </trkpt>
      <trkpt lat="45.97566" lon="4.8717">
        <ele>283</ele>
        <time>2018-09-11T09:27:01Z</time>
      </trkpt>
      <trkpt lat="45.97569" lon="4.87173">
        <ele>283</ele>
        <time>2018-09-11T09:27:02Z</time>
      </trkpt>
      <trkpt lat="45.97573" lon="4.87178">
        <ele>283</ele>
        <time>2018-09-11T09:27:03Z</time>
      </trkpt>
      <trkpt lat="45.97577" lon="4.87182">
        <ele>283</ele>
        <time>2018-09-11T09:27:04Z</time>
      </trkpt>
      <trkpt lat="45.97582" lon="4.87187">
        <ele>283</ele>
        <time>2018-09-11T09:27:05Z</time>
      </trkpt>
      <trkpt lat="45.97587" lon="4.87193">
        <ele>283</ele>
        <time>2018-09-11T09:27:06Z</time>
      </trkpt>
      <trkpt lat="45.97592" lon="4.87199">
        <ele>283</ele>
        <time>2018-09-11T09:27:07Z</time>
      </trkpt>
      <trkpt lat="45.97597" lon="4.87204">
        <ele>284</ele>
        <time>2018-09-11T09:27:08Z</time>
      </trkpt>
      <trkpt lat="45.97601" lon="4.87208">
        <ele>284</ele>
        <time>2018-09-11T09:27:09Z</time>
      </trkpt>
      <trkpt lat="45.97605" lon="4.87212">
        <ele>284</ele>
        <time>2018-09-11T09:27:10Z</time>
      </trkpt>
      <trkpt lat="45.9761" lon="4.87215">
        <ele>284</ele>
        <time>2018-09-11T09:27:11Z</time>
      </trkpt>
      <trkpt lat="45.97616" lon="4.87221">
        <ele>284</ele>
        <time>2018-09-11T09:27:12Z</time>
      </trkpt>
      <trkpt lat="45.9762" lon="4.87227">
        <ele>284</ele>
        <time>2018-09-11T09:27:13Z</time>
      </trkpt>
      <trkpt lat="45.97626" lon="4.8723">
        <ele>284</ele>
        <time>2018-09-11T09:27:14Z</time>
      </trkpt>
      <trkpt lat="45.97628" lon="4.87235">
        <ele>284</ele>
        <time>2018-09-11T09:27:15Z</time>
      </trkpt>
      <trkpt lat="45.97632" lon="4.87241">
        <ele>284</ele>
        <time>2018-09-11T09:27:16Z</time>
      </trkpt>
      <trkpt lat="45.97637" lon="4.87247">
        <ele>284</ele>
        <time>2018-09-11T09:27:17Z</time>
      </trkpt>
      <trkpt lat="45.97641" lon="4.8725">
        <ele>285</ele>
        <time>2018-09-11T09:27:18Z</time>
      </trkpt>
      <trkpt lat="45.97647" lon="4.87254">
        <ele>285</ele>
        <time>2018-09-11T09:27:19Z</time>
      </trkpt>
      <trkpt lat="45.97652" lon="4.87258">
        <ele>285</ele>
        <time>2018-09-11T09:27:20Z</time>
      </trkpt>
      <trkpt lat="45.97658" lon="4.87264">
        <ele>285</ele>
        <time>2018-09-11T09:27:21Z</time>
      </trkpt>
      <trkpt lat="45.97663" lon="4.87268">
        <ele>285</ele>
        <time>2018-09-11T09:27:22Z</time>
      </trkpt>
      <trkpt lat="45.97667" lon="4.87273">
        <ele>286</ele>
        <time>2018-09-11T09:27:23Z</time>
      </trkpt>
      <trkpt lat="45.97671" lon="4.87278">
        <ele>286</ele>
        <time>2018-09-11T09:27:24Z</time>
      </trkpt>
      <trkpt lat="45.97675" lon="4.87283">
        <ele>286</ele>
        <time>2018-09-11T09:27:25Z</time>
      </trkpt>
      <trkpt lat="45.9768" lon="4.87288">
        <ele>286</ele>
        <time>2018-09-11T09:27:26Z</time>
      </trkpt>
      <trkpt lat="45.97685" lon="4.87293">
        <ele>286</ele>
        <time>2018-09-11T09:27:27Z</time>
      </trkpt>
      <trkpt lat="45.97689" lon="4.87298">
        <ele>286</ele>
        <time>2018-09-11T09:27:28Z</time>
      </trkpt>
      <trkpt lat="45.97696" lon="4.87307">
        <ele>286</ele>
        <time>2018-09-11T09:27:30Z</time>
      </trkpt>
      <trkpt lat="45.977" lon="4.87312">
        <ele>286</ele>
        <time>2018-09-11T09:27:31Z</time>
      </trkpt>
      <trkpt lat="45.97705" lon="4.87318">
        <ele>286</ele>
        <time>2018-09-11T09:27:32Z</time>
      </trkpt>
      <trkpt lat="45.97709" lon="4.87324">
        <ele>286</ele>
        <time>2018-09-11T09:27:33Z</time>
      </trkpt>
      <trkpt lat="45.97713" lon="4.87329">
        <ele>286</ele>
        <time>2018-09-11T09:27:34Z</time>
      </trkpt>
      <trkpt lat="45.97717" lon="4.87334">
        <ele>285</ele>
        <time>2018-09-11T09:27:35Z</time>
      </trkpt>
      <trkpt lat="45.97722" lon="4.87339">
        <ele>285</ele>
        <time>2018-09-11T09:27:36Z</time>
      </trkpt>
      <trkpt lat="45.97726" lon="4.87344">
        <ele>285</ele>
        <time>2018-09-11T09:27:37Z</time>
      </trkpt>
      <trkpt lat="45.97732" lon="4.87351">
        <ele>285</ele>
        <time>2018-09-11T09:27:38Z</time>
      </trkpt>
      <trkpt lat="45.97735" lon="4.87356">
        <ele>285</ele>
        <time>2018-09-11T09:27:39Z</time>
      </trkpt>
      <trkpt lat="45.97741" lon="4.87361">
        <ele>285</ele>
        <time>2018-09-11T09:27:40Z</time>
      </trkpt>
      <trkpt lat="45.97745" lon="4.87366">
        <ele>285</ele>
        <time>2018-09-11T09:27:41Z</time>
      </trkpt>
      <trkpt lat="45.97751" lon="4.87372">
        <ele>285</ele>
        <time>2018-09-11T09:27:42Z</time>
      </trkpt>
      <trkpt lat="45.97754" lon="4.87376">
        <ele>285</ele>
        <time>2018-09-11T09:27:43Z</time>
      </trkpt>
      <trkpt lat="45.9776" lon="4.87382">
        <ele>284</ele>
        <time>2018-09-11T09:27:44Z</time>
      </trkpt>
      <trkpt lat="45.97765" lon="4.87387">
        <ele>284</ele>
        <time>2018-09-11T09:27:45Z</time>
      </trkpt>
      <trkpt lat="45.97769" lon="4.87393">
        <ele>284</ele>
        <time>2018-09-11T09:27:46Z</time>
      </trkpt>
      <trkpt lat="45.97773" lon="4.87398">
        <ele>284</ele>
        <time>2018-09-11T09:27:47Z</time>
      </trkpt>
      <trkpt lat="45.97776" lon="4.87404">
        <ele>284</ele>
        <time>2018-09-11T09:27:48Z</time>
      </trkpt>
      <trkpt lat="45.9778" lon="4.87409">
        <ele>284</ele>
        <time>2018-09-11T09:27:49Z</time>
      </trkpt>
      <trkpt lat="45.97785" lon="4.87414">
        <ele>284</ele>
        <time>2018-09-11T09:27:50Z</time>
      </trkpt>
      <trkpt lat="45.97789" lon="4.87419">
        <ele>283</ele>
        <time>2018-09-11T09:27:51Z</time>
      </trkpt>
      <trkpt lat="45.97794" lon="4.87425">
        <ele>283</ele>
        <time>2018-09-11T09:27:52Z</time>
      </trkpt>
      <trkpt lat="45.97799" lon="4.87431">
        <ele>283</ele>
        <time>2018-09-11T09:27:53Z</time>
      </trkpt>
      <trkpt lat="45.97804" lon="4.87437">
        <ele>283</ele>
        <time>2018-09-11T09:27:54Z</time>
      </trkpt>
      <trkpt lat="45.97809" lon="4.87442">
        <ele>282</ele>
        <time>2018-09-11T09:27:55Z</time>
      </trkpt>
      <trkpt lat="45.97814" lon="4.87448">
        <ele>282</ele>
        <time>2018-09-11T09:27:56Z</time>
      </trkpt>
      <trkpt lat="45.97819" lon="4.87453">
        <ele>282</ele>
        <time>2018-09-11T09:27:57Z</time>
      </trkpt>
      <trkpt lat="45.97825" lon="4.87458">
        <ele>282</ele>
        <time>2018-09-11T09:27:58Z</time>
      </trkpt>
      <trkpt lat="45.9783" lon="4.87463">
        <ele>282</ele>
        <time>2018-09-11T09:27:59Z</time>
      </trkpt>
      <trkpt lat="45.97835" lon="4.8747">
        <ele>281</ele>
        <time>2018-09-11T09:28:00Z</time>
      </trkpt>
      <trkpt lat="45.97839" lon="4.87476">
        <ele>281</ele>
        <time>2018-09-11T09:28:01Z</time>
      </trkpt>
      <trkpt lat="45.97845" lon="4.87481">
        <ele>281</ele>
        <time>2018-09-11T09:28:02Z</time>
      </trkpt>
      <trkpt lat="45.97851" lon="4.87487">
        <ele>281</ele>
        <time>2018-09-11T09:28:03Z</time>
      </trkpt>
      <trkpt lat="45.97856" lon="4.87493">
        <ele>281</ele>
        <time>2018-09-11T09:28:04Z</time>
      </trkpt>
      <trkpt lat="45.97862" lon="4.87498">
        <ele>281</ele>
        <time>2018-09-11T09:28:05Z</time>
      </trkpt>
      <trkpt lat="45.97868" lon="4.87502">
        <ele>281</ele>
        <time>2018-09-11T09:28:06Z</time>
      </trkpt>
      <trkpt lat="45.97874" lon="4.87506">
        <ele>281</ele>
        <time>2018-09-11T09:28:07Z</time>
      </trkpt>
      <trkpt lat="45.9788" lon="4.8751">
        <ele>281</ele>
        <time>2018-09-11T09:28:08Z</time>
      </trkpt>
      <trkpt lat="45.97887" lon="4.87514">
        <ele>281</ele>
        <time>2018-09-11T09:28:09Z</time>
      </trkpt>
      <trkpt lat="45.97893" lon="4.87516">
        <ele>280</ele>
        <time>2018-09-11T09:28:10Z</time>
      </trkpt>
      <trkpt lat="45.979" lon="4.8752">
        <ele>280</ele>
        <time>2018-09-11T09:28:11Z</time>
      </trkpt>
      <trkpt lat="45.97907" lon="4.8752">
        <ele>280</ele>
        <time>2018-09-11T09:28:12Z</time>
      </trkpt>
      <trkpt lat="45.97913" lon="4.87523">
        <ele>280</ele>
        <time>2018-09-11T09:28:13Z</time>
      </trkpt>
      <trkpt lat="45.97919" lon="4.87526">
        <ele>279</ele>
        <time>2018-09-11T09:28:14Z</time>
      </trkpt>
      <trkpt lat="45.97926" lon="4.87529">
        <ele>279</ele>
        <time>2018-09-11T09:28:15Z</time>
      </trkpt>
      <trkpt lat="45.97932" lon="4.87531">
        <ele>279</ele>
        <time>2018-09-11T09:28:16Z</time>
      </trkpt>
      <trkpt lat="45.97939" lon="4.87532">
        <ele>279</ele>
        <time>2018-09-11T09:28:17Z</time>
      </trkpt>
      <trkpt lat="45.97945" lon="4.87536">
        <ele>279</ele>
        <time>2018-09-11T09:28:18Z</time>
      </trkpt>
      <trkpt lat="45.97952" lon="4.87538">
        <ele>279</ele>
        <time>2018-09-11T09:28:19Z</time>
      </trkpt>
      <trkpt lat="45.97958" lon="4.87542">
        <ele>279</ele>
        <time>2018-09-11T09:28:20Z</time>
      </trkpt>
      <trkpt lat="45.97965" lon="4.87545">
        <ele>279</ele>
        <time>2018-09-11T09:28:21Z</time>
      </trkpt>
      <trkpt lat="45.9797" lon="4.87548">
        <ele>279</ele>
        <time>2018-09-11T09:28:22Z</time>
      </trkpt>
      <trkpt lat="45.97976" lon="4.87553">
        <ele>279</ele>
        <time>2018-09-11T09:28:23Z</time>
      </trkpt>
      <trkpt lat="45.9798" lon="4.87558">
        <ele>279</ele>
        <time>2018-09-11T09:28:24Z</time>
      </trkpt>
      <trkpt lat="45.97984" lon="4.87564">
        <ele>279</ele>
        <time>2018-09-11T09:28:25Z</time>
      </trkpt>
      <trkpt lat="45.97988" lon="4.87569">
        <ele>280</ele>
        <time>2018-09-11T09:28:26Z</time>
      </trkpt>
      <trkpt lat="45.97992" lon="4.87578">
        <ele>280</ele>
        <time>2018-09-11T09:28:27Z</time>
      </trkpt>
      <trkpt lat="45.97996" lon="4.87585">
        <ele>280</ele>
        <time>2018-09-11T09:28:28Z</time>
      </trkpt>
      <trkpt lat="45.97999" lon="4.87592">
        <ele>280</ele>
        <time>2018-09-11T09:28:29Z</time>
      </trkpt>
      <trkpt lat="45.98003" lon="4.876">
        <ele>280</ele>
        <time>2018-09-11T09:28:30Z</time>
      </trkpt>
      <trkpt lat="45.98006" lon="4.87606">
        <ele>280</ele>
        <time>2018-09-11T09:28:31Z</time>
      </trkpt>
      <trkpt lat="45.98009" lon="4.87615">
        <ele>280</ele>
        <time>2018-09-11T09:28:32Z</time>
      </trkpt>
      <trkpt lat="45.9801" lon="4.87622">
        <ele>280</ele>
        <time>2018-09-11T09:28:33Z</time>
      </trkpt>
      <trkpt lat="45.98012" lon="4.87629">
        <ele>280</ele>
        <time>2018-09-11T09:28:34Z</time>
      </trkpt>
      <trkpt lat="45.98014" lon="4.87637">
        <ele>280</ele>
        <time>2018-09-11T09:28:35Z</time>
      </trkpt>
      <trkpt lat="45.98017" lon="4.87646">
        <ele>280</ele>
        <time>2018-09-11T09:28:36Z</time>
      </trkpt>
      <trkpt lat="45.9802" lon="4.87654">
        <ele>280</ele>
        <time>2018-09-11T09:28:37Z</time>
      </trkpt>
      <trkpt lat="45.98022" lon="4.87661">
        <ele>280</ele>
        <time>2018-09-11T09:28:38Z</time>
      </trkpt>
      <trkpt lat="45.98025" lon="4.87669">
        <ele>280</ele>
        <time>2018-09-11T09:28:39Z</time>
      </trkpt>
      <trkpt lat="45.98026" lon="4.87676">
        <ele>280</ele>
        <time>2018-09-11T09:28:40Z</time>
      </trkpt>
      <trkpt lat="45.98028" lon="4.87683">
        <ele>280</ele>
        <time>2018-09-11T09:28:41Z</time>
      </trkpt>
      <trkpt lat="45.9803" lon="4.8769">
        <ele>280</ele>
        <time>2018-09-11T09:28:42Z</time>
      </trkpt>
      <trkpt lat="45.98031" lon="4.87697">
        <ele>280</ele>
        <time>2018-09-11T09:28:43Z</time>
      </trkpt>
      <trkpt lat="45.98034" lon="4.87704">
        <ele>280</ele>
        <time>2018-09-11T09:28:44Z</time>
      </trkpt>
      <trkpt lat="45.98036" lon="4.87712">
        <ele>279</ele>
        <time>2018-09-11T09:28:45Z</time>
      </trkpt>
      <trkpt lat="45.98039" lon="4.87718">
        <ele>279</ele>
        <time>2018-09-11T09:28:46Z</time>
      </trkpt>
      <trkpt lat="45.98042" lon="4.87727">
        <ele>280</ele>
        <time>2018-09-11T09:28:47Z</time>
      </trkpt>
      <trkpt lat="45.98045" lon="4.87735">
        <ele>280</ele>
        <time>2018-09-11T09:28:48Z</time>
      </trkpt>
      <trkpt lat="45.98049" lon="4.87747">
        <ele>280</ele>
        <time>2018-09-11T09:28:49Z</time>
      </trkpt>
      <trkpt lat="45.98052" lon="4.87756">
        <ele>280</ele>
        <time>2018-09-11T09:28:50Z</time>
      </trkpt>
      <trkpt lat="45.98055" lon="4.87766">
        <ele>280</ele>
        <time>2018-09-11T09:28:51Z</time>
      </trkpt>
      <trkpt lat="45.98057" lon="4.87772">
        <ele>280</ele>
        <time>2018-09-11T09:28:52Z</time>
      </trkpt>
      <trkpt lat="45.9806" lon="4.87781">
        <ele>280</ele>
        <time>2018-09-11T09:28:53Z</time>
      </trkpt>
      <trkpt lat="45.98063" lon="4.87789">
        <ele>280</ele>
        <time>2018-09-11T09:28:54Z</time>
      </trkpt>
      <trkpt lat="45.98064" lon="4.87796">
        <ele>280</ele>
        <time>2018-09-11T09:28:55Z</time>
      </trkpt>
      <trkpt lat="45.98067" lon="4.87802">
        <ele>280</ele>
        <time>2018-09-11T09:28:56Z</time>
      </trkpt>
      <trkpt lat="45.98069" lon="4.8781">
        <ele>280</ele>
        <time>2018-09-11T09:28:57Z</time>
      </trkpt>
      <trkpt lat="45.98072" lon="4.87819">
        <ele>279</ele>
        <time>2018-09-11T09:28:58Z</time>
      </trkpt>
      <trkpt lat="45.98074" lon="4.87826">
        <ele>279</ele>
        <time>2018-09-11T09:28:59Z</time>
      </trkpt>
      <trkpt lat="45.98076" lon="4.87834">
        <ele>279</ele>
        <time>2018-09-11T09:29:00Z</time>
      </trkpt>
      <trkpt lat="45.98077" lon="4.87841">
        <ele>279</ele>
        <time>2018-09-11T09:29:01Z</time>
      </trkpt>
      <trkpt lat="45.9808" lon="4.87848">
        <ele>279</ele>
        <time>2018-09-11T09:29:02Z</time>
      </trkpt>
      <trkpt lat="45.98081" lon="4.87856">
        <ele>280</ele>
        <time>2018-09-11T09:29:03Z</time>
      </trkpt>
      <trkpt lat="45.98084" lon="4.87867">
        <ele>278</ele>
        <time>2018-09-11T09:29:04Z</time>
      </trkpt>
      <trkpt lat="45.98087" lon="4.87877">
        <ele>278</ele>
        <time>2018-09-11T09:29:05Z</time>
      </trkpt>
      <trkpt lat="45.9809" lon="4.87886">
        <ele>278</ele>
        <time>2018-09-11T09:29:06Z</time>
      </trkpt>
      <trkpt lat="45.98092" lon="4.87894">
        <ele>278</ele>
        <time>2018-09-11T09:29:07Z</time>
      </trkpt>
      <trkpt lat="45.98095" lon="4.87903">
        <ele>278</ele>
        <time>2018-09-11T09:29:08Z</time>
      </trkpt>
      <trkpt lat="45.98097" lon="4.87912">
        <ele>278</ele>
        <time>2018-09-11T09:29:09Z</time>
      </trkpt>
      <trkpt lat="45.981" lon="4.87923">
        <ele>278</ele>
        <time>2018-09-11T09:29:10Z</time>
      </trkpt>
      <trkpt lat="45.98103" lon="4.87932">
        <ele>277</ele>
        <time>2018-09-11T09:29:11Z</time>
      </trkpt>
      <trkpt lat="45.98106" lon="4.8794">
        <ele>277</ele>
        <time>2018-09-11T09:29:12Z</time>
      </trkpt>
      <trkpt lat="45.98109" lon="4.87951">
        <ele>277</ele>
        <time>2018-09-11T09:29:13Z</time>
      </trkpt>
      <trkpt lat="45.98112" lon="4.87958">
        <ele>277</ele>
        <time>2018-09-11T09:29:14Z</time>
      </trkpt>
      <trkpt lat="45.98115" lon="4.87969">
        <ele>277</ele>
        <time>2018-09-11T09:29:15Z</time>
      </trkpt>
      <trkpt lat="45.98117" lon="4.87978">
        <ele>277</ele>
        <time>2018-09-11T09:29:16Z</time>
      </trkpt>
      <trkpt lat="45.9812" lon="4.87984">
        <ele>277</ele>
        <time>2018-09-11T09:29:17Z</time>
      </trkpt>
      <trkpt lat="45.98123" lon="4.87993">
        <ele>277</ele>
        <time>2018-09-11T09:29:18Z</time>
      </trkpt>
      <trkpt lat="45.98125" lon="4.88002">
        <ele>276</ele>
        <time>2018-09-11T09:29:19Z</time>
      </trkpt>
      <trkpt lat="45.98128" lon="4.88011">
        <ele>276</ele>
        <time>2018-09-11T09:29:20Z</time>
      </trkpt>
      <trkpt lat="45.98131" lon="4.8802">
        <ele>276</ele>
        <time>2018-09-11T09:29:21Z</time>
      </trkpt>
      <trkpt lat="45.98134" lon="4.88028">
        <ele>276</ele>
        <time>2018-09-11T09:29:22Z</time>
      </trkpt>
      <trkpt lat="45.98137" lon="4.88039">
        <ele>276</ele>
        <time>2018-09-11T09:29:23Z</time>
      </trkpt>
      <trkpt lat="45.9814" lon="4.88049">
        <ele>275</ele>
        <time>2018-09-11T09:29:24Z</time>
      </trkpt>
      <trkpt lat="45.98143" lon="4.88059">
        <ele>275</ele>
        <time>2018-09-11T09:29:25Z</time>
      </trkpt>
      <trkpt lat="45.98147" lon="4.88069">
        <ele>275</ele>
        <time>2018-09-11T09:29:26Z</time>
      </trkpt>
      <trkpt lat="45.98149" lon="4.88079">
        <ele>274</ele>
        <time>2018-09-11T09:29:27Z</time>
      </trkpt>
      <trkpt lat="45.98153" lon="4.88089">
        <ele>274</ele>
        <time>2018-09-11T09:29:28Z</time>
      </trkpt>
      <trkpt lat="45.98156" lon="4.88099">
        <ele>274</ele>
        <time>2018-09-11T09:29:29Z</time>
      </trkpt>
      <trkpt lat="45.98159" lon="4.88108">
        <ele>274</ele>
        <time>2018-09-11T09:29:30Z</time>
      </trkpt>
      <trkpt lat="45.98163" lon="4.88118">
        <ele>274</ele>
        <time>2018-09-11T09:29:31Z</time>
      </trkpt>
      <trkpt lat="45.98165" lon="4.88127">
        <ele>274</ele>
        <time>2018-09-11T09:29:32Z</time>
      </trkpt>
      <trkpt lat="45.98167" lon="4.88137">
        <ele>273</ele>
        <time>2018-09-11T09:29:33Z</time>
      </trkpt>
      <trkpt lat="45.98169" lon="4.88143">
        <ele>273</ele>
        <time>2018-09-11T09:29:34Z</time>
      </trkpt>
      <trkpt lat="45.98172" lon="4.88152">
        <ele>273</ele>
        <time>2018-09-11T09:29:35Z</time>
      </trkpt>
      <trkpt lat="45.98174" lon="4.88162">
        <ele>273</ele>
        <time>2018-09-11T09:29:36Z</time>
      </trkpt>
      <trkpt lat="45.98177" lon="4.88171">
        <ele>273</ele>
        <time>2018-09-11T09:29:37Z</time>
      </trkpt>
      <trkpt lat="45.98179" lon="4.88181">
        <ele>273</ele>
        <time>2018-09-11T09:29:38Z</time>
      </trkpt>
      <trkpt lat="45.98182" lon="4.8819">
        <ele>273</ele>
        <time>2018-09-11T09:29:39Z</time>
      </trkpt>
      <trkpt lat="45.98183" lon="4.88197">
        <ele>273</ele>
        <time>2018-09-11T09:29:40Z</time>
      </trkpt>
      <trkpt lat="45.98185" lon="4.88206">
        <ele>273</ele>
        <time>2018-09-11T09:29:41Z</time>
      </trkpt>
      <trkpt lat="45.9819" lon="4.88218">
        <ele>273</ele>
        <time>2018-09-11T09:29:42Z</time>
      </trkpt>
      <trkpt lat="45.98193" lon="4.88227">
        <ele>273</ele>
        <time>2018-09-11T09:29:43Z</time>
      </trkpt>
      <trkpt lat="45.98196" lon="4.88234">
        <ele>273</ele>
        <time>2018-09-11T09:29:44Z</time>
      </trkpt>
      <trkpt lat="45.98198" lon="4.88244">
        <ele>273</ele>
        <time>2018-09-11T09:29:45Z</time>
      </trkpt>
      <trkpt lat="45.98201" lon="4.88252">
        <ele>274</ele>
        <time>2018-09-11T09:29:46Z</time>
      </trkpt>
      <trkpt lat="45.98203" lon="4.8826">
        <ele>274</ele>
        <time>2018-09-11T09:29:47Z</time>
      </trkpt>
      <trkpt lat="45.98206" lon="4.88272">
        <ele>274</ele>
        <time>2018-09-11T09:29:48Z</time>
      </trkpt>
      <trkpt lat="45.98208" lon="4.8828">
        <ele>274</ele>
        <time>2018-09-11T09:29:49Z</time>
      </trkpt>
      <trkpt lat="45.9821" lon="4.88289">
        <ele>274</ele>
        <time>2018-09-11T09:29:50Z</time>
      </trkpt>
      <trkpt lat="45.98212" lon="4.88296">
        <ele>274</ele>
        <time>2018-09-11T09:29:51Z</time>
      </trkpt>
      <trkpt lat="45.98214" lon="4.88305">
        <ele>274</ele>
        <time>2018-09-11T09:29:52Z</time>
      </trkpt>
      <trkpt lat="45.98214" lon="4.88313">
        <ele>274</ele>
        <time>2018-09-11T09:29:53Z</time>
      </trkpt>
      <trkpt lat="45.98216" lon="4.88323">
        <ele>274</ele>
        <time>2018-09-11T09:29:54Z</time>
      </trkpt>
      <trkpt lat="45.98215" lon="4.8833">
        <ele>274</ele>
        <time>2018-09-11T09:29:55Z</time>
      </trkpt>
      <trkpt lat="45.98215" lon="4.88336">
        <ele>275</ele>
        <time>2018-09-11T09:29:56Z</time>
      </trkpt>
      <trkpt lat="45.98215" lon="4.88343">
        <ele>275</ele>
        <time>2018-09-11T09:29:57Z</time>
      </trkpt>
      <trkpt lat="45.98216" lon="4.8835">
        <ele>275</ele>
        <time>2018-09-11T09:29:58Z</time>
      </trkpt>
      <trkpt lat="45.98216" lon="4.88357">
        <ele>275</ele>
        <time>2018-09-11T09:29:59Z</time>
      </trkpt>
      <trkpt lat="45.98215" lon="4.88363">
        <ele>275</ele>
        <time>2018-09-11T09:30:00Z</time>
      </trkpt>
      <trkpt lat="45.98215" lon="4.88371">
        <ele>275</ele>
        <time>2018-09-11T09:30:01Z</time>
      </trkpt>
      <trkpt lat="45.98216" lon="4.88377">
        <ele>275</ele>
        <time>2018-09-11T09:30:02Z</time>
      </trkpt>
      <trkpt lat="45.98217" lon="4.88383">
        <ele>275</ele>
        <time>2018-09-11T09:30:03Z</time>
      </trkpt>
      <trkpt lat="45.98218" lon="4.8839">
        <ele>275</ele>
        <time>2018-09-11T09:30:04Z</time>
      </trkpt>
      <trkpt lat="45.98219" lon="4.88397">
        <ele>275</ele>
        <time>2018-09-11T09:30:05Z</time>
      </trkpt>
      <trkpt lat="45.9822" lon="4.88404">
        <ele>275</ele>
        <time>2018-09-11T09:30:06Z</time>
      </trkpt>
      <trkpt lat="45.98222" lon="4.88411">
        <ele>275</ele>
        <time>2018-09-11T09:30:07Z</time>
      </trkpt>
      <trkpt lat="45.98223" lon="4.88419">
        <ele>276</ele>
        <time>2018-09-11T09:30:08Z</time>
      </trkpt>
      <trkpt lat="45.98225" lon="4.88426">
        <ele>276</ele>
        <time>2018-09-11T09:30:09Z</time>
      </trkpt>
      <trkpt lat="45.98228" lon="4.88434">
        <ele>276</ele>
        <time>2018-09-11T09:30:10Z</time>
      </trkpt>
      <trkpt lat="45.98229" lon="4.8844">
        <ele>276</ele>
        <time>2018-09-11T09:30:11Z</time>
      </trkpt>
      <trkpt lat="45.98231" lon="4.88446">
        <ele>276</ele>
        <time>2018-09-11T09:30:12Z</time>
      </trkpt>
      <trkpt lat="45.98232" lon="4.88453">
        <ele>276</ele>
        <time>2018-09-11T09:30:13Z</time>
      </trkpt>
      <trkpt lat="45.98234" lon="4.88459">
        <ele>276</ele>
        <time>2018-09-11T09:30:14Z</time>
      </trkpt>
      <trkpt lat="45.98236" lon="4.88467">
        <ele>276</ele>
        <time>2018-09-11T09:30:15Z</time>
      </trkpt>
      <trkpt lat="45.98238" lon="4.88474">
        <ele>276</ele>
        <time>2018-09-11T09:30:16Z</time>
      </trkpt>
      <trkpt lat="45.98239" lon="4.88481">
        <ele>276</ele>
        <time>2018-09-11T09:30:17Z</time>
      </trkpt>
      <trkpt lat="45.9824" lon="4.88488">
        <ele>276</ele>
        <time>2018-09-11T09:30:18Z</time>
      </trkpt>
      <trkpt lat="45.98242" lon="4.88495">
        <ele>277</ele>
        <time>2018-09-11T09:30:19Z</time>
      </trkpt>
      <trkpt lat="45.98244" lon="4.88502">
        <ele>277</ele>
        <time>2018-09-11T09:30:20Z</time>
      </trkpt>
      <trkpt lat="45.98246" lon="4.8851">
        <ele>277</ele>
        <time>2018-09-11T09:30:21Z</time>
      </trkpt>
      <trkpt lat="45.98248" lon="4.88517">
        <ele>276</ele>
        <time>2018-09-11T09:30:22Z</time>
      </trkpt>
      <trkpt lat="45.98251" lon="4.88523">
        <ele>277</ele>
        <time>2018-09-11T09:30:23Z</time>
      </trkpt>
      <trkpt lat="45.98253" lon="4.88531">
        <ele>276</ele>
        <time>2018-09-11T09:30:24Z</time>
      </trkpt>
      <trkpt lat="45.98257" lon="4.88542">
        <ele>276</ele>
        <time>2018-09-11T09:30:26Z</time>
      </trkpt>
      <trkpt lat="45.98258" lon="4.88549">
        <ele>276</ele>
        <time>2018-09-11T09:30:27Z</time>
      </trkpt>
      <trkpt lat="45.98259" lon="4.88555">
        <ele>276</ele>
        <time>2018-09-11T09:30:28Z</time>
      </trkpt>
      <trkpt lat="45.98261" lon="4.88562">
        <ele>276</ele>
        <time>2018-09-11T09:30:29Z</time>
      </trkpt>
      <trkpt lat="45.98263" lon="4.88571">
        <ele>276</ele>
        <time>2018-09-11T09:30:30Z</time>
      </trkpt>
      <trkpt lat="45.98265" lon="4.88576">
        <ele>276</ele>
        <time>2018-09-11T09:30:31Z</time>
      </trkpt>
      <trkpt lat="45.98267" lon="4.88583">
        <ele>276</ele>
        <time>2018-09-11T09:30:32Z</time>
      </trkpt>
      <trkpt lat="45.98268" lon="4.88589">
        <ele>275</ele>
        <time>2018-09-11T09:30:33Z</time>
      </trkpt>
      <trkpt lat="45.98271" lon="4.88601">
        <ele>276</ele>
        <time>2018-09-11T09:30:35Z</time>
      </trkpt>
      <trkpt lat="45.98273" lon="4.88607">
        <ele>276</ele>
        <time>2018-09-11T09:30:36Z</time>
      </trkpt>
      <trkpt lat="45.98275" lon="4.88619">
        <ele>276</ele>
        <time>2018-09-11T09:30:38Z</time>
      </trkpt>
      <trkpt lat="45.98277" lon="4.88625">
        <ele>276</ele>
        <time>2018-09-11T09:30:39Z</time>
      </trkpt>
      <trkpt lat="45.98279" lon="4.8863">
        <ele>276</ele>
        <time>2018-09-11T09:30:40Z</time>
      </trkpt>
      <trkpt lat="45.9828" lon="4.88638">
        <ele>276</ele>
        <time>2018-09-11T09:30:41Z</time>
      </trkpt>
      <trkpt lat="45.98281" lon="4.88645">
        <ele>276</ele>
        <time>2018-09-11T09:30:42Z</time>
      </trkpt>
      <trkpt lat="45.98283" lon="4.88652">
        <ele>276</ele>
        <time>2018-09-11T09:30:43Z</time>
      </trkpt>
      <trkpt lat="45.98284" lon="4.88659">
        <ele>276</ele>
        <time>2018-09-11T09:30:44Z</time>
      </trkpt>
      <trkpt lat="45.98285" lon="4.88667">
        <ele>276</ele>
        <time>2018-09-11T09:30:45Z</time>
      </trkpt>
      <trkpt lat="45.98286" lon="4.88674">
        <ele>276</ele>
        <time>2018-09-11T09:30:46Z</time>
      </trkpt>
      <trkpt lat="45.98287" lon="4.88681">
        <ele>276</ele>
        <time>2018-09-11T09:30:47Z</time>
      </trkpt>
      <trkpt lat="45.9829" lon="4.88693">
        <ele>276</ele>
        <time>2018-09-11T09:30:49Z</time>
      </trkpt>
      <trkpt lat="45.98292" lon="4.88699">
        <ele>276</ele>
        <time>2018-09-11T09:30:50Z</time>
      </trkpt>
      <trkpt lat="45.98294" lon="4.88705">
        <ele>276</ele>
        <time>2018-09-11T09:30:51Z</time>
      </trkpt>
      <trkpt lat="45.98295" lon="4.88711">
        <ele>276</ele>
        <time>2018-09-11T09:30:52Z</time>
      </trkpt>
      <trkpt lat="45.98297" lon="4.88718">
        <ele>276</ele>
        <time>2018-09-11T09:30:53Z</time>
      </trkpt>
      <trkpt lat="45.98298" lon="4.88724">
        <ele>276</ele>
        <time>2018-09-11T09:30:54Z</time>
      </trkpt>
      <trkpt lat="45.983" lon="4.88736">
        <ele>276</ele>
        <time>2018-09-11T09:30:56Z</time>
      </trkpt>
      <trkpt lat="45.98302" lon="4.88743">
        <ele>276</ele>
        <time>2018-09-11T09:30:57Z</time>
      </trkpt>
      <trkpt lat="45.98304" lon="4.88748">
        <ele>276</ele>
        <time>2018-09-11T09:30:58Z</time>
      </trkpt>
      <trkpt lat="45.98305" lon="4.88755">
        <ele>276</ele>
        <time>2018-09-11T09:30:59Z</time>
      </trkpt>
      <trkpt lat="45.98306" lon="4.88761">
        <ele>276</ele>
        <time>2018-09-11T09:31:00Z</time>
      </trkpt>
      <trkpt lat="45.98308" lon="4.88767">
        <ele>277</ele>
        <time>2018-09-11T09:31:01Z</time>
      </trkpt>
      <trkpt lat="45.98309" lon="4.88773">
        <ele>277</ele>
        <time>2018-09-11T09:31:02Z</time>
      </trkpt>
      <trkpt lat="45.98312" lon="4.8878">
        <ele>277</ele>
        <time>2018-09-11T09:31:03Z</time>
      </trkpt>
      <trkpt lat="45.98313" lon="4.88786">
        <ele>277</ele>
        <time>2018-09-11T09:31:04Z</time>
      </trkpt>
      <trkpt lat="45.98314" lon="4.88793">
        <ele>277</ele>
        <time>2018-09-11T09:31:05Z</time>
      </trkpt>
      <trkpt lat="45.98316" lon="4.888">
        <ele>277</ele>
        <time>2018-09-11T09:31:06Z</time>
      </trkpt>
      <trkpt lat="45.98318" lon="4.88805">
        <ele>277</ele>
        <time>2018-09-11T09:31:07Z</time>
      </trkpt>
      <trkpt lat="45.9832" lon="4.88812">
        <ele>277</ele>
        <time>2018-09-11T09:31:08Z</time>
      </trkpt>
      <trkpt lat="45.98322" lon="4.88818">
        <ele>277</ele>
        <time>2018-09-11T09:31:09Z</time>
      </trkpt>
      <trkpt lat="45.98323" lon="4.88824">
        <ele>277</ele>
        <time>2018-09-11T09:31:10Z</time>
      </trkpt>
      <trkpt lat="45.98325" lon="4.88831">
        <ele>278</ele>
        <time>2018-09-11T09:31:11Z</time>
      </trkpt>
      <trkpt lat="45.98326" lon="4.88837">
        <ele>278</ele>
        <time>2018-09-11T09:31:12Z</time>
      </trkpt>
      <trkpt lat="45.98327" lon="4.88844">
        <ele>278</ele>
        <time>2018-09-11T09:31:13Z</time>
      </trkpt>
      <trkpt lat="45.98331" lon="4.88851">
        <ele>278</ele>
        <time>2018-09-11T09:31:14Z</time>
      </trkpt>
      <trkpt lat="45.98332" lon="4.88858">
        <ele>278</ele>
        <time>2018-09-11T09:31:15Z</time>
      </trkpt>
      <trkpt lat="45.98334" lon="4.88868">
        <ele>280</ele>
        <time>2018-09-11T09:31:17Z</time>
      </trkpt>
      <trkpt lat="45.98337" lon="4.88875">
        <ele>280</ele>
        <time>2018-09-11T09:31:18Z</time>
      </trkpt>
      <trkpt lat="45.98338" lon="4.88882">
        <ele>280</ele>
        <time>2018-09-11T09:31:19Z</time>
      </trkpt>
      <trkpt lat="45.98339" lon="4.88888">
        <ele>280</ele>
        <time>2018-09-11T09:31:20Z</time>
      </trkpt>
      <trkpt lat="45.98342" lon="4.88898">
        <ele>280</ele>
        <time>2018-09-11T09:31:22Z</time>
      </trkpt>
      <trkpt lat="45.98343" lon="4.88905">
        <ele>280</ele>
        <time>2018-09-11T09:31:23Z</time>
      </trkpt>
      <trkpt lat="45.98345" lon="4.88911">
        <ele>280</ele>
        <time>2018-09-11T09:31:24Z</time>
      </trkpt>
      <trkpt lat="45.98346" lon="4.88917">
        <ele>280</ele>
        <time>2018-09-11T09:31:25Z</time>
      </trkpt>
      <trkpt lat="45.98348" lon="4.88929">
        <ele>281</ele>
        <time>2018-09-11T09:31:27Z</time>
      </trkpt>
      <trkpt lat="45.98349" lon="4.88935">
        <ele>281</ele>
        <time>2018-09-11T09:31:28Z</time>
      </trkpt>
      <trkpt lat="45.98351" lon="4.88942">
        <ele>282</ele>
        <time>2018-09-11T09:31:29Z</time>
      </trkpt>
      <trkpt lat="45.98353" lon="4.88949">
        <ele>282</ele>
        <time>2018-09-11T09:31:30Z</time>
      </trkpt>
      <trkpt lat="45.98355" lon="4.8896">
        <ele>282</ele>
        <time>2018-09-11T09:31:32Z</time>
      </trkpt>
      <trkpt lat="45.98356" lon="4.88965">
        <ele>282</ele>
        <time>2018-09-11T09:31:33Z</time>
      </trkpt>
      <trkpt lat="45.98358" lon="4.88972">
        <ele>282</ele>
        <time>2018-09-11T09:31:34Z</time>
      </trkpt>
      <trkpt lat="45.98359" lon="4.88979">
        <ele>282</ele>
        <time>2018-09-11T09:31:35Z</time>
      </trkpt>
      <trkpt lat="45.98361" lon="4.88986">
        <ele>282</ele>
        <time>2018-09-11T09:31:36Z</time>
      </trkpt>
      <trkpt lat="45.98363" lon="4.88991">
        <ele>282</ele>
        <time>2018-09-11T09:31:37Z</time>
      </trkpt>
      <trkpt lat="45.98365" lon="4.88997">
        <ele>282</ele>
        <time>2018-09-11T09:31:38Z</time>
      </trkpt>
      <trkpt lat="45.98367" lon="4.89003">
        <ele>283</ele>
        <time>2018-09-11T09:31:39Z</time>
      </trkpt>
      <trkpt lat="45.98368" lon="4.89009">
        <ele>283</ele>
        <time>2018-09-11T09:31:40Z</time>
      </trkpt>
      <trkpt lat="45.9837" lon="4.89016">
        <ele>284</ele>
        <time>2018-09-11T09:31:41Z</time>
      </trkpt>
      <trkpt lat="45.98372" lon="4.89025">
        <ele>284</ele>
        <time>2018-09-11T09:31:43Z</time>
      </trkpt>
      <trkpt lat="45.98373" lon="4.89032">
        <ele>284</ele>
        <time>2018-09-11T09:31:44Z</time>
      </trkpt>
      <trkpt lat="45.98376" lon="4.89042">
        <ele>284</ele>
        <time>2018-09-11T09:31:46Z</time>
      </trkpt>
      <trkpt lat="45.98378" lon="4.89048">
        <ele>284</ele>
        <time>2018-09-11T09:31:47Z</time>
      </trkpt>
      <trkpt lat="45.98381" lon="4.89059">
        <ele>284</ele>
        <time>2018-09-11T09:31:49Z</time>
      </trkpt>
      <trkpt lat="45.98383" lon="4.89064">
        <ele>285</ele>
        <time>2018-09-11T09:31:50Z</time>
      </trkpt>
      <trkpt lat="45.98387" lon="4.89074">
        <ele>285</ele>
        <time>2018-09-11T09:31:52Z</time>
      </trkpt>
      <trkpt lat="45.98389" lon="4.89078">
        <ele>285</ele>
        <time>2018-09-11T09:31:53Z</time>
      </trkpt>
      <trkpt lat="45.98393" lon="4.89086">
        <ele>286</ele>
        <time>2018-09-11T09:31:55Z</time>
      </trkpt>
      <trkpt lat="45.98396" lon="4.89091">
        <ele>286</ele>
        <time>2018-09-11T09:31:56Z</time>
      </trkpt>
      <trkpt lat="45.98401" lon="4.891">
        <ele>286</ele>
        <time>2018-09-11T09:31:58Z</time>
      </trkpt>
      <trkpt lat="45.98403" lon="4.89105">
        <ele>286</ele>
        <time>2018-09-11T09:31:59Z</time>
      </trkpt>
      <trkpt lat="45.98409" lon="4.89115">
        <ele>286</ele>
        <time>2018-09-11T09:32:01Z</time>
      </trkpt>
      <trkpt lat="45.98411" lon="4.89119">
        <ele>285</ele>
        <time>2018-09-11T09:32:02Z</time>
      </trkpt>
      <trkpt lat="45.98417" lon="4.89129">
        <ele>285</ele>
        <time>2018-09-11T09:32:04Z</time>
      </trkpt>
      <trkpt lat="45.98419" lon="4.89134">
        <ele>288</ele>
        <time>2018-09-11T09:32:05Z</time>
      </trkpt>
      <trkpt lat="45.98425" lon="4.89143">
        <ele>288</ele>
        <time>2018-09-11T09:32:07Z</time>
      </trkpt>
      <trkpt lat="45.98427" lon="4.89147">
        <ele>288</ele>
        <time>2018-09-11T09:32:08Z</time>
      </trkpt>
      <trkpt lat="45.98433" lon="4.89154">
        <ele>288</ele>
        <time>2018-09-11T09:32:10Z</time>
      </trkpt>
      <trkpt lat="45.98436" lon="4.89159">
        <ele>288</ele>
        <time>2018-09-11T09:32:11Z</time>
      </trkpt>
      <trkpt lat="45.9844" lon="4.89169">
        <ele>288</ele>
        <time>2018-09-11T09:32:13Z</time>
      </trkpt>
      <trkpt lat="45.98442" lon="4.89173">
        <ele>288</ele>
        <time>2018-09-11T09:32:14Z</time>
      </trkpt>
      <trkpt lat="45.98445" lon="4.8918">
        <ele>288</ele>
        <time>2018-09-11T09:32:16Z</time>
      </trkpt>
      <trkpt lat="45.98448" lon="4.89186">
        <ele>288</ele>
        <time>2018-09-11T09:32:17Z</time>
      </trkpt>
      <trkpt lat="45.98452" lon="4.89196">
        <ele>289</ele>
        <time>2018-09-11T09:32:19Z</time>
      </trkpt>
      <trkpt lat="45.98453" lon="4.89198">
        <ele>289</ele>
        <time>2018-09-11T09:32:20Z</time>
      </trkpt>
      <trkpt lat="45.98458" lon="4.89208">
        <ele>289</ele>
        <time>2018-09-11T09:32:22Z</time>
      </trkpt>
      <trkpt lat="45.9846" lon="4.89209">
        <ele>289</ele>
        <time>2018-09-11T09:32:23Z</time>
      </trkpt>
      <trkpt lat="45.98464" lon="4.89218">
        <ele>289</ele>
        <time>2018-09-11T09:32:25Z</time>
      </trkpt>
      <trkpt lat="45.98465" lon="4.8922">
        <ele>289</ele>
        <time>2018-09-11T09:32:26Z</time>
      </trkpt>
      <trkpt lat="45.98469" lon="4.89229">
        <ele>289</ele>
        <time>2018-09-11T09:32:29Z</time>
      </trkpt>
      <trkpt lat="45.98471" lon="4.89232">
        <ele>289</ele>
        <time>2018-09-11T09:32:30Z</time>
      </trkpt>
      <trkpt lat="45.98476" lon="4.89243">
        <ele>289</ele>
        <time>2018-09-11T09:32:33Z</time>
      </trkpt>
      <trkpt lat="45.98477" lon="4.89246">
        <ele>289</ele>
        <time>2018-09-11T09:32:34Z</time>
      </trkpt>
      <trkpt lat="45.98483" lon="4.89257">
        <ele>291</ele>
        <time>2018-09-11T09:32:35Z</time>
      </trkpt>
      <trkpt lat="45.98485" lon="4.89263">
        <ele>291</ele>
        <time>2018-09-11T09:32:37Z</time>
      </trkpt>
      <trkpt lat="45.98489" lon="4.89271">
        <ele>292</ele>
        <time>2018-09-11T09:32:38Z</time>
      </trkpt>
      <trkpt lat="45.98493" lon="4.89279">
        <ele>292</ele>
        <time>2018-09-11T09:32:41Z</time>
      </trkpt>
      <trkpt lat="45.98498" lon="4.89287">
        <ele>292</ele>
        <time>2018-09-11T09:32:42Z</time>
      </trkpt>
      <trkpt lat="45.98503" lon="4.89295">
        <ele>293</ele>
        <time>2018-09-11T09:32:44Z</time>
      </trkpt>
      <trkpt lat="45.98505" lon="4.89297">
        <ele>293</ele>
        <time>2018-09-11T09:32:45Z</time>
      </trkpt>
      <trkpt lat="45.98509" lon="4.89303">
        <ele>293</ele>
        <time>2018-09-11T09:32:46Z</time>
      </trkpt>
      <trkpt lat="45.98512" lon="4.89307">
        <ele>293</ele>
        <time>2018-09-11T09:32:47Z</time>
      </trkpt>
      <trkpt lat="45.98518" lon="4.89315">
        <ele>293</ele>
        <time>2018-09-11T09:32:49Z</time>
      </trkpt>
      <trkpt lat="45.9852" lon="4.89319">
        <ele>293</ele>
        <time>2018-09-11T09:32:50Z</time>
      </trkpt>
      <trkpt lat="45.98526" lon="4.89327">
        <ele>293</ele>
        <time>2018-09-11T09:32:52Z</time>
      </trkpt>
      <trkpt lat="45.98531" lon="4.8933">
        <ele>293</ele>
        <time>2018-09-11T09:32:53Z</time>
      </trkpt>
      <trkpt lat="45.98536" lon="4.89338">
        <ele>295</ele>
        <time>2018-09-11T09:32:55Z</time>
      </trkpt>
      <trkpt lat="45.9854" lon="4.89342">
        <ele>295</ele>
        <time>2018-09-11T09:32:56Z</time>
      </trkpt>
      <trkpt lat="45.98546" lon="4.8935">
        <ele>295</ele>
        <time>2018-09-11T09:32:58Z</time>
      </trkpt>
      <trkpt lat="45.98549" lon="4.89354">
        <ele>295</ele>
        <time>2018-09-11T09:32:59Z</time>
      </trkpt>
      <trkpt lat="45.98555" lon="4.89363">
        <ele>295</ele>
        <time>2018-09-11T09:33:01Z</time>
      </trkpt>
      <trkpt lat="45.9856" lon="4.89365">
        <ele>295</ele>
        <time>2018-09-11T09:33:02Z</time>
      </trkpt>
      <trkpt lat="45.98563" lon="4.8937">
        <ele>295</ele>
        <time>2018-09-11T09:33:03Z</time>
      </trkpt>
      <trkpt lat="45.98567" lon="4.89374">
        <ele>295</ele>
        <time>2018-09-11T09:33:04Z</time>
      </trkpt>
      <trkpt lat="45.98571" lon="4.89377">
        <ele>295</ele>
        <time>2018-09-11T09:33:05Z</time>
      </trkpt>
      <trkpt lat="45.98574" lon="4.89382">
        <ele>295</ele>
        <time>2018-09-11T09:33:06Z</time>
      </trkpt>
      <trkpt lat="45.98579" lon="4.89387">
        <ele>295</ele>
        <time>2018-09-11T09:33:07Z</time>
      </trkpt>
      <trkpt lat="45.98583" lon="4.89391">
        <ele>292</ele>
        <time>2018-09-11T09:33:08Z</time>
      </trkpt>
      <trkpt lat="45.98587" lon="4.89396">
        <ele>292</ele>
        <time>2018-09-11T09:33:09Z</time>
      </trkpt>
      <trkpt lat="45.98592" lon="4.894">
        <ele>292</ele>
        <time>2018-09-11T09:33:10Z</time>
      </trkpt>
      <trkpt lat="45.98598" lon="4.89406">
        <ele>292</ele>
        <time>2018-09-11T09:33:12Z</time>
      </trkpt>
      <trkpt lat="45.98601" lon="4.8941">
        <ele>292</ele>
        <time>2018-09-11T09:33:13Z</time>
      </trkpt>
      <trkpt lat="45.98608" lon="4.89417">
        <ele>292</ele>
        <time>2018-09-11T09:33:15Z</time>
      </trkpt>
      <trkpt lat="45.98613" lon="4.89421">
        <ele>292</ele>
        <time>2018-09-11T09:33:16Z</time>
      </trkpt>
      <trkpt lat="45.98616" lon="4.89426">
        <ele>292</ele>
        <time>2018-09-11T09:33:17Z</time>
      </trkpt>
      <trkpt lat="45.9862" lon="4.8943">
        <ele>291</ele>
        <time>2018-09-11T09:33:18Z</time>
      </trkpt>
      <trkpt lat="45.98626" lon="4.89436">
        <ele>291</ele>
        <time>2018-09-11T09:33:20Z</time>
      </trkpt>
      <trkpt lat="45.9863" lon="4.8944">
        <ele>291</ele>
        <time>2018-09-11T09:33:21Z</time>
      </trkpt>
      <trkpt lat="45.98635" lon="4.89444">
        <ele>291</ele>
        <time>2018-09-11T09:33:22Z</time>
      </trkpt>
      <trkpt lat="45.98638" lon="4.89448">
        <ele>291</ele>
        <time>2018-09-11T09:33:23Z</time>
      </trkpt>
      <trkpt lat="45.98644" lon="4.89456">
        <ele>291</ele>
        <time>2018-09-11T09:33:25Z</time>
      </trkpt>
      <trkpt lat="45.98648" lon="4.89461">
        <ele>291</ele>
        <time>2018-09-11T09:33:26Z</time>
      </trkpt>
      <trkpt lat="45.98653" lon="4.89465">
        <ele>290</ele>
        <time>2018-09-11T09:33:27Z</time>
      </trkpt>
      <trkpt lat="45.98656" lon="4.89471">
        <ele>290</ele>
        <time>2018-09-11T09:33:28Z</time>
      </trkpt>
      <trkpt lat="45.98661" lon="4.89477">
        <ele>290</ele>
        <time>2018-09-11T09:33:29Z</time>
      </trkpt>
      <trkpt lat="45.98665" lon="4.89481">
        <ele>290</ele>
        <time>2018-09-11T09:33:30Z</time>
      </trkpt>
      <trkpt lat="45.98668" lon="4.89486">
        <ele>289</ele>
        <time>2018-09-11T09:33:31Z</time>
      </trkpt>
      <trkpt lat="45.98672" lon="4.89491">
        <ele>289</ele>
        <time>2018-09-11T09:33:32Z</time>
      </trkpt>
      <trkpt lat="45.98676" lon="4.89495">
        <ele>289</ele>
        <time>2018-09-11T09:33:33Z</time>
      </trkpt>
      <trkpt lat="45.98681" lon="4.89498">
        <ele>289</ele>
        <time>2018-09-11T09:33:34Z</time>
      </trkpt>
      <trkpt lat="45.98687" lon="4.89507">
        <ele>289</ele>
        <time>2018-09-11T09:33:36Z</time>
      </trkpt>
      <trkpt lat="45.98691" lon="4.89511">
        <ele>289</ele>
        <time>2018-09-11T09:33:37Z</time>
      </trkpt>
      <trkpt lat="45.98695" lon="4.89518">
        <ele>289</ele>
        <time>2018-09-11T09:33:38Z</time>
      </trkpt>
      <trkpt lat="45.98698" lon="4.89523">
        <ele>289</ele>
        <time>2018-09-11T09:33:39Z</time>
      </trkpt>
      <trkpt lat="45.98702" lon="4.89527">
        <ele>289</ele>
        <time>2018-09-11T09:33:40Z</time>
      </trkpt>
      <trkpt lat="45.98706" lon="4.89533">
        <ele>289</ele>
        <time>2018-09-11T09:33:41Z</time>
      </trkpt>
      <trkpt lat="45.9871" lon="4.89536">
        <ele>289</ele>
        <time>2018-09-11T09:33:42Z</time>
      </trkpt>
      <trkpt lat="45.98713" lon="4.89542">
        <ele>290</ele>
        <time>2018-09-11T09:33:43Z</time>
      </trkpt>
      <trkpt lat="45.98717" lon="4.89546">
        <ele>290</ele>
        <time>2018-09-11T09:33:44Z</time>
      </trkpt>
      <trkpt lat="45.9872" lon="4.89551">
        <ele>290</ele>
        <time>2018-09-11T09:33:45Z</time>
      </trkpt>
      <trkpt lat="45.98726" lon="4.89559">
        <ele>290</ele>
        <time>2018-09-11T09:33:47Z</time>
      </trkpt>
      <trkpt lat="45.9873" lon="4.89564">
        <ele>290</ele>
        <time>2018-09-11T09:33:48Z</time>
      </trkpt>
      <trkpt lat="45.98733" lon="4.89569">
        <ele>290</ele>
        <time>2018-09-11T09:33:49Z</time>
      </trkpt>
      <trkpt lat="45.98738" lon="4.89573">
        <ele>290</ele>
        <time>2018-09-11T09:33:50Z</time>
      </trkpt>
      <trkpt lat="45.98743" lon="4.89583">
        <ele>291</ele>
        <time>2018-09-11T09:33:52Z</time>
      </trkpt>
      <trkpt lat="45.98746" lon="4.89587">
        <ele>291</ele>
        <time>2018-09-11T09:33:53Z</time>
      </trkpt>
      <trkpt lat="45.9875" lon="4.89591">
        <ele>291</ele>
        <time>2018-09-11T09:33:54Z</time>
      </trkpt>
      <trkpt lat="45.98753" lon="4.89595">
        <ele>291</ele>
        <time>2018-09-11T09:33:55Z</time>
      </trkpt>
      <trkpt lat="45.98759" lon="4.89604">
        <ele>291</ele>
        <time>2018-09-11T09:33:57Z</time>
      </trkpt>
      <trkpt lat="45.98763" lon="4.8961">
        <ele>291</ele>
        <time>2018-09-11T09:33:58Z</time>
      </trkpt>
      <trkpt lat="45.98769" lon="4.89618">
        <ele>291</ele>
        <time>2018-09-11T09:34:00Z</time>
      </trkpt>
      <trkpt lat="45.98773" lon="4.89621">
        <ele>291</ele>
        <time>2018-09-11T09:34:01Z</time>
      </trkpt>
      <trkpt lat="45.98779" lon="4.8963">
        <ele>291</ele>
        <time>2018-09-11T09:34:03Z</time>
      </trkpt>
      <trkpt lat="45.98782" lon="4.89634">
        <ele>291</ele>
        <time>2018-09-11T09:34:04Z</time>
      </trkpt>
      <trkpt lat="45.98787" lon="4.89642">
        <ele>291</ele>
        <time>2018-09-11T09:34:06Z</time>
      </trkpt>
      <trkpt lat="45.9879" lon="4.89647">
        <ele>291</ele>
        <time>2018-09-11T09:34:07Z</time>
      </trkpt>
      <trkpt lat="45.98795" lon="4.89653">
        <ele>291</ele>
        <time>2018-09-11T09:34:09Z</time>
      </trkpt>
      <trkpt lat="45.98798" lon="4.89656">
        <ele>291</ele>
        <time>2018-09-11T09:34:10Z</time>
      </trkpt>
      <trkpt lat="45.98803" lon="4.89662">
        <ele>291</ele>
        <time>2018-09-11T09:34:12Z</time>
      </trkpt>
      <trkpt lat="45.98806" lon="4.89666">
        <ele>291</ele>
        <time>2018-09-11T09:34:13Z</time>
      </trkpt>
      <trkpt lat="45.9881" lon="4.89669">
        <ele>292</ele>
        <time>2018-09-11T09:34:14Z</time>
      </trkpt>
      <trkpt lat="45.98814" lon="4.89673">
        <ele>292</ele>
        <time>2018-09-11T09:34:15Z</time>
      </trkpt>
      <trkpt lat="45.9882" lon="4.8968">
        <ele>292</ele>
        <time>2018-09-11T09:34:17Z</time>
      </trkpt>
      <trkpt lat="45.98824" lon="4.89683">
        <ele>292</ele>
        <time>2018-09-11T09:34:18Z</time>
      </trkpt>
      <trkpt lat="45.98828" lon="4.89687">
        <ele>292</ele>
        <time>2018-09-11T09:34:19Z</time>
      </trkpt>
      <trkpt lat="45.98831" lon="4.89691">
        <ele>292</ele>
        <time>2018-09-11T09:34:20Z</time>
      </trkpt>
      <trkpt lat="45.98838" lon="4.89695">
        <ele>292</ele>
        <time>2018-09-11T09:34:22Z</time>
      </trkpt>
      <trkpt lat="45.98843" lon="4.89698">
        <ele>292</ele>
        <time>2018-09-11T09:34:23Z</time>
      </trkpt>
      <trkpt lat="45.98847" lon="4.897">
        <ele>292</ele>
        <time>2018-09-11T09:34:24Z</time>
      </trkpt>
      <trkpt lat="45.98852" lon="4.89705">
        <ele>292</ele>
        <time>2018-09-11T09:34:25Z</time>
      </trkpt>
      <trkpt lat="45.9886" lon="4.89711">
        <ele>293</ele>
        <time>2018-09-11T09:34:27Z</time>
      </trkpt>
      <trkpt lat="45.98863" lon="4.89715">
        <ele>293</ele>
        <time>2018-09-11T09:34:28Z</time>
      </trkpt>
      <trkpt lat="45.98867" lon="4.89719">
        <ele>293</ele>
        <time>2018-09-11T09:34:29Z</time>
      </trkpt>
      <trkpt lat="45.98871" lon="4.89722">
        <ele>293</ele>
        <time>2018-09-11T09:34:30Z</time>
      </trkpt>
      <trkpt lat="45.98877" lon="4.89728">
        <ele>293</ele>
        <time>2018-09-11T09:34:33Z</time>
      </trkpt>
      <trkpt lat="45.98881" lon="4.89731">
        <ele>293</ele>
        <time>2018-09-11T09:34:34Z</time>
      </trkpt>
      <trkpt lat="45.98888" lon="4.89737">
        <ele>293</ele>
        <time>2018-09-11T09:34:36Z</time>
      </trkpt>
      <trkpt lat="45.98893" lon="4.89738">
        <ele>293</ele>
        <time>2018-09-11T09:34:37Z</time>
      </trkpt>
      <trkpt lat="45.98897" lon="4.89739">
        <ele>293</ele>
        <time>2018-09-11T09:34:38Z</time>
      </trkpt>
      <trkpt lat="45.98902" lon="4.89741">
        <ele>293</ele>
        <time>2018-09-11T09:34:39Z</time>
      </trkpt>
      <trkpt lat="45.98909" lon="4.89746">
        <ele>293</ele>
        <time>2018-09-11T09:34:41Z</time>
      </trkpt>
      <trkpt lat="45.98912" lon="4.89749">
        <ele>293</ele>
        <time>2018-09-11T09:34:42Z</time>
      </trkpt>
      <trkpt lat="45.98919" lon="4.89754">
        <ele>293</ele>
        <time>2018-09-11T09:34:44Z</time>
      </trkpt>
      <trkpt lat="45.98923" lon="4.89756">
        <ele>293</ele>
        <time>2018-09-11T09:34:45Z</time>
      </trkpt>
      <trkpt lat="45.98928" lon="4.8976">
        <ele>293</ele>
        <time>2018-09-11T09:34:47Z</time>
      </trkpt>
      <trkpt lat="45.98933" lon="4.89763">
        <ele>293</ele>
        <time>2018-09-11T09:34:48Z</time>
      </trkpt>
      <trkpt lat="45.9894" lon="4.89769">
        <ele>293</ele>
        <time>2018-09-11T09:34:51Z</time>
      </trkpt>
      <trkpt lat="45.98942" lon="4.89771">
        <ele>293</ele>
        <time>2018-09-11T09:34:52Z</time>
      </trkpt>
      <trkpt lat="45.98944" lon="4.89773">
        <ele>293</ele>
        <time>2018-09-11T09:34:53Z</time>
      </trkpt>
      <trkpt lat="45.98951" lon="4.89781">
        <ele>293</ele>
        <time>2018-09-11T09:34:54Z</time>
      </trkpt>
      <trkpt lat="45.98956" lon="4.89787">
        <ele>293</ele>
        <time>2018-09-11T09:34:57Z</time>
      </trkpt>
      <trkpt lat="45.98958" lon="4.89789">
        <ele>293</ele>
        <time>2018-09-11T09:34:58Z</time>
      </trkpt>
      <trkpt lat="45.98962" lon="4.89794">
        <ele>293</ele>
        <time>2018-09-11T09:35:00Z</time>
      </trkpt>
      <trkpt lat="45.98969" lon="4.89802">
        <ele>293</ele>
        <time>2018-09-11T09:35:01Z</time>
      </trkpt>
      <trkpt lat="45.98975" lon="4.89809">
        <ele>293</ele>
        <time>2018-09-11T09:35:03Z</time>
      </trkpt>
      <trkpt lat="45.98979" lon="4.89813">
        <ele>293</ele>
        <time>2018-09-11T09:35:04Z</time>
      </trkpt>
      <trkpt lat="45.98985" lon="4.89821">
        <ele>293</ele>
        <time>2018-09-11T09:35:06Z</time>
      </trkpt>
      <trkpt lat="45.98989" lon="4.89826">
        <ele>293</ele>
        <time>2018-09-11T09:35:07Z</time>
      </trkpt>
      <trkpt lat="45.98995" lon="4.89834">
        <ele>293</ele>
        <time>2018-09-11T09:35:09Z</time>
      </trkpt>
      <trkpt lat="45.98999" lon="4.89838">
        <ele>293</ele>
        <time>2018-09-11T09:35:10Z</time>
      </trkpt>
      <trkpt lat="45.99004" lon="4.89847">
        <ele>293</ele>
        <time>2018-09-11T09:35:12Z</time>
      </trkpt>
      <trkpt lat="45.99007" lon="4.89851">
        <ele>293</ele>
        <time>2018-09-11T09:35:13Z</time>
      </trkpt>
      <trkpt lat="45.99013" lon="4.89858">
        <ele>293</ele>
        <time>2018-09-11T09:35:15Z</time>
      </trkpt>
      <trkpt lat="45.99016" lon="4.89863">
        <ele>293</ele>
        <time>2018-09-11T09:35:16Z</time>
      </trkpt>
      <trkpt lat="45.9902" lon="4.89867">
        <ele>293</ele>
        <time>2018-09-11T09:35:17Z</time>
      </trkpt>
      <trkpt lat="45.99024" lon="4.89872">
        <ele>293</ele>
        <time>2018-09-11T09:35:18Z</time>
      </trkpt>
      <trkpt lat="45.99029" lon="4.89875">
        <ele>293</ele>
        <time>2018-09-11T09:35:19Z</time>
      </trkpt>
      <trkpt lat="45.99033" lon="4.8988">
        <ele>293</ele>
        <time>2018-09-11T09:35:20Z</time>
      </trkpt>
      <trkpt lat="45.9904" lon="4.89887">
        <ele>293</ele>
        <time>2018-09-11T09:35:22Z</time>
      </trkpt>
      <trkpt lat="45.99043" lon="4.89889">
        <ele>293</ele>
        <time>2018-09-11T09:35:23Z</time>
      </trkpt>
      <trkpt lat="45.99048" lon="4.89899">
        <ele>293</ele>
        <time>2018-09-11T09:35:25Z</time>
      </trkpt>
      <trkpt lat="45.99051" lon="4.89903">
        <ele>293</ele>
        <time>2018-09-11T09:35:26Z</time>
      </trkpt>
      <trkpt lat="45.99058" lon="4.89907">
        <ele>293</ele>
        <time>2018-09-11T09:35:28Z</time>
      </trkpt>
      <trkpt lat="45.9906" lon="4.89913">
        <ele>294</ele>
        <time>2018-09-11T09:35:29Z</time>
      </trkpt>
      <trkpt lat="45.99063" lon="4.89918">
        <ele>294</ele>
        <time>2018-09-11T09:35:30Z</time>
      </trkpt>
      <trkpt lat="45.99066" lon="4.89922">
        <ele>294</ele>
        <time>2018-09-11T09:35:31Z</time>
      </trkpt>
      <trkpt lat="45.9907" lon="4.89928">
        <ele>294</ele>
        <time>2018-09-11T09:35:32Z</time>
      </trkpt>
      <trkpt lat="45.99073" lon="4.89933">
        <ele>294</ele>
        <time>2018-09-11T09:35:33Z</time>
      </trkpt>
      <trkpt lat="45.99077" lon="4.89939">
        <ele>294</ele>
        <time>2018-09-11T09:35:34Z</time>
      </trkpt>
      <trkpt lat="45.99081" lon="4.89943">
        <ele>294</ele>
        <time>2018-09-11T09:35:35Z</time>
      </trkpt>
      <trkpt lat="45.99085" lon="4.89949">
        <ele>295</ele>
        <time>2018-09-11T09:35:36Z</time>
      </trkpt>
      <trkpt lat="45.99089" lon="4.8995">
        <ele>295</ele>
        <time>2018-09-11T09:35:37Z</time>
      </trkpt>
      <trkpt lat="45.99093" lon="4.89956">
        <ele>295</ele>
        <time>2018-09-11T09:35:38Z</time>
      </trkpt>
      <trkpt lat="45.99097" lon="4.89961">
        <ele>295</ele>
        <time>2018-09-11T09:35:39Z</time>
      </trkpt>
      <trkpt lat="45.991" lon="4.89966">
        <ele>295</ele>
        <time>2018-09-11T09:35:40Z</time>
      </trkpt>
      <trkpt lat="45.99103" lon="4.89973">
        <ele>295</ele>
        <time>2018-09-11T09:35:41Z</time>
      </trkpt>
      <trkpt lat="45.99107" lon="4.89978">
        <ele>295</ele>
        <time>2018-09-11T09:35:42Z</time>
      </trkpt>
      <trkpt lat="45.9911" lon="4.89985">
        <ele>295</ele>
        <time>2018-09-11T09:35:43Z</time>
      </trkpt>
      <trkpt lat="45.99114" lon="4.89989">
        <ele>295</ele>
        <time>2018-09-11T09:35:44Z</time>
      </trkpt>
      <trkpt lat="45.99118" lon="4.89994">
        <ele>295</ele>
        <time>2018-09-11T09:35:45Z</time>
      </trkpt>
      <trkpt lat="45.99122" lon="4.89999">
        <ele>295</ele>
        <time>2018-09-11T09:35:46Z</time>
      </trkpt>
      <trkpt lat="45.99126" lon="4.90003">
        <ele>296</ele>
        <time>2018-09-11T09:35:47Z</time>
      </trkpt>
      <trkpt lat="45.99131" lon="4.90011">
        <ele>296</ele>
        <time>2018-09-11T09:35:49Z</time>
      </trkpt>
      <trkpt lat="45.99134" lon="4.90016">
        <ele>296</ele>
        <time>2018-09-11T09:35:50Z</time>
      </trkpt>
      <trkpt lat="45.99138" lon="4.90021">
        <ele>297</ele>
        <time>2018-09-11T09:35:51Z</time>
      </trkpt>
      <trkpt lat="45.99141" lon="4.90024">
        <ele>297</ele>
        <time>2018-09-11T09:35:52Z</time>
      </trkpt>
      <trkpt lat="45.99145" lon="4.9003">
        <ele>297</ele>
        <time>2018-09-11T09:35:53Z</time>
      </trkpt>
      <trkpt lat="45.99149" lon="4.90035">
        <ele>297</ele>
        <time>2018-09-11T09:35:54Z</time>
      </trkpt>
      <trkpt lat="45.99153" lon="4.9004">
        <ele>297</ele>
        <time>2018-09-11T09:35:55Z</time>
      </trkpt>
      <trkpt lat="45.99156" lon="4.90045">
        <ele>297</ele>
        <time>2018-09-11T09:35:56Z</time>
      </trkpt>
      <trkpt lat="45.9916" lon="4.9005">
        <ele>297</ele>
        <time>2018-09-11T09:35:57Z</time>
      </trkpt>
      <trkpt lat="45.99164" lon="4.90057">
        <ele>297</ele>
        <time>2018-09-11T09:35:58Z</time>
      </trkpt>
      <trkpt lat="45.99167" lon="4.90063">
        <ele>297</ele>
        <time>2018-09-11T09:35:59Z</time>
      </trkpt>
      <trkpt lat="45.9917" lon="4.90068">
        <ele>297</ele>
        <time>2018-09-11T09:36:00Z</time>
      </trkpt>
      <trkpt lat="45.99174" lon="4.90073">
        <ele>297</ele>
        <time>2018-09-11T09:36:01Z</time>
      </trkpt>
      <trkpt lat="45.99178" lon="4.90078">
        <ele>297</ele>
        <time>2018-09-11T09:36:02Z</time>
      </trkpt>
      <trkpt lat="45.99183" lon="4.90088">
        <ele>297</ele>
        <time>2018-09-11T09:36:04Z</time>
      </trkpt>
      <trkpt lat="45.99187" lon="4.90092">
        <ele>297</ele>
        <time>2018-09-11T09:36:05Z</time>
      </trkpt>
      <trkpt lat="45.99192" lon="4.90096">
        <ele>297</ele>
        <time>2018-09-11T09:36:06Z</time>
      </trkpt>
      <trkpt lat="45.99195" lon="4.90102">
        <ele>297</ele>
        <time>2018-09-11T09:36:07Z</time>
      </trkpt>
      <trkpt lat="45.99198" lon="4.90107">
        <ele>297</ele>
        <time>2018-09-11T09:36:08Z</time>
      </trkpt>
      <trkpt lat="45.99201" lon="4.90113">
        <ele>297</ele>
        <time>2018-09-11T09:36:09Z</time>
      </trkpt>
      <trkpt lat="45.99204" lon="4.90119">
        <ele>297</ele>
        <time>2018-09-11T09:36:10Z</time>
      </trkpt>
      <trkpt lat="45.99208" lon="4.90122">
        <ele>297</ele>
        <time>2018-09-11T09:36:11Z</time>
      </trkpt>
      <trkpt lat="45.99211" lon="4.90128">
        <ele>297</ele>
        <time>2018-09-11T09:36:12Z</time>
      </trkpt>
      <trkpt lat="45.99214" lon="4.90133">
        <ele>297</ele>
        <time>2018-09-11T09:36:13Z</time>
      </trkpt>
      <trkpt lat="45.99217" lon="4.90138">
        <ele>297</ele>
        <time>2018-09-11T09:36:14Z</time>
      </trkpt>
      <trkpt lat="45.99221" lon="4.90144">
        <ele>297</ele>
        <time>2018-09-11T09:36:15Z</time>
      </trkpt>
      <trkpt lat="45.99224" lon="4.90148">
        <ele>297</ele>
        <time>2018-09-11T09:36:16Z</time>
      </trkpt>
      <trkpt lat="45.99228" lon="4.90154">
        <ele>297</ele>
        <time>2018-09-11T09:36:17Z</time>
      </trkpt>
      <trkpt lat="45.99233" lon="4.90157">
        <ele>297</ele>
        <time>2018-09-11T09:36:18Z</time>
      </trkpt>
      <trkpt lat="45.99236" lon="4.90162">
        <ele>297</ele>
        <time>2018-09-11T09:36:19Z</time>
      </trkpt>
      <trkpt lat="45.99239" lon="4.90167">
        <ele>297</ele>
        <time>2018-09-11T09:36:20Z</time>
      </trkpt>
      <trkpt lat="45.99244" lon="4.9017">
        <ele>297</ele>
        <time>2018-09-11T09:36:21Z</time>
      </trkpt>
      <trkpt lat="45.99248" lon="4.90175">
        <ele>297</ele>
        <time>2018-09-11T09:36:22Z</time>
      </trkpt>
      <trkpt lat="45.9925" lon="4.90179">
        <ele>297</ele>
        <time>2018-09-11T09:36:23Z</time>
      </trkpt>
      <trkpt lat="45.99253" lon="4.90185">
        <ele>298</ele>
        <time>2018-09-11T09:36:24Z</time>
      </trkpt>
      <trkpt lat="45.99257" lon="4.90188">
        <ele>298</ele>
        <time>2018-09-11T09:36:25Z</time>
      </trkpt>
      <trkpt lat="45.9926" lon="4.90193">
        <ele>298</ele>
        <time>2018-09-11T09:36:26Z</time>
      </trkpt>
      <trkpt lat="45.99264" lon="4.902">
        <ele>298</ele>
        <time>2018-09-11T09:36:27Z</time>
      </trkpt>
      <trkpt lat="45.99271" lon="4.90207">
        <ele>298</ele>
        <time>2018-09-11T09:36:29Z</time>
      </trkpt>
      <trkpt lat="45.99274" lon="4.90211">
        <ele>298</ele>
        <time>2018-09-11T09:36:30Z</time>
      </trkpt>
      <trkpt lat="45.99277" lon="4.90216">
        <ele>298</ele>
        <time>2018-09-11T09:36:31Z</time>
      </trkpt>
      <trkpt lat="45.99281" lon="4.9022">
        <ele>298</ele>
        <time>2018-09-11T09:36:32Z</time>
      </trkpt>
      <trkpt lat="45.99286" lon="4.90228">
        <ele>298</ele>
        <time>2018-09-11T09:36:35Z</time>
      </trkpt>
      <trkpt lat="45.99291" lon="4.9023">
        <ele>298</ele>
        <time>2018-09-11T09:36:36Z</time>
      </trkpt>
      <trkpt lat="45.99294" lon="4.90235">
        <ele>298</ele>
        <time>2018-09-11T09:36:37Z</time>
      </trkpt>
      <trkpt lat="45.99298" lon="4.90239">
        <ele>298</ele>
        <time>2018-09-11T09:36:38Z</time>
      </trkpt>
      <trkpt lat="45.99301" lon="4.90243">
        <ele>298</ele>
        <time>2018-09-11T09:36:39Z</time>
      </trkpt>
      <trkpt lat="45.99305" lon="4.90248">
        <ele>298</ele>
        <time>2018-09-11T09:36:40Z</time>
      </trkpt>
      <trkpt lat="45.99309" lon="4.90256">
        <ele>299</ele>
        <time>2018-09-11T09:36:43Z</time>
      </trkpt>
      <trkpt lat="45.99311" lon="4.9026">
        <ele>299</ele>
        <time>2018-09-11T09:36:44Z</time>
      </trkpt>
      <trkpt lat="45.99313" lon="4.90271">
        <ele>299</ele>
        <time>2018-09-11T09:36:47Z</time>
      </trkpt>
      <trkpt lat="45.99313" lon="4.90274">
        <ele>299</ele>
        <time>2018-09-11T09:36:48Z</time>
      </trkpt>
      <trkpt lat="45.99316" lon="4.90281">
        <ele>299</ele>
        <time>2018-09-11T09:36:50Z</time>
      </trkpt>
      <trkpt lat="45.99322" lon="4.90289">
        <ele>299</ele>
        <time>2018-09-11T09:36:51Z</time>
      </trkpt>
      <trkpt lat="45.9933" lon="4.90291">
        <ele>299</ele>
        <time>2018-09-11T09:36:53Z</time>
      </trkpt>
      <trkpt lat="45.99334" lon="4.90292">
        <ele>300</ele>
        <time>2018-09-11T09:36:54Z</time>
      </trkpt>
      <trkpt lat="45.99342" lon="4.90293">
        <ele>300</ele>
        <time>2018-09-11T09:36:56Z</time>
      </trkpt>
      <trkpt lat="45.99346" lon="4.90293">
        <ele>300</ele>
        <time>2018-09-11T09:36:57Z</time>
      </trkpt>
      <trkpt lat="45.99349" lon="4.90293">
        <ele>300</ele>
        <time>2018-09-11T09:36:58Z</time>
      </trkpt>
      <trkpt lat="45.99355" lon="4.90292">
        <ele>300</ele>
        <time>2018-09-11T09:36:59Z</time>
      </trkpt>
      <trkpt lat="45.9936" lon="4.90292">
        <ele>300</ele>
        <time>2018-09-11T09:37:00Z</time>
      </trkpt>
      <trkpt lat="45.99364" lon="4.90294">
        <ele>300</ele>
        <time>2018-09-11T09:37:01Z</time>
      </trkpt>
      <trkpt lat="45.99369" lon="4.90294">
        <ele>300</ele>
        <time>2018-09-11T09:37:02Z</time>
      </trkpt>
      <trkpt lat="45.99375" lon="4.90293">
        <ele>300</ele>
        <time>2018-09-11T09:37:03Z</time>
      </trkpt>
      <trkpt lat="45.99383" lon="4.90293">
        <ele>300</ele>
        <time>2018-09-11T09:37:05Z</time>
      </trkpt>
      <trkpt lat="45.99387" lon="4.90295">
        <ele>300</ele>
        <time>2018-09-11T09:37:06Z</time>
      </trkpt>
      <trkpt lat="45.99395" lon="4.90297">
        <ele>300</ele>
        <time>2018-09-11T09:37:08Z</time>
      </trkpt>
      <trkpt lat="45.99398" lon="4.90295">
        <ele>300</ele>
        <time>2018-09-11T09:37:09Z</time>
      </trkpt>
      <trkpt lat="45.99404" lon="4.90293">
        <ele>300</ele>
        <time>2018-09-11T09:37:10Z</time>
      </trkpt>
      <trkpt lat="45.99408" lon="4.90295">
        <ele>300</ele>
        <time>2018-09-11T09:37:11Z</time>
      </trkpt>
      <trkpt lat="45.99416" lon="4.90298">
        <ele>300</ele>
        <time>2018-09-11T09:37:13Z</time>
      </trkpt>
      <trkpt lat="45.9942" lon="4.90298">
        <ele>300</ele>
        <time>2018-09-11T09:37:14Z</time>
      </trkpt>
      <trkpt lat="45.99426" lon="4.90297">
        <ele>300</ele>
        <time>2018-09-11T09:37:15Z</time>
      </trkpt>
      <trkpt lat="45.99431" lon="4.90298">
        <ele>300</ele>
        <time>2018-09-11T09:37:16Z</time>
      </trkpt>
      <trkpt lat="45.99437" lon="4.90299">
        <ele>300</ele>
        <time>2018-09-11T09:37:17Z</time>
      </trkpt>
      <trkpt lat="45.99442" lon="4.903">
        <ele>300</ele>
        <time>2018-09-11T09:37:18Z</time>
      </trkpt>
      <trkpt lat="45.99447" lon="4.90302">
        <ele>300</ele>
        <time>2018-09-11T09:37:19Z</time>
      </trkpt>
      <trkpt lat="45.99452" lon="4.90303">
        <ele>300</ele>
        <time>2018-09-11T09:37:20Z</time>
      </trkpt>
      <trkpt lat="45.9946" lon="4.90303">
        <ele>300</ele>
        <time>2018-09-11T09:37:22Z</time>
      </trkpt>
      <trkpt lat="45.99464" lon="4.90304">
        <ele>300</ele>
        <time>2018-09-11T09:37:23Z</time>
      </trkpt>
      <trkpt lat="45.99471" lon="4.90307">
        <ele>300</ele>
        <time>2018-09-11T09:37:25Z</time>
      </trkpt>
      <trkpt lat="45.99475" lon="4.90308">
        <ele>300</ele>
        <time>2018-09-11T09:37:26Z</time>
      </trkpt>
      <trkpt lat="45.99482" lon="4.9031">
        <ele>300</ele>
        <time>2018-09-11T09:37:29Z</time>
      </trkpt>
      <trkpt lat="45.99489" lon="4.9031">
        <ele>300</ele>
        <time>2018-09-11T09:37:30Z</time>
      </trkpt>
      <trkpt lat="45.99497" lon="4.9031">
        <ele>300</ele>
        <time>2018-09-11T09:37:32Z</time>
      </trkpt>
      <trkpt lat="45.99501" lon="4.9031">
        <ele>300</ele>
        <time>2018-09-11T09:37:33Z</time>
      </trkpt>
      <trkpt lat="45.9951" lon="4.90311">
        <ele>300</ele>
        <time>2018-09-11T09:37:35Z</time>
      </trkpt>
      <trkpt lat="45.99515" lon="4.90311">
        <ele>300</ele>
        <time>2018-09-11T09:37:36Z</time>
      </trkpt>
      <trkpt lat="45.99523" lon="4.9031">
        <ele>300</ele>
        <time>2018-09-11T09:37:38Z</time>
      </trkpt>
      <trkpt lat="45.99527" lon="4.9031">
        <ele>300</ele>
        <time>2018-09-11T09:37:39Z</time>
      </trkpt>
      <trkpt lat="45.99534" lon="4.9031">
        <ele>300</ele>
        <time>2018-09-11T09:37:41Z</time>
      </trkpt>
      <trkpt lat="45.99536" lon="4.9031">
        <ele>300</ele>
        <time>2018-09-11T09:37:42Z</time>
      </trkpt>
      <trkpt lat="45.99541" lon="4.90312">
        <ele>300</ele>
        <time>2018-09-11T09:37:43Z</time>
      </trkpt>
      <trkpt lat="45.99545" lon="4.90313">
        <ele>300</ele>
        <time>2018-09-11T09:37:44Z</time>
      </trkpt>
      <trkpt lat="45.99553" lon="4.90315">
        <ele>300</ele>
        <time>2018-09-11T09:37:46Z</time>
      </trkpt>
      <trkpt lat="45.99558" lon="4.90317">
        <ele>301</ele>
        <time>2018-09-11T09:37:47Z</time>
      </trkpt>
      <trkpt lat="45.99564" lon="4.90321">
        <ele>301</ele>
        <time>2018-09-11T09:37:49Z</time>
      </trkpt>
      <trkpt lat="45.99569" lon="4.90321">
        <ele>301</ele>
        <time>2018-09-11T09:37:50Z</time>
      </trkpt>
      <trkpt lat="45.99576" lon="4.90321">
        <ele>301</ele>
        <time>2018-09-11T09:37:52Z</time>
      </trkpt>
      <trkpt lat="45.99578" lon="4.90321">
        <ele>301</ele>
        <time>2018-09-11T09:37:53Z</time>
      </trkpt>
      <trkpt lat="45.99585" lon="4.90322">
        <ele>301</ele>
        <time>2018-09-11T09:37:56Z</time>
      </trkpt>
      <trkpt lat="45.99588" lon="4.90323">
        <ele>301</ele>
        <time>2018-09-11T09:37:57Z</time>
      </trkpt>
      <trkpt lat="45.99594" lon="4.90324">
        <ele>301</ele>
        <time>2018-09-11T09:37:59Z</time>
      </trkpt>
      <trkpt lat="45.99597" lon="4.90324">
        <ele>301</ele>
        <time>2018-09-11T09:38:00Z</time>
      </trkpt>
      <trkpt lat="45.99607" lon="4.90326">
        <ele>301</ele>
        <time>2018-09-11T09:38:01Z</time>
      </trkpt>
      <trkpt lat="45.99616" lon="4.90328">
        <ele>302</ele>
        <time>2018-09-11T09:38:03Z</time>
      </trkpt>
      <trkpt lat="45.99621" lon="4.90329">
        <ele>302</ele>
        <time>2018-09-11T09:38:04Z</time>
      </trkpt>
      <trkpt lat="45.99629" lon="4.9033">
        <ele>302</ele>
        <time>2018-09-11T09:38:06Z</time>
      </trkpt>
      <trkpt lat="45.99634" lon="4.90329">
        <ele>302</ele>
        <time>2018-09-11T09:38:07Z</time>
      </trkpt>
      <trkpt lat="45.99641" lon="4.90329">
        <ele>302</ele>
        <time>2018-09-11T09:38:09Z</time>
      </trkpt>
      <trkpt lat="45.99645" lon="4.9033">
        <ele>302</ele>
        <time>2018-09-11T09:38:10Z</time>
      </trkpt>
      <trkpt lat="45.99652" lon="4.9033">
        <ele>302</ele>
        <time>2018-09-11T09:38:12Z</time>
      </trkpt>
      <trkpt lat="45.99656" lon="4.90331">
        <ele>302</ele>
        <time>2018-09-11T09:38:13Z</time>
      </trkpt>
      <trkpt lat="45.99664" lon="4.90332">
        <ele>302</ele>
        <time>2018-09-11T09:38:16Z</time>
      </trkpt>
      <trkpt lat="45.99666" lon="4.90331">
        <ele>302</ele>
        <time>2018-09-11T09:38:17Z</time>
      </trkpt>
      <trkpt lat="45.99673" lon="4.90328">
        <ele>303</ele>
        <time>2018-09-11T09:38:20Z</time>
      </trkpt>
      <trkpt lat="45.99675" lon="4.90325">
        <ele>303</ele>
        <time>2018-09-11T09:38:21Z</time>
      </trkpt>
      <trkpt lat="45.99677" lon="4.90321">
        <ele>303</ele>
        <time>2018-09-11T09:38:22Z</time>
      </trkpt>
      <trkpt lat="45.99679" lon="4.90309">
        <ele>304</ele>
        <time>2018-09-11T09:38:23Z</time>
      </trkpt>
      <trkpt lat="45.99679" lon="4.90299">
        <ele>304</ele>
        <time>2018-09-11T09:38:26Z</time>
      </trkpt>
      <trkpt lat="45.9968" lon="4.90287">
        <ele>304</ele>
        <time>2018-09-11T09:38:27Z</time>
      </trkpt>
      <trkpt lat="45.99681" lon="4.90275">
        <ele>305</ele>
        <time>2018-09-11T09:38:29Z</time>
      </trkpt>
      <trkpt lat="45.99681" lon="4.90269">
        <ele>305</ele>
        <time>2018-09-11T09:38:30Z</time>
      </trkpt>
      <trkpt lat="45.99682" lon="4.90262">
        <ele>305</ele>
        <time>2018-09-11T09:38:31Z</time>
      </trkpt>
      <trkpt lat="45.99683" lon="4.90255">
        <ele>304</ele>
        <time>2018-09-11T09:38:32Z</time>
      </trkpt>
      <trkpt lat="45.99682" lon="4.90246">
        <ele>304</ele>
        <time>2018-09-11T09:38:33Z</time>
      </trkpt>
      <trkpt lat="45.99681" lon="4.9024">
        <ele>304</ele>
        <time>2018-09-11T09:38:34Z</time>
      </trkpt>
      <trkpt lat="45.99679" lon="4.90234">
        <ele>304</ele>
        <time>2018-09-11T09:38:35Z</time>
      </trkpt>
      <trkpt lat="45.99678" lon="4.90227">
        <ele>304</ele>
        <time>2018-09-11T09:38:36Z</time>
      </trkpt>
      <trkpt lat="45.99676" lon="4.90221">
        <ele>303</ele>
        <time>2018-09-11T09:38:37Z</time>
      </trkpt>
      <trkpt lat="45.99675" lon="4.90214">
        <ele>303</ele>
        <time>2018-09-11T09:38:38Z</time>
      </trkpt>
      <trkpt lat="45.99673" lon="4.90207">
        <ele>303</ele>
        <time>2018-09-11T09:38:39Z</time>
      </trkpt>
      <trkpt lat="45.9967" lon="4.902">
        <ele>303</ele>
        <time>2018-09-11T09:38:40Z</time>
      </trkpt>
      <trkpt lat="45.99668" lon="4.90191">
        <ele>303</ele>
        <time>2018-09-11T09:38:41Z</time>
      </trkpt>
      <trkpt lat="45.99666" lon="4.90182">
        <ele>301</ele>
        <time>2018-09-11T09:38:42Z</time>
      </trkpt>
      <trkpt lat="45.99663" lon="4.90173">
        <ele>301</ele>
        <time>2018-09-11T09:38:43Z</time>
      </trkpt>
      <trkpt lat="45.99661" lon="4.90162">
        <ele>300</ele>
        <time>2018-09-11T09:38:44Z</time>
      </trkpt>
      <trkpt lat="45.99659" lon="4.9015">
        <ele>300</ele>
        <time>2018-09-11T09:38:45Z</time>
      </trkpt>
      <trkpt lat="45.99656" lon="4.90139">
        <ele>300</ele>
        <time>2018-09-11T09:38:46Z</time>
      </trkpt>
      <trkpt lat="45.99653" lon="4.90128">
        <ele>299</ele>
        <time>2018-09-11T09:38:47Z</time>
      </trkpt>
      <trkpt lat="45.99651" lon="4.90116">
        <ele>299</ele>
        <time>2018-09-11T09:38:48Z</time>
      </trkpt>
      <trkpt lat="45.99648" lon="4.90105">
        <ele>299</ele>
        <time>2018-09-11T09:38:49Z</time>
      </trkpt>
      <trkpt lat="45.99641" lon="4.90092">
        <ele>299</ele>
        <time>2018-09-11T09:38:50Z</time>
      </trkpt>
      <trkpt lat="45.99637" lon="4.9008">
        <ele>297</ele>
        <time>2018-09-11T09:38:51Z</time>
      </trkpt>
      <trkpt lat="45.99632" lon="4.90069">
        <ele>297</ele>
        <time>2018-09-11T09:38:52Z</time>
      </trkpt>
      <trkpt lat="45.99627" lon="4.90059">
        <ele>297</ele>
        <time>2018-09-11T09:38:53Z</time>
      </trkpt>
      <trkpt lat="45.99624" lon="4.90047">
        <ele>297</ele>
        <time>2018-09-11T09:38:54Z</time>
      </trkpt>
      <trkpt lat="45.9962" lon="4.90036">
        <ele>296</ele>
        <time>2018-09-11T09:38:55Z</time>
      </trkpt>
      <trkpt lat="45.99617" lon="4.90024">
        <ele>296</ele>
        <time>2018-09-11T09:38:56Z</time>
      </trkpt>
      <trkpt lat="45.99614" lon="4.90013">
        <ele>296</ele>
        <time>2018-09-11T09:38:57Z</time>
      </trkpt>
      <trkpt lat="45.99611" lon="4.90003">
        <ele>296</ele>
        <time>2018-09-11T09:38:58Z</time>
      </trkpt>
      <trkpt lat="45.9961" lon="4.89992">
        <ele>294</ele>
        <time>2018-09-11T09:38:59Z</time>
      </trkpt>
      <trkpt lat="45.99607" lon="4.89982">
        <ele>294</ele>
        <time>2018-09-11T09:39:00Z</time>
      </trkpt>
      <trkpt lat="45.99607" lon="4.89969">
        <ele>294</ele>
        <time>2018-09-11T09:39:01Z</time>
      </trkpt>
      <trkpt lat="45.99606" lon="4.89958">
        <ele>294</ele>
        <time>2018-09-11T09:39:02Z</time>
      </trkpt>
      <trkpt lat="45.99607" lon="4.89946">
        <ele>294</ele>
        <time>2018-09-11T09:39:03Z</time>
      </trkpt>
      <trkpt lat="45.99609" lon="4.89936">
        <ele>293</ele>
        <time>2018-09-11T09:39:04Z</time>
      </trkpt>
      <trkpt lat="45.99609" lon="4.89927">
        <ele>293</ele>
        <time>2018-09-11T09:39:05Z</time>
      </trkpt>
      <trkpt lat="45.99609" lon="4.89917">
        <ele>293</ele>
        <time>2018-09-11T09:39:06Z</time>
      </trkpt>
      <trkpt lat="45.99609" lon="4.89906">
        <ele>292</ele>
        <time>2018-09-11T09:39:07Z</time>
      </trkpt>
      <trkpt lat="45.99609" lon="4.89896">
        <ele>292</ele>
        <time>2018-09-11T09:39:08Z</time>
      </trkpt>
      <trkpt lat="45.99608" lon="4.89885">
        <ele>292</ele>
        <time>2018-09-11T09:39:09Z</time>
      </trkpt>
      <trkpt lat="45.99608" lon="4.89876">
        <ele>292</ele>
        <time>2018-09-11T09:39:10Z</time>
      </trkpt>
      <trkpt lat="45.99608" lon="4.89865">
        <ele>293</ele>
        <time>2018-09-11T09:39:11Z</time>
      </trkpt>
      <trkpt lat="45.99609" lon="4.89855">
        <ele>293</ele>
        <time>2018-09-11T09:39:12Z</time>
      </trkpt>
      <trkpt lat="45.99609" lon="4.89844">
        <ele>293</ele>
        <time>2018-09-11T09:39:13Z</time>
      </trkpt>
      <trkpt lat="45.99609" lon="4.89835">
        <ele>293</ele>
        <time>2018-09-11T09:39:14Z</time>
      </trkpt>
      <trkpt lat="45.99607" lon="4.89827">
        <ele>292</ele>
        <time>2018-09-11T09:39:15Z</time>
      </trkpt>
      <trkpt lat="45.99608" lon="4.89817">
        <ele>292</ele>
        <time>2018-09-11T09:39:16Z</time>
      </trkpt>
      <trkpt lat="45.99606" lon="4.89808">
        <ele>292</ele>
        <time>2018-09-11T09:39:17Z</time>
      </trkpt>
      <trkpt lat="45.99606" lon="4.89798">
        <ele>292</ele>
        <time>2018-09-11T09:39:18Z</time>
      </trkpt>
      <trkpt lat="45.99606" lon="4.89789">
        <ele>292</ele>
        <time>2018-09-11T09:39:19Z</time>
      </trkpt>
      <trkpt lat="45.99607" lon="4.8978">
        <ele>292</ele>
        <time>2018-09-11T09:39:20Z</time>
      </trkpt>
      <trkpt lat="45.99606" lon="4.89771">
        <ele>292</ele>
        <time>2018-09-11T09:39:21Z</time>
      </trkpt>
      <trkpt lat="45.99607" lon="4.89762">
        <ele>292</ele>
        <time>2018-09-11T09:39:22Z</time>
      </trkpt>
      <trkpt lat="45.99606" lon="4.89754">
        <ele>292</ele>
        <time>2018-09-11T09:39:23Z</time>
      </trkpt>
      <trkpt lat="45.99605" lon="4.89742">
        <ele>292</ele>
        <time>2018-09-11T09:39:24Z</time>
      </trkpt>
      <trkpt lat="45.99605" lon="4.89734">
        <ele>292</ele>
        <time>2018-09-11T09:39:25Z</time>
      </trkpt>
      <trkpt lat="45.99607" lon="4.89725">
        <ele>292</ele>
        <time>2018-09-11T09:39:26Z</time>
      </trkpt>
      <trkpt lat="45.99608" lon="4.89716">
        <ele>292</ele>
        <time>2018-09-11T09:39:27Z</time>
      </trkpt>
      <trkpt lat="45.99608" lon="4.89709">
        <ele>291</ele>
        <time>2018-09-11T09:39:28Z</time>
      </trkpt>
      <trkpt lat="45.99609" lon="4.89701">
        <ele>291</ele>
        <time>2018-09-11T09:39:29Z</time>
      </trkpt>
      <trkpt lat="45.99609" lon="4.89693">
        <ele>291</ele>
        <time>2018-09-11T09:39:30Z</time>
      </trkpt>
      <trkpt lat="45.9961" lon="4.89685">
        <ele>291</ele>
        <time>2018-09-11T09:39:31Z</time>
      </trkpt>
      <trkpt lat="45.99611" lon="4.89679">
        <ele>291</ele>
        <time>2018-09-11T09:39:32Z</time>
      </trkpt>
      <trkpt lat="45.99611" lon="4.89669">
        <ele>291</ele>
        <time>2018-09-11T09:39:33Z</time>
      </trkpt>
      <trkpt lat="45.99611" lon="4.8966">
        <ele>291</ele>
        <time>2018-09-11T09:39:34Z</time>
      </trkpt>
      <trkpt lat="45.99611" lon="4.89653">
        <ele>291</ele>
        <time>2018-09-11T09:39:35Z</time>
      </trkpt>
      <trkpt lat="45.99611" lon="4.89646">
        <ele>291</ele>
        <time>2018-09-11T09:39:36Z</time>
      </trkpt>
      <trkpt lat="45.99611" lon="4.8964">
        <ele>291</ele>
        <time>2018-09-11T09:39:37Z</time>
      </trkpt>
      <trkpt lat="45.99611" lon="4.89631">
        <ele>291</ele>
        <time>2018-09-11T09:39:38Z</time>
      </trkpt>
      <trkpt lat="45.9961" lon="4.89623">
        <ele>291</ele>
        <time>2018-09-11T09:39:39Z</time>
      </trkpt>
      <trkpt lat="45.99609" lon="4.89615">
        <ele>291</ele>
        <time>2018-09-11T09:39:40Z</time>
      </trkpt>
      <trkpt lat="45.99609" lon="4.89606">
        <ele>291</ele>
        <time>2018-09-11T09:39:41Z</time>
      </trkpt>
      <trkpt lat="45.9961" lon="4.89597">
        <ele>291</ele>
        <time>2018-09-11T09:39:42Z</time>
      </trkpt>
      <trkpt lat="45.99609" lon="4.89589">
        <ele>292</ele>
        <time>2018-09-11T09:39:43Z</time>
      </trkpt>
      <trkpt lat="45.99607" lon="4.89582">
        <ele>291</ele>
        <time>2018-09-11T09:39:44Z</time>
      </trkpt>
      <trkpt lat="45.99605" lon="4.89573">
        <ele>291</ele>
        <time>2018-09-11T09:39:45Z</time>
      </trkpt>
      <trkpt lat="45.99605" lon="4.89564">
        <ele>291</ele>
        <time>2018-09-11T09:39:46Z</time>
      </trkpt>
      <trkpt lat="45.99603" lon="4.89554">
        <ele>291</ele>
        <time>2018-09-11T09:39:47Z</time>
      </trkpt>
      <trkpt lat="45.99604" lon="4.89545">
        <ele>291</ele>
        <time>2018-09-11T09:39:48Z</time>
      </trkpt>
      <trkpt lat="45.99603" lon="4.89537">
        <ele>291</ele>
        <time>2018-09-11T09:39:49Z</time>
      </trkpt>
      <trkpt lat="45.99601" lon="4.89529">
        <ele>291</ele>
        <time>2018-09-11T09:39:50Z</time>
      </trkpt>
      <trkpt lat="45.996" lon="4.8952">
        <ele>291</ele>
        <time>2018-09-11T09:39:51Z</time>
      </trkpt>
      <trkpt lat="45.99599" lon="4.89512">
        <ele>290</ele>
        <time>2018-09-11T09:39:52Z</time>
      </trkpt>
      <trkpt lat="45.99599" lon="4.89502">
        <ele>290</ele>
        <time>2018-09-11T09:39:53Z</time>
      </trkpt>
      <trkpt lat="45.99598" lon="4.89492">
        <ele>290</ele>
        <time>2018-09-11T09:39:54Z</time>
      </trkpt>
      <trkpt lat="45.99598" lon="4.89483">
        <ele>290</ele>
        <time>2018-09-11T09:39:55Z</time>
      </trkpt>
      <trkpt lat="45.99598" lon="4.89475">
        <ele>290</ele>
        <time>2018-09-11T09:39:56Z</time>
      </trkpt>
      <trkpt lat="45.99597" lon="4.89466">
        <ele>290</ele>
        <time>2018-09-11T09:39:57Z</time>
      </trkpt>
      <trkpt lat="45.99597" lon="4.89459">
        <ele>290</ele>
        <time>2018-09-11T09:39:58Z</time>
      </trkpt>
      <trkpt lat="45.99596" lon="4.89451">
        <ele>290</ele>
        <time>2018-09-11T09:39:59Z</time>
      </trkpt>
      <trkpt lat="45.99596" lon="4.89442">
        <ele>290</ele>
        <time>2018-09-11T09:40:00Z</time>
      </trkpt>
      <trkpt lat="45.99596" lon="4.89433">
        <ele>290</ele>
        <time>2018-09-11T09:40:01Z</time>
      </trkpt>
      <trkpt lat="45.99596" lon="4.89424">
        <ele>290</ele>
        <time>2018-09-11T09:40:02Z</time>
      </trkpt>
      <trkpt lat="45.99596" lon="4.89415">
        <ele>290</ele>
        <time>2018-09-11T09:40:03Z</time>
      </trkpt>
      <trkpt lat="45.99596" lon="4.89408">
        <ele>290</ele>
        <time>2018-09-11T09:40:04Z</time>
      </trkpt>
      <trkpt lat="45.99595" lon="4.89401">
        <ele>290</ele>
        <time>2018-09-11T09:40:05Z</time>
      </trkpt>
      <trkpt lat="45.99593" lon="4.89393">
        <ele>290</ele>
        <time>2018-09-11T09:40:06Z</time>
      </trkpt>
      <trkpt lat="45.99592" lon="4.89386">
        <ele>290</ele>
        <time>2018-09-11T09:40:07Z</time>
      </trkpt>
      <trkpt lat="45.99591" lon="4.89379">
        <ele>290</ele>
        <time>2018-09-11T09:40:08Z</time>
      </trkpt>
      <trkpt lat="45.99591" lon="4.89371">
        <ele>289</ele>
        <time>2018-09-11T09:40:09Z</time>
      </trkpt>
      <trkpt lat="45.99591" lon="4.89364">
        <ele>289</ele>
        <time>2018-09-11T09:40:10Z</time>
      </trkpt>
      <trkpt lat="45.99591" lon="4.89355">
        <ele>289</ele>
        <time>2018-09-11T09:40:11Z</time>
      </trkpt>
      <trkpt lat="45.9959" lon="4.89346">
        <ele>289</ele>
        <time>2018-09-11T09:40:12Z</time>
      </trkpt>
      <trkpt lat="45.99591" lon="4.89339">
        <ele>289</ele>
        <time>2018-09-11T09:40:13Z</time>
      </trkpt>
      <trkpt lat="45.99591" lon="4.89331">
        <ele>289</ele>
        <time>2018-09-11T09:40:14Z</time>
      </trkpt>
      <trkpt lat="45.99588" lon="4.89318">
        <ele>289</ele>
        <time>2018-09-11T09:40:15Z</time>
      </trkpt>
      <trkpt lat="45.99588" lon="4.8931">
        <ele>289</ele>
        <time>2018-09-11T09:40:16Z</time>
      </trkpt>
      <trkpt lat="45.99589" lon="4.89301">
        <ele>289</ele>
        <time>2018-09-11T09:40:17Z</time>
      </trkpt>
      <trkpt lat="45.99587" lon="4.89291">
        <ele>289</ele>
        <time>2018-09-11T09:40:18Z</time>
      </trkpt>
      <trkpt lat="45.99586" lon="4.89281">
        <ele>289</ele>
        <time>2018-09-11T09:40:19Z</time>
      </trkpt>
      <trkpt lat="45.99583" lon="4.89271">
        <ele>288</ele>
        <time>2018-09-11T09:40:20Z</time>
      </trkpt>
      <trkpt lat="45.99582" lon="4.89261">
        <ele>288</ele>
        <time>2018-09-11T09:40:21Z</time>
      </trkpt>
      <trkpt lat="45.99583" lon="4.89251">
        <ele>288</ele>
        <time>2018-09-11T09:40:22Z</time>
      </trkpt>
      <trkpt lat="45.99582" lon="4.89242">
        <ele>288</ele>
        <time>2018-09-11T09:40:23Z</time>
      </trkpt>
      <trkpt lat="45.99581" lon="4.89233">
        <ele>288</ele>
        <time>2018-09-11T09:40:24Z</time>
      </trkpt>
      <trkpt lat="45.9958" lon="4.89223">
        <ele>288</ele>
        <time>2018-09-11T09:40:25Z</time>
      </trkpt>
      <trkpt lat="45.99581" lon="4.89214">
        <ele>288</ele>
        <time>2018-09-11T09:40:26Z</time>
      </trkpt>
      <trkpt lat="45.9958" lon="4.89205">
        <ele>288</ele>
        <time>2018-09-11T09:40:27Z</time>
      </trkpt>
      <trkpt lat="45.99579" lon="4.89196">
        <ele>288</ele>
        <time>2018-09-11T09:40:28Z</time>
      </trkpt>
      <trkpt lat="45.99581" lon="4.89188">
        <ele>288</ele>
        <time>2018-09-11T09:40:29Z</time>
      </trkpt>
      <trkpt lat="45.99581" lon="4.8918">
        <ele>288</ele>
        <time>2018-09-11T09:40:30Z</time>
      </trkpt>
      <trkpt lat="45.99581" lon="4.89171">
        <ele>288</ele>
        <time>2018-09-11T09:40:31Z</time>
      </trkpt>
      <trkpt lat="45.99581" lon="4.89163">
        <ele>288</ele>
        <time>2018-09-11T09:40:32Z</time>
      </trkpt>
      <trkpt lat="45.9958" lon="4.89155">
        <ele>288</ele>
        <time>2018-09-11T09:40:33Z</time>
      </trkpt>
      <trkpt lat="45.99582" lon="4.89147">
        <ele>289</ele>
        <time>2018-09-11T09:40:34Z</time>
      </trkpt>
      <trkpt lat="45.99582" lon="4.89139">
        <ele>289</ele>
        <time>2018-09-11T09:40:35Z</time>
      </trkpt>
      <trkpt lat="45.99579" lon="4.89129">
        <ele>289</ele>
        <time>2018-09-11T09:40:36Z</time>
      </trkpt>
      <trkpt lat="45.99579" lon="4.89121">
        <ele>289</ele>
        <time>2018-09-11T09:40:37Z</time>
      </trkpt>
      <trkpt lat="45.99579" lon="4.89113">
        <ele>289</ele>
        <time>2018-09-11T09:40:38Z</time>
      </trkpt>
      <trkpt lat="45.99579" lon="4.89104">
        <ele>289</ele>
        <time>2018-09-11T09:40:39Z</time>
      </trkpt>
      <trkpt lat="45.99579" lon="4.89096">
        <ele>289</ele>
        <time>2018-09-11T09:40:40Z</time>
      </trkpt>
      <trkpt lat="45.9958" lon="4.89087">
        <ele>289</ele>
        <time>2018-09-11T09:40:41Z</time>
      </trkpt>
      <trkpt lat="45.99581" lon="4.89077">
        <ele>289</ele>
        <time>2018-09-11T09:40:42Z</time>
      </trkpt>
      <trkpt lat="45.99581" lon="4.89067">
        <ele>289</ele>
        <time>2018-09-11T09:40:43Z</time>
      </trkpt>
      <trkpt lat="45.99582" lon="4.89058">
        <ele>289</ele>
        <time>2018-09-11T09:40:44Z</time>
      </trkpt>
      <trkpt lat="45.99583" lon="4.89049">
        <ele>288</ele>
        <time>2018-09-11T09:40:45Z</time>
      </trkpt>
      <trkpt lat="45.99584" lon="4.8904">
        <ele>289</ele>
        <time>2018-09-11T09:40:46Z</time>
      </trkpt>
      <trkpt lat="45.99585" lon="4.89028">
        <ele>289</ele>
        <time>2018-09-11T09:40:47Z</time>
      </trkpt>
      <trkpt lat="45.99585" lon="4.89018">
        <ele>288</ele>
        <time>2018-09-11T09:40:48Z</time>
      </trkpt>
      <trkpt lat="45.99587" lon="4.89009">
        <ele>288</ele>
        <time>2018-09-11T09:40:49Z</time>
      </trkpt>
      <trkpt lat="45.99587" lon="4.88999">
        <ele>288</ele>
        <time>2018-09-11T09:40:50Z</time>
      </trkpt>
      <trkpt lat="45.99588" lon="4.88988">
        <ele>288</ele>
        <time>2018-09-11T09:40:51Z</time>
      </trkpt>
      <trkpt lat="45.99587" lon="4.88977">
        <ele>288</ele>
        <time>2018-09-11T09:40:52Z</time>
      </trkpt>
      <trkpt lat="45.99587" lon="4.8897">
        <ele>288</ele>
        <time>2018-09-11T09:40:53Z</time>
      </trkpt>
      <trkpt lat="45.99587" lon="4.88962">
        <ele>288</ele>
        <time>2018-09-11T09:40:54Z</time>
      </trkpt>
      <trkpt lat="45.99587" lon="4.88953">
        <ele>287</ele>
        <time>2018-09-11T09:40:55Z</time>
      </trkpt>
      <trkpt lat="45.99588" lon="4.88946">
        <ele>287</ele>
        <time>2018-09-11T09:40:56Z</time>
      </trkpt>
      <trkpt lat="45.99588" lon="4.88938">
        <ele>287</ele>
        <time>2018-09-11T09:40:57Z</time>
      </trkpt>
      <trkpt lat="45.99587" lon="4.88928">
        <ele>287</ele>
        <time>2018-09-11T09:40:58Z</time>
      </trkpt>
      <trkpt lat="45.99587" lon="4.88919">
        <ele>287</ele>
        <time>2018-09-11T09:40:59Z</time>
      </trkpt>
      <trkpt lat="45.99586" lon="4.8891">
        <ele>287</ele>
        <time>2018-09-11T09:41:00Z</time>
      </trkpt>
      <trkpt lat="45.99584" lon="4.88901">
        <ele>287</ele>
        <time>2018-09-11T09:41:01Z</time>
      </trkpt>
      <trkpt lat="45.99583" lon="4.88893">
        <ele>287</ele>
        <time>2018-09-11T09:41:02Z</time>
      </trkpt>
      <trkpt lat="45.99582" lon="4.88885">
        <ele>287</ele>
        <time>2018-09-11T09:41:03Z</time>
      </trkpt>
      <trkpt lat="45.99581" lon="4.88876">
        <ele>287</ele>
        <time>2018-09-11T09:41:04Z</time>
      </trkpt>
      <trkpt lat="45.9958" lon="4.88869">
        <ele>287</ele>
        <time>2018-09-11T09:41:05Z</time>
      </trkpt>
      <trkpt lat="45.99578" lon="4.88858">
        <ele>287</ele>
        <time>2018-09-11T09:41:06Z</time>
      </trkpt>
      <trkpt lat="45.99577" lon="4.88848">
        <ele>287</ele>
        <time>2018-09-11T09:41:07Z</time>
      </trkpt>
      <trkpt lat="45.99575" lon="4.88837">
        <ele>287</ele>
        <time>2018-09-11T09:41:08Z</time>
      </trkpt>
      <trkpt lat="45.99573" lon="4.88828">
        <ele>287</ele>
        <time>2018-09-11T09:41:09Z</time>
      </trkpt>
      <trkpt lat="45.99571" lon="4.88818">
        <ele>287</ele>
        <time>2018-09-11T09:41:10Z</time>
      </trkpt>
      <trkpt lat="45.9957" lon="4.88808">
        <ele>287</ele>
        <time>2018-09-11T09:41:11Z</time>
      </trkpt>
      <trkpt lat="45.99568" lon="4.88798">
        <ele>287</ele>
        <time>2018-09-11T09:41:12Z</time>
      </trkpt>
      <trkpt lat="45.99566" lon="4.88787">
        <ele>287</ele>
        <time>2018-09-11T09:41:13Z</time>
      </trkpt>
      <trkpt lat="45.99566" lon="4.88778">
        <ele>287</ele>
        <time>2018-09-11T09:41:14Z</time>
      </trkpt>
      <trkpt lat="45.99566" lon="4.88769">
        <ele>287</ele>
        <time>2018-09-11T09:41:15Z</time>
      </trkpt>
      <trkpt lat="45.99564" lon="4.8876">
        <ele>287</ele>
        <time>2018-09-11T09:41:16Z</time>
      </trkpt>
      <trkpt lat="45.99563" lon="4.88752">
        <ele>287</ele>
        <time>2018-09-11T09:41:17Z</time>
      </trkpt>
      <trkpt lat="45.99562" lon="4.88744">
        <ele>287</ele>
        <time>2018-09-11T09:41:18Z</time>
      </trkpt>
      <trkpt lat="45.99561" lon="4.88735">
        <ele>287</ele>
        <time>2018-09-11T09:41:19Z</time>
      </trkpt>
      <trkpt lat="45.9956" lon="4.88728">
        <ele>286</ele>
        <time>2018-09-11T09:41:20Z</time>
      </trkpt>
      <trkpt lat="45.99559" lon="4.88719">
        <ele>286</ele>
        <time>2018-09-11T09:41:21Z</time>
      </trkpt>
      <trkpt lat="45.99558" lon="4.88711">
        <ele>286</ele>
        <time>2018-09-11T09:41:22Z</time>
      </trkpt>
      <trkpt lat="45.99557" lon="4.88702">
        <ele>286</ele>
        <time>2018-09-11T09:41:23Z</time>
      </trkpt>
      <trkpt lat="45.99557" lon="4.88694">
        <ele>286</ele>
        <time>2018-09-11T09:41:24Z</time>
      </trkpt>
      <trkpt lat="45.99556" lon="4.88684">
        <ele>286</ele>
        <time>2018-09-11T09:41:25Z</time>
      </trkpt>
      <trkpt lat="45.99556" lon="4.88675">
        <ele>286</ele>
        <time>2018-09-11T09:41:26Z</time>
      </trkpt>
      <trkpt lat="45.99555" lon="4.88664">
        <ele>286</ele>
        <time>2018-09-11T09:41:27Z</time>
      </trkpt>
      <trkpt lat="45.99554" lon="4.88655">
        <ele>286</ele>
        <time>2018-09-11T09:41:28Z</time>
      </trkpt>
      <trkpt lat="45.99553" lon="4.88646">
        <ele>286</ele>
        <time>2018-09-11T09:41:29Z</time>
      </trkpt>
      <trkpt lat="45.99553" lon="4.88636">
        <ele>286</ele>
        <time>2018-09-11T09:41:30Z</time>
      </trkpt>
      <trkpt lat="45.99552" lon="4.88626">
        <ele>286</ele>
        <time>2018-09-11T09:41:31Z</time>
      </trkpt>
      <trkpt lat="45.99551" lon="4.88616">
        <ele>286</ele>
        <time>2018-09-11T09:41:32Z</time>
      </trkpt>
      <trkpt lat="45.99549" lon="4.88607">
        <ele>286</ele>
        <time>2018-09-11T09:41:33Z</time>
      </trkpt>
      <trkpt lat="45.99547" lon="4.88596">
        <ele>286</ele>
        <time>2018-09-11T09:41:34Z</time>
      </trkpt>
      <trkpt lat="45.99545" lon="4.88587">
        <ele>286</ele>
        <time>2018-09-11T09:41:35Z</time>
      </trkpt>
      <trkpt lat="45.99544" lon="4.88578">
        <ele>286</ele>
        <time>2018-09-11T09:41:36Z</time>
      </trkpt>
      <trkpt lat="45.99541" lon="4.88569">
        <ele>285</ele>
        <time>2018-09-11T09:41:37Z</time>
      </trkpt>
      <trkpt lat="45.99538" lon="4.8856">
        <ele>285</ele>
        <time>2018-09-11T09:41:38Z</time>
      </trkpt>
      <trkpt lat="45.99535" lon="4.88552">
        <ele>285</ele>
        <time>2018-09-11T09:41:39Z</time>
      </trkpt>
      <trkpt lat="45.99533" lon="4.88544">
        <ele>285</ele>
        <time>2018-09-11T09:41:40Z</time>
      </trkpt>
      <trkpt lat="45.9953" lon="4.88536">
        <ele>285</ele>
        <time>2018-09-11T09:41:41Z</time>
      </trkpt>
      <trkpt lat="45.99526" lon="4.88527">
        <ele>285</ele>
        <time>2018-09-11T09:41:42Z</time>
      </trkpt>
      <trkpt lat="45.99522" lon="4.88521">
        <ele>285</ele>
        <time>2018-09-11T09:41:43Z</time>
      </trkpt>
      <trkpt lat="45.99519" lon="4.88514">
        <ele>285</ele>
        <time>2018-09-11T09:41:44Z</time>
      </trkpt>
      <trkpt lat="45.99515" lon="4.88507">
        <ele>285</ele>
        <time>2018-09-11T09:41:45Z</time>
      </trkpt>
      <trkpt lat="45.99512" lon="4.885">
        <ele>284</ele>
        <time>2018-09-11T09:41:46Z</time>
      </trkpt>
      <trkpt lat="45.99508" lon="4.88492">
        <ele>284</ele>
        <time>2018-09-11T09:41:47Z</time>
      </trkpt>
      <trkpt lat="45.99504" lon="4.88485">
        <ele>284</ele>
        <time>2018-09-11T09:41:48Z</time>
      </trkpt>
      <trkpt lat="45.995" lon="4.88477">
        <ele>284</ele>
        <time>2018-09-11T09:41:49Z</time>
      </trkpt>
      <trkpt lat="45.99497" lon="4.88471">
        <ele>284</ele>
        <time>2018-09-11T09:41:50Z</time>
      </trkpt>
      <trkpt lat="45.99494" lon="4.88463">
        <ele>284</ele>
        <time>2018-09-11T09:41:51Z</time>
      </trkpt>
      <trkpt lat="45.99491" lon="4.88455">
        <ele>284</ele>
        <time>2018-09-11T09:41:52Z</time>
      </trkpt>
      <trkpt lat="45.99486" lon="4.88448">
        <ele>284</ele>
        <time>2018-09-11T09:41:53Z</time>
      </trkpt>
      <trkpt lat="45.99482" lon="4.88441">
        <ele>284</ele>
        <time>2018-09-11T09:41:54Z</time>
      </trkpt>
      <trkpt lat="45.99478" lon="4.88435">
        <ele>284</ele>
        <time>2018-09-11T09:41:55Z</time>
      </trkpt>
      <trkpt lat="45.99473" lon="4.8843">
        <ele>284</ele>
        <time>2018-09-11T09:41:56Z</time>
      </trkpt>
      <trkpt lat="45.99467" lon="4.88425">
        <ele>284</ele>
        <time>2018-09-11T09:41:57Z</time>
      </trkpt>
      <trkpt lat="45.99462" lon="4.88419">
        <ele>284</ele>
        <time>2018-09-11T09:41:58Z</time>
      </trkpt>
      <trkpt lat="45.99455" lon="4.88415">
        <ele>283</ele>
        <time>2018-09-11T09:41:59Z</time>
      </trkpt>
      <trkpt lat="45.99449" lon="4.88409">
        <ele>283</ele>
        <time>2018-09-11T09:42:00Z</time>
      </trkpt>
      <trkpt lat="45.99443" lon="4.88405">
        <ele>283</ele>
        <time>2018-09-11T09:42:01Z</time>
      </trkpt>
      <trkpt lat="45.99435" lon="4.884">
        <ele>283</ele>
        <time>2018-09-11T09:42:02Z</time>
      </trkpt>
      <trkpt lat="45.99433" lon="4.88393">
        <ele>283</ele>
        <time>2018-09-11T09:42:03Z</time>
      </trkpt>
      <trkpt lat="45.99428" lon="4.88386">
        <ele>283</ele>
        <time>2018-09-11T09:42:04Z</time>
      </trkpt>
      <trkpt lat="45.99424" lon="4.88377">
        <ele>283</ele>
        <time>2018-09-11T09:42:05Z</time>
      </trkpt>
      <trkpt lat="45.99421" lon="4.88369">
        <ele>283</ele>
        <time>2018-09-11T09:42:06Z</time>
      </trkpt>
      <trkpt lat="45.99417" lon="4.88362">
        <ele>283</ele>
        <time>2018-09-11T09:42:07Z</time>
      </trkpt>
      <trkpt lat="45.99415" lon="4.88354">
        <ele>282</ele>
        <time>2018-09-11T09:42:08Z</time>
      </trkpt>
      <trkpt lat="45.99411" lon="4.88346">
        <ele>282</ele>
        <time>2018-09-11T09:42:09Z</time>
      </trkpt>
      <trkpt lat="45.9941" lon="4.88338">
        <ele>282</ele>
        <time>2018-09-11T09:42:10Z</time>
      </trkpt>
      <trkpt lat="45.99406" lon="4.8833">
        <ele>283</ele>
        <time>2018-09-11T09:42:11Z</time>
      </trkpt>
      <trkpt lat="45.99406" lon="4.88323">
        <ele>283</ele>
        <time>2018-09-11T09:42:12Z</time>
      </trkpt>
      <trkpt lat="45.99403" lon="4.88316">
        <ele>283</ele>
        <time>2018-09-11T09:42:13Z</time>
      </trkpt>
      <trkpt lat="45.99403" lon="4.88309">
        <ele>283</ele>
        <time>2018-09-11T09:42:14Z</time>
      </trkpt>
      <trkpt lat="45.994" lon="4.88302">
        <ele>284</ele>
        <time>2018-09-11T09:42:15Z</time>
      </trkpt>
      <trkpt lat="45.99397" lon="4.88294">
        <ele>284</ele>
        <time>2018-09-11T09:42:16Z</time>
      </trkpt>
      <trkpt lat="45.99395" lon="4.88286">
        <ele>284</ele>
        <time>2018-09-11T09:42:17Z</time>
      </trkpt>
      <trkpt lat="45.99392" lon="4.88278">
        <ele>284</ele>
        <time>2018-09-11T09:42:18Z</time>
      </trkpt>
      <trkpt lat="45.9939" lon="4.88272">
        <ele>285</ele>
        <time>2018-09-11T09:42:19Z</time>
      </trkpt>
      <trkpt lat="45.99388" lon="4.88265">
        <ele>285</ele>
        <time>2018-09-11T09:42:20Z</time>
      </trkpt>
      <trkpt lat="45.99385" lon="4.88258">
        <ele>285</ele>
        <time>2018-09-11T09:42:21Z</time>
      </trkpt>
      <trkpt lat="45.9938" lon="4.88251">
        <ele>285</ele>
        <time>2018-09-11T09:42:22Z</time>
      </trkpt>
      <trkpt lat="45.99374" lon="4.88243">
        <ele>287</ele>
        <time>2018-09-11T09:42:23Z</time>
      </trkpt>
      <trkpt lat="45.99369" lon="4.88237">
        <ele>287</ele>
        <time>2018-09-11T09:42:24Z</time>
      </trkpt>
      <trkpt lat="45.99365" lon="4.88233">
        <ele>287</ele>
        <time>2018-09-11T09:42:25Z</time>
      </trkpt>
      <trkpt lat="45.9936" lon="4.88227">
        <ele>287</ele>
        <time>2018-09-11T09:42:26Z</time>
      </trkpt>
      <trkpt lat="45.99355" lon="4.88222">
        <ele>287</ele>
        <time>2018-09-11T09:42:27Z</time>
      </trkpt>
      <trkpt lat="45.99349" lon="4.88217">
        <ele>287</ele>
        <time>2018-09-11T09:42:28Z</time>
      </trkpt>
      <trkpt lat="45.99342" lon="4.88212">
        <ele>287</ele>
        <time>2018-09-11T09:42:29Z</time>
      </trkpt>
      <trkpt lat="45.99338" lon="4.88207">
        <ele>288</ele>
        <time>2018-09-11T09:42:30Z</time>
      </trkpt>
      <trkpt lat="45.99332" lon="4.88201">
        <ele>285</ele>
        <time>2018-09-11T09:42:31Z</time>
      </trkpt>
      <trkpt lat="45.99325" lon="4.88197">
        <ele>285</ele>
        <time>2018-09-11T09:42:32Z</time>
      </trkpt>
      <trkpt lat="45.99318" lon="4.88191">
        <ele>285</ele>
        <time>2018-09-11T09:42:33Z</time>
      </trkpt>
      <trkpt lat="45.99313" lon="4.88185">
        <ele>285</ele>
        <time>2018-09-11T09:42:34Z</time>
      </trkpt>
      <trkpt lat="45.99305" lon="4.88181">
        <ele>285</ele>
        <time>2018-09-11T09:42:35Z</time>
      </trkpt>
      <trkpt lat="45.993" lon="4.88176">
        <ele>284</ele>
        <time>2018-09-11T09:42:36Z</time>
      </trkpt>
      <trkpt lat="45.99293" lon="4.8817">
        <ele>284</ele>
        <time>2018-09-11T09:42:37Z</time>
      </trkpt>
      <trkpt lat="45.99287" lon="4.88165">
        <ele>284</ele>
        <time>2018-09-11T09:42:38Z</time>
      </trkpt>
      <trkpt lat="45.99282" lon="4.88159">
        <ele>284</ele>
        <time>2018-09-11T09:42:39Z</time>
      </trkpt>
      <trkpt lat="45.99276" lon="4.88152">
        <ele>283</ele>
        <time>2018-09-11T09:42:40Z</time>
      </trkpt>
      <trkpt lat="45.9927" lon="4.88147">
        <ele>283</ele>
        <time>2018-09-11T09:42:41Z</time>
      </trkpt>
      <trkpt lat="45.99264" lon="4.88142">
        <ele>283</ele>
        <time>2018-09-11T09:42:42Z</time>
      </trkpt>
      <trkpt lat="45.99259" lon="4.88138">
        <ele>283</ele>
        <time>2018-09-11T09:42:43Z</time>
      </trkpt>
      <trkpt lat="45.99252" lon="4.88132">
        <ele>283</ele>
        <time>2018-09-11T09:42:44Z</time>
      </trkpt>
      <trkpt lat="45.99247" lon="4.88127">
        <ele>280</ele>
        <time>2018-09-11T09:42:45Z</time>
      </trkpt>
      <trkpt lat="45.99241" lon="4.88122">
        <ele>280</ele>
        <time>2018-09-11T09:42:46Z</time>
      </trkpt>
      <trkpt lat="45.99235" lon="4.88117">
        <ele>280</ele>
        <time>2018-09-11T09:42:47Z</time>
      </trkpt>
      <trkpt lat="45.9923" lon="4.88112">
        <ele>280</ele>
        <time>2018-09-11T09:42:48Z</time>
      </trkpt>
      <trkpt lat="45.99224" lon="4.88108">
        <ele>280</ele>
        <time>2018-09-11T09:42:49Z</time>
      </trkpt>
      <trkpt lat="45.99219" lon="4.88103">
        <ele>280</ele>
        <time>2018-09-11T09:42:50Z</time>
      </trkpt>
      <trkpt lat="45.99213" lon="4.88098">
        <ele>280</ele>
        <time>2018-09-11T09:42:51Z</time>
      </trkpt>
      <trkpt lat="45.99207" lon="4.88092">
        <ele>280</ele>
        <time>2018-09-11T09:42:52Z</time>
      </trkpt>
      <trkpt lat="45.99201" lon="4.88087">
        <ele>280</ele>
        <time>2018-09-11T09:42:53Z</time>
      </trkpt>
      <trkpt lat="45.99195" lon="4.88082">
        <ele>280</ele>
        <time>2018-09-11T09:42:54Z</time>
      </trkpt>
      <trkpt lat="45.99189" lon="4.88076">
        <ele>280</ele>
        <time>2018-09-11T09:42:55Z</time>
      </trkpt>
      <trkpt lat="45.99183" lon="4.88071">
        <ele>279</ele>
        <time>2018-09-11T09:42:56Z</time>
      </trkpt>
      <trkpt lat="45.99175" lon="4.88065">
        <ele>279</ele>
        <time>2018-09-11T09:42:57Z</time>
      </trkpt>
      <trkpt lat="45.99167" lon="4.88062">
        <ele>279</ele>
        <time>2018-09-11T09:42:58Z</time>
      </trkpt>
      <trkpt lat="45.9916" lon="4.88058">
        <ele>279</ele>
        <time>2018-09-11T09:42:59Z</time>
      </trkpt>
      <trkpt lat="45.99152" lon="4.88053">
        <ele>279</ele>
        <time>2018-09-11T09:43:00Z</time>
      </trkpt>
      <trkpt lat="45.99145" lon="4.88048">
        <ele>279</ele>
        <time>2018-09-11T09:43:01Z</time>
      </trkpt>
      <trkpt lat="45.9914" lon="4.88042">
        <ele>279</ele>
        <time>2018-09-11T09:43:02Z</time>
      </trkpt>
      <trkpt lat="45.99134" lon="4.88038">
        <ele>279</ele>
        <time>2018-09-11T09:43:03Z</time>
      </trkpt>
      <trkpt lat="45.99128" lon="4.88036">
        <ele>279</ele>
        <time>2018-09-11T09:43:04Z</time>
      </trkpt>
      <trkpt lat="45.99121" lon="4.88032">
        <ele>278</ele>
        <time>2018-09-11T09:43:05Z</time>
      </trkpt>
      <trkpt lat="45.99117" lon="4.88028">
        <ele>278</ele>
        <time>2018-09-11T09:43:06Z</time>
      </trkpt>
      <trkpt lat="45.99111" lon="4.88023">
        <ele>278</ele>
        <time>2018-09-11T09:43:07Z</time>
      </trkpt>
      <trkpt lat="45.99106" lon="4.88019">
        <ele>278</ele>
        <time>2018-09-11T09:43:08Z</time>
      </trkpt>
      <trkpt lat="45.99099" lon="4.88016">
        <ele>278</ele>
        <time>2018-09-11T09:43:09Z</time>
      </trkpt>
      <trkpt lat="45.99094" lon="4.88011">
        <ele>278</ele>
        <time>2018-09-11T09:43:10Z</time>
      </trkpt>
      <trkpt lat="45.99087" lon="4.88008">
        <ele>278</ele>
        <time>2018-09-11T09:43:11Z</time>
      </trkpt>
      <trkpt lat="45.99079" lon="4.88004">
        <ele>278</ele>
        <time>2018-09-11T09:43:12Z</time>
      </trkpt>
      <trkpt lat="45.99072" lon="4.88">
        <ele>277</ele>
        <time>2018-09-11T09:43:13Z</time>
      </trkpt>
      <trkpt lat="45.99065" lon="4.87997">
        <ele>277</ele>
        <time>2018-09-11T09:43:14Z</time>
      </trkpt>
      <trkpt lat="45.99058" lon="4.87993">
        <ele>277</ele>
        <time>2018-09-11T09:43:15Z</time>
      </trkpt>
      <trkpt lat="45.99052" lon="4.87989">
        <ele>277</ele>
        <time>2018-09-11T09:43:16Z</time>
      </trkpt>
      <trkpt lat="45.99045" lon="4.87986">
        <ele>277</ele>
        <time>2018-09-11T09:43:17Z</time>
      </trkpt>
      <trkpt lat="45.9904" lon="4.87981">
        <ele>276</ele>
        <time>2018-09-11T09:43:18Z</time>
      </trkpt>
      <trkpt lat="45.99036" lon="4.87979">
        <ele>276</ele>
        <time>2018-09-11T09:43:19Z</time>
      </trkpt>
      <trkpt lat="45.9903" lon="4.87975">
        <ele>276</ele>
        <time>2018-09-11T09:43:20Z</time>
      </trkpt>
      <trkpt lat="45.99023" lon="4.87971">
        <ele>276</ele>
        <time>2018-09-11T09:43:21Z</time>
      </trkpt>
      <trkpt lat="45.99016" lon="4.87966">
        <ele>276</ele>
        <time>2018-09-11T09:43:22Z</time>
      </trkpt>
      <trkpt lat="45.9901" lon="4.87963">
        <ele>276</ele>
        <time>2018-09-11T09:43:23Z</time>
      </trkpt>
      <trkpt lat="45.99002" lon="4.87959">
        <ele>276</ele>
        <time>2018-09-11T09:43:24Z</time>
      </trkpt>
      <trkpt lat="45.98995" lon="4.87954">
        <ele>274</ele>
        <time>2018-09-11T09:43:25Z</time>
      </trkpt>
      <trkpt lat="45.98989" lon="4.87952">
        <ele>274</ele>
        <time>2018-09-11T09:43:26Z</time>
      </trkpt>
      <trkpt lat="45.98981" lon="4.87948">
        <ele>274</ele>
        <time>2018-09-11T09:43:27Z</time>
      </trkpt>
      <trkpt lat="45.98974" lon="4.87944">
        <ele>274</ele>
        <time>2018-09-11T09:43:28Z</time>
      </trkpt>
      <trkpt lat="45.98965" lon="4.87941">
        <ele>274</ele>
        <time>2018-09-11T09:43:29Z</time>
      </trkpt>
      <trkpt lat="45.98957" lon="4.87937">
        <ele>273</ele>
        <time>2018-09-11T09:43:30Z</time>
      </trkpt>
      <trkpt lat="45.9895" lon="4.87932">
        <ele>273</ele>
        <time>2018-09-11T09:43:31Z</time>
      </trkpt>
      <trkpt lat="45.98941" lon="4.87927">
        <ele>273</ele>
        <time>2018-09-11T09:43:32Z</time>
      </trkpt>
      <trkpt lat="45.98933" lon="4.87922">
        <ele>272</ele>
        <time>2018-09-11T09:43:33Z</time>
      </trkpt>
      <trkpt lat="45.98925" lon="4.87916">
        <ele>272</ele>
        <time>2018-09-11T09:43:34Z</time>
      </trkpt>
      <trkpt lat="45.98918" lon="4.87909">
        <ele>272</ele>
        <time>2018-09-11T09:43:35Z</time>
      </trkpt>
      <trkpt lat="45.98913" lon="4.87903">
        <ele>272</ele>
        <time>2018-09-11T09:43:36Z</time>
      </trkpt>
      <trkpt lat="45.98905" lon="4.87894">
        <ele>272</ele>
        <time>2018-09-11T09:43:37Z</time>
      </trkpt>
      <trkpt lat="45.98898" lon="4.87888">
        <ele>272</ele>
        <time>2018-09-11T09:43:38Z</time>
      </trkpt>
      <trkpt lat="45.98892" lon="4.8788">
        <ele>272</ele>
        <time>2018-09-11T09:43:39Z</time>
      </trkpt>
      <trkpt lat="45.98886" lon="4.87874">
        <ele>272</ele>
        <time>2018-09-11T09:43:40Z</time>
      </trkpt>
      <trkpt lat="45.98881" lon="4.87863">
        <ele>272</ele>
        <time>2018-09-11T09:43:41Z</time>
      </trkpt>
      <trkpt lat="45.98877" lon="4.87855">
        <ele>272</ele>
        <time>2018-09-11T09:43:42Z</time>
      </trkpt>
      <trkpt lat="45.98875" lon="4.87845">
        <ele>272</ele>
        <time>2018-09-11T09:43:43Z</time>
      </trkpt>
      <trkpt lat="45.98869" lon="4.87834">
        <ele>273</ele>
        <time>2018-09-11T09:43:44Z</time>
      </trkpt>
      <trkpt lat="45.98863" lon="4.87823">
        <ele>273</ele>
        <time>2018-09-11T09:43:45Z</time>
      </trkpt>
      <trkpt lat="45.9886" lon="4.87813">
        <ele>273</ele>
        <time>2018-09-11T09:43:46Z</time>
      </trkpt>
      <trkpt lat="45.98857" lon="4.87803">
        <ele>273</ele>
        <time>2018-09-11T09:43:47Z</time>
      </trkpt>
      <trkpt lat="45.98853" lon="4.87794">
        <ele>273</ele>
        <time>2018-09-11T09:43:48Z</time>
      </trkpt>
      <trkpt lat="45.9885" lon="4.87785">
        <ele>273</ele>
        <time>2018-09-11T09:43:49Z</time>
      </trkpt>
      <trkpt lat="45.98848" lon="4.87774">
        <ele>273</ele>
        <time>2018-09-11T09:43:50Z</time>
      </trkpt>
      <trkpt lat="45.98845" lon="4.87765">
        <ele>273</ele>
        <time>2018-09-11T09:43:51Z</time>
      </trkpt>
      <trkpt lat="45.98841" lon="4.87755">
        <ele>273</ele>
        <time>2018-09-11T09:43:52Z</time>
      </trkpt>
      <trkpt lat="45.98839" lon="4.87747">
        <ele>273</ele>
        <time>2018-09-11T09:43:53Z</time>
      </trkpt>
      <trkpt lat="45.98844" lon="4.87739">
        <ele>273</ele>
        <time>2018-09-11T09:43:54Z</time>
      </trkpt>
      <trkpt lat="45.98843" lon="4.87731">
        <ele>273</ele>
        <time>2018-09-11T09:43:55Z</time>
      </trkpt>
      <trkpt lat="45.98843" lon="4.87722">
        <ele>273</ele>
        <time>2018-09-11T09:43:56Z</time>
      </trkpt>
      <trkpt lat="45.98842" lon="4.87712">
        <ele>273</ele>
        <time>2018-09-11T09:43:57Z</time>
      </trkpt>
      <trkpt lat="45.98841" lon="4.87704">
        <ele>273</ele>
        <time>2018-09-11T09:43:58Z</time>
      </trkpt>
      <trkpt lat="45.98835" lon="4.87694">
        <ele>273</ele>
        <time>2018-09-11T09:43:59Z</time>
      </trkpt>
      <trkpt lat="45.98833" lon="4.87686">
        <ele>273</ele>
        <time>2018-09-11T09:44:00Z</time>
      </trkpt>
      <trkpt lat="45.9883" lon="4.87677">
        <ele>273</ele>
        <time>2018-09-11T09:44:01Z</time>
      </trkpt>
      <trkpt lat="45.98829" lon="4.87667">
        <ele>272</ele>
        <time>2018-09-11T09:44:02Z</time>
      </trkpt>
      <trkpt lat="45.98826" lon="4.87658">
        <ele>272</ele>
        <time>2018-09-11T09:44:03Z</time>
      </trkpt>
      <trkpt lat="45.98824" lon="4.87649">
        <ele>272</ele>
        <time>2018-09-11T09:44:04Z</time>
      </trkpt>
      <trkpt lat="45.98821" lon="4.87642">
        <ele>272</ele>
        <time>2018-09-11T09:44:05Z</time>
      </trkpt>
      <trkpt lat="45.98817" lon="4.87634">
        <ele>272</ele>
        <time>2018-09-11T09:44:06Z</time>
      </trkpt>
      <trkpt lat="45.98815" lon="4.87626">
        <ele>271</ele>
        <time>2018-09-11T09:44:07Z</time>
      </trkpt>
      <trkpt lat="45.98812" lon="4.87619">
        <ele>271</ele>
        <time>2018-09-11T09:44:08Z</time>
      </trkpt>
      <trkpt lat="45.98806" lon="4.8761">
        <ele>271</ele>
        <time>2018-09-11T09:44:09Z</time>
      </trkpt>
      <trkpt lat="45.988" lon="4.87601">
        <ele>271</ele>
        <time>2018-09-11T09:44:10Z</time>
      </trkpt>
      <trkpt lat="45.98797" lon="4.87594">
        <ele>271</ele>
        <time>2018-09-11T09:44:11Z</time>
      </trkpt>
      <trkpt lat="45.98793" lon="4.87587">
        <ele>271</ele>
        <time>2018-09-11T09:44:12Z</time>
      </trkpt>
      <trkpt lat="45.98788" lon="4.87581">
        <ele>269</ele>
        <time>2018-09-11T09:44:13Z</time>
      </trkpt>
      <trkpt lat="45.9878" lon="4.87575">
        <ele>269</ele>
        <time>2018-09-11T09:44:14Z</time>
      </trkpt>
      <trkpt lat="45.98776" lon="4.87569">
        <ele>269</ele>
        <time>2018-09-11T09:44:15Z</time>
      </trkpt>
      <trkpt lat="45.98769" lon="4.87564">
        <ele>269</ele>
        <time>2018-09-11T09:44:16Z</time>
      </trkpt>
      <trkpt lat="45.98764" lon="4.87559">
        <ele>269</ele>
        <time>2018-09-11T09:44:17Z</time>
      </trkpt>
      <trkpt lat="45.98756" lon="4.87553">
        <ele>269</ele>
        <time>2018-09-11T09:44:19Z</time>
      </trkpt>
      <trkpt lat="45.98749" lon="4.87549">
        <ele>267</ele>
        <time>2018-09-11T09:44:20Z</time>
      </trkpt>
      <trkpt lat="45.98741" lon="4.87547">
        <ele>267</ele>
        <time>2018-09-11T09:44:21Z</time>
      </trkpt>
      <trkpt lat="45.98736" lon="4.87544">
        <ele>267</ele>
        <time>2018-09-11T09:44:22Z</time>
      </trkpt>
      <trkpt lat="45.98728" lon="4.87546">
        <ele>267</ele>
        <time>2018-09-11T09:44:23Z</time>
      </trkpt>
      <trkpt lat="45.98722" lon="4.87549">
        <ele>267</ele>
        <time>2018-09-11T09:44:24Z</time>
      </trkpt>
      <trkpt lat="45.98716" lon="4.87551">
        <ele>267</ele>
        <time>2018-09-11T09:44:25Z</time>
      </trkpt>
      <trkpt lat="45.98709" lon="4.87555">
        <ele>267</ele>
        <time>2018-09-11T09:44:26Z</time>
      </trkpt>
      <trkpt lat="45.98701" lon="4.87555">
        <ele>267</ele>
        <time>2018-09-11T09:44:28Z</time>
      </trkpt>
      <trkpt lat="45.98696" lon="4.87557">
        <ele>267</ele>
        <time>2018-09-11T09:44:29Z</time>
      </trkpt>
      <trkpt lat="45.9869" lon="4.8756">
        <ele>267</ele>
        <time>2018-09-11T09:44:30Z</time>
      </trkpt>
      <trkpt lat="45.98686" lon="4.8756">
        <ele>267</ele>
        <time>2018-09-11T09:44:31Z</time>
      </trkpt>
      <trkpt lat="45.98681" lon="4.87561">
        <ele>267</ele>
        <time>2018-09-11T09:44:32Z</time>
      </trkpt>
      <trkpt lat="45.98675" lon="4.87561">
        <ele>267</ele>
        <time>2018-09-11T09:44:33Z</time>
      </trkpt>
      <trkpt lat="45.98671" lon="4.87559">
        <ele>267</ele>
        <time>2018-09-11T09:44:34Z</time>
      </trkpt>
      <trkpt lat="45.98666" lon="4.87559">
        <ele>267</ele>
        <time>2018-09-11T09:44:35Z</time>
      </trkpt>
      <trkpt lat="45.98662" lon="4.87554">
        <ele>267</ele>
        <time>2018-09-11T09:44:36Z</time>
      </trkpt>
      <trkpt lat="45.98656" lon="4.87547">
        <ele>267</ele>
        <time>2018-09-11T09:44:37Z</time>
      </trkpt>
      <trkpt lat="45.98653" lon="4.87545">
        <ele>267</ele>
        <time>2018-09-11T09:44:38Z</time>
      </trkpt>
      <trkpt lat="45.98649" lon="4.87539">
        <ele>267</ele>
        <time>2018-09-11T09:44:39Z</time>
      </trkpt>
      <trkpt lat="45.98644" lon="4.87528">
        <ele>267</ele>
        <time>2018-09-11T09:44:41Z</time>
      </trkpt>
      <trkpt lat="45.98643" lon="4.87522">
        <ele>267</ele>
        <time>2018-09-11T09:44:42Z</time>
      </trkpt>
      <trkpt lat="45.9864" lon="4.87512">
        <ele>267</ele>
        <time>2018-09-11T09:44:44Z</time>
      </trkpt>
      <trkpt lat="45.98639" lon="4.87507">
        <ele>267</ele>
        <time>2018-09-11T09:44:45Z</time>
      </trkpt>
      <trkpt lat="45.98636" lon="4.87501">
        <ele>267</ele>
        <time>2018-09-11T09:44:46Z</time>
      </trkpt>
      <trkpt lat="45.98635" lon="4.87495">
        <ele>267</ele>
        <time>2018-09-11T09:44:47Z</time>
      </trkpt>
      <trkpt lat="45.98634" lon="4.87488">
        <ele>268</ele>
        <time>2018-09-11T09:44:48Z</time>
      </trkpt>
      <trkpt lat="45.98631" lon="4.87477">
        <ele>268</ele>
        <time>2018-09-11T09:44:49Z</time>
      </trkpt>
      <trkpt lat="45.9863" lon="4.87471">
        <ele>268</ele>
        <time>2018-09-11T09:44:50Z</time>
      </trkpt>
      <trkpt lat="45.98628" lon="4.87463">
        <ele>268</ele>
        <time>2018-09-11T09:44:51Z</time>
      </trkpt>
      <trkpt lat="45.98627" lon="4.87456">
        <ele>268</ele>
        <time>2018-09-11T09:44:52Z</time>
      </trkpt>
      <trkpt lat="45.98626" lon="4.87449">
        <ele>268</ele>
        <time>2018-09-11T09:44:53Z</time>
      </trkpt>
      <trkpt lat="45.98625" lon="4.87443">
        <ele>268</ele>
        <time>2018-09-11T09:44:54Z</time>
      </trkpt>
      <trkpt lat="45.98625" lon="4.87436">
        <ele>269</ele>
        <time>2018-09-11T09:44:55Z</time>
      </trkpt>
      <trkpt lat="45.98619" lon="4.87429">
        <ele>269</ele>
        <time>2018-09-11T09:44:56Z</time>
      </trkpt>
      <trkpt lat="45.98617" lon="4.87424">
        <ele>269</ele>
        <time>2018-09-11T09:44:57Z</time>
      </trkpt>
      <trkpt lat="45.98615" lon="4.87412">
        <ele>271</ele>
        <time>2018-09-11T09:44:59Z</time>
      </trkpt>
      <trkpt lat="45.98614" lon="4.87407">
        <ele>271</ele>
        <time>2018-09-11T09:45:00Z</time>
      </trkpt>
      <trkpt lat="45.98613" lon="4.87395">
        <ele>271</ele>
        <time>2018-09-11T09:45:02Z</time>
      </trkpt>
      <trkpt lat="45.98612" lon="4.8739">
        <ele>271</ele>
        <time>2018-09-11T09:45:03Z</time>
      </trkpt>
      <trkpt lat="45.9861" lon="4.87378">
        <ele>271</ele>
        <time>2018-09-11T09:45:05Z</time>
      </trkpt>
      <trkpt lat="45.98609" lon="4.87376">
        <ele>271</ele>
        <time>2018-09-11T09:45:06Z</time>
      </trkpt>
      <trkpt lat="45.98609" lon="4.87367">
        <ele>272</ele>
        <time>2018-09-11T09:45:07Z</time>
      </trkpt>
      <trkpt lat="45.98607" lon="4.87362">
        <ele>272</ele>
        <time>2018-09-11T09:45:08Z</time>
      </trkpt>
      <trkpt lat="45.98606" lon="4.87357">
        <ele>272</ele>
        <time>2018-09-11T09:45:10Z</time>
      </trkpt>
      <trkpt lat="45.98604" lon="4.87348">
        <ele>272</ele>
        <time>2018-09-11T09:45:11Z</time>
      </trkpt>
      <trkpt lat="45.98603" lon="4.87342">
        <ele>272</ele>
        <time>2018-09-11T09:45:13Z</time>
      </trkpt>
      <trkpt lat="45.98602" lon="4.87332">
        <ele>274</ele>
        <time>2018-09-11T09:45:14Z</time>
      </trkpt>
      <trkpt lat="45.98601" lon="4.87321">
        <ele>274</ele>
        <time>2018-09-11T09:45:17Z</time>
      </trkpt>
      <trkpt lat="45.986" lon="4.87317">
        <ele>274</ele>
        <time>2018-09-11T09:45:18Z</time>
      </trkpt>
      <trkpt lat="45.986" lon="4.87305">
        <ele>274</ele>
        <time>2018-09-11T09:45:21Z</time>
      </trkpt>
      <trkpt lat="45.986" lon="4.87293">
        <ele>275</ele>
        <time>2018-09-11T09:45:22Z</time>
      </trkpt>
      <trkpt lat="45.98601" lon="4.87282">
        <ele>275</ele>
        <time>2018-09-11T09:45:25Z</time>
      </trkpt>
      <trkpt lat="45.98602" lon="4.87273">
        <ele>275</ele>
        <time>2018-09-11T09:45:26Z</time>
      </trkpt>
      <trkpt lat="45.98604" lon="4.87262">
        <ele>275</ele>
        <time>2018-09-11T09:45:28Z</time>
      </trkpt>
      <trkpt lat="45.98605" lon="4.8726">
        <ele>275</ele>
        <time>2018-09-11T09:45:29Z</time>
      </trkpt>
      <trkpt lat="45.98606" lon="4.87254">
        <ele>275</ele>
        <time>2018-09-11T09:45:31Z</time>
      </trkpt>
      <trkpt lat="45.98606" lon="4.87244">
        <ele>277</ele>
        <time>2018-09-11T09:45:32Z</time>
      </trkpt>
      <trkpt lat="45.98608" lon="4.87235">
        <ele>277</ele>
        <time>2018-09-11T09:45:35Z</time>
      </trkpt>
      <trkpt lat="45.98609" lon="4.87231">
        <ele>277</ele>
        <time>2018-09-11T09:45:36Z</time>
      </trkpt>
      <trkpt lat="45.98611" lon="4.87221">
        <ele>277</ele>
        <time>2018-09-11T09:45:37Z</time>
      </trkpt>
      <trkpt lat="45.98612" lon="4.87218">
        <ele>277</ele>
        <time>2018-09-11T09:45:38Z</time>
      </trkpt>
      <trkpt lat="45.98613" lon="4.87207">
        <ele>277</ele>
        <time>2018-09-11T09:45:40Z</time>
      </trkpt>
      <trkpt lat="45.98614" lon="4.87203">
        <ele>277</ele>
        <time>2018-09-11T09:45:41Z</time>
      </trkpt>
      <trkpt lat="45.98614" lon="4.87193">
        <ele>278</ele>
        <time>2018-09-11T09:45:42Z</time>
      </trkpt>
      <trkpt lat="45.98614" lon="4.87189">
        <ele>278</ele>
        <time>2018-09-11T09:45:43Z</time>
      </trkpt>
      <trkpt lat="45.98615" lon="4.87177">
        <ele>278</ele>
        <time>2018-09-11T09:45:45Z</time>
      </trkpt>
      <trkpt lat="45.98615" lon="4.87169">
        <ele>278</ele>
        <time>2018-09-11T09:45:46Z</time>
      </trkpt>
      <trkpt lat="45.98616" lon="4.87157">
        <ele>278</ele>
        <time>2018-09-11T09:45:48Z</time>
      </trkpt>
      <trkpt lat="45.98617" lon="4.87151">
        <ele>279</ele>
        <time>2018-09-11T09:45:49Z</time>
      </trkpt>
      <trkpt lat="45.98617" lon="4.87138">
        <ele>279</ele>
        <time>2018-09-11T09:45:51Z</time>
      </trkpt>
      <trkpt lat="45.98617" lon="4.87133">
        <ele>279</ele>
        <time>2018-09-11T09:45:52Z</time>
      </trkpt>
      <trkpt lat="45.98618" lon="4.87126">
        <ele>279</ele>
        <time>2018-09-11T09:45:53Z</time>
      </trkpt>
      <trkpt lat="45.98616" lon="4.87119">
        <ele>279</ele>
        <time>2018-09-11T09:45:54Z</time>
      </trkpt>
      <trkpt lat="45.98615" lon="4.87107">
        <ele>279</ele>
        <time>2018-09-11T09:45:56Z</time>
      </trkpt>
      <trkpt lat="45.98614" lon="4.87099">
        <ele>279</ele>
        <time>2018-09-11T09:45:57Z</time>
      </trkpt>
      <trkpt lat="45.98611" lon="4.87093">
        <ele>279</ele>
        <time>2018-09-11T09:45:58Z</time>
      </trkpt>
      <trkpt lat="45.98611" lon="4.87087">
        <ele>279</ele>
        <time>2018-09-11T09:45:59Z</time>
      </trkpt>
      <trkpt lat="45.98608" lon="4.87076">
        <ele>279</ele>
        <time>2018-09-11T09:46:01Z</time>
      </trkpt>
      <trkpt lat="45.98607" lon="4.87069">
        <ele>279</ele>
        <time>2018-09-11T09:46:02Z</time>
      </trkpt>
      <trkpt lat="45.98604" lon="4.87058">
        <ele>279</ele>
        <time>2018-09-11T09:46:04Z</time>
      </trkpt>
      <trkpt lat="45.98604" lon="4.87051">
        <ele>279</ele>
        <time>2018-09-11T09:46:05Z</time>
      </trkpt>
      <trkpt lat="45.98602" lon="4.87044">
        <ele>279</ele>
        <time>2018-09-11T09:46:06Z</time>
      </trkpt>
      <trkpt lat="45.986" lon="4.87037">
        <ele>279</ele>
        <time>2018-09-11T09:46:07Z</time>
      </trkpt>
      <trkpt lat="45.98598" lon="4.8703">
        <ele>279</ele>
        <time>2018-09-11T09:46:08Z</time>
      </trkpt>
      <trkpt lat="45.98597" lon="4.87025">
        <ele>279</ele>
        <time>2018-09-11T09:46:09Z</time>
      </trkpt>
      <trkpt lat="45.98595" lon="4.87018">
        <ele>279</ele>
        <time>2018-09-11T09:46:10Z</time>
      </trkpt>
      <trkpt lat="45.98593" lon="4.87012">
        <ele>279</ele>
        <time>2018-09-11T09:46:11Z</time>
      </trkpt>
      <trkpt lat="45.98589" lon="4.87">
        <ele>280</ele>
        <time>2018-09-11T09:46:13Z</time>
      </trkpt>
      <trkpt lat="45.98587" lon="4.86994">
        <ele>279</ele>
        <time>2018-09-11T09:46:14Z</time>
      </trkpt>
      <trkpt lat="45.98586" lon="4.86982">
        <ele>279</ele>
        <time>2018-09-11T09:46:16Z</time>
      </trkpt>
      <trkpt lat="45.98584" lon="4.86974">
        <ele>279</ele>
        <time>2018-09-11T09:46:17Z</time>
      </trkpt>
      <trkpt lat="45.98585" lon="4.86961">
        <ele>279</ele>
        <time>2018-09-11T09:46:19Z</time>
      </trkpt>
      <trkpt lat="45.98584" lon="4.86956">
        <ele>279</ele>
        <time>2018-09-11T09:46:20Z</time>
      </trkpt>
      <trkpt lat="45.98585" lon="4.86944">
        <ele>279</ele>
        <time>2018-09-11T09:46:22Z</time>
      </trkpt>
      <trkpt lat="45.98584" lon="4.86938">
        <ele>279</ele>
        <time>2018-09-11T09:46:23Z</time>
      </trkpt>
      <trkpt lat="45.98585" lon="4.86931">
        <ele>279</ele>
        <time>2018-09-11T09:46:24Z</time>
      </trkpt>
      <trkpt lat="45.98585" lon="4.86924">
        <ele>279</ele>
        <time>2018-09-11T09:46:25Z</time>
      </trkpt>
      <trkpt lat="45.98586" lon="4.86912">
        <ele>279</ele>
        <time>2018-09-11T09:46:27Z</time>
      </trkpt>
      <trkpt lat="45.98586" lon="4.86905">
        <ele>278</ele>
        <time>2018-09-11T09:46:28Z</time>
      </trkpt>
      <trkpt lat="45.98587" lon="4.86893">
        <ele>278</ele>
        <time>2018-09-11T09:46:30Z</time>
      </trkpt>
      <trkpt lat="45.98588" lon="4.86887">
        <ele>278</ele>
        <time>2018-09-11T09:46:31Z</time>
      </trkpt>
      <trkpt lat="45.98587" lon="4.86881">
        <ele>277</ele>
        <time>2018-09-11T09:46:32Z</time>
      </trkpt>
      <trkpt lat="45.98588" lon="4.86873">
        <ele>277</ele>
        <time>2018-09-11T09:46:33Z</time>
      </trkpt>
      <trkpt lat="45.98589" lon="4.86861">
        <ele>277</ele>
        <time>2018-09-11T09:46:35Z</time>
      </trkpt>
      <trkpt lat="45.98588" lon="4.86855">
        <ele>277</ele>
        <time>2018-09-11T09:46:36Z</time>
      </trkpt>
      <trkpt lat="45.98587" lon="4.86843">
        <ele>277</ele>
        <time>2018-09-11T09:46:38Z</time>
      </trkpt>
      <trkpt lat="45.98586" lon="4.86836">
        <ele>277</ele>
        <time>2018-09-11T09:46:39Z</time>
      </trkpt>
      <trkpt lat="45.98585" lon="4.86824">
        <ele>277</ele>
        <time>2018-09-11T09:46:41Z</time>
      </trkpt>
      <trkpt lat="45.98584" lon="4.86818">
        <ele>276</ele>
        <time>2018-09-11T09:46:42Z</time>
      </trkpt>
      <trkpt lat="45.98582" lon="4.86807">
        <ele>277</ele>
        <time>2018-09-11T09:46:44Z</time>
      </trkpt>
      <trkpt lat="45.98579" lon="4.86801">
        <ele>278</ele>
        <time>2018-09-11T09:46:45Z</time>
      </trkpt>
      <trkpt lat="45.98578" lon="4.86795">
        <ele>277</ele>
        <time>2018-09-11T09:46:46Z</time>
      </trkpt>
      <trkpt lat="45.98577" lon="4.86788">
        <ele>277</ele>
        <time>2018-09-11T09:46:47Z</time>
      </trkpt>
      <trkpt lat="45.98575" lon="4.86781">
        <ele>277</ele>
        <time>2018-09-11T09:46:48Z</time>
      </trkpt>
      <trkpt lat="45.98574" lon="4.86773">
        <ele>277</ele>
        <time>2018-09-11T09:46:49Z</time>
      </trkpt>
      <trkpt lat="45.98571" lon="4.86765">
        <ele>277</ele>
        <time>2018-09-11T09:46:50Z</time>
      </trkpt>
      <trkpt lat="45.98571" lon="4.86758">
        <ele>277</ele>
        <time>2018-09-11T09:46:51Z</time>
      </trkpt>
      <trkpt lat="45.9857" lon="4.86752">
        <ele>277</ele>
        <time>2018-09-11T09:46:52Z</time>
      </trkpt>
      <trkpt lat="45.98569" lon="4.86745">
        <ele>277</ele>
        <time>2018-09-11T09:46:53Z</time>
      </trkpt>
      <trkpt lat="45.98568" lon="4.86737">
        <ele>277</ele>
        <time>2018-09-11T09:46:54Z</time>
      </trkpt>
      <trkpt lat="45.98568" lon="4.86729">
        <ele>277</ele>
        <time>2018-09-11T09:46:55Z</time>
      </trkpt>
      <trkpt lat="45.98568" lon="4.86721">
        <ele>277</ele>
        <time>2018-09-11T09:46:56Z</time>
      </trkpt>
      <trkpt lat="45.98568" lon="4.86714">
        <ele>277</ele>
        <time>2018-09-11T09:46:57Z</time>
      </trkpt>
      <trkpt lat="45.98567" lon="4.86706">
        <ele>277</ele>
        <time>2018-09-11T09:46:58Z</time>
      </trkpt>
      <trkpt lat="45.98567" lon="4.86699">
        <ele>277</ele>
        <time>2018-09-11T09:46:59Z</time>
      </trkpt>
      <trkpt lat="45.98567" lon="4.86692">
        <ele>277</ele>
        <time>2018-09-11T09:47:00Z</time>
      </trkpt>
      <trkpt lat="45.98567" lon="4.86685">
        <ele>277</ele>
        <time>2018-09-11T09:47:01Z</time>
      </trkpt>
      <trkpt lat="45.98566" lon="4.86678">
        <ele>276</ele>
        <time>2018-09-11T09:47:02Z</time>
      </trkpt>
      <trkpt lat="45.98567" lon="4.86671">
        <ele>276</ele>
        <time>2018-09-11T09:47:03Z</time>
      </trkpt>
      <trkpt lat="45.98565" lon="4.86659">
        <ele>277</ele>
        <time>2018-09-11T09:47:05Z</time>
      </trkpt>
      <trkpt lat="45.98562" lon="4.8665">
        <ele>277</ele>
        <time>2018-09-11T09:47:06Z</time>
      </trkpt>
      <trkpt lat="45.9856" lon="4.86643">
        <ele>277</ele>
        <time>2018-09-11T09:47:07Z</time>
      </trkpt>
      <trkpt lat="45.9856" lon="4.86637">
        <ele>278</ele>
        <time>2018-09-11T09:47:08Z</time>
      </trkpt>
      <trkpt lat="45.98561" lon="4.86629">
        <ele>278</ele>
        <time>2018-09-11T09:47:09Z</time>
      </trkpt>
      <trkpt lat="45.98561" lon="4.86622">
        <ele>278</ele>
        <time>2018-09-11T09:47:10Z</time>
      </trkpt>
      <trkpt lat="45.98561" lon="4.86615">
        <ele>278</ele>
        <time>2018-09-11T09:47:11Z</time>
      </trkpt>
      <trkpt lat="45.98559" lon="4.86608">
        <ele>278</ele>
        <time>2018-09-11T09:47:12Z</time>
      </trkpt>
      <trkpt lat="45.98557" lon="4.86601">
        <ele>278</ele>
        <time>2018-09-11T09:47:13Z</time>
      </trkpt>
      <trkpt lat="45.98556" lon="4.86594">
        <ele>278</ele>
        <time>2018-09-11T09:47:14Z</time>
      </trkpt>
      <trkpt lat="45.98553" lon="4.86586">
        <ele>278</ele>
        <time>2018-09-11T09:47:15Z</time>
      </trkpt>
      <trkpt lat="45.9855" lon="4.86579">
        <ele>278</ele>
        <time>2018-09-11T09:47:16Z</time>
      </trkpt>
      <trkpt lat="45.98548" lon="4.86572">
        <ele>278</ele>
        <time>2018-09-11T09:47:17Z</time>
      </trkpt>
      <trkpt lat="45.98546" lon="4.86565">
        <ele>278</ele>
        <time>2018-09-11T09:47:18Z</time>
      </trkpt>
      <trkpt lat="45.98543" lon="4.86559">
        <ele>278</ele>
        <time>2018-09-11T09:47:19Z</time>
      </trkpt>
      <trkpt lat="45.98541" lon="4.86553">
        <ele>278</ele>
        <time>2018-09-11T09:47:20Z</time>
      </trkpt>
      <trkpt lat="45.98538" lon="4.86547">
        <ele>278</ele>
        <time>2018-09-11T09:47:21Z</time>
      </trkpt>
      <trkpt lat="45.98536" lon="4.86542">
        <ele>278</ele>
        <time>2018-09-11T09:47:22Z</time>
      </trkpt>
      <trkpt lat="45.98531" lon="4.86533">
        <ele>279</ele>
        <time>2018-09-11T09:47:24Z</time>
      </trkpt>
      <trkpt lat="45.98529" lon="4.86528">
        <ele>279</ele>
        <time>2018-09-11T09:47:25Z</time>
      </trkpt>
      <trkpt lat="45.98524" lon="4.86517">
        <ele>279</ele>
        <time>2018-09-11T09:47:27Z</time>
      </trkpt>
      <trkpt lat="45.98521" lon="4.86512">
        <ele>279</ele>
        <time>2018-09-11T09:47:28Z</time>
      </trkpt>
      <trkpt lat="45.9852" lon="4.86506">
        <ele>279</ele>
        <time>2018-09-11T09:47:29Z</time>
      </trkpt>
      <trkpt lat="45.98517" lon="4.865">
        <ele>278</ele>
        <time>2018-09-11T09:47:30Z</time>
      </trkpt>
      <trkpt lat="45.98514" lon="4.86495">
        <ele>279</ele>
        <time>2018-09-11T09:47:31Z</time>
      </trkpt>
      <trkpt lat="45.9851" lon="4.86491">
        <ele>279</ele>
        <time>2018-09-11T09:47:32Z</time>
      </trkpt>
      <trkpt lat="45.98507" lon="4.86486">
        <ele>279</ele>
        <time>2018-09-11T09:47:33Z</time>
      </trkpt>
      <trkpt lat="45.98505" lon="4.8648">
        <ele>278</ele>
        <time>2018-09-11T09:47:34Z</time>
      </trkpt>
      <trkpt lat="45.98502" lon="4.86473">
        <ele>278</ele>
        <time>2018-09-11T09:47:35Z</time>
      </trkpt>
      <trkpt lat="45.98498" lon="4.86467">
        <ele>279</ele>
        <time>2018-09-11T09:47:36Z</time>
      </trkpt>
      <trkpt lat="45.98494" lon="4.86461">
        <ele>278</ele>
        <time>2018-09-11T09:47:37Z</time>
      </trkpt>
      <trkpt lat="45.98491" lon="4.86456">
        <ele>278</ele>
        <time>2018-09-11T09:47:38Z</time>
      </trkpt>
      <trkpt lat="45.98488" lon="4.86449">
        <ele>278</ele>
        <time>2018-09-11T09:47:39Z</time>
      </trkpt>
      <trkpt lat="45.98485" lon="4.86443">
        <ele>278</ele>
        <time>2018-09-11T09:47:40Z</time>
      </trkpt>
      <trkpt lat="45.98481" lon="4.86438">
        <ele>278</ele>
        <time>2018-09-11T09:47:41Z</time>
      </trkpt>
      <trkpt lat="45.98478" lon="4.86432">
        <ele>278</ele>
        <time>2018-09-11T09:47:42Z</time>
      </trkpt>
      <trkpt lat="45.98474" lon="4.86424">
        <ele>278</ele>
        <time>2018-09-11T09:47:44Z</time>
      </trkpt>
      <trkpt lat="45.98472" lon="4.86418">
        <ele>278</ele>
        <time>2018-09-11T09:47:45Z</time>
      </trkpt>
      <trkpt lat="45.98467" lon="4.86412">
        <ele>277</ele>
        <time>2018-09-11T09:47:46Z</time>
      </trkpt>
      <trkpt lat="45.98466" lon="4.86406">
        <ele>277</ele>
        <time>2018-09-11T09:47:47Z</time>
      </trkpt>
      <trkpt lat="45.98461" lon="4.86398">
        <ele>277</ele>
        <time>2018-09-11T09:47:49Z</time>
      </trkpt>
      <trkpt lat="45.9846" lon="4.86392">
        <ele>277</ele>
        <time>2018-09-11T09:47:50Z</time>
      </trkpt>
      <trkpt lat="45.98456" lon="4.86386">
        <ele>277</ele>
        <time>2018-09-11T09:47:51Z</time>
      </trkpt>
      <trkpt lat="45.98455" lon="4.8638">
        <ele>277</ele>
        <time>2018-09-11T09:47:52Z</time>
      </trkpt>
      <trkpt lat="45.98452" lon="4.86373">
        <ele>277</ele>
        <time>2018-09-11T09:47:53Z</time>
      </trkpt>
      <trkpt lat="45.9845" lon="4.86366">
        <ele>277</ele>
        <time>2018-09-11T09:47:54Z</time>
      </trkpt>
      <trkpt lat="45.98448" lon="4.86355">
        <ele>277</ele>
        <time>2018-09-11T09:47:56Z</time>
      </trkpt>
      <trkpt lat="45.98449" lon="4.86347">
        <ele>277</ele>
        <time>2018-09-11T09:47:57Z</time>
      </trkpt>
      <trkpt lat="45.98447" lon="4.86341">
        <ele>277</ele>
        <time>2018-09-11T09:47:58Z</time>
      </trkpt>
      <trkpt lat="45.98446" lon="4.86334">
        <ele>277</ele>
        <time>2018-09-11T09:47:59Z</time>
      </trkpt>
      <trkpt lat="45.98443" lon="4.86325">
        <ele>276</ele>
        <time>2018-09-11T09:48:00Z</time>
      </trkpt>
      <trkpt lat="45.98442" lon="4.86319">
        <ele>276</ele>
        <time>2018-09-11T09:48:01Z</time>
      </trkpt>
      <trkpt lat="45.98441" lon="4.86313">
        <ele>276</ele>
        <time>2018-09-11T09:48:02Z</time>
      </trkpt>
      <trkpt lat="45.98439" lon="4.86307">
        <ele>276</ele>
        <time>2018-09-11T09:48:03Z</time>
      </trkpt>
      <trkpt lat="45.98439" lon="4.86299">
        <ele>276</ele>
        <time>2018-09-11T09:48:04Z</time>
      </trkpt>
      <trkpt lat="45.98439" lon="4.86291">
        <ele>276</ele>
        <time>2018-09-11T09:48:05Z</time>
      </trkpt>
      <trkpt lat="45.98436" lon="4.8628">
        <ele>276</ele>
        <time>2018-09-11T09:48:07Z</time>
      </trkpt>
      <trkpt lat="45.98436" lon="4.86275">
        <ele>276</ele>
        <time>2018-09-11T09:48:08Z</time>
      </trkpt>
      <trkpt lat="45.98435" lon="4.86265">
        <ele>275</ele>
        <time>2018-09-11T09:48:10Z</time>
      </trkpt>
      <trkpt lat="45.98435" lon="4.8626">
        <ele>275</ele>
        <time>2018-09-11T09:48:11Z</time>
      </trkpt>
      <trkpt lat="45.98434" lon="4.8625">
        <ele>275</ele>
        <time>2018-09-11T09:48:14Z</time>
      </trkpt>
      <trkpt lat="45.98433" lon="4.8624">
        <ele>275</ele>
        <time>2018-09-11T09:48:15Z</time>
      </trkpt>
      <trkpt lat="45.9843" lon="4.86229">
        <ele>275</ele>
        <time>2018-09-11T09:48:17Z</time>
      </trkpt>
      <trkpt lat="45.98429" lon="4.86223">
        <ele>275</ele>
        <time>2018-09-11T09:48:18Z</time>
      </trkpt>
      <trkpt lat="45.98426" lon="4.86212">
        <ele>275</ele>
        <time>2018-09-11T09:48:20Z</time>
      </trkpt>
      <trkpt lat="45.98425" lon="4.86206">
        <ele>275</ele>
        <time>2018-09-11T09:48:21Z</time>
      </trkpt>
      <trkpt lat="45.98423" lon="4.86195">
        <ele>275</ele>
        <time>2018-09-11T09:48:23Z</time>
      </trkpt>
      <trkpt lat="45.98421" lon="4.86188">
        <ele>275</ele>
        <time>2018-09-11T09:48:24Z</time>
      </trkpt>
      <trkpt lat="45.98421" lon="4.8618">
        <ele>275</ele>
        <time>2018-09-11T09:48:25Z</time>
      </trkpt>
      <trkpt lat="45.98419" lon="4.86173">
        <ele>276</ele>
        <time>2018-09-11T09:48:26Z</time>
      </trkpt>
      <trkpt lat="45.98418" lon="4.86161">
        <ele>276</ele>
        <time>2018-09-11T09:48:28Z</time>
      </trkpt>
      <trkpt lat="45.98417" lon="4.86156">
        <ele>276</ele>
        <time>2018-09-11T09:48:29Z</time>
      </trkpt>
      <trkpt lat="45.98415" lon="4.86143">
        <ele>276</ele>
        <time>2018-09-11T09:48:31Z</time>
      </trkpt>
      <trkpt lat="45.98414" lon="4.86136">
        <ele>276</ele>
        <time>2018-09-11T09:48:32Z</time>
      </trkpt>
      <trkpt lat="45.98414" lon="4.86125">
        <ele>277</ele>
        <time>2018-09-11T09:48:34Z</time>
      </trkpt>
      <trkpt lat="45.98414" lon="4.86116">
        <ele>277</ele>
        <time>2018-09-11T09:48:35Z</time>
      </trkpt>
      <trkpt lat="45.98412" lon="4.86109">
        <ele>277</ele>
        <time>2018-09-11T09:48:36Z</time>
      </trkpt>
      <trkpt lat="45.98411" lon="4.861">
        <ele>277</ele>
        <time>2018-09-11T09:48:37Z</time>
      </trkpt>
      <trkpt lat="45.98409" lon="4.86092">
        <ele>277</ele>
        <time>2018-09-11T09:48:38Z</time>
      </trkpt>
      <trkpt lat="45.98408" lon="4.86084">
        <ele>277</ele>
        <time>2018-09-11T09:48:39Z</time>
      </trkpt>
      <trkpt lat="45.98407" lon="4.86075">
        <ele>277</ele>
        <time>2018-09-11T09:48:40Z</time>
      </trkpt>
      <trkpt lat="45.98404" lon="4.86063">
        <ele>277</ele>
        <time>2018-09-11T09:48:41Z</time>
      </trkpt>
      <trkpt lat="45.98401" lon="4.86053">
        <ele>277</ele>
        <time>2018-09-11T09:48:42Z</time>
      </trkpt>
      <trkpt lat="45.98397" lon="4.86043">
        <ele>277</ele>
        <time>2018-09-11T09:48:43Z</time>
      </trkpt>
      <trkpt lat="45.98394" lon="4.86034">
        <ele>277</ele>
        <time>2018-09-11T09:48:44Z</time>
      </trkpt>
      <trkpt lat="45.9839" lon="4.86025">
        <ele>277</ele>
        <time>2018-09-11T09:48:45Z</time>
      </trkpt>
      <trkpt lat="45.98386" lon="4.86014">
        <ele>277</ele>
        <time>2018-09-11T09:48:46Z</time>
      </trkpt>
      <trkpt lat="45.98382" lon="4.86005">
        <ele>277</ele>
        <time>2018-09-11T09:48:47Z</time>
      </trkpt>
      <trkpt lat="45.98378" lon="4.85994">
        <ele>277</ele>
        <time>2018-09-11T09:48:48Z</time>
      </trkpt>
      <trkpt lat="45.98373" lon="4.85985">
        <ele>276</ele>
        <time>2018-09-11T09:48:49Z</time>
      </trkpt>
      <trkpt lat="45.98369" lon="4.85975">
        <ele>276</ele>
        <time>2018-09-11T09:48:50Z</time>
      </trkpt>
      <trkpt lat="45.98367" lon="4.85968">
        <ele>276</ele>
        <time>2018-09-11T09:48:51Z</time>
      </trkpt>
      <trkpt lat="45.98364" lon="4.8596">
        <ele>276</ele>
        <time>2018-09-11T09:48:52Z</time>
      </trkpt>
      <trkpt lat="45.98361" lon="4.85952">
        <ele>276</ele>
        <time>2018-09-11T09:48:53Z</time>
      </trkpt>
      <trkpt lat="45.98358" lon="4.85943">
        <ele>276</ele>
        <time>2018-09-11T09:48:54Z</time>
      </trkpt>
      <trkpt lat="45.98352" lon="4.85935">
        <ele>276</ele>
        <time>2018-09-11T09:48:55Z</time>
      </trkpt>
      <trkpt lat="45.9835" lon="4.85928">
        <ele>276</ele>
        <time>2018-09-11T09:48:56Z</time>
      </trkpt>
      <trkpt lat="45.98348" lon="4.85921">
        <ele>276</ele>
        <time>2018-09-11T09:48:57Z</time>
      </trkpt>
      <trkpt lat="45.98344" lon="4.85912">
        <ele>276</ele>
        <time>2018-09-11T09:48:58Z</time>
      </trkpt>
      <trkpt lat="45.98344" lon="4.85904">
        <ele>276</ele>
        <time>2018-09-11T09:48:59Z</time>
      </trkpt>
      <trkpt lat="45.98341" lon="4.85896">
        <ele>276</ele>
        <time>2018-09-11T09:49:00Z</time>
      </trkpt>
      <trkpt lat="45.98341" lon="4.85889">
        <ele>276</ele>
        <time>2018-09-11T09:49:01Z</time>
      </trkpt>
      <trkpt lat="45.98339" lon="4.85882">
        <ele>276</ele>
        <time>2018-09-11T09:49:02Z</time>
      </trkpt>
      <trkpt lat="45.98334" lon="4.85876">
        <ele>276</ele>
        <time>2018-09-11T09:49:03Z</time>
      </trkpt>
      <trkpt lat="45.98332" lon="4.85869">
        <ele>276</ele>
        <time>2018-09-11T09:49:04Z</time>
      </trkpt>
      <trkpt lat="45.98329" lon="4.85862">
        <ele>276</ele>
        <time>2018-09-11T09:49:05Z</time>
      </trkpt>
      <trkpt lat="45.98328" lon="4.85853">
        <ele>276</ele>
        <time>2018-09-11T09:49:06Z</time>
      </trkpt>
      <trkpt lat="45.9832" lon="4.85844">
        <ele>276</ele>
        <time>2018-09-11T09:49:07Z</time>
      </trkpt>
      <trkpt lat="45.98317" lon="4.85836">
        <ele>276</ele>
        <time>2018-09-11T09:49:08Z</time>
      </trkpt>
      <trkpt lat="45.98315" lon="4.85829">
        <ele>275</ele>
        <time>2018-09-11T09:49:09Z</time>
      </trkpt>
      <trkpt lat="45.9831" lon="4.85821">
        <ele>275</ele>
        <time>2018-09-11T09:49:10Z</time>
      </trkpt>
      <trkpt lat="45.98307" lon="4.85813">
        <ele>275</ele>
        <time>2018-09-11T09:49:11Z</time>
      </trkpt>
      <trkpt lat="45.98304" lon="4.85806">
        <ele>275</ele>
        <time>2018-09-11T09:49:12Z</time>
      </trkpt>
      <trkpt lat="45.98302" lon="4.85799">
        <ele>275</ele>
        <time>2018-09-11T09:49:13Z</time>
      </trkpt>
      <trkpt lat="45.98297" lon="4.85792">
        <ele>275</ele>
        <time>2018-09-11T09:49:14Z</time>
      </trkpt>
      <trkpt lat="45.98295" lon="4.85786">
        <ele>275</ele>
        <time>2018-09-11T09:49:15Z</time>
      </trkpt>
      <trkpt lat="45.98294" lon="4.85779">
        <ele>275</ele>
        <time>2018-09-11T09:49:16Z</time>
      </trkpt>
      <trkpt lat="45.98291" lon="4.85774">
        <ele>275</ele>
        <time>2018-09-11T09:49:17Z</time>
      </trkpt>
      <trkpt lat="45.98291" lon="4.85767">
        <ele>275</ele>
        <time>2018-09-11T09:49:18Z</time>
      </trkpt>
      <trkpt lat="45.98289" lon="4.85761">
        <ele>275</ele>
        <time>2018-09-11T09:49:19Z</time>
      </trkpt>
      <trkpt lat="45.98287" lon="4.85755">
        <ele>275</ele>
        <time>2018-09-11T09:49:20Z</time>
      </trkpt>
      <trkpt lat="45.98284" lon="4.85749">
        <ele>274</ele>
        <time>2018-09-11T09:49:21Z</time>
      </trkpt>
      <trkpt lat="45.9828" lon="4.85742">
        <ele>274</ele>
        <time>2018-09-11T09:49:22Z</time>
      </trkpt>
      <trkpt lat="45.98277" lon="4.85735">
        <ele>274</ele>
        <time>2018-09-11T09:49:23Z</time>
      </trkpt>
      <trkpt lat="45.98274" lon="4.85728">
        <ele>274</ele>
        <time>2018-09-11T09:49:24Z</time>
      </trkpt>
      <trkpt lat="45.98272" lon="4.85721">
        <ele>274</ele>
        <time>2018-09-11T09:49:25Z</time>
      </trkpt>
      <trkpt lat="45.98269" lon="4.85715">
        <ele>275</ele>
        <time>2018-09-11T09:49:26Z</time>
      </trkpt>
      <trkpt lat="45.98265" lon="4.85708">
        <ele>275</ele>
        <time>2018-09-11T09:49:27Z</time>
      </trkpt>
      <trkpt lat="45.98262" lon="4.85701">
        <ele>275</ele>
        <time>2018-09-11T09:49:28Z</time>
      </trkpt>
      <trkpt lat="45.9826" lon="4.85694">
        <ele>275</ele>
        <time>2018-09-11T09:49:29Z</time>
      </trkpt>
      <trkpt lat="45.98256" lon="4.85689">
        <ele>275</ele>
        <time>2018-09-11T09:49:30Z</time>
      </trkpt>
      <trkpt lat="45.98253" lon="4.85682">
        <ele>275</ele>
        <time>2018-09-11T09:49:31Z</time>
      </trkpt>
      <trkpt lat="45.9825" lon="4.85673">
        <ele>276</ele>
        <time>2018-09-11T09:49:32Z</time>
      </trkpt>
      <trkpt lat="45.98245" lon="4.85666">
        <ele>276</ele>
        <time>2018-09-11T09:49:33Z</time>
      </trkpt>
      <trkpt lat="45.9824" lon="4.85659">
        <ele>276</ele>
        <time>2018-09-11T09:49:34Z</time>
      </trkpt>
      <trkpt lat="45.98235" lon="4.85649">
        <ele>277</ele>
        <time>2018-09-11T09:49:35Z</time>
      </trkpt>
      <trkpt lat="45.98232" lon="4.85643">
        <ele>277</ele>
        <time>2018-09-11T09:49:36Z</time>
      </trkpt>
      <trkpt lat="45.98228" lon="4.85634">
        <ele>277</ele>
        <time>2018-09-11T09:49:37Z</time>
      </trkpt>
      <trkpt lat="45.98227" lon="4.85626">
        <ele>277</ele>
        <time>2018-09-11T09:49:38Z</time>
      </trkpt>
      <trkpt lat="45.98224" lon="4.85619">
        <ele>277</ele>
        <time>2018-09-11T09:49:39Z</time>
      </trkpt>
      <trkpt lat="45.98222" lon="4.85612">
        <ele>277</ele>
        <time>2018-09-11T09:49:40Z</time>
      </trkpt>
      <trkpt lat="45.9822" lon="4.85606">
        <ele>277</ele>
        <time>2018-09-11T09:49:41Z</time>
      </trkpt>
      <trkpt lat="45.98217" lon="4.85598">
        <ele>277</ele>
        <time>2018-09-11T09:49:42Z</time>
      </trkpt>
      <trkpt lat="45.98214" lon="4.85593">
        <ele>277</ele>
        <time>2018-09-11T09:49:43Z</time>
      </trkpt>
      <trkpt lat="45.98211" lon="4.85586">
        <ele>277</ele>
        <time>2018-09-11T09:49:44Z</time>
      </trkpt>
      <trkpt lat="45.98208" lon="4.85579">
        <ele>276</ele>
        <time>2018-09-11T09:49:45Z</time>
      </trkpt>
      <trkpt lat="45.98206" lon="4.85572">
        <ele>276</ele>
        <time>2018-09-11T09:49:46Z</time>
      </trkpt>
      <trkpt lat="45.98202" lon="4.85563">
        <ele>276</ele>
        <time>2018-09-11T09:49:47Z</time>
      </trkpt>
      <trkpt lat="45.98199" lon="4.85555">
        <ele>276</ele>
        <time>2018-09-11T09:49:48Z</time>
      </trkpt>
      <trkpt lat="45.98196" lon="4.85547">
        <ele>276</ele>
        <time>2018-09-11T09:49:49Z</time>
      </trkpt>
      <trkpt lat="45.98192" lon="4.85541">
        <ele>276</ele>
        <time>2018-09-11T09:49:50Z</time>
      </trkpt>
      <trkpt lat="45.98189" lon="4.85533">
        <ele>276</ele>
        <time>2018-09-11T09:49:51Z</time>
      </trkpt>
      <trkpt lat="45.98185" lon="4.85526">
        <ele>276</ele>
        <time>2018-09-11T09:49:52Z</time>
      </trkpt>
      <trkpt lat="45.98181" lon="4.85518">
        <ele>275</ele>
        <time>2018-09-11T09:49:53Z</time>
      </trkpt>
      <trkpt lat="45.98178" lon="4.85511">
        <ele>275</ele>
        <time>2018-09-11T09:49:54Z</time>
      </trkpt>
      <trkpt lat="45.98175" lon="4.85504">
        <ele>275</ele>
        <time>2018-09-11T09:49:55Z</time>
      </trkpt>
      <trkpt lat="45.98172" lon="4.85496">
        <ele>275</ele>
        <time>2018-09-11T09:49:56Z</time>
      </trkpt>
      <trkpt lat="45.98168" lon="4.8549">
        <ele>275</ele>
        <time>2018-09-11T09:49:57Z</time>
      </trkpt>
      <trkpt lat="45.98166" lon="4.85483">
        <ele>275</ele>
        <time>2018-09-11T09:49:58Z</time>
      </trkpt>
      <trkpt lat="45.98163" lon="4.85476">
        <ele>275</ele>
        <time>2018-09-11T09:49:59Z</time>
      </trkpt>
      <trkpt lat="45.9816" lon="4.85468">
        <ele>275</ele>
        <time>2018-09-11T09:50:00Z</time>
      </trkpt>
      <trkpt lat="45.98158" lon="4.85461">
        <ele>275</ele>
        <time>2018-09-11T09:50:01Z</time>
      </trkpt>
      <trkpt lat="45.98155" lon="4.85453">
        <ele>276</ele>
        <time>2018-09-11T09:50:02Z</time>
      </trkpt>
      <trkpt lat="45.98152" lon="4.85446">
        <ele>276</ele>
        <time>2018-09-11T09:50:03Z</time>
      </trkpt>
      <trkpt lat="45.98149" lon="4.85441">
        <ele>276</ele>
        <time>2018-09-11T09:50:04Z</time>
      </trkpt>
      <trkpt lat="45.98147" lon="4.85435">
        <ele>276</ele>
        <time>2018-09-11T09:50:05Z</time>
      </trkpt>
      <trkpt lat="45.98144" lon="4.85428">
        <ele>276</ele>
        <time>2018-09-11T09:50:06Z</time>
      </trkpt>
      <trkpt lat="45.98141" lon="4.85421">
        <ele>276</ele>
        <time>2018-09-11T09:50:07Z</time>
      </trkpt>
      <trkpt lat="45.98139" lon="4.85414">
        <ele>276</ele>
        <time>2018-09-11T09:50:08Z</time>
      </trkpt>
      <trkpt lat="45.98137" lon="4.85408">
        <ele>276</ele>
        <time>2018-09-11T09:50:09Z</time>
      </trkpt>
      <trkpt lat="45.98134" lon="4.85402">
        <ele>276</ele>
        <time>2018-09-11T09:50:10Z</time>
      </trkpt>
      <trkpt lat="45.98132" lon="4.85395">
        <ele>276</ele>
        <time>2018-09-11T09:50:11Z</time>
      </trkpt>
      <trkpt lat="45.98129" lon="4.8539">
        <ele>276</ele>
        <time>2018-09-11T09:50:12Z</time>
      </trkpt>
      <trkpt lat="45.98127" lon="4.85383">
        <ele>276</ele>
        <time>2018-09-11T09:50:13Z</time>
      </trkpt>
      <trkpt lat="45.98124" lon="4.85377">
        <ele>276</ele>
        <time>2018-09-11T09:50:14Z</time>
      </trkpt>
      <trkpt lat="45.98122" lon="4.85371">
        <ele>276</ele>
        <time>2018-09-11T09:50:15Z</time>
      </trkpt>
      <trkpt lat="45.98118" lon="4.85365">
        <ele>276</ele>
        <time>2018-09-11T09:50:16Z</time>
      </trkpt>
      <trkpt lat="45.98116" lon="4.85358">
        <ele>276</ele>
        <time>2018-09-11T09:50:17Z</time>
      </trkpt>
      <trkpt lat="45.98114" lon="4.85351">
        <ele>276</ele>
        <time>2018-09-11T09:50:18Z</time>
      </trkpt>
      <trkpt lat="45.98112" lon="4.85345">
        <ele>276</ele>
        <time>2018-09-11T09:50:19Z</time>
      </trkpt>
      <trkpt lat="45.9811" lon="4.85339">
        <ele>276</ele>
        <time>2018-09-11T09:50:20Z</time>
      </trkpt>
      <trkpt lat="45.98107" lon="4.85332">
        <ele>276</ele>
        <time>2018-09-11T09:50:21Z</time>
      </trkpt>
      <trkpt lat="45.98104" lon="4.85327">
        <ele>276</ele>
        <time>2018-09-11T09:50:22Z</time>
      </trkpt>
      <trkpt lat="45.98102" lon="4.85322">
        <ele>276</ele>
        <time>2018-09-11T09:50:23Z</time>
      </trkpt>
      <trkpt lat="45.98099" lon="4.85316">
        <ele>276</ele>
        <time>2018-09-11T09:50:24Z</time>
      </trkpt>
      <trkpt lat="45.98097" lon="4.85309">
        <ele>276</ele>
        <time>2018-09-11T09:50:25Z</time>
      </trkpt>
      <trkpt lat="45.98093" lon="4.85299">
        <ele>276</ele>
        <time>2018-09-11T09:50:27Z</time>
      </trkpt>
      <trkpt lat="45.9809" lon="4.85294">
        <ele>276</ele>
        <time>2018-09-11T09:50:28Z</time>
      </trkpt>
      <trkpt lat="45.98087" lon="4.85289">
        <ele>276</ele>
        <time>2018-09-11T09:50:29Z</time>
      </trkpt>
      <trkpt lat="45.98086" lon="4.85281">
        <ele>276</ele>
        <time>2018-09-11T09:50:30Z</time>
      </trkpt>
      <trkpt lat="45.98083" lon="4.85275">
        <ele>276</ele>
        <time>2018-09-11T09:50:31Z</time>
      </trkpt>
      <trkpt lat="45.98078" lon="4.8527">
        <ele>276</ele>
        <time>2018-09-11T09:50:32Z</time>
      </trkpt>
      <trkpt lat="45.98075" lon="4.85265">
        <ele>276</ele>
        <time>2018-09-11T09:50:33Z</time>
      </trkpt>
      <trkpt lat="45.98072" lon="4.85259">
        <ele>276</ele>
        <time>2018-09-11T09:50:34Z</time>
      </trkpt>
      <trkpt lat="45.98066" lon="4.8525">
        <ele>276</ele>
        <time>2018-09-11T09:50:36Z</time>
      </trkpt>
      <trkpt lat="45.98064" lon="4.85245">
        <ele>276</ele>
        <time>2018-09-11T09:50:37Z</time>
      </trkpt>
      <trkpt lat="45.9806" lon="4.85235">
        <ele>276</ele>
        <time>2018-09-11T09:50:39Z</time>
      </trkpt>
      <trkpt lat="45.98058" lon="4.8523">
        <ele>276</ele>
        <time>2018-09-11T09:50:40Z</time>
      </trkpt>
      <trkpt lat="45.98056" lon="4.85218">
        <ele>276</ele>
        <time>2018-09-11T09:50:44Z</time>
      </trkpt>
      <trkpt lat="45.98055" lon="4.85214">
        <ele>276</ele>
        <time>2018-09-11T09:50:45Z</time>
      </trkpt>
      <trkpt lat="45.98051" lon="4.85204">
        <ele>276</ele>
        <time>2018-09-11T09:50:46Z</time>
      </trkpt>
      <trkpt lat="45.98049" lon="4.85199">
        <ele>276</ele>
        <time>2018-09-11T09:50:47Z</time>
      </trkpt>
      <trkpt lat="45.98046" lon="4.85189">
        <ele>276</ele>
        <time>2018-09-11T09:50:49Z</time>
      </trkpt>
      <trkpt lat="45.98044" lon="4.85182">
        <ele>276</ele>
        <time>2018-09-11T09:50:50Z</time>
      </trkpt>
      <trkpt lat="45.98039" lon="4.85172">
        <ele>275</ele>
        <time>2018-09-11T09:50:52Z</time>
      </trkpt>
      <trkpt lat="45.98037" lon="4.85166">
        <ele>275</ele>
        <time>2018-09-11T09:50:53Z</time>
      </trkpt>
      <trkpt lat="45.98035" lon="4.85159">
        <ele>275</ele>
        <time>2018-09-11T09:50:54Z</time>
      </trkpt>
      <trkpt lat="45.98033" lon="4.85152">
        <ele>275</ele>
        <time>2018-09-11T09:50:55Z</time>
      </trkpt>
      <trkpt lat="45.98031" lon="4.85146">
        <ele>275</ele>
        <time>2018-09-11T09:50:56Z</time>
      </trkpt>
      <trkpt lat="45.98029" lon="4.85138">
        <ele>275</ele>
        <time>2018-09-11T09:50:57Z</time>
      </trkpt>
      <trkpt lat="45.98027" lon="4.85131">
        <ele>274</ele>
        <time>2018-09-11T09:50:58Z</time>
      </trkpt>
      <trkpt lat="45.98025" lon="4.85124">
        <ele>274</ele>
        <time>2018-09-11T09:50:59Z</time>
      </trkpt>
      <trkpt lat="45.98024" lon="4.85117">
        <ele>274</ele>
        <time>2018-09-11T09:51:00Z</time>
      </trkpt>
      <trkpt lat="45.98022" lon="4.85109">
        <ele>274</ele>
        <time>2018-09-11T09:51:01Z</time>
      </trkpt>
      <trkpt lat="45.98022" lon="4.85101">
        <ele>274</ele>
        <time>2018-09-11T09:51:02Z</time>
      </trkpt>
      <trkpt lat="45.98021" lon="4.85093">
        <ele>274</ele>
        <time>2018-09-11T09:51:03Z</time>
      </trkpt>
      <trkpt lat="45.9802" lon="4.85084">
        <ele>274</ele>
        <time>2018-09-11T09:51:04Z</time>
      </trkpt>
      <trkpt lat="45.98019" lon="4.85073">
        <ele>273</ele>
        <time>2018-09-11T09:51:05Z</time>
      </trkpt>
      <trkpt lat="45.98017" lon="4.85067">
        <ele>273</ele>
        <time>2018-09-11T09:51:06Z</time>
      </trkpt>
      <trkpt lat="45.98017" lon="4.85059">
        <ele>273</ele>
        <time>2018-09-11T09:51:07Z</time>
      </trkpt>
      <trkpt lat="45.98017" lon="4.85051">
        <ele>273</ele>
        <time>2018-09-11T09:51:08Z</time>
      </trkpt>
      <trkpt lat="45.98017" lon="4.85044">
        <ele>273</ele>
        <time>2018-09-11T09:51:09Z</time>
      </trkpt>
      <trkpt lat="45.98018" lon="4.85037">
        <ele>273</ele>
        <time>2018-09-11T09:51:10Z</time>
      </trkpt>
      <trkpt lat="45.98018" lon="4.8503">
        <ele>273</ele>
        <time>2018-09-11T09:51:11Z</time>
      </trkpt>
      <trkpt lat="45.98018" lon="4.85023">
        <ele>273</ele>
        <time>2018-09-11T09:51:12Z</time>
      </trkpt>
      <trkpt lat="45.98017" lon="4.85016">
        <ele>273</ele>
        <time>2018-09-11T09:51:13Z</time>
      </trkpt>
      <trkpt lat="45.98016" lon="4.8501">
        <ele>272</ele>
        <time>2018-09-11T09:51:14Z</time>
      </trkpt>
      <trkpt lat="45.98015" lon="4.85002">
        <ele>272</ele>
        <time>2018-09-11T09:51:15Z</time>
      </trkpt>
      <trkpt lat="45.98013" lon="4.8499">
        <ele>272</ele>
        <time>2018-09-11T09:51:17Z</time>
      </trkpt>
      <trkpt lat="45.98012" lon="4.84982">
        <ele>272</ele>
        <time>2018-09-11T09:51:18Z</time>
      </trkpt>
      <trkpt lat="45.98011" lon="4.84974">
        <ele>272</ele>
        <time>2018-09-11T09:51:19Z</time>
      </trkpt>
      <trkpt lat="45.98012" lon="4.84966">
        <ele>272</ele>
        <time>2018-09-11T09:51:20Z</time>
      </trkpt>
      <trkpt lat="45.98012" lon="4.84958">
        <ele>272</ele>
        <time>2018-09-11T09:51:21Z</time>
      </trkpt>
      <trkpt lat="45.9801" lon="4.84951">
        <ele>272</ele>
        <time>2018-09-11T09:51:22Z</time>
      </trkpt>
      <trkpt lat="45.98009" lon="4.84939">
        <ele>272</ele>
        <time>2018-09-11T09:51:24Z</time>
      </trkpt>
      <trkpt lat="45.98008" lon="4.84932">
        <ele>272</ele>
        <time>2018-09-11T09:51:25Z</time>
      </trkpt>
      <trkpt lat="45.98008" lon="4.84925">
        <ele>272</ele>
        <time>2018-09-11T09:51:26Z</time>
      </trkpt>
      <trkpt lat="45.98007" lon="4.84919">
        <ele>272</ele>
        <time>2018-09-11T09:51:27Z</time>
      </trkpt>
      <trkpt lat="45.98006" lon="4.84912">
        <ele>272</ele>
        <time>2018-09-11T09:51:28Z</time>
      </trkpt>
      <trkpt lat="45.98006" lon="4.84904">
        <ele>272</ele>
        <time>2018-09-11T09:51:29Z</time>
      </trkpt>
      <trkpt lat="45.98005" lon="4.84892">
        <ele>272</ele>
        <time>2018-09-11T09:51:31Z</time>
      </trkpt>
      <trkpt lat="45.98004" lon="4.84886">
        <ele>272</ele>
        <time>2018-09-11T09:51:32Z</time>
      </trkpt>
      <trkpt lat="45.98004" lon="4.8488">
        <ele>272</ele>
        <time>2018-09-11T09:51:33Z</time>
      </trkpt>
      <trkpt lat="45.98003" lon="4.84872">
        <ele>272</ele>
        <time>2018-09-11T09:51:34Z</time>
      </trkpt>
      <trkpt lat="45.98002" lon="4.84863">
        <ele>272</ele>
        <time>2018-09-11T09:51:35Z</time>
      </trkpt>
      <trkpt lat="45.98002" lon="4.84857">
        <ele>272</ele>
        <time>2018-09-11T09:51:36Z</time>
      </trkpt>
      <trkpt lat="45.98002" lon="4.8485">
        <ele>272</ele>
        <time>2018-09-11T09:51:37Z</time>
      </trkpt>
      <trkpt lat="45.98003" lon="4.84841">
        <ele>272</ele>
        <time>2018-09-11T09:51:38Z</time>
      </trkpt>
      <trkpt lat="45.98001" lon="4.84833">
        <ele>272</ele>
        <time>2018-09-11T09:51:39Z</time>
      </trkpt>
      <trkpt lat="45.97999" lon="4.84828">
        <ele>272</ele>
        <time>2018-09-11T09:51:40Z</time>
      </trkpt>
      <trkpt lat="45.97997" lon="4.84821">
        <ele>273</ele>
        <time>2018-09-11T09:51:41Z</time>
      </trkpt>
      <trkpt lat="45.97997" lon="4.84814">
        <ele>273</ele>
        <time>2018-09-11T09:51:42Z</time>
      </trkpt>
      <trkpt lat="45.97997" lon="4.84805">
        <ele>274</ele>
        <time>2018-09-11T09:51:43Z</time>
      </trkpt>
      <trkpt lat="45.97995" lon="4.84796">
        <ele>274</ele>
        <time>2018-09-11T09:51:44Z</time>
      </trkpt>
      <trkpt lat="45.97994" lon="4.84789">
        <ele>274</ele>
        <time>2018-09-11T09:51:45Z</time>
      </trkpt>
      <trkpt lat="45.97993" lon="4.84783">
        <ele>274</ele>
        <time>2018-09-11T09:51:46Z</time>
      </trkpt>
      <trkpt lat="45.97993" lon="4.84775">
        <ele>274</ele>
        <time>2018-09-11T09:51:47Z</time>
      </trkpt>
      <trkpt lat="45.97994" lon="4.84768">
        <ele>275</ele>
        <time>2018-09-11T09:51:48Z</time>
      </trkpt>
      <trkpt lat="45.97993" lon="4.84761">
        <ele>275</ele>
        <time>2018-09-11T09:51:49Z</time>
      </trkpt>
      <trkpt lat="45.97993" lon="4.84754">
        <ele>275</ele>
        <time>2018-09-11T09:51:50Z</time>
      </trkpt>
      <trkpt lat="45.97992" lon="4.84746">
        <ele>275</ele>
        <time>2018-09-11T09:51:51Z</time>
      </trkpt>
      <trkpt lat="45.97993" lon="4.84738">
        <ele>275</ele>
        <time>2018-09-11T09:51:52Z</time>
      </trkpt>
      <trkpt lat="45.97992" lon="4.84731">
        <ele>275</ele>
        <time>2018-09-11T09:51:53Z</time>
      </trkpt>
      <trkpt lat="45.97991" lon="4.84723">
        <ele>275</ele>
        <time>2018-09-11T09:51:54Z</time>
      </trkpt>
      <trkpt lat="45.9799" lon="4.84711">
        <ele>275</ele>
        <time>2018-09-11T09:51:56Z</time>
      </trkpt>
      <trkpt lat="45.97989" lon="4.84704">
        <ele>275</ele>
        <time>2018-09-11T09:51:57Z</time>
      </trkpt>
      <trkpt lat="45.97991" lon="4.84696">
        <ele>275</ele>
        <time>2018-09-11T09:51:58Z</time>
      </trkpt>
      <trkpt lat="45.9799" lon="4.84688">
        <ele>275</ele>
        <time>2018-09-11T09:51:59Z</time>
      </trkpt>
      <trkpt lat="45.97989" lon="4.84682">
        <ele>275</ele>
        <time>2018-09-11T09:52:00Z</time>
      </trkpt>
      <trkpt lat="45.97988" lon="4.84673">
        <ele>275</ele>
        <time>2018-09-11T09:52:01Z</time>
      </trkpt>
      <trkpt lat="45.97986" lon="4.84665">
        <ele>274</ele>
        <time>2018-09-11T09:52:02Z</time>
      </trkpt>
      <trkpt lat="45.97984" lon="4.84656">
        <ele>274</ele>
        <time>2018-09-11T09:52:03Z</time>
      </trkpt>
      <trkpt lat="45.97983" lon="4.84648">
        <ele>275</ele>
        <time>2018-09-11T09:52:04Z</time>
      </trkpt>
      <trkpt lat="45.97982" lon="4.8464">
        <ele>275</ele>
        <time>2018-09-11T09:52:05Z</time>
      </trkpt>
      <trkpt lat="45.9798" lon="4.84633">
        <ele>275</ele>
        <time>2018-09-11T09:52:06Z</time>
      </trkpt>
      <trkpt lat="45.97978" lon="4.84626">
        <ele>275</ele>
        <time>2018-09-11T09:52:07Z</time>
      </trkpt>
      <trkpt lat="45.97977" lon="4.84619">
        <ele>275</ele>
        <time>2018-09-11T09:52:08Z</time>
      </trkpt>
      <trkpt lat="45.97976" lon="4.84611">
        <ele>275</ele>
        <time>2018-09-11T09:52:09Z</time>
      </trkpt>
      <trkpt lat="45.97975" lon="4.84605">
        <ele>275</ele>
        <time>2018-09-11T09:52:10Z</time>
      </trkpt>
      <trkpt lat="45.97974" lon="4.84597">
        <ele>275</ele>
        <time>2018-09-11T09:52:11Z</time>
      </trkpt>
      <trkpt lat="45.97973" lon="4.8459">
        <ele>275</ele>
        <time>2018-09-11T09:52:12Z</time>
      </trkpt>
      <trkpt lat="45.9797" lon="4.84582">
        <ele>275</ele>
        <time>2018-09-11T09:52:13Z</time>
      </trkpt>
      <trkpt lat="45.9797" lon="4.84575">
        <ele>275</ele>
        <time>2018-09-11T09:52:14Z</time>
      </trkpt>
      <trkpt lat="45.97969" lon="4.84567">
        <ele>275</ele>
        <time>2018-09-11T09:52:15Z</time>
      </trkpt>
      <trkpt lat="45.97967" lon="4.84559">
        <ele>275</ele>
        <time>2018-09-11T09:52:16Z</time>
      </trkpt>
      <trkpt lat="45.97966" lon="4.84551">
        <ele>275</ele>
        <time>2018-09-11T09:52:17Z</time>
      </trkpt>
      <trkpt lat="45.97965" lon="4.84543">
        <ele>275</ele>
        <time>2018-09-11T09:52:18Z</time>
      </trkpt>
      <trkpt lat="45.97962" lon="4.84535">
        <ele>275</ele>
        <time>2018-09-11T09:52:19Z</time>
      </trkpt>
      <trkpt lat="45.97961" lon="4.84526">
        <ele>275</ele>
        <time>2018-09-11T09:52:20Z</time>
      </trkpt>
      <trkpt lat="45.9796" lon="4.84518">
        <ele>275</ele>
        <time>2018-09-11T09:52:21Z</time>
      </trkpt>
      <trkpt lat="45.97958" lon="4.84511">
        <ele>275</ele>
        <time>2018-09-11T09:52:22Z</time>
      </trkpt>
      <trkpt lat="45.97956" lon="4.84503">
        <ele>275</ele>
        <time>2018-09-11T09:52:23Z</time>
      </trkpt>
      <trkpt lat="45.97954" lon="4.84495">
        <ele>275</ele>
        <time>2018-09-11T09:52:24Z</time>
      </trkpt>
      <trkpt lat="45.97953" lon="4.84486">
        <ele>275</ele>
        <time>2018-09-11T09:52:25Z</time>
      </trkpt>
      <trkpt lat="45.97952" lon="4.84478">
        <ele>275</ele>
        <time>2018-09-11T09:52:26Z</time>
      </trkpt>
      <trkpt lat="45.97951" lon="4.84471">
        <ele>275</ele>
        <time>2018-09-11T09:52:27Z</time>
      </trkpt>
      <trkpt lat="45.9795" lon="4.84463">
        <ele>275</ele>
        <time>2018-09-11T09:52:28Z</time>
      </trkpt>
      <trkpt lat="45.9795" lon="4.84455">
        <ele>275</ele>
        <time>2018-09-11T09:52:29Z</time>
      </trkpt>
      <trkpt lat="45.97949" lon="4.84448">
        <ele>275</ele>
        <time>2018-09-11T09:52:30Z</time>
      </trkpt>
      <trkpt lat="45.97947" lon="4.8444">
        <ele>275</ele>
        <time>2018-09-11T09:52:31Z</time>
      </trkpt>
      <trkpt lat="45.97947" lon="4.84434">
        <ele>275</ele>
        <time>2018-09-11T09:52:32Z</time>
      </trkpt>
      <trkpt lat="45.97945" lon="4.84426">
        <ele>275</ele>
        <time>2018-09-11T09:52:33Z</time>
      </trkpt>
      <trkpt lat="45.97945" lon="4.8442">
        <ele>275</ele>
        <time>2018-09-11T09:52:34Z</time>
      </trkpt>
      <trkpt lat="45.97944" lon="4.84411">
        <ele>275</ele>
        <time>2018-09-11T09:52:35Z</time>
      </trkpt>
      <trkpt lat="45.97942" lon="4.84402">
        <ele>275</ele>
        <time>2018-09-11T09:52:36Z</time>
      </trkpt>
      <trkpt lat="45.97939" lon="4.84394">
        <ele>275</ele>
        <time>2018-09-11T09:52:37Z</time>
      </trkpt>
      <trkpt lat="45.97937" lon="4.84387">
        <ele>275</ele>
        <time>2018-09-11T09:52:38Z</time>
      </trkpt>
      <trkpt lat="45.97935" lon="4.84379">
        <ele>275</ele>
        <time>2018-09-11T09:52:39Z</time>
      </trkpt>
      <trkpt lat="45.97934" lon="4.84372">
        <ele>275</ele>
        <time>2018-09-11T09:52:40Z</time>
      </trkpt>
      <trkpt lat="45.97934" lon="4.84364">
        <ele>275</ele>
        <time>2018-09-11T09:52:41Z</time>
      </trkpt>
      <trkpt lat="45.97933" lon="4.84356">
        <ele>275</ele>
        <time>2018-09-11T09:52:42Z</time>
      </trkpt>
      <trkpt lat="45.97931" lon="4.84349">
        <ele>275</ele>
        <time>2018-09-11T09:52:43Z</time>
      </trkpt>
      <trkpt lat="45.9793" lon="4.84341">
        <ele>275</ele>
        <time>2018-09-11T09:52:44Z</time>
      </trkpt>
      <trkpt lat="45.97929" lon="4.84333">
        <ele>275</ele>
        <time>2018-09-11T09:52:45Z</time>
      </trkpt>
      <trkpt lat="45.97928" lon="4.84326">
        <ele>275</ele>
        <time>2018-09-11T09:52:46Z</time>
      </trkpt>
      <trkpt lat="45.97928" lon="4.84318">
        <ele>275</ele>
        <time>2018-09-11T09:52:47Z</time>
      </trkpt>
      <trkpt lat="45.97926" lon="4.84311">
        <ele>275</ele>
        <time>2018-09-11T09:52:48Z</time>
      </trkpt>
      <trkpt lat="45.97926" lon="4.84303">
        <ele>275</ele>
        <time>2018-09-11T09:52:49Z</time>
      </trkpt>
      <trkpt lat="45.97924" lon="4.84295">
        <ele>275</ele>
        <time>2018-09-11T09:52:50Z</time>
      </trkpt>
      <trkpt lat="45.97923" lon="4.84288">
        <ele>275</ele>
        <time>2018-09-11T09:52:51Z</time>
      </trkpt>
      <trkpt lat="45.97924" lon="4.84276">
        <ele>275</ele>
        <time>2018-09-11T09:52:53Z</time>
      </trkpt>
      <trkpt lat="45.97925" lon="4.8427">
        <ele>275</ele>
        <time>2018-09-11T09:52:54Z</time>
      </trkpt>
      <trkpt lat="45.97928" lon="4.84265">
        <ele>275</ele>
        <time>2018-09-11T09:52:55Z</time>
      </trkpt>
      <trkpt lat="45.97932" lon="4.8426">
        <ele>275</ele>
        <time>2018-09-11T09:52:56Z</time>
      </trkpt>
      <trkpt lat="45.97936" lon="4.84256">
        <ele>275</ele>
        <time>2018-09-11T09:52:57Z</time>
      </trkpt>
      <trkpt lat="45.97941" lon="4.84252">
        <ele>275</ele>
        <time>2018-09-11T09:52:58Z</time>
      </trkpt>
      <trkpt lat="45.97946" lon="4.84247">
        <ele>275</ele>
        <time>2018-09-11T09:52:59Z</time>
      </trkpt>
      <trkpt lat="45.97951" lon="4.84243">
        <ele>275</ele>
        <time>2018-09-11T09:53:00Z</time>
      </trkpt>
      <trkpt lat="45.97955" lon="4.84239">
        <ele>275</ele>
        <time>2018-09-11T09:53:01Z</time>
      </trkpt>
      <trkpt lat="45.97961" lon="4.84235">
        <ele>274</ele>
        <time>2018-09-11T09:53:02Z</time>
      </trkpt>
      <trkpt lat="45.97966" lon="4.8423">
        <ele>274</ele>
        <time>2018-09-11T09:53:03Z</time>
      </trkpt>
      <trkpt lat="45.97971" lon="4.84226">
        <ele>274</ele>
        <time>2018-09-11T09:53:04Z</time>
      </trkpt>
      <trkpt lat="45.97976" lon="4.84221">
        <ele>274</ele>
        <time>2018-09-11T09:53:05Z</time>
      </trkpt>
      <trkpt lat="45.97981" lon="4.84217">
        <ele>274</ele>
        <time>2018-09-11T09:53:06Z</time>
      </trkpt>
      <trkpt lat="45.97986" lon="4.84211">
        <ele>274</ele>
        <time>2018-09-11T09:53:07Z</time>
      </trkpt>
      <trkpt lat="45.9799" lon="4.84206">
        <ele>274</ele>
        <time>2018-09-11T09:53:08Z</time>
      </trkpt>
      <trkpt lat="45.97995" lon="4.84202">
        <ele>274</ele>
        <time>2018-09-11T09:53:09Z</time>
      </trkpt>
      <trkpt lat="45.98" lon="4.84199">
        <ele>274</ele>
        <time>2018-09-11T09:53:10Z</time>
      </trkpt>
      <trkpt lat="45.98005" lon="4.84196">
        <ele>274</ele>
        <time>2018-09-11T09:53:11Z</time>
      </trkpt>
      <trkpt lat="45.98009" lon="4.84192">
        <ele>274</ele>
        <time>2018-09-11T09:53:12Z</time>
      </trkpt>
      <trkpt lat="45.98013" lon="4.84188">
        <ele>274</ele>
        <time>2018-09-11T09:53:13Z</time>
      </trkpt>
      <trkpt lat="45.98018" lon="4.84183">
        <ele>274</ele>
        <time>2018-09-11T09:53:14Z</time>
      </trkpt>
      <trkpt lat="45.98024" lon="4.84177">
        <ele>274</ele>
        <time>2018-09-11T09:53:15Z</time>
      </trkpt>
      <trkpt lat="45.98028" lon="4.84172">
        <ele>274</ele>
        <time>2018-09-11T09:53:16Z</time>
      </trkpt>
      <trkpt lat="45.98032" lon="4.84166">
        <ele>273</ele>
        <time>2018-09-11T09:53:17Z</time>
      </trkpt>
      <trkpt lat="45.98037" lon="4.8416">
        <ele>273</ele>
        <time>2018-09-11T09:53:18Z</time>
      </trkpt>
      <trkpt lat="45.98042" lon="4.84155">
        <ele>273</ele>
        <time>2018-09-11T09:53:19Z</time>
      </trkpt>
      <trkpt lat="45.98047" lon="4.84151">
        <ele>273</ele>
        <time>2018-09-11T09:53:20Z</time>
      </trkpt>
      <trkpt lat="45.98052" lon="4.84146">
        <ele>273</ele>
        <time>2018-09-11T09:53:21Z</time>
      </trkpt>
      <trkpt lat="45.98057" lon="4.8414">
        <ele>273</ele>
        <time>2018-09-11T09:53:22Z</time>
      </trkpt>
      <trkpt lat="45.98062" lon="4.84135">
        <ele>273</ele>
        <time>2018-09-11T09:53:23Z</time>
      </trkpt>
      <trkpt lat="45.98067" lon="4.8413">
        <ele>273</ele>
        <time>2018-09-11T09:53:24Z</time>
      </trkpt>
      <trkpt lat="45.98072" lon="4.84126">
        <ele>273</ele>
        <time>2018-09-11T09:53:25Z</time>
      </trkpt>
      <trkpt lat="45.98076" lon="4.84121">
        <ele>273</ele>
        <time>2018-09-11T09:53:26Z</time>
      </trkpt>
      <trkpt lat="45.9808" lon="4.84118">
        <ele>273</ele>
        <time>2018-09-11T09:53:27Z</time>
      </trkpt>
      <trkpt lat="45.98085" lon="4.84114">
        <ele>273</ele>
        <time>2018-09-11T09:53:28Z</time>
      </trkpt>
      <trkpt lat="45.9809" lon="4.8411">
        <ele>273</ele>
        <time>2018-09-11T09:53:29Z</time>
      </trkpt>
      <trkpt lat="45.98094" lon="4.84105">
        <ele>273</ele>
        <time>2018-09-11T09:53:30Z</time>
      </trkpt>
      <trkpt lat="45.98099" lon="4.84101">
        <ele>273</ele>
        <time>2018-09-11T09:53:31Z</time>
      </trkpt>
      <trkpt lat="45.98104" lon="4.84096">
        <ele>273</ele>
        <time>2018-09-11T09:53:32Z</time>
      </trkpt>
      <trkpt lat="45.98109" lon="4.84092">
        <ele>273</ele>
        <time>2018-09-11T09:53:33Z</time>
      </trkpt>
      <trkpt lat="45.98113" lon="4.84088">
        <ele>273</ele>
        <time>2018-09-11T09:53:34Z</time>
      </trkpt>
      <trkpt lat="45.98118" lon="4.84083">
        <ele>273</ele>
        <time>2018-09-11T09:53:35Z</time>
      </trkpt>
      <trkpt lat="45.98123" lon="4.84078">
        <ele>273</ele>
        <time>2018-09-11T09:53:36Z</time>
      </trkpt>
      <trkpt lat="45.98127" lon="4.84074">
        <ele>273</ele>
        <time>2018-09-11T09:53:37Z</time>
      </trkpt>
      <trkpt lat="45.98131" lon="4.84069">
        <ele>273</ele>
        <time>2018-09-11T09:53:38Z</time>
      </trkpt>
      <trkpt lat="45.98135" lon="4.84064">
        <ele>273</ele>
        <time>2018-09-11T09:53:39Z</time>
      </trkpt>
      <trkpt lat="45.9814" lon="4.84059">
        <ele>273</ele>
        <time>2018-09-11T09:53:40Z</time>
      </trkpt>
      <trkpt lat="45.98144" lon="4.84054">
        <ele>273</ele>
        <time>2018-09-11T09:53:41Z</time>
      </trkpt>
      <trkpt lat="45.98148" lon="4.8405">
        <ele>273</ele>
        <time>2018-09-11T09:53:42Z</time>
      </trkpt>
      <trkpt lat="45.98151" lon="4.84046">
        <ele>273</ele>
        <time>2018-09-11T09:53:43Z</time>
      </trkpt>
      <trkpt lat="45.98155" lon="4.84041">
        <ele>273</ele>
        <time>2018-09-11T09:53:44Z</time>
      </trkpt>
      <trkpt lat="45.98158" lon="4.84035">
        <ele>273</ele>
        <time>2018-09-11T09:53:45Z</time>
      </trkpt>
      <trkpt lat="45.9816" lon="4.84029">
        <ele>273</ele>
        <time>2018-09-11T09:53:46Z</time>
      </trkpt>
      <trkpt lat="45.98165" lon="4.84019">
        <ele>273</ele>
        <time>2018-09-11T09:53:48Z</time>
      </trkpt>
      <trkpt lat="45.98168" lon="4.84013">
        <ele>273</ele>
        <time>2018-09-11T09:53:49Z</time>
      </trkpt>
      <trkpt lat="45.9817" lon="4.84006">
        <ele>273</ele>
        <time>2018-09-11T09:53:50Z</time>
      </trkpt>
      <trkpt lat="45.98173" lon="4.83997">
        <ele>273</ele>
        <time>2018-09-11T09:53:51Z</time>
      </trkpt>
      <trkpt lat="45.98176" lon="4.83994">
        <ele>273</ele>
        <time>2018-09-11T09:53:52Z</time>
      </trkpt>
      <trkpt lat="45.9818" lon="4.83987">
        <ele>273</ele>
        <time>2018-09-11T09:53:53Z</time>
      </trkpt>
      <trkpt lat="45.98183" lon="4.8398">
        <ele>273</ele>
        <time>2018-09-11T09:53:54Z</time>
      </trkpt>
      <trkpt lat="45.98186" lon="4.83974">
        <ele>273</ele>
        <time>2018-09-11T09:53:55Z</time>
      </trkpt>
      <trkpt lat="45.98189" lon="4.83967">
        <ele>273</ele>
        <time>2018-09-11T09:53:56Z</time>
      </trkpt>
      <trkpt lat="45.98193" lon="4.83957">
        <ele>273</ele>
        <time>2018-09-11T09:53:57Z</time>
      </trkpt>
      <trkpt lat="45.98196" lon="4.83951">
        <ele>273</ele>
        <time>2018-09-11T09:53:58Z</time>
      </trkpt>
      <trkpt lat="45.98198" lon="4.83944">
        <ele>273</ele>
        <time>2018-09-11T09:53:59Z</time>
      </trkpt>
      <trkpt lat="45.982" lon="4.83938">
        <ele>273</ele>
        <time>2018-09-11T09:54:00Z</time>
      </trkpt>
      <trkpt lat="45.98203" lon="4.83932">
        <ele>273</ele>
        <time>2018-09-11T09:54:01Z</time>
      </trkpt>
      <trkpt lat="45.98206" lon="4.83925">
        <ele>273</ele>
        <time>2018-09-11T09:54:02Z</time>
      </trkpt>
      <trkpt lat="45.98209" lon="4.83918">
        <ele>273</ele>
        <time>2018-09-11T09:54:03Z</time>
      </trkpt>
      <trkpt lat="45.98212" lon="4.8391">
        <ele>273</ele>
        <time>2018-09-11T09:54:04Z</time>
      </trkpt>
      <trkpt lat="45.98214" lon="4.83904">
        <ele>273</ele>
        <time>2018-09-11T09:54:05Z</time>
      </trkpt>
      <trkpt lat="45.98216" lon="4.83895">
        <ele>273</ele>
        <time>2018-09-11T09:54:06Z</time>
      </trkpt>
      <trkpt lat="45.98219" lon="4.83887">
        <ele>272</ele>
        <time>2018-09-11T09:54:07Z</time>
      </trkpt>
      <trkpt lat="45.98221" lon="4.83879">
        <ele>272</ele>
        <time>2018-09-11T09:54:08Z</time>
      </trkpt>
      <trkpt lat="45.98224" lon="4.83872">
        <ele>272</ele>
        <time>2018-09-11T09:54:09Z</time>
      </trkpt>
      <trkpt lat="45.98226" lon="4.83865">
        <ele>272</ele>
        <time>2018-09-11T09:54:10Z</time>
      </trkpt>
      <trkpt lat="45.98229" lon="4.83858">
        <ele>272</ele>
        <time>2018-09-11T09:54:11Z</time>
      </trkpt>
      <trkpt lat="45.98231" lon="4.8385">
        <ele>272</ele>
        <time>2018-09-11T09:54:12Z</time>
      </trkpt>
      <trkpt lat="45.98233" lon="4.83844">
        <ele>272</ele>
        <time>2018-09-11T09:54:13Z</time>
      </trkpt>
      <trkpt lat="45.98235" lon="4.83837">
        <ele>272</ele>
        <time>2018-09-11T09:54:14Z</time>
      </trkpt>
      <trkpt lat="45.98238" lon="4.83831">
        <ele>272</ele>
        <time>2018-09-11T09:54:15Z</time>
      </trkpt>
      <trkpt lat="45.98241" lon="4.83822">
        <ele>272</ele>
        <time>2018-09-11T09:54:17Z</time>
      </trkpt>
      <trkpt lat="45.98244" lon="4.83814">
        <ele>272</ele>
        <time>2018-09-11T09:54:18Z</time>
      </trkpt>
      <trkpt lat="45.98246" lon="4.83807">
        <ele>272</ele>
        <time>2018-09-11T09:54:19Z</time>
      </trkpt>
      <trkpt lat="45.98249" lon="4.83797">
        <ele>272</ele>
        <time>2018-09-11T09:54:20Z</time>
      </trkpt>
      <trkpt lat="45.9825" lon="4.83789">
        <ele>272</ele>
        <time>2018-09-11T09:54:21Z</time>
      </trkpt>
      <trkpt lat="45.98253" lon="4.83784">
        <ele>272</ele>
        <time>2018-09-11T09:54:22Z</time>
      </trkpt>
      <trkpt lat="45.98256" lon="4.83776">
        <ele>272</ele>
        <time>2018-09-11T09:54:23Z</time>
      </trkpt>
      <trkpt lat="45.98258" lon="4.83769">
        <ele>272</ele>
        <time>2018-09-11T09:54:24Z</time>
      </trkpt>
      <trkpt lat="45.9826" lon="4.83762">
        <ele>272</ele>
        <time>2018-09-11T09:54:25Z</time>
      </trkpt>
      <trkpt lat="45.98262" lon="4.83755">
        <ele>272</ele>
        <time>2018-09-11T09:54:26Z</time>
      </trkpt>
      <trkpt lat="45.98265" lon="4.83749">
        <ele>272</ele>
        <time>2018-09-11T09:54:27Z</time>
      </trkpt>
      <trkpt lat="45.98267" lon="4.83741">
        <ele>272</ele>
        <time>2018-09-11T09:54:28Z</time>
      </trkpt>
      <trkpt lat="45.9827" lon="4.83733">
        <ele>272</ele>
        <time>2018-09-11T09:54:29Z</time>
      </trkpt>
      <trkpt lat="45.98273" lon="4.83724">
        <ele>272</ele>
        <time>2018-09-11T09:54:30Z</time>
      </trkpt>
      <trkpt lat="45.98276" lon="4.83716">
        <ele>272</ele>
        <time>2018-09-11T09:54:31Z</time>
      </trkpt>
      <trkpt lat="45.98279" lon="4.8371">
        <ele>272</ele>
        <time>2018-09-11T09:54:32Z</time>
      </trkpt>
      <trkpt lat="45.98282" lon="4.83702">
        <ele>272</ele>
        <time>2018-09-11T09:54:33Z</time>
      </trkpt>
      <trkpt lat="45.98284" lon="4.83695">
        <ele>272</ele>
        <time>2018-09-11T09:54:34Z</time>
      </trkpt>
      <trkpt lat="45.98286" lon="4.83688">
        <ele>272</ele>
        <time>2018-09-11T09:54:35Z</time>
      </trkpt>
      <trkpt lat="45.98289" lon="4.83682">
        <ele>272</ele>
        <time>2018-09-11T09:54:36Z</time>
      </trkpt>
      <trkpt lat="45.98292" lon="4.83676">
        <ele>272</ele>
        <time>2018-09-11T09:54:37Z</time>
      </trkpt>
      <trkpt lat="45.98294" lon="4.8367">
        <ele>272</ele>
        <time>2018-09-11T09:54:38Z</time>
      </trkpt>
      <trkpt lat="45.98297" lon="4.83663">
        <ele>271</ele>
        <time>2018-09-11T09:54:39Z</time>
      </trkpt>
      <trkpt lat="45.983" lon="4.83656">
        <ele>271</ele>
        <time>2018-09-11T09:54:40Z</time>
      </trkpt>
      <trkpt lat="45.98303" lon="4.8365">
        <ele>271</ele>
        <time>2018-09-11T09:54:41Z</time>
      </trkpt>
      <trkpt lat="45.98306" lon="4.83643">
        <ele>271</ele>
        <time>2018-09-11T09:54:42Z</time>
      </trkpt>
      <trkpt lat="45.98309" lon="4.83636">
        <ele>271</ele>
        <time>2018-09-11T09:54:43Z</time>
      </trkpt>
      <trkpt lat="45.98311" lon="4.83633">
        <ele>271</ele>
        <time>2018-09-11T09:54:44Z</time>
      </trkpt>
      <trkpt lat="45.98314" lon="4.83627">
        <ele>271</ele>
        <time>2018-09-11T09:54:45Z</time>
      </trkpt>
      <trkpt lat="45.98319" lon="4.83618">
        <ele>271</ele>
        <time>2018-09-11T09:54:46Z</time>
      </trkpt>
      <trkpt lat="45.98323" lon="4.83613">
        <ele>271</ele>
        <time>2018-09-11T09:54:47Z</time>
      </trkpt>
      <trkpt lat="45.98326" lon="4.83607">
        <ele>271</ele>
        <time>2018-09-11T09:54:48Z</time>
      </trkpt>
      <trkpt lat="45.9833" lon="4.83603">
        <ele>271</ele>
        <time>2018-09-11T09:54:49Z</time>
      </trkpt>
      <trkpt lat="45.98332" lon="4.83596">
        <ele>270</ele>
        <time>2018-09-11T09:54:50Z</time>
      </trkpt>
      <trkpt lat="45.98336" lon="4.83592">
        <ele>270</ele>
        <time>2018-09-11T09:54:51Z</time>
      </trkpt>
      <trkpt lat="45.98341" lon="4.83586">
        <ele>270</ele>
        <time>2018-09-11T09:54:52Z</time>
      </trkpt>
      <trkpt lat="45.98345" lon="4.8358">
        <ele>270</ele>
        <time>2018-09-11T09:54:53Z</time>
      </trkpt>
      <trkpt lat="45.98349" lon="4.83574">
        <ele>269</ele>
        <time>2018-09-11T09:54:54Z</time>
      </trkpt>
      <trkpt lat="45.98354" lon="4.83567">
        <ele>269</ele>
        <time>2018-09-11T09:54:55Z</time>
      </trkpt>
      <trkpt lat="45.98358" lon="4.83562">
        <ele>269</ele>
        <time>2018-09-11T09:54:56Z</time>
      </trkpt>
      <trkpt lat="45.98363" lon="4.83556">
        <ele>269</ele>
        <time>2018-09-11T09:54:57Z</time>
      </trkpt>
      <trkpt lat="45.98367" lon="4.83551">
        <ele>269</ele>
        <time>2018-09-11T09:54:58Z</time>
      </trkpt>
      <trkpt lat="45.98372" lon="4.83544">
        <ele>269</ele>
        <time>2018-09-11T09:54:59Z</time>
      </trkpt>
      <trkpt lat="45.98376" lon="4.83539">
        <ele>269</ele>
        <time>2018-09-11T09:55:00Z</time>
      </trkpt>
      <trkpt lat="45.9838" lon="4.83533">
        <ele>269</ele>
        <time>2018-09-11T09:55:01Z</time>
      </trkpt>
      <trkpt lat="45.98385" lon="4.83526">
        <ele>269</ele>
        <time>2018-09-11T09:55:02Z</time>
      </trkpt>
      <trkpt lat="45.98389" lon="4.83521">
        <ele>269</ele>
        <time>2018-09-11T09:55:03Z</time>
      </trkpt>
      <trkpt lat="45.98393" lon="4.83515">
        <ele>269</ele>
        <time>2018-09-11T09:55:04Z</time>
      </trkpt>
      <trkpt lat="45.98397" lon="4.8351">
        <ele>269</ele>
        <time>2018-09-11T09:55:05Z</time>
      </trkpt>
      <trkpt lat="45.98401" lon="4.83505">
        <ele>268</ele>
        <time>2018-09-11T09:55:06Z</time>
      </trkpt>
      <trkpt lat="45.98405" lon="4.835">
        <ele>268</ele>
        <time>2018-09-11T09:55:07Z</time>
      </trkpt>
      <trkpt lat="45.98409" lon="4.83494">
        <ele>268</ele>
        <time>2018-09-11T09:55:08Z</time>
      </trkpt>
      <trkpt lat="45.98413" lon="4.8349">
        <ele>268</ele>
        <time>2018-09-11T09:55:09Z</time>
      </trkpt>
      <trkpt lat="45.98416" lon="4.83484">
        <ele>269</ele>
        <time>2018-09-11T09:55:10Z</time>
      </trkpt>
      <trkpt lat="45.9842" lon="4.83478">
        <ele>268</ele>
        <time>2018-09-11T09:55:11Z</time>
      </trkpt>
      <trkpt lat="45.98424" lon="4.83473">
        <ele>268</ele>
        <time>2018-09-11T09:55:12Z</time>
      </trkpt>
      <trkpt lat="45.98428" lon="4.83468">
        <ele>268</ele>
        <time>2018-09-11T09:55:13Z</time>
      </trkpt>
      <trkpt lat="45.98432" lon="4.83462">
        <ele>268</ele>
        <time>2018-09-11T09:55:14Z</time>
      </trkpt>
      <trkpt lat="45.98436" lon="4.83456">
        <ele>268</ele>
        <time>2018-09-11T09:55:15Z</time>
      </trkpt>
      <trkpt lat="45.98439" lon="4.8345">
        <ele>268</ele>
        <time>2018-09-11T09:55:16Z</time>
      </trkpt>
      <trkpt lat="45.98442" lon="4.83444">
        <ele>268</ele>
        <time>2018-09-11T09:55:17Z</time>
      </trkpt>
      <trkpt lat="45.98446" lon="4.83439">
        <ele>268</ele>
        <time>2018-09-11T09:55:18Z</time>
      </trkpt>
      <trkpt lat="45.98451" lon="4.83432">
        <ele>268</ele>
        <time>2018-09-11T09:55:19Z</time>
      </trkpt>
      <trkpt lat="45.98456" lon="4.83427">
        <ele>268</ele>
        <time>2018-09-11T09:55:20Z</time>
      </trkpt>
      <trkpt lat="45.98461" lon="4.83421">
        <ele>269</ele>
        <time>2018-09-11T09:55:21Z</time>
      </trkpt>
      <trkpt lat="45.98465" lon="4.83416">
        <ele>269</ele>
        <time>2018-09-11T09:55:22Z</time>
      </trkpt>
      <trkpt lat="45.9847" lon="4.83409">
        <ele>269</ele>
        <time>2018-09-11T09:55:23Z</time>
      </trkpt>
      <trkpt lat="45.98474" lon="4.83402">
        <ele>269</ele>
        <time>2018-09-11T09:55:24Z</time>
      </trkpt>
      <trkpt lat="45.98481" lon="4.83395">
        <ele>269</ele>
        <time>2018-09-11T09:55:26Z</time>
      </trkpt>
      <trkpt lat="45.98486" lon="4.83387">
        <ele>269</ele>
        <time>2018-09-11T09:55:27Z</time>
      </trkpt>
      <trkpt lat="45.9849" lon="4.83383">
        <ele>269</ele>
        <time>2018-09-11T09:55:28Z</time>
      </trkpt>
      <trkpt lat="45.98494" lon="4.83378">
        <ele>269</ele>
        <time>2018-09-11T09:55:29Z</time>
      </trkpt>
      <trkpt lat="45.98498" lon="4.83374">
        <ele>270</ele>
        <time>2018-09-11T09:55:30Z</time>
      </trkpt>
      <trkpt lat="45.98501" lon="4.83369">
        <ele>269</ele>
        <time>2018-09-11T09:55:31Z</time>
      </trkpt>
      <trkpt lat="45.98504" lon="4.83364">
        <ele>269</ele>
        <time>2018-09-11T09:55:32Z</time>
      </trkpt>
      <trkpt lat="45.98508" lon="4.8336">
        <ele>269</ele>
        <time>2018-09-11T09:55:33Z</time>
      </trkpt>
      <trkpt lat="45.98513" lon="4.83354">
        <ele>270</ele>
        <time>2018-09-11T09:55:34Z</time>
      </trkpt>
      <trkpt lat="45.98517" lon="4.83349">
        <ele>270</ele>
        <time>2018-09-11T09:55:35Z</time>
      </trkpt>
      <trkpt lat="45.9852" lon="4.83343">
        <ele>270</ele>
        <time>2018-09-11T09:55:36Z</time>
      </trkpt>
      <trkpt lat="45.98525" lon="4.83338">
        <ele>270</ele>
        <time>2018-09-11T09:55:37Z</time>
      </trkpt>
      <trkpt lat="45.98529" lon="4.83327">
        <ele>269</ele>
        <time>2018-09-11T09:55:38Z</time>
      </trkpt>
      <trkpt lat="45.98532" lon="4.83323">
        <ele>269</ele>
        <time>2018-09-11T09:55:39Z</time>
      </trkpt>
      <trkpt lat="45.98537" lon="4.83318">
        <ele>269</ele>
        <time>2018-09-11T09:55:40Z</time>
      </trkpt>
      <trkpt lat="45.98541" lon="4.83313">
        <ele>269</ele>
        <time>2018-09-11T09:55:41Z</time>
      </trkpt>
      <trkpt lat="45.98545" lon="4.83308">
        <ele>269</ele>
        <time>2018-09-11T09:55:42Z</time>
      </trkpt>
      <trkpt lat="45.98548" lon="4.83303">
        <ele>269</ele>
        <time>2018-09-11T09:55:43Z</time>
      </trkpt>
      <trkpt lat="45.98553" lon="4.83296">
        <ele>269</ele>
        <time>2018-09-11T09:55:44Z</time>
      </trkpt>
      <trkpt lat="45.98558" lon="4.8329">
        <ele>269</ele>
        <time>2018-09-11T09:55:45Z</time>
      </trkpt>
      <trkpt lat="45.98565" lon="4.83284">
        <ele>269</ele>
        <time>2018-09-11T09:55:47Z</time>
      </trkpt>
      <trkpt lat="45.98567" lon="4.83278">
        <ele>269</ele>
        <time>2018-09-11T09:55:48Z</time>
      </trkpt>
      <trkpt lat="45.98571" lon="4.83274">
        <ele>269</ele>
        <time>2018-09-11T09:55:49Z</time>
      </trkpt>
      <trkpt lat="45.98575" lon="4.83269">
        <ele>269</ele>
        <time>2018-09-11T09:55:50Z</time>
      </trkpt>
      <trkpt lat="45.98578" lon="4.83265">
        <ele>269</ele>
        <time>2018-09-11T09:55:51Z</time>
      </trkpt>
      <trkpt lat="45.98582" lon="4.8326">
        <ele>268</ele>
        <time>2018-09-11T09:55:52Z</time>
      </trkpt>
      <trkpt lat="45.98585" lon="4.83255">
        <ele>268</ele>
        <time>2018-09-11T09:55:53Z</time>
      </trkpt>
      <trkpt lat="45.98589" lon="4.8325">
        <ele>268</ele>
        <time>2018-09-11T09:55:54Z</time>
      </trkpt>
      <trkpt lat="45.98593" lon="4.83244">
        <ele>268</ele>
        <time>2018-09-11T09:55:55Z</time>
      </trkpt>
      <trkpt lat="45.98597" lon="4.83238">
        <ele>268</ele>
        <time>2018-09-11T09:55:56Z</time>
      </trkpt>
      <trkpt lat="45.986" lon="4.83232">
        <ele>268</ele>
        <time>2018-09-11T09:55:57Z</time>
      </trkpt>
      <trkpt lat="45.98605" lon="4.83226">
        <ele>267</ele>
        <time>2018-09-11T09:55:58Z</time>
      </trkpt>
      <trkpt lat="45.9861" lon="4.8322">
        <ele>267</ele>
        <time>2018-09-11T09:55:59Z</time>
      </trkpt>
      <trkpt lat="45.98615" lon="4.83211">
        <ele>267</ele>
        <time>2018-09-11T09:56:00Z</time>
      </trkpt>
      <trkpt lat="45.9862" lon="4.83206">
        <ele>267</ele>
        <time>2018-09-11T09:56:01Z</time>
      </trkpt>
      <trkpt lat="45.98625" lon="4.83199">
        <ele>267</ele>
        <time>2018-09-11T09:56:02Z</time>
      </trkpt>
      <trkpt lat="45.98629" lon="4.83193">
        <ele>267</ele>
        <time>2018-09-11T09:56:03Z</time>
      </trkpt>
      <trkpt lat="45.98634" lon="4.83186">
        <ele>267</ele>
        <time>2018-09-11T09:56:04Z</time>
      </trkpt>
      <trkpt lat="45.98639" lon="4.83181">
        <ele>267</ele>
        <time>2018-09-11T09:56:05Z</time>
      </trkpt>
      <trkpt lat="45.98643" lon="4.83175">
        <ele>267</ele>
        <time>2018-09-11T09:56:06Z</time>
      </trkpt>
      <trkpt lat="45.98648" lon="4.8317">
        <ele>267</ele>
        <time>2018-09-11T09:56:07Z</time>
      </trkpt>
      <trkpt lat="45.98654" lon="4.83165">
        <ele>267</ele>
        <time>2018-09-11T09:56:08Z</time>
      </trkpt>
      <trkpt lat="45.98659" lon="4.83161">
        <ele>267</ele>
        <time>2018-09-11T09:56:09Z</time>
      </trkpt>
      <trkpt lat="45.98665" lon="4.83157">
        <ele>267</ele>
        <time>2018-09-11T09:56:10Z</time>
      </trkpt>
      <trkpt lat="45.9867" lon="4.83153">
        <ele>266</ele>
        <time>2018-09-11T09:56:11Z</time>
      </trkpt>
      <trkpt lat="45.98676" lon="4.83149">
        <ele>266</ele>
        <time>2018-09-11T09:56:12Z</time>
      </trkpt>
      <trkpt lat="45.98681" lon="4.83145">
        <ele>266</ele>
        <time>2018-09-11T09:56:13Z</time>
      </trkpt>
      <trkpt lat="45.98687" lon="4.8314">
        <ele>266</ele>
        <time>2018-09-11T09:56:14Z</time>
      </trkpt>
      <trkpt lat="45.98692" lon="4.83135">
        <ele>266</ele>
        <time>2018-09-11T09:56:15Z</time>
      </trkpt>
      <trkpt lat="45.98697" lon="4.8313">
        <ele>267</ele>
        <time>2018-09-11T09:56:16Z</time>
      </trkpt>
      <trkpt lat="45.98702" lon="4.83128">
        <ele>267</ele>
        <time>2018-09-11T09:56:17Z</time>
      </trkpt>
      <trkpt lat="45.98707" lon="4.83123">
        <ele>267</ele>
        <time>2018-09-11T09:56:18Z</time>
      </trkpt>
      <trkpt lat="45.98713" lon="4.8312">
        <ele>267</ele>
        <time>2018-09-11T09:56:19Z</time>
      </trkpt>
      <trkpt lat="45.98718" lon="4.83116">
        <ele>267</ele>
        <time>2018-09-11T09:56:20Z</time>
      </trkpt>
      <trkpt lat="45.98723" lon="4.83112">
        <ele>267</ele>
        <time>2018-09-11T09:56:21Z</time>
      </trkpt>
      <trkpt lat="45.98727" lon="4.83108">
        <ele>267</ele>
        <time>2018-09-11T09:56:22Z</time>
      </trkpt>
      <trkpt lat="45.98732" lon="4.83104">
        <ele>267</ele>
        <time>2018-09-11T09:56:23Z</time>
      </trkpt>
      <trkpt lat="45.98737" lon="4.83099">
        <ele>267</ele>
        <time>2018-09-11T09:56:24Z</time>
      </trkpt>
      <trkpt lat="45.98742" lon="4.83094">
        <ele>267</ele>
        <time>2018-09-11T09:56:25Z</time>
      </trkpt>
      <trkpt lat="45.98748" lon="4.83089">
        <ele>267</ele>
        <time>2018-09-11T09:56:26Z</time>
      </trkpt>
      <trkpt lat="45.98753" lon="4.83084">
        <ele>267</ele>
        <time>2018-09-11T09:56:27Z</time>
      </trkpt>
      <trkpt lat="45.98759" lon="4.8308">
        <ele>266</ele>
        <time>2018-09-11T09:56:28Z</time>
      </trkpt>
      <trkpt lat="45.98765" lon="4.83076">
        <ele>266</ele>
        <time>2018-09-11T09:56:29Z</time>
      </trkpt>
      <trkpt lat="45.9877" lon="4.83071">
        <ele>266</ele>
        <time>2018-09-11T09:56:30Z</time>
      </trkpt>
      <trkpt lat="45.98776" lon="4.83065">
        <ele>265</ele>
        <time>2018-09-11T09:56:31Z</time>
      </trkpt>
      <trkpt lat="45.98782" lon="4.83061">
        <ele>265</ele>
        <time>2018-09-11T09:56:32Z</time>
      </trkpt>
      <trkpt lat="45.98788" lon="4.83055">
        <ele>265</ele>
        <time>2018-09-11T09:56:33Z</time>
      </trkpt>
      <trkpt lat="45.98794" lon="4.83051">
        <ele>265</ele>
        <time>2018-09-11T09:56:34Z</time>
      </trkpt>
      <trkpt lat="45.98799" lon="4.83047">
        <ele>264</ele>
        <time>2018-09-11T09:56:35Z</time>
      </trkpt>
      <trkpt lat="45.98804" lon="4.83043">
        <ele>264</ele>
        <time>2018-09-11T09:56:36Z</time>
      </trkpt>
      <trkpt lat="45.9881" lon="4.83039">
        <ele>264</ele>
        <time>2018-09-11T09:56:37Z</time>
      </trkpt>
      <trkpt lat="45.98817" lon="4.83032">
        <ele>264</ele>
        <time>2018-09-11T09:56:38Z</time>
      </trkpt>
      <trkpt lat="45.98823" lon="4.83027">
        <ele>264</ele>
        <time>2018-09-11T09:56:39Z</time>
      </trkpt>
      <trkpt lat="45.98829" lon="4.83022">
        <ele>264</ele>
        <time>2018-09-11T09:56:40Z</time>
      </trkpt>
      <trkpt lat="45.98836" lon="4.83017">
        <ele>261</ele>
        <time>2018-09-11T09:56:41Z</time>
      </trkpt>
      <trkpt lat="45.98843" lon="4.83014">
        <ele>261</ele>
        <time>2018-09-11T09:56:42Z</time>
      </trkpt>
      <trkpt lat="45.9885" lon="4.83009">
        <ele>261</ele>
        <time>2018-09-11T09:56:43Z</time>
      </trkpt>
      <trkpt lat="45.98857" lon="4.83003">
        <ele>261</ele>
        <time>2018-09-11T09:56:44Z</time>
      </trkpt>
      <trkpt lat="45.98865" lon="4.82998">
        <ele>260</ele>
        <time>2018-09-11T09:56:45Z</time>
      </trkpt>
      <trkpt lat="45.98872" lon="4.82993">
        <ele>260</ele>
        <time>2018-09-11T09:56:46Z</time>
      </trkpt>
      <trkpt lat="45.98881" lon="4.82988">
        <ele>260</ele>
        <time>2018-09-11T09:56:47Z</time>
      </trkpt>
      <trkpt lat="45.98889" lon="4.82981">
        <ele>259</ele>
        <time>2018-09-11T09:56:48Z</time>
      </trkpt>
      <trkpt lat="45.98896" lon="4.82976">
        <ele>259</ele>
        <time>2018-09-11T09:56:49Z</time>
      </trkpt>
      <trkpt lat="45.98905" lon="4.82968">
        <ele>259</ele>
        <time>2018-09-11T09:56:50Z</time>
      </trkpt>
      <trkpt lat="45.98914" lon="4.82959">
        <ele>258</ele>
        <time>2018-09-11T09:56:51Z</time>
      </trkpt>
      <trkpt lat="45.9892" lon="4.82949">
        <ele>255</ele>
        <time>2018-09-11T09:56:52Z</time>
      </trkpt>
      <trkpt lat="45.98926" lon="4.82937">
        <ele>255</ele>
        <time>2018-09-11T09:56:53Z</time>
      </trkpt>
      <trkpt lat="45.98932" lon="4.82926">
        <ele>255</ele>
        <time>2018-09-11T09:56:54Z</time>
      </trkpt>
      <trkpt lat="45.98938" lon="4.82911">
        <ele>254</ele>
        <time>2018-09-11T09:56:55Z</time>
      </trkpt>
      <trkpt lat="45.98944" lon="4.82897">
        <ele>253</ele>
        <time>2018-09-11T09:56:56Z</time>
      </trkpt>
      <trkpt lat="45.98951" lon="4.82883">
        <ele>253</ele>
        <time>2018-09-11T09:56:57Z</time>
      </trkpt>
      <trkpt lat="45.98958" lon="4.82869">
        <ele>252</ele>
        <time>2018-09-11T09:56:58Z</time>
      </trkpt>
      <trkpt lat="45.98963" lon="4.82853">
        <ele>252</ele>
        <time>2018-09-11T09:56:59Z</time>
      </trkpt>
      <trkpt lat="45.98969" lon="4.82839">
        <ele>251</ele>
        <time>2018-09-11T09:57:00Z</time>
      </trkpt>
      <trkpt lat="45.98977" lon="4.82822">
        <ele>248</ele>
        <time>2018-09-11T09:57:01Z</time>
      </trkpt>
      <trkpt lat="45.98983" lon="4.82805">
        <ele>248</ele>
        <time>2018-09-11T09:57:02Z</time>
      </trkpt>
      <trkpt lat="45.98991" lon="4.82792">
        <ele>247</ele>
        <time>2018-09-11T09:57:03Z</time>
      </trkpt>
      <trkpt lat="45.98998" lon="4.82776">
        <ele>246</ele>
        <time>2018-09-11T09:57:04Z</time>
      </trkpt>
      <trkpt lat="45.99006" lon="4.8276">
        <ele>241</ele>
        <time>2018-09-11T09:57:05Z</time>
      </trkpt>
      <trkpt lat="45.99013" lon="4.82744">
        <ele>240</ele>
        <time>2018-09-11T09:57:06Z</time>
      </trkpt>
      <trkpt lat="45.9902" lon="4.82729">
        <ele>239</ele>
        <time>2018-09-11T09:57:07Z</time>
      </trkpt>
      <trkpt lat="45.99026" lon="4.82713">
        <ele>238</ele>
        <time>2018-09-11T09:57:08Z</time>
      </trkpt>
      <trkpt lat="45.99033" lon="4.82697">
        <ele>238</ele>
        <time>2018-09-11T09:57:09Z</time>
      </trkpt>
      <trkpt lat="45.9904" lon="4.82685">
        <ele>238</ele>
        <time>2018-09-11T09:57:10Z</time>
      </trkpt>
      <trkpt lat="45.99044" lon="4.82671">
        <ele>238</ele>
        <time>2018-09-11T09:57:11Z</time>
      </trkpt>
      <trkpt lat="45.9905" lon="4.82658">
        <ele>236</ele>
        <time>2018-09-11T09:57:12Z</time>
      </trkpt>
      <trkpt lat="45.99055" lon="4.82646">
        <ele>236</ele>
        <time>2018-09-11T09:57:13Z</time>
      </trkpt>
      <trkpt lat="45.9906" lon="4.82635">
        <ele>236</ele>
        <time>2018-09-11T09:57:14Z</time>
      </trkpt>
      <trkpt lat="45.99064" lon="4.82624">
        <ele>236</ele>
        <time>2018-09-11T09:57:15Z</time>
      </trkpt>
      <trkpt lat="45.99068" lon="4.82614">
        <ele>236</ele>
        <time>2018-09-11T09:57:16Z</time>
      </trkpt>
      <trkpt lat="45.99072" lon="4.82604">
        <ele>236</ele>
        <time>2018-09-11T09:57:17Z</time>
      </trkpt>
      <trkpt lat="45.99075" lon="4.82596">
        <ele>235</ele>
        <time>2018-09-11T09:57:18Z</time>
      </trkpt>
      <trkpt lat="45.99078" lon="4.82584">
        <ele>235</ele>
        <time>2018-09-11T09:57:20Z</time>
      </trkpt>
      <trkpt lat="45.99079" lon="4.82581">
        <ele>235</ele>
        <time>2018-09-11T09:57:21Z</time>
      </trkpt>
      <trkpt lat="45.99073" lon="4.82572">
        <ele>235</ele>
        <time>2018-09-11T09:57:22Z</time>
      </trkpt>
      <trkpt lat="45.99067" lon="4.82568">
        <ele>235</ele>
        <time>2018-09-11T09:57:23Z</time>
      </trkpt>
      <trkpt lat="45.99062" lon="4.82565">
        <ele>235</ele>
        <time>2018-09-11T09:57:24Z</time>
      </trkpt>
      <trkpt lat="45.99055" lon="4.82562">
        <ele>235</ele>
        <time>2018-09-11T09:57:25Z</time>
      </trkpt>
      <trkpt lat="45.99048" lon="4.8256">
        <ele>235</ele>
        <time>2018-09-11T09:57:26Z</time>
      </trkpt>
      <trkpt lat="45.99044" lon="4.82558">
        <ele>235</ele>
        <time>2018-09-11T09:57:27Z</time>
      </trkpt>
      <trkpt lat="45.9904" lon="4.82555">
        <ele>235</ele>
        <time>2018-09-11T09:57:28Z</time>
      </trkpt>
      <trkpt lat="45.99034" lon="4.82552">
        <ele>235</ele>
        <time>2018-09-11T09:57:29Z</time>
      </trkpt>
      <trkpt lat="45.99026" lon="4.82545">
        <ele>235</ele>
        <time>2018-09-11T09:57:31Z</time>
      </trkpt>
      <trkpt lat="45.99023" lon="4.82542">
        <ele>235</ele>
        <time>2018-09-11T09:57:32Z</time>
      </trkpt>
      <trkpt lat="45.99017" lon="4.82534">
        <ele>235</ele>
        <time>2018-09-11T09:57:34Z</time>
      </trkpt>
      <trkpt lat="45.99013" lon="4.82527">
        <ele>235</ele>
        <time>2018-09-11T09:57:35Z</time>
      </trkpt>
      <trkpt lat="45.99009" lon="4.82522">
        <ele>235</ele>
        <time>2018-09-11T09:57:36Z</time>
      </trkpt>
      <trkpt lat="45.99006" lon="4.82517">
        <ele>235</ele>
        <time>2018-09-11T09:57:37Z</time>
      </trkpt>
      <trkpt lat="45.99002" lon="4.82509">
        <ele>235</ele>
        <time>2018-09-11T09:57:38Z</time>
      </trkpt>
      <trkpt lat="45.99" lon="4.82503">
        <ele>235</ele>
        <time>2018-09-11T09:57:39Z</time>
      </trkpt>
      <trkpt lat="45.98998" lon="4.82496">
        <ele>235</ele>
        <time>2018-09-11T09:57:40Z</time>
      </trkpt>
      <trkpt lat="45.98996" lon="4.8249">
        <ele>236</ele>
        <time>2018-09-11T09:57:41Z</time>
      </trkpt>
      <trkpt lat="45.9899" lon="4.82479">
        <ele>236</ele>
        <time>2018-09-11T09:57:43Z</time>
      </trkpt>
      <trkpt lat="45.98989" lon="4.82473">
        <ele>236</ele>
        <time>2018-09-11T09:57:44Z</time>
      </trkpt>
      <trkpt lat="45.98985" lon="4.82461">
        <ele>236</ele>
        <time>2018-09-11T09:57:46Z</time>
      </trkpt>
      <trkpt lat="45.98982" lon="4.82455">
        <ele>236</ele>
        <time>2018-09-11T09:57:47Z</time>
      </trkpt>
      <trkpt lat="45.9898" lon="4.82442">
        <ele>236</ele>
        <time>2018-09-11T09:57:49Z</time>
      </trkpt>
      <trkpt lat="45.98979" lon="4.82437">
        <ele>236</ele>
        <time>2018-09-11T09:57:50Z</time>
      </trkpt>
      <trkpt lat="45.98978" lon="4.82431">
        <ele>236</ele>
        <time>2018-09-11T09:57:51Z</time>
      </trkpt>
      <trkpt lat="45.98975" lon="4.82425">
        <ele>236</ele>
        <time>2018-09-11T09:57:52Z</time>
      </trkpt>
      <trkpt lat="45.98974" lon="4.82419">
        <ele>236</ele>
        <time>2018-09-11T09:57:53Z</time>
      </trkpt>
      <trkpt lat="45.98973" lon="4.82411">
        <ele>235</ele>
        <time>2018-09-11T09:57:54Z</time>
      </trkpt>
      <trkpt lat="45.98971" lon="4.82404">
        <ele>235</ele>
        <time>2018-09-11T09:57:55Z</time>
      </trkpt>
      <trkpt lat="45.98968" lon="4.82397">
        <ele>235</ele>
        <time>2018-09-11T09:57:56Z</time>
      </trkpt>
      <trkpt lat="45.98966" lon="4.82391">
        <ele>235</ele>
        <time>2018-09-11T09:57:57Z</time>
      </trkpt>
      <trkpt lat="45.98967" lon="4.82384">
        <ele>235</ele>
        <time>2018-09-11T09:57:58Z</time>
      </trkpt>
      <trkpt lat="45.98965" lon="4.82377">
        <ele>235</ele>
        <time>2018-09-11T09:57:59Z</time>
      </trkpt>
      <trkpt lat="45.98964" lon="4.8237">
        <ele>235</ele>
        <time>2018-09-11T09:58:00Z</time>
      </trkpt>
      <trkpt lat="45.98962" lon="4.82363">
        <ele>235</ele>
        <time>2018-09-11T09:58:01Z</time>
      </trkpt>
      <trkpt lat="45.98959" lon="4.82356">
        <ele>235</ele>
        <time>2018-09-11T09:58:02Z</time>
      </trkpt>
      <trkpt lat="45.98956" lon="4.82349">
        <ele>235</ele>
        <time>2018-09-11T09:58:03Z</time>
      </trkpt>
      <trkpt lat="45.98953" lon="4.82343">
        <ele>235</ele>
        <time>2018-09-11T09:58:04Z</time>
      </trkpt>
      <trkpt lat="45.9895" lon="4.82337">
        <ele>235</ele>
        <time>2018-09-11T09:58:05Z</time>
      </trkpt>
      <trkpt lat="45.98947" lon="4.82332">
        <ele>234</ele>
        <time>2018-09-11T09:58:06Z</time>
      </trkpt>
      <trkpt lat="45.98942" lon="4.82322">
        <ele>234</ele>
        <time>2018-09-11T09:58:08Z</time>
      </trkpt>
      <trkpt lat="45.98938" lon="4.82317">
        <ele>234</ele>
        <time>2018-09-11T09:58:09Z</time>
      </trkpt>
      <trkpt lat="45.98934" lon="4.82313">
        <ele>234</ele>
        <time>2018-09-11T09:58:10Z</time>
      </trkpt>
      <trkpt lat="45.9893" lon="4.8231">
        <ele>234</ele>
        <time>2018-09-11T09:58:11Z</time>
      </trkpt>
      <trkpt lat="45.98926" lon="4.82306">
        <ele>234</ele>
        <time>2018-09-11T09:58:12Z</time>
      </trkpt>
      <trkpt lat="45.9892" lon="4.82302">
        <ele>234</ele>
        <time>2018-09-11T09:58:13Z</time>
      </trkpt>
      <trkpt lat="45.98916" lon="4.82298">
        <ele>236</ele>
        <time>2018-09-11T09:58:14Z</time>
      </trkpt>
      <trkpt lat="45.98912" lon="4.82293">
        <ele>236</ele>
        <time>2018-09-11T09:58:15Z</time>
      </trkpt>
      <trkpt lat="45.98909" lon="4.82288">
        <ele>236</ele>
        <time>2018-09-11T09:58:16Z</time>
      </trkpt>
      <trkpt lat="45.98905" lon="4.82282">
        <ele>236</ele>
        <time>2018-09-11T09:58:17Z</time>
      </trkpt>
      <trkpt lat="45.98902" lon="4.82277">
        <ele>236</ele>
        <time>2018-09-11T09:58:18Z</time>
      </trkpt>
      <trkpt lat="45.98898" lon="4.8227">
        <ele>236</ele>
        <time>2018-09-11T09:58:19Z</time>
      </trkpt>
      <trkpt lat="45.98895" lon="4.82265">
        <ele>236</ele>
        <time>2018-09-11T09:58:20Z</time>
      </trkpt>
      <trkpt lat="45.98893" lon="4.8226">
        <ele>236</ele>
        <time>2018-09-11T09:58:21Z</time>
      </trkpt>
      <trkpt lat="45.98889" lon="4.82254">
        <ele>236</ele>
        <time>2018-09-11T09:58:22Z</time>
      </trkpt>
      <trkpt lat="45.98885" lon="4.82247">
        <ele>235</ele>
        <time>2018-09-11T09:58:23Z</time>
      </trkpt>
      <trkpt lat="45.98882" lon="4.82241">
        <ele>236</ele>
        <time>2018-09-11T09:58:24Z</time>
      </trkpt>
      <trkpt lat="45.98879" lon="4.82234">
        <ele>236</ele>
        <time>2018-09-11T09:58:25Z</time>
      </trkpt>
      <trkpt lat="45.98876" lon="4.82227">
        <ele>236</ele>
        <time>2018-09-11T09:58:26Z</time>
      </trkpt>
      <trkpt lat="45.98872" lon="4.82221">
        <ele>236</ele>
        <time>2018-09-11T09:58:27Z</time>
      </trkpt>
      <trkpt lat="45.98869" lon="4.82215">
        <ele>236</ele>
        <time>2018-09-11T09:58:28Z</time>
      </trkpt>
      <trkpt lat="45.98867" lon="4.82209">
        <ele>236</ele>
        <time>2018-09-11T09:58:29Z</time>
      </trkpt>
      <trkpt lat="45.98864" lon="4.82202">
        <ele>236</ele>
        <time>2018-09-11T09:58:30Z</time>
      </trkpt>
      <trkpt lat="45.98862" lon="4.82195">
        <ele>236</ele>
        <time>2018-09-11T09:58:31Z</time>
      </trkpt>
      <trkpt lat="45.98859" lon="4.82189">
        <ele>236</ele>
        <time>2018-09-11T09:58:32Z</time>
      </trkpt>
      <trkpt lat="45.98857" lon="4.82183">
        <ele>236</ele>
        <time>2018-09-11T09:58:33Z</time>
      </trkpt>
      <trkpt lat="45.98856" lon="4.82177">
        <ele>236</ele>
        <time>2018-09-11T09:58:34Z</time>
      </trkpt>
      <trkpt lat="45.98854" lon="4.82171">
        <ele>236</ele>
        <time>2018-09-11T09:58:35Z</time>
      </trkpt>
      <trkpt lat="45.98851" lon="4.82164">
        <ele>236</ele>
        <time>2018-09-11T09:58:36Z</time>
      </trkpt>
      <trkpt lat="45.98849" lon="4.82158">
        <ele>236</ele>
        <time>2018-09-11T09:58:37Z</time>
      </trkpt>
      <trkpt lat="45.98847" lon="4.82151">
        <ele>236</ele>
        <time>2018-09-11T09:58:38Z</time>
      </trkpt>
      <trkpt lat="45.98845" lon="4.82144">
        <ele>236</ele>
        <time>2018-09-11T09:58:39Z</time>
      </trkpt>
      <trkpt lat="45.98843" lon="4.82138">
        <ele>236</ele>
        <time>2018-09-11T09:58:40Z</time>
      </trkpt>
      <trkpt lat="45.98841" lon="4.8213">
        <ele>236</ele>
        <time>2018-09-11T09:58:41Z</time>
      </trkpt>
      <trkpt lat="45.98838" lon="4.82117">
        <ele>235</ele>
        <time>2018-09-11T09:58:43Z</time>
      </trkpt>
      <trkpt lat="45.98837" lon="4.82111">
        <ele>235</ele>
        <time>2018-09-11T09:58:44Z</time>
      </trkpt>
      <trkpt lat="45.98836" lon="4.82105">
        <ele>236</ele>
        <time>2018-09-11T09:58:45Z</time>
      </trkpt>
      <trkpt lat="45.98833" lon="4.82098">
        <ele>236</ele>
        <time>2018-09-11T09:58:46Z</time>
      </trkpt>
      <trkpt lat="45.98832" lon="4.82086">
        <ele>236</ele>
        <time>2018-09-11T09:58:48Z</time>
      </trkpt>
      <trkpt lat="45.98831" lon="4.82079">
        <ele>236</ele>
        <time>2018-09-11T09:58:49Z</time>
      </trkpt>
      <trkpt lat="45.98829" lon="4.82072">
        <ele>237</ele>
        <time>2018-09-11T09:58:50Z</time>
      </trkpt>
      <trkpt lat="45.98827" lon="4.82064">
        <ele>237</ele>
        <time>2018-09-11T09:58:51Z</time>
      </trkpt>
      <trkpt lat="45.98826" lon="4.82056">
        <ele>237</ele>
        <time>2018-09-11T09:58:52Z</time>
      </trkpt>
      <trkpt lat="45.98825" lon="4.8205">
        <ele>238</ele>
        <time>2018-09-11T09:58:53Z</time>
      </trkpt>
      <trkpt lat="45.98824" lon="4.82042">
        <ele>238</ele>
        <time>2018-09-11T09:58:54Z</time>
      </trkpt>
      <trkpt lat="45.98823" lon="4.82035">
        <ele>238</ele>
        <time>2018-09-11T09:58:55Z</time>
      </trkpt>
      <trkpt lat="45.98822" lon="4.82027">
        <ele>238</ele>
        <time>2018-09-11T09:58:56Z</time>
      </trkpt>
      <trkpt lat="45.98822" lon="4.82021">
        <ele>238</ele>
        <time>2018-09-11T09:58:57Z</time>
      </trkpt>
      <trkpt lat="45.98821" lon="4.82014">
        <ele>238</ele>
        <time>2018-09-11T09:58:58Z</time>
      </trkpt>
      <trkpt lat="45.98821" lon="4.82007">
        <ele>238</ele>
        <time>2018-09-11T09:58:59Z</time>
      </trkpt>
      <trkpt lat="45.9882" lon="4.81995">
        <ele>238</ele>
        <time>2018-09-11T09:59:01Z</time>
      </trkpt>
      <trkpt lat="45.98819" lon="4.81988">
        <ele>238</ele>
        <time>2018-09-11T09:59:02Z</time>
      </trkpt>
      <trkpt lat="45.98819" lon="4.81983">
        <ele>238</ele>
        <time>2018-09-11T09:59:03Z</time>
      </trkpt>
      <trkpt lat="45.98816" lon="4.81975">
        <ele>239</ele>
        <time>2018-09-11T09:59:04Z</time>
      </trkpt>
      <trkpt lat="45.98816" lon="4.81964">
        <ele>239</ele>
        <time>2018-09-11T09:59:06Z</time>
      </trkpt>
      <trkpt lat="45.98816" lon="4.81957">
        <ele>239</ele>
        <time>2018-09-11T09:59:07Z</time>
      </trkpt>
      <trkpt lat="45.98814" lon="4.81949">
        <ele>239</ele>
        <time>2018-09-11T09:59:08Z</time>
      </trkpt>
      <trkpt lat="45.98814" lon="4.81942">
        <ele>239</ele>
        <time>2018-09-11T09:59:09Z</time>
      </trkpt>
      <trkpt lat="45.98812" lon="4.81929">
        <ele>239</ele>
        <time>2018-09-11T09:59:11Z</time>
      </trkpt>
      <trkpt lat="45.98811" lon="4.81922">
        <ele>239</ele>
        <time>2018-09-11T09:59:12Z</time>
      </trkpt>
      <trkpt lat="45.98809" lon="4.81915">
        <ele>239</ele>
        <time>2018-09-11T09:59:13Z</time>
      </trkpt>
      <trkpt lat="45.98808" lon="4.81907">
        <ele>239</ele>
        <time>2018-09-11T09:59:14Z</time>
      </trkpt>
      <trkpt lat="45.98806" lon="4.819">
        <ele>239</ele>
        <time>2018-09-11T09:59:15Z</time>
      </trkpt>
      <trkpt lat="45.98805" lon="4.81893">
        <ele>239</ele>
        <time>2018-09-11T09:59:16Z</time>
      </trkpt>
      <trkpt lat="45.98804" lon="4.81887">
        <ele>239</ele>
        <time>2018-09-11T09:59:17Z</time>
      </trkpt>
      <trkpt lat="45.98803" lon="4.8188">
        <ele>239</ele>
        <time>2018-09-11T09:59:18Z</time>
      </trkpt>
      <trkpt lat="45.98799" lon="4.81872">
        <ele>239</ele>
        <time>2018-09-11T09:59:19Z</time>
      </trkpt>
      <trkpt lat="45.98796" lon="4.81866">
        <ele>239</ele>
        <time>2018-09-11T09:59:20Z</time>
      </trkpt>
      <trkpt lat="45.98797" lon="4.8186">
        <ele>239</ele>
        <time>2018-09-11T09:59:21Z</time>
      </trkpt>
      <trkpt lat="45.98794" lon="4.81851">
        <ele>239</ele>
        <time>2018-09-11T09:59:22Z</time>
      </trkpt>
      <trkpt lat="45.98791" lon="4.81844">
        <ele>239</ele>
        <time>2018-09-11T09:59:23Z</time>
      </trkpt>
      <trkpt lat="45.98785" lon="4.81835">
        <ele>239</ele>
        <time>2018-09-11T09:59:24Z</time>
      </trkpt>
      <trkpt lat="45.98785" lon="4.81827">
        <ele>240</ele>
        <time>2018-09-11T09:59:25Z</time>
      </trkpt>
      <trkpt lat="45.9878" lon="4.8182">
        <ele>240</ele>
        <time>2018-09-11T09:59:26Z</time>
      </trkpt>
      <trkpt lat="45.98779" lon="4.81814">
        <ele>240</ele>
        <time>2018-09-11T09:59:27Z</time>
      </trkpt>
      <trkpt lat="45.98775" lon="4.81809">
        <ele>240</ele>
        <time>2018-09-11T09:59:28Z</time>
      </trkpt>
      <trkpt lat="45.98774" lon="4.81803">
        <ele>240</ele>
        <time>2018-09-11T09:59:29Z</time>
      </trkpt>
      <trkpt lat="45.9877" lon="4.81797">
        <ele>240</ele>
        <time>2018-09-11T09:59:30Z</time>
      </trkpt>
      <trkpt lat="45.98766" lon="4.81791">
        <ele>241</ele>
        <time>2018-09-11T09:59:31Z</time>
      </trkpt>
      <trkpt lat="45.98764" lon="4.81786">
        <ele>241</ele>
        <time>2018-09-11T09:59:32Z</time>
      </trkpt>
      <trkpt lat="45.9876" lon="4.81775">
        <ele>241</ele>
        <time>2018-09-11T09:59:34Z</time>
      </trkpt>
      <trkpt lat="45.98757" lon="4.81769">
        <ele>241</ele>
        <time>2018-09-11T09:59:35Z</time>
      </trkpt>
      <trkpt lat="45.9875" lon="4.81763">
        <ele>241</ele>
        <time>2018-09-11T09:59:36Z</time>
      </trkpt>
      <trkpt lat="45.98747" lon="4.81759">
        <ele>240</ele>
        <time>2018-09-11T09:59:37Z</time>
      </trkpt>
      <trkpt lat="45.98743" lon="4.81749">
        <ele>240</ele>
        <time>2018-09-11T09:59:39Z</time>
      </trkpt>
      <trkpt lat="45.9874" lon="4.81743">
        <ele>240</ele>
        <time>2018-09-11T09:59:40Z</time>
      </trkpt>
      <trkpt lat="45.98737" lon="4.81738">
        <ele>240</ele>
        <time>2018-09-11T09:59:41Z</time>
      </trkpt>
      <trkpt lat="45.98734" lon="4.81733">
        <ele>239</ele>
        <time>2018-09-11T09:59:42Z</time>
      </trkpt>
      <trkpt lat="45.98729" lon="4.81729">
        <ele>239</ele>
        <time>2018-09-11T09:59:43Z</time>
      </trkpt>
      <trkpt lat="45.98725" lon="4.81725">
        <ele>239</ele>
        <time>2018-09-11T09:59:44Z</time>
      </trkpt>
      <trkpt lat="45.9872" lon="4.81726">
        <ele>239</ele>
        <time>2018-09-11T09:59:45Z</time>
      </trkpt>
      <trkpt lat="45.98716" lon="4.81726">
        <ele>239</ele>
        <time>2018-09-11T09:59:46Z</time>
      </trkpt>
      <trkpt lat="45.9871" lon="4.81728">
        <ele>239</ele>
        <time>2018-09-11T09:59:47Z</time>
      </trkpt>
      <trkpt lat="45.98704" lon="4.8173">
        <ele>239</ele>
        <time>2018-09-11T09:59:48Z</time>
      </trkpt>
      <trkpt lat="45.987" lon="4.8173">
        <ele>239</ele>
        <time>2018-09-11T09:59:49Z</time>
      </trkpt>
      <trkpt lat="45.98694" lon="4.81731">
        <ele>238</ele>
        <time>2018-09-11T09:59:50Z</time>
      </trkpt>
      <trkpt lat="45.98686" lon="4.81733">
        <ele>238</ele>
        <time>2018-09-11T09:59:52Z</time>
      </trkpt>
      <trkpt lat="45.98683" lon="4.81734">
        <ele>238</ele>
        <time>2018-09-11T09:59:53Z</time>
      </trkpt>
      <trkpt lat="45.98675" lon="4.81734">
        <ele>238</ele>
        <time>2018-09-11T09:59:55Z</time>
      </trkpt>
      <trkpt lat="45.9867" lon="4.81737">
        <ele>238</ele>
        <time>2018-09-11T09:59:56Z</time>
      </trkpt>
      <trkpt lat="45.98662" lon="4.81742">
        <ele>238</ele>
        <time>2018-09-11T09:59:58Z</time>
      </trkpt>
      <trkpt lat="45.98657" lon="4.81743">
        <ele>237</ele>
        <time>2018-09-11T09:59:59Z</time>
      </trkpt>
      <trkpt lat="45.98653" lon="4.81745">
        <ele>237</ele>
        <time>2018-09-11T10:00:00Z</time>
      </trkpt>
      <trkpt lat="45.98648" lon="4.81747">
        <ele>237</ele>
        <time>2018-09-11T10:00:01Z</time>
      </trkpt>
      <trkpt lat="45.98642" lon="4.81748">
        <ele>237</ele>
        <time>2018-09-11T10:00:02Z</time>
      </trkpt>
      <trkpt lat="45.98636" lon="4.81749">
        <ele>237</ele>
        <time>2018-09-11T10:00:03Z</time>
      </trkpt>
      <trkpt lat="45.98631" lon="4.8175">
        <ele>237</ele>
        <time>2018-09-11T10:00:04Z</time>
      </trkpt>
      <trkpt lat="45.98626" lon="4.81753">
        <ele>238</ele>
        <time>2018-09-11T10:00:05Z</time>
      </trkpt>
      <trkpt lat="45.98621" lon="4.81755">
        <ele>238</ele>
        <time>2018-09-11T10:00:06Z</time>
      </trkpt>
      <trkpt lat="45.98616" lon="4.81757">
        <ele>238</ele>
        <time>2018-09-11T10:00:07Z</time>
      </trkpt>
      <trkpt lat="45.98611" lon="4.81758">
        <ele>238</ele>
        <time>2018-09-11T10:00:08Z</time>
      </trkpt>
      <trkpt lat="45.98607" lon="4.8176">
        <ele>238</ele>
        <time>2018-09-11T10:00:09Z</time>
      </trkpt>
      <trkpt lat="45.98599" lon="4.81762">
        <ele>238</ele>
        <time>2018-09-11T10:00:11Z</time>
      </trkpt>
      <trkpt lat="45.98593" lon="4.8177">
        <ele>238</ele>
        <time>2018-09-11T10:00:12Z</time>
      </trkpt>
      <trkpt lat="45.98589" lon="4.81778">
        <ele>238</ele>
        <time>2018-09-11T10:00:13Z</time>
      </trkpt>
      <trkpt lat="45.98585" lon="4.81782">
        <ele>238</ele>
        <time>2018-09-11T10:00:14Z</time>
      </trkpt>
      <trkpt lat="45.98581" lon="4.81786">
        <ele>238</ele>
        <time>2018-09-11T10:00:15Z</time>
      </trkpt>
      <trkpt lat="45.98576" lon="4.81792">
        <ele>238</ele>
        <time>2018-09-11T10:00:16Z</time>
      </trkpt>
      <trkpt lat="45.98573" lon="4.81798">
        <ele>238</ele>
        <time>2018-09-11T10:00:17Z</time>
      </trkpt>
      <trkpt lat="45.9857" lon="4.81801">
        <ele>238</ele>
        <time>2018-09-11T10:00:18Z</time>
      </trkpt>
      <trkpt lat="45.98566" lon="4.81802">
        <ele>238</ele>
        <time>2018-09-11T10:00:19Z</time>
      </trkpt>
      <trkpt lat="45.9856" lon="4.81805">
        <ele>238</ele>
        <time>2018-09-11T10:00:20Z</time>
      </trkpt>
      <trkpt lat="45.98552" lon="4.81804">
        <ele>238</ele>
        <time>2018-09-11T10:00:22Z</time>
      </trkpt>
      <trkpt lat="45.98548" lon="4.81802">
        <ele>238</ele>
        <time>2018-09-11T10:00:23Z</time>
      </trkpt>
      <trkpt lat="45.98544" lon="4.81799">
        <ele>238</ele>
        <time>2018-09-11T10:00:24Z</time>
      </trkpt>
      <trkpt lat="45.9854" lon="4.81794">
        <ele>238</ele>
        <time>2018-09-11T10:00:25Z</time>
      </trkpt>
      <trkpt lat="45.98536" lon="4.81791">
        <ele>238</ele>
        <time>2018-09-11T10:00:26Z</time>
      </trkpt>
      <trkpt lat="45.98532" lon="4.81786">
        <ele>238</ele>
        <time>2018-09-11T10:00:27Z</time>
      </trkpt>
      <trkpt lat="45.98528" lon="4.8178">
        <ele>238</ele>
        <time>2018-09-11T10:00:28Z</time>
      </trkpt>
      <trkpt lat="45.98525" lon="4.81775">
        <ele>238</ele>
        <time>2018-09-11T10:00:29Z</time>
      </trkpt>
      <trkpt lat="45.98521" lon="4.81763">
        <ele>237</ele>
        <time>2018-09-11T10:00:31Z</time>
      </trkpt>
      <trkpt lat="45.98516" lon="4.81759">
        <ele>237</ele>
        <time>2018-09-11T10:00:32Z</time>
      </trkpt>
      <trkpt lat="45.98509" lon="4.81751">
        <ele>237</ele>
        <time>2018-09-11T10:00:34Z</time>
      </trkpt>
      <trkpt lat="45.98506" lon="4.81747">
        <ele>237</ele>
        <time>2018-09-11T10:00:35Z</time>
      </trkpt>
      <trkpt lat="45.98499" lon="4.81739">
        <ele>238</ele>
        <time>2018-09-11T10:00:37Z</time>
      </trkpt>
      <trkpt lat="45.98496" lon="4.81736">
        <ele>238</ele>
        <time>2018-09-11T10:00:38Z</time>
      </trkpt>
      <trkpt lat="45.9849" lon="4.8173">
        <ele>238</ele>
        <time>2018-09-11T10:00:40Z</time>
      </trkpt>
      <trkpt lat="45.98485" lon="4.81727">
        <ele>238</ele>
        <time>2018-09-11T10:00:41Z</time>
      </trkpt>
      <trkpt lat="45.98478" lon="4.8172">
        <ele>238</ele>
        <time>2018-09-11T10:00:43Z</time>
      </trkpt>
      <trkpt lat="45.98477" lon="4.81718">
        <ele>238</ele>
        <time>2018-09-11T10:00:44Z</time>
      </trkpt>
      <trkpt lat="45.9847" lon="4.81713">
        <ele>239</ele>
        <time>2018-09-11T10:00:47Z</time>
      </trkpt>
      <trkpt lat="45.98468" lon="4.81711">
        <ele>239</ele>
        <time>2018-09-11T10:00:48Z</time>
      </trkpt>
      <trkpt lat="45.98463" lon="4.81706">
        <ele>239</ele>
        <time>2018-09-11T10:00:50Z</time>
      </trkpt>
      <trkpt lat="45.9846" lon="4.81703">
        <ele>239</ele>
        <time>2018-09-11T10:00:51Z</time>
      </trkpt>
      <trkpt lat="45.98456" lon="4.81696">
        <ele>239</ele>
        <time>2018-09-11T10:00:53Z</time>
      </trkpt>
      <trkpt lat="45.98453" lon="4.81693">
        <ele>239</ele>
        <time>2018-09-11T10:00:54Z</time>
      </trkpt>
      <trkpt lat="45.98447" lon="4.81682">
        <ele>239</ele>
        <time>2018-09-11T10:00:55Z</time>
      </trkpt>
      <trkpt lat="45.98442" lon="4.81674">
        <ele>239</ele>
        <time>2018-09-11T10:00:57Z</time>
      </trkpt>
      <trkpt lat="45.98439" lon="4.8167">
        <ele>240</ele>
        <time>2018-09-11T10:00:58Z</time>
      </trkpt>
      <trkpt lat="45.98434" lon="4.8167">
        <ele>240</ele>
        <time>2018-09-11T10:00:59Z</time>
      </trkpt>
      <trkpt lat="45.98429" lon="4.81667">
        <ele>240</ele>
        <time>2018-09-11T10:01:00Z</time>
      </trkpt>
      <trkpt lat="45.98424" lon="4.81666">
        <ele>240</ele>
        <time>2018-09-11T10:01:01Z</time>
      </trkpt>
      <trkpt lat="45.98419" lon="4.81665">
        <ele>241</ele>
        <time>2018-09-11T10:01:02Z</time>
      </trkpt>
      <trkpt lat="45.9841" lon="4.81666">
        <ele>241</ele>
        <time>2018-09-11T10:01:04Z</time>
      </trkpt>
      <trkpt lat="45.98406" lon="4.81667">
        <ele>242</ele>
        <time>2018-09-11T10:01:05Z</time>
      </trkpt>
      <trkpt lat="45.98402" lon="4.81669">
        <ele>242</ele>
        <time>2018-09-11T10:01:06Z</time>
      </trkpt>
      <trkpt lat="45.98396" lon="4.8167">
        <ele>243</ele>
        <time>2018-09-11T10:01:07Z</time>
      </trkpt>
      <trkpt lat="45.98388" lon="4.81671">
        <ele>243</ele>
        <time>2018-09-11T10:01:09Z</time>
      </trkpt>
      <trkpt lat="45.98383" lon="4.81672">
        <ele>243</ele>
        <time>2018-09-11T10:01:10Z</time>
      </trkpt>
      <trkpt lat="45.98379" lon="4.81672">
        <ele>244</ele>
        <time>2018-09-11T10:01:11Z</time>
      </trkpt>
      <trkpt lat="45.98374" lon="4.81673">
        <ele>244</ele>
        <time>2018-09-11T10:01:12Z</time>
      </trkpt>
      <trkpt lat="45.9837" lon="4.81674">
        <ele>244</ele>
        <time>2018-09-11T10:01:13Z</time>
      </trkpt>
      <trkpt lat="45.98364" lon="4.81675">
        <ele>244</ele>
        <time>2018-09-11T10:01:14Z</time>
      </trkpt>
      <trkpt lat="45.98359" lon="4.81676">
        <ele>244</ele>
        <time>2018-09-11T10:01:15Z</time>
      </trkpt>
      <trkpt lat="45.98355" lon="4.81676">
        <ele>245</ele>
        <time>2018-09-11T10:01:16Z</time>
      </trkpt>
      <trkpt lat="45.98346" lon="4.81673">
        <ele>245</ele>
        <time>2018-09-11T10:01:18Z</time>
      </trkpt>
      <trkpt lat="45.98342" lon="4.81672">
        <ele>245</ele>
        <time>2018-09-11T10:01:19Z</time>
      </trkpt>
      <trkpt lat="45.98333" lon="4.81669">
        <ele>246</ele>
        <time>2018-09-11T10:01:21Z</time>
      </trkpt>
      <trkpt lat="45.98329" lon="4.81667">
        <ele>246</ele>
        <time>2018-09-11T10:01:22Z</time>
      </trkpt>
      <trkpt lat="45.98322" lon="4.8166">
        <ele>246</ele>
        <time>2018-09-11T10:01:24Z</time>
      </trkpt>
      <trkpt lat="45.98318" lon="4.81656">
        <ele>246</ele>
        <time>2018-09-11T10:01:25Z</time>
      </trkpt>
      <trkpt lat="45.98311" lon="4.81651">
        <ele>246</ele>
        <time>2018-09-11T10:01:27Z</time>
      </trkpt>
      <trkpt lat="45.98308" lon="4.81648">
        <ele>246</ele>
        <time>2018-09-11T10:01:28Z</time>
      </trkpt>
      <trkpt lat="45.98301" lon="4.81642">
        <ele>246</ele>
        <time>2018-09-11T10:01:30Z</time>
      </trkpt>
      <trkpt lat="45.98297" lon="4.81638">
        <ele>247</ele>
        <time>2018-09-11T10:01:31Z</time>
      </trkpt>
      <trkpt lat="45.98291" lon="4.8163">
        <ele>247</ele>
        <time>2018-09-11T10:01:33Z</time>
      </trkpt>
      <trkpt lat="45.98288" lon="4.81626">
        <ele>247</ele>
        <time>2018-09-11T10:01:34Z</time>
      </trkpt>
      <trkpt lat="45.98282" lon="4.81617">
        <ele>247</ele>
        <time>2018-09-11T10:01:36Z</time>
      </trkpt>
      <trkpt lat="45.98279" lon="4.81612">
        <ele>247</ele>
        <time>2018-09-11T10:01:37Z</time>
      </trkpt>
      <trkpt lat="45.98276" lon="4.81601">
        <ele>247</ele>
        <time>2018-09-11T10:01:39Z</time>
      </trkpt>
      <trkpt lat="45.98273" lon="4.81596">
        <ele>247</ele>
        <time>2018-09-11T10:01:40Z</time>
      </trkpt>
      <trkpt lat="45.98269" lon="4.81585">
        <ele>247</ele>
        <time>2018-09-11T10:01:42Z</time>
      </trkpt>
      <trkpt lat="45.98267" lon="4.81579">
        <ele>247</ele>
        <time>2018-09-11T10:01:43Z</time>
      </trkpt>
      <trkpt lat="45.98264" lon="4.81568">
        <ele>247</ele>
        <time>2018-09-11T10:01:45Z</time>
      </trkpt>
      <trkpt lat="45.98261" lon="4.81562">
        <ele>247</ele>
        <time>2018-09-11T10:01:46Z</time>
      </trkpt>
      <trkpt lat="45.98258" lon="4.81557">
        <ele>247</ele>
        <time>2018-09-11T10:01:47Z</time>
      </trkpt>
      <trkpt lat="45.98257" lon="4.8155">
        <ele>247</ele>
        <time>2018-09-11T10:01:48Z</time>
      </trkpt>
      <trkpt lat="45.98255" lon="4.81543">
        <ele>247</ele>
        <time>2018-09-11T10:01:49Z</time>
      </trkpt>
      <trkpt lat="45.98254" lon="4.81536">
        <ele>247</ele>
        <time>2018-09-11T10:01:50Z</time>
      </trkpt>
      <trkpt lat="45.98252" lon="4.81528">
        <ele>247</ele>
        <time>2018-09-11T10:01:51Z</time>
      </trkpt>
      <trkpt lat="45.9825" lon="4.81522">
        <ele>247</ele>
        <time>2018-09-11T10:01:52Z</time>
      </trkpt>
      <trkpt lat="45.98247" lon="4.8151">
        <ele>249</ele>
        <time>2018-09-11T10:01:54Z</time>
      </trkpt>
      <trkpt lat="45.98245" lon="4.81505">
        <ele>249</ele>
        <time>2018-09-11T10:01:55Z</time>
      </trkpt>
      <trkpt lat="45.98241" lon="4.81494">
        <ele>249</ele>
        <time>2018-09-11T10:01:57Z</time>
      </trkpt>
      <trkpt lat="45.9824" lon="4.81489">
        <ele>249</ele>
        <time>2018-09-11T10:01:58Z</time>
      </trkpt>
      <trkpt lat="45.98236" lon="4.81478">
        <ele>249</ele>
        <time>2018-09-11T10:02:00Z</time>
      </trkpt>
      <trkpt lat="45.98234" lon="4.81472">
        <ele>249</ele>
        <time>2018-09-11T10:02:01Z</time>
      </trkpt>
      <trkpt lat="45.9823" lon="4.81462">
        <ele>249</ele>
        <time>2018-09-11T10:02:03Z</time>
      </trkpt>
      <trkpt lat="45.98229" lon="4.81456">
        <ele>249</ele>
        <time>2018-09-11T10:02:04Z</time>
      </trkpt>
      <trkpt lat="45.98226" lon="4.81451">
        <ele>249</ele>
        <time>2018-09-11T10:02:05Z</time>
      </trkpt>
      <trkpt lat="45.98225" lon="4.81444">
        <ele>249</ele>
        <time>2018-09-11T10:02:06Z</time>
      </trkpt>
      <trkpt lat="45.98224" lon="4.81437">
        <ele>249</ele>
        <time>2018-09-11T10:02:07Z</time>
      </trkpt>
      <trkpt lat="45.98222" lon="4.81431">
        <ele>249</ele>
        <time>2018-09-11T10:02:08Z</time>
      </trkpt>
      <trkpt lat="45.9822" lon="4.81424">
        <ele>249</ele>
        <time>2018-09-11T10:02:09Z</time>
      </trkpt>
      <trkpt lat="45.9822" lon="4.81417">
        <ele>249</ele>
        <time>2018-09-11T10:02:10Z</time>
      </trkpt>
      <trkpt lat="45.98218" lon="4.8141">
        <ele>248</ele>
        <time>2018-09-11T10:02:11Z</time>
      </trkpt>
      <trkpt lat="45.98217" lon="4.81405">
        <ele>248</ele>
        <time>2018-09-11T10:02:12Z</time>
      </trkpt>
      <trkpt lat="45.98216" lon="4.81398">
        <ele>248</ele>
        <time>2018-09-11T10:02:13Z</time>
      </trkpt>
      <trkpt lat="45.98212" lon="4.81392">
        <ele>248</ele>
        <time>2018-09-11T10:02:14Z</time>
      </trkpt>
      <trkpt lat="45.9821" lon="4.81386">
        <ele>248</ele>
        <time>2018-09-11T10:02:15Z</time>
      </trkpt>
      <trkpt lat="45.98209" lon="4.81378">
        <ele>248</ele>
        <time>2018-09-11T10:02:16Z</time>
      </trkpt>
      <trkpt lat="45.98207" lon="4.81371">
        <ele>248</ele>
        <time>2018-09-11T10:02:17Z</time>
      </trkpt>
      <trkpt lat="45.98206" lon="4.81366">
        <ele>248</ele>
        <time>2018-09-11T10:02:18Z</time>
      </trkpt>
      <trkpt lat="45.98203" lon="4.81356">
        <ele>248</ele>
        <time>2018-09-11T10:02:19Z</time>
      </trkpt>
      <trkpt lat="45.98202" lon="4.81349">
        <ele>248</ele>
        <time>2018-09-11T10:02:20Z</time>
      </trkpt>
      <trkpt lat="45.982" lon="4.81341">
        <ele>248</ele>
        <time>2018-09-11T10:02:21Z</time>
      </trkpt>
      <trkpt lat="45.98198" lon="4.81333">
        <ele>247</ele>
        <time>2018-09-11T10:02:22Z</time>
      </trkpt>
      <trkpt lat="45.98196" lon="4.81325">
        <ele>247</ele>
        <time>2018-09-11T10:02:23Z</time>
      </trkpt>
      <trkpt lat="45.98194" lon="4.81317">
        <ele>247</ele>
        <time>2018-09-11T10:02:24Z</time>
      </trkpt>
      <trkpt lat="45.98192" lon="4.81308">
        <ele>247</ele>
        <time>2018-09-11T10:02:25Z</time>
      </trkpt>
      <trkpt lat="45.9819" lon="4.81301">
        <ele>247</ele>
        <time>2018-09-11T10:02:26Z</time>
      </trkpt>
      <trkpt lat="45.98189" lon="4.81292">
        <ele>247</ele>
        <time>2018-09-11T10:02:27Z</time>
      </trkpt>
      <trkpt lat="45.98187" lon="4.81284">
        <ele>247</ele>
        <time>2018-09-11T10:02:28Z</time>
      </trkpt>
      <trkpt lat="45.98185" lon="4.81276">
        <ele>247</ele>
        <time>2018-09-11T10:02:29Z</time>
      </trkpt>
      <trkpt lat="45.98183" lon="4.81268">
        <ele>247</ele>
        <time>2018-09-11T10:02:30Z</time>
      </trkpt>
      <trkpt lat="45.98182" lon="4.8126">
        <ele>247</ele>
        <time>2018-09-11T10:02:31Z</time>
      </trkpt>
      <trkpt lat="45.98181" lon="4.81252">
        <ele>247</ele>
        <time>2018-09-11T10:02:32Z</time>
      </trkpt>
      <trkpt lat="45.9818" lon="4.81244">
        <ele>247</ele>
        <time>2018-09-11T10:02:33Z</time>
      </trkpt>
      <trkpt lat="45.98179" lon="4.81236">
        <ele>246</ele>
        <time>2018-09-11T10:02:34Z</time>
      </trkpt>
      <trkpt lat="45.98176" lon="4.81227">
        <ele>246</ele>
        <time>2018-09-11T10:02:35Z</time>
      </trkpt>
      <trkpt lat="45.98175" lon="4.81219">
        <ele>246</ele>
        <time>2018-09-11T10:02:36Z</time>
      </trkpt>
      <trkpt lat="45.98173" lon="4.81211">
        <ele>246</ele>
        <time>2018-09-11T10:02:37Z</time>
      </trkpt>
      <trkpt lat="45.98172" lon="4.81204">
        <ele>245</ele>
        <time>2018-09-11T10:02:38Z</time>
      </trkpt>
      <trkpt lat="45.98171" lon="4.81196">
        <ele>245</ele>
        <time>2018-09-11T10:02:39Z</time>
      </trkpt>
      <trkpt lat="45.98171" lon="4.81189">
        <ele>245</ele>
        <time>2018-09-11T10:02:40Z</time>
      </trkpt>
      <trkpt lat="45.9817" lon="4.81181">
        <ele>245</ele>
        <time>2018-09-11T10:02:41Z</time>
      </trkpt>
      <trkpt lat="45.98169" lon="4.81173">
        <ele>245</ele>
        <time>2018-09-11T10:02:42Z</time>
      </trkpt>
      <trkpt lat="45.98166" lon="4.81165">
        <ele>245</ele>
        <time>2018-09-11T10:02:43Z</time>
      </trkpt>
      <trkpt lat="45.98164" lon="4.81158">
        <ele>245</ele>
        <time>2018-09-11T10:02:44Z</time>
      </trkpt>
      <trkpt lat="45.98165" lon="4.8115">
        <ele>245</ele>
        <time>2018-09-11T10:02:45Z</time>
      </trkpt>
      <trkpt lat="45.98161" lon="4.81144">
        <ele>245</ele>
        <time>2018-09-11T10:02:46Z</time>
      </trkpt>
      <trkpt lat="45.98159" lon="4.81137">
        <ele>245</ele>
        <time>2018-09-11T10:02:47Z</time>
      </trkpt>
      <trkpt lat="45.98156" lon="4.81131">
        <ele>245</ele>
        <time>2018-09-11T10:02:48Z</time>
      </trkpt>
      <trkpt lat="45.98152" lon="4.81124">
        <ele>245</ele>
        <time>2018-09-11T10:02:49Z</time>
      </trkpt>
      <trkpt lat="45.98149" lon="4.81117">
        <ele>245</ele>
        <time>2018-09-11T10:02:50Z</time>
      </trkpt>
      <trkpt lat="45.98146" lon="4.8111">
        <ele>245</ele>
        <time>2018-09-11T10:02:51Z</time>
      </trkpt>
      <trkpt lat="45.98143" lon="4.81103">
        <ele>245</ele>
        <time>2018-09-11T10:02:52Z</time>
      </trkpt>
      <trkpt lat="45.98141" lon="4.81098">
        <ele>245</ele>
        <time>2018-09-11T10:02:53Z</time>
      </trkpt>
      <trkpt lat="45.98138" lon="4.8109">
        <ele>245</ele>
        <time>2018-09-11T10:02:54Z</time>
      </trkpt>
      <trkpt lat="45.98135" lon="4.81083">
        <ele>243</ele>
        <time>2018-09-11T10:02:55Z</time>
      </trkpt>
      <trkpt lat="45.98132" lon="4.81076">
        <ele>243</ele>
        <time>2018-09-11T10:02:56Z</time>
      </trkpt>
      <trkpt lat="45.98129" lon="4.81068">
        <ele>243</ele>
        <time>2018-09-11T10:02:57Z</time>
      </trkpt>
      <trkpt lat="45.98125" lon="4.81059">
        <ele>243</ele>
        <time>2018-09-11T10:02:58Z</time>
      </trkpt>
      <trkpt lat="45.98123" lon="4.81051">
        <ele>243</ele>
        <time>2018-09-11T10:02:59Z</time>
      </trkpt>
      <trkpt lat="45.98122" lon="4.81044">
        <ele>242</ele>
        <time>2018-09-11T10:03:00Z</time>
      </trkpt>
      <trkpt lat="45.98119" lon="4.81037">
        <ele>242</ele>
        <time>2018-09-11T10:03:01Z</time>
      </trkpt>
      <trkpt lat="45.98116" lon="4.8103">
        <ele>242</ele>
        <time>2018-09-11T10:03:02Z</time>
      </trkpt>
      <trkpt lat="45.98114" lon="4.81023">
        <ele>242</ele>
        <time>2018-09-11T10:03:03Z</time>
      </trkpt>
      <trkpt lat="45.98112" lon="4.81016">
        <ele>242</ele>
        <time>2018-09-11T10:03:04Z</time>
      </trkpt>
      <trkpt lat="45.9811" lon="4.8101">
        <ele>242</ele>
        <time>2018-09-11T10:03:05Z</time>
      </trkpt>
      <trkpt lat="45.98107" lon="4.81003">
        <ele>242</ele>
        <time>2018-09-11T10:03:06Z</time>
      </trkpt>
      <trkpt lat="45.98105" lon="4.80996">
        <ele>239</ele>
        <time>2018-09-11T10:03:07Z</time>
      </trkpt>
      <trkpt lat="45.98102" lon="4.80989">
        <ele>239</ele>
        <time>2018-09-11T10:03:08Z</time>
      </trkpt>
      <trkpt lat="45.981" lon="4.80983">
        <ele>239</ele>
        <time>2018-09-11T10:03:09Z</time>
      </trkpt>
      <trkpt lat="45.98097" lon="4.80976">
        <ele>239</ele>
        <time>2018-09-11T10:03:10Z</time>
      </trkpt>
      <trkpt lat="45.98096" lon="4.80969">
        <ele>239</ele>
        <time>2018-09-11T10:03:11Z</time>
      </trkpt>
      <trkpt lat="45.98093" lon="4.80961">
        <ele>239</ele>
        <time>2018-09-11T10:03:12Z</time>
      </trkpt>
      <trkpt lat="45.98089" lon="4.80952">
        <ele>238</ele>
        <time>2018-09-11T10:03:13Z</time>
      </trkpt>
      <trkpt lat="45.98087" lon="4.80942">
        <ele>238</ele>
        <time>2018-09-11T10:03:14Z</time>
      </trkpt>
      <trkpt lat="45.98084" lon="4.80932">
        <ele>238</ele>
        <time>2018-09-11T10:03:15Z</time>
      </trkpt>
      <trkpt lat="45.98082" lon="4.80921">
        <ele>239</ele>
        <time>2018-09-11T10:03:16Z</time>
      </trkpt>
      <trkpt lat="45.98079" lon="4.80909">
        <ele>238</ele>
        <time>2018-09-11T10:03:17Z</time>
      </trkpt>
      <trkpt lat="45.98077" lon="4.80898">
        <ele>238</ele>
        <time>2018-09-11T10:03:18Z</time>
      </trkpt>
      <trkpt lat="45.98074" lon="4.80887">
        <ele>237</ele>
        <time>2018-09-11T10:03:19Z</time>
      </trkpt>
      <trkpt lat="45.9807" lon="4.80876">
        <ele>237</ele>
        <time>2018-09-11T10:03:20Z</time>
      </trkpt>
      <trkpt lat="45.98068" lon="4.80866">
        <ele>237</ele>
        <time>2018-09-11T10:03:21Z</time>
      </trkpt>
      <trkpt lat="45.98065" lon="4.80854">
        <ele>236</ele>
        <time>2018-09-11T10:03:22Z</time>
      </trkpt>
      <trkpt lat="45.98063" lon="4.80844">
        <ele>236</ele>
        <time>2018-09-11T10:03:23Z</time>
      </trkpt>
      <trkpt lat="45.9806" lon="4.80832">
        <ele>234</ele>
        <time>2018-09-11T10:03:24Z</time>
      </trkpt>
      <trkpt lat="45.98059" lon="4.80821">
        <ele>234</ele>
        <time>2018-09-11T10:03:25Z</time>
      </trkpt>
      <trkpt lat="45.98056" lon="4.80809">
        <ele>234</ele>
        <time>2018-09-11T10:03:26Z</time>
      </trkpt>
      <trkpt lat="45.98054" lon="4.80799">
        <ele>233</ele>
        <time>2018-09-11T10:03:27Z</time>
      </trkpt>
      <trkpt lat="45.98052" lon="4.80788">
        <ele>233</ele>
        <time>2018-09-11T10:03:28Z</time>
      </trkpt>
      <trkpt lat="45.98049" lon="4.80778">
        <ele>233</ele>
        <time>2018-09-11T10:03:29Z</time>
      </trkpt>
      <trkpt lat="45.98047" lon="4.8077">
        <ele>233</ele>
        <time>2018-09-11T10:03:30Z</time>
      </trkpt>
      <trkpt lat="45.98044" lon="4.80761">
        <ele>233</ele>
        <time>2018-09-11T10:03:31Z</time>
      </trkpt>
      <trkpt lat="45.98045" lon="4.80754">
        <ele>233</ele>
        <time>2018-09-11T10:03:32Z</time>
      </trkpt>
      <trkpt lat="45.98044" lon="4.80747">
        <ele>231</ele>
        <time>2018-09-11T10:03:33Z</time>
      </trkpt>
      <trkpt lat="45.98041" lon="4.8074">
        <ele>231</ele>
        <time>2018-09-11T10:03:34Z</time>
      </trkpt>
      <trkpt lat="45.9804" lon="4.80733">
        <ele>231</ele>
        <time>2018-09-11T10:03:35Z</time>
      </trkpt>
      <trkpt lat="45.98038" lon="4.80726">
        <ele>231</ele>
        <time>2018-09-11T10:03:36Z</time>
      </trkpt>
      <trkpt lat="45.98035" lon="4.80716">
        <ele>231</ele>
        <time>2018-09-11T10:03:38Z</time>
      </trkpt>
      <trkpt lat="45.98034" lon="4.80714">
        <ele>231</ele>
        <time>2018-09-11T10:03:39Z</time>
      </trkpt>
      <trkpt lat="45.98036" lon="4.80702">
        <ele>230</ele>
        <time>2018-09-11T10:03:41Z</time>
      </trkpt>
      <trkpt lat="45.98038" lon="4.807">
        <ele>230</ele>
        <time>2018-09-11T10:03:42Z</time>
      </trkpt>
      <trkpt lat="45.98041" lon="4.80699">
        <ele>230</ele>
        <time>2018-09-11T10:03:43Z</time>
      </trkpt>
      <trkpt lat="45.98046" lon="4.80697">
        <ele>230</ele>
        <time>2018-09-11T10:03:44Z</time>
      </trkpt>
      <trkpt lat="45.98051" lon="4.80696">
        <ele>230</ele>
        <time>2018-09-11T10:03:45Z</time>
      </trkpt>
      <trkpt lat="45.98056" lon="4.80696">
        <ele>230</ele>
        <time>2018-09-11T10:03:46Z</time>
      </trkpt>
      <trkpt lat="45.98062" lon="4.80696">
        <ele>230</ele>
        <time>2018-09-11T10:03:47Z</time>
      </trkpt>
      <trkpt lat="45.98067" lon="4.80695">
        <ele>230</ele>
        <time>2018-09-11T10:03:48Z</time>
      </trkpt>
      <trkpt lat="45.98074" lon="4.80695">
        <ele>230</ele>
        <time>2018-09-11T10:03:49Z</time>
      </trkpt>
      <trkpt lat="45.9808" lon="4.80695">
        <ele>230</ele>
        <time>2018-09-11T10:03:50Z</time>
      </trkpt>
      <trkpt lat="45.98086" lon="4.80694">
        <ele>228</ele>
        <time>2018-09-11T10:03:51Z</time>
      </trkpt>
      <trkpt lat="45.98093" lon="4.80694">
        <ele>228</ele>
        <time>2018-09-11T10:03:52Z</time>
      </trkpt>
      <trkpt lat="45.98099" lon="4.80694">
        <ele>228</ele>
        <time>2018-09-11T10:03:53Z</time>
      </trkpt>
      <trkpt lat="45.98106" lon="4.80693">
        <ele>228</ele>
        <time>2018-09-11T10:03:54Z</time>
      </trkpt>
      <trkpt lat="45.98113" lon="4.80693">
        <ele>228</ele>
        <time>2018-09-11T10:03:55Z</time>
      </trkpt>
      <trkpt lat="45.9812" lon="4.80692">
        <ele>228</ele>
        <time>2018-09-11T10:03:56Z</time>
      </trkpt>
      <trkpt lat="45.98127" lon="4.80692">
        <ele>228</ele>
        <time>2018-09-11T10:03:57Z</time>
      </trkpt>
      <trkpt lat="45.98134" lon="4.80693">
        <ele>228</ele>
        <time>2018-09-11T10:03:58Z</time>
      </trkpt>
      <trkpt lat="45.9814" lon="4.80692">
        <ele>228</ele>
        <time>2018-09-11T10:03:59Z</time>
      </trkpt>
      <trkpt lat="45.98147" lon="4.80692">
        <ele>228</ele>
        <time>2018-09-11T10:04:00Z</time>
      </trkpt>
      <trkpt lat="45.98155" lon="4.80691">
        <ele>227</ele>
        <time>2018-09-11T10:04:01Z</time>
      </trkpt>
      <trkpt lat="45.98163" lon="4.8069">
        <ele>227</ele>
        <time>2018-09-11T10:04:02Z</time>
      </trkpt>
      <trkpt lat="45.9817" lon="4.8069">
        <ele>225</ele>
        <time>2018-09-11T10:04:03Z</time>
      </trkpt>
      <trkpt lat="45.98178" lon="4.80688">
        <ele>225</ele>
        <time>2018-09-11T10:04:04Z</time>
      </trkpt>
      <trkpt lat="45.98186" lon="4.80685">
        <ele>225</ele>
        <time>2018-09-11T10:04:05Z</time>
      </trkpt>
      <trkpt lat="45.98193" lon="4.80682">
        <ele>225</ele>
        <time>2018-09-11T10:04:06Z</time>
      </trkpt>
      <trkpt lat="45.982" lon="4.8068">
        <ele>225</ele>
        <time>2018-09-11T10:04:07Z</time>
      </trkpt>
      <trkpt lat="45.98208" lon="4.80675">
        <ele>224</ele>
        <time>2018-09-11T10:04:08Z</time>
      </trkpt>
      <trkpt lat="45.98213" lon="4.80672">
        <ele>224</ele>
        <time>2018-09-11T10:04:09Z</time>
      </trkpt>
      <trkpt lat="45.9822" lon="4.80668">
        <ele>224</ele>
        <time>2018-09-11T10:04:10Z</time>
      </trkpt>
      <trkpt lat="45.98225" lon="4.80662">
        <ele>223</ele>
        <time>2018-09-11T10:04:11Z</time>
      </trkpt>
      <trkpt lat="45.98229" lon="4.80653">
        <ele>223</ele>
        <time>2018-09-11T10:04:12Z</time>
      </trkpt>
      <trkpt lat="45.98233" lon="4.80643">
        <ele>223</ele>
        <time>2018-09-11T10:04:13Z</time>
      </trkpt>
      <trkpt lat="45.98237" lon="4.80631">
        <ele>224</ele>
        <time>2018-09-11T10:04:14Z</time>
      </trkpt>
      <trkpt lat="45.9824" lon="4.80621">
        <ele>224</ele>
        <time>2018-09-11T10:04:15Z</time>
      </trkpt>
      <trkpt lat="45.98244" lon="4.80611">
        <ele>224</ele>
        <time>2018-09-11T10:04:16Z</time>
      </trkpt>
      <trkpt lat="45.98247" lon="4.80603">
        <ele>224</ele>
        <time>2018-09-11T10:04:17Z</time>
      </trkpt>
      <trkpt lat="45.98249" lon="4.80594">
        <ele>224</ele>
        <time>2018-09-11T10:04:18Z</time>
      </trkpt>
      <trkpt lat="45.98252" lon="4.80585">
        <ele>224</ele>
        <time>2018-09-11T10:04:19Z</time>
      </trkpt>
      <trkpt lat="45.98255" lon="4.80575">
        <ele>224</ele>
        <time>2018-09-11T10:04:20Z</time>
      </trkpt>
      <trkpt lat="45.98258" lon="4.80566">
        <ele>224</ele>
        <time>2018-09-11T10:04:21Z</time>
      </trkpt>
      <trkpt lat="45.98261" lon="4.80555">
        <ele>224</ele>
        <time>2018-09-11T10:04:22Z</time>
      </trkpt>
      <trkpt lat="45.98264" lon="4.80547">
        <ele>224</ele>
        <time>2018-09-11T10:04:23Z</time>
      </trkpt>
      <trkpt lat="45.98266" lon="4.8054">
        <ele>224</ele>
        <time>2018-09-11T10:04:24Z</time>
      </trkpt>
      <trkpt lat="45.98269" lon="4.80531">
        <ele>224</ele>
        <time>2018-09-11T10:04:26Z</time>
      </trkpt>
      <trkpt lat="45.98276" lon="4.80528">
        <ele>224</ele>
        <time>2018-09-11T10:04:27Z</time>
      </trkpt>
      <trkpt lat="45.98278" lon="4.8052">
        <ele>224</ele>
        <time>2018-09-11T10:04:33Z</time>
      </trkpt>
      <trkpt lat="45.98278" lon="4.8052">
        <ele>224</ele>
        <time>2018-09-11T10:04:34Z</time>
      </trkpt>
      <trkpt lat="45.98277" lon="4.8052">
        <ele>224</ele>
        <time>2018-09-11T10:04:37Z</time>
      </trkpt>
      <trkpt lat="45.98276" lon="4.8052">
        <ele>224</ele>
        <time>2018-09-11T10:04:38Z</time>
      </trkpt>
      <trkpt lat="45.98275" lon="4.80508">
        <ele>223</ele>
        <time>2018-09-11T10:05:15Z</time>
      </trkpt>
      <trkpt lat="45.98276" lon="4.80505">
        <ele>224</ele>
        <time>2018-09-11T10:05:16Z</time>
      </trkpt>
      <trkpt lat="45.98278" lon="4.80496">
        <ele>223</ele>
        <time>2018-09-11T10:05:18Z</time>
      </trkpt>
      <trkpt lat="45.98284" lon="4.8048">
        <ele>223</ele>
        <time>2018-09-11T10:05:19Z</time>
      </trkpt>
      <trkpt lat="45.98288" lon="4.80468">
        <ele>224</ele>
        <time>2018-09-11T10:05:21Z</time>
      </trkpt>
      <trkpt lat="45.9829" lon="4.80462">
        <ele>224</ele>
        <time>2018-09-11T10:05:22Z</time>
      </trkpt>
      <trkpt lat="45.98292" lon="4.80456">
        <ele>224</ele>
        <time>2018-09-11T10:05:23Z</time>
      </trkpt>
      <trkpt lat="45.98294" lon="4.8045">
        <ele>224</ele>
        <time>2018-09-11T10:05:24Z</time>
      </trkpt>
      <trkpt lat="45.98299" lon="4.8044">
        <ele>224</ele>
        <time>2018-09-11T10:05:26Z</time>
      </trkpt>
      <trkpt lat="45.983" lon="4.80436">
        <ele>224</ele>
        <time>2018-09-11T10:05:27Z</time>
      </trkpt>
      <trkpt lat="45.98301" lon="4.80428">
        <ele>224</ele>
        <time>2018-09-11T10:05:28Z</time>
      </trkpt>
      <trkpt lat="45.98303" lon="4.80422">
        <ele>225</ele>
        <time>2018-09-11T10:05:29Z</time>
      </trkpt>
      <trkpt lat="45.98303" lon="4.80412">
        <ele>225</ele>
        <time>2018-09-11T10:05:30Z</time>
      </trkpt>
      <trkpt lat="45.98304" lon="4.80402">
        <ele>225</ele>
        <time>2018-09-11T10:05:31Z</time>
      </trkpt>
      <trkpt lat="45.98305" lon="4.8039">
        <ele>225</ele>
        <time>2018-09-11T10:05:33Z</time>
      </trkpt>
      <trkpt lat="45.98305" lon="4.80384">
        <ele>225</ele>
        <time>2018-09-11T10:05:34Z</time>
      </trkpt>
      <trkpt lat="45.98305" lon="4.80373">
        <ele>225</ele>
        <time>2018-09-11T10:05:36Z</time>
      </trkpt>
      <trkpt lat="45.98305" lon="4.8037">
        <ele>225</ele>
        <time>2018-09-11T10:05:37Z</time>
      </trkpt>
      <trkpt lat="45.98307" lon="4.80359">
        <ele>225</ele>
        <time>2018-09-11T10:05:40Z</time>
      </trkpt>
      <trkpt lat="45.98308" lon="4.80355">
        <ele>226</ele>
        <time>2018-09-11T10:05:41Z</time>
      </trkpt>
      <trkpt lat="45.9831" lon="4.80346">
        <ele>226</ele>
        <time>2018-09-11T10:05:43Z</time>
      </trkpt>
      <trkpt lat="45.98311" lon="4.80341">
        <ele>226</ele>
        <time>2018-09-11T10:05:44Z</time>
      </trkpt>
      <trkpt lat="45.98315" lon="4.80329">
        <ele>227</ele>
        <time>2018-09-11T10:05:45Z</time>
      </trkpt>
      <trkpt lat="45.98317" lon="4.80319">
        <ele>227</ele>
        <time>2018-09-11T10:05:47Z</time>
      </trkpt>
      <trkpt lat="45.98318" lon="4.80315">
        <ele>227</ele>
        <time>2018-09-11T10:05:48Z</time>
      </trkpt>
      <trkpt lat="45.98321" lon="4.80304">
        <ele>227</ele>
        <time>2018-09-11T10:05:52Z</time>
      </trkpt>
      <trkpt lat="45.98321" lon="4.80302">
        <ele>227</ele>
        <time>2018-09-11T10:05:53Z</time>
      </trkpt>
      <trkpt lat="45.98324" lon="4.80292">
        <ele>227</ele>
        <time>2018-09-11T10:05:56Z</time>
      </trkpt>
      <trkpt lat="45.98325" lon="4.80288">
        <ele>227</ele>
        <time>2018-09-11T10:05:57Z</time>
      </trkpt>
      <trkpt lat="45.98328" lon="4.8028">
        <ele>227</ele>
        <time>2018-09-11T10:05:59Z</time>
      </trkpt>
      <trkpt lat="45.9833" lon="4.80276">
        <ele>227</ele>
        <time>2018-09-11T10:06:00Z</time>
      </trkpt>
      <trkpt lat="45.98336" lon="4.80263">
        <ele>230</ele>
        <time>2018-09-11T10:06:01Z</time>
      </trkpt>
      <trkpt lat="45.9834" lon="4.80255">
        <ele>230</ele>
        <time>2018-09-11T10:06:05Z</time>
      </trkpt>
      <trkpt lat="45.98342" lon="4.80246">
        <ele>230</ele>
        <time>2018-09-11T10:06:06Z</time>
      </trkpt>
      <trkpt lat="45.98344" lon="4.80235">
        <ele>230</ele>
        <time>2018-09-11T10:06:09Z</time>
      </trkpt>
      <trkpt lat="45.98341" lon="4.80221">
        <ele>230</ele>
        <time>2018-09-11T10:06:10Z</time>
      </trkpt>
      <trkpt lat="45.98335" lon="4.80209">
        <ele>230</ele>
        <time>2018-09-11T10:06:11Z</time>
      </trkpt>
      <trkpt lat="45.98333" lon="4.80201">
        <ele>227</ele>
        <time>2018-09-11T10:06:12Z</time>
      </trkpt>
      <trkpt lat="45.9833" lon="4.80195">
        <ele>227</ele>
        <time>2018-09-11T10:06:13Z</time>
      </trkpt>
      <trkpt lat="45.98328" lon="4.80189">
        <ele>227</ele>
        <time>2018-09-11T10:06:14Z</time>
      </trkpt>
      <trkpt lat="45.98326" lon="4.80183">
        <ele>227</ele>
        <time>2018-09-11T10:06:15Z</time>
      </trkpt>
      <trkpt lat="45.98324" lon="4.80177">
        <ele>227</ele>
        <time>2018-09-11T10:06:16Z</time>
      </trkpt>
      <trkpt lat="45.98321" lon="4.8017">
        <ele>227</ele>
        <time>2018-09-11T10:06:17Z</time>
      </trkpt>
      <trkpt lat="45.98318" lon="4.80159">
        <ele>228</ele>
        <time>2018-09-11T10:06:19Z</time>
      </trkpt>
      <trkpt lat="45.98315" lon="4.80153">
        <ele>228</ele>
        <time>2018-09-11T10:06:20Z</time>
      </trkpt>
      <trkpt lat="45.98311" lon="4.80143">
        <ele>228</ele>
        <time>2018-09-11T10:06:22Z</time>
      </trkpt>
      <trkpt lat="45.9831" lon="4.80138">
        <ele>228</ele>
        <time>2018-09-11T10:06:23Z</time>
      </trkpt>
      <trkpt lat="45.98306" lon="4.80128">
        <ele>228</ele>
        <time>2018-09-11T10:06:25Z</time>
      </trkpt>
      <trkpt lat="45.98304" lon="4.80123">
        <ele>228</ele>
        <time>2018-09-11T10:06:26Z</time>
      </trkpt>
      <trkpt lat="45.98301" lon="4.80113">
        <ele>228</ele>
        <time>2018-09-11T10:06:28Z</time>
      </trkpt>
      <trkpt lat="45.98301" lon="4.8011">
        <ele>228</ele>
        <time>2018-09-11T10:06:29Z</time>
      </trkpt>
      <trkpt lat="45.98299" lon="4.80107">
        <ele>228</ele>
        <time>2018-09-11T10:06:30Z</time>
      </trkpt>
      <trkpt lat="45.98296" lon="4.80098">
        <ele>228</ele>
        <time>2018-09-11T10:06:31Z</time>
      </trkpt>
      <trkpt lat="45.98293" lon="4.80087">
        <ele>228</ele>
        <time>2018-09-11T10:06:33Z</time>
      </trkpt>
      <trkpt lat="45.98291" lon="4.80082">
        <ele>229</ele>
        <time>2018-09-11T10:06:34Z</time>
      </trkpt>
      <trkpt lat="45.98286" lon="4.80071">
        <ele>229</ele>
        <time>2018-09-11T10:06:36Z</time>
      </trkpt>
      <trkpt lat="45.98284" lon="4.80066">
        <ele>229</ele>
        <time>2018-09-11T10:06:37Z</time>
      </trkpt>
      <trkpt lat="45.9828" lon="4.80056">
        <ele>229</ele>
        <time>2018-09-11T10:06:39Z</time>
      </trkpt>
      <trkpt lat="45.98278" lon="4.8005">
        <ele>229</ele>
        <time>2018-09-11T10:06:40Z</time>
      </trkpt>
      <trkpt lat="45.98276" lon="4.80045">
        <ele>229</ele>
        <time>2018-09-11T10:06:41Z</time>
      </trkpt>
      <trkpt lat="45.98275" lon="4.80037">
        <ele>229</ele>
        <time>2018-09-11T10:06:42Z</time>
      </trkpt>
      <trkpt lat="45.98273" lon="4.80031">
        <ele>229</ele>
        <time>2018-09-11T10:06:43Z</time>
      </trkpt>
      <trkpt lat="45.9827" lon="4.80023">
        <ele>229</ele>
        <time>2018-09-11T10:06:44Z</time>
      </trkpt>
      <trkpt lat="45.98268" lon="4.80014">
        <ele>228</ele>
        <time>2018-09-11T10:06:45Z</time>
      </trkpt>
      <trkpt lat="45.98266" lon="4.80011">
        <ele>228</ele>
        <time>2018-09-11T10:06:46Z</time>
      </trkpt>
      <trkpt lat="45.98263" lon="4.80005">
        <ele>228</ele>
        <time>2018-09-11T10:06:47Z</time>
      </trkpt>
      <trkpt lat="45.9826" lon="4.79999">
        <ele>227</ele>
        <time>2018-09-11T10:06:48Z</time>
      </trkpt>
      <trkpt lat="45.98258" lon="4.79992">
        <ele>227</ele>
        <time>2018-09-11T10:06:49Z</time>
      </trkpt>
      <trkpt lat="45.98255" lon="4.79987">
        <ele>228</ele>
        <time>2018-09-11T10:06:50Z</time>
      </trkpt>
      <trkpt lat="45.98253" lon="4.79981">
        <ele>228</ele>
        <time>2018-09-11T10:06:51Z</time>
      </trkpt>
      <trkpt lat="45.9825" lon="4.79975">
        <ele>228</ele>
        <time>2018-09-11T10:06:52Z</time>
      </trkpt>
      <trkpt lat="45.98247" lon="4.79964">
        <ele>225</ele>
        <time>2018-09-11T10:06:54Z</time>
      </trkpt>
      <trkpt lat="45.98246" lon="4.79959">
        <ele>225</ele>
        <time>2018-09-11T10:06:55Z</time>
      </trkpt>
      <trkpt lat="45.98242" lon="4.79949">
        <ele>225</ele>
        <time>2018-09-11T10:06:57Z</time>
      </trkpt>
      <trkpt lat="45.98239" lon="4.79943">
        <ele>225</ele>
        <time>2018-09-11T10:06:58Z</time>
      </trkpt>
      <trkpt lat="45.98239" lon="4.79936">
        <ele>225</ele>
        <time>2018-09-11T10:06:59Z</time>
      </trkpt>
      <trkpt lat="45.98237" lon="4.7993">
        <ele>225</ele>
        <time>2018-09-11T10:07:00Z</time>
      </trkpt>
      <trkpt lat="45.98235" lon="4.79924">
        <ele>225</ele>
        <time>2018-09-11T10:07:01Z</time>
      </trkpt>
      <trkpt lat="45.98232" lon="4.79917">
        <ele>225</ele>
        <time>2018-09-11T10:07:02Z</time>
      </trkpt>
      <trkpt lat="45.9823" lon="4.7991">
        <ele>225</ele>
        <time>2018-09-11T10:07:03Z</time>
      </trkpt>
      <trkpt lat="45.98227" lon="4.79903">
        <ele>225</ele>
        <time>2018-09-11T10:07:04Z</time>
      </trkpt>
      <trkpt lat="45.98225" lon="4.79896">
        <ele>225</ele>
        <time>2018-09-11T10:07:05Z</time>
      </trkpt>
      <trkpt lat="45.98222" lon="4.7989">
        <ele>225</ele>
        <time>2018-09-11T10:07:06Z</time>
      </trkpt>
      <trkpt lat="45.9822" lon="4.79883">
        <ele>225</ele>
        <time>2018-09-11T10:07:07Z</time>
      </trkpt>
      <trkpt lat="45.98217" lon="4.79877">
        <ele>225</ele>
        <time>2018-09-11T10:07:08Z</time>
      </trkpt>
      <trkpt lat="45.98214" lon="4.79871">
        <ele>225</ele>
        <time>2018-09-11T10:07:09Z</time>
      </trkpt>
      <trkpt lat="45.98212" lon="4.79866">
        <ele>225</ele>
        <time>2018-09-11T10:07:10Z</time>
      </trkpt>
      <trkpt lat="45.98208" lon="4.79855">
        <ele>225</ele>
        <time>2018-09-11T10:07:12Z</time>
      </trkpt>
      <trkpt lat="45.98206" lon="4.79849">
        <ele>225</ele>
        <time>2018-09-11T10:07:13Z</time>
      </trkpt>
      <trkpt lat="45.98204" lon="4.79843">
        <ele>225</ele>
        <time>2018-09-11T10:07:14Z</time>
      </trkpt>
      <trkpt lat="45.98202" lon="4.79838">
        <ele>225</ele>
        <time>2018-09-11T10:07:15Z</time>
      </trkpt>
      <trkpt lat="45.98199" lon="4.79827">
        <ele>225</ele>
        <time>2018-09-11T10:07:17Z</time>
      </trkpt>
      <trkpt lat="45.98196" lon="4.79822">
        <ele>225</ele>
        <time>2018-09-11T10:07:18Z</time>
      </trkpt>
      <trkpt lat="45.98195" lon="4.79817">
        <ele>225</ele>
        <time>2018-09-11T10:07:19Z</time>
      </trkpt>
      <trkpt lat="45.98192" lon="4.7981">
        <ele>226</ele>
        <time>2018-09-11T10:07:20Z</time>
      </trkpt>
      <trkpt lat="45.98189" lon="4.79801">
        <ele>226</ele>
        <time>2018-09-11T10:07:22Z</time>
      </trkpt>
      <trkpt lat="45.98188" lon="4.79796">
        <ele>226</ele>
        <time>2018-09-11T10:07:23Z</time>
      </trkpt>
      <trkpt lat="45.98187" lon="4.79787">
        <ele>226</ele>
        <time>2018-09-11T10:07:26Z</time>
      </trkpt>
      <trkpt lat="45.98187" lon="4.79783">
        <ele>226</ele>
        <time>2018-09-11T10:07:27Z</time>
      </trkpt>
      <trkpt lat="45.98187" lon="4.79771">
        <ele>226</ele>
        <time>2018-09-11T10:07:30Z</time>
      </trkpt>
      <trkpt lat="45.98188" lon="4.79768">
        <ele>226</ele>
        <time>2018-09-11T10:07:31Z</time>
      </trkpt>
      <trkpt lat="45.98192" lon="4.79758">
        <ele>226</ele>
        <time>2018-09-11T10:07:34Z</time>
      </trkpt>
      <trkpt lat="45.98195" lon="4.79756">
        <ele>226</ele>
        <time>2018-09-11T10:07:35Z</time>
      </trkpt>
      <trkpt lat="45.98203" lon="4.79752">
        <ele>226</ele>
        <time>2018-09-11T10:07:38Z</time>
      </trkpt>
      <trkpt lat="45.98206" lon="4.79751">
        <ele>226</ele>
        <time>2018-09-11T10:07:39Z</time>
      </trkpt>
      <trkpt lat="45.98212" lon="4.79749">
        <ele>228</ele>
        <time>2018-09-11T10:07:41Z</time>
      </trkpt>
      <trkpt lat="45.98215" lon="4.79748">
        <ele>228</ele>
        <time>2018-09-11T10:07:42Z</time>
      </trkpt>
      <trkpt lat="45.98222" lon="4.79747">
        <ele>228</ele>
        <time>2018-09-11T10:07:44Z</time>
      </trkpt>
      <trkpt lat="45.98226" lon="4.79747">
        <ele>228</ele>
        <time>2018-09-11T10:07:45Z</time>
      </trkpt>
      <trkpt lat="45.98232" lon="4.79746">
        <ele>228</ele>
        <time>2018-09-11T10:07:47Z</time>
      </trkpt>
      <trkpt lat="45.98236" lon="4.79745">
        <ele>228</ele>
        <time>2018-09-11T10:07:48Z</time>
      </trkpt>
      <trkpt lat="45.98243" lon="4.79743">
        <ele>228</ele>
        <time>2018-09-11T10:07:50Z</time>
      </trkpt>
      <trkpt lat="45.98246" lon="4.79743">
        <ele>228</ele>
        <time>2018-09-11T10:07:51Z</time>
      </trkpt>
      <trkpt lat="45.98252" lon="4.79741">
        <ele>230</ele>
        <time>2018-09-11T10:07:53Z</time>
      </trkpt>
      <trkpt lat="45.98255" lon="4.79741">
        <ele>230</ele>
        <time>2018-09-11T10:07:54Z</time>
      </trkpt>
      <trkpt lat="45.98262" lon="4.7974">
        <ele>231</ele>
        <time>2018-09-11T10:07:56Z</time>
      </trkpt>
      <trkpt lat="45.98265" lon="4.79739">
        <ele>232</ele>
        <time>2018-09-11T10:07:57Z</time>
      </trkpt>
      <trkpt lat="45.98272" lon="4.79737">
        <ele>233</ele>
        <time>2018-09-11T10:07:59Z</time>
      </trkpt>
      <trkpt lat="45.98276" lon="4.79736">
        <ele>233</ele>
        <time>2018-09-11T10:08:00Z</time>
      </trkpt>
      <trkpt lat="45.98283" lon="4.79735">
        <ele>234</ele>
        <time>2018-09-11T10:08:02Z</time>
      </trkpt>
      <trkpt lat="45.98286" lon="4.79734">
        <ele>234</ele>
        <time>2018-09-11T10:08:03Z</time>
      </trkpt>
      <trkpt lat="45.98293" lon="4.79734">
        <ele>235</ele>
        <time>2018-09-11T10:08:05Z</time>
      </trkpt>
      <trkpt lat="45.98296" lon="4.79733">
        <ele>235</ele>
        <time>2018-09-11T10:08:06Z</time>
      </trkpt>
      <trkpt lat="45.98302" lon="4.79732">
        <ele>235</ele>
        <time>2018-09-11T10:08:08Z</time>
      </trkpt>
      <trkpt lat="45.98306" lon="4.79732">
        <ele>235</ele>
        <time>2018-09-11T10:08:09Z</time>
      </trkpt>
      <trkpt lat="45.98312" lon="4.79731">
        <ele>236</ele>
        <time>2018-09-11T10:08:11Z</time>
      </trkpt>
      <trkpt lat="45.98315" lon="4.79731">
        <ele>236</ele>
        <time>2018-09-11T10:08:12Z</time>
      </trkpt>
      <trkpt lat="45.98322" lon="4.7973">
        <ele>236</ele>
        <time>2018-09-11T10:08:14Z</time>
      </trkpt>
      <trkpt lat="45.98325" lon="4.7973">
        <ele>236</ele>
        <time>2018-09-11T10:08:15Z</time>
      </trkpt>
      <trkpt lat="45.98331" lon="4.79729">
        <ele>236</ele>
        <time>2018-09-11T10:08:17Z</time>
      </trkpt>
      <trkpt lat="45.98334" lon="4.79728">
        <ele>239</ele>
        <time>2018-09-11T10:08:18Z</time>
      </trkpt>
      <trkpt lat="45.98341" lon="4.79727">
        <ele>240</ele>
        <time>2018-09-11T10:08:20Z</time>
      </trkpt>
      <trkpt lat="45.98344" lon="4.79726">
        <ele>240</ele>
        <time>2018-09-11T10:08:21Z</time>
      </trkpt>
      <trkpt lat="45.9835" lon="4.79725">
        <ele>240</ele>
        <time>2018-09-11T10:08:23Z</time>
      </trkpt>
      <trkpt lat="45.98354" lon="4.79724">
        <ele>240</ele>
        <time>2018-09-11T10:08:24Z</time>
      </trkpt>
      <trkpt lat="45.9836" lon="4.79722">
        <ele>240</ele>
        <time>2018-09-11T10:08:26Z</time>
      </trkpt>
      <trkpt lat="45.98364" lon="4.79721">
        <ele>240</ele>
        <time>2018-09-11T10:08:27Z</time>
      </trkpt>
      <trkpt lat="45.9837" lon="4.7972">
        <ele>241</ele>
        <time>2018-09-11T10:08:29Z</time>
      </trkpt>
      <trkpt lat="45.98373" lon="4.79719">
        <ele>241</ele>
        <time>2018-09-11T10:08:30Z</time>
      </trkpt>
      <trkpt lat="45.98379" lon="4.79719">
        <ele>241</ele>
        <time>2018-09-11T10:08:32Z</time>
      </trkpt>
      <trkpt lat="45.98382" lon="4.79718">
        <ele>241</ele>
        <time>2018-09-11T10:08:33Z</time>
      </trkpt>
      <trkpt lat="45.9839" lon="4.79717">
        <ele>241</ele>
        <time>2018-09-11T10:08:36Z</time>
      </trkpt>
      <trkpt lat="45.98393" lon="4.79717">
        <ele>241</ele>
        <time>2018-09-11T10:08:37Z</time>
      </trkpt>
      <trkpt lat="45.98403" lon="4.79715">
        <ele>241</ele>
        <time>2018-09-11T10:08:38Z</time>
      </trkpt>
      <trkpt lat="45.98409" lon="4.79713">
        <ele>241</ele>
        <time>2018-09-11T10:08:40Z</time>
      </trkpt>
      <trkpt lat="45.98415" lon="4.79712">
        <ele>241</ele>
        <time>2018-09-11T10:08:41Z</time>
      </trkpt>
      <trkpt lat="45.98421" lon="4.79711">
        <ele>242</ele>
        <time>2018-09-11T10:08:44Z</time>
      </trkpt>
      <trkpt lat="45.98424" lon="4.79711">
        <ele>242</ele>
        <time>2018-09-11T10:08:45Z</time>
      </trkpt>
      <trkpt lat="45.98432" lon="4.7971">
        <ele>243</ele>
        <time>2018-09-11T10:08:48Z</time>
      </trkpt>
      <trkpt lat="45.98435" lon="4.7971">
        <ele>243</ele>
        <time>2018-09-11T10:08:49Z</time>
      </trkpt>
      <trkpt lat="45.98442" lon="4.7971">
        <ele>243</ele>
        <time>2018-09-11T10:08:51Z</time>
      </trkpt>
      <trkpt lat="45.98453" lon="4.79711">
        <ele>243</ele>
        <time>2018-09-11T10:08:52Z</time>
      </trkpt>
      <trkpt lat="45.9846" lon="4.7971">
        <ele>243</ele>
        <time>2018-09-11T10:08:54Z</time>
      </trkpt>
      <trkpt lat="45.98464" lon="4.79707">
        <ele>243</ele>
        <time>2018-09-11T10:08:55Z</time>
      </trkpt>
      <trkpt lat="45.98472" lon="4.79704">
        <ele>243</ele>
        <time>2018-09-11T10:08:57Z</time>
      </trkpt>
      <trkpt lat="45.98476" lon="4.79703">
        <ele>243</ele>
        <time>2018-09-11T10:08:58Z</time>
      </trkpt>
      <trkpt lat="45.98484" lon="4.79699">
        <ele>243</ele>
        <time>2018-09-11T10:09:00Z</time>
      </trkpt>
      <trkpt lat="45.98486" lon="4.79698">
        <ele>243</ele>
        <time>2018-09-11T10:09:01Z</time>
      </trkpt>
      <trkpt lat="45.98491" lon="4.79696">
        <ele>243</ele>
        <time>2018-09-11T10:09:03Z</time>
      </trkpt>
      <trkpt lat="45.985" lon="4.79694">
        <ele>243</ele>
        <time>2018-09-11T10:09:04Z</time>
      </trkpt>
      <trkpt lat="45.98508" lon="4.79693">
        <ele>244</ele>
        <time>2018-09-11T10:09:06Z</time>
      </trkpt>
      <trkpt lat="45.9851" lon="4.79693">
        <ele>244</ele>
        <time>2018-09-11T10:09:07Z</time>
      </trkpt>
      <trkpt lat="45.98516" lon="4.79693">
        <ele>244</ele>
        <time>2018-09-11T10:09:08Z</time>
      </trkpt>
      <trkpt lat="45.9852" lon="4.79693">
        <ele>244</ele>
        <time>2018-09-11T10:09:09Z</time>
      </trkpt>
      <trkpt lat="45.98525" lon="4.79694">
        <ele>244</ele>
        <time>2018-09-11T10:09:11Z</time>
      </trkpt>
      <trkpt lat="45.9853" lon="4.79693">
        <ele>244</ele>
        <time>2018-09-11T10:09:12Z</time>
      </trkpt>
      <trkpt lat="45.98538" lon="4.79692">
        <ele>244</ele>
        <time>2018-09-11T10:09:14Z</time>
      </trkpt>
      <trkpt lat="45.98542" lon="4.7969">
        <ele>244</ele>
        <time>2018-09-11T10:09:15Z</time>
      </trkpt>
      <trkpt lat="45.98549" lon="4.79686">
        <ele>244</ele>
        <time>2018-09-11T10:09:17Z</time>
      </trkpt>
      <trkpt lat="45.98551" lon="4.79685">
        <ele>244</ele>
        <time>2018-09-11T10:09:18Z</time>
      </trkpt>
      <trkpt lat="45.98557" lon="4.79681">
        <ele>244</ele>
        <time>2018-09-11T10:09:21Z</time>
      </trkpt>
      <trkpt lat="45.98559" lon="4.7968">
        <ele>244</ele>
        <time>2018-09-11T10:09:22Z</time>
      </trkpt>
      <trkpt lat="45.98567" lon="4.79676">
        <ele>244</ele>
        <time>2018-09-11T10:09:25Z</time>
      </trkpt>
      <trkpt lat="45.98569" lon="4.79674">
        <ele>245</ele>
        <time>2018-09-11T10:09:26Z</time>
      </trkpt>
      <trkpt lat="45.98575" lon="4.79668">
        <ele>245</ele>
        <time>2018-09-11T10:09:29Z</time>
      </trkpt>
      <trkpt lat="45.98581" lon="4.79661">
        <ele>245</ele>
        <time>2018-09-11T10:09:30Z</time>
      </trkpt>
      <trkpt lat="45.98586" lon="4.79654">
        <ele>245</ele>
        <time>2018-09-11T10:09:34Z</time>
      </trkpt>
      <trkpt lat="45.9859" lon="4.79648">
        <ele>245</ele>
        <time>2018-09-11T10:09:35Z</time>
      </trkpt>
      <trkpt lat="45.98596" lon="4.7964">
        <ele>245</ele>
        <time>2018-09-11T10:09:39Z</time>
      </trkpt>
      <trkpt lat="45.98598" lon="4.79638">
        <ele>245</ele>
        <time>2018-09-11T10:09:40Z</time>
      </trkpt>
      <trkpt lat="45.98604" lon="4.79633">
        <ele>245</ele>
        <time>2018-09-11T10:09:43Z</time>
      </trkpt>
      <trkpt lat="45.98611" lon="4.79629">
        <ele>245</ele>
        <time>2018-09-11T10:09:44Z</time>
      </trkpt>
      <trkpt lat="45.98619" lon="4.79627">
        <ele>245</ele>
        <time>2018-09-11T10:09:46Z</time>
      </trkpt>
      <trkpt lat="45.98623" lon="4.79625">
        <ele>245</ele>
        <time>2018-09-11T10:09:47Z</time>
      </trkpt>
      <trkpt lat="45.98629" lon="4.79618">
        <ele>245</ele>
        <time>2018-09-11T10:09:49Z</time>
      </trkpt>
      <trkpt lat="45.98631" lon="4.79613">
        <ele>245</ele>
        <time>2018-09-11T10:09:50Z</time>
      </trkpt>
      <trkpt lat="45.9863" lon="4.79604">
        <ele>245</ele>
        <time>2018-09-11T10:09:51Z</time>
      </trkpt>
      <trkpt lat="45.98631" lon="4.79598">
        <ele>245</ele>
        <time>2018-09-11T10:09:52Z</time>
      </trkpt>
      <trkpt lat="45.98627" lon="4.79588">
        <ele>245</ele>
        <time>2018-09-11T10:09:54Z</time>
      </trkpt>
      <trkpt lat="45.98624" lon="4.79585">
        <ele>245</ele>
        <time>2018-09-11T10:09:55Z</time>
      </trkpt>
      <trkpt lat="45.98617" lon="4.79578">
        <ele>245</ele>
        <time>2018-09-11T10:09:57Z</time>
      </trkpt>
      <trkpt lat="45.98613" lon="4.79576">
        <ele>245</ele>
        <time>2018-09-11T10:09:58Z</time>
      </trkpt>
      <trkpt lat="45.98608" lon="4.79576">
        <ele>245</ele>
        <time>2018-09-11T10:09:59Z</time>
      </trkpt>
      <trkpt lat="45.98603" lon="4.79576">
        <ele>245</ele>
        <time>2018-09-11T10:10:00Z</time>
      </trkpt>
      <trkpt lat="45.98599" lon="4.79577">
        <ele>245</ele>
        <time>2018-09-11T10:10:01Z</time>
      </trkpt>
      <trkpt lat="45.98594" lon="4.79579">
        <ele>245</ele>
        <time>2018-09-11T10:10:02Z</time>
      </trkpt>
      <trkpt lat="45.98589" lon="4.79584">
        <ele>245</ele>
        <time>2018-09-11T10:10:03Z</time>
      </trkpt>
      <trkpt lat="45.98584" lon="4.79582">
        <ele>245</ele>
        <time>2018-09-11T10:10:04Z</time>
      </trkpt>
      <trkpt lat="45.98579" lon="4.79578">
        <ele>245</ele>
        <time>2018-09-11T10:10:05Z</time>
      </trkpt>
      <trkpt lat="45.98575" lon="4.79575">
        <ele>245</ele>
        <time>2018-09-11T10:10:06Z</time>
      </trkpt>
      <trkpt lat="45.9857" lon="4.79572">
        <ele>244</ele>
        <time>2018-09-11T10:10:07Z</time>
      </trkpt>
      <trkpt lat="45.98565" lon="4.79569">
        <ele>244</ele>
        <time>2018-09-11T10:10:08Z</time>
      </trkpt>
      <trkpt lat="45.98562" lon="4.79565">
        <ele>244</ele>
        <time>2018-09-11T10:10:09Z</time>
      </trkpt>
      <trkpt lat="45.98558" lon="4.7956">
        <ele>244</ele>
        <time>2018-09-11T10:10:10Z</time>
      </trkpt>
      <trkpt lat="45.98553" lon="4.79555">
        <ele>244</ele>
        <time>2018-09-11T10:10:11Z</time>
      </trkpt>
      <trkpt lat="45.98549" lon="4.79551">
        <ele>244</ele>
        <time>2018-09-11T10:10:12Z</time>
      </trkpt>
      <trkpt lat="45.98545" lon="4.79545">
        <ele>244</ele>
        <time>2018-09-11T10:10:13Z</time>
      </trkpt>
      <trkpt lat="45.98541" lon="4.79538">
        <ele>244</ele>
        <time>2018-09-11T10:10:14Z</time>
      </trkpt>
      <trkpt lat="45.98538" lon="4.7953">
        <ele>244</ele>
        <time>2018-09-11T10:10:15Z</time>
      </trkpt>
      <trkpt lat="45.98536" lon="4.79523">
        <ele>244</ele>
        <time>2018-09-11T10:10:16Z</time>
      </trkpt>
      <trkpt lat="45.98534" lon="4.79515">
        <ele>244</ele>
        <time>2018-09-11T10:10:17Z</time>
      </trkpt>
      <trkpt lat="45.98532" lon="4.79507">
        <ele>244</ele>
        <time>2018-09-11T10:10:18Z</time>
      </trkpt>
      <trkpt lat="45.9853" lon="4.795">
        <ele>244</ele>
        <time>2018-09-11T10:10:19Z</time>
      </trkpt>
      <trkpt lat="45.98529" lon="4.79494">
        <ele>244</ele>
        <time>2018-09-11T10:10:20Z</time>
      </trkpt>
      <trkpt lat="45.98527" lon="4.79487">
        <ele>244</ele>
        <time>2018-09-11T10:10:21Z</time>
      </trkpt>
      <trkpt lat="45.98527" lon="4.79479">
        <ele>244</ele>
        <time>2018-09-11T10:10:22Z</time>
      </trkpt>
      <trkpt lat="45.98526" lon="4.79472">
        <ele>244</ele>
        <time>2018-09-11T10:10:23Z</time>
      </trkpt>
      <trkpt lat="45.98526" lon="4.79464">
        <ele>244</ele>
        <time>2018-09-11T10:10:24Z</time>
      </trkpt>
      <trkpt lat="45.98524" lon="4.79458">
        <ele>244</ele>
        <time>2018-09-11T10:10:25Z</time>
      </trkpt>
      <trkpt lat="45.98524" lon="4.7945">
        <ele>244</ele>
        <time>2018-09-11T10:10:26Z</time>
      </trkpt>
      <trkpt lat="45.98524" lon="4.79441">
        <ele>244</ele>
        <time>2018-09-11T10:10:27Z</time>
      </trkpt>
      <trkpt lat="45.98524" lon="4.79433">
        <ele>244</ele>
        <time>2018-09-11T10:10:28Z</time>
      </trkpt>
      <trkpt lat="45.98524" lon="4.79423">
        <ele>244</ele>
        <time>2018-09-11T10:10:29Z</time>
      </trkpt>
      <trkpt lat="45.98523" lon="4.79415">
        <ele>244</ele>
        <time>2018-09-11T10:10:30Z</time>
      </trkpt>
      <trkpt lat="45.98522" lon="4.79407">
        <ele>244</ele>
        <time>2018-09-11T10:10:31Z</time>
      </trkpt>
      <trkpt lat="45.98522" lon="4.79398">
        <ele>244</ele>
        <time>2018-09-11T10:10:32Z</time>
      </trkpt>
      <trkpt lat="45.98522" lon="4.79386">
        <ele>244</ele>
        <time>2018-09-11T10:10:34Z</time>
      </trkpt>
      <trkpt lat="45.98519" lon="4.79377">
        <ele>244</ele>
        <time>2018-09-11T10:10:35Z</time>
      </trkpt>
      <trkpt lat="45.98517" lon="4.79369">
        <ele>243</ele>
        <time>2018-09-11T10:10:36Z</time>
      </trkpt>
      <trkpt lat="45.98516" lon="4.79362">
        <ele>243</ele>
        <time>2018-09-11T10:10:37Z</time>
      </trkpt>
      <trkpt lat="45.98515" lon="4.79355">
        <ele>243</ele>
        <time>2018-09-11T10:10:38Z</time>
      </trkpt>
      <trkpt lat="45.98513" lon="4.79349">
        <ele>243</ele>
        <time>2018-09-11T10:10:39Z</time>
      </trkpt>
      <trkpt lat="45.98511" lon="4.79341">
        <ele>243</ele>
        <time>2018-09-11T10:10:40Z</time>
      </trkpt>
      <trkpt lat="45.98508" lon="4.79333">
        <ele>243</ele>
        <time>2018-09-11T10:10:41Z</time>
      </trkpt>
      <trkpt lat="45.98506" lon="4.79325">
        <ele>243</ele>
        <time>2018-09-11T10:10:42Z</time>
      </trkpt>
      <trkpt lat="45.98504" lon="4.79317">
        <ele>243</ele>
        <time>2018-09-11T10:10:43Z</time>
      </trkpt>
      <trkpt lat="45.98501" lon="4.79309">
        <ele>243</ele>
        <time>2018-09-11T10:10:44Z</time>
      </trkpt>
      <trkpt lat="45.98498" lon="4.79301">
        <ele>243</ele>
        <time>2018-09-11T10:10:45Z</time>
      </trkpt>
      <trkpt lat="45.98495" lon="4.79295">
        <ele>243</ele>
        <time>2018-09-11T10:10:46Z</time>
      </trkpt>
      <trkpt lat="45.98492" lon="4.79288">
        <ele>243</ele>
        <time>2018-09-11T10:10:47Z</time>
      </trkpt>
      <trkpt lat="45.98489" lon="4.7928">
        <ele>243</ele>
        <time>2018-09-11T10:10:48Z</time>
      </trkpt>
      <trkpt lat="45.98485" lon="4.79274">
        <ele>243</ele>
        <time>2018-09-11T10:10:49Z</time>
      </trkpt>
      <trkpt lat="45.98482" lon="4.79267">
        <ele>243</ele>
        <time>2018-09-11T10:10:50Z</time>
      </trkpt>
      <trkpt lat="45.98478" lon="4.79261">
        <ele>243</ele>
        <time>2018-09-11T10:10:51Z</time>
      </trkpt>
      <trkpt lat="45.98475" lon="4.79255">
        <ele>243</ele>
        <time>2018-09-11T10:10:52Z</time>
      </trkpt>
      <trkpt lat="45.98474" lon="4.79248">
        <ele>243</ele>
        <time>2018-09-11T10:10:53Z</time>
      </trkpt>
      <trkpt lat="45.9847" lon="4.79242">
        <ele>243</ele>
        <time>2018-09-11T10:10:54Z</time>
      </trkpt>
      <trkpt lat="45.98466" lon="4.79236">
        <ele>243</ele>
        <time>2018-09-11T10:10:55Z</time>
      </trkpt>
      <trkpt lat="45.98462" lon="4.79231">
        <ele>243</ele>
        <time>2018-09-11T10:10:56Z</time>
      </trkpt>
      <trkpt lat="45.9846" lon="4.79224">
        <ele>243</ele>
        <time>2018-09-11T10:10:57Z</time>
      </trkpt>
      <trkpt lat="45.98456" lon="4.79217">
        <ele>243</ele>
        <time>2018-09-11T10:10:58Z</time>
      </trkpt>
      <trkpt lat="45.98451" lon="4.7921">
        <ele>242</ele>
        <time>2018-09-11T10:10:59Z</time>
      </trkpt>
      <trkpt lat="45.98447" lon="4.79202">
        <ele>242</ele>
        <time>2018-09-11T10:11:00Z</time>
      </trkpt>
      <trkpt lat="45.98442" lon="4.79195">
        <ele>242</ele>
        <time>2018-09-11T10:11:01Z</time>
      </trkpt>
      <trkpt lat="45.98438" lon="4.79188">
        <ele>242</ele>
        <time>2018-09-11T10:11:02Z</time>
      </trkpt>
      <trkpt lat="45.98434" lon="4.79185">
        <ele>242</ele>
        <time>2018-09-11T10:11:03Z</time>
      </trkpt>
      <trkpt lat="45.98431" lon="4.79179">
        <ele>242</ele>
        <time>2018-09-11T10:11:04Z</time>
      </trkpt>
      <trkpt lat="45.98427" lon="4.79173">
        <ele>242</ele>
        <time>2018-09-11T10:11:05Z</time>
      </trkpt>
      <trkpt lat="45.98424" lon="4.79167">
        <ele>242</ele>
        <time>2018-09-11T10:11:06Z</time>
      </trkpt>
      <trkpt lat="45.98421" lon="4.7916">
        <ele>242</ele>
        <time>2018-09-11T10:11:07Z</time>
      </trkpt>
      <trkpt lat="45.98416" lon="4.79152">
        <ele>242</ele>
        <time>2018-09-11T10:11:08Z</time>
      </trkpt>
      <trkpt lat="45.9841" lon="4.79146">
        <ele>242</ele>
        <time>2018-09-11T10:11:09Z</time>
      </trkpt>
      <trkpt lat="45.98408" lon="4.7914">
        <ele>242</ele>
        <time>2018-09-11T10:11:10Z</time>
      </trkpt>
      <trkpt lat="45.98403" lon="4.79134">
        <ele>242</ele>
        <time>2018-09-11T10:11:11Z</time>
      </trkpt>
      <trkpt lat="45.98399" lon="4.79128">
        <ele>242</ele>
        <time>2018-09-11T10:11:12Z</time>
      </trkpt>
      <trkpt lat="45.98396" lon="4.7912">
        <ele>242</ele>
        <time>2018-09-11T10:11:13Z</time>
      </trkpt>
      <trkpt lat="45.98392" lon="4.79113">
        <ele>242</ele>
        <time>2018-09-11T10:11:14Z</time>
      </trkpt>
      <trkpt lat="45.9839" lon="4.79107">
        <ele>242</ele>
        <time>2018-09-11T10:11:15Z</time>
      </trkpt>
      <trkpt lat="45.98387" lon="4.791">
        <ele>242</ele>
        <time>2018-09-11T10:11:16Z</time>
      </trkpt>
      <trkpt lat="45.98384" lon="4.79092">
        <ele>242</ele>
        <time>2018-09-11T10:11:17Z</time>
      </trkpt>
      <trkpt lat="45.9838" lon="4.79085">
        <ele>242</ele>
        <time>2018-09-11T10:11:18Z</time>
      </trkpt>
      <trkpt lat="45.98376" lon="4.79078">
        <ele>242</ele>
        <time>2018-09-11T10:11:19Z</time>
      </trkpt>
      <trkpt lat="45.98374" lon="4.79071">
        <ele>242</ele>
        <time>2018-09-11T10:11:20Z</time>
      </trkpt>
      <trkpt lat="45.98372" lon="4.79064">
        <ele>242</ele>
        <time>2018-09-11T10:11:21Z</time>
      </trkpt>
      <trkpt lat="45.98368" lon="4.79059">
        <ele>242</ele>
        <time>2018-09-11T10:11:22Z</time>
      </trkpt>
      <trkpt lat="45.98365" lon="4.79052">
        <ele>242</ele>
        <time>2018-09-11T10:11:23Z</time>
      </trkpt>
      <trkpt lat="45.9836" lon="4.79045">
        <ele>242</ele>
        <time>2018-09-11T10:11:24Z</time>
      </trkpt>
      <trkpt lat="45.98356" lon="4.79038">
        <ele>242</ele>
        <time>2018-09-11T10:11:25Z</time>
      </trkpt>
      <trkpt lat="45.98352" lon="4.79033">
        <ele>242</ele>
        <time>2018-09-11T10:11:26Z</time>
      </trkpt>
      <trkpt lat="45.98347" lon="4.79026">
        <ele>242</ele>
        <time>2018-09-11T10:11:27Z</time>
      </trkpt>
      <trkpt lat="45.98342" lon="4.79021">
        <ele>242</ele>
        <time>2018-09-11T10:11:28Z</time>
      </trkpt>
      <trkpt lat="45.98336" lon="4.79016">
        <ele>242</ele>
        <time>2018-09-11T10:11:29Z</time>
      </trkpt>
      <trkpt lat="45.98332" lon="4.79012">
        <ele>242</ele>
        <time>2018-09-11T10:11:30Z</time>
      </trkpt>
      <trkpt lat="45.98327" lon="4.79008">
        <ele>242</ele>
        <time>2018-09-11T10:11:31Z</time>
      </trkpt>
      <trkpt lat="45.98322" lon="4.79005">
        <ele>242</ele>
        <time>2018-09-11T10:11:32Z</time>
      </trkpt>
      <trkpt lat="45.98317" lon="4.79001">
        <ele>242</ele>
        <time>2018-09-11T10:11:33Z</time>
      </trkpt>
      <trkpt lat="45.98312" lon="4.78998">
        <ele>241</ele>
        <time>2018-09-11T10:11:34Z</time>
      </trkpt>
      <trkpt lat="45.98308" lon="4.78995">
        <ele>241</ele>
        <time>2018-09-11T10:11:35Z</time>
      </trkpt>
      <trkpt lat="45.98302" lon="4.78992">
        <ele>241</ele>
        <time>2018-09-11T10:11:36Z</time>
      </trkpt>
      <trkpt lat="45.98298" lon="4.78991">
        <ele>241</ele>
        <time>2018-09-11T10:11:37Z</time>
      </trkpt>
      <trkpt lat="45.98293" lon="4.78989">
        <ele>241</ele>
        <time>2018-09-11T10:11:38Z</time>
      </trkpt>
      <trkpt lat="45.98288" lon="4.78986">
        <ele>241</ele>
        <time>2018-09-11T10:11:39Z</time>
      </trkpt>
      <trkpt lat="45.98281" lon="4.78983">
        <ele>241</ele>
        <time>2018-09-11T10:11:40Z</time>
      </trkpt>
      <trkpt lat="45.98275" lon="4.78979">
        <ele>241</ele>
        <time>2018-09-11T10:11:41Z</time>
      </trkpt>
      <trkpt lat="45.98269" lon="4.78975">
        <ele>241</ele>
        <time>2018-09-11T10:11:42Z</time>
      </trkpt>
      <trkpt lat="45.98261" lon="4.78972">
        <ele>241</ele>
        <time>2018-09-11T10:11:43Z</time>
      </trkpt>
      <trkpt lat="45.98256" lon="4.7897">
        <ele>241</ele>
        <time>2018-09-11T10:11:44Z</time>
      </trkpt>
      <trkpt lat="45.98249" lon="4.78967">
        <ele>241</ele>
        <time>2018-09-11T10:11:45Z</time>
      </trkpt>
      <trkpt lat="45.98245" lon="4.78964">
        <ele>241</ele>
        <time>2018-09-11T10:11:46Z</time>
      </trkpt>
      <trkpt lat="45.9824" lon="4.78963">
        <ele>241</ele>
        <time>2018-09-11T10:11:47Z</time>
      </trkpt>
      <trkpt lat="45.98235" lon="4.7896">
        <ele>241</ele>
        <time>2018-09-11T10:11:48Z</time>
      </trkpt>
      <trkpt lat="45.98232" lon="4.78956">
        <ele>241</ele>
        <time>2018-09-11T10:11:49Z</time>
      </trkpt>
      <trkpt lat="45.98225" lon="4.78954">
        <ele>241</ele>
        <time>2018-09-11T10:11:50Z</time>
      </trkpt>
      <trkpt lat="45.98221" lon="4.78948">
        <ele>241</ele>
        <time>2018-09-11T10:11:51Z</time>
      </trkpt>
      <trkpt lat="45.98215" lon="4.78944">
        <ele>241</ele>
        <time>2018-09-11T10:11:52Z</time>
      </trkpt>
      <trkpt lat="45.9821" lon="4.7894">
        <ele>241</ele>
        <time>2018-09-11T10:11:53Z</time>
      </trkpt>
      <trkpt lat="45.98204" lon="4.78938">
        <ele>241</ele>
        <time>2018-09-11T10:11:54Z</time>
      </trkpt>
      <trkpt lat="45.98198" lon="4.78935">
        <ele>241</ele>
        <time>2018-09-11T10:11:55Z</time>
      </trkpt>
      <trkpt lat="45.98192" lon="4.78931">
        <ele>241</ele>
        <time>2018-09-11T10:11:56Z</time>
      </trkpt>
      <trkpt lat="45.98186" lon="4.78927">
        <ele>241</ele>
        <time>2018-09-11T10:11:57Z</time>
      </trkpt>
      <trkpt lat="45.9818" lon="4.78924">
        <ele>240</ele>
        <time>2018-09-11T10:11:58Z</time>
      </trkpt>
      <trkpt lat="45.98173" lon="4.78921">
        <ele>240</ele>
        <time>2018-09-11T10:11:59Z</time>
      </trkpt>
      <trkpt lat="45.98168" lon="4.78917">
        <ele>240</ele>
        <time>2018-09-11T10:12:00Z</time>
      </trkpt>
      <trkpt lat="45.98162" lon="4.78914">
        <ele>240</ele>
        <time>2018-09-11T10:12:01Z</time>
      </trkpt>
      <trkpt lat="45.98158" lon="4.7891">
        <ele>240</ele>
        <time>2018-09-11T10:12:02Z</time>
      </trkpt>
      <trkpt lat="45.98152" lon="4.78907">
        <ele>240</ele>
        <time>2018-09-11T10:12:03Z</time>
      </trkpt>
      <trkpt lat="45.98147" lon="4.78904">
        <ele>240</ele>
        <time>2018-09-11T10:12:04Z</time>
      </trkpt>
      <trkpt lat="45.98144" lon="4.789">
        <ele>240</ele>
        <time>2018-09-11T10:12:05Z</time>
      </trkpt>
      <trkpt lat="45.98136" lon="4.78896">
        <ele>240</ele>
        <time>2018-09-11T10:12:06Z</time>
      </trkpt>
      <trkpt lat="45.98132" lon="4.78893">
        <ele>240</ele>
        <time>2018-09-11T10:12:07Z</time>
      </trkpt>
      <trkpt lat="45.98128" lon="4.7889">
        <ele>240</ele>
        <time>2018-09-11T10:12:08Z</time>
      </trkpt>
      <trkpt lat="45.98122" lon="4.78884">
        <ele>240</ele>
        <time>2018-09-11T10:12:09Z</time>
      </trkpt>
      <trkpt lat="45.98117" lon="4.78884">
        <ele>240</ele>
        <time>2018-09-11T10:12:10Z</time>
      </trkpt>
      <trkpt lat="45.98113" lon="4.78881">
        <ele>240</ele>
        <time>2018-09-11T10:12:11Z</time>
      </trkpt>
      <trkpt lat="45.98108" lon="4.78877">
        <ele>240</ele>
        <time>2018-09-11T10:12:12Z</time>
      </trkpt>
      <trkpt lat="45.98105" lon="4.78875">
        <ele>239</ele>
        <time>2018-09-11T10:12:13Z</time>
      </trkpt>
      <trkpt lat="45.98101" lon="4.78869">
        <ele>239</ele>
        <time>2018-09-11T10:12:14Z</time>
      </trkpt>
      <trkpt lat="45.98095" lon="4.78865">
        <ele>239</ele>
        <time>2018-09-11T10:12:15Z</time>
      </trkpt>
      <trkpt lat="45.98089" lon="4.78861">
        <ele>239</ele>
        <time>2018-09-11T10:12:16Z</time>
      </trkpt>
      <trkpt lat="45.98083" lon="4.78857">
        <ele>239</ele>
        <time>2018-09-11T10:12:17Z</time>
      </trkpt>
      <trkpt lat="45.98075" lon="4.78852">
        <ele>239</ele>
        <time>2018-09-11T10:12:18Z</time>
      </trkpt>
      <trkpt lat="45.9807" lon="4.78852">
        <ele>239</ele>
        <time>2018-09-11T10:12:19Z</time>
      </trkpt>
      <trkpt lat="45.98066" lon="4.78846">
        <ele>238</ele>
        <time>2018-09-11T10:12:20Z</time>
      </trkpt>
      <trkpt lat="45.98061" lon="4.78843">
        <ele>238</ele>
        <time>2018-09-11T10:12:21Z</time>
      </trkpt>
      <trkpt lat="45.98056" lon="4.7884">
        <ele>238</ele>
        <time>2018-09-11T10:12:22Z</time>
      </trkpt>
      <trkpt lat="45.98051" lon="4.78837">
        <ele>238</ele>
        <time>2018-09-11T10:12:23Z</time>
      </trkpt>
      <trkpt lat="45.98043" lon="4.78832">
        <ele>238</ele>
        <time>2018-09-11T10:12:24Z</time>
      </trkpt>
      <trkpt lat="45.98037" lon="4.78829">
        <ele>238</ele>
        <time>2018-09-11T10:12:25Z</time>
      </trkpt>
      <trkpt lat="45.98032" lon="4.78824">
        <ele>238</ele>
        <time>2018-09-11T10:12:26Z</time>
      </trkpt>
      <trkpt lat="45.98028" lon="4.7882">
        <ele>238</ele>
        <time>2018-09-11T10:12:27Z</time>
      </trkpt>
      <trkpt lat="45.98022" lon="4.78816">
        <ele>238</ele>
        <time>2018-09-11T10:12:28Z</time>
      </trkpt>
      <trkpt lat="45.98017" lon="4.78812">
        <ele>238</ele>
        <time>2018-09-11T10:12:29Z</time>
      </trkpt>
      <trkpt lat="45.98012" lon="4.78809">
        <ele>238</ele>
        <time>2018-09-11T10:12:30Z</time>
      </trkpt>
      <trkpt lat="45.98007" lon="4.78806">
        <ele>238</ele>
        <time>2018-09-11T10:12:31Z</time>
      </trkpt>
      <trkpt lat="45.97998" lon="4.78801">
        <ele>238</ele>
        <time>2018-09-11T10:12:33Z</time>
      </trkpt>
      <trkpt lat="45.97993" lon="4.78797">
        <ele>238</ele>
        <time>2018-09-11T10:12:34Z</time>
      </trkpt>
      <trkpt lat="45.97988" lon="4.78793">
        <ele>238</ele>
        <time>2018-09-11T10:12:35Z</time>
      </trkpt>
      <trkpt lat="45.97982" lon="4.78789">
        <ele>238</ele>
        <time>2018-09-11T10:12:36Z</time>
      </trkpt>
      <trkpt lat="45.97975" lon="4.78784">
        <ele>238</ele>
        <time>2018-09-11T10:12:37Z</time>
      </trkpt>
      <trkpt lat="45.97969" lon="4.7878">
        <ele>238</ele>
        <time>2018-09-11T10:12:38Z</time>
      </trkpt>
      <trkpt lat="45.97962" lon="4.78775">
        <ele>238</ele>
        <time>2018-09-11T10:12:39Z</time>
      </trkpt>
      <trkpt lat="45.97956" lon="4.78771">
        <ele>238</ele>
        <time>2018-09-11T10:12:40Z</time>
      </trkpt>
      <trkpt lat="45.97948" lon="4.78766">
        <ele>238</ele>
        <time>2018-09-11T10:12:41Z</time>
      </trkpt>
      <trkpt lat="45.97941" lon="4.78761">
        <ele>238</ele>
        <time>2018-09-11T10:12:42Z</time>
      </trkpt>
      <trkpt lat="45.97935" lon="4.78758">
        <ele>238</ele>
        <time>2018-09-11T10:12:43Z</time>
      </trkpt>
      <trkpt lat="45.97928" lon="4.78753">
        <ele>237</ele>
        <time>2018-09-11T10:12:44Z</time>
      </trkpt>
      <trkpt lat="45.97922" lon="4.78748">
        <ele>237</ele>
        <time>2018-09-11T10:12:45Z</time>
      </trkpt>
      <trkpt lat="45.97916" lon="4.78746">
        <ele>237</ele>
        <time>2018-09-11T10:12:46Z</time>
      </trkpt>
      <trkpt lat="45.9791" lon="4.7874">
        <ele>237</ele>
        <time>2018-09-11T10:12:47Z</time>
      </trkpt>
      <trkpt lat="45.97904" lon="4.78736">
        <ele>237</ele>
        <time>2018-09-11T10:12:48Z</time>
      </trkpt>
      <trkpt lat="45.97898" lon="4.78731">
        <ele>237</ele>
        <time>2018-09-11T10:12:49Z</time>
      </trkpt>
      <trkpt lat="45.97892" lon="4.78727">
        <ele>236</ele>
        <time>2018-09-11T10:12:50Z</time>
      </trkpt>
      <trkpt lat="45.97886" lon="4.78724">
        <ele>236</ele>
        <time>2018-09-11T10:12:51Z</time>
      </trkpt>
      <trkpt lat="45.97882" lon="4.7872">
        <ele>236</ele>
        <time>2018-09-11T10:12:52Z</time>
      </trkpt>
      <trkpt lat="45.97876" lon="4.78716">
        <ele>236</ele>
        <time>2018-09-11T10:12:53Z</time>
      </trkpt>
      <trkpt lat="45.9787" lon="4.78711">
        <ele>236</ele>
        <time>2018-09-11T10:12:54Z</time>
      </trkpt>
      <trkpt lat="45.97864" lon="4.78708">
        <ele>236</ele>
        <time>2018-09-11T10:12:55Z</time>
      </trkpt>
      <trkpt lat="45.97858" lon="4.78705">
        <ele>236</ele>
        <time>2018-09-11T10:12:56Z</time>
      </trkpt>
      <trkpt lat="45.97853" lon="4.78701">
        <ele>236</ele>
        <time>2018-09-11T10:12:57Z</time>
      </trkpt>
      <trkpt lat="45.97847" lon="4.78698">
        <ele>236</ele>
        <time>2018-09-11T10:12:58Z</time>
      </trkpt>
      <trkpt lat="45.97841" lon="4.78694">
        <ele>236</ele>
        <time>2018-09-11T10:12:59Z</time>
      </trkpt>
      <trkpt lat="45.97834" lon="4.7869">
        <ele>236</ele>
        <time>2018-09-11T10:13:00Z</time>
      </trkpt>
      <trkpt lat="45.97826" lon="4.78687">
        <ele>235</ele>
        <time>2018-09-11T10:13:01Z</time>
      </trkpt>
      <trkpt lat="45.9782" lon="4.78683">
        <ele>235</ele>
        <time>2018-09-11T10:13:02Z</time>
      </trkpt>
      <trkpt lat="45.97813" lon="4.7868">
        <ele>235</ele>
        <time>2018-09-11T10:13:03Z</time>
      </trkpt>
      <trkpt lat="45.97806" lon="4.78677">
        <ele>235</ele>
        <time>2018-09-11T10:13:04Z</time>
      </trkpt>
      <trkpt lat="45.97799" lon="4.78674">
        <ele>235</ele>
        <time>2018-09-11T10:13:05Z</time>
      </trkpt>
      <trkpt lat="45.97792" lon="4.78671">
        <ele>235</ele>
        <time>2018-09-11T10:13:06Z</time>
      </trkpt>
      <trkpt lat="45.97786" lon="4.78667">
        <ele>235</ele>
        <time>2018-09-11T10:13:07Z</time>
      </trkpt>
      <trkpt lat="45.9778" lon="4.78665">
        <ele>235</ele>
        <time>2018-09-11T10:13:08Z</time>
      </trkpt>
      <trkpt lat="45.97774" lon="4.78662">
        <ele>235</ele>
        <time>2018-09-11T10:13:09Z</time>
      </trkpt>
      <trkpt lat="45.97769" lon="4.78659">
        <ele>235</ele>
        <time>2018-09-11T10:13:10Z</time>
      </trkpt>
      <trkpt lat="45.97763" lon="4.78656">
        <ele>235</ele>
        <time>2018-09-11T10:13:11Z</time>
      </trkpt>
      <trkpt lat="45.97758" lon="4.78653">
        <ele>235</ele>
        <time>2018-09-11T10:13:12Z</time>
      </trkpt>
      <trkpt lat="45.97753" lon="4.78652">
        <ele>235</ele>
        <time>2018-09-11T10:13:13Z</time>
      </trkpt>
      <trkpt lat="45.97747" lon="4.7865">
        <ele>234</ele>
        <time>2018-09-11T10:13:14Z</time>
      </trkpt>
      <trkpt lat="45.97741" lon="4.78646">
        <ele>234</ele>
        <time>2018-09-11T10:13:15Z</time>
      </trkpt>
      <trkpt lat="45.97735" lon="4.78644">
        <ele>234</ele>
        <time>2018-09-11T10:13:16Z</time>
      </trkpt>
      <trkpt lat="45.9773" lon="4.78642">
        <ele>234</ele>
        <time>2018-09-11T10:13:17Z</time>
      </trkpt>
      <trkpt lat="45.97723" lon="4.78638">
        <ele>234</ele>
        <time>2018-09-11T10:13:18Z</time>
      </trkpt>
      <trkpt lat="45.97717" lon="4.78635">
        <ele>234</ele>
        <time>2018-09-11T10:13:19Z</time>
      </trkpt>
      <trkpt lat="45.97711" lon="4.78631">
        <ele>234</ele>
        <time>2018-09-11T10:13:20Z</time>
      </trkpt>
      <trkpt lat="45.97706" lon="4.7863">
        <ele>234</ele>
        <time>2018-09-11T10:13:21Z</time>
      </trkpt>
      <trkpt lat="45.977" lon="4.78628">
        <ele>234</ele>
        <time>2018-09-11T10:13:22Z</time>
      </trkpt>
      <trkpt lat="45.97696" lon="4.78626">
        <ele>234</ele>
        <time>2018-09-11T10:13:23Z</time>
      </trkpt>
      <trkpt lat="45.97692" lon="4.78622">
        <ele>234</ele>
        <time>2018-09-11T10:13:24Z</time>
      </trkpt>
      <trkpt lat="45.97683" lon="4.7862">
        <ele>234</ele>
        <time>2018-09-11T10:13:25Z</time>
      </trkpt>
      <trkpt lat="45.97677" lon="4.78617">
        <ele>234</ele>
        <time>2018-09-11T10:13:26Z</time>
      </trkpt>
      <trkpt lat="45.97671" lon="4.78616">
        <ele>234</ele>
        <time>2018-09-11T10:13:27Z</time>
      </trkpt>
      <trkpt lat="45.97666" lon="4.78616">
        <ele>233</ele>
        <time>2018-09-11T10:13:28Z</time>
      </trkpt>
      <trkpt lat="45.9766" lon="4.78613">
        <ele>233</ele>
        <time>2018-09-11T10:13:29Z</time>
      </trkpt>
      <trkpt lat="45.97654" lon="4.7861">
        <ele>233</ele>
        <time>2018-09-11T10:13:30Z</time>
      </trkpt>
      <trkpt lat="45.97648" lon="4.78607">
        <ele>233</ele>
        <time>2018-09-11T10:13:31Z</time>
      </trkpt>
      <trkpt lat="45.97642" lon="4.78605">
        <ele>233</ele>
        <time>2018-09-11T10:13:32Z</time>
      </trkpt>
      <trkpt lat="45.97637" lon="4.78601">
        <ele>233</ele>
        <time>2018-09-11T10:13:33Z</time>
      </trkpt>
      <trkpt lat="45.97631" lon="4.78599">
        <ele>233</ele>
        <time>2018-09-11T10:13:34Z</time>
      </trkpt>
      <trkpt lat="45.97625" lon="4.78599">
        <ele>233</ele>
        <time>2018-09-11T10:13:35Z</time>
      </trkpt>
      <trkpt lat="45.97619" lon="4.78596">
        <ele>233</ele>
        <time>2018-09-11T10:13:36Z</time>
      </trkpt>
      <trkpt lat="45.97613" lon="4.78594">
        <ele>233</ele>
        <time>2018-09-11T10:13:37Z</time>
      </trkpt>
      <trkpt lat="45.97606" lon="4.78591">
        <ele>233</ele>
        <time>2018-09-11T10:13:38Z</time>
      </trkpt>
      <trkpt lat="45.976" lon="4.78586">
        <ele>233</ele>
        <time>2018-09-11T10:13:39Z</time>
      </trkpt>
      <trkpt lat="45.97595" lon="4.78582">
        <ele>233</ele>
        <time>2018-09-11T10:13:40Z</time>
      </trkpt>
      <trkpt lat="45.97589" lon="4.78579">
        <ele>233</ele>
        <time>2018-09-11T10:13:41Z</time>
      </trkpt>
      <trkpt lat="45.97584" lon="4.78577">
        <ele>233</ele>
        <time>2018-09-11T10:13:42Z</time>
      </trkpt>
      <trkpt lat="45.97578" lon="4.78574">
        <ele>233</ele>
        <time>2018-09-11T10:13:43Z</time>
      </trkpt>
      <trkpt lat="45.97572" lon="4.78576">
        <ele>233</ele>
        <time>2018-09-11T10:13:44Z</time>
      </trkpt>
      <trkpt lat="45.97566" lon="4.78574">
        <ele>233</ele>
        <time>2018-09-11T10:13:45Z</time>
      </trkpt>
      <trkpt lat="45.97562" lon="4.7857">
        <ele>233</ele>
        <time>2018-09-11T10:13:46Z</time>
      </trkpt>
      <trkpt lat="45.97558" lon="4.78568">
        <ele>234</ele>
        <time>2018-09-11T10:13:47Z</time>
      </trkpt>
      <trkpt lat="45.97552" lon="4.78567">
        <ele>234</ele>
        <time>2018-09-11T10:13:48Z</time>
      </trkpt>
      <trkpt lat="45.97546" lon="4.78564">
        <ele>234</ele>
        <time>2018-09-11T10:13:49Z</time>
      </trkpt>
      <trkpt lat="45.97541" lon="4.78562">
        <ele>234</ele>
        <time>2018-09-11T10:13:50Z</time>
      </trkpt>
      <trkpt lat="45.97535" lon="4.78563">
        <ele>234</ele>
        <time>2018-09-11T10:13:51Z</time>
      </trkpt>
      <trkpt lat="45.9753" lon="4.78561">
        <ele>234</ele>
        <time>2018-09-11T10:13:52Z</time>
      </trkpt>
      <trkpt lat="45.97526" lon="4.78558">
        <ele>234</ele>
        <time>2018-09-11T10:13:53Z</time>
      </trkpt>
      <trkpt lat="45.97523" lon="4.78551">
        <ele>234</ele>
        <time>2018-09-11T10:13:54Z</time>
      </trkpt>
      <trkpt lat="45.97519" lon="4.78549">
        <ele>234</ele>
        <time>2018-09-11T10:13:55Z</time>
      </trkpt>
      <trkpt lat="45.97513" lon="4.78546">
        <ele>234</ele>
        <time>2018-09-11T10:13:56Z</time>
      </trkpt>
      <trkpt lat="45.97507" lon="4.78544">
        <ele>234</ele>
        <time>2018-09-11T10:13:57Z</time>
      </trkpt>
      <trkpt lat="45.97501" lon="4.78539">
        <ele>234</ele>
        <time>2018-09-11T10:13:58Z</time>
      </trkpt>
      <trkpt lat="45.97495" lon="4.78534">
        <ele>233</ele>
        <time>2018-09-11T10:13:59Z</time>
      </trkpt>
      <trkpt lat="45.97491" lon="4.78531">
        <ele>233</ele>
        <time>2018-09-11T10:14:00Z</time>
      </trkpt>
      <trkpt lat="45.97485" lon="4.78525">
        <ele>233</ele>
        <time>2018-09-11T10:14:01Z</time>
      </trkpt>
      <trkpt lat="45.97479" lon="4.78521">
        <ele>233</ele>
        <time>2018-09-11T10:14:02Z</time>
      </trkpt>
      <trkpt lat="45.97473" lon="4.78516">
        <ele>234</ele>
        <time>2018-09-11T10:14:03Z</time>
      </trkpt>
      <trkpt lat="45.97468" lon="4.78512">
        <ele>234</ele>
        <time>2018-09-11T10:14:04Z</time>
      </trkpt>
      <trkpt lat="45.97462" lon="4.78508">
        <ele>234</ele>
        <time>2018-09-11T10:14:05Z</time>
      </trkpt>
      <trkpt lat="45.97457" lon="4.78502">
        <ele>234</ele>
        <time>2018-09-11T10:14:06Z</time>
      </trkpt>
      <trkpt lat="45.97452" lon="4.78498">
        <ele>234</ele>
        <time>2018-09-11T10:14:07Z</time>
      </trkpt>
      <trkpt lat="45.97447" lon="4.78493">
        <ele>234</ele>
        <time>2018-09-11T10:14:08Z</time>
      </trkpt>
      <trkpt lat="45.97441" lon="4.78491">
        <ele>234</ele>
        <time>2018-09-11T10:14:09Z</time>
      </trkpt>
      <trkpt lat="45.97436" lon="4.78486">
        <ele>234</ele>
        <time>2018-09-11T10:14:10Z</time>
      </trkpt>
      <trkpt lat="45.97431" lon="4.78482">
        <ele>234</ele>
        <time>2018-09-11T10:14:11Z</time>
      </trkpt>
      <trkpt lat="45.97427" lon="4.78477">
        <ele>234</ele>
        <time>2018-09-11T10:14:12Z</time>
      </trkpt>
      <trkpt lat="45.97422" lon="4.78471">
        <ele>234</ele>
        <time>2018-09-11T10:14:13Z</time>
      </trkpt>
      <trkpt lat="45.97417" lon="4.78466">
        <ele>234</ele>
        <time>2018-09-11T10:14:14Z</time>
      </trkpt>
      <trkpt lat="45.97412" lon="4.78461">
        <ele>233</ele>
        <time>2018-09-11T10:14:15Z</time>
      </trkpt>
      <trkpt lat="45.97407" lon="4.78457">
        <ele>233</ele>
        <time>2018-09-11T10:14:16Z</time>
      </trkpt>
      <trkpt lat="45.97402" lon="4.78453">
        <ele>233</ele>
        <time>2018-09-11T10:14:17Z</time>
      </trkpt>
      <trkpt lat="45.97398" lon="4.78448">
        <ele>233</ele>
        <time>2018-09-11T10:14:18Z</time>
      </trkpt>
      <trkpt lat="45.97394" lon="4.78443">
        <ele>233</ele>
        <time>2018-09-11T10:14:19Z</time>
      </trkpt>
      <trkpt lat="45.97389" lon="4.78437">
        <ele>233</ele>
        <time>2018-09-11T10:14:20Z</time>
      </trkpt>
      <trkpt lat="45.97385" lon="4.78433">
        <ele>233</ele>
        <time>2018-09-11T10:14:21Z</time>
      </trkpt>
      <trkpt lat="45.97381" lon="4.78429">
        <ele>233</ele>
        <time>2018-09-11T10:14:22Z</time>
      </trkpt>
      <trkpt lat="45.97376" lon="4.78426">
        <ele>233</ele>
        <time>2018-09-11T10:14:23Z</time>
      </trkpt>
      <trkpt lat="45.9737" lon="4.78421">
        <ele>233</ele>
        <time>2018-09-11T10:14:24Z</time>
      </trkpt>
      <trkpt lat="45.97365" lon="4.78416">
        <ele>233</ele>
        <time>2018-09-11T10:14:25Z</time>
      </trkpt>
      <trkpt lat="45.9736" lon="4.7841">
        <ele>233</ele>
        <time>2018-09-11T10:14:26Z</time>
      </trkpt>
      <trkpt lat="45.97355" lon="4.78405">
        <ele>232</ele>
        <time>2018-09-11T10:14:27Z</time>
      </trkpt>
      <trkpt lat="45.9735" lon="4.78398">
        <ele>233</ele>
        <time>2018-09-11T10:14:28Z</time>
      </trkpt>
      <trkpt lat="45.97345" lon="4.78394">
        <ele>233</ele>
        <time>2018-09-11T10:14:29Z</time>
      </trkpt>
      <trkpt lat="45.97341" lon="4.78388">
        <ele>233</ele>
        <time>2018-09-11T10:14:30Z</time>
      </trkpt>
      <trkpt lat="45.97336" lon="4.78383">
        <ele>233</ele>
        <time>2018-09-11T10:14:31Z</time>
      </trkpt>
      <trkpt lat="45.97332" lon="4.78378">
        <ele>232</ele>
        <time>2018-09-11T10:14:32Z</time>
      </trkpt>
      <trkpt lat="45.97328" lon="4.7837">
        <ele>232</ele>
        <time>2018-09-11T10:14:33Z</time>
      </trkpt>
      <trkpt lat="45.97323" lon="4.78366">
        <ele>232</ele>
        <time>2018-09-11T10:14:34Z</time>
      </trkpt>
      <trkpt lat="45.97319" lon="4.7836">
        <ele>232</ele>
        <time>2018-09-11T10:14:35Z</time>
      </trkpt>
      <trkpt lat="45.97315" lon="4.78356">
        <ele>232</ele>
        <time>2018-09-11T10:14:36Z</time>
      </trkpt>
      <trkpt lat="45.97311" lon="4.7835">
        <ele>232</ele>
        <time>2018-09-11T10:14:37Z</time>
      </trkpt>
      <trkpt lat="45.97306" lon="4.78344">
        <ele>232</ele>
        <time>2018-09-11T10:14:38Z</time>
      </trkpt>
      <trkpt lat="45.97299" lon="4.78336">
        <ele>232</ele>
        <time>2018-09-11T10:14:39Z</time>
      </trkpt>
      <trkpt lat="45.97294" lon="4.7833">
        <ele>232</ele>
        <time>2018-09-11T10:14:40Z</time>
      </trkpt>
      <trkpt lat="45.97289" lon="4.78324">
        <ele>232</ele>
        <time>2018-09-11T10:14:41Z</time>
      </trkpt>
      <trkpt lat="45.97285" lon="4.78319">
        <ele>232</ele>
        <time>2018-09-11T10:14:42Z</time>
      </trkpt>
      <trkpt lat="45.9728" lon="4.78315">
        <ele>232</ele>
        <time>2018-09-11T10:14:43Z</time>
      </trkpt>
      <trkpt lat="45.97276" lon="4.78308">
        <ele>232</ele>
        <time>2018-09-11T10:14:44Z</time>
      </trkpt>
      <trkpt lat="45.97272" lon="4.78301">
        <ele>232</ele>
        <time>2018-09-11T10:14:45Z</time>
      </trkpt>
      <trkpt lat="45.97267" lon="4.78295">
        <ele>232</ele>
        <time>2018-09-11T10:14:46Z</time>
      </trkpt>
      <trkpt lat="45.97263" lon="4.78289">
        <ele>232</ele>
        <time>2018-09-11T10:14:47Z</time>
      </trkpt>
      <trkpt lat="45.97259" lon="4.78282">
        <ele>232</ele>
        <time>2018-09-11T10:14:48Z</time>
      </trkpt>
      <trkpt lat="45.97255" lon="4.78278">
        <ele>232</ele>
        <time>2018-09-11T10:14:49Z</time>
      </trkpt>
      <trkpt lat="45.97251" lon="4.78272">
        <ele>232</ele>
        <time>2018-09-11T10:14:50Z</time>
      </trkpt>
      <trkpt lat="45.97247" lon="4.78266">
        <ele>231</ele>
        <time>2018-09-11T10:14:51Z</time>
      </trkpt>
      <trkpt lat="45.97244" lon="4.7826">
        <ele>231</ele>
        <time>2018-09-11T10:14:52Z</time>
      </trkpt>
      <trkpt lat="45.9724" lon="4.78254">
        <ele>231</ele>
        <time>2018-09-11T10:14:53Z</time>
      </trkpt>
      <trkpt lat="45.97237" lon="4.78249">
        <ele>231</ele>
        <time>2018-09-11T10:14:54Z</time>
      </trkpt>
      <trkpt lat="45.97233" lon="4.78244">
        <ele>231</ele>
        <time>2018-09-11T10:14:55Z</time>
      </trkpt>
      <trkpt lat="45.9723" lon="4.78238">
        <ele>231</ele>
        <time>2018-09-11T10:14:56Z</time>
      </trkpt>
      <trkpt lat="45.97227" lon="4.78234">
        <ele>231</ele>
        <time>2018-09-11T10:14:57Z</time>
      </trkpt>
      <trkpt lat="45.97221" lon="4.78225">
        <ele>231</ele>
        <time>2018-09-11T10:14:59Z</time>
      </trkpt>
      <trkpt lat="45.97217" lon="4.78219">
        <ele>231</ele>
        <time>2018-09-11T10:15:00Z</time>
      </trkpt>
      <trkpt lat="45.97211" lon="4.78212">
        <ele>231</ele>
        <time>2018-09-11T10:15:02Z</time>
      </trkpt>
      <trkpt lat="45.97208" lon="4.78207">
        <ele>231</ele>
        <time>2018-09-11T10:15:03Z</time>
      </trkpt>
      <trkpt lat="45.97206" lon="4.78202">
        <ele>231</ele>
        <time>2018-09-11T10:15:04Z</time>
      </trkpt>
      <trkpt lat="45.97204" lon="4.78195">
        <ele>231</ele>
        <time>2018-09-11T10:15:05Z</time>
      </trkpt>
      <trkpt lat="45.97202" lon="4.78189">
        <ele>231</ele>
        <time>2018-09-11T10:15:06Z</time>
      </trkpt>
      <trkpt lat="45.972" lon="4.78181">
        <ele>231</ele>
        <time>2018-09-11T10:15:07Z</time>
      </trkpt>
      <trkpt lat="45.97196" lon="4.78176">
        <ele>231</ele>
        <time>2018-09-11T10:15:08Z</time>
      </trkpt>
      <trkpt lat="45.97193" lon="4.78171">
        <ele>231</ele>
        <time>2018-09-11T10:15:09Z</time>
      </trkpt>
      <trkpt lat="45.97187" lon="4.78163">
        <ele>231</ele>
        <time>2018-09-11T10:15:11Z</time>
      </trkpt>
      <trkpt lat="45.97184" lon="4.78157">
        <ele>231</ele>
        <time>2018-09-11T10:15:12Z</time>
      </trkpt>
      <trkpt lat="45.97179" lon="4.78147">
        <ele>231</ele>
        <time>2018-09-11T10:15:14Z</time>
      </trkpt>
      <trkpt lat="45.97176" lon="4.78141">
        <ele>231</ele>
        <time>2018-09-11T10:15:15Z</time>
      </trkpt>
      <trkpt lat="45.97171" lon="4.78132">
        <ele>231</ele>
        <time>2018-09-11T10:15:17Z</time>
      </trkpt>
      <trkpt lat="45.97168" lon="4.78127">
        <ele>231</ele>
        <time>2018-09-11T10:15:18Z</time>
      </trkpt>
      <trkpt lat="45.97165" lon="4.78121">
        <ele>230</ele>
        <time>2018-09-11T10:15:19Z</time>
      </trkpt>
      <trkpt lat="45.97163" lon="4.78116">
        <ele>230</ele>
        <time>2018-09-11T10:15:20Z</time>
      </trkpt>
      <trkpt lat="45.97158" lon="4.78106">
        <ele>230</ele>
        <time>2018-09-11T10:15:22Z</time>
      </trkpt>
      <trkpt lat="45.97155" lon="4.78102">
        <ele>230</ele>
        <time>2018-09-11T10:15:23Z</time>
      </trkpt>
      <trkpt lat="45.9715" lon="4.78093">
        <ele>230</ele>
        <time>2018-09-11T10:15:26Z</time>
      </trkpt>
      <trkpt lat="45.97149" lon="4.78091">
        <ele>230</ele>
        <time>2018-09-11T10:15:27Z</time>
      </trkpt>
      <trkpt lat="45.97143" lon="4.78081">
        <ele>230</ele>
        <time>2018-09-11T10:15:40Z</time>
      </trkpt>
      <trkpt lat="45.97143" lon="4.78081">
        <ele>230</ele>
        <time>2018-09-11T10:15:41Z</time>
      </trkpt>
      <trkpt lat="45.97137" lon="4.78073">
        <ele>230</ele>
        <time>2018-09-11T10:16:56Z</time>
      </trkpt>
      <trkpt lat="45.97135" lon="4.78071">
        <ele>230</ele>
        <time>2018-09-11T10:16:57Z</time>
      </trkpt>
      <trkpt lat="45.97131" lon="4.78066">
        <ele>230</ele>
        <time>2018-09-11T10:16:59Z</time>
      </trkpt>
      <trkpt lat="45.97124" lon="4.78057">
        <ele>229</ele>
        <time>2018-09-11T10:17:00Z</time>
      </trkpt>
      <trkpt lat="45.97116" lon="4.78051">
        <ele>229</ele>
        <time>2018-09-11T10:17:02Z</time>
      </trkpt>
      <trkpt lat="45.97112" lon="4.78048">
        <ele>229</ele>
        <time>2018-09-11T10:17:03Z</time>
      </trkpt>
      <trkpt lat="45.97108" lon="4.78043">
        <ele>229</ele>
        <time>2018-09-11T10:17:04Z</time>
      </trkpt>
      <trkpt lat="45.97104" lon="4.78038">
        <ele>229</ele>
        <time>2018-09-11T10:17:05Z</time>
      </trkpt>
      <trkpt lat="45.971" lon="4.78034">
        <ele>229</ele>
        <time>2018-09-11T10:17:06Z</time>
      </trkpt>
      <trkpt lat="45.97095" lon="4.7803">
        <ele>229</ele>
        <time>2018-09-11T10:17:07Z</time>
      </trkpt>
      <trkpt lat="45.97089" lon="4.78024">
        <ele>229</ele>
        <time>2018-09-11T10:17:09Z</time>
      </trkpt>
      <trkpt lat="45.97085" lon="4.78021">
        <ele>229</ele>
        <time>2018-09-11T10:17:10Z</time>
      </trkpt>
      <trkpt lat="45.97078" lon="4.78013">
        <ele>229</ele>
        <time>2018-09-11T10:17:12Z</time>
      </trkpt>
      <trkpt lat="45.97073" lon="4.78009">
        <ele>229</ele>
        <time>2018-09-11T10:17:13Z</time>
      </trkpt>
      <trkpt lat="45.97069" lon="4.78005">
        <ele>229</ele>
        <time>2018-09-11T10:17:14Z</time>
      </trkpt>
      <trkpt lat="45.97065" lon="4.77999">
        <ele>229</ele>
        <time>2018-09-11T10:17:15Z</time>
      </trkpt>
      <trkpt lat="45.9706" lon="4.77994">
        <ele>229</ele>
        <time>2018-09-11T10:17:16Z</time>
      </trkpt>
      <trkpt lat="45.97056" lon="4.77989">
        <ele>229</ele>
        <time>2018-09-11T10:17:17Z</time>
      </trkpt>
      <trkpt lat="45.97051" lon="4.77983">
        <ele>229</ele>
        <time>2018-09-11T10:17:18Z</time>
      </trkpt>
      <trkpt lat="45.97047" lon="4.77977">
        <ele>229</ele>
        <time>2018-09-11T10:17:19Z</time>
      </trkpt>
      <trkpt lat="45.97042" lon="4.77971">
        <ele>229</ele>
        <time>2018-09-11T10:17:20Z</time>
      </trkpt>
      <trkpt lat="45.97037" lon="4.77967">
        <ele>229</ele>
        <time>2018-09-11T10:17:21Z</time>
      </trkpt>
      <trkpt lat="45.97033" lon="4.77962">
        <ele>228</ele>
        <time>2018-09-11T10:17:22Z</time>
      </trkpt>
      <trkpt lat="45.9703" lon="4.77959">
        <ele>228</ele>
        <time>2018-09-11T10:17:23Z</time>
      </trkpt>
      <trkpt lat="45.97026" lon="4.77954">
        <ele>228</ele>
        <time>2018-09-11T10:17:24Z</time>
      </trkpt>
      <trkpt lat="45.97021" lon="4.77949">
        <ele>228</ele>
        <time>2018-09-11T10:17:25Z</time>
      </trkpt>
      <trkpt lat="45.97016" lon="4.77944">
        <ele>228</ele>
        <time>2018-09-11T10:17:26Z</time>
      </trkpt>
      <trkpt lat="45.97011" lon="4.77939">
        <ele>228</ele>
        <time>2018-09-11T10:17:27Z</time>
      </trkpt>
      <trkpt lat="45.97006" lon="4.77933">
        <ele>228</ele>
        <time>2018-09-11T10:17:28Z</time>
      </trkpt>
      <trkpt lat="45.97002" lon="4.77926">
        <ele>228</ele>
        <time>2018-09-11T10:17:29Z</time>
      </trkpt>
      <trkpt lat="45.96998" lon="4.77921">
        <ele>227</ele>
        <time>2018-09-11T10:17:30Z</time>
      </trkpt>
      <trkpt lat="45.96993" lon="4.77915">
        <ele>227</ele>
        <time>2018-09-11T10:17:31Z</time>
      </trkpt>
      <trkpt lat="45.96987" lon="4.7791">
        <ele>227</ele>
        <time>2018-09-11T10:17:32Z</time>
      </trkpt>
      <trkpt lat="45.96983" lon="4.77904">
        <ele>227</ele>
        <time>2018-09-11T10:17:33Z</time>
      </trkpt>
      <trkpt lat="45.96977" lon="4.77898">
        <ele>228</ele>
        <time>2018-09-11T10:17:34Z</time>
      </trkpt>
      <trkpt lat="45.96971" lon="4.77893">
        <ele>228</ele>
        <time>2018-09-11T10:17:35Z</time>
      </trkpt>
      <trkpt lat="45.96965" lon="4.77887">
        <ele>228</ele>
        <time>2018-09-11T10:17:36Z</time>
      </trkpt>
      <trkpt lat="45.96958" lon="4.77879">
        <ele>228</ele>
        <time>2018-09-11T10:17:37Z</time>
      </trkpt>
      <trkpt lat="45.96954" lon="4.77874">
        <ele>228</ele>
        <time>2018-09-11T10:17:38Z</time>
      </trkpt>
      <trkpt lat="45.96949" lon="4.77868">
        <ele>228</ele>
        <time>2018-09-11T10:17:39Z</time>
      </trkpt>
      <trkpt lat="45.96945" lon="4.77861">
        <ele>228</ele>
        <time>2018-09-11T10:17:40Z</time>
      </trkpt>
      <trkpt lat="45.96941" lon="4.77855">
        <ele>228</ele>
        <time>2018-09-11T10:17:41Z</time>
      </trkpt>
      <trkpt lat="45.96936" lon="4.7785">
        <ele>228</ele>
        <time>2018-09-11T10:17:42Z</time>
      </trkpt>
      <trkpt lat="45.96931" lon="4.77845">
        <ele>228</ele>
        <time>2018-09-11T10:17:43Z</time>
      </trkpt>
      <trkpt lat="45.96928" lon="4.77837">
        <ele>228</ele>
        <time>2018-09-11T10:17:44Z</time>
      </trkpt>
      <trkpt lat="45.96922" lon="4.77832">
        <ele>228</ele>
        <time>2018-09-11T10:17:45Z</time>
      </trkpt>
      <trkpt lat="45.96918" lon="4.77827">
        <ele>228</ele>
        <time>2018-09-11T10:17:46Z</time>
      </trkpt>
      <trkpt lat="45.96911" lon="4.77821">
        <ele>228</ele>
        <time>2018-09-11T10:17:47Z</time>
      </trkpt>
      <trkpt lat="45.96906" lon="4.77817">
        <ele>228</ele>
        <time>2018-09-11T10:17:48Z</time>
      </trkpt>
      <trkpt lat="45.96901" lon="4.77812">
        <ele>228</ele>
        <time>2018-09-11T10:17:49Z</time>
      </trkpt>
      <trkpt lat="45.96897" lon="4.77809">
        <ele>228</ele>
        <time>2018-09-11T10:17:50Z</time>
      </trkpt>
      <trkpt lat="45.96892" lon="4.77804">
        <ele>228</ele>
        <time>2018-09-11T10:17:51Z</time>
      </trkpt>
      <trkpt lat="45.96887" lon="4.778">
        <ele>228</ele>
        <time>2018-09-11T10:17:52Z</time>
      </trkpt>
      <trkpt lat="45.96883" lon="4.77797">
        <ele>228</ele>
        <time>2018-09-11T10:17:53Z</time>
      </trkpt>
      <trkpt lat="45.96877" lon="4.77787">
        <ele>228</ele>
        <time>2018-09-11T10:17:55Z</time>
      </trkpt>
      <trkpt lat="45.96873" lon="4.77782">
        <ele>228</ele>
        <time>2018-09-11T10:17:56Z</time>
      </trkpt>
      <trkpt lat="45.96867" lon="4.77776">
        <ele>228</ele>
        <time>2018-09-11T10:17:57Z</time>
      </trkpt>
      <trkpt lat="45.96861" lon="4.77771">
        <ele>228</ele>
        <time>2018-09-11T10:17:58Z</time>
      </trkpt>
      <trkpt lat="45.96858" lon="4.77765">
        <ele>228</ele>
        <time>2018-09-11T10:17:59Z</time>
      </trkpt>
      <trkpt lat="45.96852" lon="4.77761">
        <ele>228</ele>
        <time>2018-09-11T10:18:00Z</time>
      </trkpt>
      <trkpt lat="45.96846" lon="4.77756">
        <ele>228</ele>
        <time>2018-09-11T10:18:01Z</time>
      </trkpt>
      <trkpt lat="45.96841" lon="4.77751">
        <ele>228</ele>
        <time>2018-09-11T10:18:02Z</time>
      </trkpt>
      <trkpt lat="45.96836" lon="4.77746">
        <ele>228</ele>
        <time>2018-09-11T10:18:03Z</time>
      </trkpt>
      <trkpt lat="45.9683" lon="4.77741">
        <ele>228</ele>
        <time>2018-09-11T10:18:04Z</time>
      </trkpt>
      <trkpt lat="45.96826" lon="4.77736">
        <ele>228</ele>
        <time>2018-09-11T10:18:05Z</time>
      </trkpt>
      <trkpt lat="45.9682" lon="4.7773">
        <ele>228</ele>
        <time>2018-09-11T10:18:06Z</time>
      </trkpt>
      <trkpt lat="45.96815" lon="4.77725">
        <ele>228</ele>
        <time>2018-09-11T10:18:07Z</time>
      </trkpt>
      <trkpt lat="45.9681" lon="4.77719">
        <ele>228</ele>
        <time>2018-09-11T10:18:08Z</time>
      </trkpt>
      <trkpt lat="45.96806" lon="4.77714">
        <ele>228</ele>
        <time>2018-09-11T10:18:09Z</time>
      </trkpt>
      <trkpt lat="45.96803" lon="4.77707">
        <ele>228</ele>
        <time>2018-09-11T10:18:10Z</time>
      </trkpt>
      <trkpt lat="45.96799" lon="4.77701">
        <ele>228</ele>
        <time>2018-09-11T10:18:11Z</time>
      </trkpt>
      <trkpt lat="45.96793" lon="4.77699">
        <ele>228</ele>
        <time>2018-09-11T10:18:12Z</time>
      </trkpt>
      <trkpt lat="45.96789" lon="4.77694">
        <ele>227</ele>
        <time>2018-09-11T10:18:13Z</time>
      </trkpt>
      <trkpt lat="45.96783" lon="4.77689">
        <ele>227</ele>
        <time>2018-09-11T10:18:14Z</time>
      </trkpt>
      <trkpt lat="45.96779" lon="4.77683">
        <ele>227</ele>
        <time>2018-09-11T10:18:15Z</time>
      </trkpt>
      <trkpt lat="45.96775" lon="4.77676">
        <ele>227</ele>
        <time>2018-09-11T10:18:16Z</time>
      </trkpt>
      <trkpt lat="45.96769" lon="4.77669">
        <ele>227</ele>
        <time>2018-09-11T10:18:17Z</time>
      </trkpt>
      <trkpt lat="45.96765" lon="4.77665">
        <ele>227</ele>
        <time>2018-09-11T10:18:18Z</time>
      </trkpt>
      <trkpt lat="45.96759" lon="4.77658">
        <ele>227</ele>
        <time>2018-09-11T10:18:19Z</time>
      </trkpt>
      <trkpt lat="45.96754" lon="4.77651">
        <ele>227</ele>
        <time>2018-09-11T10:18:20Z</time>
      </trkpt>
      <trkpt lat="45.96749" lon="4.77644">
        <ele>227</ele>
        <time>2018-09-11T10:18:21Z</time>
      </trkpt>
      <trkpt lat="45.96743" lon="4.77637">
        <ele>227</ele>
        <time>2018-09-11T10:18:22Z</time>
      </trkpt>
      <trkpt lat="45.96738" lon="4.77631">
        <ele>226</ele>
        <time>2018-09-11T10:18:23Z</time>
      </trkpt>
      <trkpt lat="45.96732" lon="4.77624">
        <ele>226</ele>
        <time>2018-09-11T10:18:24Z</time>
      </trkpt>
      <trkpt lat="45.96727" lon="4.77618">
        <ele>226</ele>
        <time>2018-09-11T10:18:25Z</time>
      </trkpt>
      <trkpt lat="45.96722" lon="4.77612">
        <ele>226</ele>
        <time>2018-09-11T10:18:26Z</time>
      </trkpt>
      <trkpt lat="45.96717" lon="4.77607">
        <ele>226</ele>
        <time>2018-09-11T10:18:27Z</time>
      </trkpt>
      <trkpt lat="45.96712" lon="4.77601">
        <ele>226</ele>
        <time>2018-09-11T10:18:28Z</time>
      </trkpt>
      <trkpt lat="45.96706" lon="4.77595">
        <ele>226</ele>
        <time>2018-09-11T10:18:29Z</time>
      </trkpt>
      <trkpt lat="45.96701" lon="4.77589">
        <ele>226</ele>
        <time>2018-09-11T10:18:30Z</time>
      </trkpt>
      <trkpt lat="45.96695" lon="4.77583">
        <ele>225</ele>
        <time>2018-09-11T10:18:31Z</time>
      </trkpt>
      <trkpt lat="45.96691" lon="4.77578">
        <ele>225</ele>
        <time>2018-09-11T10:18:32Z</time>
      </trkpt>
      <trkpt lat="45.96686" lon="4.77572">
        <ele>225</ele>
        <time>2018-09-11T10:18:33Z</time>
      </trkpt>
      <trkpt lat="45.96682" lon="4.77568">
        <ele>225</ele>
        <time>2018-09-11T10:18:34Z</time>
      </trkpt>
      <trkpt lat="45.96676" lon="4.77563">
        <ele>225</ele>
        <time>2018-09-11T10:18:35Z</time>
      </trkpt>
      <trkpt lat="45.96671" lon="4.77559">
        <ele>225</ele>
        <time>2018-09-11T10:18:36Z</time>
      </trkpt>
      <trkpt lat="45.96665" lon="4.77555">
        <ele>224</ele>
        <time>2018-09-11T10:18:37Z</time>
      </trkpt>
      <trkpt lat="45.96659" lon="4.77551">
        <ele>224</ele>
        <time>2018-09-11T10:18:38Z</time>
      </trkpt>
      <trkpt lat="45.96654" lon="4.77545">
        <ele>224</ele>
        <time>2018-09-11T10:18:39Z</time>
      </trkpt>
      <trkpt lat="45.96647" lon="4.77541">
        <ele>224</ele>
        <time>2018-09-11T10:18:40Z</time>
      </trkpt>
      <trkpt lat="45.96642" lon="4.77536">
        <ele>224</ele>
        <time>2018-09-11T10:18:41Z</time>
      </trkpt>
      <trkpt lat="45.96635" lon="4.77531">
        <ele>224</ele>
        <time>2018-09-11T10:18:42Z</time>
      </trkpt>
      <trkpt lat="45.96629" lon="4.77527">
        <ele>224</ele>
        <time>2018-09-11T10:18:43Z</time>
      </trkpt>
      <trkpt lat="45.96623" lon="4.77521">
        <ele>224</ele>
        <time>2018-09-11T10:18:44Z</time>
      </trkpt>
      <trkpt lat="45.96617" lon="4.77518">
        <ele>224</ele>
        <time>2018-09-11T10:18:45Z</time>
      </trkpt>
      <trkpt lat="45.9661" lon="4.77513">
        <ele>224</ele>
        <time>2018-09-11T10:18:46Z</time>
      </trkpt>
      <trkpt lat="45.96604" lon="4.77509">
        <ele>224</ele>
        <time>2018-09-11T10:18:47Z</time>
      </trkpt>
      <trkpt lat="45.96597" lon="4.77505">
        <ele>224</ele>
        <time>2018-09-11T10:18:48Z</time>
      </trkpt>
      <trkpt lat="45.96591" lon="4.775">
        <ele>224</ele>
        <time>2018-09-11T10:18:49Z</time>
      </trkpt>
      <trkpt lat="45.96585" lon="4.77496">
        <ele>224</ele>
        <time>2018-09-11T10:18:50Z</time>
      </trkpt>
      <trkpt lat="45.9658" lon="4.77492">
        <ele>224</ele>
        <time>2018-09-11T10:18:51Z</time>
      </trkpt>
      <trkpt lat="45.96574" lon="4.77488">
        <ele>224</ele>
        <time>2018-09-11T10:18:52Z</time>
      </trkpt>
      <trkpt lat="45.96567" lon="4.77485">
        <ele>224</ele>
        <time>2018-09-11T10:18:53Z</time>
      </trkpt>
      <trkpt lat="45.96561" lon="4.77481">
        <ele>224</ele>
        <time>2018-09-11T10:18:54Z</time>
      </trkpt>
      <trkpt lat="45.96554" lon="4.77477">
        <ele>224</ele>
        <time>2018-09-11T10:18:55Z</time>
      </trkpt>
      <trkpt lat="45.96548" lon="4.77472">
        <ele>223</ele>
        <time>2018-09-11T10:18:56Z</time>
      </trkpt>
      <trkpt lat="45.9654" lon="4.77467">
        <ele>223</ele>
        <time>2018-09-11T10:18:57Z</time>
      </trkpt>
      <trkpt lat="45.96533" lon="4.77465">
        <ele>223</ele>
        <time>2018-09-11T10:18:58Z</time>
      </trkpt>
      <trkpt lat="45.96523" lon="4.77461">
        <ele>223</ele>
        <time>2018-09-11T10:18:59Z</time>
      </trkpt>
      <trkpt lat="45.96516" lon="4.77457">
        <ele>223</ele>
        <time>2018-09-11T10:19:00Z</time>
      </trkpt>
      <trkpt lat="45.96509" lon="4.77453">
        <ele>223</ele>
        <time>2018-09-11T10:19:01Z</time>
      </trkpt>
      <trkpt lat="45.96502" lon="4.77448">
        <ele>223</ele>
        <time>2018-09-11T10:19:02Z</time>
      </trkpt>
      <trkpt lat="45.96495" lon="4.77444">
        <ele>222</ele>
        <time>2018-09-11T10:19:03Z</time>
      </trkpt>
      <trkpt lat="45.96487" lon="4.77439">
        <ele>222</ele>
        <time>2018-09-11T10:19:04Z</time>
      </trkpt>
      <trkpt lat="45.9648" lon="4.77434">
        <ele>222</ele>
        <time>2018-09-11T10:19:05Z</time>
      </trkpt>
      <trkpt lat="45.96474" lon="4.7743">
        <ele>221</ele>
        <time>2018-09-11T10:19:06Z</time>
      </trkpt>
      <trkpt lat="45.96467" lon="4.77426">
        <ele>221</ele>
        <time>2018-09-11T10:19:07Z</time>
      </trkpt>
      <trkpt lat="45.9646" lon="4.77421">
        <ele>221</ele>
        <time>2018-09-11T10:19:08Z</time>
      </trkpt>
      <trkpt lat="45.96453" lon="4.77416">
        <ele>222</ele>
        <time>2018-09-11T10:19:09Z</time>
      </trkpt>
      <trkpt lat="45.96447" lon="4.77412">
        <ele>222</ele>
        <time>2018-09-11T10:19:10Z</time>
      </trkpt>
      <trkpt lat="45.9644" lon="4.77408">
        <ele>222</ele>
        <time>2018-09-11T10:19:11Z</time>
      </trkpt>
      <trkpt lat="45.96435" lon="4.77404">
        <ele>222</ele>
        <time>2018-09-11T10:19:12Z</time>
      </trkpt>
      <trkpt lat="45.96429" lon="4.774">
        <ele>222</ele>
        <time>2018-09-11T10:19:13Z</time>
      </trkpt>
      <trkpt lat="45.96422" lon="4.77396">
        <ele>222</ele>
        <time>2018-09-11T10:19:14Z</time>
      </trkpt>
      <trkpt lat="45.96415" lon="4.77391">
        <ele>220</ele>
        <time>2018-09-11T10:19:15Z</time>
      </trkpt>
      <trkpt lat="45.96409" lon="4.77387">
        <ele>220</ele>
        <time>2018-09-11T10:19:16Z</time>
      </trkpt>
      <trkpt lat="45.96402" lon="4.77382">
        <ele>220</ele>
        <time>2018-09-11T10:19:17Z</time>
      </trkpt>
      <trkpt lat="45.96393" lon="4.77379">
        <ele>220</ele>
        <time>2018-09-11T10:19:18Z</time>
      </trkpt>
      <trkpt lat="45.96387" lon="4.77375">
        <ele>220</ele>
        <time>2018-09-11T10:19:19Z</time>
      </trkpt>
      <trkpt lat="45.96379" lon="4.77371">
        <ele>220</ele>
        <time>2018-09-11T10:19:20Z</time>
      </trkpt>
      <trkpt lat="45.96373" lon="4.77367">
        <ele>220</ele>
        <time>2018-09-11T10:19:21Z</time>
      </trkpt>
      <trkpt lat="45.96365" lon="4.77363">
        <ele>220</ele>
        <time>2018-09-11T10:19:22Z</time>
      </trkpt>
      <trkpt lat="45.96358" lon="4.77357">
        <ele>220</ele>
        <time>2018-09-11T10:19:23Z</time>
      </trkpt>
      <trkpt lat="45.96351" lon="4.77353">
        <ele>220</ele>
        <time>2018-09-11T10:19:24Z</time>
      </trkpt>
      <trkpt lat="45.96343" lon="4.7735">
        <ele>220</ele>
        <time>2018-09-11T10:19:25Z</time>
      </trkpt>
      <trkpt lat="45.96336" lon="4.77345">
        <ele>220</ele>
        <time>2018-09-11T10:19:26Z</time>
      </trkpt>
      <trkpt lat="45.96328" lon="4.77341">
        <ele>219</ele>
        <time>2018-09-11T10:19:27Z</time>
      </trkpt>
      <trkpt lat="45.96321" lon="4.77337">
        <ele>218</ele>
        <time>2018-09-11T10:19:28Z</time>
      </trkpt>
      <trkpt lat="45.96314" lon="4.77334">
        <ele>218</ele>
        <time>2018-09-11T10:19:29Z</time>
      </trkpt>
      <trkpt lat="45.96307" lon="4.77329">
        <ele>219</ele>
        <time>2018-09-11T10:19:30Z</time>
      </trkpt>
      <trkpt lat="45.96301" lon="4.77326">
        <ele>219</ele>
        <time>2018-09-11T10:19:31Z</time>
      </trkpt>
      <trkpt lat="45.96294" lon="4.77321">
        <ele>219</ele>
        <time>2018-09-11T10:19:32Z</time>
      </trkpt>
      <trkpt lat="45.96288" lon="4.77317">
        <ele>219</ele>
        <time>2018-09-11T10:19:33Z</time>
      </trkpt>
      <trkpt lat="45.96281" lon="4.77313">
        <ele>219</ele>
        <time>2018-09-11T10:19:34Z</time>
      </trkpt>
      <trkpt lat="45.96274" lon="4.77309">
        <ele>219</ele>
        <time>2018-09-11T10:19:35Z</time>
      </trkpt>
      <trkpt lat="45.96267" lon="4.77305">
        <ele>219</ele>
        <time>2018-09-11T10:19:36Z</time>
      </trkpt>
      <trkpt lat="45.9626" lon="4.77302">
        <ele>219</ele>
        <time>2018-09-11T10:19:37Z</time>
      </trkpt>
      <trkpt lat="45.96253" lon="4.77298">
        <ele>219</ele>
        <time>2018-09-11T10:19:38Z</time>
      </trkpt>
      <trkpt lat="45.96246" lon="4.77295">
        <ele>217</ele>
        <time>2018-09-11T10:19:39Z</time>
      </trkpt>
      <trkpt lat="45.96239" lon="4.77291">
        <ele>217</ele>
        <time>2018-09-11T10:19:40Z</time>
      </trkpt>
      <trkpt lat="45.96232" lon="4.77288">
        <ele>217</ele>
        <time>2018-09-11T10:19:41Z</time>
      </trkpt>
      <trkpt lat="45.96226" lon="4.77284">
        <ele>217</ele>
        <time>2018-09-11T10:19:42Z</time>
      </trkpt>
      <trkpt lat="45.9622" lon="4.77279">
        <ele>217</ele>
        <time>2018-09-11T10:19:43Z</time>
      </trkpt>
      <trkpt lat="45.96213" lon="4.77275">
        <ele>217</ele>
        <time>2018-09-11T10:19:44Z</time>
      </trkpt>
      <trkpt lat="45.96205" lon="4.77271">
        <ele>217</ele>
        <time>2018-09-11T10:19:45Z</time>
      </trkpt>
      <trkpt lat="45.96199" lon="4.77267">
        <ele>217</ele>
        <time>2018-09-11T10:19:46Z</time>
      </trkpt>
      <trkpt lat="45.96192" lon="4.77263">
        <ele>216</ele>
        <time>2018-09-11T10:19:47Z</time>
      </trkpt>
      <trkpt lat="45.96185" lon="4.77259">
        <ele>216</ele>
        <time>2018-09-11T10:19:48Z</time>
      </trkpt>
      <trkpt lat="45.96178" lon="4.77256">
        <ele>216</ele>
        <time>2018-09-11T10:19:49Z</time>
      </trkpt>
      <trkpt lat="45.9617" lon="4.77251">
        <ele>216</ele>
        <time>2018-09-11T10:19:50Z</time>
      </trkpt>
      <trkpt lat="45.96164" lon="4.77248">
        <ele>216</ele>
        <time>2018-09-11T10:19:51Z</time>
      </trkpt>
      <trkpt lat="45.96157" lon="4.77245">
        <ele>216</ele>
        <time>2018-09-11T10:19:52Z</time>
      </trkpt>
      <trkpt lat="45.96151" lon="4.77242">
        <ele>215</ele>
        <time>2018-09-11T10:19:53Z</time>
      </trkpt>
      <trkpt lat="45.96143" lon="4.7724">
        <ele>215</ele>
        <time>2018-09-11T10:19:54Z</time>
      </trkpt>
      <trkpt lat="45.96136" lon="4.77238">
        <ele>215</ele>
        <time>2018-09-11T10:19:55Z</time>
      </trkpt>
      <trkpt lat="45.96132" lon="4.77236">
        <ele>215</ele>
        <time>2018-09-11T10:19:56Z</time>
      </trkpt>
      <trkpt lat="45.96126" lon="4.77237">
        <ele>214</ele>
        <time>2018-09-11T10:19:57Z</time>
      </trkpt>
      <trkpt lat="45.96118" lon="4.77237">
        <ele>214</ele>
        <time>2018-09-11T10:19:58Z</time>
      </trkpt>
      <trkpt lat="45.96111" lon="4.77238">
        <ele>214</ele>
        <time>2018-09-11T10:19:59Z</time>
      </trkpt>
      <trkpt lat="45.96101" lon="4.77239">
        <ele>213</ele>
        <time>2018-09-11T10:20:00Z</time>
      </trkpt>
      <trkpt lat="45.96094" lon="4.77239">
        <ele>212</ele>
        <time>2018-09-11T10:20:01Z</time>
      </trkpt>
      <trkpt lat="45.96087" lon="4.77239">
        <ele>212</ele>
        <time>2018-09-11T10:20:02Z</time>
      </trkpt>
      <trkpt lat="45.9608" lon="4.7724">
        <ele>210</ele>
        <time>2018-09-11T10:20:03Z</time>
      </trkpt>
      <trkpt lat="45.96074" lon="4.77241">
        <ele>210</ele>
        <time>2018-09-11T10:20:04Z</time>
      </trkpt>
      <trkpt lat="45.96067" lon="4.77241">
        <ele>209</ele>
        <time>2018-09-11T10:20:05Z</time>
      </trkpt>
      <trkpt lat="45.96059" lon="4.7724">
        <ele>209</ele>
        <time>2018-09-11T10:20:06Z</time>
      </trkpt>
      <trkpt lat="45.96049" lon="4.7724">
        <ele>209</ele>
        <time>2018-09-11T10:20:07Z</time>
      </trkpt>
      <trkpt lat="45.96041" lon="4.77241">
        <ele>208</ele>
        <time>2018-09-11T10:20:08Z</time>
      </trkpt>
      <trkpt lat="45.96032" lon="4.77241">
        <ele>208</ele>
        <time>2018-09-11T10:20:09Z</time>
      </trkpt>
      <trkpt lat="45.96025" lon="4.77241">
        <ele>207</ele>
        <time>2018-09-11T10:20:10Z</time>
      </trkpt>
      <trkpt lat="45.96017" lon="4.7724">
        <ele>206</ele>
        <time>2018-09-11T10:20:11Z</time>
      </trkpt>
      <trkpt lat="45.96007" lon="4.77239">
        <ele>206</ele>
        <time>2018-09-11T10:20:12Z</time>
      </trkpt>
      <trkpt lat="45.95999" lon="4.77237">
        <ele>203</ele>
        <time>2018-09-11T10:20:13Z</time>
      </trkpt>
      <trkpt lat="45.95991" lon="4.77233">
        <ele>202</ele>
        <time>2018-09-11T10:20:14Z</time>
      </trkpt>
      <trkpt lat="45.95982" lon="4.77228">
        <ele>202</ele>
        <time>2018-09-11T10:20:15Z</time>
      </trkpt>
      <trkpt lat="45.95974" lon="4.77221">
        <ele>202</ele>
        <time>2018-09-11T10:20:16Z</time>
      </trkpt>
      <trkpt lat="45.95967" lon="4.77215">
        <ele>202</ele>
        <time>2018-09-11T10:20:17Z</time>
      </trkpt>
      <trkpt lat="45.95962" lon="4.77205">
        <ele>202</ele>
        <time>2018-09-11T10:20:18Z</time>
      </trkpt>
      <trkpt lat="45.95957" lon="4.77194">
        <ele>201</ele>
        <time>2018-09-11T10:20:19Z</time>
      </trkpt>
      <trkpt lat="45.95952" lon="4.77183">
        <ele>201</ele>
        <time>2018-09-11T10:20:20Z</time>
      </trkpt>
      <trkpt lat="45.9595" lon="4.77171">
        <ele>201</ele>
        <time>2018-09-11T10:20:21Z</time>
      </trkpt>
      <trkpt lat="45.95948" lon="4.77159">
        <ele>201</ele>
        <time>2018-09-11T10:20:22Z</time>
      </trkpt>
      <trkpt lat="45.95946" lon="4.77146">
        <ele>201</ele>
        <time>2018-09-11T10:20:23Z</time>
      </trkpt>
      <trkpt lat="45.95945" lon="4.77134">
        <ele>202</ele>
        <time>2018-09-11T10:20:24Z</time>
      </trkpt>
      <trkpt lat="45.95945" lon="4.77121">
        <ele>202</ele>
        <time>2018-09-11T10:20:25Z</time>
      </trkpt>
      <trkpt lat="45.95947" lon="4.7711">
        <ele>202</ele>
        <time>2018-09-11T10:20:26Z</time>
      </trkpt>
      <trkpt lat="45.9595" lon="4.77097">
        <ele>202</ele>
        <time>2018-09-11T10:20:27Z</time>
      </trkpt>
      <trkpt lat="45.95952" lon="4.77085">
        <ele>202</ele>
        <time>2018-09-11T10:20:28Z</time>
      </trkpt>
      <trkpt lat="45.95955" lon="4.77073">
        <ele>200</ele>
        <time>2018-09-11T10:20:29Z</time>
      </trkpt>
      <trkpt lat="45.95957" lon="4.77062">
        <ele>200</ele>
        <time>2018-09-11T10:20:30Z</time>
      </trkpt>
      <trkpt lat="45.9596" lon="4.77051">
        <ele>200</ele>
        <time>2018-09-11T10:20:31Z</time>
      </trkpt>
      <trkpt lat="45.95964" lon="4.7704">
        <ele>200</ele>
        <time>2018-09-11T10:20:32Z</time>
      </trkpt>
      <trkpt lat="45.95969" lon="4.7703">
        <ele>200</ele>
        <time>2018-09-11T10:20:33Z</time>
      </trkpt>
      <trkpt lat="45.95973" lon="4.77019">
        <ele>200</ele>
        <time>2018-09-11T10:20:34Z</time>
      </trkpt>
      <trkpt lat="45.95977" lon="4.77008">
        <ele>200</ele>
        <time>2018-09-11T10:20:35Z</time>
      </trkpt>
      <trkpt lat="45.9598" lon="4.76999">
        <ele>198</ele>
        <time>2018-09-11T10:20:36Z</time>
      </trkpt>
      <trkpt lat="45.95983" lon="4.76987">
        <ele>198</ele>
        <time>2018-09-11T10:20:37Z</time>
      </trkpt>
      <trkpt lat="45.95984" lon="4.76976">
        <ele>197</ele>
        <time>2018-09-11T10:20:38Z</time>
      </trkpt>
      <trkpt lat="45.95983" lon="4.76963">
        <ele>196</ele>
        <time>2018-09-11T10:20:39Z</time>
      </trkpt>
      <trkpt lat="45.95979" lon="4.76949">
        <ele>196</ele>
        <time>2018-09-11T10:20:40Z</time>
      </trkpt>
      <trkpt lat="45.95974" lon="4.76937">
        <ele>196</ele>
        <time>2018-09-11T10:20:41Z</time>
      </trkpt>
      <trkpt lat="45.95967" lon="4.76926">
        <ele>195</ele>
        <time>2018-09-11T10:20:42Z</time>
      </trkpt>
      <trkpt lat="45.95959" lon="4.76917">
        <ele>195</ele>
        <time>2018-09-11T10:20:43Z</time>
      </trkpt>
      <trkpt lat="45.95952" lon="4.76908">
        <ele>193</ele>
        <time>2018-09-11T10:20:44Z</time>
      </trkpt>
      <trkpt lat="45.95945" lon="4.769">
        <ele>192</ele>
        <time>2018-09-11T10:20:45Z</time>
      </trkpt>
      <trkpt lat="45.95937" lon="4.76892">
        <ele>192</ele>
        <time>2018-09-11T10:20:46Z</time>
      </trkpt>
      <trkpt lat="45.95929" lon="4.76884">
        <ele>192</ele>
        <time>2018-09-11T10:20:47Z</time>
      </trkpt>
      <trkpt lat="45.95922" lon="4.76876">
        <ele>192</ele>
        <time>2018-09-11T10:20:48Z</time>
      </trkpt>
      <trkpt lat="45.95915" lon="4.76868">
        <ele>191</ele>
        <time>2018-09-11T10:20:49Z</time>
      </trkpt>
      <trkpt lat="45.95907" lon="4.7686">
        <ele>191</ele>
        <time>2018-09-11T10:20:50Z</time>
      </trkpt>
      <trkpt lat="45.959" lon="4.76853">
        <ele>191</ele>
        <time>2018-09-11T10:20:51Z</time>
      </trkpt>
      <trkpt lat="45.95893" lon="4.76845">
        <ele>191</ele>
        <time>2018-09-11T10:20:52Z</time>
      </trkpt>
      <trkpt lat="45.95887" lon="4.76837">
        <ele>191</ele>
        <time>2018-09-11T10:20:53Z</time>
      </trkpt>
      <trkpt lat="45.9588" lon="4.7683">
        <ele>191</ele>
        <time>2018-09-11T10:20:54Z</time>
      </trkpt>
      <trkpt lat="45.95874" lon="4.76823">
        <ele>191</ele>
        <time>2018-09-11T10:20:55Z</time>
      </trkpt>
      <trkpt lat="45.95867" lon="4.76815">
        <ele>191</ele>
        <time>2018-09-11T10:20:56Z</time>
      </trkpt>
      <trkpt lat="45.9586" lon="4.76808">
        <ele>191</ele>
        <time>2018-09-11T10:20:57Z</time>
      </trkpt>
      <trkpt lat="45.95854" lon="4.768">
        <ele>191</ele>
        <time>2018-09-11T10:20:58Z</time>
      </trkpt>
      <trkpt lat="45.95849" lon="4.76793">
        <ele>191</ele>
        <time>2018-09-11T10:20:59Z</time>
      </trkpt>
      <trkpt lat="45.95844" lon="4.76788">
        <ele>191</ele>
        <time>2018-09-11T10:21:00Z</time>
      </trkpt>
      <trkpt lat="45.95838" lon="4.76781">
        <ele>191</ele>
        <time>2018-09-11T10:21:01Z</time>
      </trkpt>
      <trkpt lat="45.95834" lon="4.76772">
        <ele>191</ele>
        <time>2018-09-11T10:21:02Z</time>
      </trkpt>
      <trkpt lat="45.95832" lon="4.7676">
        <ele>191</ele>
        <time>2018-09-11T10:21:03Z</time>
      </trkpt>
      <trkpt lat="45.95829" lon="4.76749">
        <ele>191</ele>
        <time>2018-09-11T10:21:04Z</time>
      </trkpt>
      <trkpt lat="45.95827" lon="4.7674">
        <ele>190</ele>
        <time>2018-09-11T10:21:05Z</time>
      </trkpt>
      <trkpt lat="45.95825" lon="4.7673">
        <ele>190</ele>
        <time>2018-09-11T10:21:06Z</time>
      </trkpt>
      <trkpt lat="45.95824" lon="4.7672">
        <ele>189</ele>
        <time>2018-09-11T10:21:07Z</time>
      </trkpt>
      <trkpt lat="45.95823" lon="4.7671">
        <ele>189</ele>
        <time>2018-09-11T10:21:08Z</time>
      </trkpt>
      <trkpt lat="45.95822" lon="4.767">
        <ele>189</ele>
        <time>2018-09-11T10:21:09Z</time>
      </trkpt>
      <trkpt lat="45.95821" lon="4.7669">
        <ele>189</ele>
        <time>2018-09-11T10:21:10Z</time>
      </trkpt>
      <trkpt lat="45.9582" lon="4.76681">
        <ele>189</ele>
        <time>2018-09-11T10:21:11Z</time>
      </trkpt>
      <trkpt lat="45.95818" lon="4.76672">
        <ele>188</ele>
        <time>2018-09-11T10:21:12Z</time>
      </trkpt>
      <trkpt lat="45.95814" lon="4.7666">
        <ele>188</ele>
        <time>2018-09-11T10:21:13Z</time>
      </trkpt>
      <trkpt lat="45.95812" lon="4.76651">
        <ele>188</ele>
        <time>2018-09-11T10:21:14Z</time>
      </trkpt>
      <trkpt lat="45.95812" lon="4.7664">
        <ele>188</ele>
        <time>2018-09-11T10:21:15Z</time>
      </trkpt>
      <trkpt lat="45.9581" lon="4.76631">
        <ele>188</ele>
        <time>2018-09-11T10:21:16Z</time>
      </trkpt>
      <trkpt lat="45.95807" lon="4.76623">
        <ele>188</ele>
        <time>2018-09-11T10:21:17Z</time>
      </trkpt>
      <trkpt lat="45.95807" lon="4.76615">
        <ele>188</ele>
        <time>2018-09-11T10:21:18Z</time>
      </trkpt>
      <trkpt lat="45.95805" lon="4.76606">
        <ele>188</ele>
        <time>2018-09-11T10:21:19Z</time>
      </trkpt>
      <trkpt lat="45.9581" lon="4.76598">
        <ele>188</ele>
        <time>2018-09-11T10:21:20Z</time>
      </trkpt>
      <trkpt lat="45.95808" lon="4.7659">
        <ele>188</ele>
        <time>2018-09-11T10:21:21Z</time>
      </trkpt>
      <trkpt lat="45.95808" lon="4.76582">
        <ele>187</ele>
        <time>2018-09-11T10:21:22Z</time>
      </trkpt>
      <trkpt lat="45.95807" lon="4.76573">
        <ele>187</ele>
        <time>2018-09-11T10:21:23Z</time>
      </trkpt>
      <trkpt lat="45.95805" lon="4.76566">
        <ele>187</ele>
        <time>2018-09-11T10:21:24Z</time>
      </trkpt>
      <trkpt lat="45.95805" lon="4.76557">
        <ele>187</ele>
        <time>2018-09-11T10:21:25Z</time>
      </trkpt>
      <trkpt lat="45.95804" lon="4.76549">
        <ele>187</ele>
        <time>2018-09-11T10:21:26Z</time>
      </trkpt>
      <trkpt lat="45.95802" lon="4.7654">
        <ele>187</ele>
        <time>2018-09-11T10:21:27Z</time>
      </trkpt>
      <trkpt lat="45.95801" lon="4.76533">
        <ele>187</ele>
        <time>2018-09-11T10:21:28Z</time>
      </trkpt>
      <trkpt lat="45.95798" lon="4.76524">
        <ele>187</ele>
        <time>2018-09-11T10:21:29Z</time>
      </trkpt>
      <trkpt lat="45.95797" lon="4.76517">
        <ele>187</ele>
        <time>2018-09-11T10:21:30Z</time>
      </trkpt>
      <trkpt lat="45.95796" lon="4.76509">
        <ele>187</ele>
        <time>2018-09-11T10:21:31Z</time>
      </trkpt>
      <trkpt lat="45.95794" lon="4.76501">
        <ele>187</ele>
        <time>2018-09-11T10:21:32Z</time>
      </trkpt>
      <trkpt lat="45.95792" lon="4.76495">
        <ele>187</ele>
        <time>2018-09-11T10:21:33Z</time>
      </trkpt>
      <trkpt lat="45.95789" lon="4.76488">
        <ele>186</ele>
        <time>2018-09-11T10:21:34Z</time>
      </trkpt>
      <trkpt lat="45.95789" lon="4.7648">
        <ele>186</ele>
        <time>2018-09-11T10:21:35Z</time>
      </trkpt>
      <trkpt lat="45.95788" lon="4.76472">
        <ele>186</ele>
        <time>2018-09-11T10:21:36Z</time>
      </trkpt>
      <trkpt lat="45.95787" lon="4.76464">
        <ele>186</ele>
        <time>2018-09-11T10:21:37Z</time>
      </trkpt>
      <trkpt lat="45.95784" lon="4.76456">
        <ele>186</ele>
        <time>2018-09-11T10:21:38Z</time>
      </trkpt>
      <trkpt lat="45.95783" lon="4.76448">
        <ele>186</ele>
        <time>2018-09-11T10:21:39Z</time>
      </trkpt>
      <trkpt lat="45.95782" lon="4.76439">
        <ele>186</ele>
        <time>2018-09-11T10:21:40Z</time>
      </trkpt>
      <trkpt lat="45.95781" lon="4.7643">
        <ele>186</ele>
        <time>2018-09-11T10:21:41Z</time>
      </trkpt>
      <trkpt lat="45.9578" lon="4.76422">
        <ele>186</ele>
        <time>2018-09-11T10:21:42Z</time>
      </trkpt>
      <trkpt lat="45.95779" lon="4.76415">
        <ele>186</ele>
        <time>2018-09-11T10:21:43Z</time>
      </trkpt>
      <trkpt lat="45.95778" lon="4.76408">
        <ele>186</ele>
        <time>2018-09-11T10:21:44Z</time>
      </trkpt>
      <trkpt lat="45.95777" lon="4.76397">
        <ele>186</ele>
        <time>2018-09-11T10:21:45Z</time>
      </trkpt>
      <trkpt lat="45.95778" lon="4.76391">
        <ele>186</ele>
        <time>2018-09-11T10:21:46Z</time>
      </trkpt>
      <trkpt lat="45.95777" lon="4.76384">
        <ele>186</ele>
        <time>2018-09-11T10:21:47Z</time>
      </trkpt>
      <trkpt lat="45.95776" lon="4.76376">
        <ele>186</ele>
        <time>2018-09-11T10:21:48Z</time>
      </trkpt>
      <trkpt lat="45.95776" lon="4.76369">
        <ele>186</ele>
        <time>2018-09-11T10:21:49Z</time>
      </trkpt>
      <trkpt lat="45.95775" lon="4.76356">
        <ele>186</ele>
        <time>2018-09-11T10:21:51Z</time>
      </trkpt>
      <trkpt lat="45.95775" lon="4.76349">
        <ele>186</ele>
        <time>2018-09-11T10:21:52Z</time>
      </trkpt>
      <trkpt lat="45.95774" lon="4.76341">
        <ele>186</ele>
        <time>2018-09-11T10:21:53Z</time>
      </trkpt>
      <trkpt lat="45.95775" lon="4.76333">
        <ele>186</ele>
        <time>2018-09-11T10:21:54Z</time>
      </trkpt>
      <trkpt lat="45.95774" lon="4.76327">
        <ele>185</ele>
        <time>2018-09-11T10:21:55Z</time>
      </trkpt>
      <trkpt lat="45.95774" lon="4.76318">
        <ele>186</ele>
        <time>2018-09-11T10:21:56Z</time>
      </trkpt>
      <trkpt lat="45.95775" lon="4.76311">
        <ele>186</ele>
        <time>2018-09-11T10:21:57Z</time>
      </trkpt>
      <trkpt lat="45.95776" lon="4.76303">
        <ele>186</ele>
        <time>2018-09-11T10:21:58Z</time>
      </trkpt>
      <trkpt lat="45.95776" lon="4.76296">
        <ele>186</ele>
        <time>2018-09-11T10:21:59Z</time>
      </trkpt>
      <trkpt lat="45.95776" lon="4.76287">
        <ele>186</ele>
        <time>2018-09-11T10:22:00Z</time>
      </trkpt>
      <trkpt lat="45.95775" lon="4.76279">
        <ele>186</ele>
        <time>2018-09-11T10:22:01Z</time>
      </trkpt>
      <trkpt lat="45.95775" lon="4.76271">
        <ele>186</ele>
        <time>2018-09-11T10:22:02Z</time>
      </trkpt>
      <trkpt lat="45.95774" lon="4.76264">
        <ele>186</ele>
        <time>2018-09-11T10:22:03Z</time>
      </trkpt>
      <trkpt lat="45.95773" lon="4.76257">
        <ele>186</ele>
        <time>2018-09-11T10:22:04Z</time>
      </trkpt>
      <trkpt lat="45.95772" lon="4.76249">
        <ele>186</ele>
        <time>2018-09-11T10:22:05Z</time>
      </trkpt>
      <trkpt lat="45.95772" lon="4.76242">
        <ele>186</ele>
        <time>2018-09-11T10:22:06Z</time>
      </trkpt>
      <trkpt lat="45.95769" lon="4.76234">
        <ele>186</ele>
        <time>2018-09-11T10:22:07Z</time>
      </trkpt>
      <trkpt lat="45.95768" lon="4.76225">
        <ele>186</ele>
        <time>2018-09-11T10:22:08Z</time>
      </trkpt>
      <trkpt lat="45.95766" lon="4.76218">
        <ele>186</ele>
        <time>2018-09-11T10:22:09Z</time>
      </trkpt>
      <trkpt lat="45.95765" lon="4.76211">
        <ele>186</ele>
        <time>2018-09-11T10:22:10Z</time>
      </trkpt>
      <trkpt lat="45.95766" lon="4.76204">
        <ele>186</ele>
        <time>2018-09-11T10:22:11Z</time>
      </trkpt>
      <trkpt lat="45.95765" lon="4.76195">
        <ele>186</ele>
        <time>2018-09-11T10:22:12Z</time>
      </trkpt>
      <trkpt lat="45.95765" lon="4.76187">
        <ele>186</ele>
        <time>2018-09-11T10:22:13Z</time>
      </trkpt>
      <trkpt lat="45.95765" lon="4.76179">
        <ele>186</ele>
        <time>2018-09-11T10:22:14Z</time>
      </trkpt>
      <trkpt lat="45.95763" lon="4.76172">
        <ele>185</ele>
        <time>2018-09-11T10:22:15Z</time>
      </trkpt>
      <trkpt lat="45.95764" lon="4.76163">
        <ele>186</ele>
        <time>2018-09-11T10:22:16Z</time>
      </trkpt>
      <trkpt lat="45.95764" lon="4.76151">
        <ele>186</ele>
        <time>2018-09-11T10:22:18Z</time>
      </trkpt>
      <trkpt lat="45.95763" lon="4.76143">
        <ele>186</ele>
        <time>2018-09-11T10:22:19Z</time>
      </trkpt>
      <trkpt lat="45.95762" lon="4.76136">
        <ele>186</ele>
        <time>2018-09-11T10:22:20Z</time>
      </trkpt>
      <trkpt lat="45.95759" lon="4.76129">
        <ele>186</ele>
        <time>2018-09-11T10:22:21Z</time>
      </trkpt>
      <trkpt lat="45.95758" lon="4.76122">
        <ele>186</ele>
        <time>2018-09-11T10:22:22Z</time>
      </trkpt>
      <trkpt lat="45.95757" lon="4.76116">
        <ele>186</ele>
        <time>2018-09-11T10:22:23Z</time>
      </trkpt>
      <trkpt lat="45.95756" lon="4.76108">
        <ele>186</ele>
        <time>2018-09-11T10:22:24Z</time>
      </trkpt>
      <trkpt lat="45.95754" lon="4.76101">
        <ele>186</ele>
        <time>2018-09-11T10:22:25Z</time>
      </trkpt>
      <trkpt lat="45.95753" lon="4.76094">
        <ele>186</ele>
        <time>2018-09-11T10:22:26Z</time>
      </trkpt>
      <trkpt lat="45.95751" lon="4.76087">
        <ele>185</ele>
        <time>2018-09-11T10:22:27Z</time>
      </trkpt>
      <trkpt lat="45.95749" lon="4.7608">
        <ele>185</ele>
        <time>2018-09-11T10:22:28Z</time>
      </trkpt>
      <trkpt lat="45.95746" lon="4.76073">
        <ele>185</ele>
        <time>2018-09-11T10:22:29Z</time>
      </trkpt>
      <trkpt lat="45.95743" lon="4.76066">
        <ele>185</ele>
        <time>2018-09-11T10:22:30Z</time>
      </trkpt>
      <trkpt lat="45.95739" lon="4.76059">
        <ele>184</ele>
        <time>2018-09-11T10:22:31Z</time>
      </trkpt>
      <trkpt lat="45.95736" lon="4.76051">
        <ele>184</ele>
        <time>2018-09-11T10:22:32Z</time>
      </trkpt>
      <trkpt lat="45.95732" lon="4.76045">
        <ele>184</ele>
        <time>2018-09-11T10:22:33Z</time>
      </trkpt>
      <trkpt lat="45.95729" lon="4.76038">
        <ele>184</ele>
        <time>2018-09-11T10:22:34Z</time>
      </trkpt>
      <trkpt lat="45.95726" lon="4.76031">
        <ele>184</ele>
        <time>2018-09-11T10:22:35Z</time>
      </trkpt>
      <trkpt lat="45.95723" lon="4.76025">
        <ele>184</ele>
        <time>2018-09-11T10:22:36Z</time>
      </trkpt>
      <trkpt lat="45.9572" lon="4.76019">
        <ele>184</ele>
        <time>2018-09-11T10:22:37Z</time>
      </trkpt>
      <trkpt lat="45.95717" lon="4.76014">
        <ele>184</ele>
        <time>2018-09-11T10:22:38Z</time>
      </trkpt>
      <trkpt lat="45.95713" lon="4.76006">
        <ele>184</ele>
        <time>2018-09-11T10:22:39Z</time>
      </trkpt>
      <trkpt lat="45.9571" lon="4.75999">
        <ele>185</ele>
        <time>2018-09-11T10:22:40Z</time>
      </trkpt>
      <trkpt lat="45.95707" lon="4.75993">
        <ele>185</ele>
        <time>2018-09-11T10:22:41Z</time>
      </trkpt>
      <trkpt lat="45.95704" lon="4.75986">
        <ele>185</ele>
        <time>2018-09-11T10:22:42Z</time>
      </trkpt>
      <trkpt lat="45.95701" lon="4.75979">
        <ele>185</ele>
        <time>2018-09-11T10:22:43Z</time>
      </trkpt>
      <trkpt lat="45.95698" lon="4.75973">
        <ele>185</ele>
        <time>2018-09-11T10:22:44Z</time>
      </trkpt>
      <trkpt lat="45.95694" lon="4.75967">
        <ele>185</ele>
        <time>2018-09-11T10:22:45Z</time>
      </trkpt>
      <trkpt lat="45.95691" lon="4.75962">
        <ele>185</ele>
        <time>2018-09-11T10:22:46Z</time>
      </trkpt>
      <trkpt lat="45.95688" lon="4.75956">
        <ele>185</ele>
        <time>2018-09-11T10:22:47Z</time>
      </trkpt>
      <trkpt lat="45.95685" lon="4.75949">
        <ele>185</ele>
        <time>2018-09-11T10:22:48Z</time>
      </trkpt>
      <trkpt lat="45.95682" lon="4.75942">
        <ele>185</ele>
        <time>2018-09-11T10:22:49Z</time>
      </trkpt>
      <trkpt lat="45.95679" lon="4.7593">
        <ele>185</ele>
        <time>2018-09-11T10:22:51Z</time>
      </trkpt>
      <trkpt lat="45.95677" lon="4.75922">
        <ele>184</ele>
        <time>2018-09-11T10:22:52Z</time>
      </trkpt>
      <trkpt lat="45.95674" lon="4.75914">
        <ele>185</ele>
        <time>2018-09-11T10:22:53Z</time>
      </trkpt>
      <trkpt lat="45.95671" lon="4.75907">
        <ele>185</ele>
        <time>2018-09-11T10:22:54Z</time>
      </trkpt>
      <trkpt lat="45.95668" lon="4.75901">
        <ele>185</ele>
        <time>2018-09-11T10:22:55Z</time>
      </trkpt>
      <trkpt lat="45.95666" lon="4.75894">
        <ele>184</ele>
        <time>2018-09-11T10:22:56Z</time>
      </trkpt>
      <trkpt lat="45.95664" lon="4.75887">
        <ele>184</ele>
        <time>2018-09-11T10:22:57Z</time>
      </trkpt>
      <trkpt lat="45.95661" lon="4.7588">
        <ele>184</ele>
        <time>2018-09-11T10:22:58Z</time>
      </trkpt>
      <trkpt lat="45.95658" lon="4.75872">
        <ele>184</ele>
        <time>2018-09-11T10:22:59Z</time>
      </trkpt>
      <trkpt lat="45.95656" lon="4.75864">
        <ele>184</ele>
        <time>2018-09-11T10:23:00Z</time>
      </trkpt>
      <trkpt lat="45.95655" lon="4.75857">
        <ele>184</ele>
        <time>2018-09-11T10:23:01Z</time>
      </trkpt>
      <trkpt lat="45.95653" lon="4.75851">
        <ele>184</ele>
        <time>2018-09-11T10:23:02Z</time>
      </trkpt>
      <trkpt lat="45.95651" lon="4.75843">
        <ele>185</ele>
        <time>2018-09-11T10:23:03Z</time>
      </trkpt>
      <trkpt lat="45.9565" lon="4.75836">
        <ele>185</ele>
        <time>2018-09-11T10:23:04Z</time>
      </trkpt>
      <trkpt lat="45.95647" lon="4.75829">
        <ele>185</ele>
        <time>2018-09-11T10:23:05Z</time>
      </trkpt>
      <trkpt lat="45.95645" lon="4.75822">
        <ele>185</ele>
        <time>2018-09-11T10:23:06Z</time>
      </trkpt>
      <trkpt lat="45.95644" lon="4.75814">
        <ele>185</ele>
        <time>2018-09-11T10:23:07Z</time>
      </trkpt>
      <trkpt lat="45.95642" lon="4.75806">
        <ele>185</ele>
        <time>2018-09-11T10:23:08Z</time>
      </trkpt>
      <trkpt lat="45.95643" lon="4.75799">
        <ele>185</ele>
        <time>2018-09-11T10:23:09Z</time>
      </trkpt>
      <trkpt lat="45.95642" lon="4.75792">
        <ele>185</ele>
        <time>2018-09-11T10:23:10Z</time>
      </trkpt>
      <trkpt lat="45.95641" lon="4.75784">
        <ele>185</ele>
        <time>2018-09-11T10:23:11Z</time>
      </trkpt>
      <trkpt lat="45.9564" lon="4.75775">
        <ele>186</ele>
        <time>2018-09-11T10:23:12Z</time>
      </trkpt>
      <trkpt lat="45.95639" lon="4.75766">
        <ele>186</ele>
        <time>2018-09-11T10:23:13Z</time>
      </trkpt>
      <trkpt lat="45.9564" lon="4.7576">
        <ele>186</ele>
        <time>2018-09-11T10:23:14Z</time>
      </trkpt>
      <trkpt lat="45.9564" lon="4.75754">
        <ele>186</ele>
        <time>2018-09-11T10:23:15Z</time>
      </trkpt>
      <trkpt lat="45.95641" lon="4.75747">
        <ele>187</ele>
        <time>2018-09-11T10:23:16Z</time>
      </trkpt>
      <trkpt lat="45.9564" lon="4.75739">
        <ele>187</ele>
        <time>2018-09-11T10:23:17Z</time>
      </trkpt>
      <trkpt lat="45.95639" lon="4.75731">
        <ele>187</ele>
        <time>2018-09-11T10:23:18Z</time>
      </trkpt>
      <trkpt lat="45.95638" lon="4.75722">
        <ele>187</ele>
        <time>2018-09-11T10:23:19Z</time>
      </trkpt>
      <trkpt lat="45.95636" lon="4.75714">
        <ele>187</ele>
        <time>2018-09-11T10:23:20Z</time>
      </trkpt>
      <trkpt lat="45.95635" lon="4.75707">
        <ele>187</ele>
        <time>2018-09-11T10:23:21Z</time>
      </trkpt>
      <trkpt lat="45.95634" lon="4.757">
        <ele>187</ele>
        <time>2018-09-11T10:23:22Z</time>
      </trkpt>
      <trkpt lat="45.95633" lon="4.75692">
        <ele>187</ele>
        <time>2018-09-11T10:23:23Z</time>
      </trkpt>
      <trkpt lat="45.95632" lon="4.75685">
        <ele>187</ele>
        <time>2018-09-11T10:23:24Z</time>
      </trkpt>
      <trkpt lat="45.95628" lon="4.75678">
        <ele>187</ele>
        <time>2018-09-11T10:23:25Z</time>
      </trkpt>
      <trkpt lat="45.95627" lon="4.75672">
        <ele>187</ele>
        <time>2018-09-11T10:23:26Z</time>
      </trkpt>
      <trkpt lat="45.95624" lon="4.7566">
        <ele>188</ele>
        <time>2018-09-11T10:23:28Z</time>
      </trkpt>
      <trkpt lat="45.95622" lon="4.75654">
        <ele>188</ele>
        <time>2018-09-11T10:23:29Z</time>
      </trkpt>
      <trkpt lat="45.9562" lon="4.75646">
        <ele>188</ele>
        <time>2018-09-11T10:23:30Z</time>
      </trkpt>
      <trkpt lat="45.95618" lon="4.7564">
        <ele>188</ele>
        <time>2018-09-11T10:23:31Z</time>
      </trkpt>
      <trkpt lat="45.95616" lon="4.75633">
        <ele>188</ele>
        <time>2018-09-11T10:23:32Z</time>
      </trkpt>
      <trkpt lat="45.95614" lon="4.75627">
        <ele>188</ele>
        <time>2018-09-11T10:23:33Z</time>
      </trkpt>
      <trkpt lat="45.95612" lon="4.75621">
        <ele>188</ele>
        <time>2018-09-11T10:23:34Z</time>
      </trkpt>
      <trkpt lat="45.9561" lon="4.75615">
        <ele>188</ele>
        <time>2018-09-11T10:23:35Z</time>
      </trkpt>
      <trkpt lat="45.95607" lon="4.75608">
        <ele>188</ele>
        <time>2018-09-11T10:23:36Z</time>
      </trkpt>
      <trkpt lat="45.95605" lon="4.75602">
        <ele>187</ele>
        <time>2018-09-11T10:23:37Z</time>
      </trkpt>
      <trkpt lat="45.95602" lon="4.75596">
        <ele>187</ele>
        <time>2018-09-11T10:23:38Z</time>
      </trkpt>
      <trkpt lat="45.956" lon="4.75588">
        <ele>187</ele>
        <time>2018-09-11T10:23:39Z</time>
      </trkpt>
      <trkpt lat="45.95596" lon="4.75576">
        <ele>188</ele>
        <time>2018-09-11T10:23:41Z</time>
      </trkpt>
      <trkpt lat="45.95593" lon="4.7557">
        <ele>188</ele>
        <time>2018-09-11T10:23:42Z</time>
      </trkpt>
      <trkpt lat="45.95587" lon="4.7556">
        <ele>188</ele>
        <time>2018-09-11T10:23:44Z</time>
      </trkpt>
      <trkpt lat="45.95584" lon="4.75555">
        <ele>188</ele>
        <time>2018-09-11T10:23:45Z</time>
      </trkpt>
      <trkpt lat="45.95581" lon="4.75549">
        <ele>186</ele>
        <time>2018-09-11T10:23:46Z</time>
      </trkpt>
      <trkpt lat="45.95579" lon="4.75544">
        <ele>186</ele>
        <time>2018-09-11T10:23:47Z</time>
      </trkpt>
      <trkpt lat="45.95574" lon="4.75539">
        <ele>186</ele>
        <time>2018-09-11T10:23:48Z</time>
      </trkpt>
      <trkpt lat="45.9557" lon="4.75533">
        <ele>186</ele>
        <time>2018-09-11T10:23:49Z</time>
      </trkpt>
      <trkpt lat="45.95566" lon="4.75528">
        <ele>186</ele>
        <time>2018-09-11T10:23:50Z</time>
      </trkpt>
      <trkpt lat="45.95562" lon="4.75523">
        <ele>186</ele>
        <time>2018-09-11T10:23:51Z</time>
      </trkpt>
      <trkpt lat="45.95557" lon="4.75518">
        <ele>186</ele>
        <time>2018-09-11T10:23:52Z</time>
      </trkpt>
      <trkpt lat="45.95554" lon="4.75512">
        <ele>186</ele>
        <time>2018-09-11T10:23:53Z</time>
      </trkpt>
      <trkpt lat="45.9555" lon="4.75508">
        <ele>186</ele>
        <time>2018-09-11T10:23:54Z</time>
      </trkpt>
      <trkpt lat="45.95545" lon="4.75503">
        <ele>186</ele>
        <time>2018-09-11T10:23:55Z</time>
      </trkpt>
      <trkpt lat="45.95542" lon="4.75495">
        <ele>187</ele>
        <time>2018-09-11T10:23:56Z</time>
      </trkpt>
      <trkpt lat="45.95541" lon="4.75488">
        <ele>187</ele>
        <time>2018-09-11T10:23:57Z</time>
      </trkpt>
      <trkpt lat="45.95542" lon="4.75481">
        <ele>187</ele>
        <time>2018-09-11T10:23:58Z</time>
      </trkpt>
      <trkpt lat="45.95542" lon="4.75474">
        <ele>187</ele>
        <time>2018-09-11T10:23:59Z</time>
      </trkpt>
      <trkpt lat="45.9554" lon="4.75465">
        <ele>187</ele>
        <time>2018-09-11T10:24:00Z</time>
      </trkpt>
      <trkpt lat="45.95539" lon="4.7546">
        <ele>187</ele>
        <time>2018-09-11T10:24:01Z</time>
      </trkpt>
      <trkpt lat="45.95537" lon="4.75453">
        <ele>187</ele>
        <time>2018-09-11T10:24:02Z</time>
      </trkpt>
      <trkpt lat="45.95531" lon="4.75447">
        <ele>187</ele>
        <time>2018-09-11T10:24:03Z</time>
      </trkpt>
      <trkpt lat="45.95527" lon="4.75441">
        <ele>187</ele>
        <time>2018-09-11T10:24:04Z</time>
      </trkpt>
      <trkpt lat="45.95524" lon="4.75437">
        <ele>187</ele>
        <time>2018-09-11T10:24:05Z</time>
      </trkpt>
      <trkpt lat="45.95521" lon="4.75431">
        <ele>187</ele>
        <time>2018-09-11T10:24:06Z</time>
      </trkpt>
      <trkpt lat="45.95518" lon="4.75425">
        <ele>187</ele>
        <time>2018-09-11T10:24:07Z</time>
      </trkpt>
      <trkpt lat="45.95515" lon="4.75414">
        <ele>187</ele>
        <time>2018-09-11T10:24:09Z</time>
      </trkpt>
      <trkpt lat="45.95511" lon="4.75406">
        <ele>187</ele>
        <time>2018-09-11T10:24:10Z</time>
      </trkpt>
      <trkpt lat="45.95509" lon="4.754">
        <ele>187</ele>
        <time>2018-09-11T10:24:11Z</time>
      </trkpt>
      <trkpt lat="45.95506" lon="4.75394">
        <ele>188</ele>
        <time>2018-09-11T10:24:12Z</time>
      </trkpt>
      <trkpt lat="45.95502" lon="4.75388">
        <ele>188</ele>
        <time>2018-09-11T10:24:13Z</time>
      </trkpt>
      <trkpt lat="45.955" lon="4.75382">
        <ele>188</ele>
        <time>2018-09-11T10:24:14Z</time>
      </trkpt>
      <trkpt lat="45.95498" lon="4.75376">
        <ele>185</ele>
        <time>2018-09-11T10:24:15Z</time>
      </trkpt>
      <trkpt lat="45.95495" lon="4.75371">
        <ele>186</ele>
        <time>2018-09-11T10:24:16Z</time>
      </trkpt>
      <trkpt lat="45.95492" lon="4.75365">
        <ele>186</ele>
        <time>2018-09-11T10:24:17Z</time>
      </trkpt>
      <trkpt lat="45.9549" lon="4.75357">
        <ele>186</ele>
        <time>2018-09-11T10:24:18Z</time>
      </trkpt>
      <trkpt lat="45.95485" lon="4.75351">
        <ele>186</ele>
        <time>2018-09-11T10:24:19Z</time>
      </trkpt>
      <trkpt lat="45.95481" lon="4.75345">
        <ele>186</ele>
        <time>2018-09-11T10:24:20Z</time>
      </trkpt>
      <trkpt lat="45.95477" lon="4.75339">
        <ele>186</ele>
        <time>2018-09-11T10:24:21Z</time>
      </trkpt>
      <trkpt lat="45.95475" lon="4.75334">
        <ele>186</ele>
        <time>2018-09-11T10:24:22Z</time>
      </trkpt>
      <trkpt lat="45.9547" lon="4.75324">
        <ele>188</ele>
        <time>2018-09-11T10:24:24Z</time>
      </trkpt>
      <trkpt lat="45.95467" lon="4.75318">
        <ele>188</ele>
        <time>2018-09-11T10:24:25Z</time>
      </trkpt>
      <trkpt lat="45.95464" lon="4.75312">
        <ele>188</ele>
        <time>2018-09-11T10:24:26Z</time>
      </trkpt>
      <trkpt lat="45.95461" lon="4.75306">
        <ele>188</ele>
        <time>2018-09-11T10:24:27Z</time>
      </trkpt>
      <trkpt lat="45.95459" lon="4.75301">
        <ele>188</ele>
        <time>2018-09-11T10:24:28Z</time>
      </trkpt>
      <trkpt lat="45.95455" lon="4.75296">
        <ele>188</ele>
        <time>2018-09-11T10:24:29Z</time>
      </trkpt>
      <trkpt lat="45.95456" lon="4.75288">
        <ele>189</ele>
        <time>2018-09-11T10:24:30Z</time>
      </trkpt>
      <trkpt lat="45.95453" lon="4.75283">
        <ele>189</ele>
        <time>2018-09-11T10:24:31Z</time>
      </trkpt>
      <trkpt lat="45.95451" lon="4.75278">
        <ele>189</ele>
        <time>2018-09-11T10:24:32Z</time>
      </trkpt>
      <trkpt lat="45.95446" lon="4.75275">
        <ele>189</ele>
        <time>2018-09-11T10:24:33Z</time>
      </trkpt>
      <trkpt lat="45.95442" lon="4.7527">
        <ele>189</ele>
        <time>2018-09-11T10:24:34Z</time>
      </trkpt>
      <trkpt lat="45.95439" lon="4.75264">
        <ele>189</ele>
        <time>2018-09-11T10:24:35Z</time>
      </trkpt>
      <trkpt lat="45.95435" lon="4.75259">
        <ele>189</ele>
        <time>2018-09-11T10:24:36Z</time>
      </trkpt>
      <trkpt lat="45.95432" lon="4.75253">
        <ele>189</ele>
        <time>2018-09-11T10:24:37Z</time>
      </trkpt>
      <trkpt lat="45.95428" lon="4.75244">
        <ele>190</ele>
        <time>2018-09-11T10:24:39Z</time>
      </trkpt>
      <trkpt lat="45.95425" lon="4.75239">
        <ele>190</ele>
        <time>2018-09-11T10:24:40Z</time>
      </trkpt>
      <trkpt lat="45.95423" lon="4.75234">
        <ele>190</ele>
        <time>2018-09-11T10:24:41Z</time>
      </trkpt>
      <trkpt lat="45.95417" lon="4.75227">
        <ele>191</ele>
        <time>2018-09-11T10:24:42Z</time>
      </trkpt>
      <trkpt lat="45.95415" lon="4.75221">
        <ele>189</ele>
        <time>2018-09-11T10:24:43Z</time>
      </trkpt>
      <trkpt lat="45.95412" lon="4.75215">
        <ele>189</ele>
        <time>2018-09-11T10:24:44Z</time>
      </trkpt>
      <trkpt lat="45.95409" lon="4.7521">
        <ele>189</ele>
        <time>2018-09-11T10:24:45Z</time>
      </trkpt>
      <trkpt lat="45.95405" lon="4.75205">
        <ele>189</ele>
        <time>2018-09-11T10:24:46Z</time>
      </trkpt>
      <trkpt lat="45.95401" lon="4.75194">
        <ele>189</ele>
        <time>2018-09-11T10:24:48Z</time>
      </trkpt>
      <trkpt lat="45.95399" lon="4.75188">
        <ele>189</ele>
        <time>2018-09-11T10:24:49Z</time>
      </trkpt>
      <trkpt lat="45.95394" lon="4.75179">
        <ele>189</ele>
        <time>2018-09-11T10:24:51Z</time>
      </trkpt>
      <trkpt lat="45.9539" lon="4.75174">
        <ele>189</ele>
        <time>2018-09-11T10:24:52Z</time>
      </trkpt>
      <trkpt lat="45.95388" lon="4.7517">
        <ele>189</ele>
        <time>2018-09-11T10:24:53Z</time>
      </trkpt>
      <trkpt lat="45.95384" lon="4.75164">
        <ele>191</ele>
        <time>2018-09-11T10:24:54Z</time>
      </trkpt>
      <trkpt lat="45.95381" lon="4.75158">
        <ele>191</ele>
        <time>2018-09-11T10:24:55Z</time>
      </trkpt>
      <trkpt lat="45.95379" lon="4.75153">
        <ele>191</ele>
        <time>2018-09-11T10:24:56Z</time>
      </trkpt>
      <trkpt lat="45.95376" lon="4.75147">
        <ele>191</ele>
        <time>2018-09-11T10:24:57Z</time>
      </trkpt>
      <trkpt lat="45.95373" lon="4.75141">
        <ele>191</ele>
        <time>2018-09-11T10:24:58Z</time>
      </trkpt>
      <trkpt lat="45.95371" lon="4.75136">
        <ele>191</ele>
        <time>2018-09-11T10:24:59Z</time>
      </trkpt>
      <trkpt lat="45.95366" lon="4.75129">
        <ele>191</ele>
        <time>2018-09-11T10:25:00Z</time>
      </trkpt>
      <trkpt lat="45.9536" lon="4.75124">
        <ele>191</ele>
        <time>2018-09-11T10:25:01Z</time>
      </trkpt>
      <trkpt lat="45.95357" lon="4.75119">
        <ele>191</ele>
        <time>2018-09-11T10:25:02Z</time>
      </trkpt>
      <trkpt lat="45.95353" lon="4.75114">
        <ele>192</ele>
        <time>2018-09-11T10:25:03Z</time>
      </trkpt>
      <trkpt lat="45.9535" lon="4.75109">
        <ele>192</ele>
        <time>2018-09-11T10:25:04Z</time>
      </trkpt>
      <trkpt lat="45.95346" lon="4.75103">
        <ele>192</ele>
        <time>2018-09-11T10:25:05Z</time>
      </trkpt>
      <trkpt lat="45.95343" lon="4.75098">
        <ele>192</ele>
        <time>2018-09-11T10:25:06Z</time>
      </trkpt>
      <trkpt lat="45.95338" lon="4.75093">
        <ele>192</ele>
        <time>2018-09-11T10:25:07Z</time>
      </trkpt>
      <trkpt lat="45.95335" lon="4.75089">
        <ele>193</ele>
        <time>2018-09-11T10:25:08Z</time>
      </trkpt>
      <trkpt lat="45.9533" lon="4.75083">
        <ele>193</ele>
        <time>2018-09-11T10:25:09Z</time>
      </trkpt>
      <trkpt lat="45.95326" lon="4.75077">
        <ele>192</ele>
        <time>2018-09-11T10:25:10Z</time>
      </trkpt>
      <trkpt lat="45.95324" lon="4.7507">
        <ele>192</ele>
        <time>2018-09-11T10:25:11Z</time>
      </trkpt>
      <trkpt lat="45.95321" lon="4.75064">
        <ele>192</ele>
        <time>2018-09-11T10:25:12Z</time>
      </trkpt>
      <trkpt lat="45.95318" lon="4.75057">
        <ele>192</ele>
        <time>2018-09-11T10:25:13Z</time>
      </trkpt>
      <trkpt lat="45.95313" lon="4.7505">
        <ele>192</ele>
        <time>2018-09-11T10:25:14Z</time>
      </trkpt>
      <trkpt lat="45.95309" lon="4.75045">
        <ele>192</ele>
        <time>2018-09-11T10:25:15Z</time>
      </trkpt>
      <trkpt lat="45.95304" lon="4.75039">
        <ele>192</ele>
        <time>2018-09-11T10:25:16Z</time>
      </trkpt>
      <trkpt lat="45.95301" lon="4.75032">
        <ele>192</ele>
        <time>2018-09-11T10:25:17Z</time>
      </trkpt>
      <trkpt lat="45.95298" lon="4.75025">
        <ele>192</ele>
        <time>2018-09-11T10:25:18Z</time>
      </trkpt>
      <trkpt lat="45.95294" lon="4.75019">
        <ele>191</ele>
        <time>2018-09-11T10:25:19Z</time>
      </trkpt>
      <trkpt lat="45.95292" lon="4.75014">
        <ele>191</ele>
        <time>2018-09-11T10:25:20Z</time>
      </trkpt>
      <trkpt lat="45.95288" lon="4.75009">
        <ele>191</ele>
        <time>2018-09-11T10:25:21Z</time>
      </trkpt>
      <trkpt lat="45.95285" lon="4.75004">
        <ele>191</ele>
        <time>2018-09-11T10:25:22Z</time>
      </trkpt>
      <trkpt lat="45.95282" lon="4.75">
        <ele>192</ele>
        <time>2018-09-11T10:25:23Z</time>
      </trkpt>
      <trkpt lat="45.95279" lon="4.74994">
        <ele>192</ele>
        <time>2018-09-11T10:25:24Z</time>
      </trkpt>
      <trkpt lat="45.95274" lon="4.74987">
        <ele>192</ele>
        <time>2018-09-11T10:25:25Z</time>
      </trkpt>
      <trkpt lat="45.95271" lon="4.74981">
        <ele>192</ele>
        <time>2018-09-11T10:25:26Z</time>
      </trkpt>
      <trkpt lat="45.95267" lon="4.74975">
        <ele>192</ele>
        <time>2018-09-11T10:25:27Z</time>
      </trkpt>
      <trkpt lat="45.95263" lon="4.74969">
        <ele>192</ele>
        <time>2018-09-11T10:25:28Z</time>
      </trkpt>
      <trkpt lat="45.95259" lon="4.74964">
        <ele>192</ele>
        <time>2018-09-11T10:25:29Z</time>
      </trkpt>
      <trkpt lat="45.95255" lon="4.74958">
        <ele>192</ele>
        <time>2018-09-11T10:25:30Z</time>
      </trkpt>
      <trkpt lat="45.95251" lon="4.74953">
        <ele>192</ele>
        <time>2018-09-11T10:25:31Z</time>
      </trkpt>
      <trkpt lat="45.95248" lon="4.74947">
        <ele>192</ele>
        <time>2018-09-11T10:25:32Z</time>
      </trkpt>
      <trkpt lat="45.95243" lon="4.7494">
        <ele>192</ele>
        <time>2018-09-11T10:25:33Z</time>
      </trkpt>
      <trkpt lat="45.95241" lon="4.74932">
        <ele>192</ele>
        <time>2018-09-11T10:25:34Z</time>
      </trkpt>
      <trkpt lat="45.95237" lon="4.74926">
        <ele>192</ele>
        <time>2018-09-11T10:25:35Z</time>
      </trkpt>
      <trkpt lat="45.95232" lon="4.74919">
        <ele>192</ele>
        <time>2018-09-11T10:25:36Z</time>
      </trkpt>
      <trkpt lat="45.95228" lon="4.74912">
        <ele>193</ele>
        <time>2018-09-11T10:25:37Z</time>
      </trkpt>
      <trkpt lat="45.95224" lon="4.74905">
        <ele>193</ele>
        <time>2018-09-11T10:25:38Z</time>
      </trkpt>
      <trkpt lat="45.9522" lon="4.74901">
        <ele>193</ele>
        <time>2018-09-11T10:25:39Z</time>
      </trkpt>
      <trkpt lat="45.95215" lon="4.74894">
        <ele>193</ele>
        <time>2018-09-11T10:25:40Z</time>
      </trkpt>
      <trkpt lat="45.95211" lon="4.74887">
        <ele>193</ele>
        <time>2018-09-11T10:25:41Z</time>
      </trkpt>
      <trkpt lat="45.95206" lon="4.74881">
        <ele>194</ele>
        <time>2018-09-11T10:25:42Z</time>
      </trkpt>
      <trkpt lat="45.95202" lon="4.74874">
        <ele>194</ele>
        <time>2018-09-11T10:25:43Z</time>
      </trkpt>
      <trkpt lat="45.95198" lon="4.74867">
        <ele>194</ele>
        <time>2018-09-11T10:25:44Z</time>
      </trkpt>
      <trkpt lat="45.95194" lon="4.74861">
        <ele>194</ele>
        <time>2018-09-11T10:25:45Z</time>
      </trkpt>
      <trkpt lat="45.95189" lon="4.74853">
        <ele>194</ele>
        <time>2018-09-11T10:25:46Z</time>
      </trkpt>
      <trkpt lat="45.95187" lon="4.74847">
        <ele>194</ele>
        <time>2018-09-11T10:25:47Z</time>
      </trkpt>
      <trkpt lat="45.95181" lon="4.7484">
        <ele>194</ele>
        <time>2018-09-11T10:25:48Z</time>
      </trkpt>
      <trkpt lat="45.95178" lon="4.74833">
        <ele>194</ele>
        <time>2018-09-11T10:25:49Z</time>
      </trkpt>
      <trkpt lat="45.95174" lon="4.74827">
        <ele>194</ele>
        <time>2018-09-11T10:25:50Z</time>
      </trkpt>
      <trkpt lat="45.9517" lon="4.74822">
        <ele>194</ele>
        <time>2018-09-11T10:25:51Z</time>
      </trkpt>
      <trkpt lat="45.95167" lon="4.74816">
        <ele>194</ele>
        <time>2018-09-11T10:25:52Z</time>
      </trkpt>
      <trkpt lat="45.95163" lon="4.74809">
        <ele>194</ele>
        <time>2018-09-11T10:25:53Z</time>
      </trkpt>
      <trkpt lat="45.95158" lon="4.74803">
        <ele>194</ele>
        <time>2018-09-11T10:25:54Z</time>
      </trkpt>
      <trkpt lat="45.95154" lon="4.74797">
        <ele>194</ele>
        <time>2018-09-11T10:25:55Z</time>
      </trkpt>
      <trkpt lat="45.95151" lon="4.74789">
        <ele>194</ele>
        <time>2018-09-11T10:25:56Z</time>
      </trkpt>
      <trkpt lat="45.95147" lon="4.74782">
        <ele>194</ele>
        <time>2018-09-11T10:25:57Z</time>
      </trkpt>
      <trkpt lat="45.95144" lon="4.74775">
        <ele>194</ele>
        <time>2018-09-11T10:25:58Z</time>
      </trkpt>
      <trkpt lat="45.9514" lon="4.74768">
        <ele>194</ele>
        <time>2018-09-11T10:25:59Z</time>
      </trkpt>
      <trkpt lat="45.95136" lon="4.74762">
        <ele>194</ele>
        <time>2018-09-11T10:26:00Z</time>
      </trkpt>
      <trkpt lat="45.95132" lon="4.74756">
        <ele>194</ele>
        <time>2018-09-11T10:26:01Z</time>
      </trkpt>
      <trkpt lat="45.95127" lon="4.74752">
        <ele>194</ele>
        <time>2018-09-11T10:26:02Z</time>
      </trkpt>
      <trkpt lat="45.95124" lon="4.74746">
        <ele>194</ele>
        <time>2018-09-11T10:26:03Z</time>
      </trkpt>
      <trkpt lat="45.9512" lon="4.74739">
        <ele>194</ele>
        <time>2018-09-11T10:26:04Z</time>
      </trkpt>
      <trkpt lat="45.95117" lon="4.74732">
        <ele>194</ele>
        <time>2018-09-11T10:26:05Z</time>
      </trkpt>
      <trkpt lat="45.95113" lon="4.74725">
        <ele>194</ele>
        <time>2018-09-11T10:26:06Z</time>
      </trkpt>
      <trkpt lat="45.95109" lon="4.74718">
        <ele>194</ele>
        <time>2018-09-11T10:26:07Z</time>
      </trkpt>
      <trkpt lat="45.95105" lon="4.74711">
        <ele>194</ele>
        <time>2018-09-11T10:26:08Z</time>
      </trkpt>
      <trkpt lat="45.951" lon="4.74705">
        <ele>194</ele>
        <time>2018-09-11T10:26:09Z</time>
      </trkpt>
      <trkpt lat="45.95096" lon="4.74699">
        <ele>194</ele>
        <time>2018-09-11T10:26:10Z</time>
      </trkpt>
      <trkpt lat="45.95092" lon="4.74693">
        <ele>194</ele>
        <time>2018-09-11T10:26:11Z</time>
      </trkpt>
      <trkpt lat="45.9509" lon="4.74686">
        <ele>195</ele>
        <time>2018-09-11T10:26:12Z</time>
      </trkpt>
      <trkpt lat="45.95088" lon="4.7468">
        <ele>195</ele>
        <time>2018-09-11T10:26:13Z</time>
      </trkpt>
      <trkpt lat="45.95085" lon="4.74672">
        <ele>195</ele>
        <time>2018-09-11T10:26:14Z</time>
      </trkpt>
      <trkpt lat="45.95082" lon="4.74665">
        <ele>195</ele>
        <time>2018-09-11T10:26:15Z</time>
      </trkpt>
      <trkpt lat="45.95078" lon="4.74658">
        <ele>195</ele>
        <time>2018-09-11T10:26:16Z</time>
      </trkpt>
      <trkpt lat="45.95073" lon="4.7465">
        <ele>195</ele>
        <time>2018-09-11T10:26:17Z</time>
      </trkpt>
      <trkpt lat="45.95068" lon="4.74644">
        <ele>195</ele>
        <time>2018-09-11T10:26:18Z</time>
      </trkpt>
      <trkpt lat="45.95065" lon="4.74636">
        <ele>195</ele>
        <time>2018-09-11T10:26:19Z</time>
      </trkpt>
      <trkpt lat="45.95061" lon="4.74629">
        <ele>195</ele>
        <time>2018-09-11T10:26:20Z</time>
      </trkpt>
      <trkpt lat="45.95057" lon="4.74622">
        <ele>194</ele>
        <time>2018-09-11T10:26:21Z</time>
      </trkpt>
      <trkpt lat="45.95053" lon="4.74615">
        <ele>194</ele>
        <time>2018-09-11T10:26:22Z</time>
      </trkpt>
      <trkpt lat="45.9505" lon="4.74607">
        <ele>194</ele>
        <time>2018-09-11T10:26:23Z</time>
      </trkpt>
      <trkpt lat="45.95046" lon="4.74601">
        <ele>194</ele>
        <time>2018-09-11T10:26:24Z</time>
      </trkpt>
      <trkpt lat="45.95043" lon="4.74594">
        <ele>194</ele>
        <time>2018-09-11T10:26:25Z</time>
      </trkpt>
      <trkpt lat="45.95038" lon="4.74588">
        <ele>194</ele>
        <time>2018-09-11T10:26:26Z</time>
      </trkpt>
      <trkpt lat="45.95035" lon="4.74582">
        <ele>194</ele>
        <time>2018-09-11T10:26:27Z</time>
      </trkpt>
      <trkpt lat="45.95031" lon="4.74575">
        <ele>194</ele>
        <time>2018-09-11T10:26:28Z</time>
      </trkpt>
      <trkpt lat="45.95027" lon="4.74569">
        <ele>194</ele>
        <time>2018-09-11T10:26:29Z</time>
      </trkpt>
      <trkpt lat="45.95023" lon="4.74561">
        <ele>194</ele>
        <time>2018-09-11T10:26:30Z</time>
      </trkpt>
      <trkpt lat="45.95018" lon="4.74554">
        <ele>194</ele>
        <time>2018-09-11T10:26:31Z</time>
      </trkpt>
      <trkpt lat="45.95014" lon="4.74549">
        <ele>194</ele>
        <time>2018-09-11T10:26:32Z</time>
      </trkpt>
      <trkpt lat="45.9501" lon="4.74543">
        <ele>194</ele>
        <time>2018-09-11T10:26:33Z</time>
      </trkpt>
      <trkpt lat="45.95007" lon="4.74536">
        <ele>194</ele>
        <time>2018-09-11T10:26:34Z</time>
      </trkpt>
      <trkpt lat="45.95004" lon="4.74527">
        <ele>194</ele>
        <time>2018-09-11T10:26:35Z</time>
      </trkpt>
      <trkpt lat="45.95" lon="4.7452">
        <ele>194</ele>
        <time>2018-09-11T10:26:36Z</time>
      </trkpt>
      <trkpt lat="45.94997" lon="4.74513">
        <ele>193</ele>
        <time>2018-09-11T10:26:37Z</time>
      </trkpt>
      <trkpt lat="45.94993" lon="4.74505">
        <ele>193</ele>
        <time>2018-09-11T10:26:38Z</time>
      </trkpt>
      <trkpt lat="45.94989" lon="4.74499">
        <ele>193</ele>
        <time>2018-09-11T10:26:39Z</time>
      </trkpt>
      <trkpt lat="45.94985" lon="4.74492">
        <ele>193</ele>
        <time>2018-09-11T10:26:40Z</time>
      </trkpt>
      <trkpt lat="45.94982" lon="4.74485">
        <ele>193</ele>
        <time>2018-09-11T10:26:41Z</time>
      </trkpt>
      <trkpt lat="45.94977" lon="4.74476">
        <ele>193</ele>
        <time>2018-09-11T10:26:42Z</time>
      </trkpt>
      <trkpt lat="45.94974" lon="4.74469">
        <ele>193</ele>
        <time>2018-09-11T10:26:43Z</time>
      </trkpt>
      <trkpt lat="45.94968" lon="4.74459">
        <ele>193</ele>
        <time>2018-09-11T10:26:44Z</time>
      </trkpt>
      <trkpt lat="45.94964" lon="4.74451">
        <ele>192</ele>
        <time>2018-09-11T10:26:45Z</time>
      </trkpt>
      <trkpt lat="45.94959" lon="4.74443">
        <ele>192</ele>
        <time>2018-09-11T10:26:46Z</time>
      </trkpt>
      <trkpt lat="45.94955" lon="4.74435">
        <ele>192</ele>
        <time>2018-09-11T10:26:47Z</time>
      </trkpt>
      <trkpt lat="45.9495" lon="4.74426">
        <ele>192</ele>
        <time>2018-09-11T10:26:48Z</time>
      </trkpt>
      <trkpt lat="45.94946" lon="4.74415">
        <ele>192</ele>
        <time>2018-09-11T10:26:49Z</time>
      </trkpt>
      <trkpt lat="45.94942" lon="4.74407">
        <ele>192</ele>
        <time>2018-09-11T10:26:50Z</time>
      </trkpt>
      <trkpt lat="45.94937" lon="4.74397">
        <ele>192</ele>
        <time>2018-09-11T10:26:51Z</time>
      </trkpt>
      <trkpt lat="45.94933" lon="4.74388">
        <ele>192</ele>
        <time>2018-09-11T10:26:52Z</time>
      </trkpt>
      <trkpt lat="45.94924" lon="4.74379">
        <ele>192</ele>
        <time>2018-09-11T10:26:53Z</time>
      </trkpt>
      <trkpt lat="45.94918" lon="4.74371">
        <ele>192</ele>
        <time>2018-09-11T10:26:54Z</time>
      </trkpt>
      <trkpt lat="45.94914" lon="4.74363">
        <ele>191</ele>
        <time>2018-09-11T10:26:55Z</time>
      </trkpt>
      <trkpt lat="45.94909" lon="4.74354">
        <ele>191</ele>
        <time>2018-09-11T10:26:56Z</time>
      </trkpt>
      <trkpt lat="45.94905" lon="4.74345">
        <ele>191</ele>
        <time>2018-09-11T10:26:57Z</time>
      </trkpt>
      <trkpt lat="45.94901" lon="4.74337">
        <ele>191</ele>
        <time>2018-09-11T10:26:58Z</time>
      </trkpt>
      <trkpt lat="45.94897" lon="4.74329">
        <ele>191</ele>
        <time>2018-09-11T10:26:59Z</time>
      </trkpt>
      <trkpt lat="45.94893" lon="4.74322">
        <ele>191</ele>
        <time>2018-09-11T10:27:00Z</time>
      </trkpt>
      <trkpt lat="45.9489" lon="4.74314">
        <ele>191</ele>
        <time>2018-09-11T10:27:01Z</time>
      </trkpt>
      <trkpt lat="45.94885" lon="4.74307">
        <ele>191</ele>
        <time>2018-09-11T10:27:02Z</time>
      </trkpt>
      <trkpt lat="45.94881" lon="4.74299">
        <ele>191</ele>
        <time>2018-09-11T10:27:03Z</time>
      </trkpt>
      <trkpt lat="45.94877" lon="4.74292">
        <ele>191</ele>
        <time>2018-09-11T10:27:04Z</time>
      </trkpt>
      <trkpt lat="45.94872" lon="4.74285">
        <ele>191</ele>
        <time>2018-09-11T10:27:05Z</time>
      </trkpt>
      <trkpt lat="45.94867" lon="4.74279">
        <ele>191</ele>
        <time>2018-09-11T10:27:06Z</time>
      </trkpt>
      <trkpt lat="45.94864" lon="4.74271">
        <ele>190</ele>
        <time>2018-09-11T10:27:07Z</time>
      </trkpt>
      <trkpt lat="45.9486" lon="4.74264">
        <ele>190</ele>
        <time>2018-09-11T10:27:08Z</time>
      </trkpt>
      <trkpt lat="45.94857" lon="4.74256">
        <ele>190</ele>
        <time>2018-09-11T10:27:09Z</time>
      </trkpt>
      <trkpt lat="45.94853" lon="4.74249">
        <ele>190</ele>
        <time>2018-09-11T10:27:10Z</time>
      </trkpt>
      <trkpt lat="45.94849" lon="4.74243">
        <ele>190</ele>
        <time>2018-09-11T10:27:11Z</time>
      </trkpt>
      <trkpt lat="45.94844" lon="4.74236">
        <ele>190</ele>
        <time>2018-09-11T10:27:12Z</time>
      </trkpt>
      <trkpt lat="45.9484" lon="4.74229">
        <ele>190</ele>
        <time>2018-09-11T10:27:13Z</time>
      </trkpt>
      <trkpt lat="45.94836" lon="4.74221">
        <ele>190</ele>
        <time>2018-09-11T10:27:14Z</time>
      </trkpt>
      <trkpt lat="45.94832" lon="4.74215">
        <ele>189</ele>
        <time>2018-09-11T10:27:15Z</time>
      </trkpt>
      <trkpt lat="45.94828" lon="4.74208">
        <ele>189</ele>
        <time>2018-09-11T10:27:16Z</time>
      </trkpt>
      <trkpt lat="45.94823" lon="4.74204">
        <ele>189</ele>
        <time>2018-09-11T10:27:17Z</time>
      </trkpt>
      <trkpt lat="45.94819" lon="4.74197">
        <ele>189</ele>
        <time>2018-09-11T10:27:18Z</time>
      </trkpt>
      <trkpt lat="45.94815" lon="4.7419">
        <ele>189</ele>
        <time>2018-09-11T10:27:19Z</time>
      </trkpt>
      <trkpt lat="45.94812" lon="4.74182">
        <ele>189</ele>
        <time>2018-09-11T10:27:20Z</time>
      </trkpt>
      <trkpt lat="45.94808" lon="4.74175">
        <ele>189</ele>
        <time>2018-09-11T10:27:21Z</time>
      </trkpt>
      <trkpt lat="45.94805" lon="4.74168">
        <ele>189</ele>
        <time>2018-09-11T10:27:22Z</time>
      </trkpt>
      <trkpt lat="45.948" lon="4.74161">
        <ele>189</ele>
        <time>2018-09-11T10:27:23Z</time>
      </trkpt>
      <trkpt lat="45.94797" lon="4.74154">
        <ele>189</ele>
        <time>2018-09-11T10:27:24Z</time>
      </trkpt>
      <trkpt lat="45.94793" lon="4.74148">
        <ele>189</ele>
        <time>2018-09-11T10:27:25Z</time>
      </trkpt>
      <trkpt lat="45.94788" lon="4.74141">
        <ele>189</ele>
        <time>2018-09-11T10:27:26Z</time>
      </trkpt>
      <trkpt lat="45.94783" lon="4.74134">
        <ele>189</ele>
        <time>2018-09-11T10:27:27Z</time>
      </trkpt>
      <trkpt lat="45.9478" lon="4.74127">
        <ele>189</ele>
        <time>2018-09-11T10:27:28Z</time>
      </trkpt>
      <trkpt lat="45.94776" lon="4.74121">
        <ele>189</ele>
        <time>2018-09-11T10:27:29Z</time>
      </trkpt>
      <trkpt lat="45.94773" lon="4.74115">
        <ele>189</ele>
        <time>2018-09-11T10:27:30Z</time>
      </trkpt>
      <trkpt lat="45.94768" lon="4.74109">
        <ele>189</ele>
        <time>2018-09-11T10:27:31Z</time>
      </trkpt>
      <trkpt lat="45.94764" lon="4.74103">
        <ele>189</ele>
        <time>2018-09-11T10:27:32Z</time>
      </trkpt>
      <trkpt lat="45.9476" lon="4.74097">
        <ele>189</ele>
        <time>2018-09-11T10:27:33Z</time>
      </trkpt>
      <trkpt lat="45.94756" lon="4.74092">
        <ele>189</ele>
        <time>2018-09-11T10:27:34Z</time>
      </trkpt>
      <trkpt lat="45.9475" lon="4.74089">
        <ele>189</ele>
        <time>2018-09-11T10:27:35Z</time>
      </trkpt>
      <trkpt lat="45.94747" lon="4.74083">
        <ele>189</ele>
        <time>2018-09-11T10:27:36Z</time>
      </trkpt>
      <trkpt lat="45.94743" lon="4.74078">
        <ele>188</ele>
        <time>2018-09-11T10:27:37Z</time>
      </trkpt>
      <trkpt lat="45.94741" lon="4.74071">
        <ele>188</ele>
        <time>2018-09-11T10:27:38Z</time>
      </trkpt>
      <trkpt lat="45.94738" lon="4.74066">
        <ele>188</ele>
        <time>2018-09-11T10:27:39Z</time>
      </trkpt>
      <trkpt lat="45.94735" lon="4.74061">
        <ele>188</ele>
        <time>2018-09-11T10:27:40Z</time>
      </trkpt>
      <trkpt lat="45.9473" lon="4.74055">
        <ele>188</ele>
        <time>2018-09-11T10:27:41Z</time>
      </trkpt>
      <trkpt lat="45.94726" lon="4.74049">
        <ele>188</ele>
        <time>2018-09-11T10:27:42Z</time>
      </trkpt>
      <trkpt lat="45.94721" lon="4.74043">
        <ele>187</ele>
        <time>2018-09-11T10:27:43Z</time>
      </trkpt>
      <trkpt lat="45.94718" lon="4.74037">
        <ele>187</ele>
        <time>2018-09-11T10:27:44Z</time>
      </trkpt>
      <trkpt lat="45.94715" lon="4.74032">
        <ele>187</ele>
        <time>2018-09-11T10:27:45Z</time>
      </trkpt>
      <trkpt lat="45.94711" lon="4.74027">
        <ele>187</ele>
        <time>2018-09-11T10:27:46Z</time>
      </trkpt>
      <trkpt lat="45.94708" lon="4.74021">
        <ele>187</ele>
        <time>2018-09-11T10:27:47Z</time>
      </trkpt>
      <trkpt lat="45.94704" lon="4.74015">
        <ele>187</ele>
        <time>2018-09-11T10:27:48Z</time>
      </trkpt>
      <trkpt lat="45.94702" lon="4.7401">
        <ele>187</ele>
        <time>2018-09-11T10:27:49Z</time>
      </trkpt>
      <trkpt lat="45.94698" lon="4.74005">
        <ele>187</ele>
        <time>2018-09-11T10:27:50Z</time>
      </trkpt>
      <trkpt lat="45.94694" lon="4.74">
        <ele>187</ele>
        <time>2018-09-11T10:27:51Z</time>
      </trkpt>
      <trkpt lat="45.9469" lon="4.73994">
        <ele>187</ele>
        <time>2018-09-11T10:27:52Z</time>
      </trkpt>
      <trkpt lat="45.94686" lon="4.73989">
        <ele>187</ele>
        <time>2018-09-11T10:27:53Z</time>
      </trkpt>
      <trkpt lat="45.94682" lon="4.73983">
        <ele>187</ele>
        <time>2018-09-11T10:27:54Z</time>
      </trkpt>
      <trkpt lat="45.94678" lon="4.73976">
        <ele>187</ele>
        <time>2018-09-11T10:27:55Z</time>
      </trkpt>
      <trkpt lat="45.94674" lon="4.7397">
        <ele>187</ele>
        <time>2018-09-11T10:27:56Z</time>
      </trkpt>
      <trkpt lat="45.9467" lon="4.73964">
        <ele>187</ele>
        <time>2018-09-11T10:27:57Z</time>
      </trkpt>
      <trkpt lat="45.94666" lon="4.73958">
        <ele>187</ele>
        <time>2018-09-11T10:27:58Z</time>
      </trkpt>
      <trkpt lat="45.94661" lon="4.73952">
        <ele>187</ele>
        <time>2018-09-11T10:27:59Z</time>
      </trkpt>
      <trkpt lat="45.94658" lon="4.73948">
        <ele>187</ele>
        <time>2018-09-11T10:28:00Z</time>
      </trkpt>
      <trkpt lat="45.94653" lon="4.73942">
        <ele>187</ele>
        <time>2018-09-11T10:28:01Z</time>
      </trkpt>
      <trkpt lat="45.94648" lon="4.73935">
        <ele>187</ele>
        <time>2018-09-11T10:28:02Z</time>
      </trkpt>
      <trkpt lat="45.94643" lon="4.73929">
        <ele>187</ele>
        <time>2018-09-11T10:28:03Z</time>
      </trkpt>
      <trkpt lat="45.94638" lon="4.73923">
        <ele>187</ele>
        <time>2018-09-11T10:28:04Z</time>
      </trkpt>
      <trkpt lat="45.94633" lon="4.73917">
        <ele>187</ele>
        <time>2018-09-11T10:28:05Z</time>
      </trkpt>
      <trkpt lat="45.94627" lon="4.73911">
        <ele>187</ele>
        <time>2018-09-11T10:28:06Z</time>
      </trkpt>
      <trkpt lat="45.94622" lon="4.73905">
        <ele>187</ele>
        <time>2018-09-11T10:28:07Z</time>
      </trkpt>
      <trkpt lat="45.94617" lon="4.73899">
        <ele>187</ele>
        <time>2018-09-11T10:28:08Z</time>
      </trkpt>
      <trkpt lat="45.94612" lon="4.73893">
        <ele>187</ele>
        <time>2018-09-11T10:28:09Z</time>
      </trkpt>
      <trkpt lat="45.94606" lon="4.73886">
        <ele>187</ele>
        <time>2018-09-11T10:28:10Z</time>
      </trkpt>
      <trkpt lat="45.94601" lon="4.7388">
        <ele>187</ele>
        <time>2018-09-11T10:28:11Z</time>
      </trkpt>
      <trkpt lat="45.94597" lon="4.73874">
        <ele>187</ele>
        <time>2018-09-11T10:28:12Z</time>
      </trkpt>
      <trkpt lat="45.94591" lon="4.73868">
        <ele>187</ele>
        <time>2018-09-11T10:28:13Z</time>
      </trkpt>
      <trkpt lat="45.94586" lon="4.73862">
        <ele>187</ele>
        <time>2018-09-11T10:28:14Z</time>
      </trkpt>
      <trkpt lat="45.94581" lon="4.73857">
        <ele>186</ele>
        <time>2018-09-11T10:28:15Z</time>
      </trkpt>
      <trkpt lat="45.94576" lon="4.7385">
        <ele>186</ele>
        <time>2018-09-11T10:28:16Z</time>
      </trkpt>
      <trkpt lat="45.9457" lon="4.73845">
        <ele>186</ele>
        <time>2018-09-11T10:28:17Z</time>
      </trkpt>
      <trkpt lat="45.94565" lon="4.73838">
        <ele>186</ele>
        <time>2018-09-11T10:28:18Z</time>
      </trkpt>
      <trkpt lat="45.9456" lon="4.73832">
        <ele>186</ele>
        <time>2018-09-11T10:28:19Z</time>
      </trkpt>
      <trkpt lat="45.94554" lon="4.73826">
        <ele>186</ele>
        <time>2018-09-11T10:28:20Z</time>
      </trkpt>
      <trkpt lat="45.94549" lon="4.73819">
        <ele>186</ele>
        <time>2018-09-11T10:28:21Z</time>
      </trkpt>
      <trkpt lat="45.94543" lon="4.73814">
        <ele>186</ele>
        <time>2018-09-11T10:28:22Z</time>
      </trkpt>
      <trkpt lat="45.94536" lon="4.73809">
        <ele>186</ele>
        <time>2018-09-11T10:28:23Z</time>
      </trkpt>
      <trkpt lat="45.94531" lon="4.73804">
        <ele>186</ele>
        <time>2018-09-11T10:28:24Z</time>
      </trkpt>
      <trkpt lat="45.94527" lon="4.73798">
        <ele>186</ele>
        <time>2018-09-11T10:28:25Z</time>
      </trkpt>
      <trkpt lat="45.94521" lon="4.73793">
        <ele>186</ele>
        <time>2018-09-11T10:28:26Z</time>
      </trkpt>
      <trkpt lat="45.94516" lon="4.73786">
        <ele>186</ele>
        <time>2018-09-11T10:28:27Z</time>
      </trkpt>
      <trkpt lat="45.94511" lon="4.73781">
        <ele>186</ele>
        <time>2018-09-11T10:28:28Z</time>
      </trkpt>
      <trkpt lat="45.94507" lon="4.73775">
        <ele>186</ele>
        <time>2018-09-11T10:28:29Z</time>
      </trkpt>
      <trkpt lat="45.94503" lon="4.7377">
        <ele>186</ele>
        <time>2018-09-11T10:28:30Z</time>
      </trkpt>
      <trkpt lat="45.94499" lon="4.73764">
        <ele>186</ele>
        <time>2018-09-11T10:28:31Z</time>
      </trkpt>
      <trkpt lat="45.94496" lon="4.73757">
        <ele>186</ele>
        <time>2018-09-11T10:28:32Z</time>
      </trkpt>
      <trkpt lat="45.94493" lon="4.73751">
        <ele>186</ele>
        <time>2018-09-11T10:28:33Z</time>
      </trkpt>
      <trkpt lat="45.94492" lon="4.73745">
        <ele>186</ele>
        <time>2018-09-11T10:28:34Z</time>
      </trkpt>
      <trkpt lat="45.94491" lon="4.73737">
        <ele>186</ele>
        <time>2018-09-11T10:28:35Z</time>
      </trkpt>
      <trkpt lat="45.94492" lon="4.73729">
        <ele>186</ele>
        <time>2018-09-11T10:28:36Z</time>
      </trkpt>
      <trkpt lat="45.94494" lon="4.73721">
        <ele>186</ele>
        <time>2018-09-11T10:28:37Z</time>
      </trkpt>
      <trkpt lat="45.94495" lon="4.73711">
        <ele>186</ele>
        <time>2018-09-11T10:28:38Z</time>
      </trkpt>
      <trkpt lat="45.94497" lon="4.73702">
        <ele>186</ele>
        <time>2018-09-11T10:28:39Z</time>
      </trkpt>
      <trkpt lat="45.94497" lon="4.73694">
        <ele>186</ele>
        <time>2018-09-11T10:28:40Z</time>
      </trkpt>
      <trkpt lat="45.94497" lon="4.73687">
        <ele>186</ele>
        <time>2018-09-11T10:28:41Z</time>
      </trkpt>
      <trkpt lat="45.94499" lon="4.73678">
        <ele>185</ele>
        <time>2018-09-11T10:28:42Z</time>
      </trkpt>
      <trkpt lat="45.94498" lon="4.73669">
        <ele>185</ele>
        <time>2018-09-11T10:28:43Z</time>
      </trkpt>
      <trkpt lat="45.94499" lon="4.7366">
        <ele>185</ele>
        <time>2018-09-11T10:28:44Z</time>
      </trkpt>
      <trkpt lat="45.94501" lon="4.73649">
        <ele>184</ele>
        <time>2018-09-11T10:28:45Z</time>
      </trkpt>
      <trkpt lat="45.94502" lon="4.7364">
        <ele>184</ele>
        <time>2018-09-11T10:28:46Z</time>
      </trkpt>
      <trkpt lat="45.94504" lon="4.7363">
        <ele>184</ele>
        <time>2018-09-11T10:28:47Z</time>
      </trkpt>
      <trkpt lat="45.94505" lon="4.73621">
        <ele>184</ele>
        <time>2018-09-11T10:28:48Z</time>
      </trkpt>
      <trkpt lat="45.94506" lon="4.7361">
        <ele>184</ele>
        <time>2018-09-11T10:28:49Z</time>
      </trkpt>
      <trkpt lat="45.94506" lon="4.736">
        <ele>184</ele>
        <time>2018-09-11T10:28:50Z</time>
      </trkpt>
      <trkpt lat="45.94507" lon="4.73591">
        <ele>184</ele>
        <time>2018-09-11T10:28:51Z</time>
      </trkpt>
      <trkpt lat="45.94507" lon="4.73582">
        <ele>184</ele>
        <time>2018-09-11T10:28:52Z</time>
      </trkpt>
      <trkpt lat="45.94508" lon="4.7357">
        <ele>184</ele>
        <time>2018-09-11T10:28:53Z</time>
      </trkpt>
      <trkpt lat="45.94508" lon="4.7356">
        <ele>184</ele>
        <time>2018-09-11T10:28:54Z</time>
      </trkpt>
      <trkpt lat="45.94508" lon="4.73551">
        <ele>183</ele>
        <time>2018-09-11T10:28:55Z</time>
      </trkpt>
      <trkpt lat="45.94508" lon="4.7354">
        <ele>183</ele>
        <time>2018-09-11T10:28:56Z</time>
      </trkpt>
      <trkpt lat="45.94508" lon="4.7353">
        <ele>183</ele>
        <time>2018-09-11T10:28:57Z</time>
      </trkpt>
      <trkpt lat="45.94507" lon="4.73523">
        <ele>183</ele>
        <time>2018-09-11T10:28:58Z</time>
      </trkpt>
      <trkpt lat="45.94508" lon="4.73512">
        <ele>183</ele>
        <time>2018-09-11T10:28:59Z</time>
      </trkpt>
      <trkpt lat="45.94509" lon="4.73502">
        <ele>183</ele>
        <time>2018-09-11T10:29:00Z</time>
      </trkpt>
      <trkpt lat="45.9451" lon="4.73491">
        <ele>182</ele>
        <time>2018-09-11T10:29:01Z</time>
      </trkpt>
      <trkpt lat="45.94508" lon="4.7348">
        <ele>182</ele>
        <time>2018-09-11T10:29:02Z</time>
      </trkpt>
      <trkpt lat="45.94508" lon="4.73469">
        <ele>181</ele>
        <time>2018-09-11T10:29:03Z</time>
      </trkpt>
      <trkpt lat="45.94508" lon="4.73459">
        <ele>181</ele>
        <time>2018-09-11T10:29:04Z</time>
      </trkpt>
      <trkpt lat="45.94508" lon="4.73449">
        <ele>181</ele>
        <time>2018-09-11T10:29:05Z</time>
      </trkpt>
      <trkpt lat="45.94507" lon="4.73437">
        <ele>181</ele>
        <time>2018-09-11T10:29:06Z</time>
      </trkpt>
      <trkpt lat="45.94506" lon="4.73428">
        <ele>180</ele>
        <time>2018-09-11T10:29:07Z</time>
      </trkpt>
      <trkpt lat="45.94506" lon="4.73416">
        <ele>180</ele>
        <time>2018-09-11T10:29:08Z</time>
      </trkpt>
      <trkpt lat="45.94505" lon="4.73405">
        <ele>179</ele>
        <time>2018-09-11T10:29:09Z</time>
      </trkpt>
      <trkpt lat="45.94505" lon="4.73393">
        <ele>179</ele>
        <time>2018-09-11T10:29:10Z</time>
      </trkpt>
      <trkpt lat="45.94504" lon="4.73381">
        <ele>178</ele>
        <time>2018-09-11T10:29:11Z</time>
      </trkpt>
      <trkpt lat="45.94502" lon="4.7337">
        <ele>178</ele>
        <time>2018-09-11T10:29:12Z</time>
      </trkpt>
      <trkpt lat="45.94502" lon="4.73358">
        <ele>178</ele>
        <time>2018-09-11T10:29:13Z</time>
      </trkpt>
      <trkpt lat="45.94501" lon="4.73347">
        <ele>178</ele>
        <time>2018-09-11T10:29:14Z</time>
      </trkpt>
      <trkpt lat="45.94503" lon="4.73337">
        <ele>177</ele>
        <time>2018-09-11T10:29:15Z</time>
      </trkpt>
      <trkpt lat="45.94503" lon="4.73324">
        <ele>177</ele>
        <time>2018-09-11T10:29:16Z</time>
      </trkpt>
      <trkpt lat="45.94501" lon="4.73313">
        <ele>177</ele>
        <time>2018-09-11T10:29:17Z</time>
      </trkpt>
      <trkpt lat="45.94499" lon="4.73301">
        <ele>177</ele>
        <time>2018-09-11T10:29:18Z</time>
      </trkpt>
      <trkpt lat="45.94497" lon="4.7329">
        <ele>177</ele>
        <time>2018-09-11T10:29:19Z</time>
      </trkpt>
      <trkpt lat="45.94495" lon="4.73278">
        <ele>177</ele>
        <time>2018-09-11T10:29:20Z</time>
      </trkpt>
      <trkpt lat="45.94494" lon="4.73266">
        <ele>176</ele>
        <time>2018-09-11T10:29:21Z</time>
      </trkpt>
      <trkpt lat="45.94492" lon="4.73253">
        <ele>176</ele>
        <time>2018-09-11T10:29:22Z</time>
      </trkpt>
      <trkpt lat="45.94491" lon="4.73242">
        <ele>175</ele>
        <time>2018-09-11T10:29:23Z</time>
      </trkpt>
      <trkpt lat="45.94489" lon="4.7323">
        <ele>175</ele>
        <time>2018-09-11T10:29:24Z</time>
      </trkpt>
      <trkpt lat="45.94487" lon="4.73219">
        <ele>175</ele>
        <time>2018-09-11T10:29:25Z</time>
      </trkpt>
      <trkpt lat="45.94487" lon="4.73209">
        <ele>175</ele>
        <time>2018-09-11T10:29:26Z</time>
      </trkpt>
      <trkpt lat="45.94485" lon="4.73198">
        <ele>174</ele>
        <time>2018-09-11T10:29:27Z</time>
      </trkpt>
      <trkpt lat="45.94483" lon="4.73186">
        <ele>174</ele>
        <time>2018-09-11T10:29:28Z</time>
      </trkpt>
      <trkpt lat="45.94483" lon="4.73176">
        <ele>174</ele>
        <time>2018-09-11T10:29:29Z</time>
      </trkpt>
      <trkpt lat="45.94482" lon="4.73164">
        <ele>173</ele>
        <time>2018-09-11T10:29:30Z</time>
      </trkpt>
      <trkpt lat="45.9448" lon="4.73154">
        <ele>173</ele>
        <time>2018-09-11T10:29:31Z</time>
      </trkpt>
      <trkpt lat="45.94479" lon="4.73143">
        <ele>172</ele>
        <time>2018-09-11T10:29:32Z</time>
      </trkpt>
      <trkpt lat="45.94477" lon="4.73134">
        <ele>172</ele>
        <time>2018-09-11T10:29:33Z</time>
      </trkpt>
      <trkpt lat="45.94475" lon="4.73123">
        <ele>172</ele>
        <time>2018-09-11T10:29:34Z</time>
      </trkpt>
      <trkpt lat="45.94474" lon="4.73113">
        <ele>172</ele>
        <time>2018-09-11T10:29:35Z</time>
      </trkpt>
      <trkpt lat="45.94472" lon="4.73103">
        <ele>172</ele>
        <time>2018-09-11T10:29:36Z</time>
      </trkpt>
      <trkpt lat="45.94471" lon="4.73093">
        <ele>172</ele>
        <time>2018-09-11T10:29:37Z</time>
      </trkpt>
      <trkpt lat="45.9447" lon="4.73084">
        <ele>172</ele>
        <time>2018-09-11T10:29:38Z</time>
      </trkpt>
      <trkpt lat="45.94468" lon="4.73075">
        <ele>170</ele>
        <time>2018-09-11T10:29:39Z</time>
      </trkpt>
      <trkpt lat="45.94467" lon="4.73065">
        <ele>170</ele>
        <time>2018-09-11T10:29:40Z</time>
      </trkpt>
      <trkpt lat="45.94466" lon="4.73056">
        <ele>170</ele>
        <time>2018-09-11T10:29:41Z</time>
      </trkpt>
      <trkpt lat="45.94465" lon="4.73048">
        <ele>170</ele>
        <time>2018-09-11T10:29:42Z</time>
      </trkpt>
      <trkpt lat="45.94463" lon="4.7304">
        <ele>170</ele>
        <time>2018-09-11T10:29:43Z</time>
      </trkpt>
      <trkpt lat="45.94461" lon="4.73032">
        <ele>169</ele>
        <time>2018-09-11T10:29:44Z</time>
      </trkpt>
      <trkpt lat="45.94461" lon="4.73024">
        <ele>169</ele>
        <time>2018-09-11T10:29:45Z</time>
      </trkpt>
      <trkpt lat="45.94461" lon="4.73018">
        <ele>169</ele>
        <time>2018-09-11T10:29:46Z</time>
      </trkpt>
      <trkpt lat="45.94459" lon="4.73011">
        <ele>169</ele>
        <time>2018-09-11T10:29:47Z</time>
      </trkpt>
      <trkpt lat="45.94458" lon="4.73003">
        <ele>169</ele>
        <time>2018-09-11T10:29:48Z</time>
      </trkpt>
      <trkpt lat="45.94457" lon="4.72996">
        <ele>168</ele>
        <time>2018-09-11T10:29:49Z</time>
      </trkpt>
      <trkpt lat="45.94456" lon="4.72989">
        <ele>168</ele>
        <time>2018-09-11T10:29:50Z</time>
      </trkpt>
      <trkpt lat="45.94455" lon="4.72981">
        <ele>167</ele>
        <time>2018-09-11T10:29:51Z</time>
      </trkpt>
      <trkpt lat="45.94454" lon="4.72974">
        <ele>167</ele>
        <time>2018-09-11T10:29:52Z</time>
      </trkpt>
      <trkpt lat="45.94452" lon="4.72966">
        <ele>167</ele>
        <time>2018-09-11T10:29:53Z</time>
      </trkpt>
      <trkpt lat="45.94451" lon="4.72959">
        <ele>167</ele>
        <time>2018-09-11T10:29:54Z</time>
      </trkpt>
      <trkpt lat="45.9445" lon="4.72953">
        <ele>167</ele>
        <time>2018-09-11T10:29:55Z</time>
      </trkpt>
      <trkpt lat="45.9445" lon="4.72946">
        <ele>167</ele>
        <time>2018-09-11T10:29:56Z</time>
      </trkpt>
      <trkpt lat="45.9445" lon="4.72939">
        <ele>167</ele>
        <time>2018-09-11T10:29:57Z</time>
      </trkpt>
      <trkpt lat="45.94449" lon="4.72931">
        <ele>167</ele>
        <time>2018-09-11T10:29:58Z</time>
      </trkpt>
      <trkpt lat="45.94446" lon="4.72919">
        <ele>167</ele>
        <time>2018-09-11T10:30:00Z</time>
      </trkpt>
      <trkpt lat="45.94445" lon="4.72913">
        <ele>166</ele>
        <time>2018-09-11T10:30:01Z</time>
      </trkpt>
      <trkpt lat="45.94444" lon="4.72906">
        <ele>166</ele>
        <time>2018-09-11T10:30:02Z</time>
      </trkpt>
      <trkpt lat="45.94443" lon="4.729">
        <ele>166</ele>
        <time>2018-09-11T10:30:03Z</time>
      </trkpt>
      <trkpt lat="45.94443" lon="4.72893">
        <ele>166</ele>
        <time>2018-09-11T10:30:04Z</time>
      </trkpt>
      <trkpt lat="45.94441" lon="4.72886">
        <ele>166</ele>
        <time>2018-09-11T10:30:05Z</time>
      </trkpt>
      <trkpt lat="45.9444" lon="4.72879">
        <ele>166</ele>
        <time>2018-09-11T10:30:06Z</time>
      </trkpt>
      <trkpt lat="45.94439" lon="4.72872">
        <ele>166</ele>
        <time>2018-09-11T10:30:07Z</time>
      </trkpt>
      <trkpt lat="45.94437" lon="4.72864">
        <ele>166</ele>
        <time>2018-09-11T10:30:08Z</time>
      </trkpt>
      <trkpt lat="45.94435" lon="4.72856">
        <ele>166</ele>
        <time>2018-09-11T10:30:09Z</time>
      </trkpt>
      <trkpt lat="45.94434" lon="4.72848">
        <ele>166</ele>
        <time>2018-09-11T10:30:10Z</time>
      </trkpt>
      <trkpt lat="45.94432" lon="4.72841">
        <ele>166</ele>
        <time>2018-09-11T10:30:11Z</time>
      </trkpt>
      <trkpt lat="45.94431" lon="4.72833">
        <ele>167</ele>
        <time>2018-09-11T10:30:12Z</time>
      </trkpt>
      <trkpt lat="45.9443" lon="4.72824">
        <ele>167</ele>
        <time>2018-09-11T10:30:13Z</time>
      </trkpt>
      <trkpt lat="45.94429" lon="4.72815">
        <ele>167</ele>
        <time>2018-09-11T10:30:14Z</time>
      </trkpt>
      <trkpt lat="45.94428" lon="4.72805">
        <ele>167</ele>
        <time>2018-09-11T10:30:15Z</time>
      </trkpt>
      <trkpt lat="45.94426" lon="4.72797">
        <ele>167</ele>
        <time>2018-09-11T10:30:16Z</time>
      </trkpt>
      <trkpt lat="45.94425" lon="4.72787">
        <ele>168</ele>
        <time>2018-09-11T10:30:17Z</time>
      </trkpt>
      <trkpt lat="45.94424" lon="4.72778">
        <ele>168</ele>
        <time>2018-09-11T10:30:18Z</time>
      </trkpt>
      <trkpt lat="45.94423" lon="4.72768">
        <ele>169</ele>
        <time>2018-09-11T10:30:19Z</time>
      </trkpt>
      <trkpt lat="45.94421" lon="4.72757">
        <ele>170</ele>
        <time>2018-09-11T10:30:20Z</time>
      </trkpt>
      <trkpt lat="45.9442" lon="4.72747">
        <ele>171</ele>
        <time>2018-09-11T10:30:21Z</time>
      </trkpt>
      <trkpt lat="45.9442" lon="4.72738">
        <ele>171</ele>
        <time>2018-09-11T10:30:22Z</time>
      </trkpt>
      <trkpt lat="45.94419" lon="4.72726">
        <ele>171</ele>
        <time>2018-09-11T10:30:23Z</time>
      </trkpt>
      <trkpt lat="45.94417" lon="4.72717">
        <ele>171</ele>
        <time>2018-09-11T10:30:24Z</time>
      </trkpt>
      <trkpt lat="45.94416" lon="4.72707">
        <ele>172</ele>
        <time>2018-09-11T10:30:25Z</time>
      </trkpt>
      <trkpt lat="45.94414" lon="4.72697">
        <ele>173</ele>
        <time>2018-09-11T10:30:26Z</time>
      </trkpt>
      <trkpt lat="45.94414" lon="4.72687">
        <ele>173</ele>
        <time>2018-09-11T10:30:27Z</time>
      </trkpt>
      <trkpt lat="45.94412" lon="4.72677">
        <ele>173</ele>
        <time>2018-09-11T10:30:28Z</time>
      </trkpt>
      <trkpt lat="45.94411" lon="4.72667">
        <ele>174</ele>
        <time>2018-09-11T10:30:29Z</time>
      </trkpt>
      <trkpt lat="45.9441" lon="4.72657">
        <ele>174</ele>
        <time>2018-09-11T10:30:30Z</time>
      </trkpt>
      <trkpt lat="45.94409" lon="4.72646">
        <ele>174</ele>
        <time>2018-09-11T10:30:31Z</time>
      </trkpt>
      <trkpt lat="45.94408" lon="4.72637">
        <ele>174</ele>
        <time>2018-09-11T10:30:32Z</time>
      </trkpt>
      <trkpt lat="45.94406" lon="4.72628">
        <ele>174</ele>
        <time>2018-09-11T10:30:33Z</time>
      </trkpt>
      <trkpt lat="45.94405" lon="4.72619">
        <ele>173</ele>
        <time>2018-09-11T10:30:34Z</time>
      </trkpt>
      <trkpt lat="45.94404" lon="4.72609">
        <ele>173</ele>
        <time>2018-09-11T10:30:35Z</time>
      </trkpt>
      <trkpt lat="45.94402" lon="4.726">
        <ele>173</ele>
        <time>2018-09-11T10:30:36Z</time>
      </trkpt>
      <trkpt lat="45.94402" lon="4.72591">
        <ele>173</ele>
        <time>2018-09-11T10:30:37Z</time>
      </trkpt>
      <trkpt lat="45.94401" lon="4.72583">
        <ele>173</ele>
        <time>2018-09-11T10:30:38Z</time>
      </trkpt>
      <trkpt lat="45.94399" lon="4.72574">
        <ele>173</ele>
        <time>2018-09-11T10:30:39Z</time>
      </trkpt>
      <trkpt lat="45.94397" lon="4.72566">
        <ele>173</ele>
        <time>2018-09-11T10:30:40Z</time>
      </trkpt>
      <trkpt lat="45.94395" lon="4.72559">
        <ele>173</ele>
        <time>2018-09-11T10:30:41Z</time>
      </trkpt>
      <trkpt lat="45.94394" lon="4.72549">
        <ele>173</ele>
        <time>2018-09-11T10:30:42Z</time>
      </trkpt>
      <trkpt lat="45.94392" lon="4.72541">
        <ele>174</ele>
        <time>2018-09-11T10:30:43Z</time>
      </trkpt>
      <trkpt lat="45.9439" lon="4.72533">
        <ele>174</ele>
        <time>2018-09-11T10:30:44Z</time>
      </trkpt>
      <trkpt lat="45.94388" lon="4.72526">
        <ele>174</ele>
        <time>2018-09-11T10:30:45Z</time>
      </trkpt>
      <trkpt lat="45.94386" lon="4.72518">
        <ele>174</ele>
        <time>2018-09-11T10:30:46Z</time>
      </trkpt>
      <trkpt lat="45.94384" lon="4.72511">
        <ele>174</ele>
        <time>2018-09-11T10:30:47Z</time>
      </trkpt>
      <trkpt lat="45.94383" lon="4.72503">
        <ele>174</ele>
        <time>2018-09-11T10:30:48Z</time>
      </trkpt>
      <trkpt lat="45.94381" lon="4.72497">
        <ele>173</ele>
        <time>2018-09-11T10:30:49Z</time>
      </trkpt>
      <trkpt lat="45.94378" lon="4.7249">
        <ele>173</ele>
        <time>2018-09-11T10:30:50Z</time>
      </trkpt>
      <trkpt lat="45.94376" lon="4.72483">
        <ele>173</ele>
        <time>2018-09-11T10:30:51Z</time>
      </trkpt>
      <trkpt lat="45.94374" lon="4.72476">
        <ele>173</ele>
        <time>2018-09-11T10:30:52Z</time>
      </trkpt>
      <trkpt lat="45.9437" lon="4.72469">
        <ele>173</ele>
        <time>2018-09-11T10:30:53Z</time>
      </trkpt>
      <trkpt lat="45.94367" lon="4.72463">
        <ele>173</ele>
        <time>2018-09-11T10:30:54Z</time>
      </trkpt>
      <trkpt lat="45.94365" lon="4.72457">
        <ele>173</ele>
        <time>2018-09-11T10:30:55Z</time>
      </trkpt>
      <trkpt lat="45.94362" lon="4.7245">
        <ele>173</ele>
        <time>2018-09-11T10:30:56Z</time>
      </trkpt>
      <trkpt lat="45.9436" lon="4.72444">
        <ele>173</ele>
        <time>2018-09-11T10:30:57Z</time>
      </trkpt>
      <trkpt lat="45.94357" lon="4.72437">
        <ele>173</ele>
        <time>2018-09-11T10:30:58Z</time>
      </trkpt>
      <trkpt lat="45.94354" lon="4.72431">
        <ele>173</ele>
        <time>2018-09-11T10:30:59Z</time>
      </trkpt>
      <trkpt lat="45.94351" lon="4.72425">
        <ele>173</ele>
        <time>2018-09-11T10:31:00Z</time>
      </trkpt>
      <trkpt lat="45.94348" lon="4.72418">
        <ele>173</ele>
        <time>2018-09-11T10:31:01Z</time>
      </trkpt>
      <trkpt lat="45.94345" lon="4.72412">
        <ele>173</ele>
        <time>2018-09-11T10:31:02Z</time>
      </trkpt>
      <trkpt lat="45.94343" lon="4.72407">
        <ele>173</ele>
        <time>2018-09-11T10:31:03Z</time>
      </trkpt>
      <trkpt lat="45.94341" lon="4.72401">
        <ele>172</ele>
        <time>2018-09-11T10:31:04Z</time>
      </trkpt>
      <trkpt lat="45.94339" lon="4.72395">
        <ele>172</ele>
        <time>2018-09-11T10:31:05Z</time>
      </trkpt>
      <trkpt lat="45.94336" lon="4.72388">
        <ele>172</ele>
        <time>2018-09-11T10:31:06Z</time>
      </trkpt>
      <trkpt lat="45.94333" lon="4.72382">
        <ele>172</ele>
        <time>2018-09-11T10:31:07Z</time>
      </trkpt>
      <trkpt lat="45.94329" lon="4.72375">
        <ele>172</ele>
        <time>2018-09-11T10:31:08Z</time>
      </trkpt>
      <trkpt lat="45.94326" lon="4.72369">
        <ele>172</ele>
        <time>2018-09-11T10:31:09Z</time>
      </trkpt>
      <trkpt lat="45.94323" lon="4.72363">
        <ele>172</ele>
        <time>2018-09-11T10:31:10Z</time>
      </trkpt>
      <trkpt lat="45.94321" lon="4.72358">
        <ele>172</ele>
        <time>2018-09-11T10:31:11Z</time>
      </trkpt>
      <trkpt lat="45.94318" lon="4.72352">
        <ele>172</ele>
        <time>2018-09-11T10:31:12Z</time>
      </trkpt>
      <trkpt lat="45.94315" lon="4.72346">
        <ele>172</ele>
        <time>2018-09-11T10:31:13Z</time>
      </trkpt>
      <trkpt lat="45.94314" lon="4.7234">
        <ele>172</ele>
        <time>2018-09-11T10:31:14Z</time>
      </trkpt>
      <trkpt lat="45.94311" lon="4.72334">
        <ele>172</ele>
        <time>2018-09-11T10:31:15Z</time>
      </trkpt>
      <trkpt lat="45.94308" lon="4.72326">
        <ele>171</ele>
        <time>2018-09-11T10:31:16Z</time>
      </trkpt>
      <trkpt lat="45.94306" lon="4.72319">
        <ele>171</ele>
        <time>2018-09-11T10:31:17Z</time>
      </trkpt>
      <trkpt lat="45.94302" lon="4.72312">
        <ele>171</ele>
        <time>2018-09-11T10:31:18Z</time>
      </trkpt>
      <trkpt lat="45.94299" lon="4.72307">
        <ele>171</ele>
        <time>2018-09-11T10:31:19Z</time>
      </trkpt>
      <trkpt lat="45.94297" lon="4.723">
        <ele>171</ele>
        <time>2018-09-11T10:31:20Z</time>
      </trkpt>
      <trkpt lat="45.94294" lon="4.72294">
        <ele>171</ele>
        <time>2018-09-11T10:31:21Z</time>
      </trkpt>
      <trkpt lat="45.94291" lon="4.72287">
        <ele>171</ele>
        <time>2018-09-11T10:31:22Z</time>
      </trkpt>
      <trkpt lat="45.94288" lon="4.7228">
        <ele>171</ele>
        <time>2018-09-11T10:31:23Z</time>
      </trkpt>
      <trkpt lat="45.94285" lon="4.72274">
        <ele>171</ele>
        <time>2018-09-11T10:31:24Z</time>
      </trkpt>
      <trkpt lat="45.94281" lon="4.72269">
        <ele>171</ele>
        <time>2018-09-11T10:31:25Z</time>
      </trkpt>
      <trkpt lat="45.94272" lon="4.72268">
        <ele>171</ele>
        <time>2018-09-11T10:31:27Z</time>
      </trkpt>
      <trkpt lat="45.94266" lon="4.72269">
        <ele>171</ele>
        <time>2018-09-11T10:31:28Z</time>
      </trkpt>
      <trkpt lat="45.94261" lon="4.72273">
        <ele>171</ele>
        <time>2018-09-11T10:31:29Z</time>
      </trkpt>
      <trkpt lat="45.94255" lon="4.72273">
        <ele>171</ele>
        <time>2018-09-11T10:31:30Z</time>
      </trkpt>
      <trkpt lat="45.94251" lon="4.72276">
        <ele>171</ele>
        <time>2018-09-11T10:31:31Z</time>
      </trkpt>
      <trkpt lat="45.94246" lon="4.72278">
        <ele>171</ele>
        <time>2018-09-11T10:31:32Z</time>
      </trkpt>
      <trkpt lat="45.94241" lon="4.72281">
        <ele>171</ele>
        <time>2018-09-11T10:31:33Z</time>
      </trkpt>
      <trkpt lat="45.94235" lon="4.72282">
        <ele>171</ele>
        <time>2018-09-11T10:31:34Z</time>
      </trkpt>
      <trkpt lat="45.9423" lon="4.72283">
        <ele>171</ele>
        <time>2018-09-11T10:31:35Z</time>
      </trkpt>
      <trkpt lat="45.94225" lon="4.72283">
        <ele>171</ele>
        <time>2018-09-11T10:31:36Z</time>
      </trkpt>
      <trkpt lat="45.94217" lon="4.72284">
        <ele>171</ele>
        <time>2018-09-11T10:31:38Z</time>
      </trkpt>
      <trkpt lat="45.94213" lon="4.72285">
        <ele>171</ele>
        <time>2018-09-11T10:31:39Z</time>
      </trkpt>
      <trkpt lat="45.94208" lon="4.72285">
        <ele>171</ele>
        <time>2018-09-11T10:31:40Z</time>
      </trkpt>
      <trkpt lat="45.94202" lon="4.72285">
        <ele>171</ele>
        <time>2018-09-11T10:31:41Z</time>
      </trkpt>
      <trkpt lat="45.94196" lon="4.72285">
        <ele>171</ele>
        <time>2018-09-11T10:31:42Z</time>
      </trkpt>
      <trkpt lat="45.94192" lon="4.72284">
        <ele>171</ele>
        <time>2018-09-11T10:31:43Z</time>
      </trkpt>
      <trkpt lat="45.94185" lon="4.72285">
        <ele>171</ele>
        <time>2018-09-11T10:31:44Z</time>
      </trkpt>
      <trkpt lat="45.94179" lon="4.72285">
        <ele>171</ele>
        <time>2018-09-11T10:31:45Z</time>
      </trkpt>
      <trkpt lat="45.94174" lon="4.72285">
        <ele>171</ele>
        <time>2018-09-11T10:31:46Z</time>
      </trkpt>
      <trkpt lat="45.94169" lon="4.72284">
        <ele>171</ele>
        <time>2018-09-11T10:31:47Z</time>
      </trkpt>
      <trkpt lat="45.94163" lon="4.72283">
        <ele>171</ele>
        <time>2018-09-11T10:31:48Z</time>
      </trkpt>
      <trkpt lat="45.94157" lon="4.72282">
        <ele>171</ele>
        <time>2018-09-11T10:31:49Z</time>
      </trkpt>
      <trkpt lat="45.94151" lon="4.72279">
        <ele>171</ele>
        <time>2018-09-11T10:31:51Z</time>
      </trkpt>
      <trkpt lat="45.94146" lon="4.72276">
        <ele>171</ele>
        <time>2018-09-11T10:31:52Z</time>
      </trkpt>
      <trkpt lat="45.94141" lon="4.72274">
        <ele>171</ele>
        <time>2018-09-11T10:31:53Z</time>
      </trkpt>
      <trkpt lat="45.94136" lon="4.7227">
        <ele>171</ele>
        <time>2018-09-11T10:31:54Z</time>
      </trkpt>
      <trkpt lat="45.94131" lon="4.72267">
        <ele>171</ele>
        <time>2018-09-11T10:31:55Z</time>
      </trkpt>
      <trkpt lat="45.94126" lon="4.72264">
        <ele>171</ele>
        <time>2018-09-11T10:31:56Z</time>
      </trkpt>
      <trkpt lat="45.94119" lon="4.72263">
        <ele>171</ele>
        <time>2018-09-11T10:31:57Z</time>
      </trkpt>
      <trkpt lat="45.94113" lon="4.72263">
        <ele>171</ele>
        <time>2018-09-11T10:31:58Z</time>
      </trkpt>
      <trkpt lat="45.94108" lon="4.72261">
        <ele>171</ele>
        <time>2018-09-11T10:31:59Z</time>
      </trkpt>
      <trkpt lat="45.94102" lon="4.72261">
        <ele>171</ele>
        <time>2018-09-11T10:32:00Z</time>
      </trkpt>
      <trkpt lat="45.94097" lon="4.72262">
        <ele>171</ele>
        <time>2018-09-11T10:32:01Z</time>
      </trkpt>
      <trkpt lat="45.94091" lon="4.72264">
        <ele>171</ele>
        <time>2018-09-11T10:32:02Z</time>
      </trkpt>
      <trkpt lat="45.94084" lon="4.72267">
        <ele>171</ele>
        <time>2018-09-11T10:32:03Z</time>
      </trkpt>
      <trkpt lat="45.9408" lon="4.72271">
        <ele>171</ele>
        <time>2018-09-11T10:32:04Z</time>
      </trkpt>
      <trkpt lat="45.94075" lon="4.72276">
        <ele>171</ele>
        <time>2018-09-11T10:32:05Z</time>
      </trkpt>
      <trkpt lat="45.94071" lon="4.72282">
        <ele>171</ele>
        <time>2018-09-11T10:32:06Z</time>
      </trkpt>
      <trkpt lat="45.94067" lon="4.72286">
        <ele>171</ele>
        <time>2018-09-11T10:32:07Z</time>
      </trkpt>
      <trkpt lat="45.94061" lon="4.72293">
        <ele>171</ele>
        <time>2018-09-11T10:32:08Z</time>
      </trkpt>
      <trkpt lat="45.94056" lon="4.72299">
        <ele>171</ele>
        <time>2018-09-11T10:32:09Z</time>
      </trkpt>
      <trkpt lat="45.94051" lon="4.72304">
        <ele>171</ele>
        <time>2018-09-11T10:32:10Z</time>
      </trkpt>
      <trkpt lat="45.94046" lon="4.72309">
        <ele>171</ele>
        <time>2018-09-11T10:32:11Z</time>
      </trkpt>
      <trkpt lat="45.94041" lon="4.72314">
        <ele>171</ele>
        <time>2018-09-11T10:32:12Z</time>
      </trkpt>
      <trkpt lat="45.94035" lon="4.72319">
        <ele>171</ele>
        <time>2018-09-11T10:32:13Z</time>
      </trkpt>
      <trkpt lat="45.94031" lon="4.72325">
        <ele>171</ele>
        <time>2018-09-11T10:32:14Z</time>
      </trkpt>
      <trkpt lat="45.94026" lon="4.7233">
        <ele>171</ele>
        <time>2018-09-11T10:32:15Z</time>
      </trkpt>
      <trkpt lat="45.94021" lon="4.72336">
        <ele>171</ele>
        <time>2018-09-11T10:32:16Z</time>
      </trkpt>
      <trkpt lat="45.94016" lon="4.72342">
        <ele>171</ele>
        <time>2018-09-11T10:32:17Z</time>
      </trkpt>
      <trkpt lat="45.94012" lon="4.72347">
        <ele>171</ele>
        <time>2018-09-11T10:32:18Z</time>
      </trkpt>
      <trkpt lat="45.94007" lon="4.72352">
        <ele>171</ele>
        <time>2018-09-11T10:32:19Z</time>
      </trkpt>
      <trkpt lat="45.94002" lon="4.72358">
        <ele>171</ele>
        <time>2018-09-11T10:32:20Z</time>
      </trkpt>
      <trkpt lat="45.93998" lon="4.72363">
        <ele>171</ele>
        <time>2018-09-11T10:32:21Z</time>
      </trkpt>
      <trkpt lat="45.93993" lon="4.72368">
        <ele>171</ele>
        <time>2018-09-11T10:32:22Z</time>
      </trkpt>
      <trkpt lat="45.9399" lon="4.72375">
        <ele>171</ele>
        <time>2018-09-11T10:32:23Z</time>
      </trkpt>
      <trkpt lat="45.93986" lon="4.72382">
        <ele>171</ele>
        <time>2018-09-11T10:32:24Z</time>
      </trkpt>
      <trkpt lat="45.93981" lon="4.72387">
        <ele>171</ele>
        <time>2018-09-11T10:32:25Z</time>
      </trkpt>
      <trkpt lat="45.93975" lon="4.72392">
        <ele>171</ele>
        <time>2018-09-11T10:32:26Z</time>
      </trkpt>
      <trkpt lat="45.9397" lon="4.72398">
        <ele>171</ele>
        <time>2018-09-11T10:32:27Z</time>
      </trkpt>
      <trkpt lat="45.93966" lon="4.72404">
        <ele>171</ele>
        <time>2018-09-11T10:32:28Z</time>
      </trkpt>
      <trkpt lat="45.93962" lon="4.72409">
        <ele>171</ele>
        <time>2018-09-11T10:32:29Z</time>
      </trkpt>
      <trkpt lat="45.93958" lon="4.72415">
        <ele>171</ele>
        <time>2018-09-11T10:32:30Z</time>
      </trkpt>
      <trkpt lat="45.93953" lon="4.7242">
        <ele>171</ele>
        <time>2018-09-11T10:32:31Z</time>
      </trkpt>
      <trkpt lat="45.93949" lon="4.72425">
        <ele>171</ele>
        <time>2018-09-11T10:32:32Z</time>
      </trkpt>
      <trkpt lat="45.93944" lon="4.72431">
        <ele>171</ele>
        <time>2018-09-11T10:32:33Z</time>
      </trkpt>
      <trkpt lat="45.9394" lon="4.72437">
        <ele>171</ele>
        <time>2018-09-11T10:32:34Z</time>
      </trkpt>
      <trkpt lat="45.93935" lon="4.72442">
        <ele>171</ele>
        <time>2018-09-11T10:32:35Z</time>
      </trkpt>
      <trkpt lat="45.9393" lon="4.72447">
        <ele>171</ele>
        <time>2018-09-11T10:32:36Z</time>
      </trkpt>
      <trkpt lat="45.93927" lon="4.72452">
        <ele>171</ele>
        <time>2018-09-11T10:32:37Z</time>
      </trkpt>
      <trkpt lat="45.93923" lon="4.72459">
        <ele>171</ele>
        <time>2018-09-11T10:32:38Z</time>
      </trkpt>
      <trkpt lat="45.9392" lon="4.72466">
        <ele>171</ele>
        <time>2018-09-11T10:32:39Z</time>
      </trkpt>
      <trkpt lat="45.93916" lon="4.72473">
        <ele>172</ele>
        <time>2018-09-11T10:32:40Z</time>
      </trkpt>
      <trkpt lat="45.93913" lon="4.72478">
        <ele>172</ele>
        <time>2018-09-11T10:32:41Z</time>
      </trkpt>
      <trkpt lat="45.93909" lon="4.72481">
        <ele>172</ele>
        <time>2018-09-11T10:32:42Z</time>
      </trkpt>
      <trkpt lat="45.93905" lon="4.72486">
        <ele>172</ele>
        <time>2018-09-11T10:32:43Z</time>
      </trkpt>
      <trkpt lat="45.939" lon="4.72491">
        <ele>172</ele>
        <time>2018-09-11T10:32:44Z</time>
      </trkpt>
      <trkpt lat="45.93896" lon="4.72495">
        <ele>172</ele>
        <time>2018-09-11T10:32:45Z</time>
      </trkpt>
      <trkpt lat="45.93892" lon="4.72498">
        <ele>172</ele>
        <time>2018-09-11T10:32:46Z</time>
      </trkpt>
      <trkpt lat="45.93888" lon="4.72503">
        <ele>173</ele>
        <time>2018-09-11T10:32:47Z</time>
      </trkpt>
      <trkpt lat="45.93884" lon="4.72506">
        <ele>173</ele>
        <time>2018-09-11T10:32:48Z</time>
      </trkpt>
      <trkpt lat="45.93879" lon="4.72509">
        <ele>173</ele>
        <time>2018-09-11T10:32:49Z</time>
      </trkpt>
      <trkpt lat="45.93875" lon="4.7251">
        <ele>173</ele>
        <time>2018-09-11T10:32:50Z</time>
      </trkpt>
      <trkpt lat="45.93869" lon="4.72511">
        <ele>173</ele>
        <time>2018-09-11T10:32:51Z</time>
      </trkpt>
      <trkpt lat="45.93866" lon="4.72508">
        <ele>173</ele>
        <time>2018-09-11T10:32:52Z</time>
      </trkpt>
      <trkpt lat="45.93862" lon="4.72504">
        <ele>173</ele>
        <time>2018-09-11T10:32:53Z</time>
      </trkpt>
      <trkpt lat="45.93834" lon="4.72469">
        <ele>173</ele>
        <time>2018-09-11T10:33:03Z</time>
      </trkpt>
      <trkpt lat="45.93826" lon="4.72465">
        <ele>172</ele>
        <time>2018-09-11T10:33:04Z</time>
      </trkpt>
      <trkpt lat="45.93821" lon="4.7246">
        <ele>172</ele>
        <time>2018-09-11T10:33:05Z</time>
      </trkpt>
      <trkpt lat="45.93817" lon="4.72451">
        <ele>172</ele>
        <time>2018-09-11T10:33:06Z</time>
      </trkpt>
      <trkpt lat="45.93813" lon="4.72447">
        <ele>172</ele>
        <time>2018-09-11T10:33:07Z</time>
      </trkpt>
      <trkpt lat="45.93805" lon="4.72441">
        <ele>172</ele>
        <time>2018-09-11T10:33:08Z</time>
      </trkpt>
      <trkpt lat="45.93801" lon="4.72437">
        <ele>172</ele>
        <time>2018-09-11T10:33:09Z</time>
      </trkpt>
      <trkpt lat="45.93794" lon="4.72433">
        <ele>172</ele>
        <time>2018-09-11T10:33:10Z</time>
      </trkpt>
      <trkpt lat="45.93789" lon="4.72429">
        <ele>172</ele>
        <time>2018-09-11T10:33:11Z</time>
      </trkpt>
      <trkpt lat="45.93783" lon="4.72425">
        <ele>172</ele>
        <time>2018-09-11T10:33:12Z</time>
      </trkpt>
      <trkpt lat="45.93779" lon="4.72422">
        <ele>172</ele>
        <time>2018-09-11T10:33:13Z</time>
      </trkpt>
      <trkpt lat="45.93774" lon="4.72416">
        <ele>171</ele>
        <time>2018-09-11T10:33:14Z</time>
      </trkpt>
      <trkpt lat="45.9377" lon="4.72412">
        <ele>171</ele>
        <time>2018-09-11T10:33:15Z</time>
      </trkpt>
      <trkpt lat="45.93766" lon="4.72408">
        <ele>171</ele>
        <time>2018-09-11T10:33:16Z</time>
      </trkpt>
      <trkpt lat="45.93762" lon="4.72404">
        <ele>171</ele>
        <time>2018-09-11T10:33:17Z</time>
      </trkpt>
      <trkpt lat="45.93759" lon="4.72401">
        <ele>171</ele>
        <time>2018-09-11T10:33:18Z</time>
      </trkpt>
      <trkpt lat="45.93755" lon="4.72396">
        <ele>171</ele>
        <time>2018-09-11T10:33:19Z</time>
      </trkpt>
      <trkpt lat="45.9375" lon="4.72391">
        <ele>171</ele>
        <time>2018-09-11T10:33:21Z</time>
      </trkpt>
      <trkpt lat="45.93745" lon="4.72387">
        <ele>171</ele>
        <time>2018-09-11T10:33:22Z</time>
      </trkpt>
      <trkpt lat="45.93739" lon="4.72382">
        <ele>171</ele>
        <time>2018-09-11T10:33:23Z</time>
      </trkpt>
      <trkpt lat="45.93735" lon="4.72379">
        <ele>171</ele>
        <time>2018-09-11T10:33:24Z</time>
      </trkpt>
      <trkpt lat="45.93731" lon="4.72375">
        <ele>172</ele>
        <time>2018-09-11T10:33:25Z</time>
      </trkpt>
      <trkpt lat="45.93725" lon="4.7237">
        <ele>172</ele>
        <time>2018-09-11T10:33:26Z</time>
      </trkpt>
      <trkpt lat="45.93722" lon="4.72366">
        <ele>172</ele>
        <time>2018-09-11T10:33:27Z</time>
      </trkpt>
      <trkpt lat="45.93717" lon="4.72363">
        <ele>172</ele>
        <time>2018-09-11T10:33:28Z</time>
      </trkpt>
      <trkpt lat="45.9371" lon="4.72358">
        <ele>172</ele>
        <time>2018-09-11T10:33:30.086Z</time>
      </trkpt>
      <trkpt lat="45.93706" lon="4.72353">
        <ele>171</ele>
        <time>2018-09-11T10:33:31Z</time>
      </trkpt>
      <trkpt lat="45.93702" lon="4.7235">
        <ele>171</ele>
        <time>2018-09-11T10:33:32Z</time>
      </trkpt>
      <trkpt lat="45.93698" lon="4.72346">
        <ele>171</ele>
        <time>2018-09-11T10:33:33Z</time>
      </trkpt>
      <trkpt lat="45.93688" lon="4.72337">
        <ele>171</ele>
        <time>2018-09-11T10:33:35Z</time>
      </trkpt>
      <trkpt lat="45.93683" lon="4.72332">
        <ele>171</ele>
        <time>2018-09-11T10:33:36Z</time>
      </trkpt>
      <trkpt lat="45.93679" lon="4.72331">
        <ele>171</ele>
        <time>2018-09-11T10:33:37Z</time>
      </trkpt>
      <trkpt lat="45.93674" lon="4.72329">
        <ele>171</ele>
        <time>2018-09-11T10:33:38Z</time>
      </trkpt>
      <trkpt lat="45.9367" lon="4.72323">
        <ele>171</ele>
        <time>2018-09-11T10:33:39Z</time>
      </trkpt>
      <trkpt lat="45.93666" lon="4.72318">
        <ele>172</ele>
        <time>2018-09-11T10:33:40Z</time>
      </trkpt>
      <trkpt lat="45.93663" lon="4.72313">
        <ele>172</ele>
        <time>2018-09-11T10:33:41Z</time>
      </trkpt>
      <trkpt lat="45.93658" lon="4.7231">
        <ele>172</ele>
        <time>2018-09-11T10:33:42Z</time>
      </trkpt>
      <trkpt lat="45.93654" lon="4.72306">
        <ele>172</ele>
        <time>2018-09-11T10:33:43Z</time>
      </trkpt>
      <trkpt lat="45.93649" lon="4.72302">
        <ele>172</ele>
        <time>2018-09-11T10:33:44Z</time>
      </trkpt>
      <trkpt lat="45.93645" lon="4.72297">
        <ele>172</ele>
        <time>2018-09-11T10:33:45Z</time>
      </trkpt>
      <trkpt lat="45.93642" lon="4.72293">
        <ele>172</ele>
        <time>2018-09-11T10:33:46Z</time>
      </trkpt>
      <trkpt lat="45.93637" lon="4.72288">
        <ele>172</ele>
        <time>2018-09-11T10:33:47Z</time>
      </trkpt>
      <trkpt lat="45.93634" lon="4.72285">
        <ele>172</ele>
        <time>2018-09-11T10:33:48Z</time>
      </trkpt>
      <trkpt lat="45.93627" lon="4.7228">
        <ele>172</ele>
        <time>2018-09-11T10:33:49Z</time>
      </trkpt>
      <trkpt lat="45.93621" lon="4.72276">
        <ele>172</ele>
        <time>2018-09-11T10:33:50Z</time>
      </trkpt>
      <trkpt lat="45.93618" lon="4.72273">
        <ele>172</ele>
        <time>2018-09-11T10:33:51Z</time>
      </trkpt>
      <trkpt lat="45.93612" lon="4.72267">
        <ele>172</ele>
        <time>2018-09-11T10:33:53Z</time>
      </trkpt>
      <trkpt lat="45.93609" lon="4.72262">
        <ele>172</ele>
        <time>2018-09-11T10:33:54Z</time>
      </trkpt>
      <trkpt lat="45.93605" lon="4.72258">
        <ele>173</ele>
        <time>2018-09-11T10:33:55Z</time>
      </trkpt>
      <trkpt lat="45.936" lon="4.72255">
        <ele>173</ele>
        <time>2018-09-11T10:33:56Z</time>
      </trkpt>
      <trkpt lat="45.93592" lon="4.72249">
        <ele>173</ele>
        <time>2018-09-11T10:33:58Z</time>
      </trkpt>
      <trkpt lat="45.93589" lon="4.72246">
        <ele>173</ele>
        <time>2018-09-11T10:33:59Z</time>
      </trkpt>
      <trkpt lat="45.9358" lon="4.7224">
        <ele>173</ele>
        <time>2018-09-11T10:34:01Z</time>
      </trkpt>
      <trkpt lat="45.93577" lon="4.72237">
        <ele>173</ele>
        <time>2018-09-11T10:34:02Z</time>
      </trkpt>
      <trkpt lat="45.93571" lon="4.7223">
        <ele>173</ele>
        <time>2018-09-11T10:34:04Z</time>
      </trkpt>
      <trkpt lat="45.9357" lon="4.72224">
        <ele>173</ele>
        <time>2018-09-11T10:34:05Z</time>
      </trkpt>
      <trkpt lat="45.93561" lon="4.7222">
        <ele>173</ele>
        <time>2018-09-11T10:34:09Z</time>
      </trkpt>
      <trkpt lat="45.93554" lon="4.7222">
        <ele>173</ele>
        <time>2018-09-11T10:34:10Z</time>
      </trkpt>
      <trkpt lat="45.93548" lon="4.72225">
        <ele>172</ele>
        <time>2018-09-11T10:34:12Z</time>
      </trkpt>
      <trkpt lat="45.93546" lon="4.7223">
        <ele>172</ele>
        <time>2018-09-11T10:34:13Z</time>
      </trkpt>
      <trkpt lat="45.93543" lon="4.7224">
        <ele>172</ele>
        <time>2018-09-11T10:34:15Z</time>
      </trkpt>
      <trkpt lat="45.93541" lon="4.72245">
        <ele>172</ele>
        <time>2018-09-11T10:34:16Z</time>
      </trkpt>
      <trkpt lat="45.93537" lon="4.72255">
        <ele>172</ele>
        <time>2018-09-11T10:34:18Z</time>
      </trkpt>
      <trkpt lat="45.93535" lon="4.72261">
        <ele>172</ele>
        <time>2018-09-11T10:34:19Z</time>
      </trkpt>
      <trkpt lat="45.93532" lon="4.72266">
        <ele>172</ele>
        <time>2018-09-11T10:34:20Z</time>
      </trkpt>
      <trkpt lat="45.93529" lon="4.72272">
        <ele>172</ele>
        <time>2018-09-11T10:34:21Z</time>
      </trkpt>
      <trkpt lat="45.93527" lon="4.72277">
        <ele>172</ele>
        <time>2018-09-11T10:34:22Z</time>
      </trkpt>
      <trkpt lat="45.93524" lon="4.72283">
        <ele>172</ele>
        <time>2018-09-11T10:34:23Z</time>
      </trkpt>
      <trkpt lat="45.93521" lon="4.7229">
        <ele>172</ele>
        <time>2018-09-11T10:34:24Z</time>
      </trkpt>
      <trkpt lat="45.93518" lon="4.72295">
        <ele>172</ele>
        <time>2018-09-11T10:34:25Z</time>
      </trkpt>
      <trkpt lat="45.93515" lon="4.723">
        <ele>172</ele>
        <time>2018-09-11T10:34:26Z</time>
      </trkpt>
      <trkpt lat="45.93511" lon="4.72306">
        <ele>173</ele>
        <time>2018-09-11T10:34:27Z</time>
      </trkpt>
      <trkpt lat="45.93507" lon="4.7231">
        <ele>173</ele>
        <time>2018-09-11T10:34:28Z</time>
      </trkpt>
      <trkpt lat="45.93503" lon="4.72317">
        <ele>173</ele>
        <time>2018-09-11T10:34:29Z</time>
      </trkpt>
      <trkpt lat="45.935" lon="4.72323">
        <ele>173</ele>
        <time>2018-09-11T10:34:30Z</time>
      </trkpt>
      <trkpt lat="45.93496" lon="4.72329">
        <ele>173</ele>
        <time>2018-09-11T10:34:31Z</time>
      </trkpt>
      <trkpt lat="45.93492" lon="4.72334">
        <ele>173</ele>
        <time>2018-09-11T10:34:32Z</time>
      </trkpt>
      <trkpt lat="45.93486" lon="4.72338">
        <ele>173</ele>
        <time>2018-09-11T10:34:33Z</time>
      </trkpt>
      <trkpt lat="45.93482" lon="4.72345">
        <ele>173</ele>
        <time>2018-09-11T10:34:34Z</time>
      </trkpt>
      <trkpt lat="45.93477" lon="4.7235">
        <ele>173</ele>
        <time>2018-09-11T10:34:35Z</time>
      </trkpt>
      <trkpt lat="45.93475" lon="4.72356">
        <ele>173</ele>
        <time>2018-09-11T10:34:36Z</time>
      </trkpt>
      <trkpt lat="45.9347" lon="4.72362">
        <ele>173</ele>
        <time>2018-09-11T10:34:37Z</time>
      </trkpt>
      <trkpt lat="45.93466" lon="4.72367">
        <ele>173</ele>
        <time>2018-09-11T10:34:38Z</time>
      </trkpt>
      <trkpt lat="45.93461" lon="4.72373">
        <ele>173</ele>
        <time>2018-09-11T10:34:39Z</time>
      </trkpt>
      <trkpt lat="45.93456" lon="4.72376">
        <ele>173</ele>
        <time>2018-09-11T10:34:40Z</time>
      </trkpt>
      <trkpt lat="45.93452" lon="4.72381">
        <ele>173</ele>
        <time>2018-09-11T10:34:41Z</time>
      </trkpt>
      <trkpt lat="45.93447" lon="4.72386">
        <ele>173</ele>
        <time>2018-09-11T10:34:42Z</time>
      </trkpt>
      <trkpt lat="45.93442" lon="4.72388">
        <ele>173</ele>
        <time>2018-09-11T10:34:43Z</time>
      </trkpt>
      <trkpt lat="45.93438" lon="4.72392">
        <ele>173</ele>
        <time>2018-09-11T10:34:44Z</time>
      </trkpt>
      <trkpt lat="45.93432" lon="4.72393">
        <ele>173</ele>
        <time>2018-09-11T10:34:45Z</time>
      </trkpt>
      <trkpt lat="45.93426" lon="4.72396">
        <ele>174</ele>
        <time>2018-09-11T10:34:46Z</time>
      </trkpt>
      <trkpt lat="45.93421" lon="4.72399">
        <ele>174</ele>
        <time>2018-09-11T10:34:47Z</time>
      </trkpt>
      <trkpt lat="45.93415" lon="4.72402">
        <ele>174</ele>
        <time>2018-09-11T10:34:48Z</time>
      </trkpt>
      <trkpt lat="45.9341" lon="4.72403">
        <ele>174</ele>
        <time>2018-09-11T10:34:49Z</time>
      </trkpt>
      <trkpt lat="45.93405" lon="4.72402">
        <ele>174</ele>
        <time>2018-09-11T10:34:50Z</time>
      </trkpt>
      <trkpt lat="45.934" lon="4.724">
        <ele>174</ele>
        <time>2018-09-11T10:34:51Z</time>
      </trkpt>
      <trkpt lat="45.93395" lon="4.72401">
        <ele>174</ele>
        <time>2018-09-11T10:34:52Z</time>
      </trkpt>
      <trkpt lat="45.9339" lon="4.72403">
        <ele>174</ele>
        <time>2018-09-11T10:34:53Z</time>
      </trkpt>
      <trkpt lat="45.93385" lon="4.72412">
        <ele>174</ele>
        <time>2018-09-11T10:34:55Z</time>
      </trkpt>
      <trkpt lat="45.93386" lon="4.72418">
        <ele>173</ele>
        <time>2018-09-11T10:34:56Z</time>
      </trkpt>
      <trkpt lat="45.93388" lon="4.72427">
        <ele>173</ele>
        <time>2018-09-11T10:34:57Z</time>
      </trkpt>
      <trkpt lat="45.93389" lon="4.72434">
        <ele>173</ele>
        <time>2018-09-11T10:34:58Z</time>
      </trkpt>
      <trkpt lat="45.93392" lon="4.72442">
        <ele>173</ele>
        <time>2018-09-11T10:34:59Z</time>
      </trkpt>
      <trkpt lat="45.93393" lon="4.72449">
        <ele>173</ele>
        <time>2018-09-11T10:35:00Z</time>
      </trkpt>
      <trkpt lat="45.93392" lon="4.72457">
        <ele>173</ele>
        <time>2018-09-11T10:35:01Z</time>
      </trkpt>
      <trkpt lat="45.93391" lon="4.72465">
        <ele>173</ele>
        <time>2018-09-11T10:35:02Z</time>
      </trkpt>
      <trkpt lat="45.93385" lon="4.72469">
        <ele>173</ele>
        <time>2018-09-11T10:35:03Z</time>
      </trkpt>
      <trkpt lat="45.93381" lon="4.72473">
        <ele>173</ele>
        <time>2018-09-11T10:35:04Z</time>
      </trkpt>
      <trkpt lat="45.93376" lon="4.72478">
        <ele>173</ele>
        <time>2018-09-11T10:35:05Z</time>
      </trkpt>
      <trkpt lat="45.93372" lon="4.72482">
        <ele>173</ele>
        <time>2018-09-11T10:35:06Z</time>
      </trkpt>
      <trkpt lat="45.93368" lon="4.72486">
        <ele>173</ele>
        <time>2018-09-11T10:35:07Z</time>
      </trkpt>
      <trkpt lat="45.93364" lon="4.7249">
        <ele>173</ele>
        <time>2018-09-11T10:35:08Z</time>
      </trkpt>
      <trkpt lat="45.9336" lon="4.72495">
        <ele>173</ele>
        <time>2018-09-11T10:35:09Z</time>
      </trkpt>
      <trkpt lat="45.93355" lon="4.72499">
        <ele>173</ele>
        <time>2018-09-11T10:35:10Z</time>
      </trkpt>
      <trkpt lat="45.93351" lon="4.72504">
        <ele>172</ele>
        <time>2018-09-11T10:35:11Z</time>
      </trkpt>
      <trkpt lat="45.93345" lon="4.72508">
        <ele>172</ele>
        <time>2018-09-11T10:35:12Z</time>
      </trkpt>
      <trkpt lat="45.93341" lon="4.72513">
        <ele>172</ele>
        <time>2018-09-11T10:35:13Z</time>
      </trkpt>
      <trkpt lat="45.93336" lon="4.72518">
        <ele>172</ele>
        <time>2018-09-11T10:35:14Z</time>
      </trkpt>
      <trkpt lat="45.93332" lon="4.72523">
        <ele>172</ele>
        <time>2018-09-11T10:35:15Z</time>
      </trkpt>
      <trkpt lat="45.93329" lon="4.72529">
        <ele>172</ele>
        <time>2018-09-11T10:35:16Z</time>
      </trkpt>
      <trkpt lat="45.93325" lon="4.72534">
        <ele>172</ele>
        <time>2018-09-11T10:35:17Z</time>
      </trkpt>
      <trkpt lat="45.93321" lon="4.72543">
        <ele>172</ele>
        <time>2018-09-11T10:35:18Z</time>
      </trkpt>
      <trkpt lat="45.93315" lon="4.72547">
        <ele>172</ele>
        <time>2018-09-11T10:35:19Z</time>
      </trkpt>
      <trkpt lat="45.93311" lon="4.72552">
        <ele>172</ele>
        <time>2018-09-11T10:35:20Z</time>
      </trkpt>
      <trkpt lat="45.93306" lon="4.72556">
        <ele>172</ele>
        <time>2018-09-11T10:35:21Z</time>
      </trkpt>
      <trkpt lat="45.93299" lon="4.72561">
        <ele>172</ele>
        <time>2018-09-11T10:35:22Z</time>
      </trkpt>
      <trkpt lat="45.93296" lon="4.72566">
        <ele>172</ele>
        <time>2018-09-11T10:35:23Z</time>
      </trkpt>
      <trkpt lat="45.93292" lon="4.72571">
        <ele>172</ele>
        <time>2018-09-11T10:35:24Z</time>
      </trkpt>
      <trkpt lat="45.93288" lon="4.72576">
        <ele>172</ele>
        <time>2018-09-11T10:35:25Z</time>
      </trkpt>
      <trkpt lat="45.93286" lon="4.7258">
        <ele>171</ele>
        <time>2018-09-11T10:35:26Z</time>
      </trkpt>
      <trkpt lat="45.93282" lon="4.72585">
        <ele>170</ele>
        <time>2018-09-11T10:35:27Z</time>
      </trkpt>
      <trkpt lat="45.93279" lon="4.7259">
        <ele>170</ele>
        <time>2018-09-11T10:35:28Z</time>
      </trkpt>
      <trkpt lat="45.93275" lon="4.72595">
        <ele>170</ele>
        <time>2018-09-11T10:35:29Z</time>
      </trkpt>
      <trkpt lat="45.93269" lon="4.726">
        <ele>170</ele>
        <time>2018-09-11T10:35:30Z</time>
      </trkpt>
      <trkpt lat="45.93264" lon="4.72606">
        <ele>170</ele>
        <time>2018-09-11T10:35:31Z</time>
      </trkpt>
      <trkpt lat="45.9326" lon="4.72612">
        <ele>170</ele>
        <time>2018-09-11T10:35:32Z</time>
      </trkpt>
      <trkpt lat="45.93256" lon="4.72618">
        <ele>170</ele>
        <time>2018-09-11T10:35:33Z</time>
      </trkpt>
      <trkpt lat="45.93252" lon="4.72621">
        <ele>170</ele>
        <time>2018-09-11T10:35:34Z</time>
      </trkpt>
      <trkpt lat="45.93248" lon="4.72627">
        <ele>170</ele>
        <time>2018-09-11T10:35:35Z</time>
      </trkpt>
      <trkpt lat="45.93244" lon="4.72632">
        <ele>170</ele>
        <time>2018-09-11T10:35:36Z</time>
      </trkpt>
      <trkpt lat="45.93239" lon="4.72637">
        <ele>170</ele>
        <time>2018-09-11T10:35:37Z</time>
      </trkpt>
      <trkpt lat="45.93235" lon="4.72643">
        <ele>170</ele>
        <time>2018-09-11T10:35:38Z</time>
      </trkpt>
      <trkpt lat="45.93231" lon="4.72648">
        <ele>170</ele>
        <time>2018-09-11T10:35:39Z</time>
      </trkpt>
      <trkpt lat="45.93227" lon="4.72653">
        <ele>170</ele>
        <time>2018-09-11T10:35:40Z</time>
      </trkpt>
      <trkpt lat="45.93223" lon="4.72656">
        <ele>170</ele>
        <time>2018-09-11T10:35:41Z</time>
      </trkpt>
      <trkpt lat="45.93219" lon="4.7266">
        <ele>170</ele>
        <time>2018-09-11T10:35:42Z</time>
      </trkpt>
      <trkpt lat="45.93215" lon="4.72666">
        <ele>170</ele>
        <time>2018-09-11T10:35:43Z</time>
      </trkpt>
      <trkpt lat="45.93211" lon="4.72671">
        <ele>169</ele>
        <time>2018-09-11T10:35:44Z</time>
      </trkpt>
      <trkpt lat="45.93208" lon="4.72675">
        <ele>169</ele>
        <time>2018-09-11T10:35:45Z</time>
      </trkpt>
      <trkpt lat="45.93204" lon="4.72681">
        <ele>169</ele>
        <time>2018-09-11T10:35:46Z</time>
      </trkpt>
      <trkpt lat="45.932" lon="4.72687">
        <ele>169</ele>
        <time>2018-09-11T10:35:47Z</time>
      </trkpt>
      <trkpt lat="45.93196" lon="4.72691">
        <ele>169</ele>
        <time>2018-09-11T10:35:48Z</time>
      </trkpt>
      <trkpt lat="45.93192" lon="4.72695">
        <ele>169</ele>
        <time>2018-09-11T10:35:49Z</time>
      </trkpt>
      <trkpt lat="45.93188" lon="4.72701">
        <ele>169</ele>
        <time>2018-09-11T10:35:50Z</time>
      </trkpt>
      <trkpt lat="45.93184" lon="4.72706">
        <ele>169</ele>
        <time>2018-09-11T10:35:51Z</time>
      </trkpt>
      <trkpt lat="45.93181" lon="4.72713">
        <ele>169</ele>
        <time>2018-09-11T10:35:52Z</time>
      </trkpt>
      <trkpt lat="45.93177" lon="4.72717">
        <ele>170</ele>
        <time>2018-09-11T10:35:53Z</time>
      </trkpt>
      <trkpt lat="45.93172" lon="4.72722">
        <ele>170</ele>
        <time>2018-09-11T10:35:54Z</time>
      </trkpt>
      <trkpt lat="45.93167" lon="4.72727">
        <ele>170</ele>
        <time>2018-09-11T10:35:55Z</time>
      </trkpt>
      <trkpt lat="45.93164" lon="4.72732">
        <ele>170</ele>
        <time>2018-09-11T10:35:56Z</time>
      </trkpt>
      <trkpt lat="45.93162" lon="4.7274">
        <ele>170</ele>
        <time>2018-09-11T10:35:57Z</time>
      </trkpt>
      <trkpt lat="45.93156" lon="4.72745">
        <ele>170</ele>
        <time>2018-09-11T10:35:58Z</time>
      </trkpt>
      <trkpt lat="45.93152" lon="4.72751">
        <ele>170</ele>
        <time>2018-09-11T10:35:59Z</time>
      </trkpt>
      <trkpt lat="45.93146" lon="4.72756">
        <ele>171</ele>
        <time>2018-09-11T10:36:00Z</time>
      </trkpt>
      <trkpt lat="45.93141" lon="4.72763">
        <ele>171</ele>
        <time>2018-09-11T10:36:01Z</time>
      </trkpt>
      <trkpt lat="45.93136" lon="4.72769">
        <ele>171</ele>
        <time>2018-09-11T10:36:02Z</time>
      </trkpt>
      <trkpt lat="45.93132" lon="4.72775">
        <ele>171</ele>
        <time>2018-09-11T10:36:03Z</time>
      </trkpt>
      <trkpt lat="45.93127" lon="4.7278">
        <ele>171</ele>
        <time>2018-09-11T10:36:04Z</time>
      </trkpt>
      <trkpt lat="45.93123" lon="4.72785">
        <ele>171</ele>
        <time>2018-09-11T10:36:05Z</time>
      </trkpt>
      <trkpt lat="45.9312" lon="4.72791">
        <ele>171</ele>
        <time>2018-09-11T10:36:06Z</time>
      </trkpt>
      <trkpt lat="45.93116" lon="4.72798">
        <ele>171</ele>
        <time>2018-09-11T10:36:07Z</time>
      </trkpt>
      <trkpt lat="45.93112" lon="4.72805">
        <ele>171</ele>
        <time>2018-09-11T10:36:08Z</time>
      </trkpt>
      <trkpt lat="45.93108" lon="4.72812">
        <ele>171</ele>
        <time>2018-09-11T10:36:09Z</time>
      </trkpt>
      <trkpt lat="45.93103" lon="4.72817">
        <ele>172</ele>
        <time>2018-09-11T10:36:10Z</time>
      </trkpt>
      <trkpt lat="45.93098" lon="4.72822">
        <ele>172</ele>
        <time>2018-09-11T10:36:11Z</time>
      </trkpt>
      <trkpt lat="45.93092" lon="4.7283">
        <ele>172</ele>
        <time>2018-09-11T10:36:12Z</time>
      </trkpt>
      <trkpt lat="45.93087" lon="4.72835">
        <ele>173</ele>
        <time>2018-09-11T10:36:14Z</time>
      </trkpt>
      <trkpt lat="45.93051" lon="4.7286">
        <ele>172</ele>
        <time>2018-09-11T10:36:20Z</time>
      </trkpt>
      <trkpt lat="45.93048" lon="4.72865">
        <ele>172</ele>
        <time>2018-09-11T10:36:21Z</time>
      </trkpt>
      <trkpt lat="45.93043" lon="4.72866">
        <ele>172</ele>
        <time>2018-09-11T10:36:22Z</time>
      </trkpt>
      <trkpt lat="45.9304" lon="4.72869">
        <ele>172</ele>
        <time>2018-09-11T10:36:23Z</time>
      </trkpt>
      <trkpt lat="45.93035" lon="4.72874">
        <ele>172</ele>
        <time>2018-09-11T10:36:24Z</time>
      </trkpt>
      <trkpt lat="45.9303" lon="4.7288">
        <ele>172</ele>
        <time>2018-09-11T10:36:25Z</time>
      </trkpt>
      <trkpt lat="45.93025" lon="4.72884">
        <ele>172</ele>
        <time>2018-09-11T10:36:26Z</time>
      </trkpt>
      <trkpt lat="45.93021" lon="4.72888">
        <ele>172</ele>
        <time>2018-09-11T10:36:27Z</time>
      </trkpt>
      <trkpt lat="45.93017" lon="4.72892">
        <ele>172</ele>
        <time>2018-09-11T10:36:28Z</time>
      </trkpt>
      <trkpt lat="45.93014" lon="4.729">
        <ele>172</ele>
        <time>2018-09-11T10:36:29Z</time>
      </trkpt>
      <trkpt lat="45.93009" lon="4.72903">
        <ele>172</ele>
        <time>2018-09-11T10:36:30Z</time>
      </trkpt>
      <trkpt lat="45.93006" lon="4.72909">
        <ele>171</ele>
        <time>2018-09-11T10:36:31Z</time>
      </trkpt>
      <trkpt lat="45.93003" lon="4.72913">
        <ele>171</ele>
        <time>2018-09-11T10:36:32Z</time>
      </trkpt>
      <trkpt lat="45.92999" lon="4.72917">
        <ele>171</ele>
        <time>2018-09-11T10:36:33Z</time>
      </trkpt>
      <trkpt lat="45.92995" lon="4.72923">
        <ele>171</ele>
        <time>2018-09-11T10:36:34Z</time>
      </trkpt>
      <trkpt lat="45.9299" lon="4.72927">
        <ele>171</ele>
        <time>2018-09-11T10:36:35Z</time>
      </trkpt>
      <trkpt lat="45.92985" lon="4.72933">
        <ele>171</ele>
        <time>2018-09-11T10:36:36Z</time>
      </trkpt>
      <trkpt lat="45.92981" lon="4.72938">
        <ele>171</ele>
        <time>2018-09-11T10:36:37Z</time>
      </trkpt>
      <trkpt lat="45.92976" lon="4.72941">
        <ele>171</ele>
        <time>2018-09-11T10:36:38Z</time>
      </trkpt>
      <trkpt lat="45.92972" lon="4.72948">
        <ele>171</ele>
        <time>2018-09-11T10:36:39Z</time>
      </trkpt>
      <trkpt lat="45.92969" lon="4.72953">
        <ele>171</ele>
        <time>2018-09-11T10:36:40Z</time>
      </trkpt>
      <trkpt lat="45.92965" lon="4.72958">
        <ele>171</ele>
        <time>2018-09-11T10:36:41Z</time>
      </trkpt>
      <trkpt lat="45.9296" lon="4.72963">
        <ele>171</ele>
        <time>2018-09-11T10:36:42Z</time>
      </trkpt>
      <trkpt lat="45.92955" lon="4.7297">
        <ele>171</ele>
        <time>2018-09-11T10:36:43Z</time>
      </trkpt>
      <trkpt lat="45.92951" lon="4.72974">
        <ele>171</ele>
        <time>2018-09-11T10:36:44Z</time>
      </trkpt>
      <trkpt lat="45.92947" lon="4.7298">
        <ele>171</ele>
        <time>2018-09-11T10:36:45Z</time>
      </trkpt>
      <trkpt lat="45.92943" lon="4.72986">
        <ele>171</ele>
        <time>2018-09-11T10:36:46Z</time>
      </trkpt>
      <trkpt lat="45.92938" lon="4.72991">
        <ele>171</ele>
        <time>2018-09-11T10:36:47Z</time>
      </trkpt>
      <trkpt lat="45.92934" lon="4.72998">
        <ele>172</ele>
        <time>2018-09-11T10:36:48Z</time>
      </trkpt>
      <trkpt lat="45.9293" lon="4.73004">
        <ele>172</ele>
        <time>2018-09-11T10:36:49Z</time>
      </trkpt>
      <trkpt lat="45.92926" lon="4.73009">
        <ele>172</ele>
        <time>2018-09-11T10:36:50Z</time>
      </trkpt>
      <trkpt lat="45.92921" lon="4.73015">
        <ele>172</ele>
        <time>2018-09-11T10:36:51Z</time>
      </trkpt>
      <trkpt lat="45.92917" lon="4.73019">
        <ele>172</ele>
        <time>2018-09-11T10:36:52Z</time>
      </trkpt>
      <trkpt lat="45.92912" lon="4.73026">
        <ele>172</ele>
        <time>2018-09-11T10:36:53Z</time>
      </trkpt>
      <trkpt lat="45.92908" lon="4.73031">
        <ele>172</ele>
        <time>2018-09-11T10:36:54Z</time>
      </trkpt>
      <trkpt lat="45.92904" lon="4.73036">
        <ele>172</ele>
        <time>2018-09-11T10:36:55Z</time>
      </trkpt>
      <trkpt lat="45.929" lon="4.73041">
        <ele>172</ele>
        <time>2018-09-11T10:36:56Z</time>
      </trkpt>
      <trkpt lat="45.92897" lon="4.73048">
        <ele>172</ele>
        <time>2018-09-11T10:36:57Z</time>
      </trkpt>
      <trkpt lat="45.92893" lon="4.73054">
        <ele>172</ele>
        <time>2018-09-11T10:36:58Z</time>
      </trkpt>
      <trkpt lat="45.92889" lon="4.73059">
        <ele>172</ele>
        <time>2018-09-11T10:36:59Z</time>
      </trkpt>
      <trkpt lat="45.92886" lon="4.73063">
        <ele>172</ele>
        <time>2018-09-11T10:37:00Z</time>
      </trkpt>
      <trkpt lat="45.9288" lon="4.73072">
        <ele>172</ele>
        <time>2018-09-11T10:37:02Z</time>
      </trkpt>
      <trkpt lat="45.92876" lon="4.73076">
        <ele>172</ele>
        <time>2018-09-11T10:37:03Z</time>
      </trkpt>
      <trkpt lat="45.92874" lon="4.73081">
        <ele>172</ele>
        <time>2018-09-11T10:37:04Z</time>
      </trkpt>
      <trkpt lat="45.9287" lon="4.73086">
        <ele>172</ele>
        <time>2018-09-11T10:37:05Z</time>
      </trkpt>
      <trkpt lat="45.92867" lon="4.73091">
        <ele>172</ele>
        <time>2018-09-11T10:37:06Z</time>
      </trkpt>
      <trkpt lat="45.92863" lon="4.73095">
        <ele>171</ele>
        <time>2018-09-11T10:37:07Z</time>
      </trkpt>
      <trkpt lat="45.92854" lon="4.73098">
        <ele>171</ele>
        <time>2018-09-11T10:37:09Z</time>
      </trkpt>
      <trkpt lat="45.92851" lon="4.73095">
        <ele>171</ele>
        <time>2018-09-11T10:37:10Z</time>
      </trkpt>
      <trkpt lat="45.92848" lon="4.73087">
        <ele>171</ele>
        <time>2018-09-11T10:37:12Z</time>
      </trkpt>
      <trkpt lat="45.92847" lon="4.7308">
        <ele>171</ele>
        <time>2018-09-11T10:37:13Z</time>
      </trkpt>
      <trkpt lat="45.92847" lon="4.73074">
        <ele>171</ele>
        <time>2018-09-11T10:37:14Z</time>
      </trkpt>
      <trkpt lat="45.92846" lon="4.73065">
        <ele>171</ele>
        <time>2018-09-11T10:37:15Z</time>
      </trkpt>
      <trkpt lat="45.92845" lon="4.73058">
        <ele>171</ele>
        <time>2018-09-11T10:37:16Z</time>
      </trkpt>
      <trkpt lat="45.92843" lon="4.73049">
        <ele>171</ele>
        <time>2018-09-11T10:37:17Z</time>
      </trkpt>
      <trkpt lat="45.92841" lon="4.73043">
        <ele>171</ele>
        <time>2018-09-11T10:37:18Z</time>
      </trkpt>
      <trkpt lat="45.9284" lon="4.73037">
        <ele>171</ele>
        <time>2018-09-11T10:37:19Z</time>
      </trkpt>
      <trkpt lat="45.92838" lon="4.73028">
        <ele>171</ele>
        <time>2018-09-11T10:37:20Z</time>
      </trkpt>
      <trkpt lat="45.92835" lon="4.73022">
        <ele>171</ele>
        <time>2018-09-11T10:37:21Z</time>
      </trkpt>
      <trkpt lat="45.92835" lon="4.73014">
        <ele>171</ele>
        <time>2018-09-11T10:37:22Z</time>
      </trkpt>
      <trkpt lat="45.92835" lon="4.73007">
        <ele>170</ele>
        <time>2018-09-11T10:37:23Z</time>
      </trkpt>
      <trkpt lat="45.92835" lon="4.73">
        <ele>170</ele>
        <time>2018-09-11T10:37:24Z</time>
      </trkpt>
      <trkpt lat="45.92834" lon="4.72992">
        <ele>170</ele>
        <time>2018-09-11T10:37:25Z</time>
      </trkpt>
      <trkpt lat="45.92834" lon="4.72985">
        <ele>171</ele>
        <time>2018-09-11T10:37:26Z</time>
      </trkpt>
      <trkpt lat="45.92832" lon="4.72977">
        <ele>170</ele>
        <time>2018-09-11T10:37:27Z</time>
      </trkpt>
      <trkpt lat="45.92832" lon="4.7297">
        <ele>170</ele>
        <time>2018-09-11T10:37:28Z</time>
      </trkpt>
      <trkpt lat="45.92832" lon="4.72963">
        <ele>170</ele>
        <time>2018-09-11T10:37:29Z</time>
      </trkpt>
      <trkpt lat="45.92831" lon="4.72956">
        <ele>170</ele>
        <time>2018-09-11T10:37:30Z</time>
      </trkpt>
      <trkpt lat="45.92831" lon="4.72948">
        <ele>170</ele>
        <time>2018-09-11T10:37:31Z</time>
      </trkpt>
      <trkpt lat="45.92829" lon="4.72936">
        <ele>170</ele>
        <time>2018-09-11T10:37:33Z</time>
      </trkpt>
      <trkpt lat="45.92829" lon="4.7293">
        <ele>170</ele>
        <time>2018-09-11T10:37:34Z</time>
      </trkpt>
      <trkpt lat="45.92828" lon="4.72918">
        <ele>170</ele>
        <time>2018-09-11T10:37:36Z</time>
      </trkpt>
      <trkpt lat="45.92827" lon="4.72911">
        <ele>170</ele>
        <time>2018-09-11T10:37:37Z</time>
      </trkpt>
      <trkpt lat="45.92827" lon="4.72904">
        <ele>170</ele>
        <time>2018-09-11T10:37:38Z</time>
      </trkpt>
      <trkpt lat="45.92826" lon="4.72898">
        <ele>170</ele>
        <time>2018-09-11T10:37:39Z</time>
      </trkpt>
      <trkpt lat="45.92824" lon="4.72891">
        <ele>170</ele>
        <time>2018-09-11T10:37:40Z</time>
      </trkpt>
      <trkpt lat="45.92822" lon="4.72885">
        <ele>170</ele>
        <time>2018-09-11T10:37:41Z</time>
      </trkpt>
      <trkpt lat="45.9282" lon="4.72878">
        <ele>170</ele>
        <time>2018-09-11T10:37:42Z</time>
      </trkpt>
      <trkpt lat="45.9282" lon="4.7287">
        <ele>170</ele>
        <time>2018-09-11T10:37:43Z</time>
      </trkpt>
      <trkpt lat="45.92818" lon="4.72862">
        <ele>170</ele>
        <time>2018-09-11T10:37:44Z</time>
      </trkpt>
      <trkpt lat="45.92816" lon="4.72855">
        <ele>170</ele>
        <time>2018-09-11T10:37:45Z</time>
      </trkpt>
      <trkpt lat="45.92814" lon="4.72849">
        <ele>170</ele>
        <time>2018-09-11T10:37:46Z</time>
      </trkpt>
      <trkpt lat="45.92813" lon="4.72841">
        <ele>170</ele>
        <time>2018-09-11T10:37:47Z</time>
      </trkpt>
      <trkpt lat="45.92811" lon="4.72835">
        <ele>170</ele>
        <time>2018-09-11T10:37:48Z</time>
      </trkpt>
      <trkpt lat="45.9281" lon="4.72829">
        <ele>171</ele>
        <time>2018-09-11T10:37:49Z</time>
      </trkpt>
      <trkpt lat="45.92808" lon="4.72823">
        <ele>171</ele>
        <time>2018-09-11T10:37:50Z</time>
      </trkpt>
      <trkpt lat="45.92807" lon="4.72816">
        <ele>171</ele>
        <time>2018-09-11T10:37:51Z</time>
      </trkpt>
      <trkpt lat="45.92805" lon="4.72804">
        <ele>171</ele>
        <time>2018-09-11T10:37:53Z</time>
      </trkpt>
      <trkpt lat="45.92804" lon="4.72798">
        <ele>171</ele>
        <time>2018-09-11T10:37:54Z</time>
      </trkpt>
      <trkpt lat="45.92799" lon="4.72788">
        <ele>171</ele>
        <time>2018-09-11T10:37:56Z</time>
      </trkpt>
      <trkpt lat="45.92795" lon="4.72786">
        <ele>171</ele>
        <time>2018-09-11T10:37:57Z</time>
      </trkpt>
      <trkpt lat="45.92789" lon="4.7279">
        <ele>170</ele>
        <time>2018-09-11T10:37:59Z</time>
      </trkpt>
      <trkpt lat="45.92787" lon="4.72794">
        <ele>170</ele>
        <time>2018-09-11T10:38:00Z</time>
      </trkpt>
      <trkpt lat="45.92782" lon="4.72796">
        <ele>170</ele>
        <time>2018-09-11T10:38:01Z</time>
      </trkpt>
      <trkpt lat="45.92777" lon="4.72802">
        <ele>170</ele>
        <time>2018-09-11T10:38:02Z</time>
      </trkpt>
      <trkpt lat="45.9277" lon="4.72807">
        <ele>170</ele>
        <time>2018-09-11T10:38:04Z</time>
      </trkpt>
      <trkpt lat="45.92766" lon="4.72811">
        <ele>170</ele>
        <time>2018-09-11T10:38:05Z</time>
      </trkpt>
      <trkpt lat="45.9276" lon="4.72814">
        <ele>170</ele>
        <time>2018-09-11T10:38:06Z</time>
      </trkpt>
      <trkpt lat="45.92755" lon="4.72818">
        <ele>170</ele>
        <time>2018-09-11T10:38:07Z</time>
      </trkpt>
      <trkpt lat="45.9275" lon="4.7282">
        <ele>170</ele>
        <time>2018-09-11T10:38:08Z</time>
      </trkpt>
      <trkpt lat="45.92746" lon="4.72824">
        <ele>169</ele>
        <time>2018-09-11T10:38:09Z</time>
      </trkpt>
      <trkpt lat="45.92741" lon="4.72827">
        <ele>169</ele>
        <time>2018-09-11T10:38:10Z</time>
      </trkpt>
      <trkpt lat="45.92736" lon="4.72831">
        <ele>169</ele>
        <time>2018-09-11T10:38:11Z</time>
      </trkpt>
      <trkpt lat="45.92731" lon="4.72833">
        <ele>169</ele>
        <time>2018-09-11T10:38:12Z</time>
      </trkpt>
      <trkpt lat="45.92725" lon="4.72837">
        <ele>169</ele>
        <time>2018-09-11T10:38:13Z</time>
      </trkpt>
      <trkpt lat="45.92719" lon="4.7284">
        <ele>169</ele>
        <time>2018-09-11T10:38:14Z</time>
      </trkpt>
      <trkpt lat="45.92714" lon="4.72845">
        <ele>169</ele>
        <time>2018-09-11T10:38:15Z</time>
      </trkpt>
      <trkpt lat="45.92709" lon="4.72851">
        <ele>169</ele>
        <time>2018-09-11T10:38:16Z</time>
      </trkpt>
      <trkpt lat="45.92704" lon="4.72856">
        <ele>169</ele>
        <time>2018-09-11T10:38:17Z</time>
      </trkpt>
      <trkpt lat="45.927" lon="4.7286">
        <ele>169</ele>
        <time>2018-09-11T10:38:18Z</time>
      </trkpt>
      <trkpt lat="45.92694" lon="4.72864">
        <ele>169</ele>
        <time>2018-09-11T10:38:19Z</time>
      </trkpt>
      <trkpt lat="45.92689" lon="4.72867">
        <ele>169</ele>
        <time>2018-09-11T10:38:20Z</time>
      </trkpt>
      <trkpt lat="45.92685" lon="4.72871">
        <ele>169</ele>
        <time>2018-09-11T10:38:21Z</time>
      </trkpt>
      <trkpt lat="45.9268" lon="4.72874">
        <ele>169</ele>
        <time>2018-09-11T10:38:22Z</time>
      </trkpt>
      <trkpt lat="45.92677" lon="4.7288">
        <ele>170</ele>
        <time>2018-09-11T10:38:23Z</time>
      </trkpt>
      <trkpt lat="45.92674" lon="4.72886">
        <ele>170</ele>
        <time>2018-09-11T10:38:24Z</time>
      </trkpt>
      <trkpt lat="45.9267" lon="4.72889">
        <ele>170</ele>
        <time>2018-09-11T10:38:25Z</time>
      </trkpt>
      <trkpt lat="45.92666" lon="4.72893">
        <ele>170</ele>
        <time>2018-09-11T10:38:26Z</time>
      </trkpt>
      <trkpt lat="45.92662" lon="4.72897">
        <ele>170</ele>
        <time>2018-09-11T10:38:27Z</time>
      </trkpt>
      <trkpt lat="45.92657" lon="4.729">
        <ele>170</ele>
        <time>2018-09-11T10:38:28Z</time>
      </trkpt>
      <trkpt lat="45.92651" lon="4.72903">
        <ele>170</ele>
        <time>2018-09-11T10:38:29Z</time>
      </trkpt>
      <trkpt lat="45.92647" lon="4.72908">
        <ele>170</ele>
        <time>2018-09-11T10:38:30Z</time>
      </trkpt>
      <trkpt lat="45.92642" lon="4.72911">
        <ele>169</ele>
        <time>2018-09-11T10:38:31Z</time>
      </trkpt>
      <trkpt lat="45.92637" lon="4.72914">
        <ele>169</ele>
        <time>2018-09-11T10:38:32Z</time>
      </trkpt>
      <trkpt lat="45.92632" lon="4.72918">
        <ele>170</ele>
        <time>2018-09-11T10:38:33Z</time>
      </trkpt>
      <trkpt lat="45.92627" lon="4.72921">
        <ele>170</ele>
        <time>2018-09-11T10:38:34Z</time>
      </trkpt>
      <trkpt lat="45.92623" lon="4.72925">
        <ele>169</ele>
        <time>2018-09-11T10:38:35Z</time>
      </trkpt>
      <trkpt lat="45.92618" lon="4.72928">
        <ele>169</ele>
        <time>2018-09-11T10:38:36Z</time>
      </trkpt>
      <trkpt lat="45.92613" lon="4.72932">
        <ele>169</ele>
        <time>2018-09-11T10:38:37Z</time>
      </trkpt>
      <trkpt lat="45.92607" lon="4.72937">
        <ele>169</ele>
        <time>2018-09-11T10:38:38Z</time>
      </trkpt>
      <trkpt lat="45.92602" lon="4.72942">
        <ele>169</ele>
        <time>2018-09-11T10:38:39Z</time>
      </trkpt>
      <trkpt lat="45.92598" lon="4.72947">
        <ele>169</ele>
        <time>2018-09-11T10:38:40Z</time>
      </trkpt>
      <trkpt lat="45.92593" lon="4.72953">
        <ele>169</ele>
        <time>2018-09-11T10:38:41Z</time>
      </trkpt>
      <trkpt lat="45.92589" lon="4.72958">
        <ele>169</ele>
        <time>2018-09-11T10:38:42Z</time>
      </trkpt>
      <trkpt lat="45.92585" lon="4.72963">
        <ele>169</ele>
        <time>2018-09-11T10:38:43Z</time>
      </trkpt>
      <trkpt lat="45.9258" lon="4.72968">
        <ele>169</ele>
        <time>2018-09-11T10:38:44Z</time>
      </trkpt>
      <trkpt lat="45.92575" lon="4.72973">
        <ele>169</ele>
        <time>2018-09-11T10:38:45Z</time>
      </trkpt>
      <trkpt lat="45.92571" lon="4.72977">
        <ele>169</ele>
        <time>2018-09-11T10:38:46Z</time>
      </trkpt>
      <trkpt lat="45.92567" lon="4.72984">
        <ele>169</ele>
        <time>2018-09-11T10:38:47Z</time>
      </trkpt>
      <trkpt lat="45.92562" lon="4.72989">
        <ele>169</ele>
        <time>2018-09-11T10:38:48Z</time>
      </trkpt>
      <trkpt lat="45.92558" lon="4.72993">
        <ele>169</ele>
        <time>2018-09-11T10:38:49Z</time>
      </trkpt>
      <trkpt lat="45.92554" lon="4.72997">
        <ele>169</ele>
        <time>2018-09-11T10:38:50Z</time>
      </trkpt>
      <trkpt lat="45.92551" lon="4.73002">
        <ele>169</ele>
        <time>2018-09-11T10:38:51Z</time>
      </trkpt>
      <trkpt lat="45.92547" lon="4.73008">
        <ele>169</ele>
        <time>2018-09-11T10:38:52Z</time>
      </trkpt>
      <trkpt lat="45.92541" lon="4.73012">
        <ele>169</ele>
        <time>2018-09-11T10:38:53Z</time>
      </trkpt>
      <trkpt lat="45.92536" lon="4.73017">
        <ele>169</ele>
        <time>2018-09-11T10:38:54Z</time>
      </trkpt>
      <trkpt lat="45.9253" lon="4.73022">
        <ele>169</ele>
        <time>2018-09-11T10:38:55Z</time>
      </trkpt>
      <trkpt lat="45.92524" lon="4.73028">
        <ele>169</ele>
        <time>2018-09-11T10:38:56Z</time>
      </trkpt>
      <trkpt lat="45.9252" lon="4.73035">
        <ele>169</ele>
        <time>2018-09-11T10:38:57Z</time>
      </trkpt>
      <trkpt lat="45.92517" lon="4.73041">
        <ele>169</ele>
        <time>2018-09-11T10:38:58Z</time>
      </trkpt>
      <trkpt lat="45.92511" lon="4.73046">
        <ele>170</ele>
        <time>2018-09-11T10:38:59Z</time>
      </trkpt>
      <trkpt lat="45.92506" lon="4.7305">
        <ele>170</ele>
        <time>2018-09-11T10:39:00Z</time>
      </trkpt>
      <trkpt lat="45.92501" lon="4.73054">
        <ele>170</ele>
        <time>2018-09-11T10:39:01Z</time>
      </trkpt>
      <trkpt lat="45.92497" lon="4.73058">
        <ele>170</ele>
        <time>2018-09-11T10:39:02Z</time>
      </trkpt>
      <trkpt lat="45.92493" lon="4.73062">
        <ele>170</ele>
        <time>2018-09-11T10:39:03Z</time>
      </trkpt>
      <trkpt lat="45.92486" lon="4.7307">
        <ele>170</ele>
        <time>2018-09-11T10:39:05Z</time>
      </trkpt>
      <trkpt lat="45.92482" lon="4.73074">
        <ele>170</ele>
        <time>2018-09-11T10:39:06Z</time>
      </trkpt>
      <trkpt lat="45.92477" lon="4.73077">
        <ele>170</ele>
        <time>2018-09-11T10:39:07Z</time>
      </trkpt>
      <trkpt lat="45.92472" lon="4.73078">
        <ele>170</ele>
        <time>2018-09-11T10:39:08Z</time>
      </trkpt>
      <trkpt lat="45.92468" lon="4.73082">
        <ele>170</ele>
        <time>2018-09-11T10:39:09Z</time>
      </trkpt>
      <trkpt lat="45.92464" lon="4.73086">
        <ele>170</ele>
        <time>2018-09-11T10:39:10Z</time>
      </trkpt>
      <trkpt lat="45.92459" lon="4.7309">
        <ele>170</ele>
        <time>2018-09-11T10:39:11Z</time>
      </trkpt>
      <trkpt lat="45.92455" lon="4.73095">
        <ele>170</ele>
        <time>2018-09-11T10:39:12Z</time>
      </trkpt>
      <trkpt lat="45.9245" lon="4.73098">
        <ele>170</ele>
        <time>2018-09-11T10:39:13Z</time>
      </trkpt>
      <trkpt lat="45.92446" lon="4.73102">
        <ele>170</ele>
        <time>2018-09-11T10:39:14Z</time>
      </trkpt>
      <trkpt lat="45.92441" lon="4.73106">
        <ele>170</ele>
        <time>2018-09-11T10:39:15Z</time>
      </trkpt>
      <trkpt lat="45.92437" lon="4.73108">
        <ele>170</ele>
        <time>2018-09-11T10:39:16Z</time>
      </trkpt>
      <trkpt lat="45.92432" lon="4.73111">
        <ele>170</ele>
        <time>2018-09-11T10:39:17Z</time>
      </trkpt>
      <trkpt lat="45.92428" lon="4.73114">
        <ele>170</ele>
        <time>2018-09-11T10:39:18Z</time>
      </trkpt>
      <trkpt lat="45.92424" lon="4.73117">
        <ele>170</ele>
        <time>2018-09-11T10:39:19Z</time>
      </trkpt>
      <trkpt lat="45.92419" lon="4.7312">
        <ele>170</ele>
        <time>2018-09-11T10:39:20Z</time>
      </trkpt>
      <trkpt lat="45.92415" lon="4.73124">
        <ele>171</ele>
        <time>2018-09-11T10:39:21Z</time>
      </trkpt>
      <trkpt lat="45.92413" lon="4.7313">
        <ele>171</ele>
        <time>2018-09-11T10:39:22Z</time>
      </trkpt>
      <trkpt lat="45.92412" lon="4.73142">
        <ele>171</ele>
        <time>2018-09-11T10:39:24Z</time>
      </trkpt>
      <trkpt lat="45.92413" lon="4.7315">
        <ele>171</ele>
        <time>2018-09-11T10:39:25Z</time>
      </trkpt>
      <trkpt lat="45.92413" lon="4.73157">
        <ele>170</ele>
        <time>2018-09-11T10:39:26Z</time>
      </trkpt>
      <trkpt lat="45.92412" lon="4.73164">
        <ele>170</ele>
        <time>2018-09-11T10:39:27Z</time>
      </trkpt>
      <trkpt lat="45.92412" lon="4.7317">
        <ele>170</ele>
        <time>2018-09-11T10:39:28Z</time>
      </trkpt>
      <trkpt lat="45.92412" lon="4.73177">
        <ele>170</ele>
        <time>2018-09-11T10:39:29Z</time>
      </trkpt>
      <trkpt lat="45.92413" lon="4.73185">
        <ele>171</ele>
        <time>2018-09-11T10:39:30Z</time>
      </trkpt>
      <trkpt lat="45.92414" lon="4.73193">
        <ele>171</ele>
        <time>2018-09-11T10:39:31Z</time>
      </trkpt>
      <trkpt lat="45.92414" lon="4.732">
        <ele>171</ele>
        <time>2018-09-11T10:39:32Z</time>
      </trkpt>
      <trkpt lat="45.92413" lon="4.73208">
        <ele>171</ele>
        <time>2018-09-11T10:39:33Z</time>
      </trkpt>
      <trkpt lat="45.92413" lon="4.73216">
        <ele>171</ele>
        <time>2018-09-11T10:39:34Z</time>
      </trkpt>
      <trkpt lat="45.92413" lon="4.73225">
        <ele>171</ele>
        <time>2018-09-11T10:39:35Z</time>
      </trkpt>
      <trkpt lat="45.92413" lon="4.73232">
        <ele>171</ele>
        <time>2018-09-11T10:39:36Z</time>
      </trkpt>
      <trkpt lat="45.92414" lon="4.7324">
        <ele>171</ele>
        <time>2018-09-11T10:39:37Z</time>
      </trkpt>
      <trkpt lat="45.92413" lon="4.73248">
        <ele>171</ele>
        <time>2018-09-11T10:39:38Z</time>
      </trkpt>
      <trkpt lat="45.92414" lon="4.73256">
        <ele>171</ele>
        <time>2018-09-11T10:39:39Z</time>
      </trkpt>
      <trkpt lat="45.92414" lon="4.73264">
        <ele>171</ele>
        <time>2018-09-11T10:39:40Z</time>
      </trkpt>
      <trkpt lat="45.92415" lon="4.7327">
        <ele>171</ele>
        <time>2018-09-11T10:39:41Z</time>
      </trkpt>
      <trkpt lat="45.92415" lon="4.73278">
        <ele>171</ele>
        <time>2018-09-11T10:39:42Z</time>
      </trkpt>
      <trkpt lat="45.92416" lon="4.73284">
        <ele>171</ele>
        <time>2018-09-11T10:39:43Z</time>
      </trkpt>
      <trkpt lat="45.92417" lon="4.73291">
        <ele>171</ele>
        <time>2018-09-11T10:39:44Z</time>
      </trkpt>
      <trkpt lat="45.92418" lon="4.73298">
        <ele>171</ele>
        <time>2018-09-11T10:39:45Z</time>
      </trkpt>
      <trkpt lat="45.92421" lon="4.73307">
        <ele>171</ele>
        <time>2018-09-11T10:39:46Z</time>
      </trkpt>
      <trkpt lat="45.92422" lon="4.73314">
        <ele>171</ele>
        <time>2018-09-11T10:39:47Z</time>
      </trkpt>
      <trkpt lat="45.92423" lon="4.73321">
        <ele>171</ele>
        <time>2018-09-11T10:39:48Z</time>
      </trkpt>
      <trkpt lat="45.92424" lon="4.73328">
        <ele>171</ele>
        <time>2018-09-11T10:39:49Z</time>
      </trkpt>
      <trkpt lat="45.92424" lon="4.7334">
        <ele>171</ele>
        <time>2018-09-11T10:39:51Z</time>
      </trkpt>
      <trkpt lat="45.92425" lon="4.73347">
        <ele>171</ele>
        <time>2018-09-11T10:39:52Z</time>
      </trkpt>
      <trkpt lat="45.92425" lon="4.73355">
        <ele>171</ele>
        <time>2018-09-11T10:39:53Z</time>
      </trkpt>
      <trkpt lat="45.92426" lon="4.73361">
        <ele>172</ele>
        <time>2018-09-11T10:39:54Z</time>
      </trkpt>
      <trkpt lat="45.92428" lon="4.73367">
        <ele>172</ele>
        <time>2018-09-11T10:39:55Z</time>
      </trkpt>
      <trkpt lat="45.92429" lon="4.73374">
        <ele>172</ele>
        <time>2018-09-11T10:39:56Z</time>
      </trkpt>
      <trkpt lat="45.9243" lon="4.73381">
        <ele>172</ele>
        <time>2018-09-11T10:39:57Z</time>
      </trkpt>
      <trkpt lat="45.92432" lon="4.73388">
        <ele>172</ele>
        <time>2018-09-11T10:39:58Z</time>
      </trkpt>
      <trkpt lat="45.92433" lon="4.73395">
        <ele>172</ele>
        <time>2018-09-11T10:39:59Z</time>
      </trkpt>
      <trkpt lat="45.92435" lon="4.73402">
        <ele>172</ele>
        <time>2018-09-11T10:40:00Z</time>
      </trkpt>
      <trkpt lat="45.92438" lon="4.73408">
        <ele>172</ele>
        <time>2018-09-11T10:40:01Z</time>
      </trkpt>
      <trkpt lat="45.92442" lon="4.73412">
        <ele>172</ele>
        <time>2018-09-11T10:40:02Z</time>
      </trkpt>
      <trkpt lat="45.92445" lon="4.73416">
        <ele>172</ele>
        <time>2018-09-11T10:40:03Z</time>
      </trkpt>
      <trkpt lat="45.92451" lon="4.73419">
        <ele>173</ele>
        <time>2018-09-11T10:40:04Z</time>
      </trkpt>
      <trkpt lat="45.92456" lon="4.73421">
        <ele>173</ele>
        <time>2018-09-11T10:40:05Z</time>
      </trkpt>
      <trkpt lat="45.9246" lon="4.73425">
        <ele>173</ele>
        <time>2018-09-11T10:40:06Z</time>
      </trkpt>
      <trkpt lat="45.92464" lon="4.7343">
        <ele>173</ele>
        <time>2018-09-11T10:40:07Z</time>
      </trkpt>
      <trkpt lat="45.92468" lon="4.73435">
        <ele>173</ele>
        <time>2018-09-11T10:40:08Z</time>
      </trkpt>
      <trkpt lat="45.92471" lon="4.73442">
        <ele>173</ele>
        <time>2018-09-11T10:40:09Z</time>
      </trkpt>
      <trkpt lat="45.92474" lon="4.7345">
        <ele>173</ele>
        <time>2018-09-11T10:40:10Z</time>
      </trkpt>
      <trkpt lat="45.92475" lon="4.73458">
        <ele>173</ele>
        <time>2018-09-11T10:40:11Z</time>
      </trkpt>
      <trkpt lat="45.92476" lon="4.73467">
        <ele>173</ele>
        <time>2018-09-11T10:40:12Z</time>
      </trkpt>
      <trkpt lat="45.92477" lon="4.73476">
        <ele>173</ele>
        <time>2018-09-11T10:40:13Z</time>
      </trkpt>
      <trkpt lat="45.92477" lon="4.73486">
        <ele>173</ele>
        <time>2018-09-11T10:40:14Z</time>
      </trkpt>
      <trkpt lat="45.92476" lon="4.73494">
        <ele>173</ele>
        <time>2018-09-11T10:40:15Z</time>
      </trkpt>
      <trkpt lat="45.92474" lon="4.73502">
        <ele>174</ele>
        <time>2018-09-11T10:40:16Z</time>
      </trkpt>
      <trkpt lat="45.92473" lon="4.7351">
        <ele>174</ele>
        <time>2018-09-11T10:40:17Z</time>
      </trkpt>
      <trkpt lat="45.92473" lon="4.73518">
        <ele>174</ele>
        <time>2018-09-11T10:40:18Z</time>
      </trkpt>
      <trkpt lat="45.92471" lon="4.73525">
        <ele>174</ele>
        <time>2018-09-11T10:40:19Z</time>
      </trkpt>
      <trkpt lat="45.9247" lon="4.73531">
        <ele>174</ele>
        <time>2018-09-11T10:40:20Z</time>
      </trkpt>
      <trkpt lat="45.9247" lon="4.73539">
        <ele>174</ele>
        <time>2018-09-11T10:40:21Z</time>
      </trkpt>
      <trkpt lat="45.92471" lon="4.73545">
        <ele>173</ele>
        <time>2018-09-11T10:40:22Z</time>
      </trkpt>
      <trkpt lat="45.9247" lon="4.73551">
        <ele>173</ele>
        <time>2018-09-11T10:40:23Z</time>
      </trkpt>
      <trkpt lat="45.9247" lon="4.73558">
        <ele>173</ele>
        <time>2018-09-11T10:40:24Z</time>
      </trkpt>
      <trkpt lat="45.9247" lon="4.73566">
        <ele>173</ele>
        <time>2018-09-11T10:40:25Z</time>
      </trkpt>
      <trkpt lat="45.9247" lon="4.73574">
        <ele>173</ele>
        <time>2018-09-11T10:40:26Z</time>
      </trkpt>
      <trkpt lat="45.9247" lon="4.73582">
        <ele>173</ele>
        <time>2018-09-11T10:40:27Z</time>
      </trkpt>
      <trkpt lat="45.92469" lon="4.7359">
        <ele>174</ele>
        <time>2018-09-11T10:40:28Z</time>
      </trkpt>
      <trkpt lat="45.9247" lon="4.73598">
        <ele>174</ele>
        <time>2018-09-11T10:40:29Z</time>
      </trkpt>
      <trkpt lat="45.9247" lon="4.73606">
        <ele>174</ele>
        <time>2018-09-11T10:40:30Z</time>
      </trkpt>
      <trkpt lat="45.9247" lon="4.73613">
        <ele>174</ele>
        <time>2018-09-11T10:40:31Z</time>
      </trkpt>
      <trkpt lat="45.92471" lon="4.73623">
        <ele>174</ele>
        <time>2018-09-11T10:40:32Z</time>
      </trkpt>
      <trkpt lat="45.92472" lon="4.73631">
        <ele>174</ele>
        <time>2018-09-11T10:40:33Z</time>
      </trkpt>
      <trkpt lat="45.92472" lon="4.73638">
        <ele>174</ele>
        <time>2018-09-11T10:40:34Z</time>
      </trkpt>
      <trkpt lat="45.92472" lon="4.73645">
        <ele>174</ele>
        <time>2018-09-11T10:40:35Z</time>
      </trkpt>
      <trkpt lat="45.9247" lon="4.73651">
        <ele>174</ele>
        <time>2018-09-11T10:40:36Z</time>
      </trkpt>
      <trkpt lat="45.92471" lon="4.7366">
        <ele>174</ele>
        <time>2018-09-11T10:40:37Z</time>
      </trkpt>
      <trkpt lat="45.92471" lon="4.73666">
        <ele>174</ele>
        <time>2018-09-11T10:40:38Z</time>
      </trkpt>
      <trkpt lat="45.92469" lon="4.73679">
        <ele>174</ele>
        <time>2018-09-11T10:40:40Z</time>
      </trkpt>
      <trkpt lat="45.92469" lon="4.73685">
        <ele>174</ele>
        <time>2018-09-11T10:40:41Z</time>
      </trkpt>
      <trkpt lat="45.92468" lon="4.73697">
        <ele>174</ele>
        <time>2018-09-11T10:40:43Z</time>
      </trkpt>
      <trkpt lat="45.92468" lon="4.73699">
        <ele>174</ele>
        <time>2018-09-11T10:40:44Z</time>
      </trkpt>
      <trkpt lat="45.92462" lon="4.73709">
        <ele>174</ele>
        <time>2018-09-11T10:41:29.407Z</time>
      </trkpt>
    </trkseg>
  </trk>
</gpx>